<?xml version="1.0" encoding="UTF-8" standalone="no" ?>
<gpx xmlns="http://www.topografix.com/GPX/1/1" xmlns:xsi="http://www.w3.org/2001/XMLSchema-instance" xsi:schemaLocation="http://www.topografix.com/GPX/1/1 http://www.topografix.com/GPX/1/1/gpx.xsd" version="1.1" creator="VisuGPX - https://www.visugpx.com">
  <metadata>
    <name>Vélo dans l'après-midi cahors Pradines VTT drone</name>
  </metadata>
  <trk>
    <name><![CDATA[Vélo dans l'après-midi cahors Pradines VTT drone_1]]></name>
    <trkseg>
      <trkpt lat="44.42698" lon="1.42649">
        <ele>159.2</ele>
        <time>2021-10-02T11:43:06Z</time>
      </trkpt>
      <trkpt lat="44.42702" lon="1.42649">
        <ele>159.2</ele>
        <time>2021-10-02T11:43:07Z</time>
      </trkpt>
      <trkpt lat="44.42704" lon="1.4265">
        <ele>159.2</ele>
        <time>2021-10-02T11:43:08Z</time>
      </trkpt>
      <trkpt lat="44.42709" lon="1.42653">
        <ele>159.1</ele>
        <time>2021-10-02T11:43:09Z</time>
      </trkpt>
      <trkpt lat="44.42713" lon="1.42656">
        <ele>158.9</ele>
        <time>2021-10-02T11:43:11Z</time>
      </trkpt>
      <trkpt lat="44.42714" lon="1.42657">
        <ele>158.9</ele>
        <time>2021-10-02T11:43:13Z</time>
      </trkpt>
      <trkpt lat="44.42713" lon="1.42659">
        <ele>158.8</ele>
        <time>2021-10-02T11:43:14Z</time>
      </trkpt>
      <trkpt lat="44.42712" lon="1.42662">
        <ele>158.7</ele>
        <time>2021-10-02T11:43:16Z</time>
      </trkpt>
      <trkpt lat="44.42712" lon="1.42663">
        <ele>158.7</ele>
        <time>2021-10-02T11:43:17Z</time>
      </trkpt>
      <trkpt lat="44.42711" lon="1.42667">
        <ele>158.6</ele>
        <time>2021-10-02T11:44:11Z</time>
      </trkpt>
      <trkpt lat="44.42714" lon="1.4267">
        <ele>158.4</ele>
        <time>2021-10-02T11:44:12Z</time>
      </trkpt>
      <trkpt lat="44.4272" lon="1.42676">
        <ele>158</ele>
        <time>2021-10-02T11:44:14Z</time>
      </trkpt>
      <trkpt lat="44.42725" lon="1.42683">
        <ele>157.6</ele>
        <time>2021-10-02T11:44:16Z</time>
      </trkpt>
      <trkpt lat="44.42731" lon="1.42692">
        <ele>157.1</ele>
        <time>2021-10-02T11:44:18Z</time>
      </trkpt>
      <trkpt lat="44.42738" lon="1.42702">
        <ele>156.5</ele>
        <time>2021-10-02T11:44:20Z</time>
      </trkpt>
      <trkpt lat="44.42744" lon="1.42713">
        <ele>155.9</ele>
        <time>2021-10-02T11:44:22Z</time>
      </trkpt>
      <trkpt lat="44.42751" lon="1.42724">
        <ele>155.2</ele>
        <time>2021-10-02T11:44:24Z</time>
      </trkpt>
      <trkpt lat="44.42763" lon="1.42741">
        <ele>154.1</ele>
        <time>2021-10-02T11:44:26Z</time>
      </trkpt>
      <trkpt lat="44.4278" lon="1.42749">
        <ele>152.8</ele>
        <time>2021-10-02T11:44:28Z</time>
      </trkpt>
      <trkpt lat="44.42797" lon="1.42754">
        <ele>151.4</ele>
        <time>2021-10-02T11:44:30Z</time>
      </trkpt>
      <trkpt lat="44.42804" lon="1.42761">
        <ele>150.8</ele>
        <time>2021-10-02T11:44:31Z</time>
      </trkpt>
      <trkpt lat="44.42813" lon="1.4278">
        <ele>149.6</ele>
        <time>2021-10-02T11:44:33Z</time>
      </trkpt>
      <trkpt lat="44.42814" lon="1.42801">
        <ele>148.4</ele>
        <time>2021-10-02T11:44:35Z</time>
      </trkpt>
      <trkpt lat="44.42815" lon="1.4281">
        <ele>147.7</ele>
        <time>2021-10-02T11:44:36Z</time>
      </trkpt>
      <trkpt lat="44.42818" lon="1.42818">
        <ele>147.3</ele>
        <time>2021-10-02T11:44:37Z</time>
      </trkpt>
      <trkpt lat="44.42829" lon="1.42826">
        <ele>146.5</ele>
        <time>2021-10-02T11:44:39Z</time>
      </trkpt>
      <trkpt lat="44.42836" lon="1.42827">
        <ele>146</ele>
        <time>2021-10-02T11:44:40Z</time>
      </trkpt>
      <trkpt lat="44.42843" lon="1.42829">
        <ele>145.8</ele>
        <time>2021-10-02T11:44:41Z</time>
      </trkpt>
      <trkpt lat="44.42855" lon="1.42829">
        <ele>145.7</ele>
        <time>2021-10-02T11:44:43Z</time>
      </trkpt>
      <trkpt lat="44.4286" lon="1.42829">
        <ele>145.6</ele>
        <time>2021-10-02T11:44:44Z</time>
      </trkpt>
      <trkpt lat="44.42863" lon="1.42831">
        <ele>145.6</ele>
        <time>2021-10-02T11:44:45Z</time>
      </trkpt>
      <trkpt lat="44.4287" lon="1.42832">
        <ele>145.6</ele>
        <time>2021-10-02T11:44:47Z</time>
      </trkpt>
      <trkpt lat="44.42875" lon="1.42835">
        <ele>145.6</ele>
        <time>2021-10-02T11:44:49Z</time>
      </trkpt>
      <trkpt lat="44.42879" lon="1.42833">
        <ele>145.6</ele>
        <time>2021-10-02T11:44:51Z</time>
      </trkpt>
      <trkpt lat="44.42881" lon="1.42829">
        <ele>145.6</ele>
        <time>2021-10-02T11:44:52Z</time>
      </trkpt>
      <trkpt lat="44.42882" lon="1.42825">
        <ele>145.5</ele>
        <time>2021-10-02T11:44:53Z</time>
      </trkpt>
      <trkpt lat="44.42884" lon="1.42816">
        <ele>145.4</ele>
        <time>2021-10-02T11:44:55Z</time>
      </trkpt>
      <trkpt lat="44.42884" lon="1.4281">
        <ele>145.4</ele>
        <time>2021-10-02T11:44:56Z</time>
      </trkpt>
      <trkpt lat="44.42885" lon="1.42805">
        <ele>145.3</ele>
        <time>2021-10-02T11:44:57Z</time>
      </trkpt>
      <trkpt lat="44.42885" lon="1.42797">
        <ele>145.2</ele>
        <time>2021-10-02T11:44:58Z</time>
      </trkpt>
      <trkpt lat="44.42885" lon="1.42791">
        <ele>145.2</ele>
        <time>2021-10-02T11:44:59Z</time>
      </trkpt>
      <trkpt lat="44.42883" lon="1.42783">
        <ele>145.2</ele>
        <time>2021-10-02T11:45:01Z</time>
      </trkpt>
      <trkpt lat="44.42883" lon="1.42777">
        <ele>145.1</ele>
        <time>2021-10-02T11:45:02Z</time>
      </trkpt>
      <trkpt lat="44.42882" lon="1.42772">
        <ele>145.1</ele>
        <time>2021-10-02T11:45:03Z</time>
      </trkpt>
      <trkpt lat="44.42881" lon="1.42766">
        <ele>145.1</ele>
        <time>2021-10-02T11:45:04Z</time>
      </trkpt>
      <trkpt lat="44.4288" lon="1.42758">
        <ele>145.2</ele>
        <time>2021-10-02T11:45:05Z</time>
      </trkpt>
      <trkpt lat="44.42879" lon="1.42751">
        <ele>145.2</ele>
        <time>2021-10-02T11:45:06Z</time>
      </trkpt>
      <trkpt lat="44.42877" lon="1.42745">
        <ele>145.3</ele>
        <time>2021-10-02T11:45:07Z</time>
      </trkpt>
      <trkpt lat="44.42875" lon="1.42735">
        <ele>145.3</ele>
        <time>2021-10-02T11:45:09Z</time>
      </trkpt>
      <trkpt lat="44.42872" lon="1.42724">
        <ele>145.4</ele>
        <time>2021-10-02T11:45:11Z</time>
      </trkpt>
      <trkpt lat="44.42871" lon="1.42717">
        <ele>145.5</ele>
        <time>2021-10-02T11:45:12Z</time>
      </trkpt>
      <trkpt lat="44.42869" lon="1.42704">
        <ele>145.5</ele>
        <time>2021-10-02T11:45:14Z</time>
      </trkpt>
      <trkpt lat="44.42867" lon="1.42698">
        <ele>145.6</ele>
        <time>2021-10-02T11:45:15Z</time>
      </trkpt>
      <trkpt lat="44.42866" lon="1.42692">
        <ele>145.6</ele>
        <time>2021-10-02T11:45:16Z</time>
      </trkpt>
      <trkpt lat="44.42865" lon="1.42689">
        <ele>145.7</ele>
        <time>2021-10-02T11:45:17Z</time>
      </trkpt>
      <trkpt lat="44.42864" lon="1.42682">
        <ele>145.8</ele>
        <time>2021-10-02T11:45:18Z</time>
      </trkpt>
      <trkpt lat="44.42863" lon="1.42672">
        <ele>145.9</ele>
        <time>2021-10-02T11:45:20Z</time>
      </trkpt>
      <trkpt lat="44.42862" lon="1.42663">
        <ele>146</ele>
        <time>2021-10-02T11:45:21Z</time>
      </trkpt>
      <trkpt lat="44.42861" lon="1.42656">
        <ele>146.1</ele>
        <time>2021-10-02T11:45:23Z</time>
      </trkpt>
      <trkpt lat="44.42861" lon="1.42651">
        <ele>146.1</ele>
        <time>2021-10-02T11:45:24Z</time>
      </trkpt>
      <trkpt lat="44.4286" lon="1.4264">
        <ele>146.3</ele>
        <time>2021-10-02T11:45:25Z</time>
      </trkpt>
      <trkpt lat="44.4286" lon="1.42634">
        <ele>146.3</ele>
        <time>2021-10-02T11:45:27Z</time>
      </trkpt>
      <trkpt lat="44.4286" lon="1.42629">
        <ele>146.4</ele>
        <time>2021-10-02T11:45:28Z</time>
      </trkpt>
      <trkpt lat="44.4286" lon="1.42623">
        <ele>146.4</ele>
        <time>2021-10-02T11:45:29Z</time>
      </trkpt>
      <trkpt lat="44.42859" lon="1.42615">
        <ele>146.5</ele>
        <time>2021-10-02T11:45:30Z</time>
      </trkpt>
      <trkpt lat="44.42859" lon="1.42605">
        <ele>146.6</ele>
        <time>2021-10-02T11:45:32Z</time>
      </trkpt>
      <trkpt lat="44.42858" lon="1.42598">
        <ele>146.7</ele>
        <time>2021-10-02T11:45:33Z</time>
      </trkpt>
      <trkpt lat="44.42858" lon="1.42585">
        <ele>146.8</ele>
        <time>2021-10-02T11:45:35Z</time>
      </trkpt>
      <trkpt lat="44.42857" lon="1.4258">
        <ele>146.9</ele>
        <time>2021-10-02T11:45:36Z</time>
      </trkpt>
      <trkpt lat="44.42857" lon="1.42571">
        <ele>147</ele>
        <time>2021-10-02T11:45:37Z</time>
      </trkpt>
      <trkpt lat="44.42857" lon="1.42563">
        <ele>147.1</ele>
        <time>2021-10-02T11:45:39Z</time>
      </trkpt>
      <trkpt lat="44.42856" lon="1.42557">
        <ele>147.2</ele>
        <time>2021-10-02T11:45:40Z</time>
      </trkpt>
      <trkpt lat="44.42856" lon="1.42548">
        <ele>147.3</ele>
        <time>2021-10-02T11:45:41Z</time>
      </trkpt>
      <trkpt lat="44.42856" lon="1.42544">
        <ele>147.4</ele>
        <time>2021-10-02T11:45:42Z</time>
      </trkpt>
      <trkpt lat="44.42856" lon="1.42536">
        <ele>147.5</ele>
        <time>2021-10-02T11:45:44Z</time>
      </trkpt>
      <trkpt lat="44.42856" lon="1.42527">
        <ele>147.7</ele>
        <time>2021-10-02T11:45:45Z</time>
      </trkpt>
      <trkpt lat="44.42857" lon="1.42519">
        <ele>147.8</ele>
        <time>2021-10-02T11:45:47Z</time>
      </trkpt>
      <trkpt lat="44.42857" lon="1.42512">
        <ele>147.9</ele>
        <time>2021-10-02T11:45:48Z</time>
      </trkpt>
      <trkpt lat="44.42857" lon="1.42507">
        <ele>148</ele>
        <time>2021-10-02T11:45:49Z</time>
      </trkpt>
      <trkpt lat="44.42857" lon="1.42498">
        <ele>148.1</ele>
        <time>2021-10-02T11:45:51Z</time>
      </trkpt>
      <trkpt lat="44.42858" lon="1.42493">
        <ele>148.1</ele>
        <time>2021-10-02T11:45:52Z</time>
      </trkpt>
      <trkpt lat="44.42858" lon="1.42485">
        <ele>148.2</ele>
        <time>2021-10-02T11:45:53Z</time>
      </trkpt>
      <trkpt lat="44.42859" lon="1.42474">
        <ele>148.3</ele>
        <time>2021-10-02T11:45:55Z</time>
      </trkpt>
      <trkpt lat="44.42859" lon="1.42465">
        <ele>148.4</ele>
        <time>2021-10-02T11:45:57Z</time>
      </trkpt>
      <trkpt lat="44.42859" lon="1.4246">
        <ele>148.5</ele>
        <time>2021-10-02T11:45:58Z</time>
      </trkpt>
      <trkpt lat="44.4286" lon="1.42453">
        <ele>148.5</ele>
        <time>2021-10-02T11:46:00Z</time>
      </trkpt>
      <trkpt lat="44.4286" lon="1.42448">
        <ele>148.6</ele>
        <time>2021-10-02T11:46:01Z</time>
      </trkpt>
      <trkpt lat="44.4286" lon="1.42438">
        <ele>148.7</ele>
        <time>2021-10-02T11:46:03Z</time>
      </trkpt>
      <trkpt lat="44.42859" lon="1.42432">
        <ele>148.8</ele>
        <time>2021-10-02T11:46:04Z</time>
      </trkpt>
      <trkpt lat="44.42859" lon="1.42427">
        <ele>148.8</ele>
        <time>2021-10-02T11:46:05Z</time>
      </trkpt>
      <trkpt lat="44.42859" lon="1.42421">
        <ele>148.9</ele>
        <time>2021-10-02T11:46:06Z</time>
      </trkpt>
      <trkpt lat="44.42858" lon="1.42412">
        <ele>149</ele>
        <time>2021-10-02T11:46:07Z</time>
      </trkpt>
      <trkpt lat="44.42857" lon="1.42406">
        <ele>149.1</ele>
        <time>2021-10-02T11:46:09Z</time>
      </trkpt>
      <trkpt lat="44.42856" lon="1.42396">
        <ele>149.2</ele>
        <time>2021-10-02T11:46:10Z</time>
      </trkpt>
      <trkpt lat="44.42854" lon="1.4239">
        <ele>149.3</ele>
        <time>2021-10-02T11:46:12Z</time>
      </trkpt>
      <trkpt lat="44.42852" lon="1.42381">
        <ele>149.5</ele>
        <time>2021-10-02T11:46:13Z</time>
      </trkpt>
      <trkpt lat="44.4285" lon="1.42375">
        <ele>149.6</ele>
        <time>2021-10-02T11:46:15Z</time>
      </trkpt>
      <trkpt lat="44.42847" lon="1.42368">
        <ele>149.8</ele>
        <time>2021-10-02T11:46:16Z</time>
      </trkpt>
      <trkpt lat="44.42844" lon="1.42361">
        <ele>149.9</ele>
        <time>2021-10-02T11:46:18Z</time>
      </trkpt>
      <trkpt lat="44.42842" lon="1.42357">
        <ele>150</ele>
        <time>2021-10-02T11:46:19Z</time>
      </trkpt>
      <trkpt lat="44.4284" lon="1.42351">
        <ele>150.2</ele>
        <time>2021-10-02T11:46:20Z</time>
      </trkpt>
      <trkpt lat="44.42837" lon="1.42345">
        <ele>150.3</ele>
        <time>2021-10-02T11:46:21Z</time>
      </trkpt>
      <trkpt lat="44.42834" lon="1.42339">
        <ele>150.5</ele>
        <time>2021-10-02T11:46:23Z</time>
      </trkpt>
      <trkpt lat="44.4283" lon="1.4233">
        <ele>150.7</ele>
        <time>2021-10-02T11:46:25Z</time>
      </trkpt>
      <trkpt lat="44.42829" lon="1.42326">
        <ele>150.8</ele>
        <time>2021-10-02T11:46:26Z</time>
      </trkpt>
      <trkpt lat="44.42827" lon="1.4232">
        <ele>151</ele>
        <time>2021-10-02T11:46:27Z</time>
      </trkpt>
      <trkpt lat="44.42824" lon="1.42313">
        <ele>151.2</ele>
        <time>2021-10-02T11:46:29Z</time>
      </trkpt>
      <trkpt lat="44.42822" lon="1.42308">
        <ele>151.3</ele>
        <time>2021-10-02T11:46:30Z</time>
      </trkpt>
      <trkpt lat="44.4282" lon="1.42303">
        <ele>151.4</ele>
        <time>2021-10-02T11:46:31Z</time>
      </trkpt>
      <trkpt lat="44.42817" lon="1.42296">
        <ele>151.5</ele>
        <time>2021-10-02T11:46:33Z</time>
      </trkpt>
      <trkpt lat="44.42815" lon="1.42291">
        <ele>151.7</ele>
        <time>2021-10-02T11:46:34Z</time>
      </trkpt>
      <trkpt lat="44.42813" lon="1.42286">
        <ele>151.8</ele>
        <time>2021-10-02T11:46:35Z</time>
      </trkpt>
      <trkpt lat="44.4281" lon="1.42281">
        <ele>151.9</ele>
        <time>2021-10-02T11:46:36Z</time>
      </trkpt>
      <trkpt lat="44.42807" lon="1.42276">
        <ele>152</ele>
        <time>2021-10-02T11:46:38Z</time>
      </trkpt>
      <trkpt lat="44.42805" lon="1.42272">
        <ele>152.1</ele>
        <time>2021-10-02T11:46:39Z</time>
      </trkpt>
      <trkpt lat="44.428" lon="1.42264">
        <ele>152.3</ele>
        <time>2021-10-02T11:46:41Z</time>
      </trkpt>
      <trkpt lat="44.42796" lon="1.42257">
        <ele>152.5</ele>
        <time>2021-10-02T11:46:43Z</time>
      </trkpt>
      <trkpt lat="44.42793" lon="1.42253">
        <ele>152.6</ele>
        <time>2021-10-02T11:46:44Z</time>
      </trkpt>
      <trkpt lat="44.42789" lon="1.42246">
        <ele>152.7</ele>
        <time>2021-10-02T11:46:46Z</time>
      </trkpt>
      <trkpt lat="44.42786" lon="1.42242">
        <ele>152.8</ele>
        <time>2021-10-02T11:46:47Z</time>
      </trkpt>
      <trkpt lat="44.42782" lon="1.42237">
        <ele>152.9</ele>
        <time>2021-10-02T11:46:48Z</time>
      </trkpt>
      <trkpt lat="44.42778" lon="1.42232">
        <ele>153</ele>
        <time>2021-10-02T11:46:50Z</time>
      </trkpt>
      <trkpt lat="44.42775" lon="1.42229">
        <ele>153.1</ele>
        <time>2021-10-02T11:46:51Z</time>
      </trkpt>
      <trkpt lat="44.42772" lon="1.42226">
        <ele>153.2</ele>
        <time>2021-10-02T11:46:52Z</time>
      </trkpt>
      <trkpt lat="44.42767" lon="1.4222">
        <ele>153.3</ele>
        <time>2021-10-02T11:46:53Z</time>
      </trkpt>
      <trkpt lat="44.42763" lon="1.42216">
        <ele>153.4</ele>
        <time>2021-10-02T11:46:55Z</time>
      </trkpt>
      <trkpt lat="44.42758" lon="1.42208">
        <ele>153.5</ele>
        <time>2021-10-02T11:46:57Z</time>
      </trkpt>
      <trkpt lat="44.42753" lon="1.422">
        <ele>153.6</ele>
        <time>2021-10-02T11:46:59Z</time>
      </trkpt>
      <trkpt lat="44.42751" lon="1.42195">
        <ele>153.7</ele>
        <time>2021-10-02T11:47:00Z</time>
      </trkpt>
      <trkpt lat="44.42748" lon="1.42189">
        <ele>153.7</ele>
        <time>2021-10-02T11:47:01Z</time>
      </trkpt>
      <trkpt lat="44.42746" lon="1.42182">
        <ele>153.8</ele>
        <time>2021-10-02T11:47:02Z</time>
      </trkpt>
      <trkpt lat="44.42745" lon="1.42176">
        <ele>153.9</ele>
        <time>2021-10-02T11:47:03Z</time>
      </trkpt>
      <trkpt lat="44.42744" lon="1.42168">
        <ele>153.9</ele>
        <time>2021-10-02T11:47:05Z</time>
      </trkpt>
      <trkpt lat="44.42743" lon="1.42161">
        <ele>154</ele>
        <time>2021-10-02T11:47:07Z</time>
      </trkpt>
      <trkpt lat="44.42741" lon="1.42156">
        <ele>154.1</ele>
        <time>2021-10-02T11:47:08Z</time>
      </trkpt>
      <trkpt lat="44.4274" lon="1.42151">
        <ele>154.1</ele>
        <time>2021-10-02T11:47:09Z</time>
      </trkpt>
      <trkpt lat="44.42737" lon="1.42142">
        <ele>154.2</ele>
        <time>2021-10-02T11:47:10Z</time>
      </trkpt>
      <trkpt lat="44.42736" lon="1.42136">
        <ele>154.3</ele>
        <time>2021-10-02T11:47:11Z</time>
      </trkpt>
      <trkpt lat="44.42734" lon="1.42129">
        <ele>154.3</ele>
        <time>2021-10-02T11:47:13Z</time>
      </trkpt>
      <trkpt lat="44.42732" lon="1.42124">
        <ele>154.3</ele>
        <time>2021-10-02T11:47:14Z</time>
      </trkpt>
      <trkpt lat="44.42728" lon="1.42116">
        <ele>154.4</ele>
        <time>2021-10-02T11:47:15Z</time>
      </trkpt>
      <trkpt lat="44.42726" lon="1.42111">
        <ele>154.4</ele>
        <time>2021-10-02T11:47:17Z</time>
      </trkpt>
      <trkpt lat="44.42723" lon="1.42105">
        <ele>154.4</ele>
        <time>2021-10-02T11:47:18Z</time>
      </trkpt>
      <trkpt lat="44.42718" lon="1.42096">
        <ele>154.4</ele>
        <time>2021-10-02T11:47:20Z</time>
      </trkpt>
      <trkpt lat="44.42716" lon="1.42092">
        <ele>154.4</ele>
        <time>2021-10-02T11:47:21Z</time>
      </trkpt>
      <trkpt lat="44.42712" lon="1.42084">
        <ele>154.4</ele>
        <time>2021-10-02T11:47:22Z</time>
      </trkpt>
      <trkpt lat="44.42709" lon="1.42079">
        <ele>154.5</ele>
        <time>2021-10-02T11:47:23Z</time>
      </trkpt>
      <trkpt lat="44.42706" lon="1.42074">
        <ele>154.5</ele>
        <time>2021-10-02T11:47:24Z</time>
      </trkpt>
      <trkpt lat="44.42703" lon="1.42069">
        <ele>154.6</ele>
        <time>2021-10-02T11:47:26Z</time>
      </trkpt>
      <trkpt lat="44.427" lon="1.42065">
        <ele>154.6</ele>
        <time>2021-10-02T11:47:27Z</time>
      </trkpt>
      <trkpt lat="44.42695" lon="1.42055">
        <ele>154.7</ele>
        <time>2021-10-02T11:47:29Z</time>
      </trkpt>
      <trkpt lat="44.42691" lon="1.42048">
        <ele>154.8</ele>
        <time>2021-10-02T11:47:30Z</time>
      </trkpt>
      <trkpt lat="44.42688" lon="1.42041">
        <ele>154.9</ele>
        <time>2021-10-02T11:47:32Z</time>
      </trkpt>
      <trkpt lat="44.42683" lon="1.42032">
        <ele>155</ele>
        <time>2021-10-02T11:47:34Z</time>
      </trkpt>
      <trkpt lat="44.4268" lon="1.42025">
        <ele>155.1</ele>
        <time>2021-10-02T11:47:35Z</time>
      </trkpt>
      <trkpt lat="44.42677" lon="1.42019">
        <ele>155.1</ele>
        <time>2021-10-02T11:47:37Z</time>
      </trkpt>
      <trkpt lat="44.42675" lon="1.42015">
        <ele>155.2</ele>
        <time>2021-10-02T11:47:38Z</time>
      </trkpt>
      <trkpt lat="44.4267" lon="1.42008">
        <ele>155.4</ele>
        <time>2021-10-02T11:47:40Z</time>
      </trkpt>
      <trkpt lat="44.42666" lon="1.41999">
        <ele>155.5</ele>
        <time>2021-10-02T11:47:42Z</time>
      </trkpt>
      <trkpt lat="44.42663" lon="1.41989">
        <ele>155.7</ele>
        <time>2021-10-02T11:47:44Z</time>
      </trkpt>
      <trkpt lat="44.4266" lon="1.41982">
        <ele>155.8</ele>
        <time>2021-10-02T11:47:45Z</time>
      </trkpt>
      <trkpt lat="44.42656" lon="1.41976">
        <ele>155.9</ele>
        <time>2021-10-02T11:47:47Z</time>
      </trkpt>
      <trkpt lat="44.42654" lon="1.41971">
        <ele>156</ele>
        <time>2021-10-02T11:47:48Z</time>
      </trkpt>
      <trkpt lat="44.42652" lon="1.41967">
        <ele>156.1</ele>
        <time>2021-10-02T11:47:49Z</time>
      </trkpt>
      <trkpt lat="44.42649" lon="1.41962">
        <ele>156.2</ele>
        <time>2021-10-02T11:47:50Z</time>
      </trkpt>
      <trkpt lat="44.42647" lon="1.41956">
        <ele>156.3</ele>
        <time>2021-10-02T11:47:51Z</time>
      </trkpt>
      <trkpt lat="44.42644" lon="1.4195">
        <ele>156.4</ele>
        <time>2021-10-02T11:47:53Z</time>
      </trkpt>
      <trkpt lat="44.42642" lon="1.41945">
        <ele>156.5</ele>
        <time>2021-10-02T11:47:54Z</time>
      </trkpt>
      <trkpt lat="44.4264" lon="1.4194">
        <ele>156.6</ele>
        <time>2021-10-02T11:47:55Z</time>
      </trkpt>
      <trkpt lat="44.42638" lon="1.41934">
        <ele>156.7</ele>
        <time>2021-10-02T11:47:56Z</time>
      </trkpt>
      <trkpt lat="44.42635" lon="1.41928">
        <ele>156.9</ele>
        <time>2021-10-02T11:47:57Z</time>
      </trkpt>
      <trkpt lat="44.42633" lon="1.41922">
        <ele>157</ele>
        <time>2021-10-02T11:47:59Z</time>
      </trkpt>
      <trkpt lat="44.42631" lon="1.41917">
        <ele>157.1</ele>
        <time>2021-10-02T11:48:00Z</time>
      </trkpt>
      <trkpt lat="44.42628" lon="1.41909">
        <ele>157.3</ele>
        <time>2021-10-02T11:48:01Z</time>
      </trkpt>
      <trkpt lat="44.42625" lon="1.41904">
        <ele>157.4</ele>
        <time>2021-10-02T11:48:03Z</time>
      </trkpt>
      <trkpt lat="44.42624" lon="1.41899">
        <ele>157.5</ele>
        <time>2021-10-02T11:48:04Z</time>
      </trkpt>
      <trkpt lat="44.42621" lon="1.41892">
        <ele>157.5</ele>
        <time>2021-10-02T11:48:05Z</time>
      </trkpt>
      <trkpt lat="44.42617" lon="1.41886">
        <ele>157.6</ele>
        <time>2021-10-02T11:48:07Z</time>
      </trkpt>
      <trkpt lat="44.42615" lon="1.41882">
        <ele>157.7</ele>
        <time>2021-10-02T11:48:08Z</time>
      </trkpt>
      <trkpt lat="44.42612" lon="1.41877">
        <ele>157.7</ele>
        <time>2021-10-02T11:48:09Z</time>
      </trkpt>
      <trkpt lat="44.42608" lon="1.41871">
        <ele>157.8</ele>
        <time>2021-10-02T11:48:11Z</time>
      </trkpt>
      <trkpt lat="44.42606" lon="1.41867">
        <ele>157.9</ele>
        <time>2021-10-02T11:48:12Z</time>
      </trkpt>
      <trkpt lat="44.42603" lon="1.41862">
        <ele>158</ele>
        <time>2021-10-02T11:48:13Z</time>
      </trkpt>
      <trkpt lat="44.42597" lon="1.41854">
        <ele>158.2</ele>
        <time>2021-10-02T11:48:15Z</time>
      </trkpt>
      <trkpt lat="44.42595" lon="1.4185">
        <ele>158.2</ele>
        <time>2021-10-02T11:48:16Z</time>
      </trkpt>
      <trkpt lat="44.4259" lon="1.41843">
        <ele>158.3</ele>
        <time>2021-10-02T11:48:17Z</time>
      </trkpt>
      <trkpt lat="44.42586" lon="1.41837">
        <ele>158.4</ele>
        <time>2021-10-02T11:48:19Z</time>
      </trkpt>
      <trkpt lat="44.42583" lon="1.4183">
        <ele>158.5</ele>
        <time>2021-10-02T11:48:20Z</time>
      </trkpt>
      <trkpt lat="44.42579" lon="1.41824">
        <ele>158.6</ele>
        <time>2021-10-02T11:48:22Z</time>
      </trkpt>
      <trkpt lat="44.42575" lon="1.41819">
        <ele>158.6</ele>
        <time>2021-10-02T11:48:23Z</time>
      </trkpt>
      <trkpt lat="44.42571" lon="1.41812">
        <ele>158.7</ele>
        <time>2021-10-02T11:48:25Z</time>
      </trkpt>
      <trkpt lat="44.42566" lon="1.41806">
        <ele>158.8</ele>
        <time>2021-10-02T11:48:27Z</time>
      </trkpt>
      <trkpt lat="44.42561" lon="1.41801">
        <ele>158.9</ele>
        <time>2021-10-02T11:48:28Z</time>
      </trkpt>
      <trkpt lat="44.42558" lon="1.41797">
        <ele>158.9</ele>
        <time>2021-10-02T11:48:29Z</time>
      </trkpt>
      <trkpt lat="44.42556" lon="1.41793">
        <ele>159</ele>
        <time>2021-10-02T11:48:30Z</time>
      </trkpt>
      <trkpt lat="44.42553" lon="1.41789">
        <ele>159</ele>
        <time>2021-10-02T11:48:31Z</time>
      </trkpt>
      <trkpt lat="44.42549" lon="1.41785">
        <ele>159.1</ele>
        <time>2021-10-02T11:48:32Z</time>
      </trkpt>
      <trkpt lat="44.42544" lon="1.41781">
        <ele>159.2</ele>
        <time>2021-10-02T11:48:34Z</time>
      </trkpt>
      <trkpt lat="44.42539" lon="1.41775">
        <ele>159.2</ele>
        <time>2021-10-02T11:48:35Z</time>
      </trkpt>
      <trkpt lat="44.42534" lon="1.41771">
        <ele>159.3</ele>
        <time>2021-10-02T11:48:37Z</time>
      </trkpt>
      <trkpt lat="44.42529" lon="1.41767">
        <ele>159.3</ele>
        <time>2021-10-02T11:48:38Z</time>
      </trkpt>
      <trkpt lat="44.42526" lon="1.41764">
        <ele>159.4</ele>
        <time>2021-10-02T11:48:39Z</time>
      </trkpt>
      <trkpt lat="44.42522" lon="1.41759">
        <ele>159.5</ele>
        <time>2021-10-02T11:48:40Z</time>
      </trkpt>
      <trkpt lat="44.42519" lon="1.41755">
        <ele>159.5</ele>
        <time>2021-10-02T11:48:41Z</time>
      </trkpt>
      <trkpt lat="44.42514" lon="1.41751">
        <ele>159.6</ele>
        <time>2021-10-02T11:48:43Z</time>
      </trkpt>
      <trkpt lat="44.42511" lon="1.41747">
        <ele>159.7</ele>
        <time>2021-10-02T11:48:44Z</time>
      </trkpt>
      <trkpt lat="44.42505" lon="1.41741">
        <ele>159.7</ele>
        <time>2021-10-02T11:48:45Z</time>
      </trkpt>
      <trkpt lat="44.42502" lon="1.41738">
        <ele>159.8</ele>
        <time>2021-10-02T11:48:47Z</time>
      </trkpt>
      <trkpt lat="44.425" lon="1.41733">
        <ele>159.9</ele>
        <time>2021-10-02T11:48:48Z</time>
      </trkpt>
      <trkpt lat="44.42498" lon="1.41726">
        <ele>160</ele>
        <time>2021-10-02T11:48:50Z</time>
      </trkpt>
      <trkpt lat="44.42497" lon="1.41719">
        <ele>160</ele>
        <time>2021-10-02T11:48:51Z</time>
      </trkpt>
      <trkpt lat="44.42497" lon="1.41714">
        <ele>160.1</ele>
        <time>2021-10-02T11:48:52Z</time>
      </trkpt>
      <trkpt lat="44.42497" lon="1.41706">
        <ele>160.2</ele>
        <time>2021-10-02T11:48:54Z</time>
      </trkpt>
      <trkpt lat="44.42497" lon="1.41699">
        <ele>160.2</ele>
        <time>2021-10-02T11:48:55Z</time>
      </trkpt>
      <trkpt lat="44.42497" lon="1.41694">
        <ele>160.3</ele>
        <time>2021-10-02T11:48:56Z</time>
      </trkpt>
      <trkpt lat="44.42497" lon="1.41686">
        <ele>160.3</ele>
        <time>2021-10-02T11:48:57Z</time>
      </trkpt>
      <trkpt lat="44.42497" lon="1.4168">
        <ele>160.4</ele>
        <time>2021-10-02T11:48:59Z</time>
      </trkpt>
      <trkpt lat="44.42497" lon="1.41675">
        <ele>160.4</ele>
        <time>2021-10-02T11:49:00Z</time>
      </trkpt>
      <trkpt lat="44.42498" lon="1.41666">
        <ele>160.6</ele>
        <time>2021-10-02T11:49:02Z</time>
      </trkpt>
      <trkpt lat="44.42499" lon="1.41659">
        <ele>160.6</ele>
        <time>2021-10-02T11:49:03Z</time>
      </trkpt>
      <trkpt lat="44.425" lon="1.41653">
        <ele>160.7</ele>
        <time>2021-10-02T11:49:04Z</time>
      </trkpt>
      <trkpt lat="44.42501" lon="1.41646">
        <ele>160.8</ele>
        <time>2021-10-02T11:49:05Z</time>
      </trkpt>
      <trkpt lat="44.42502" lon="1.41641">
        <ele>160.9</ele>
        <time>2021-10-02T11:49:07Z</time>
      </trkpt>
      <trkpt lat="44.42503" lon="1.41633">
        <ele>161</ele>
        <time>2021-10-02T11:49:08Z</time>
      </trkpt>
      <trkpt lat="44.42504" lon="1.41625">
        <ele>161.2</ele>
        <time>2021-10-02T11:49:10Z</time>
      </trkpt>
      <trkpt lat="44.42505" lon="1.41619">
        <ele>161.3</ele>
        <time>2021-10-02T11:49:11Z</time>
      </trkpt>
      <trkpt lat="44.42506" lon="1.41613">
        <ele>161.4</ele>
        <time>2021-10-02T11:49:12Z</time>
      </trkpt>
      <trkpt lat="44.42507" lon="1.41606">
        <ele>161.5</ele>
        <time>2021-10-02T11:49:14Z</time>
      </trkpt>
      <trkpt lat="44.42508" lon="1.41597">
        <ele>161.7</ele>
        <time>2021-10-02T11:49:15Z</time>
      </trkpt>
      <trkpt lat="44.42509" lon="1.41591">
        <ele>161.8</ele>
        <time>2021-10-02T11:49:17Z</time>
      </trkpt>
      <trkpt lat="44.4251" lon="1.41585">
        <ele>161.9</ele>
        <time>2021-10-02T11:49:18Z</time>
      </trkpt>
      <trkpt lat="44.42511" lon="1.4158">
        <ele>162</ele>
        <time>2021-10-02T11:49:19Z</time>
      </trkpt>
      <trkpt lat="44.42513" lon="1.41575">
        <ele>162.1</ele>
        <time>2021-10-02T11:49:20Z</time>
      </trkpt>
      <trkpt lat="44.42514" lon="1.41569">
        <ele>162.1</ele>
        <time>2021-10-02T11:49:21Z</time>
      </trkpt>
      <trkpt lat="44.42516" lon="1.41564">
        <ele>162.2</ele>
        <time>2021-10-02T11:49:23Z</time>
      </trkpt>
      <trkpt lat="44.42518" lon="1.4156">
        <ele>162.1</ele>
        <time>2021-10-02T11:49:24Z</time>
      </trkpt>
      <trkpt lat="44.4252" lon="1.41555">
        <ele>162.1</ele>
        <time>2021-10-02T11:49:25Z</time>
      </trkpt>
      <trkpt lat="44.42521" lon="1.41549">
        <ele>162</ele>
        <time>2021-10-02T11:49:26Z</time>
      </trkpt>
      <trkpt lat="44.42523" lon="1.41543">
        <ele>162</ele>
        <time>2021-10-02T11:49:28Z</time>
      </trkpt>
      <trkpt lat="44.42525" lon="1.41539">
        <ele>162.1</ele>
        <time>2021-10-02T11:49:29Z</time>
      </trkpt>
      <trkpt lat="44.42527" lon="1.41535">
        <ele>162.1</ele>
        <time>2021-10-02T11:49:30Z</time>
      </trkpt>
      <trkpt lat="44.42528" lon="1.4153">
        <ele>162.2</ele>
        <time>2021-10-02T11:49:31Z</time>
      </trkpt>
      <trkpt lat="44.42531" lon="1.41524">
        <ele>162.4</ele>
        <time>2021-10-02T11:49:32Z</time>
      </trkpt>
      <trkpt lat="44.42531" lon="1.4152">
        <ele>162.5</ele>
        <time>2021-10-02T11:49:34Z</time>
      </trkpt>
      <trkpt lat="44.42532" lon="1.41516">
        <ele>162.6</ele>
        <time>2021-10-02T11:49:35Z</time>
      </trkpt>
      <trkpt lat="44.42533" lon="1.41511">
        <ele>162.7</ele>
        <time>2021-10-02T11:49:36Z</time>
      </trkpt>
      <trkpt lat="44.42534" lon="1.41507">
        <ele>162.8</ele>
        <time>2021-10-02T11:49:37Z</time>
      </trkpt>
      <trkpt lat="44.42532" lon="1.41501">
        <ele>162.9</ele>
        <time>2021-10-02T11:49:39Z</time>
      </trkpt>
      <trkpt lat="44.42531" lon="1.41495">
        <ele>163</ele>
        <time>2021-10-02T11:49:40Z</time>
      </trkpt>
      <trkpt lat="44.42529" lon="1.41485">
        <ele>163.2</ele>
        <time>2021-10-02T11:49:42Z</time>
      </trkpt>
      <trkpt lat="44.42527" lon="1.41477">
        <ele>163.3</ele>
        <time>2021-10-02T11:49:44Z</time>
      </trkpt>
      <trkpt lat="44.42525" lon="1.41472">
        <ele>163.4</ele>
        <time>2021-10-02T11:49:45Z</time>
      </trkpt>
      <trkpt lat="44.42523" lon="1.41464">
        <ele>163.6</ele>
        <time>2021-10-02T11:49:47Z</time>
      </trkpt>
      <trkpt lat="44.42524" lon="1.41459">
        <ele>163.7</ele>
        <time>2021-10-02T11:49:48Z</time>
      </trkpt>
      <trkpt lat="44.42523" lon="1.41453">
        <ele>163.8</ele>
        <time>2021-10-02T11:49:50Z</time>
      </trkpt>
      <trkpt lat="44.42522" lon="1.41447">
        <ele>163.9</ele>
        <time>2021-10-02T11:49:51Z</time>
      </trkpt>
      <trkpt lat="44.4252" lon="1.4144">
        <ele>164</ele>
        <time>2021-10-02T11:49:52Z</time>
      </trkpt>
      <trkpt lat="44.4252" lon="1.41435">
        <ele>164.1</ele>
        <time>2021-10-02T11:49:53Z</time>
      </trkpt>
      <trkpt lat="44.42518" lon="1.41428">
        <ele>164.3</ele>
        <time>2021-10-02T11:49:55Z</time>
      </trkpt>
      <trkpt lat="44.42517" lon="1.41422">
        <ele>164.4</ele>
        <time>2021-10-02T11:49:56Z</time>
      </trkpt>
      <trkpt lat="44.42515" lon="1.41416">
        <ele>164.5</ele>
        <time>2021-10-02T11:49:58Z</time>
      </trkpt>
      <trkpt lat="44.42513" lon="1.4141">
        <ele>164.6</ele>
        <time>2021-10-02T11:49:59Z</time>
      </trkpt>
      <trkpt lat="44.42511" lon="1.41405">
        <ele>164.7</ele>
        <time>2021-10-02T11:50:00Z</time>
      </trkpt>
      <trkpt lat="44.42509" lon="1.414">
        <ele>164.8</ele>
        <time>2021-10-02T11:50:02Z</time>
      </trkpt>
      <trkpt lat="44.42507" lon="1.41397">
        <ele>164.9</ele>
        <time>2021-10-02T11:50:03Z</time>
      </trkpt>
      <trkpt lat="44.42504" lon="1.41392">
        <ele>165</ele>
        <time>2021-10-02T11:50:04Z</time>
      </trkpt>
      <trkpt lat="44.42501" lon="1.41388">
        <ele>165.1</ele>
        <time>2021-10-02T11:50:05Z</time>
      </trkpt>
      <trkpt lat="44.42499" lon="1.41384">
        <ele>165.2</ele>
        <time>2021-10-02T11:50:06Z</time>
      </trkpt>
      <trkpt lat="44.42495" lon="1.41381">
        <ele>165.3</ele>
        <time>2021-10-02T11:50:08Z</time>
      </trkpt>
      <trkpt lat="44.42491" lon="1.41376">
        <ele>165.5</ele>
        <time>2021-10-02T11:50:09Z</time>
      </trkpt>
      <trkpt lat="44.42487" lon="1.41374">
        <ele>165.6</ele>
        <time>2021-10-02T11:50:11Z</time>
      </trkpt>
      <trkpt lat="44.42484" lon="1.41372">
        <ele>165.7</ele>
        <time>2021-10-02T11:50:12Z</time>
      </trkpt>
      <trkpt lat="44.42481" lon="1.4137">
        <ele>165.8</ele>
        <time>2021-10-02T11:50:13Z</time>
      </trkpt>
      <trkpt lat="44.42478" lon="1.41367">
        <ele>165.9</ele>
        <time>2021-10-02T11:50:14Z</time>
      </trkpt>
      <trkpt lat="44.42473" lon="1.41364">
        <ele>166</ele>
        <time>2021-10-02T11:50:16Z</time>
      </trkpt>
      <trkpt lat="44.42469" lon="1.41361">
        <ele>166.2</ele>
        <time>2021-10-02T11:50:17Z</time>
      </trkpt>
      <trkpt lat="44.42464" lon="1.41357">
        <ele>166.3</ele>
        <time>2021-10-02T11:50:19Z</time>
      </trkpt>
      <trkpt lat="44.4246" lon="1.41355">
        <ele>166.5</ele>
        <time>2021-10-02T11:50:20Z</time>
      </trkpt>
      <trkpt lat="44.42459" lon="1.41353">
        <ele>166.5</ele>
        <time>2021-10-02T11:50:21Z</time>
      </trkpt>
      <trkpt lat="44.42455" lon="1.41349">
        <ele>166.7</ele>
        <time>2021-10-02T11:50:23Z</time>
      </trkpt>
      <trkpt lat="44.42452" lon="1.41346">
        <ele>166.8</ele>
        <time>2021-10-02T11:50:24Z</time>
      </trkpt>
      <trkpt lat="44.42449" lon="1.41342">
        <ele>166.9</ele>
        <time>2021-10-02T11:50:25Z</time>
      </trkpt>
      <trkpt lat="44.42446" lon="1.41338">
        <ele>167</ele>
        <time>2021-10-02T11:50:26Z</time>
      </trkpt>
      <trkpt lat="44.42443" lon="1.41334">
        <ele>167.1</ele>
        <time>2021-10-02T11:50:27Z</time>
      </trkpt>
      <trkpt lat="44.4244" lon="1.4133">
        <ele>167.2</ele>
        <time>2021-10-02T11:50:29Z</time>
      </trkpt>
      <trkpt lat="44.42437" lon="1.41324">
        <ele>167.4</ele>
        <time>2021-10-02T11:50:30Z</time>
      </trkpt>
      <trkpt lat="44.42434" lon="1.41319">
        <ele>167.5</ele>
        <time>2021-10-02T11:50:32Z</time>
      </trkpt>
      <trkpt lat="44.42431" lon="1.41314">
        <ele>167.7</ele>
        <time>2021-10-02T11:50:33Z</time>
      </trkpt>
      <trkpt lat="44.42428" lon="1.4131">
        <ele>167.8</ele>
        <time>2021-10-02T11:50:34Z</time>
      </trkpt>
      <trkpt lat="44.42426" lon="1.41306">
        <ele>167.9</ele>
        <time>2021-10-02T11:50:36Z</time>
      </trkpt>
      <trkpt lat="44.42423" lon="1.41303">
        <ele>168</ele>
        <time>2021-10-02T11:50:37Z</time>
      </trkpt>
      <trkpt lat="44.42421" lon="1.41299">
        <ele>168.1</ele>
        <time>2021-10-02T11:50:38Z</time>
      </trkpt>
      <trkpt lat="44.42418" lon="1.41296">
        <ele>168.2</ele>
        <time>2021-10-02T11:50:39Z</time>
      </trkpt>
      <trkpt lat="44.42416" lon="1.41292">
        <ele>168.3</ele>
        <time>2021-10-02T11:50:40Z</time>
      </trkpt>
      <trkpt lat="44.42414" lon="1.41289">
        <ele>168.4</ele>
        <time>2021-10-02T11:50:41Z</time>
      </trkpt>
      <trkpt lat="44.4241" lon="1.41284">
        <ele>168.6</ele>
        <time>2021-10-02T11:50:43Z</time>
      </trkpt>
      <trkpt lat="44.42407" lon="1.41279">
        <ele>168.7</ele>
        <time>2021-10-02T11:50:44Z</time>
      </trkpt>
      <trkpt lat="44.42405" lon="1.41276">
        <ele>168.8</ele>
        <time>2021-10-02T11:50:46Z</time>
      </trkpt>
      <trkpt lat="44.42402" lon="1.41272">
        <ele>168.9</ele>
        <time>2021-10-02T11:50:47Z</time>
      </trkpt>
      <trkpt lat="44.42398" lon="1.41266">
        <ele>169.1</ele>
        <time>2021-10-02T11:50:49Z</time>
      </trkpt>
      <trkpt lat="44.42396" lon="1.41263">
        <ele>169.1</ele>
        <time>2021-10-02T11:50:50Z</time>
      </trkpt>
      <trkpt lat="44.42392" lon="1.41257">
        <ele>169.3</ele>
        <time>2021-10-02T11:50:51Z</time>
      </trkpt>
      <trkpt lat="44.4239" lon="1.41252">
        <ele>169.4</ele>
        <time>2021-10-02T11:50:53Z</time>
      </trkpt>
      <trkpt lat="44.42387" lon="1.41247">
        <ele>169.5</ele>
        <time>2021-10-02T11:50:54Z</time>
      </trkpt>
      <trkpt lat="44.42385" lon="1.41243">
        <ele>169.6</ele>
        <time>2021-10-02T11:50:55Z</time>
      </trkpt>
      <trkpt lat="44.42383" lon="1.41239">
        <ele>169.7</ele>
        <time>2021-10-02T11:50:56Z</time>
      </trkpt>
      <trkpt lat="44.42381" lon="1.41234">
        <ele>169.8</ele>
        <time>2021-10-02T11:50:58Z</time>
      </trkpt>
      <trkpt lat="44.42379" lon="1.41231">
        <ele>169.8</ele>
        <time>2021-10-02T11:50:59Z</time>
      </trkpt>
      <trkpt lat="44.42377" lon="1.41227">
        <ele>169.9</ele>
        <time>2021-10-02T11:51:00Z</time>
      </trkpt>
      <trkpt lat="44.42375" lon="1.41222">
        <ele>170</ele>
        <time>2021-10-02T11:51:01Z</time>
      </trkpt>
      <trkpt lat="44.42373" lon="1.41217">
        <ele>170.2</ele>
        <time>2021-10-02T11:51:02Z</time>
      </trkpt>
      <trkpt lat="44.42371" lon="1.41212">
        <ele>170.3</ele>
        <time>2021-10-02T11:51:04Z</time>
      </trkpt>
      <trkpt lat="44.42369" lon="1.41208">
        <ele>170.4</ele>
        <time>2021-10-02T11:51:05Z</time>
      </trkpt>
      <trkpt lat="44.42367" lon="1.41201">
        <ele>170.5</ele>
        <time>2021-10-02T11:51:07Z</time>
      </trkpt>
      <trkpt lat="44.42365" lon="1.41194">
        <ele>170.7</ele>
        <time>2021-10-02T11:51:08Z</time>
      </trkpt>
      <trkpt lat="44.42363" lon="1.41188">
        <ele>170.8</ele>
        <time>2021-10-02T11:51:10Z</time>
      </trkpt>
      <trkpt lat="44.42362" lon="1.41184">
        <ele>170.9</ele>
        <time>2021-10-02T11:51:11Z</time>
      </trkpt>
      <trkpt lat="44.42361" lon="1.41178">
        <ele>171</ele>
        <time>2021-10-02T11:51:12Z</time>
      </trkpt>
      <trkpt lat="44.4236" lon="1.41173">
        <ele>171.1</ele>
        <time>2021-10-02T11:51:13Z</time>
      </trkpt>
      <trkpt lat="44.42359" lon="1.41169">
        <ele>171.2</ele>
        <time>2021-10-02T11:51:15Z</time>
      </trkpt>
      <trkpt lat="44.42359" lon="1.41164">
        <ele>171.3</ele>
        <time>2021-10-02T11:51:16Z</time>
      </trkpt>
      <trkpt lat="44.42358" lon="1.41157">
        <ele>171.4</ele>
        <time>2021-10-02T11:51:17Z</time>
      </trkpt>
      <trkpt lat="44.42358" lon="1.41151">
        <ele>171.5</ele>
        <time>2021-10-02T11:51:18Z</time>
      </trkpt>
      <trkpt lat="44.42358" lon="1.41146">
        <ele>171.6</ele>
        <time>2021-10-02T11:51:19Z</time>
      </trkpt>
      <trkpt lat="44.42358" lon="1.41141">
        <ele>171.7</ele>
        <time>2021-10-02T11:51:21Z</time>
      </trkpt>
      <trkpt lat="44.42358" lon="1.41134">
        <ele>171.9</ele>
        <time>2021-10-02T11:51:22Z</time>
      </trkpt>
      <trkpt lat="44.42359" lon="1.41129">
        <ele>171.9</ele>
        <time>2021-10-02T11:51:23Z</time>
      </trkpt>
      <trkpt lat="44.42359" lon="1.41125">
        <ele>172</ele>
        <time>2021-10-02T11:51:25Z</time>
      </trkpt>
      <trkpt lat="44.4236" lon="1.41118">
        <ele>172.2</ele>
        <time>2021-10-02T11:51:26Z</time>
      </trkpt>
      <trkpt lat="44.4236" lon="1.41113">
        <ele>172.3</ele>
        <time>2021-10-02T11:51:27Z</time>
      </trkpt>
      <trkpt lat="44.42361" lon="1.41106">
        <ele>172.4</ele>
        <time>2021-10-02T11:51:29Z</time>
      </trkpt>
      <trkpt lat="44.42361" lon="1.411">
        <ele>172.5</ele>
        <time>2021-10-02T11:51:30Z</time>
      </trkpt>
      <trkpt lat="44.42362" lon="1.41093">
        <ele>172.6</ele>
        <time>2021-10-02T11:51:32Z</time>
      </trkpt>
      <trkpt lat="44.42363" lon="1.41083">
        <ele>172.8</ele>
        <time>2021-10-02T11:51:34Z</time>
      </trkpt>
      <trkpt lat="44.42363" lon="1.41078">
        <ele>172.9</ele>
        <time>2021-10-02T11:51:35Z</time>
      </trkpt>
      <trkpt lat="44.42364" lon="1.41073">
        <ele>173</ele>
        <time>2021-10-02T11:51:36Z</time>
      </trkpt>
      <trkpt lat="44.42364" lon="1.41067">
        <ele>173.1</ele>
        <time>2021-10-02T11:51:37Z</time>
      </trkpt>
      <trkpt lat="44.42364" lon="1.41065">
        <ele>173.1</ele>
        <time>2021-10-02T11:51:38Z</time>
      </trkpt>
      <trkpt lat="44.42364" lon="1.41059">
        <ele>173.2</ele>
        <time>2021-10-02T11:51:39Z</time>
      </trkpt>
      <trkpt lat="44.42365" lon="1.41053">
        <ele>173.4</ele>
        <time>2021-10-02T11:51:41Z</time>
      </trkpt>
      <trkpt lat="44.42366" lon="1.41045">
        <ele>173.5</ele>
        <time>2021-10-02T11:51:43Z</time>
      </trkpt>
      <trkpt lat="44.42367" lon="1.41041">
        <ele>173.6</ele>
        <time>2021-10-02T11:51:44Z</time>
      </trkpt>
      <trkpt lat="44.42368" lon="1.41033">
        <ele>173.8</ele>
        <time>2021-10-02T11:51:45Z</time>
      </trkpt>
      <trkpt lat="44.42369" lon="1.41028">
        <ele>173.9</ele>
        <time>2021-10-02T11:51:47Z</time>
      </trkpt>
      <trkpt lat="44.42369" lon="1.41024">
        <ele>174</ele>
        <time>2021-10-02T11:51:48Z</time>
      </trkpt>
      <trkpt lat="44.4237" lon="1.41019">
        <ele>174</ele>
        <time>2021-10-02T11:51:49Z</time>
      </trkpt>
      <trkpt lat="44.42371" lon="1.41015">
        <ele>174.1</ele>
        <time>2021-10-02T11:51:50Z</time>
      </trkpt>
      <trkpt lat="44.42373" lon="1.4101">
        <ele>174.2</ele>
        <time>2021-10-02T11:51:51Z</time>
      </trkpt>
      <trkpt lat="44.42374" lon="1.41003">
        <ele>174.3</ele>
        <time>2021-10-02T11:51:53Z</time>
      </trkpt>
      <trkpt lat="44.42375" lon="1.40995">
        <ele>174.4</ele>
        <time>2021-10-02T11:51:55Z</time>
      </trkpt>
      <trkpt lat="44.42376" lon="1.4099">
        <ele>174.5</ele>
        <time>2021-10-02T11:51:56Z</time>
      </trkpt>
      <trkpt lat="44.42377" lon="1.40988">
        <ele>174.5</ele>
        <time>2021-10-02T11:51:57Z</time>
      </trkpt>
      <trkpt lat="44.42378" lon="1.40982">
        <ele>174.7</ele>
        <time>2021-10-02T11:51:59Z</time>
      </trkpt>
      <trkpt lat="44.42378" lon="1.40978">
        <ele>174.7</ele>
        <time>2021-10-02T11:52:00Z</time>
      </trkpt>
      <trkpt lat="44.42379" lon="1.40971">
        <ele>174.9</ele>
        <time>2021-10-02T11:52:01Z</time>
      </trkpt>
      <trkpt lat="44.42381" lon="1.40965">
        <ele>175</ele>
        <time>2021-10-02T11:52:03Z</time>
      </trkpt>
      <trkpt lat="44.42382" lon="1.4096">
        <ele>175.1</ele>
        <time>2021-10-02T11:52:04Z</time>
      </trkpt>
      <trkpt lat="44.42383" lon="1.40955">
        <ele>175.2</ele>
        <time>2021-10-02T11:52:06Z</time>
      </trkpt>
      <trkpt lat="44.42385" lon="1.4095">
        <ele>175.3</ele>
        <time>2021-10-02T11:52:07Z</time>
      </trkpt>
      <trkpt lat="44.42386" lon="1.40944">
        <ele>175.4</ele>
        <time>2021-10-02T11:52:08Z</time>
      </trkpt>
      <trkpt lat="44.42387" lon="1.40938">
        <ele>175.5</ele>
        <time>2021-10-02T11:52:10Z</time>
      </trkpt>
      <trkpt lat="44.42388" lon="1.40931">
        <ele>175.6</ele>
        <time>2021-10-02T11:52:11Z</time>
      </trkpt>
      <trkpt lat="44.42388" lon="1.40928">
        <ele>175.7</ele>
        <time>2021-10-02T11:52:12Z</time>
      </trkpt>
      <trkpt lat="44.4239" lon="1.40921">
        <ele>175.9</ele>
        <time>2021-10-02T11:52:14Z</time>
      </trkpt>
      <trkpt lat="44.42391" lon="1.40916">
        <ele>176</ele>
        <time>2021-10-02T11:52:15Z</time>
      </trkpt>
      <trkpt lat="44.42392" lon="1.40912">
        <ele>176.1</ele>
        <time>2021-10-02T11:52:16Z</time>
      </trkpt>
      <trkpt lat="44.42394" lon="1.40906">
        <ele>176.2</ele>
        <time>2021-10-02T11:52:17Z</time>
      </trkpt>
      <trkpt lat="44.42395" lon="1.40902">
        <ele>176.3</ele>
        <time>2021-10-02T11:52:18Z</time>
      </trkpt>
      <trkpt lat="44.42395" lon="1.40897">
        <ele>176.4</ele>
        <time>2021-10-02T11:52:20Z</time>
      </trkpt>
      <trkpt lat="44.42398" lon="1.4089">
        <ele>176.6</ele>
        <time>2021-10-02T11:52:22Z</time>
      </trkpt>
      <trkpt lat="44.424" lon="1.40884">
        <ele>176.7</ele>
        <time>2021-10-02T11:52:23Z</time>
      </trkpt>
      <trkpt lat="44.42401" lon="1.40878">
        <ele>176.9</ele>
        <time>2021-10-02T11:52:25Z</time>
      </trkpt>
      <trkpt lat="44.42402" lon="1.40869">
        <ele>177.1</ele>
        <time>2021-10-02T11:52:27Z</time>
      </trkpt>
      <trkpt lat="44.42403" lon="1.40865">
        <ele>177.1</ele>
        <time>2021-10-02T11:52:28Z</time>
      </trkpt>
      <trkpt lat="44.42405" lon="1.40859">
        <ele>177.3</ele>
        <time>2021-10-02T11:52:29Z</time>
      </trkpt>
      <trkpt lat="44.42406" lon="1.40854">
        <ele>177.4</ele>
        <time>2021-10-02T11:52:31Z</time>
      </trkpt>
      <trkpt lat="44.42408" lon="1.40849">
        <ele>177.5</ele>
        <time>2021-10-02T11:52:32Z</time>
      </trkpt>
      <trkpt lat="44.4241" lon="1.40841">
        <ele>177.7</ele>
        <time>2021-10-02T11:52:34Z</time>
      </trkpt>
      <trkpt lat="44.42412" lon="1.40835">
        <ele>177.8</ele>
        <time>2021-10-02T11:52:35Z</time>
      </trkpt>
      <trkpt lat="44.42414" lon="1.40828">
        <ele>178</ele>
        <time>2021-10-02T11:52:37Z</time>
      </trkpt>
      <trkpt lat="44.42416" lon="1.40823">
        <ele>178.2</ele>
        <time>2021-10-02T11:52:39Z</time>
      </trkpt>
      <trkpt lat="44.42417" lon="1.40819">
        <ele>178.3</ele>
        <time>2021-10-02T11:52:40Z</time>
      </trkpt>
      <trkpt lat="44.42418" lon="1.40812">
        <ele>178.5</ele>
        <time>2021-10-02T11:52:41Z</time>
      </trkpt>
      <trkpt lat="44.42419" lon="1.40808">
        <ele>178.6</ele>
        <time>2021-10-02T11:52:43Z</time>
      </trkpt>
      <trkpt lat="44.4242" lon="1.40802">
        <ele>178.8</ele>
        <time>2021-10-02T11:52:44Z</time>
      </trkpt>
      <trkpt lat="44.42421" lon="1.40797">
        <ele>178.9</ele>
        <time>2021-10-02T11:52:46Z</time>
      </trkpt>
      <trkpt lat="44.42423" lon="1.40791">
        <ele>179.1</ele>
        <time>2021-10-02T11:52:47Z</time>
      </trkpt>
      <trkpt lat="44.42424" lon="1.40787">
        <ele>179.2</ele>
        <time>2021-10-02T11:52:48Z</time>
      </trkpt>
      <trkpt lat="44.42425" lon="1.40783">
        <ele>179.3</ele>
        <time>2021-10-02T11:52:49Z</time>
      </trkpt>
      <trkpt lat="44.42426" lon="1.40778">
        <ele>179.4</ele>
        <time>2021-10-02T11:52:51Z</time>
      </trkpt>
      <trkpt lat="44.42427" lon="1.40774">
        <ele>179.5</ele>
        <time>2021-10-02T11:52:52Z</time>
      </trkpt>
      <trkpt lat="44.42429" lon="1.40767">
        <ele>179.7</ele>
        <time>2021-10-02T11:52:54Z</time>
      </trkpt>
      <trkpt lat="44.4243" lon="1.40761">
        <ele>179.9</ele>
        <time>2021-10-02T11:52:55Z</time>
      </trkpt>
      <trkpt lat="44.42432" lon="1.40756">
        <ele>180.1</ele>
        <time>2021-10-02T11:52:56Z</time>
      </trkpt>
      <trkpt lat="44.42433" lon="1.40751">
        <ele>180.2</ele>
        <time>2021-10-02T11:52:58Z</time>
      </trkpt>
      <trkpt lat="44.42434" lon="1.40747">
        <ele>180.3</ele>
        <time>2021-10-02T11:52:59Z</time>
      </trkpt>
      <trkpt lat="44.42434" lon="1.40741">
        <ele>180.5</ele>
        <time>2021-10-02T11:53:00Z</time>
      </trkpt>
      <trkpt lat="44.42435" lon="1.40736">
        <ele>180.6</ele>
        <time>2021-10-02T11:53:02Z</time>
      </trkpt>
      <trkpt lat="44.42437" lon="1.40729">
        <ele>180.8</ele>
        <time>2021-10-02T11:53:04Z</time>
      </trkpt>
      <trkpt lat="44.42438" lon="1.40723">
        <ele>181</ele>
        <time>2021-10-02T11:53:05Z</time>
      </trkpt>
      <trkpt lat="44.42438" lon="1.4072">
        <ele>181.1</ele>
        <time>2021-10-02T11:53:06Z</time>
      </trkpt>
      <trkpt lat="44.42439" lon="1.40716">
        <ele>181.2</ele>
        <time>2021-10-02T11:53:08Z</time>
      </trkpt>
      <trkpt lat="44.42441" lon="1.40709">
        <ele>181.4</ele>
        <time>2021-10-02T11:53:09Z</time>
      </trkpt>
      <trkpt lat="44.42442" lon="1.40704">
        <ele>181.6</ele>
        <time>2021-10-02T11:53:11Z</time>
      </trkpt>
      <trkpt lat="44.42445" lon="1.40696">
        <ele>181.8</ele>
        <time>2021-10-02T11:53:13Z</time>
      </trkpt>
      <trkpt lat="44.42446" lon="1.40692">
        <ele>181.9</ele>
        <time>2021-10-02T11:53:14Z</time>
      </trkpt>
      <trkpt lat="44.42448" lon="1.40687">
        <ele>182.1</ele>
        <time>2021-10-02T11:53:16Z</time>
      </trkpt>
      <trkpt lat="44.42449" lon="1.4068">
        <ele>182.3</ele>
        <time>2021-10-02T11:53:17Z</time>
      </trkpt>
      <trkpt lat="44.4245" lon="1.40678">
        <ele>182.4</ele>
        <time>2021-10-02T11:53:18Z</time>
      </trkpt>
      <trkpt lat="44.42452" lon="1.40674">
        <ele>182.5</ele>
        <time>2021-10-02T11:53:19Z</time>
      </trkpt>
      <trkpt lat="44.42452" lon="1.4067">
        <ele>182.6</ele>
        <time>2021-10-02T11:53:20Z</time>
      </trkpt>
      <trkpt lat="44.42454" lon="1.40664">
        <ele>182.8</ele>
        <time>2021-10-02T11:53:22Z</time>
      </trkpt>
      <trkpt lat="44.42455" lon="1.40662">
        <ele>182.9</ele>
        <time>2021-10-02T11:53:23Z</time>
      </trkpt>
      <trkpt lat="44.42456" lon="1.40659">
        <ele>183</ele>
        <time>2021-10-02T11:53:24Z</time>
      </trkpt>
      <trkpt lat="44.42457" lon="1.40654">
        <ele>183.2</ele>
        <time>2021-10-02T11:53:25Z</time>
      </trkpt>
      <trkpt lat="44.42458" lon="1.40652">
        <ele>183.3</ele>
        <time>2021-10-02T11:53:26Z</time>
      </trkpt>
      <trkpt lat="44.42459" lon="1.40648">
        <ele>183.5</ele>
        <time>2021-10-02T11:53:28Z</time>
      </trkpt>
      <trkpt lat="44.4246" lon="1.40644">
        <ele>183.7</ele>
        <time>2021-10-02T11:53:30Z</time>
      </trkpt>
      <trkpt lat="44.42461" lon="1.4064">
        <ele>183.9</ele>
        <time>2021-10-02T11:53:31Z</time>
      </trkpt>
      <trkpt lat="44.42461" lon="1.40635">
        <ele>184.1</ele>
        <time>2021-10-02T11:53:32Z</time>
      </trkpt>
      <trkpt lat="44.42462" lon="1.40631">
        <ele>184.3</ele>
        <time>2021-10-02T11:53:33Z</time>
      </trkpt>
      <trkpt lat="44.42463" lon="1.40626">
        <ele>184.6</ele>
        <time>2021-10-02T11:53:35Z</time>
      </trkpt>
      <trkpt lat="44.42464" lon="1.4062">
        <ele>184.9</ele>
        <time>2021-10-02T11:53:37Z</time>
      </trkpt>
      <trkpt lat="44.42464" lon="1.40618">
        <ele>185</ele>
        <time>2021-10-02T11:53:38Z</time>
      </trkpt>
      <trkpt lat="44.42465" lon="1.40615">
        <ele>185.1</ele>
        <time>2021-10-02T11:53:39Z</time>
      </trkpt>
      <trkpt lat="44.42465" lon="1.40612">
        <ele>185.3</ele>
        <time>2021-10-02T11:53:40Z</time>
      </trkpt>
      <trkpt lat="44.42466" lon="1.40608">
        <ele>185.5</ele>
        <time>2021-10-02T11:53:42Z</time>
      </trkpt>
      <trkpt lat="44.42467" lon="1.40604">
        <ele>185.7</ele>
        <time>2021-10-02T11:53:43Z</time>
      </trkpt>
      <trkpt lat="44.42467" lon="1.40602">
        <ele>185.8</ele>
        <time>2021-10-02T11:53:44Z</time>
      </trkpt>
      <trkpt lat="44.42467" lon="1.40596">
        <ele>186</ele>
        <time>2021-10-02T11:53:46Z</time>
      </trkpt>
      <trkpt lat="44.42467" lon="1.40591">
        <ele>186.3</ele>
        <time>2021-10-02T11:53:47Z</time>
      </trkpt>
      <trkpt lat="44.42467" lon="1.40586">
        <ele>186.5</ele>
        <time>2021-10-02T11:53:49Z</time>
      </trkpt>
      <trkpt lat="44.42466" lon="1.40582">
        <ele>186.7</ele>
        <time>2021-10-02T11:53:50Z</time>
      </trkpt>
      <trkpt lat="44.42465" lon="1.40575">
        <ele>187</ele>
        <time>2021-10-02T11:53:51Z</time>
      </trkpt>
      <trkpt lat="44.42465" lon="1.40569">
        <ele>187.3</ele>
        <time>2021-10-02T11:53:53Z</time>
      </trkpt>
      <trkpt lat="44.42465" lon="1.40567">
        <ele>187.4</ele>
        <time>2021-10-02T11:53:54Z</time>
      </trkpt>
      <trkpt lat="44.42464" lon="1.40564">
        <ele>187.5</ele>
        <time>2021-10-02T11:53:55Z</time>
      </trkpt>
      <trkpt lat="44.42464" lon="1.40559">
        <ele>187.7</ele>
        <time>2021-10-02T11:53:57Z</time>
      </trkpt>
      <trkpt lat="44.42464" lon="1.40553">
        <ele>188</ele>
        <time>2021-10-02T11:53:58Z</time>
      </trkpt>
      <trkpt lat="44.42464" lon="1.40549">
        <ele>188.1</ele>
        <time>2021-10-02T11:54:00Z</time>
      </trkpt>
      <trkpt lat="44.42464" lon="1.40545">
        <ele>188.3</ele>
        <time>2021-10-02T11:54:01Z</time>
      </trkpt>
      <trkpt lat="44.42464" lon="1.40538">
        <ele>188.5</ele>
        <time>2021-10-02T11:54:02Z</time>
      </trkpt>
      <trkpt lat="44.42464" lon="1.40534">
        <ele>188.7</ele>
        <time>2021-10-02T11:54:03Z</time>
      </trkpt>
      <trkpt lat="44.42463" lon="1.4053">
        <ele>188.9</ele>
        <time>2021-10-02T11:54:05Z</time>
      </trkpt>
      <trkpt lat="44.42462" lon="1.40524">
        <ele>189.1</ele>
        <time>2021-10-02T11:54:06Z</time>
      </trkpt>
      <trkpt lat="44.42462" lon="1.40521">
        <ele>189.2</ele>
        <time>2021-10-02T11:54:07Z</time>
      </trkpt>
      <trkpt lat="44.42461" lon="1.40516">
        <ele>189.4</ele>
        <time>2021-10-02T11:54:09Z</time>
      </trkpt>
      <trkpt lat="44.42461" lon="1.40511">
        <ele>189.6</ele>
        <time>2021-10-02T11:54:10Z</time>
      </trkpt>
      <trkpt lat="44.4246" lon="1.40506">
        <ele>189.9</ele>
        <time>2021-10-02T11:54:12Z</time>
      </trkpt>
      <trkpt lat="44.4246" lon="1.40503">
        <ele>190</ele>
        <time>2021-10-02T11:54:13Z</time>
      </trkpt>
      <trkpt lat="44.42459" lon="1.40501">
        <ele>190.1</ele>
        <time>2021-10-02T11:54:14Z</time>
      </trkpt>
      <trkpt lat="44.42459" lon="1.40497">
        <ele>190.2</ele>
        <time>2021-10-02T11:54:15Z</time>
      </trkpt>
      <trkpt lat="44.42459" lon="1.40491">
        <ele>190.5</ele>
        <time>2021-10-02T11:54:16Z</time>
      </trkpt>
      <trkpt lat="44.42459" lon="1.40486">
        <ele>190.7</ele>
        <time>2021-10-02T11:54:18Z</time>
      </trkpt>
      <trkpt lat="44.42459" lon="1.40484">
        <ele>190.8</ele>
        <time>2021-10-02T11:54:19Z</time>
      </trkpt>
      <trkpt lat="44.42459" lon="1.40478">
        <ele>191</ele>
        <time>2021-10-02T11:54:20Z</time>
      </trkpt>
      <trkpt lat="44.42459" lon="1.40476">
        <ele>191.1</ele>
        <time>2021-10-02T11:54:21Z</time>
      </trkpt>
      <trkpt lat="44.42458" lon="1.40472">
        <ele>191.2</ele>
        <time>2021-10-02T11:54:23Z</time>
      </trkpt>
      <trkpt lat="44.42457" lon="1.40468">
        <ele>191.3</ele>
        <time>2021-10-02T11:54:24Z</time>
      </trkpt>
      <trkpt lat="44.42456" lon="1.40462">
        <ele>191.4</ele>
        <time>2021-10-02T11:54:25Z</time>
      </trkpt>
      <trkpt lat="44.42456" lon="1.4046">
        <ele>191.5</ele>
        <time>2021-10-02T11:54:26Z</time>
      </trkpt>
      <trkpt lat="44.42455" lon="1.40452">
        <ele>191.7</ele>
        <time>2021-10-02T11:54:28Z</time>
      </trkpt>
      <trkpt lat="44.42455" lon="1.40448">
        <ele>191.8</ele>
        <time>2021-10-02T11:54:29Z</time>
      </trkpt>
      <trkpt lat="44.42455" lon="1.40445">
        <ele>191.8</ele>
        <time>2021-10-02T11:54:30Z</time>
      </trkpt>
      <trkpt lat="44.42455" lon="1.4044">
        <ele>191.9</ele>
        <time>2021-10-02T11:54:32Z</time>
      </trkpt>
      <trkpt lat="44.42455" lon="1.40434">
        <ele>192</ele>
        <time>2021-10-02T11:54:33Z</time>
      </trkpt>
      <trkpt lat="44.42456" lon="1.40428">
        <ele>192.1</ele>
        <time>2021-10-02T11:54:34Z</time>
      </trkpt>
      <trkpt lat="44.42456" lon="1.40423">
        <ele>192.2</ele>
        <time>2021-10-02T11:54:35Z</time>
      </trkpt>
      <trkpt lat="44.42455" lon="1.40417">
        <ele>192.2</ele>
        <time>2021-10-02T11:54:37Z</time>
      </trkpt>
      <trkpt lat="44.42454" lon="1.40411">
        <ele>192.3</ele>
        <time>2021-10-02T11:54:38Z</time>
      </trkpt>
      <trkpt lat="44.42452" lon="1.40405">
        <ele>192.3</ele>
        <time>2021-10-02T11:54:39Z</time>
      </trkpt>
      <trkpt lat="44.42451" lon="1.404">
        <ele>192.4</ele>
        <time>2021-10-02T11:54:41Z</time>
      </trkpt>
      <trkpt lat="44.4245" lon="1.40396">
        <ele>192.5</ele>
        <time>2021-10-02T11:54:42Z</time>
      </trkpt>
      <trkpt lat="44.42448" lon="1.40391">
        <ele>192.6</ele>
        <time>2021-10-02T11:54:43Z</time>
      </trkpt>
      <trkpt lat="44.42446" lon="1.40385">
        <ele>192.8</ele>
        <time>2021-10-02T11:54:45Z</time>
      </trkpt>
      <trkpt lat="44.42445" lon="1.40381">
        <ele>192.9</ele>
        <time>2021-10-02T11:54:46Z</time>
      </trkpt>
      <trkpt lat="44.42443" lon="1.40376">
        <ele>193.2</ele>
        <time>2021-10-02T11:54:47Z</time>
      </trkpt>
      <trkpt lat="44.4244" lon="1.40372">
        <ele>193.4</ele>
        <time>2021-10-02T11:54:49Z</time>
      </trkpt>
      <trkpt lat="44.42438" lon="1.40369">
        <ele>193.5</ele>
        <time>2021-10-02T11:54:50Z</time>
      </trkpt>
      <trkpt lat="44.42436" lon="1.40364">
        <ele>193.7</ele>
        <time>2021-10-02T11:54:51Z</time>
      </trkpt>
      <trkpt lat="44.42435" lon="1.40363">
        <ele>193.8</ele>
        <time>2021-10-02T11:54:52Z</time>
      </trkpt>
      <trkpt lat="44.42433" lon="1.40359">
        <ele>193.9</ele>
        <time>2021-10-02T11:54:54Z</time>
      </trkpt>
      <trkpt lat="44.42431" lon="1.40354">
        <ele>194.1</ele>
        <time>2021-10-02T11:54:55Z</time>
      </trkpt>
      <trkpt lat="44.42428" lon="1.40348">
        <ele>194.3</ele>
        <time>2021-10-02T11:54:57Z</time>
      </trkpt>
      <trkpt lat="44.42426" lon="1.40346">
        <ele>194.4</ele>
        <time>2021-10-02T11:54:58Z</time>
      </trkpt>
      <trkpt lat="44.42425" lon="1.40343">
        <ele>194.5</ele>
        <time>2021-10-02T11:54:59Z</time>
      </trkpt>
      <trkpt lat="44.42423" lon="1.4034">
        <ele>194.7</ele>
        <time>2021-10-02T11:55:00Z</time>
      </trkpt>
      <trkpt lat="44.42421" lon="1.40337">
        <ele>194.8</ele>
        <time>2021-10-02T11:55:01Z</time>
      </trkpt>
      <trkpt lat="44.42418" lon="1.40333">
        <ele>195</ele>
        <time>2021-10-02T11:55:03Z</time>
      </trkpt>
      <trkpt lat="44.42415" lon="1.40329">
        <ele>195.2</ele>
        <time>2021-10-02T11:55:04Z</time>
      </trkpt>
      <trkpt lat="44.42413" lon="1.40326">
        <ele>195.3</ele>
        <time>2021-10-02T11:55:06Z</time>
      </trkpt>
      <trkpt lat="44.4241" lon="1.40322">
        <ele>195.5</ele>
        <time>2021-10-02T11:55:07Z</time>
      </trkpt>
      <trkpt lat="44.42408" lon="1.4032">
        <ele>195.6</ele>
        <time>2021-10-02T11:55:09Z</time>
      </trkpt>
      <trkpt lat="44.42405" lon="1.40318">
        <ele>195.8</ele>
        <time>2021-10-02T11:55:10Z</time>
      </trkpt>
      <trkpt lat="44.42402" lon="1.40315">
        <ele>196</ele>
        <time>2021-10-02T11:55:11Z</time>
      </trkpt>
      <trkpt lat="44.42401" lon="1.40314">
        <ele>196</ele>
        <time>2021-10-02T11:55:12Z</time>
      </trkpt>
      <trkpt lat="44.42397" lon="1.4031">
        <ele>196.3</ele>
        <time>2021-10-02T11:55:14Z</time>
      </trkpt>
      <trkpt lat="44.42395" lon="1.40308">
        <ele>196.4</ele>
        <time>2021-10-02T11:55:15Z</time>
      </trkpt>
      <trkpt lat="44.42394" lon="1.40307">
        <ele>196.5</ele>
        <time>2021-10-02T11:55:16Z</time>
      </trkpt>
      <trkpt lat="44.42391" lon="1.40304">
        <ele>196.7</ele>
        <time>2021-10-02T11:55:17Z</time>
      </trkpt>
      <trkpt lat="44.4239" lon="1.40303">
        <ele>196.7</ele>
        <time>2021-10-02T11:55:18Z</time>
      </trkpt>
      <trkpt lat="44.42388" lon="1.40301">
        <ele>196.8</ele>
        <time>2021-10-02T11:55:19Z</time>
      </trkpt>
      <trkpt lat="44.42385" lon="1.40298">
        <ele>197</ele>
        <time>2021-10-02T11:55:21Z</time>
      </trkpt>
      <trkpt lat="44.42382" lon="1.40296">
        <ele>197.1</ele>
        <time>2021-10-02T11:55:22Z</time>
      </trkpt>
      <trkpt lat="44.4238" lon="1.40293">
        <ele>197.2</ele>
        <time>2021-10-02T11:55:23Z</time>
      </trkpt>
      <trkpt lat="44.42378" lon="1.40291">
        <ele>197.4</ele>
        <time>2021-10-02T11:55:24Z</time>
      </trkpt>
      <trkpt lat="44.42375" lon="1.40288">
        <ele>197.5</ele>
        <time>2021-10-02T11:55:25Z</time>
      </trkpt>
      <trkpt lat="44.42374" lon="1.40287">
        <ele>197.6</ele>
        <time>2021-10-02T11:55:26Z</time>
      </trkpt>
      <trkpt lat="44.42371" lon="1.40284">
        <ele>197.8</ele>
        <time>2021-10-02T11:55:28Z</time>
      </trkpt>
      <trkpt lat="44.4237" lon="1.40283">
        <ele>197.8</ele>
        <time>2021-10-02T11:55:29Z</time>
      </trkpt>
      <trkpt lat="44.42367" lon="1.40279">
        <ele>198</ele>
        <time>2021-10-02T11:55:30Z</time>
      </trkpt>
      <trkpt lat="44.42365" lon="1.40276">
        <ele>198.3</ele>
        <time>2021-10-02T11:55:31Z</time>
      </trkpt>
      <trkpt lat="44.42364" lon="1.40275">
        <ele>198.3</ele>
        <time>2021-10-02T11:55:32Z</time>
      </trkpt>
      <trkpt lat="44.42361" lon="1.40272">
        <ele>198.5</ele>
        <time>2021-10-02T11:55:34Z</time>
      </trkpt>
      <trkpt lat="44.42358" lon="1.40269">
        <ele>198.8</ele>
        <time>2021-10-02T11:55:36Z</time>
      </trkpt>
      <trkpt lat="44.42354" lon="1.40265">
        <ele>199.1</ele>
        <time>2021-10-02T11:55:37Z</time>
      </trkpt>
      <trkpt lat="44.42353" lon="1.40263">
        <ele>199.2</ele>
        <time>2021-10-02T11:55:38Z</time>
      </trkpt>
      <trkpt lat="44.4235" lon="1.4026">
        <ele>199.4</ele>
        <time>2021-10-02T11:55:40Z</time>
      </trkpt>
      <trkpt lat="44.42347" lon="1.40258">
        <ele>199.6</ele>
        <time>2021-10-02T11:55:41Z</time>
      </trkpt>
      <trkpt lat="44.42346" lon="1.40257">
        <ele>199.7</ele>
        <time>2021-10-02T11:55:42Z</time>
      </trkpt>
      <trkpt lat="44.42343" lon="1.40254">
        <ele>199.9</ele>
        <time>2021-10-02T11:55:43Z</time>
      </trkpt>
      <trkpt lat="44.42342" lon="1.40253">
        <ele>200</ele>
        <time>2021-10-02T11:55:44Z</time>
      </trkpt>
      <trkpt lat="44.4234" lon="1.40251">
        <ele>200.1</ele>
        <time>2021-10-02T11:55:45Z</time>
      </trkpt>
      <trkpt lat="44.42338" lon="1.40249">
        <ele>200.3</ele>
        <time>2021-10-02T11:55:47Z</time>
      </trkpt>
      <trkpt lat="44.42335" lon="1.40247">
        <ele>200.5</ele>
        <time>2021-10-02T11:55:48Z</time>
      </trkpt>
      <trkpt lat="44.42334" lon="1.40246">
        <ele>200.6</ele>
        <time>2021-10-02T11:55:49Z</time>
      </trkpt>
      <trkpt lat="44.42332" lon="1.40244">
        <ele>200.7</ele>
        <time>2021-10-02T11:55:50Z</time>
      </trkpt>
      <trkpt lat="44.42329" lon="1.40242">
        <ele>200.9</ele>
        <time>2021-10-02T11:55:52Z</time>
      </trkpt>
      <trkpt lat="44.42326" lon="1.4024">
        <ele>201.1</ele>
        <time>2021-10-02T11:55:53Z</time>
      </trkpt>
      <trkpt lat="44.42325" lon="1.40239">
        <ele>201.1</ele>
        <time>2021-10-02T11:55:54Z</time>
      </trkpt>
      <trkpt lat="44.42323" lon="1.40237">
        <ele>201.3</ele>
        <time>2021-10-02T11:55:55Z</time>
      </trkpt>
      <trkpt lat="44.42321" lon="1.40235">
        <ele>201.4</ele>
        <time>2021-10-02T11:55:57Z</time>
      </trkpt>
      <trkpt lat="44.42318" lon="1.40232">
        <ele>201.6</ele>
        <time>2021-10-02T11:55:58Z</time>
      </trkpt>
      <trkpt lat="44.42317" lon="1.40231">
        <ele>201.7</ele>
        <time>2021-10-02T11:55:59Z</time>
      </trkpt>
      <trkpt lat="44.42314" lon="1.40229">
        <ele>201.9</ele>
        <time>2021-10-02T11:56:00Z</time>
      </trkpt>
      <trkpt lat="44.42311" lon="1.40226">
        <ele>202.2</ele>
        <time>2021-10-02T11:56:02Z</time>
      </trkpt>
      <trkpt lat="44.4231" lon="1.40225">
        <ele>202.3</ele>
        <time>2021-10-02T11:56:03Z</time>
      </trkpt>
      <trkpt lat="44.42307" lon="1.40222">
        <ele>202.5</ele>
        <time>2021-10-02T11:56:05Z</time>
      </trkpt>
      <trkpt lat="44.42305" lon="1.40219">
        <ele>202.6</ele>
        <time>2021-10-02T11:56:06Z</time>
      </trkpt>
      <trkpt lat="44.42303" lon="1.40217">
        <ele>202.8</ele>
        <time>2021-10-02T11:56:07Z</time>
      </trkpt>
      <trkpt lat="44.423" lon="1.40213">
        <ele>203</ele>
        <time>2021-10-02T11:56:09Z</time>
      </trkpt>
      <trkpt lat="44.42297" lon="1.4021">
        <ele>203.2</ele>
        <time>2021-10-02T11:56:10Z</time>
      </trkpt>
      <trkpt lat="44.42295" lon="1.40206">
        <ele>203.4</ele>
        <time>2021-10-02T11:56:12Z</time>
      </trkpt>
      <trkpt lat="44.42294" lon="1.40205">
        <ele>203.5</ele>
        <time>2021-10-02T11:56:13Z</time>
      </trkpt>
      <trkpt lat="44.42292" lon="1.40201">
        <ele>203.7</ele>
        <time>2021-10-02T11:56:14Z</time>
      </trkpt>
      <trkpt lat="44.42291" lon="1.40198">
        <ele>203.9</ele>
        <time>2021-10-02T11:56:15Z</time>
      </trkpt>
      <trkpt lat="44.42288" lon="1.40194">
        <ele>204.1</ele>
        <time>2021-10-02T11:56:17Z</time>
      </trkpt>
      <trkpt lat="44.42288" lon="1.40192">
        <ele>204.2</ele>
        <time>2021-10-02T11:56:18Z</time>
      </trkpt>
      <trkpt lat="44.42286" lon="1.40189">
        <ele>204.3</ele>
        <time>2021-10-02T11:56:20Z</time>
      </trkpt>
      <trkpt lat="44.42284" lon="1.40185">
        <ele>204.5</ele>
        <time>2021-10-02T11:56:21Z</time>
      </trkpt>
      <trkpt lat="44.42281" lon="1.40182">
        <ele>204.7</ele>
        <time>2021-10-02T11:56:22Z</time>
      </trkpt>
      <trkpt lat="44.42279" lon="1.4018">
        <ele>204.9</ele>
        <time>2021-10-02T11:56:24Z</time>
      </trkpt>
      <trkpt lat="44.42276" lon="1.40177">
        <ele>205.1</ele>
        <time>2021-10-02T11:56:26Z</time>
      </trkpt>
      <trkpt lat="44.42273" lon="1.40175">
        <ele>205.3</ele>
        <time>2021-10-02T11:56:27Z</time>
      </trkpt>
      <trkpt lat="44.42273" lon="1.40174">
        <ele>205.4</ele>
        <time>2021-10-02T11:56:28Z</time>
      </trkpt>
      <trkpt lat="44.42273" lon="1.40172">
        <ele>205.5</ele>
        <time>2021-10-02T11:56:30Z</time>
      </trkpt>
      <trkpt lat="44.42272" lon="1.4017">
        <ele>205.7</ele>
        <time>2021-10-02T11:56:31Z</time>
      </trkpt>
      <trkpt lat="44.42274" lon="1.40166">
        <ele>205.9</ele>
        <time>2021-10-02T11:56:33Z</time>
      </trkpt>
      <trkpt lat="44.42274" lon="1.40164">
        <ele>206</ele>
        <time>2021-10-02T11:56:34Z</time>
      </trkpt>
      <trkpt lat="44.42274" lon="1.40161">
        <ele>206.2</ele>
        <time>2021-10-02T11:56:35Z</time>
      </trkpt>
      <trkpt lat="44.42272" lon="1.40157">
        <ele>206.3</ele>
        <time>2021-10-02T11:56:36Z</time>
      </trkpt>
      <trkpt lat="44.42272" lon="1.40157">
        <ele>206.6</ele>
        <time>2021-10-02T11:56:37Z</time>
      </trkpt>
      <trkpt lat="44.4227" lon="1.40154">
        <ele>206.3</ele>
        <time>2021-10-02T11:56:39Z</time>
      </trkpt>
      <trkpt lat="44.42269" lon="1.40153">
        <ele>206.6</ele>
        <time>2021-10-02T11:56:40Z</time>
      </trkpt>
      <trkpt lat="44.42268" lon="1.4015">
        <ele>206.3</ele>
        <time>2021-10-02T11:56:42Z</time>
      </trkpt>
      <trkpt lat="44.42266" lon="1.40147">
        <ele>206.6</ele>
        <time>2021-10-02T11:56:44Z</time>
      </trkpt>
      <trkpt lat="44.42266" lon="1.40143">
        <ele>206.9</ele>
        <time>2021-10-02T11:56:45Z</time>
      </trkpt>
      <trkpt lat="44.42265" lon="1.40142">
        <ele>206.7</ele>
        <time>2021-10-02T11:56:46Z</time>
      </trkpt>
      <trkpt lat="44.42265" lon="1.40138">
        <ele>207</ele>
        <time>2021-10-02T11:56:47Z</time>
      </trkpt>
      <trkpt lat="44.42265" lon="1.40136">
        <ele>207.1</ele>
        <time>2021-10-02T11:56:49Z</time>
      </trkpt>
      <trkpt lat="44.42263" lon="1.4013">
        <ele>207.6</ele>
        <time>2021-10-02T11:56:51Z</time>
      </trkpt>
      <trkpt lat="44.42263" lon="1.40127">
        <ele>207.9</ele>
        <time>2021-10-02T11:56:52Z</time>
      </trkpt>
      <trkpt lat="44.42262" lon="1.40122">
        <ele>208</ele>
        <time>2021-10-02T11:56:53Z</time>
      </trkpt>
      <trkpt lat="44.42262" lon="1.40118">
        <ele>208.4</ele>
        <time>2021-10-02T11:56:55Z</time>
      </trkpt>
      <trkpt lat="44.42262" lon="1.40117">
        <ele>208.5</ele>
        <time>2021-10-02T11:56:56Z</time>
      </trkpt>
      <trkpt lat="44.42262" lon="1.40114">
        <ele>209</ele>
        <time>2021-10-02T11:56:57Z</time>
      </trkpt>
      <trkpt lat="44.42261" lon="1.40112">
        <ele>209.1</ele>
        <time>2021-10-02T11:56:59Z</time>
      </trkpt>
      <trkpt lat="44.4226" lon="1.40107">
        <ele>209.6</ele>
        <time>2021-10-02T11:57:00Z</time>
      </trkpt>
      <trkpt lat="44.4226" lon="1.40104">
        <ele>210.1</ele>
        <time>2021-10-02T11:57:02Z</time>
      </trkpt>
      <trkpt lat="44.42259" lon="1.40099">
        <ele>210.3</ele>
        <time>2021-10-02T11:57:04Z</time>
      </trkpt>
      <trkpt lat="44.42258" lon="1.40093">
        <ele>210.8</ele>
        <time>2021-10-02T11:57:06Z</time>
      </trkpt>
      <trkpt lat="44.42258" lon="1.40092">
        <ele>211.3</ele>
        <time>2021-10-02T11:57:07Z</time>
      </trkpt>
      <trkpt lat="44.42258" lon="1.4009">
        <ele>211.4</ele>
        <time>2021-10-02T11:57:08Z</time>
      </trkpt>
      <trkpt lat="44.42257" lon="1.40085">
        <ele>211.9</ele>
        <time>2021-10-02T11:57:09Z</time>
      </trkpt>
      <trkpt lat="44.42257" lon="1.40084">
        <ele>212.4</ele>
        <time>2021-10-02T11:57:10Z</time>
      </trkpt>
      <trkpt lat="44.42257" lon="1.40081">
        <ele>212.5</ele>
        <time>2021-10-02T11:57:12Z</time>
      </trkpt>
      <trkpt lat="44.42257" lon="1.40079">
        <ele>213</ele>
        <time>2021-10-02T11:57:13Z</time>
      </trkpt>
      <trkpt lat="44.42258" lon="1.40076">
        <ele>213.6</ele>
        <time>2021-10-02T11:57:14Z</time>
      </trkpt>
      <trkpt lat="44.42258" lon="1.40075">
        <ele>213.7</ele>
        <time>2021-10-02T11:57:16Z</time>
      </trkpt>
      <trkpt lat="44.4226" lon="1.40069">
        <ele>214.6</ele>
        <time>2021-10-02T11:57:17Z</time>
      </trkpt>
      <trkpt lat="44.42262" lon="1.40064">
        <ele>215.2</ele>
        <time>2021-10-02T11:57:18Z</time>
      </trkpt>
      <trkpt lat="44.42264" lon="1.4006">
        <ele>216.2</ele>
        <time>2021-10-02T11:57:20Z</time>
      </trkpt>
      <trkpt lat="44.42267" lon="1.40057">
        <ele>217.1</ele>
        <time>2021-10-02T11:57:21Z</time>
      </trkpt>
      <trkpt lat="44.42268" lon="1.40056">
        <ele>217.2</ele>
        <time>2021-10-02T11:57:22Z</time>
      </trkpt>
      <trkpt lat="44.4227" lon="1.40054">
        <ele>218.2</ele>
        <time>2021-10-02T11:57:24Z</time>
      </trkpt>
      <trkpt lat="44.42272" lon="1.40053">
        <ele>218.7</ele>
        <time>2021-10-02T11:57:25Z</time>
      </trkpt>
      <trkpt lat="44.42273" lon="1.40053">
        <ele>218.8</ele>
        <time>2021-10-02T11:57:26Z</time>
      </trkpt>
      <trkpt lat="44.42276" lon="1.40053">
        <ele>219.4</ele>
        <time>2021-10-02T11:57:28Z</time>
      </trkpt>
      <trkpt lat="44.42277" lon="1.40054">
        <ele>219.5</ele>
        <time>2021-10-02T11:57:29Z</time>
      </trkpt>
      <trkpt lat="44.4228" lon="1.40056">
        <ele>219.6</ele>
        <time>2021-10-02T11:57:31Z</time>
      </trkpt>
      <trkpt lat="44.42281" lon="1.40057">
        <ele>220.1</ele>
        <time>2021-10-02T11:57:32Z</time>
      </trkpt>
      <trkpt lat="44.42282" lon="1.40059">
        <ele>219.7</ele>
        <time>2021-10-02T11:57:33Z</time>
      </trkpt>
      <trkpt lat="44.42283" lon="1.4006">
        <ele>219.8</ele>
        <time>2021-10-02T11:57:34Z</time>
      </trkpt>
      <trkpt lat="44.42285" lon="1.40064">
        <ele>219.9</ele>
        <time>2021-10-02T11:57:36Z</time>
      </trkpt>
      <trkpt lat="44.42286" lon="1.40065">
        <ele>220</ele>
        <time>2021-10-02T11:57:37Z</time>
      </trkpt>
      <trkpt lat="44.42287" lon="1.40069">
        <ele>220.1</ele>
        <time>2021-10-02T11:57:38Z</time>
      </trkpt>
      <trkpt lat="44.42288" lon="1.4007">
        <ele>220.2</ele>
        <time>2021-10-02T11:57:39Z</time>
      </trkpt>
      <trkpt lat="44.4229" lon="1.40074">
        <ele>219.8</ele>
        <time>2021-10-02T11:57:41Z</time>
      </trkpt>
      <trkpt lat="44.4229" lon="1.40076">
        <ele>219.9</ele>
        <time>2021-10-02T11:57:42Z</time>
      </trkpt>
      <trkpt lat="44.42292" lon="1.40078">
        <ele>220</ele>
        <time>2021-10-02T11:57:44Z</time>
      </trkpt>
      <trkpt lat="44.42293" lon="1.4008">
        <ele>219.6</ele>
        <time>2021-10-02T11:57:45Z</time>
      </trkpt>
      <trkpt lat="44.42294" lon="1.40084">
        <ele>220.2</ele>
        <time>2021-10-02T11:57:46Z</time>
      </trkpt>
      <trkpt lat="44.42295" lon="1.40086">
        <ele>219.9</ele>
        <time>2021-10-02T11:57:47Z</time>
      </trkpt>
      <trkpt lat="44.42297" lon="1.4009">
        <ele>220.1</ele>
        <time>2021-10-02T11:57:49Z</time>
      </trkpt>
      <trkpt lat="44.42297" lon="1.40091">
        <ele>220.2</ele>
        <time>2021-10-02T11:57:50Z</time>
      </trkpt>
      <trkpt lat="44.42299" lon="1.40094">
        <ele>219.8</ele>
        <time>2021-10-02T11:57:51Z</time>
      </trkpt>
      <trkpt lat="44.42302" lon="1.40099">
        <ele>220.1</ele>
        <time>2021-10-02T11:57:53Z</time>
      </trkpt>
      <trkpt lat="44.42303" lon="1.40101">
        <ele>220.8</ele>
        <time>2021-10-02T11:57:54Z</time>
      </trkpt>
      <trkpt lat="44.42303" lon="1.40102">
        <ele>220.5</ele>
        <time>2021-10-02T11:57:55Z</time>
      </trkpt>
      <trkpt lat="44.42305" lon="1.40105">
        <ele>220.6</ele>
        <time>2021-10-02T11:57:56Z</time>
      </trkpt>
      <trkpt lat="44.42306" lon="1.40107">
        <ele>220.8</ele>
        <time>2021-10-02T11:57:58Z</time>
      </trkpt>
      <trkpt lat="44.42308" lon="1.40111">
        <ele>220.6</ele>
        <time>2021-10-02T11:57:59Z</time>
      </trkpt>
      <trkpt lat="44.42309" lon="1.40113">
        <ele>221.3</ele>
        <time>2021-10-02T11:58:00Z</time>
      </trkpt>
      <trkpt lat="44.42312" lon="1.40117">
        <ele>221.6</ele>
        <time>2021-10-02T11:58:02Z</time>
      </trkpt>
      <trkpt lat="44.42312" lon="1.40119">
        <ele>221.4</ele>
        <time>2021-10-02T11:58:03Z</time>
      </trkpt>
      <trkpt lat="44.42315" lon="1.40123">
        <ele>221.2</ele>
        <time>2021-10-02T11:58:05Z</time>
      </trkpt>
      <trkpt lat="44.42315" lon="1.40125">
        <ele>221.8</ele>
        <time>2021-10-02T11:58:06Z</time>
      </trkpt>
      <trkpt lat="44.42316" lon="1.40127">
        <ele>221.9</ele>
        <time>2021-10-02T11:58:08Z</time>
      </trkpt>
      <trkpt lat="44.42317" lon="1.40129">
        <ele>221.7</ele>
        <time>2021-10-02T11:58:09Z</time>
      </trkpt>
      <trkpt lat="44.42319" lon="1.40132">
        <ele>222.1</ele>
        <time>2021-10-02T11:58:10Z</time>
      </trkpt>
      <trkpt lat="44.4232" lon="1.40133">
        <ele>222.2</ele>
        <time>2021-10-02T11:58:11Z</time>
      </trkpt>
      <trkpt lat="44.42322" lon="1.40136">
        <ele>222.5</ele>
        <time>2021-10-02T11:58:13Z</time>
      </trkpt>
      <trkpt lat="44.42323" lon="1.40137">
        <ele>222.6</ele>
        <time>2021-10-02T11:58:14Z</time>
      </trkpt>
      <trkpt lat="44.42325" lon="1.4014">
        <ele>223.2</ele>
        <time>2021-10-02T11:58:15Z</time>
      </trkpt>
      <trkpt lat="44.42326" lon="1.40142">
        <ele>223</ele>
        <time>2021-10-02T11:58:17Z</time>
      </trkpt>
      <trkpt lat="44.42329" lon="1.40144">
        <ele>223.6</ele>
        <time>2021-10-02T11:58:18Z</time>
      </trkpt>
      <trkpt lat="44.42331" lon="1.40146">
        <ele>223.9</ele>
        <time>2021-10-02T11:58:19Z</time>
      </trkpt>
      <trkpt lat="44.42332" lon="1.40147">
        <ele>224</ele>
        <time>2021-10-02T11:58:20Z</time>
      </trkpt>
      <trkpt lat="44.42334" lon="1.40149">
        <ele>224.2</ele>
        <time>2021-10-02T11:58:22Z</time>
      </trkpt>
      <trkpt lat="44.42335" lon="1.4015">
        <ele>224.3</ele>
        <time>2021-10-02T11:58:23Z</time>
      </trkpt>
      <trkpt lat="44.42337" lon="1.40149">
        <ele>224.9</ele>
        <time>2021-10-02T11:58:24Z</time>
      </trkpt>
      <trkpt lat="44.42338" lon="1.40146">
        <ele>225.3</ele>
        <time>2021-10-02T11:58:26Z</time>
      </trkpt>
      <trkpt lat="44.42337" lon="1.40142">
        <ele>225.7</ele>
        <time>2021-10-02T11:58:27Z</time>
      </trkpt>
      <trkpt lat="44.42337" lon="1.40138">
        <ele>226.1</ele>
        <time>2021-10-02T11:58:29Z</time>
      </trkpt>
      <trkpt lat="44.42336" lon="1.40137">
        <ele>226.2</ele>
        <time>2021-10-02T11:58:30Z</time>
      </trkpt>
      <trkpt lat="44.42336" lon="1.40135">
        <ele>226.1</ele>
        <time>2021-10-02T11:58:32Z</time>
      </trkpt>
      <trkpt lat="44.42336" lon="1.40132">
        <ele>226.2</ele>
        <time>2021-10-02T11:58:33Z</time>
      </trkpt>
      <trkpt lat="44.42335" lon="1.40129">
        <ele>226.6</ele>
        <time>2021-10-02T11:58:35Z</time>
      </trkpt>
      <trkpt lat="44.42334" lon="1.40127">
        <ele>227</ele>
        <time>2021-10-02T11:58:37Z</time>
      </trkpt>
      <trkpt lat="44.42334" lon="1.40124">
        <ele>227.1</ele>
        <time>2021-10-02T11:58:38Z</time>
      </trkpt>
      <trkpt lat="44.42334" lon="1.40122">
        <ele>227.5</ele>
        <time>2021-10-02T11:58:39Z</time>
      </trkpt>
      <trkpt lat="44.42334" lon="1.40118">
        <ele>228</ele>
        <time>2021-10-02T11:58:41Z</time>
      </trkpt>
      <trkpt lat="44.42334" lon="1.40117">
        <ele>228.1</ele>
        <time>2021-10-02T11:58:42Z</time>
      </trkpt>
      <trkpt lat="44.42334" lon="1.40115">
        <ele>228.2</ele>
        <time>2021-10-02T11:58:44Z</time>
      </trkpt>
      <trkpt lat="44.42333" lon="1.40111">
        <ele>228.7</ele>
        <time>2021-10-02T11:58:46Z</time>
      </trkpt>
      <trkpt lat="44.42333" lon="1.40109">
        <ele>228.7</ele>
        <time>2021-10-02T11:58:47Z</time>
      </trkpt>
      <trkpt lat="44.42333" lon="1.40107">
        <ele>228.8</ele>
        <time>2021-10-02T11:58:48Z</time>
      </trkpt>
      <trkpt lat="44.42333" lon="1.40105">
        <ele>229.3</ele>
        <time>2021-10-02T11:58:49Z</time>
      </trkpt>
      <trkpt lat="44.42332" lon="1.40103">
        <ele>229.4</ele>
        <time>2021-10-02T11:58:50Z</time>
      </trkpt>
      <trkpt lat="44.42332" lon="1.40101">
        <ele>230</ele>
        <time>2021-10-02T11:58:52Z</time>
      </trkpt>
      <trkpt lat="44.42331" lon="1.40097">
        <ele>230.1</ele>
        <time>2021-10-02T11:58:54Z</time>
      </trkpt>
      <trkpt lat="44.42331" lon="1.40096">
        <ele>230.6</ele>
        <time>2021-10-02T11:58:55Z</time>
      </trkpt>
      <trkpt lat="44.4233" lon="1.40093">
        <ele>230.7</ele>
        <time>2021-10-02T11:58:57Z</time>
      </trkpt>
      <trkpt lat="44.4233" lon="1.40091">
        <ele>231.2</ele>
        <time>2021-10-02T11:58:58Z</time>
      </trkpt>
      <trkpt lat="44.4233" lon="1.40089">
        <ele>230.7</ele>
        <time>2021-10-02T11:58:59Z</time>
      </trkpt>
      <trkpt lat="44.4233" lon="1.40087">
        <ele>231.2</ele>
        <time>2021-10-02T11:59:00Z</time>
      </trkpt>
      <trkpt lat="44.42329" lon="1.40083">
        <ele>231.7</ele>
        <time>2021-10-02T11:59:01Z</time>
      </trkpt>
      <trkpt lat="44.42328" lon="1.40081">
        <ele>231.8</ele>
        <time>2021-10-02T11:59:03Z</time>
      </trkpt>
      <trkpt lat="44.42328" lon="1.4008">
        <ele>232.3</ele>
        <time>2021-10-02T11:59:04Z</time>
      </trkpt>
      <trkpt lat="44.42328" lon="1.40078">
        <ele>232.4</ele>
        <time>2021-10-02T11:59:05Z</time>
      </trkpt>
      <trkpt lat="44.42327" lon="1.40076">
        <ele>232.5</ele>
        <time>2021-10-02T11:59:07Z</time>
      </trkpt>
      <trkpt lat="44.42326" lon="1.40073">
        <ele>232.5</ele>
        <time>2021-10-02T11:59:08Z</time>
      </trkpt>
      <trkpt lat="44.42326" lon="1.4007">
        <ele>233.1</ele>
        <time>2021-10-02T11:59:09Z</time>
      </trkpt>
      <trkpt lat="44.42326" lon="1.40068">
        <ele>233.2</ele>
        <time>2021-10-02T11:59:11Z</time>
      </trkpt>
      <trkpt lat="44.42327" lon="1.40067">
        <ele>233.7</ele>
        <time>2021-10-02T11:59:12Z</time>
      </trkpt>
      <trkpt lat="44.42328" lon="1.40065">
        <ele>234.3</ele>
        <time>2021-10-02T11:59:13Z</time>
      </trkpt>
      <trkpt lat="44.42329" lon="1.40065">
        <ele>234.4</ele>
        <time>2021-10-02T11:59:14Z</time>
      </trkpt>
      <trkpt lat="44.42331" lon="1.40067">
        <ele>235</ele>
        <time>2021-10-02T11:59:16Z</time>
      </trkpt>
      <trkpt lat="44.42332" lon="1.40068">
        <ele>234.7</ele>
        <time>2021-10-02T11:59:17Z</time>
      </trkpt>
      <trkpt lat="44.42333" lon="1.4007">
        <ele>235.3</ele>
        <time>2021-10-02T11:59:19Z</time>
      </trkpt>
      <trkpt lat="44.42335" lon="1.40072">
        <ele>235</ele>
        <time>2021-10-02T11:59:20Z</time>
      </trkpt>
      <trkpt lat="44.42336" lon="1.40074">
        <ele>235.7</ele>
        <time>2021-10-02T11:59:22Z</time>
      </trkpt>
      <trkpt lat="44.42338" lon="1.40076">
        <ele>235.4</ele>
        <time>2021-10-02T11:59:23Z</time>
      </trkpt>
      <trkpt lat="44.42339" lon="1.40077">
        <ele>236</ele>
        <time>2021-10-02T11:59:25Z</time>
      </trkpt>
      <trkpt lat="44.4234" lon="1.40077">
        <ele>236.1</ele>
        <time>2021-10-02T11:59:27Z</time>
      </trkpt>
      <trkpt lat="44.42341" lon="1.40078">
        <ele>236.2</ele>
        <time>2021-10-02T11:59:28Z</time>
      </trkpt>
      <trkpt lat="44.42342" lon="1.40078">
        <ele>236.3</ele>
        <time>2021-10-02T11:59:29Z</time>
      </trkpt>
      <trkpt lat="44.42343" lon="1.40079">
        <ele>236.9</ele>
        <time>2021-10-02T11:59:30Z</time>
      </trkpt>
      <trkpt lat="44.42345" lon="1.4008">
        <ele>236.6</ele>
        <time>2021-10-02T11:59:31Z</time>
      </trkpt>
      <trkpt lat="44.42346" lon="1.40081">
        <ele>237.2</ele>
        <time>2021-10-02T11:59:33Z</time>
      </trkpt>
      <trkpt lat="44.42347" lon="1.40082">
        <ele>237.3</ele>
        <time>2021-10-02T11:59:34Z</time>
      </trkpt>
      <trkpt lat="44.4235" lon="1.40085">
        <ele>237.5</ele>
        <time>2021-10-02T11:59:36Z</time>
      </trkpt>
      <trkpt lat="44.42351" lon="1.40086">
        <ele>237.5</ele>
        <time>2021-10-02T11:59:37Z</time>
      </trkpt>
      <trkpt lat="44.42352" lon="1.40087">
        <ele>238.1</ele>
        <time>2021-10-02T11:59:38Z</time>
      </trkpt>
      <trkpt lat="44.42354" lon="1.40088">
        <ele>238.2</ele>
        <time>2021-10-02T11:59:39Z</time>
      </trkpt>
      <trkpt lat="44.42356" lon="1.4009">
        <ele>238.3</ele>
        <time>2021-10-02T11:59:41Z</time>
      </trkpt>
      <trkpt lat="44.42357" lon="1.4009">
        <ele>238.4</ele>
        <time>2021-10-02T11:59:42Z</time>
      </trkpt>
      <trkpt lat="44.42359" lon="1.40092">
        <ele>238.9</ele>
        <time>2021-10-02T11:59:44Z</time>
      </trkpt>
      <trkpt lat="44.4236" lon="1.40092">
        <ele>239</ele>
        <time>2021-10-02T11:59:45Z</time>
      </trkpt>
      <trkpt lat="44.42362" lon="1.40092">
        <ele>239.5</ele>
        <time>2021-10-02T11:59:47Z</time>
      </trkpt>
      <trkpt lat="44.42364" lon="1.40092">
        <ele>240</ele>
        <time>2021-10-02T11:59:48Z</time>
      </trkpt>
      <trkpt lat="44.42365" lon="1.40091">
        <ele>240.1</ele>
        <time>2021-10-02T11:59:49Z</time>
      </trkpt>
      <trkpt lat="44.42368" lon="1.40089">
        <ele>240.9</ele>
        <time>2021-10-02T11:59:50Z</time>
      </trkpt>
      <trkpt lat="44.42369" lon="1.40087">
        <ele>241</ele>
        <time>2021-10-02T11:59:52Z</time>
      </trkpt>
      <trkpt lat="44.4237" lon="1.40086">
        <ele>241.4</ele>
        <time>2021-10-02T11:59:54Z</time>
      </trkpt>
      <trkpt lat="44.42371" lon="1.40085">
        <ele>241.5</ele>
        <time>2021-10-02T11:59:55Z</time>
      </trkpt>
      <trkpt lat="44.42372" lon="1.40082">
        <ele>241.9</ele>
        <time>2021-10-02T11:59:56Z</time>
      </trkpt>
      <trkpt lat="44.42373" lon="1.4008">
        <ele>241.9</ele>
        <time>2021-10-02T11:59:58Z</time>
      </trkpt>
      <trkpt lat="44.42373" lon="1.40079">
        <ele>242.6</ele>
        <time>2021-10-02T11:59:59Z</time>
      </trkpt>
      <trkpt lat="44.42376" lon="1.40078">
        <ele>242.7</ele>
        <time>2021-10-02T12:00:00Z</time>
      </trkpt>
      <trkpt lat="44.42377" lon="1.40076">
        <ele>243</ele>
        <time>2021-10-02T12:00:02Z</time>
      </trkpt>
      <trkpt lat="44.42378" lon="1.40076">
        <ele>243.4</ele>
        <time>2021-10-02T12:00:03Z</time>
      </trkpt>
      <trkpt lat="44.42379" lon="1.40075">
        <ele>243.5</ele>
        <time>2021-10-02T12:00:05Z</time>
      </trkpt>
      <trkpt lat="44.42379" lon="1.40075">
        <ele>243.6</ele>
        <time>2021-10-02T12:00:06Z</time>
      </trkpt>
      <trkpt lat="44.42381" lon="1.40074">
        <ele>243.9</ele>
        <time>2021-10-02T12:00:07Z</time>
      </trkpt>
      <trkpt lat="44.42382" lon="1.40072">
        <ele>244.2</ele>
        <time>2021-10-02T12:00:09Z</time>
      </trkpt>
      <trkpt lat="44.42383" lon="1.40069">
        <ele>244.6</ele>
        <time>2021-10-02T12:00:11Z</time>
      </trkpt>
      <trkpt lat="44.42384" lon="1.40065">
        <ele>245</ele>
        <time>2021-10-02T12:00:12Z</time>
      </trkpt>
      <trkpt lat="44.42384" lon="1.40063">
        <ele>245.1</ele>
        <time>2021-10-02T12:00:14Z</time>
      </trkpt>
      <trkpt lat="44.42385" lon="1.40061">
        <ele>245.5</ele>
        <time>2021-10-02T12:00:15Z</time>
      </trkpt>
      <trkpt lat="44.42385" lon="1.40061">
        <ele>245.6</ele>
        <time>2021-10-02T12:00:17Z</time>
      </trkpt>
      <trkpt lat="44.42385" lon="1.4006">
        <ele>245.7</ele>
        <time>2021-10-02T12:00:18Z</time>
      </trkpt>
      <trkpt lat="44.42385" lon="1.40058">
        <ele>246.2</ele>
        <time>2021-10-02T12:00:20Z</time>
      </trkpt>
      <trkpt lat="44.42385" lon="1.40056">
        <ele>246.4</ele>
        <time>2021-10-02T12:00:21Z</time>
      </trkpt>
      <trkpt lat="44.42386" lon="1.40054">
        <ele>246.8</ele>
        <time>2021-10-02T12:00:23Z</time>
      </trkpt>
      <trkpt lat="44.42387" lon="1.40049">
        <ele>247.2</ele>
        <time>2021-10-02T12:00:25Z</time>
      </trkpt>
      <trkpt lat="44.42387" lon="1.40046">
        <ele>247.3</ele>
        <time>2021-10-02T12:00:26Z</time>
      </trkpt>
      <trkpt lat="44.42388" lon="1.40042">
        <ele>247.6</ele>
        <time>2021-10-02T12:00:28Z</time>
      </trkpt>
      <trkpt lat="44.42388" lon="1.4004">
        <ele>247.9</ele>
        <time>2021-10-02T12:00:29Z</time>
      </trkpt>
      <trkpt lat="44.42389" lon="1.40038">
        <ele>248</ele>
        <time>2021-10-02T12:00:30Z</time>
      </trkpt>
      <trkpt lat="44.4239" lon="1.40035">
        <ele>248.3</ele>
        <time>2021-10-02T12:00:31Z</time>
      </trkpt>
      <trkpt lat="44.4239" lon="1.40032">
        <ele>248.5</ele>
        <time>2021-10-02T12:00:33Z</time>
      </trkpt>
      <trkpt lat="44.42391" lon="1.40031">
        <ele>248.5</ele>
        <time>2021-10-02T12:00:34Z</time>
      </trkpt>
      <trkpt lat="44.42392" lon="1.40029">
        <ele>248.5</ele>
        <time>2021-10-02T12:00:35Z</time>
      </trkpt>
      <trkpt lat="44.42394" lon="1.40026">
        <ele>248.5</ele>
        <time>2021-10-02T12:00:37Z</time>
      </trkpt>
      <trkpt lat="44.42395" lon="1.40025">
        <ele>248.6</ele>
        <time>2021-10-02T12:00:38Z</time>
      </trkpt>
      <trkpt lat="44.42396" lon="1.40023">
        <ele>248.8</ele>
        <time>2021-10-02T12:00:39Z</time>
      </trkpt>
      <trkpt lat="44.42397" lon="1.4002">
        <ele>248.6</ele>
        <time>2021-10-02T12:00:41Z</time>
      </trkpt>
      <trkpt lat="44.42398" lon="1.4002">
        <ele>248.8</ele>
        <time>2021-10-02T12:00:43Z</time>
      </trkpt>
      <trkpt lat="44.42398" lon="1.4002">
        <ele>248.9</ele>
        <time>2021-10-02T12:00:44Z</time>
      </trkpt>
      <trkpt lat="44.42399" lon="1.40019">
        <ele>249</ele>
        <time>2021-10-02T12:00:46Z</time>
      </trkpt>
      <trkpt lat="44.42399" lon="1.40019">
        <ele>249.1</ele>
        <time>2021-10-02T12:00:47Z</time>
      </trkpt>
      <trkpt lat="44.42401" lon="1.40015">
        <ele>248.9</ele>
        <time>2021-10-02T12:00:49Z</time>
      </trkpt>
      <trkpt lat="44.42401" lon="1.40014">
        <ele>249</ele>
        <time>2021-10-02T12:00:51Z</time>
      </trkpt>
      <trkpt lat="44.42402" lon="1.40011">
        <ele>249.2</ele>
        <time>2021-10-02T12:01:07Z</time>
      </trkpt>
      <trkpt lat="44.424" lon="1.40007">
        <ele>249.6</ele>
        <time>2021-10-02T12:01:09Z</time>
      </trkpt>
      <trkpt lat="44.42398" lon="1.40003">
        <ele>250</ele>
        <time>2021-10-02T12:01:11Z</time>
      </trkpt>
      <trkpt lat="44.42395" lon="1.39999">
        <ele>250.4</ele>
        <time>2021-10-02T12:01:12Z</time>
      </trkpt>
      <trkpt lat="44.42393" lon="1.39995">
        <ele>250.7</ele>
        <time>2021-10-02T12:01:14Z</time>
      </trkpt>
      <trkpt lat="44.4239" lon="1.3999">
        <ele>251.1</ele>
        <time>2021-10-02T12:01:15Z</time>
      </trkpt>
      <trkpt lat="44.42387" lon="1.39986">
        <ele>251.4</ele>
        <time>2021-10-02T12:01:16Z</time>
      </trkpt>
      <trkpt lat="44.42385" lon="1.39983">
        <ele>251.6</ele>
        <time>2021-10-02T12:01:18Z</time>
      </trkpt>
      <trkpt lat="44.42383" lon="1.39979">
        <ele>251.8</ele>
        <time>2021-10-02T12:01:19Z</time>
      </trkpt>
      <trkpt lat="44.42381" lon="1.39975">
        <ele>252</ele>
        <time>2021-10-02T12:01:20Z</time>
      </trkpt>
      <trkpt lat="44.42379" lon="1.39972">
        <ele>252.1</ele>
        <time>2021-10-02T12:01:21Z</time>
      </trkpt>
      <trkpt lat="44.42378" lon="1.39969">
        <ele>252.2</ele>
        <time>2021-10-02T12:01:23Z</time>
      </trkpt>
      <trkpt lat="44.42376" lon="1.39965">
        <ele>252.3</ele>
        <time>2021-10-02T12:01:24Z</time>
      </trkpt>
      <trkpt lat="44.42374" lon="1.39962">
        <ele>252.4</ele>
        <time>2021-10-02T12:01:26Z</time>
      </trkpt>
      <trkpt lat="44.42373" lon="1.3996">
        <ele>252.4</ele>
        <time>2021-10-02T12:01:27Z</time>
      </trkpt>
      <trkpt lat="44.42372" lon="1.39956">
        <ele>252.5</ele>
        <time>2021-10-02T12:01:28Z</time>
      </trkpt>
      <trkpt lat="44.42371" lon="1.39955">
        <ele>252.6</ele>
        <time>2021-10-02T12:01:29Z</time>
      </trkpt>
      <trkpt lat="44.42368" lon="1.39951">
        <ele>252.7</ele>
        <time>2021-10-02T12:01:31Z</time>
      </trkpt>
      <trkpt lat="44.42365" lon="1.39947">
        <ele>252.8</ele>
        <time>2021-10-02T12:01:32Z</time>
      </trkpt>
      <trkpt lat="44.42364" lon="1.39945">
        <ele>252.9</ele>
        <time>2021-10-02T12:01:33Z</time>
      </trkpt>
      <trkpt lat="44.42363" lon="1.39942">
        <ele>253</ele>
        <time>2021-10-02T12:01:34Z</time>
      </trkpt>
      <trkpt lat="44.42362" lon="1.39939">
        <ele>253</ele>
        <time>2021-10-02T12:01:35Z</time>
      </trkpt>
      <trkpt lat="44.4236" lon="1.39935">
        <ele>253.1</ele>
        <time>2021-10-02T12:01:37Z</time>
      </trkpt>
      <trkpt lat="44.42358" lon="1.39932">
        <ele>253.2</ele>
        <time>2021-10-02T12:01:38Z</time>
      </trkpt>
      <trkpt lat="44.42355" lon="1.39926">
        <ele>253.3</ele>
        <time>2021-10-02T12:01:40Z</time>
      </trkpt>
      <trkpt lat="44.42355" lon="1.39924">
        <ele>253.3</ele>
        <time>2021-10-02T12:01:41Z</time>
      </trkpt>
      <trkpt lat="44.42354" lon="1.39922">
        <ele>253.4</ele>
        <time>2021-10-02T12:01:42Z</time>
      </trkpt>
      <trkpt lat="44.42352" lon="1.39919">
        <ele>253.4</ele>
        <time>2021-10-02T12:01:43Z</time>
      </trkpt>
      <trkpt lat="44.42351" lon="1.39915">
        <ele>253.5</ele>
        <time>2021-10-02T12:01:45Z</time>
      </trkpt>
      <trkpt lat="44.4235" lon="1.39911">
        <ele>253.6</ele>
        <time>2021-10-02T12:01:46Z</time>
      </trkpt>
      <trkpt lat="44.42348" lon="1.39907">
        <ele>253.8</ele>
        <time>2021-10-02T12:01:48Z</time>
      </trkpt>
      <trkpt lat="44.42346" lon="1.39902">
        <ele>253.9</ele>
        <time>2021-10-02T12:01:49Z</time>
      </trkpt>
      <trkpt lat="44.42343" lon="1.39896">
        <ele>254.2</ele>
        <time>2021-10-02T12:01:51Z</time>
      </trkpt>
      <trkpt lat="44.42342" lon="1.39894">
        <ele>254.3</ele>
        <time>2021-10-02T12:01:52Z</time>
      </trkpt>
      <trkpt lat="44.42342" lon="1.39892">
        <ele>254.4</ele>
        <time>2021-10-02T12:01:53Z</time>
      </trkpt>
      <trkpt lat="44.4234" lon="1.39888">
        <ele>254.5</ele>
        <time>2021-10-02T12:01:54Z</time>
      </trkpt>
      <trkpt lat="44.42338" lon="1.39884">
        <ele>254.8</ele>
        <time>2021-10-02T12:01:55Z</time>
      </trkpt>
      <trkpt lat="44.42336" lon="1.39878">
        <ele>255.1</ele>
        <time>2021-10-02T12:01:57Z</time>
      </trkpt>
      <trkpt lat="44.42335" lon="1.39874">
        <ele>255.3</ele>
        <time>2021-10-02T12:01:58Z</time>
      </trkpt>
      <trkpt lat="44.42334" lon="1.39871">
        <ele>255.5</ele>
        <time>2021-10-02T12:01:59Z</time>
      </trkpt>
      <trkpt lat="44.42333" lon="1.39867">
        <ele>255.8</ele>
        <time>2021-10-02T12:02:01Z</time>
      </trkpt>
      <trkpt lat="44.42332" lon="1.3986">
        <ele>256.3</ele>
        <time>2021-10-02T12:02:03Z</time>
      </trkpt>
      <trkpt lat="44.42331" lon="1.39854">
        <ele>256.7</ele>
        <time>2021-10-02T12:02:04Z</time>
      </trkpt>
      <trkpt lat="44.42329" lon="1.3985">
        <ele>256.9</ele>
        <time>2021-10-02T12:02:05Z</time>
      </trkpt>
      <trkpt lat="44.42328" lon="1.39847">
        <ele>257.1</ele>
        <time>2021-10-02T12:02:06Z</time>
      </trkpt>
      <trkpt lat="44.42327" lon="1.39842">
        <ele>257.4</ele>
        <time>2021-10-02T12:02:08Z</time>
      </trkpt>
      <trkpt lat="44.42326" lon="1.39838">
        <ele>257.6</ele>
        <time>2021-10-02T12:02:09Z</time>
      </trkpt>
      <trkpt lat="44.42326" lon="1.39831">
        <ele>257.8</ele>
        <time>2021-10-02T12:02:11Z</time>
      </trkpt>
      <trkpt lat="44.42325" lon="1.39825">
        <ele>257.9</ele>
        <time>2021-10-02T12:02:12Z</time>
      </trkpt>
      <trkpt lat="44.42324" lon="1.3982">
        <ele>257.9</ele>
        <time>2021-10-02T12:02:13Z</time>
      </trkpt>
      <trkpt lat="44.42324" lon="1.39815">
        <ele>258</ele>
        <time>2021-10-02T12:02:14Z</time>
      </trkpt>
      <trkpt lat="44.42323" lon="1.39808">
        <ele>258</ele>
        <time>2021-10-02T12:02:16Z</time>
      </trkpt>
      <trkpt lat="44.42323" lon="1.39803">
        <ele>258</ele>
        <time>2021-10-02T12:02:17Z</time>
      </trkpt>
      <trkpt lat="44.42322" lon="1.39794">
        <ele>258.1</ele>
        <time>2021-10-02T12:02:19Z</time>
      </trkpt>
      <trkpt lat="44.42322" lon="1.39789">
        <ele>258.2</ele>
        <time>2021-10-02T12:02:20Z</time>
      </trkpt>
      <trkpt lat="44.42322" lon="1.39784">
        <ele>258.2</ele>
        <time>2021-10-02T12:02:21Z</time>
      </trkpt>
      <trkpt lat="44.4232" lon="1.39775">
        <ele>258.3</ele>
        <time>2021-10-02T12:02:22Z</time>
      </trkpt>
      <trkpt lat="44.4232" lon="1.39768">
        <ele>258.4</ele>
        <time>2021-10-02T12:02:24Z</time>
      </trkpt>
      <trkpt lat="44.4232" lon="1.39763">
        <ele>258.4</ele>
        <time>2021-10-02T12:02:25Z</time>
      </trkpt>
      <trkpt lat="44.42319" lon="1.39756">
        <ele>258.6</ele>
        <time>2021-10-02T12:02:26Z</time>
      </trkpt>
      <trkpt lat="44.42318" lon="1.3975">
        <ele>258.7</ele>
        <time>2021-10-02T12:02:28Z</time>
      </trkpt>
      <trkpt lat="44.42317" lon="1.39742">
        <ele>258.9</ele>
        <time>2021-10-02T12:02:29Z</time>
      </trkpt>
      <trkpt lat="44.42316" lon="1.39738">
        <ele>259.1</ele>
        <time>2021-10-02T12:02:30Z</time>
      </trkpt>
      <trkpt lat="44.42316" lon="1.39733">
        <ele>259.3</ele>
        <time>2021-10-02T12:02:31Z</time>
      </trkpt>
      <trkpt lat="44.42316" lon="1.39728">
        <ele>259.5</ele>
        <time>2021-10-02T12:02:33Z</time>
      </trkpt>
      <trkpt lat="44.42315" lon="1.39723">
        <ele>259.8</ele>
        <time>2021-10-02T12:02:34Z</time>
      </trkpt>
      <trkpt lat="44.42314" lon="1.39714">
        <ele>260.2</ele>
        <time>2021-10-02T12:02:35Z</time>
      </trkpt>
      <trkpt lat="44.42313" lon="1.39709">
        <ele>260.5</ele>
        <time>2021-10-02T12:02:37Z</time>
      </trkpt>
      <trkpt lat="44.42313" lon="1.39704">
        <ele>260.8</ele>
        <time>2021-10-02T12:02:38Z</time>
      </trkpt>
      <trkpt lat="44.42312" lon="1.39698">
        <ele>261.2</ele>
        <time>2021-10-02T12:02:39Z</time>
      </trkpt>
      <trkpt lat="44.42312" lon="1.39692">
        <ele>261.5</ele>
        <time>2021-10-02T12:02:41Z</time>
      </trkpt>
      <trkpt lat="44.42312" lon="1.39687">
        <ele>261.8</ele>
        <time>2021-10-02T12:02:42Z</time>
      </trkpt>
      <trkpt lat="44.42311" lon="1.39683">
        <ele>262</ele>
        <time>2021-10-02T12:02:43Z</time>
      </trkpt>
      <trkpt lat="44.42311" lon="1.39678">
        <ele>262.3</ele>
        <time>2021-10-02T12:02:44Z</time>
      </trkpt>
      <trkpt lat="44.4231" lon="1.39674">
        <ele>262.5</ele>
        <time>2021-10-02T12:02:46Z</time>
      </trkpt>
      <trkpt lat="44.42309" lon="1.39669">
        <ele>262.8</ele>
        <time>2021-10-02T12:02:47Z</time>
      </trkpt>
      <trkpt lat="44.42309" lon="1.39662">
        <ele>263.2</ele>
        <time>2021-10-02T12:02:49Z</time>
      </trkpt>
      <trkpt lat="44.42309" lon="1.39659">
        <ele>263.4</ele>
        <time>2021-10-02T12:02:50Z</time>
      </trkpt>
      <trkpt lat="44.42308" lon="1.39657">
        <ele>263.6</ele>
        <time>2021-10-02T12:02:51Z</time>
      </trkpt>
      <trkpt lat="44.42307" lon="1.39651">
        <ele>263.9</ele>
        <time>2021-10-02T12:02:53Z</time>
      </trkpt>
      <trkpt lat="44.42307" lon="1.39647">
        <ele>264.2</ele>
        <time>2021-10-02T12:02:54Z</time>
      </trkpt>
      <trkpt lat="44.42307" lon="1.39643">
        <ele>264.4</ele>
        <time>2021-10-02T12:02:55Z</time>
      </trkpt>
      <trkpt lat="44.42306" lon="1.3964">
        <ele>264.7</ele>
        <time>2021-10-02T12:02:57Z</time>
      </trkpt>
      <trkpt lat="44.42306" lon="1.39635">
        <ele>265</ele>
        <time>2021-10-02T12:02:58Z</time>
      </trkpt>
      <trkpt lat="44.42306" lon="1.39632">
        <ele>265.2</ele>
        <time>2021-10-02T12:02:59Z</time>
      </trkpt>
      <trkpt lat="44.42306" lon="1.39627">
        <ele>265.5</ele>
        <time>2021-10-02T12:03:01Z</time>
      </trkpt>
      <trkpt lat="44.42305" lon="1.39623">
        <ele>265.8</ele>
        <time>2021-10-02T12:03:02Z</time>
      </trkpt>
      <trkpt lat="44.42305" lon="1.39621">
        <ele>265.9</ele>
        <time>2021-10-02T12:03:03Z</time>
      </trkpt>
      <trkpt lat="44.42305" lon="1.39617">
        <ele>266.2</ele>
        <time>2021-10-02T12:03:04Z</time>
      </trkpt>
      <trkpt lat="44.42305" lon="1.39612">
        <ele>266.5</ele>
        <time>2021-10-02T12:03:06Z</time>
      </trkpt>
      <trkpt lat="44.42304" lon="1.39611">
        <ele>266.6</ele>
        <time>2021-10-02T12:03:07Z</time>
      </trkpt>
      <trkpt lat="44.42304" lon="1.39605">
        <ele>267</ele>
        <time>2021-10-02T12:03:08Z</time>
      </trkpt>
      <trkpt lat="44.42304" lon="1.39603">
        <ele>267.2</ele>
        <time>2021-10-02T12:03:09Z</time>
      </trkpt>
      <trkpt lat="44.42304" lon="1.39598">
        <ele>267.5</ele>
        <time>2021-10-02T12:03:11Z</time>
      </trkpt>
      <trkpt lat="44.42303" lon="1.39595">
        <ele>267.8</ele>
        <time>2021-10-02T12:03:12Z</time>
      </trkpt>
      <trkpt lat="44.42302" lon="1.3959">
        <ele>268.1</ele>
        <time>2021-10-02T12:03:13Z</time>
      </trkpt>
      <trkpt lat="44.42302" lon="1.39588">
        <ele>268.2</ele>
        <time>2021-10-02T12:03:14Z</time>
      </trkpt>
      <trkpt lat="44.42302" lon="1.39581">
        <ele>268.7</ele>
        <time>2021-10-02T12:03:16Z</time>
      </trkpt>
      <trkpt lat="44.42302" lon="1.39578">
        <ele>268.9</ele>
        <time>2021-10-02T12:03:17Z</time>
      </trkpt>
      <trkpt lat="44.42302" lon="1.39576">
        <ele>269</ele>
        <time>2021-10-02T12:03:18Z</time>
      </trkpt>
      <trkpt lat="44.42302" lon="1.39573">
        <ele>269.2</ele>
        <time>2021-10-02T12:03:19Z</time>
      </trkpt>
      <trkpt lat="44.42302" lon="1.3957">
        <ele>269.4</ele>
        <time>2021-10-02T12:03:21Z</time>
      </trkpt>
      <trkpt lat="44.42301" lon="1.39566">
        <ele>269.7</ele>
        <time>2021-10-02T12:03:22Z</time>
      </trkpt>
      <trkpt lat="44.423" lon="1.39562">
        <ele>269.9</ele>
        <time>2021-10-02T12:03:23Z</time>
      </trkpt>
      <trkpt lat="44.42299" lon="1.39556">
        <ele>270.3</ele>
        <time>2021-10-02T12:03:25Z</time>
      </trkpt>
      <trkpt lat="44.42298" lon="1.39553">
        <ele>270.4</ele>
        <time>2021-10-02T12:03:26Z</time>
      </trkpt>
      <trkpt lat="44.42298" lon="1.39551">
        <ele>270.5</ele>
        <time>2021-10-02T12:03:27Z</time>
      </trkpt>
      <trkpt lat="44.42296" lon="1.39547">
        <ele>270.7</ele>
        <time>2021-10-02T12:03:28Z</time>
      </trkpt>
      <trkpt lat="44.42295" lon="1.39546">
        <ele>270.8</ele>
        <time>2021-10-02T12:03:29Z</time>
      </trkpt>
      <trkpt lat="44.42294" lon="1.39543">
        <ele>270.9</ele>
        <time>2021-10-02T12:03:30Z</time>
      </trkpt>
      <trkpt lat="44.42291" lon="1.39537">
        <ele>271.1</ele>
        <time>2021-10-02T12:03:32Z</time>
      </trkpt>
      <trkpt lat="44.4229" lon="1.39535">
        <ele>271.2</ele>
        <time>2021-10-02T12:03:33Z</time>
      </trkpt>
      <trkpt lat="44.42288" lon="1.39533">
        <ele>271.3</ele>
        <time>2021-10-02T12:03:34Z</time>
      </trkpt>
      <trkpt lat="44.42287" lon="1.39529">
        <ele>271.4</ele>
        <time>2021-10-02T12:03:36Z</time>
      </trkpt>
      <trkpt lat="44.42287" lon="1.39525">
        <ele>271.7</ele>
        <time>2021-10-02T12:03:37Z</time>
      </trkpt>
      <trkpt lat="44.42291" lon="1.39521">
        <ele>271.8</ele>
        <time>2021-10-02T12:03:39Z</time>
      </trkpt>
      <trkpt lat="44.42294" lon="1.39519">
        <ele>271.8</ele>
        <time>2021-10-02T12:03:40Z</time>
      </trkpt>
      <trkpt lat="44.42297" lon="1.39517">
        <ele>271.8</ele>
        <time>2021-10-02T12:03:41Z</time>
      </trkpt>
      <trkpt lat="44.423" lon="1.39515">
        <ele>271.9</ele>
        <time>2021-10-02T12:03:42Z</time>
      </trkpt>
      <trkpt lat="44.42305" lon="1.39511">
        <ele>271.9</ele>
        <time>2021-10-02T12:03:44Z</time>
      </trkpt>
      <trkpt lat="44.42308" lon="1.39508">
        <ele>272</ele>
        <time>2021-10-02T12:03:45Z</time>
      </trkpt>
      <trkpt lat="44.42311" lon="1.39505">
        <ele>272</ele>
        <time>2021-10-02T12:03:46Z</time>
      </trkpt>
      <trkpt lat="44.42314" lon="1.39501">
        <ele>272.1</ele>
        <time>2021-10-02T12:03:47Z</time>
      </trkpt>
      <trkpt lat="44.42317" lon="1.39496">
        <ele>272.2</ele>
        <time>2021-10-02T12:03:48Z</time>
      </trkpt>
      <trkpt lat="44.4232" lon="1.39492">
        <ele>272.3</ele>
        <time>2021-10-02T12:03:50Z</time>
      </trkpt>
      <trkpt lat="44.42324" lon="1.39487">
        <ele>272.4</ele>
        <time>2021-10-02T12:03:51Z</time>
      </trkpt>
      <trkpt lat="44.42327" lon="1.39484">
        <ele>272.5</ele>
        <time>2021-10-02T12:03:52Z</time>
      </trkpt>
      <trkpt lat="44.4233" lon="1.39481">
        <ele>272.5</ele>
        <time>2021-10-02T12:03:54Z</time>
      </trkpt>
      <trkpt lat="44.42332" lon="1.3948">
        <ele>272.6</ele>
        <time>2021-10-02T12:03:55Z</time>
      </trkpt>
      <trkpt lat="44.42338" lon="1.39477">
        <ele>272.7</ele>
        <time>2021-10-02T12:03:56Z</time>
      </trkpt>
      <trkpt lat="44.42341" lon="1.39476">
        <ele>272.8</ele>
        <time>2021-10-02T12:03:57Z</time>
      </trkpt>
      <trkpt lat="44.42347" lon="1.39475">
        <ele>272.8</ele>
        <time>2021-10-02T12:03:59Z</time>
      </trkpt>
      <trkpt lat="44.42352" lon="1.39474">
        <ele>272.9</ele>
        <time>2021-10-02T12:04:00Z</time>
      </trkpt>
      <trkpt lat="44.42356" lon="1.39474">
        <ele>273</ele>
        <time>2021-10-02T12:04:01Z</time>
      </trkpt>
      <trkpt lat="44.42361" lon="1.39473">
        <ele>273.1</ele>
        <time>2021-10-02T12:04:03Z</time>
      </trkpt>
      <trkpt lat="44.42368" lon="1.39472">
        <ele>273.3</ele>
        <time>2021-10-02T12:04:05Z</time>
      </trkpt>
      <trkpt lat="44.42371" lon="1.39471">
        <ele>273.4</ele>
        <time>2021-10-02T12:04:06Z</time>
      </trkpt>
      <trkpt lat="44.42375" lon="1.3947">
        <ele>273.6</ele>
        <time>2021-10-02T12:04:07Z</time>
      </trkpt>
      <trkpt lat="44.42378" lon="1.39469">
        <ele>273.8</ele>
        <time>2021-10-02T12:04:08Z</time>
      </trkpt>
      <trkpt lat="44.42382" lon="1.39468">
        <ele>274</ele>
        <time>2021-10-02T12:04:10Z</time>
      </trkpt>
      <trkpt lat="44.42386" lon="1.39468">
        <ele>274.2</ele>
        <time>2021-10-02T12:04:11Z</time>
      </trkpt>
      <trkpt lat="44.4239" lon="1.39467">
        <ele>274.5</ele>
        <time>2021-10-02T12:04:12Z</time>
      </trkpt>
      <trkpt lat="44.42393" lon="1.39467">
        <ele>274.7</ele>
        <time>2021-10-02T12:04:14Z</time>
      </trkpt>
      <trkpt lat="44.42398" lon="1.39466">
        <ele>275</ele>
        <time>2021-10-02T12:04:15Z</time>
      </trkpt>
      <trkpt lat="44.42401" lon="1.39465">
        <ele>275.2</ele>
        <time>2021-10-02T12:04:16Z</time>
      </trkpt>
      <trkpt lat="44.42404" lon="1.39464">
        <ele>275.5</ele>
        <time>2021-10-02T12:04:18Z</time>
      </trkpt>
      <trkpt lat="44.42406" lon="1.39464">
        <ele>275.7</ele>
        <time>2021-10-02T12:04:19Z</time>
      </trkpt>
      <trkpt lat="44.42412" lon="1.39464">
        <ele>276.1</ele>
        <time>2021-10-02T12:04:20Z</time>
      </trkpt>
      <trkpt lat="44.42415" lon="1.39463">
        <ele>276.5</ele>
        <time>2021-10-02T12:04:22Z</time>
      </trkpt>
      <trkpt lat="44.42418" lon="1.39463">
        <ele>276.7</ele>
        <time>2021-10-02T12:04:23Z</time>
      </trkpt>
      <trkpt lat="44.42421" lon="1.39463">
        <ele>277</ele>
        <time>2021-10-02T12:04:24Z</time>
      </trkpt>
      <trkpt lat="44.42425" lon="1.39462">
        <ele>277.4</ele>
        <time>2021-10-02T12:04:25Z</time>
      </trkpt>
      <trkpt lat="44.42428" lon="1.39463">
        <ele>277.7</ele>
        <time>2021-10-02T12:04:27Z</time>
      </trkpt>
      <trkpt lat="44.42432" lon="1.39463">
        <ele>278</ele>
        <time>2021-10-02T12:04:28Z</time>
      </trkpt>
      <trkpt lat="44.42436" lon="1.39464">
        <ele>278.4</ele>
        <time>2021-10-02T12:04:30Z</time>
      </trkpt>
      <trkpt lat="44.4244" lon="1.39465">
        <ele>278.7</ele>
        <time>2021-10-02T12:04:31Z</time>
      </trkpt>
      <trkpt lat="44.42443" lon="1.39466">
        <ele>279</ele>
        <time>2021-10-02T12:04:32Z</time>
      </trkpt>
      <trkpt lat="44.42446" lon="1.39467">
        <ele>279.3</ele>
        <time>2021-10-02T12:04:34Z</time>
      </trkpt>
      <trkpt lat="44.4245" lon="1.39469">
        <ele>279.7</ele>
        <time>2021-10-02T12:04:35Z</time>
      </trkpt>
      <trkpt lat="44.42455" lon="1.39471">
        <ele>280.2</ele>
        <time>2021-10-02T12:04:37Z</time>
      </trkpt>
      <trkpt lat="44.42458" lon="1.39473">
        <ele>280.4</ele>
        <time>2021-10-02T12:04:39Z</time>
      </trkpt>
      <trkpt lat="44.42463" lon="1.39477">
        <ele>280.9</ele>
        <time>2021-10-02T12:04:41Z</time>
      </trkpt>
      <trkpt lat="44.42466" lon="1.39479">
        <ele>281.1</ele>
        <time>2021-10-02T12:04:42Z</time>
      </trkpt>
      <trkpt lat="44.42467" lon="1.3948">
        <ele>281.2</ele>
        <time>2021-10-02T12:04:43Z</time>
      </trkpt>
      <trkpt lat="44.4247" lon="1.39482">
        <ele>281.5</ele>
        <time>2021-10-02T12:04:44Z</time>
      </trkpt>
      <trkpt lat="44.42473" lon="1.39485">
        <ele>281.7</ele>
        <time>2021-10-02T12:04:45Z</time>
      </trkpt>
      <trkpt lat="44.42475" lon="1.39486">
        <ele>281.9</ele>
        <time>2021-10-02T12:04:46Z</time>
      </trkpt>
      <trkpt lat="44.4248" lon="1.39489">
        <ele>282.3</ele>
        <time>2021-10-02T12:04:48Z</time>
      </trkpt>
      <trkpt lat="44.42482" lon="1.39491">
        <ele>282.4</ele>
        <time>2021-10-02T12:04:49Z</time>
      </trkpt>
      <trkpt lat="44.42483" lon="1.39492">
        <ele>282.5</ele>
        <time>2021-10-02T12:04:50Z</time>
      </trkpt>
      <trkpt lat="44.42486" lon="1.39495">
        <ele>282.8</ele>
        <time>2021-10-02T12:04:52Z</time>
      </trkpt>
      <trkpt lat="44.42489" lon="1.39498">
        <ele>283</ele>
        <time>2021-10-02T12:04:53Z</time>
      </trkpt>
      <trkpt lat="44.42492" lon="1.39501">
        <ele>283.3</ele>
        <time>2021-10-02T12:04:55Z</time>
      </trkpt>
      <trkpt lat="44.42496" lon="1.39504">
        <ele>283.5</ele>
        <time>2021-10-02T12:04:56Z</time>
      </trkpt>
      <trkpt lat="44.42499" lon="1.39507">
        <ele>283.7</ele>
        <time>2021-10-02T12:04:58Z</time>
      </trkpt>
      <trkpt lat="44.42503" lon="1.3951">
        <ele>284</ele>
        <time>2021-10-02T12:04:59Z</time>
      </trkpt>
      <trkpt lat="44.42504" lon="1.39512">
        <ele>284.1</ele>
        <time>2021-10-02T12:05:00Z</time>
      </trkpt>
      <trkpt lat="44.42508" lon="1.39515">
        <ele>284.3</ele>
        <time>2021-10-02T12:05:02Z</time>
      </trkpt>
      <trkpt lat="44.42511" lon="1.39517">
        <ele>284.5</ele>
        <time>2021-10-02T12:05:03Z</time>
      </trkpt>
      <trkpt lat="44.42515" lon="1.3952">
        <ele>284.7</ele>
        <time>2021-10-02T12:05:05Z</time>
      </trkpt>
      <trkpt lat="44.42518" lon="1.39521">
        <ele>284.8</ele>
        <time>2021-10-02T12:05:06Z</time>
      </trkpt>
      <trkpt lat="44.42523" lon="1.39523">
        <ele>285.1</ele>
        <time>2021-10-02T12:05:07Z</time>
      </trkpt>
      <trkpt lat="44.42526" lon="1.39524">
        <ele>285.3</ele>
        <time>2021-10-02T12:05:09Z</time>
      </trkpt>
      <trkpt lat="44.42529" lon="1.39524">
        <ele>285.4</ele>
        <time>2021-10-02T12:05:10Z</time>
      </trkpt>
      <trkpt lat="44.42535" lon="1.39522">
        <ele>285.8</ele>
        <time>2021-10-02T12:05:12Z</time>
      </trkpt>
      <trkpt lat="44.42537" lon="1.39521">
        <ele>286</ele>
        <time>2021-10-02T12:05:13Z</time>
      </trkpt>
      <trkpt lat="44.42541" lon="1.39516">
        <ele>286.4</ele>
        <time>2021-10-02T12:05:15Z</time>
      </trkpt>
      <trkpt lat="44.42544" lon="1.39511">
        <ele>286.7</ele>
        <time>2021-10-02T12:05:16Z</time>
      </trkpt>
      <trkpt lat="44.42544" lon="1.3951">
        <ele>286.8</ele>
        <time>2021-10-02T12:05:17Z</time>
      </trkpt>
      <trkpt lat="44.42546" lon="1.39504">
        <ele>287.1</ele>
        <time>2021-10-02T12:05:18Z</time>
      </trkpt>
      <trkpt lat="44.42548" lon="1.39499">
        <ele>287.5</ele>
        <time>2021-10-02T12:05:20Z</time>
      </trkpt>
      <trkpt lat="44.42549" lon="1.39495">
        <ele>287.6</ele>
        <time>2021-10-02T12:05:21Z</time>
      </trkpt>
      <trkpt lat="44.4255" lon="1.39489">
        <ele>287.8</ele>
        <time>2021-10-02T12:05:22Z</time>
      </trkpt>
      <trkpt lat="44.42551" lon="1.39485">
        <ele>287.9</ele>
        <time>2021-10-02T12:05:24Z</time>
      </trkpt>
      <trkpt lat="44.42552" lon="1.39481">
        <ele>288</ele>
        <time>2021-10-02T12:05:25Z</time>
      </trkpt>
      <trkpt lat="44.42553" lon="1.39474">
        <ele>288.2</ele>
        <time>2021-10-02T12:05:26Z</time>
      </trkpt>
      <trkpt lat="44.42553" lon="1.39469">
        <ele>288.3</ele>
        <time>2021-10-02T12:05:28Z</time>
      </trkpt>
      <trkpt lat="44.42556" lon="1.39461">
        <ele>288.5</ele>
        <time>2021-10-02T12:05:30Z</time>
      </trkpt>
      <trkpt lat="44.42557" lon="1.39456">
        <ele>288.7</ele>
        <time>2021-10-02T12:05:31Z</time>
      </trkpt>
      <trkpt lat="44.42559" lon="1.3945">
        <ele>288.8</ele>
        <time>2021-10-02T12:05:33Z</time>
      </trkpt>
      <trkpt lat="44.42561" lon="1.39447">
        <ele>288.9</ele>
        <time>2021-10-02T12:05:34Z</time>
      </trkpt>
      <trkpt lat="44.42563" lon="1.39442">
        <ele>289.1</ele>
        <time>2021-10-02T12:05:35Z</time>
      </trkpt>
      <trkpt lat="44.42564" lon="1.39441">
        <ele>289.1</ele>
        <time>2021-10-02T12:05:36Z</time>
      </trkpt>
      <trkpt lat="44.42566" lon="1.39437">
        <ele>289.2</ele>
        <time>2021-10-02T12:05:37Z</time>
      </trkpt>
      <trkpt lat="44.42569" lon="1.39432">
        <ele>289.3</ele>
        <time>2021-10-02T12:05:39Z</time>
      </trkpt>
      <trkpt lat="44.42572" lon="1.39428">
        <ele>289.3</ele>
        <time>2021-10-02T12:05:40Z</time>
      </trkpt>
      <trkpt lat="44.42576" lon="1.39425">
        <ele>289.4</ele>
        <time>2021-10-02T12:05:42Z</time>
      </trkpt>
      <trkpt lat="44.42577" lon="1.39424">
        <ele>289.4</ele>
        <time>2021-10-02T12:05:43Z</time>
      </trkpt>
      <trkpt lat="44.42581" lon="1.3942">
        <ele>289.4</ele>
        <time>2021-10-02T12:05:45Z</time>
      </trkpt>
      <trkpt lat="44.42583" lon="1.39417">
        <ele>289.4</ele>
        <time>2021-10-02T12:05:46Z</time>
      </trkpt>
      <trkpt lat="44.42583" lon="1.39416">
        <ele>289.4</ele>
        <time>2021-10-02T12:05:47Z</time>
      </trkpt>
      <trkpt lat="44.42583" lon="1.39415">
        <ele>289.4</ele>
        <time>2021-10-02T12:05:49Z</time>
      </trkpt>
      <trkpt lat="44.42583" lon="1.39415">
        <ele>289.2</ele>
        <time>2021-10-02T12:05:50Z</time>
      </trkpt>
      <trkpt lat="44.42583" lon="1.39415">
        <ele>289.2</ele>
        <time>2021-10-02T12:05:52Z</time>
      </trkpt>
      <trkpt lat="44.42583" lon="1.39415">
        <ele>289.2</ele>
        <time>2021-10-02T12:05:53Z</time>
      </trkpt>
      <trkpt lat="44.42584" lon="1.39414">
        <ele>289.2</ele>
        <time>2021-10-02T12:05:54Z</time>
      </trkpt>
      <trkpt lat="44.42586" lon="1.3941">
        <ele>289.2</ele>
        <time>2021-10-02T12:05:56Z</time>
      </trkpt>
      <trkpt lat="44.42588" lon="1.39403">
        <ele>289.3</ele>
        <time>2021-10-02T12:05:57Z</time>
      </trkpt>
      <trkpt lat="44.42592" lon="1.39396">
        <ele>289.3</ele>
        <time>2021-10-02T12:05:58Z</time>
      </trkpt>
      <trkpt lat="44.42594" lon="1.39391">
        <ele>289.4</ele>
        <time>2021-10-02T12:05:59Z</time>
      </trkpt>
      <trkpt lat="44.42596" lon="1.39387">
        <ele>289.4</ele>
        <time>2021-10-02T12:06:00Z</time>
      </trkpt>
      <trkpt lat="44.42599" lon="1.39383">
        <ele>289.5</ele>
        <time>2021-10-02T12:06:02Z</time>
      </trkpt>
      <trkpt lat="44.42601" lon="1.39378">
        <ele>289.5</ele>
        <time>2021-10-02T12:06:03Z</time>
      </trkpt>
      <trkpt lat="44.42604" lon="1.39371">
        <ele>289.5</ele>
        <time>2021-10-02T12:06:04Z</time>
      </trkpt>
      <trkpt lat="44.42606" lon="1.39366">
        <ele>289.4</ele>
        <time>2021-10-02T12:06:05Z</time>
      </trkpt>
      <trkpt lat="44.42608" lon="1.39362">
        <ele>289.4</ele>
        <time>2021-10-02T12:06:06Z</time>
      </trkpt>
      <trkpt lat="44.4261" lon="1.39357">
        <ele>289.3</ele>
        <time>2021-10-02T12:06:08Z</time>
      </trkpt>
      <trkpt lat="44.42614" lon="1.39349">
        <ele>289.2</ele>
        <time>2021-10-02T12:06:09Z</time>
      </trkpt>
      <trkpt lat="44.42617" lon="1.39344">
        <ele>289.1</ele>
        <time>2021-10-02T12:06:11Z</time>
      </trkpt>
      <trkpt lat="44.42619" lon="1.39338">
        <ele>289</ele>
        <time>2021-10-02T12:06:12Z</time>
      </trkpt>
      <trkpt lat="44.42621" lon="1.39333">
        <ele>288.9</ele>
        <time>2021-10-02T12:06:13Z</time>
      </trkpt>
      <trkpt lat="44.42628" lon="1.39322">
        <ele>288.6</ele>
        <time>2021-10-02T12:06:15Z</time>
      </trkpt>
      <trkpt lat="44.42631" lon="1.39315">
        <ele>288.4</ele>
        <time>2021-10-02T12:06:16Z</time>
      </trkpt>
      <trkpt lat="44.42635" lon="1.39309">
        <ele>288.2</ele>
        <time>2021-10-02T12:06:17Z</time>
      </trkpt>
      <trkpt lat="44.42639" lon="1.39302">
        <ele>287.9</ele>
        <time>2021-10-02T12:06:18Z</time>
      </trkpt>
      <trkpt lat="44.42648" lon="1.39292">
        <ele>287.4</ele>
        <time>2021-10-02T12:06:20Z</time>
      </trkpt>
      <trkpt lat="44.42656" lon="1.39282">
        <ele>287</ele>
        <time>2021-10-02T12:06:22Z</time>
      </trkpt>
      <trkpt lat="44.4266" lon="1.39276">
        <ele>286.8</ele>
        <time>2021-10-02T12:06:23Z</time>
      </trkpt>
      <trkpt lat="44.42664" lon="1.3927">
        <ele>286.6</ele>
        <time>2021-10-02T12:06:24Z</time>
      </trkpt>
      <trkpt lat="44.42673" lon="1.39261">
        <ele>286.3</ele>
        <time>2021-10-02T12:06:26Z</time>
      </trkpt>
      <trkpt lat="44.42677" lon="1.39258">
        <ele>286.2</ele>
        <time>2021-10-02T12:06:27Z</time>
      </trkpt>
      <trkpt lat="44.42686" lon="1.39252">
        <ele>286.1</ele>
        <time>2021-10-02T12:06:29Z</time>
      </trkpt>
      <trkpt lat="44.42692" lon="1.39248">
        <ele>286</ele>
        <time>2021-10-02T12:06:31Z</time>
      </trkpt>
      <trkpt lat="44.42696" lon="1.39246">
        <ele>285.9</ele>
        <time>2021-10-02T12:06:32Z</time>
      </trkpt>
      <trkpt lat="44.42706" lon="1.39239">
        <ele>285.8</ele>
        <time>2021-10-02T12:06:34Z</time>
      </trkpt>
      <trkpt lat="44.42714" lon="1.39233">
        <ele>285.7</ele>
        <time>2021-10-02T12:06:36Z</time>
      </trkpt>
      <trkpt lat="44.42718" lon="1.39229">
        <ele>285.7</ele>
        <time>2021-10-02T12:06:37Z</time>
      </trkpt>
      <trkpt lat="44.42718" lon="1.39227">
        <ele>285.7</ele>
        <time>2021-10-02T12:06:38Z</time>
      </trkpt>
      <trkpt lat="44.42726" lon="1.39218">
        <ele>285.6</ele>
        <time>2021-10-02T12:06:40Z</time>
      </trkpt>
      <trkpt lat="44.42728" lon="1.39213">
        <ele>285.5</ele>
        <time>2021-10-02T12:06:41Z</time>
      </trkpt>
      <trkpt lat="44.42734" lon="1.39207">
        <ele>285.5</ele>
        <time>2021-10-02T12:06:42Z</time>
      </trkpt>
      <trkpt lat="44.42739" lon="1.39202">
        <ele>285.4</ele>
        <time>2021-10-02T12:06:44Z</time>
      </trkpt>
      <trkpt lat="44.42744" lon="1.39197">
        <ele>285.3</ele>
        <time>2021-10-02T12:06:45Z</time>
      </trkpt>
      <trkpt lat="44.42748" lon="1.39194">
        <ele>285.2</ele>
        <time>2021-10-02T12:06:46Z</time>
      </trkpt>
      <trkpt lat="44.42751" lon="1.39191">
        <ele>285.2</ele>
        <time>2021-10-02T12:06:47Z</time>
      </trkpt>
      <trkpt lat="44.42757" lon="1.39186">
        <ele>285.1</ele>
        <time>2021-10-02T12:06:49Z</time>
      </trkpt>
      <trkpt lat="44.42762" lon="1.39178">
        <ele>284.9</ele>
        <time>2021-10-02T12:06:51Z</time>
      </trkpt>
      <trkpt lat="44.42765" lon="1.39165">
        <ele>284.7</ele>
        <time>2021-10-02T12:06:53Z</time>
      </trkpt>
      <trkpt lat="44.42766" lon="1.39159">
        <ele>284.6</ele>
        <time>2021-10-02T12:06:54Z</time>
      </trkpt>
      <trkpt lat="44.42767" lon="1.39152">
        <ele>284.5</ele>
        <time>2021-10-02T12:06:56Z</time>
      </trkpt>
      <trkpt lat="44.42771" lon="1.39149">
        <ele>284.4</ele>
        <time>2021-10-02T12:06:57Z</time>
      </trkpt>
      <trkpt lat="44.42772" lon="1.39149">
        <ele>284.4</ele>
        <time>2021-10-02T12:06:58Z</time>
      </trkpt>
      <trkpt lat="44.42779" lon="1.39152">
        <ele>283.5</ele>
        <time>2021-10-02T12:07:00Z</time>
      </trkpt>
      <trkpt lat="44.42784" lon="1.39154">
        <ele>282.9</ele>
        <time>2021-10-02T12:07:01Z</time>
      </trkpt>
      <trkpt lat="44.42791" lon="1.39156">
        <ele>282.2</ele>
        <time>2021-10-02T12:07:02Z</time>
      </trkpt>
      <trkpt lat="44.42797" lon="1.39159">
        <ele>281.5</ele>
        <time>2021-10-02T12:07:03Z</time>
      </trkpt>
      <trkpt lat="44.42809" lon="1.39164">
        <ele>280.3</ele>
        <time>2021-10-02T12:07:05Z</time>
      </trkpt>
      <trkpt lat="44.42822" lon="1.3917">
        <ele>279.1</ele>
        <time>2021-10-02T12:07:07Z</time>
      </trkpt>
      <trkpt lat="44.42837" lon="1.39176">
        <ele>277.8</ele>
        <time>2021-10-02T12:07:09Z</time>
      </trkpt>
      <trkpt lat="44.42845" lon="1.3918">
        <ele>277.2</ele>
        <time>2021-10-02T12:07:10Z</time>
      </trkpt>
      <trkpt lat="44.4286" lon="1.39187">
        <ele>276.3</ele>
        <time>2021-10-02T12:07:12Z</time>
      </trkpt>
      <trkpt lat="44.42868" lon="1.39191">
        <ele>276</ele>
        <time>2021-10-02T12:07:13Z</time>
      </trkpt>
      <trkpt lat="44.42884" lon="1.39198">
        <ele>276.2</ele>
        <time>2021-10-02T12:07:15Z</time>
      </trkpt>
      <trkpt lat="44.42898" lon="1.39204">
        <ele>277.1</ele>
        <time>2021-10-02T12:07:17Z</time>
      </trkpt>
      <trkpt lat="44.42909" lon="1.39209">
        <ele>278</ele>
        <time>2021-10-02T12:07:19Z</time>
      </trkpt>
      <trkpt lat="44.42921" lon="1.39209">
        <ele>278.8</ele>
        <time>2021-10-02T12:07:21Z</time>
      </trkpt>
      <trkpt lat="44.42927" lon="1.3921">
        <ele>279.2</ele>
        <time>2021-10-02T12:07:22Z</time>
      </trkpt>
      <trkpt lat="44.42933" lon="1.39211">
        <ele>279.5</ele>
        <time>2021-10-02T12:07:23Z</time>
      </trkpt>
      <trkpt lat="44.42942" lon="1.39213">
        <ele>279.9</ele>
        <time>2021-10-02T12:07:25Z</time>
      </trkpt>
      <trkpt lat="44.42945" lon="1.39216">
        <ele>280</ele>
        <time>2021-10-02T12:07:26Z</time>
      </trkpt>
      <trkpt lat="44.42947" lon="1.39219">
        <ele>280.1</ele>
        <time>2021-10-02T12:07:27Z</time>
      </trkpt>
      <trkpt lat="44.42951" lon="1.39222">
        <ele>280.2</ele>
        <time>2021-10-02T12:07:28Z</time>
      </trkpt>
      <trkpt lat="44.42959" lon="1.39224">
        <ele>280.3</ele>
        <time>2021-10-02T12:07:30Z</time>
      </trkpt>
      <trkpt lat="44.42967" lon="1.39222">
        <ele>280.4</ele>
        <time>2021-10-02T12:07:32Z</time>
      </trkpt>
      <trkpt lat="44.42971" lon="1.39222">
        <ele>280.5</ele>
        <time>2021-10-02T12:07:33Z</time>
      </trkpt>
      <trkpt lat="44.42979" lon="1.39219">
        <ele>280.7</ele>
        <time>2021-10-02T12:07:34Z</time>
      </trkpt>
      <trkpt lat="44.42985" lon="1.39218">
        <ele>280.9</ele>
        <time>2021-10-02T12:07:36Z</time>
      </trkpt>
      <trkpt lat="44.42992" lon="1.39219">
        <ele>281.1</ele>
        <time>2021-10-02T12:07:37Z</time>
      </trkpt>
      <trkpt lat="44.42996" lon="1.39222">
        <ele>281.3</ele>
        <time>2021-10-02T12:07:38Z</time>
      </trkpt>
      <trkpt lat="44.43002" lon="1.39223">
        <ele>281.5</ele>
        <time>2021-10-02T12:07:40Z</time>
      </trkpt>
      <trkpt lat="44.43007" lon="1.39227">
        <ele>281.8</ele>
        <time>2021-10-02T12:07:41Z</time>
      </trkpt>
      <trkpt lat="44.43011" lon="1.39229">
        <ele>282</ele>
        <time>2021-10-02T12:07:42Z</time>
      </trkpt>
      <trkpt lat="44.43016" lon="1.39232">
        <ele>282.3</ele>
        <time>2021-10-02T12:07:43Z</time>
      </trkpt>
      <trkpt lat="44.43022" lon="1.39235">
        <ele>282.5</ele>
        <time>2021-10-02T12:07:45Z</time>
      </trkpt>
      <trkpt lat="44.43028" lon="1.39237">
        <ele>282.8</ele>
        <time>2021-10-02T12:07:47Z</time>
      </trkpt>
      <trkpt lat="44.43034" lon="1.39239">
        <ele>283</ele>
        <time>2021-10-02T12:07:48Z</time>
      </trkpt>
      <trkpt lat="44.43037" lon="1.39241">
        <ele>283.1</ele>
        <time>2021-10-02T12:07:50Z</time>
      </trkpt>
      <trkpt lat="44.43041" lon="1.39242">
        <ele>283.2</ele>
        <time>2021-10-02T12:07:51Z</time>
      </trkpt>
      <trkpt lat="44.43044" lon="1.39242">
        <ele>283.3</ele>
        <time>2021-10-02T12:07:52Z</time>
      </trkpt>
      <trkpt lat="44.43048" lon="1.39244">
        <ele>283.4</ele>
        <time>2021-10-02T12:07:53Z</time>
      </trkpt>
      <trkpt lat="44.43052" lon="1.39245">
        <ele>283.4</ele>
        <time>2021-10-02T12:07:54Z</time>
      </trkpt>
      <trkpt lat="44.43056" lon="1.39246">
        <ele>283.4</ele>
        <time>2021-10-02T12:07:55Z</time>
      </trkpt>
      <trkpt lat="44.43061" lon="1.39249">
        <ele>283.4</ele>
        <time>2021-10-02T12:07:57Z</time>
      </trkpt>
      <trkpt lat="44.43068" lon="1.39252">
        <ele>283.4</ele>
        <time>2021-10-02T12:07:59Z</time>
      </trkpt>
      <trkpt lat="44.43073" lon="1.39255">
        <ele>283.4</ele>
        <time>2021-10-02T12:08:00Z</time>
      </trkpt>
      <trkpt lat="44.43077" lon="1.39257">
        <ele>283.3</ele>
        <time>2021-10-02T12:08:02Z</time>
      </trkpt>
      <trkpt lat="44.43081" lon="1.39257">
        <ele>283.3</ele>
        <time>2021-10-02T12:08:03Z</time>
      </trkpt>
      <trkpt lat="44.43082" lon="1.39257">
        <ele>283.3</ele>
        <time>2021-10-02T12:08:04Z</time>
      </trkpt>
      <trkpt lat="44.43085" lon="1.39256">
        <ele>283.1</ele>
        <time>2021-10-02T12:08:05Z</time>
      </trkpt>
      <trkpt lat="44.4309" lon="1.39256">
        <ele>282.9</ele>
        <time>2021-10-02T12:08:06Z</time>
      </trkpt>
      <trkpt lat="44.43094" lon="1.39255">
        <ele>282.6</ele>
        <time>2021-10-02T12:08:07Z</time>
      </trkpt>
      <trkpt lat="44.43098" lon="1.39254">
        <ele>282.4</ele>
        <time>2021-10-02T12:08:08Z</time>
      </trkpt>
      <trkpt lat="44.43103" lon="1.39253">
        <ele>282.1</ele>
        <time>2021-10-02T12:08:10Z</time>
      </trkpt>
      <trkpt lat="44.43107" lon="1.39252">
        <ele>281.8</ele>
        <time>2021-10-02T12:08:11Z</time>
      </trkpt>
      <trkpt lat="44.43111" lon="1.39251">
        <ele>281.5</ele>
        <time>2021-10-02T12:08:12Z</time>
      </trkpt>
      <trkpt lat="44.43115" lon="1.39252">
        <ele>281.2</ele>
        <time>2021-10-02T12:08:13Z</time>
      </trkpt>
      <trkpt lat="44.4312" lon="1.39254">
        <ele>280.9</ele>
        <time>2021-10-02T12:08:14Z</time>
      </trkpt>
      <trkpt lat="44.43125" lon="1.39261">
        <ele>280.3</ele>
        <time>2021-10-02T12:08:16Z</time>
      </trkpt>
      <trkpt lat="44.43134" lon="1.39269">
        <ele>279.3</ele>
        <time>2021-10-02T12:08:18Z</time>
      </trkpt>
      <trkpt lat="44.43146" lon="1.39272">
        <ele>278.2</ele>
        <time>2021-10-02T12:08:20Z</time>
      </trkpt>
      <trkpt lat="44.43158" lon="1.39269">
        <ele>276.9</ele>
        <time>2021-10-02T12:08:22Z</time>
      </trkpt>
      <trkpt lat="44.43165" lon="1.39268">
        <ele>276.2</ele>
        <time>2021-10-02T12:08:23Z</time>
      </trkpt>
      <trkpt lat="44.43179" lon="1.39271">
        <ele>275.3</ele>
        <time>2021-10-02T12:08:25Z</time>
      </trkpt>
      <trkpt lat="44.43185" lon="1.39276">
        <ele>275</ele>
        <time>2021-10-02T12:08:26Z</time>
      </trkpt>
      <trkpt lat="44.43189" lon="1.39278">
        <ele>274.9</ele>
        <time>2021-10-02T12:08:27Z</time>
      </trkpt>
      <trkpt lat="44.43191" lon="1.39276">
        <ele>274.8</ele>
        <time>2021-10-02T12:08:29Z</time>
      </trkpt>
      <trkpt lat="44.43192" lon="1.39273">
        <ele>274.7</ele>
        <time>2021-10-02T12:08:30Z</time>
      </trkpt>
      <trkpt lat="44.43192" lon="1.39266">
        <ele>274.5</ele>
        <time>2021-10-02T12:08:32Z</time>
      </trkpt>
      <trkpt lat="44.43192" lon="1.3926">
        <ele>274.4</ele>
        <time>2021-10-02T12:08:34Z</time>
      </trkpt>
      <trkpt lat="44.43193" lon="1.39259">
        <ele>274.4</ele>
        <time>2021-10-02T12:08:35Z</time>
      </trkpt>
      <trkpt lat="44.43193" lon="1.39259">
        <ele>274.4</ele>
        <time>2021-10-02T12:08:37Z</time>
      </trkpt>
      <trkpt lat="44.43193" lon="1.39259">
        <ele>274.4</ele>
        <time>2021-10-02T12:08:38Z</time>
      </trkpt>
      <trkpt lat="44.43194" lon="1.39258">
        <ele>274.3</ele>
        <time>2021-10-02T12:08:40Z</time>
      </trkpt>
      <trkpt lat="44.43206" lon="1.39244">
        <ele>272.3</ele>
        <time>2021-10-02T12:08:42Z</time>
      </trkpt>
      <trkpt lat="44.43216" lon="1.39235">
        <ele>270.2</ele>
        <time>2021-10-02T12:08:44Z</time>
      </trkpt>
      <trkpt lat="44.43229" lon="1.39227">
        <ele>268</ele>
        <time>2021-10-02T12:08:46Z</time>
      </trkpt>
      <trkpt lat="44.43242" lon="1.39218">
        <ele>265.8</ele>
        <time>2021-10-02T12:08:48Z</time>
      </trkpt>
      <trkpt lat="44.43249" lon="1.39213">
        <ele>264.8</ele>
        <time>2021-10-02T12:08:49Z</time>
      </trkpt>
      <trkpt lat="44.43264" lon="1.39203">
        <ele>263.2</ele>
        <time>2021-10-02T12:08:51Z</time>
      </trkpt>
      <trkpt lat="44.43271" lon="1.39197">
        <ele>262.4</ele>
        <time>2021-10-02T12:08:52Z</time>
      </trkpt>
      <trkpt lat="44.43279" lon="1.39191">
        <ele>261.5</ele>
        <time>2021-10-02T12:08:53Z</time>
      </trkpt>
      <trkpt lat="44.43287" lon="1.39186">
        <ele>260.5</ele>
        <time>2021-10-02T12:08:54Z</time>
      </trkpt>
      <trkpt lat="44.43304" lon="1.39174">
        <ele>259</ele>
        <time>2021-10-02T12:08:56Z</time>
      </trkpt>
      <trkpt lat="44.43321" lon="1.39158">
        <ele>258.5</ele>
        <time>2021-10-02T12:08:58Z</time>
      </trkpt>
      <trkpt lat="44.4333" lon="1.3915">
        <ele>257.6</ele>
        <time>2021-10-02T12:08:59Z</time>
      </trkpt>
      <trkpt lat="44.43338" lon="1.39141">
        <ele>256.1</ele>
        <time>2021-10-02T12:09:00Z</time>
      </trkpt>
      <trkpt lat="44.43346" lon="1.39134">
        <ele>254.8</ele>
        <time>2021-10-02T12:09:01Z</time>
      </trkpt>
      <trkpt lat="44.4336" lon="1.39125">
        <ele>253.3</ele>
        <time>2021-10-02T12:09:03Z</time>
      </trkpt>
      <trkpt lat="44.43363" lon="1.39123">
        <ele>252.9</ele>
        <time>2021-10-02T12:09:04Z</time>
      </trkpt>
      <trkpt lat="44.43365" lon="1.39122">
        <ele>252.8</ele>
        <time>2021-10-02T12:09:06Z</time>
      </trkpt>
      <trkpt lat="44.43366" lon="1.39114">
        <ele>252.3</ele>
        <time>2021-10-02T12:09:08Z</time>
      </trkpt>
      <trkpt lat="44.43368" lon="1.3911">
        <ele>252.1</ele>
        <time>2021-10-02T12:09:09Z</time>
      </trkpt>
      <trkpt lat="44.43377" lon="1.39101">
        <ele>251.4</ele>
        <time>2021-10-02T12:09:11Z</time>
      </trkpt>
      <trkpt lat="44.43383" lon="1.39096">
        <ele>251</ele>
        <time>2021-10-02T12:09:12Z</time>
      </trkpt>
      <trkpt lat="44.43389" lon="1.39091">
        <ele>250.4</ele>
        <time>2021-10-02T12:09:13Z</time>
      </trkpt>
      <trkpt lat="44.43402" lon="1.39082">
        <ele>249</ele>
        <time>2021-10-02T12:09:15Z</time>
      </trkpt>
      <trkpt lat="44.43407" lon="1.39077">
        <ele>248.4</ele>
        <time>2021-10-02T12:09:16Z</time>
      </trkpt>
      <trkpt lat="44.43412" lon="1.39067">
        <ele>247.6</ele>
        <time>2021-10-02T12:09:18Z</time>
      </trkpt>
      <trkpt lat="44.43413" lon="1.39063">
        <ele>247.3</ele>
        <time>2021-10-02T12:09:19Z</time>
      </trkpt>
      <trkpt lat="44.43415" lon="1.3906">
        <ele>247.1</ele>
        <time>2021-10-02T12:09:20Z</time>
      </trkpt>
      <trkpt lat="44.43423" lon="1.39055">
        <ele>246.5</ele>
        <time>2021-10-02T12:09:22Z</time>
      </trkpt>
      <trkpt lat="44.43429" lon="1.39052">
        <ele>246.1</ele>
        <time>2021-10-02T12:09:23Z</time>
      </trkpt>
      <trkpt lat="44.43435" lon="1.39048">
        <ele>245.7</ele>
        <time>2021-10-02T12:09:24Z</time>
      </trkpt>
      <trkpt lat="44.43439" lon="1.39045">
        <ele>245.3</ele>
        <time>2021-10-02T12:09:25Z</time>
      </trkpt>
      <trkpt lat="44.43443" lon="1.39044">
        <ele>245.1</ele>
        <time>2021-10-02T12:09:27Z</time>
      </trkpt>
      <trkpt lat="44.43445" lon="1.39042">
        <ele>244.8</ele>
        <time>2021-10-02T12:09:28Z</time>
      </trkpt>
      <trkpt lat="44.43448" lon="1.39039">
        <ele>244.6</ele>
        <time>2021-10-02T12:09:30Z</time>
      </trkpt>
      <trkpt lat="44.4345" lon="1.39037">
        <ele>244.4</ele>
        <time>2021-10-02T12:09:31Z</time>
      </trkpt>
      <trkpt lat="44.43451" lon="1.39037">
        <ele>244.3</ele>
        <time>2021-10-02T12:09:32Z</time>
      </trkpt>
      <trkpt lat="44.43452" lon="1.39037">
        <ele>244.2</ele>
        <time>2021-10-02T12:09:33Z</time>
      </trkpt>
      <trkpt lat="44.43453" lon="1.39037">
        <ele>244.2</ele>
        <time>2021-10-02T12:09:34Z</time>
      </trkpt>
      <trkpt lat="44.43453" lon="1.39038">
        <ele>244.2</ele>
        <time>2021-10-02T12:09:36Z</time>
      </trkpt>
      <trkpt lat="44.43453" lon="1.39039">
        <ele>244.1</ele>
        <time>2021-10-02T12:09:37Z</time>
      </trkpt>
      <trkpt lat="44.43453" lon="1.39039">
        <ele>244.1</ele>
        <time>2021-10-02T12:09:38Z</time>
      </trkpt>
      <trkpt lat="44.43453" lon="1.3904">
        <ele>244.1</ele>
        <time>2021-10-02T12:09:39Z</time>
      </trkpt>
      <trkpt lat="44.43453" lon="1.3904">
        <ele>244.1</ele>
        <time>2021-10-02T12:09:41Z</time>
      </trkpt>
      <trkpt lat="44.43453" lon="1.3904">
        <ele>244.1</ele>
        <time>2021-10-02T12:09:42Z</time>
      </trkpt>
      <trkpt lat="44.43454" lon="1.3904">
        <ele>244.1</ele>
        <time>2021-10-02T12:09:44Z</time>
      </trkpt>
      <trkpt lat="44.43465" lon="1.39052">
        <ele>243.3</ele>
        <time>2021-10-02T12:09:49Z</time>
      </trkpt>
      <trkpt lat="44.43467" lon="1.39051">
        <ele>243.3</ele>
        <time>2021-10-02T12:09:51Z</time>
      </trkpt>
      <trkpt lat="44.43467" lon="1.39052">
        <ele>243.3</ele>
        <time>2021-10-02T12:09:52Z</time>
      </trkpt>
      <trkpt lat="44.43467" lon="1.39052">
        <ele>243.2</ele>
        <time>2021-10-02T12:09:53Z</time>
      </trkpt>
      <trkpt lat="44.43468" lon="1.39052">
        <ele>243.2</ele>
        <time>2021-10-02T12:09:55Z</time>
      </trkpt>
      <trkpt lat="44.43468" lon="1.39052">
        <ele>243.2</ele>
        <time>2021-10-02T12:09:56Z</time>
      </trkpt>
      <trkpt lat="44.43468" lon="1.39052">
        <ele>243.2</ele>
        <time>2021-10-02T12:09:58Z</time>
      </trkpt>
      <trkpt lat="44.43468" lon="1.39052">
        <ele>243.2</ele>
        <time>2021-10-02T12:10:00Z</time>
      </trkpt>
      <trkpt lat="44.43468" lon="1.39052">
        <ele>243.2</ele>
        <time>2021-10-02T12:10:01Z</time>
      </trkpt>
      <trkpt lat="44.43468" lon="1.39052">
        <ele>243.2</ele>
        <time>2021-10-02T12:10:02Z</time>
      </trkpt>
      <trkpt lat="44.43469" lon="1.39053">
        <ele>243.1</ele>
        <time>2021-10-02T12:10:03Z</time>
      </trkpt>
      <trkpt lat="44.43472" lon="1.39056">
        <ele>243</ele>
        <time>2021-10-02T12:10:05Z</time>
      </trkpt>
      <trkpt lat="44.43475" lon="1.39055">
        <ele>242.8</ele>
        <time>2021-10-02T12:10:06Z</time>
      </trkpt>
      <trkpt lat="44.43478" lon="1.39052">
        <ele>242.6</ele>
        <time>2021-10-02T12:10:07Z</time>
      </trkpt>
      <trkpt lat="44.43483" lon="1.39052">
        <ele>242.3</ele>
        <time>2021-10-02T12:10:09Z</time>
      </trkpt>
      <trkpt lat="44.43485" lon="1.39053">
        <ele>242.2</ele>
        <time>2021-10-02T12:10:10Z</time>
      </trkpt>
      <trkpt lat="44.43486" lon="1.39053">
        <ele>242.1</ele>
        <time>2021-10-02T12:10:11Z</time>
      </trkpt>
      <trkpt lat="44.43488" lon="1.39051">
        <ele>241.8</ele>
        <time>2021-10-02T12:10:12Z</time>
      </trkpt>
      <trkpt lat="44.4349" lon="1.3905">
        <ele>241.7</ele>
        <time>2021-10-02T12:10:14Z</time>
      </trkpt>
      <trkpt lat="44.43491" lon="1.39049">
        <ele>241.6</ele>
        <time>2021-10-02T12:10:15Z</time>
      </trkpt>
      <trkpt lat="44.43494" lon="1.39047">
        <ele>241.3</ele>
        <time>2021-10-02T12:10:16Z</time>
      </trkpt>
      <trkpt lat="44.43498" lon="1.39048">
        <ele>241</ele>
        <time>2021-10-02T12:10:18Z</time>
      </trkpt>
      <trkpt lat="44.43502" lon="1.39048">
        <ele>240.7</ele>
        <time>2021-10-02T12:10:19Z</time>
      </trkpt>
      <trkpt lat="44.43504" lon="1.39046">
        <ele>240.5</ele>
        <time>2021-10-02T12:10:20Z</time>
      </trkpt>
      <trkpt lat="44.43509" lon="1.39044">
        <ele>240.1</ele>
        <time>2021-10-02T12:10:22Z</time>
      </trkpt>
      <trkpt lat="44.43513" lon="1.39046">
        <ele>239.7</ele>
        <time>2021-10-02T12:10:23Z</time>
      </trkpt>
      <trkpt lat="44.43515" lon="1.39045">
        <ele>239.6</ele>
        <time>2021-10-02T12:10:24Z</time>
      </trkpt>
      <trkpt lat="44.43516" lon="1.39043">
        <ele>239.5</ele>
        <time>2021-10-02T12:10:25Z</time>
      </trkpt>
      <trkpt lat="44.4352" lon="1.39039">
        <ele>239.1</ele>
        <time>2021-10-02T12:10:27Z</time>
      </trkpt>
      <trkpt lat="44.43531" lon="1.39033">
        <ele>238.7</ele>
        <time>2021-10-02T12:10:29Z</time>
      </trkpt>
      <trkpt lat="44.43535" lon="1.3903">
        <ele>238.6</ele>
        <time>2021-10-02T12:10:30Z</time>
      </trkpt>
      <trkpt lat="44.4354" lon="1.39029">
        <ele>238.6</ele>
        <time>2021-10-02T12:10:32Z</time>
      </trkpt>
      <trkpt lat="44.43543" lon="1.39028">
        <ele>238.5</ele>
        <time>2021-10-02T12:10:33Z</time>
      </trkpt>
      <trkpt lat="44.43546" lon="1.39024">
        <ele>238.5</ele>
        <time>2021-10-02T12:10:35Z</time>
      </trkpt>
      <trkpt lat="44.43547" lon="1.39022">
        <ele>238.4</ele>
        <time>2021-10-02T12:10:36Z</time>
      </trkpt>
      <trkpt lat="44.43548" lon="1.39021">
        <ele>238.4</ele>
        <time>2021-10-02T12:10:37Z</time>
      </trkpt>
      <trkpt lat="44.4355" lon="1.3902">
        <ele>238.4</ele>
        <time>2021-10-02T12:10:38Z</time>
      </trkpt>
      <trkpt lat="44.43551" lon="1.3902">
        <ele>238.3</ele>
        <time>2021-10-02T12:10:39Z</time>
      </trkpt>
      <trkpt lat="44.43554" lon="1.39021">
        <ele>238.3</ele>
        <time>2021-10-02T12:10:40Z</time>
      </trkpt>
      <trkpt lat="44.43557" lon="1.39019">
        <ele>238.2</ele>
        <time>2021-10-02T12:10:42Z</time>
      </trkpt>
      <trkpt lat="44.4356" lon="1.39018">
        <ele>238</ele>
        <time>2021-10-02T12:10:43Z</time>
      </trkpt>
      <trkpt lat="44.43563" lon="1.39018">
        <ele>237.8</ele>
        <time>2021-10-02T12:10:44Z</time>
      </trkpt>
      <trkpt lat="44.43567" lon="1.39015">
        <ele>237.5</ele>
        <time>2021-10-02T12:10:46Z</time>
      </trkpt>
      <trkpt lat="44.4357" lon="1.39014">
        <ele>237.3</ele>
        <time>2021-10-02T12:10:47Z</time>
      </trkpt>
      <trkpt lat="44.43574" lon="1.39016">
        <ele>237</ele>
        <time>2021-10-02T12:10:48Z</time>
      </trkpt>
      <trkpt lat="44.43577" lon="1.39017">
        <ele>236.8</ele>
        <time>2021-10-02T12:10:49Z</time>
      </trkpt>
      <trkpt lat="44.4358" lon="1.39018">
        <ele>236.6</ele>
        <time>2021-10-02T12:10:51Z</time>
      </trkpt>
      <trkpt lat="44.43586" lon="1.3902">
        <ele>236.2</ele>
        <time>2021-10-02T12:10:53Z</time>
      </trkpt>
      <trkpt lat="44.43589" lon="1.39021">
        <ele>235.9</ele>
        <time>2021-10-02T12:10:54Z</time>
      </trkpt>
      <trkpt lat="44.4359" lon="1.39021">
        <ele>235.9</ele>
        <time>2021-10-02T12:10:55Z</time>
      </trkpt>
      <trkpt lat="44.43594" lon="1.3902">
        <ele>235.6</ele>
        <time>2021-10-02T12:10:56Z</time>
      </trkpt>
      <trkpt lat="44.43597" lon="1.39017">
        <ele>235.4</ele>
        <time>2021-10-02T12:10:57Z</time>
      </trkpt>
      <trkpt lat="44.43601" lon="1.39014">
        <ele>235.2</ele>
        <time>2021-10-02T12:10:58Z</time>
      </trkpt>
      <trkpt lat="44.43605" lon="1.39013">
        <ele>235</ele>
        <time>2021-10-02T12:10:59Z</time>
      </trkpt>
      <trkpt lat="44.4361" lon="1.39014">
        <ele>234.8</ele>
        <time>2021-10-02T12:11:01Z</time>
      </trkpt>
      <trkpt lat="44.43613" lon="1.39015">
        <ele>234.7</ele>
        <time>2021-10-02T12:11:02Z</time>
      </trkpt>
      <trkpt lat="44.43614" lon="1.39015">
        <ele>234.7</ele>
        <time>2021-10-02T12:11:03Z</time>
      </trkpt>
      <trkpt lat="44.43617" lon="1.39015">
        <ele>234.6</ele>
        <time>2021-10-02T12:11:05Z</time>
      </trkpt>
      <trkpt lat="44.43618" lon="1.39015">
        <ele>234.6</ele>
        <time>2021-10-02T12:11:06Z</time>
      </trkpt>
      <trkpt lat="44.43622" lon="1.39017">
        <ele>234.5</ele>
        <time>2021-10-02T12:11:08Z</time>
      </trkpt>
      <trkpt lat="44.43624" lon="1.39021">
        <ele>234.4</ele>
        <time>2021-10-02T12:11:09Z</time>
      </trkpt>
      <trkpt lat="44.43627" lon="1.39022">
        <ele>234.4</ele>
        <time>2021-10-02T12:11:10Z</time>
      </trkpt>
      <trkpt lat="44.43631" lon="1.39022">
        <ele>234.4</ele>
        <time>2021-10-02T12:11:12Z</time>
      </trkpt>
      <trkpt lat="44.43636" lon="1.39021">
        <ele>234.4</ele>
        <time>2021-10-02T12:11:13Z</time>
      </trkpt>
      <trkpt lat="44.4364" lon="1.39022">
        <ele>234.5</ele>
        <time>2021-10-02T12:11:14Z</time>
      </trkpt>
      <trkpt lat="44.43644" lon="1.39025">
        <ele>234.5</ele>
        <time>2021-10-02T12:11:15Z</time>
      </trkpt>
      <trkpt lat="44.43647" lon="1.39026">
        <ele>234.6</ele>
        <time>2021-10-02T12:11:17Z</time>
      </trkpt>
      <trkpt lat="44.43649" lon="1.39025">
        <ele>234.7</ele>
        <time>2021-10-02T12:11:19Z</time>
      </trkpt>
      <trkpt lat="44.43649" lon="1.39025">
        <ele>234.7</ele>
        <time>2021-10-02T12:11:20Z</time>
      </trkpt>
      <trkpt lat="44.43649" lon="1.39025">
        <ele>234.7</ele>
        <time>2021-10-02T12:11:21Z</time>
      </trkpt>
      <trkpt lat="44.43651" lon="1.39025">
        <ele>234.7</ele>
        <time>2021-10-02T12:11:23Z</time>
      </trkpt>
      <trkpt lat="44.43652" lon="1.39026">
        <ele>234.7</ele>
        <time>2021-10-02T12:11:25Z</time>
      </trkpt>
      <trkpt lat="44.43654" lon="1.39026">
        <ele>234.7</ele>
        <time>2021-10-02T12:11:26Z</time>
      </trkpt>
      <trkpt lat="44.43658" lon="1.39026">
        <ele>234.7</ele>
        <time>2021-10-02T12:11:27Z</time>
      </trkpt>
      <trkpt lat="44.43661" lon="1.39027">
        <ele>234.7</ele>
        <time>2021-10-02T12:11:29Z</time>
      </trkpt>
      <trkpt lat="44.43664" lon="1.3903">
        <ele>234.5</ele>
        <time>2021-10-02T12:11:30Z</time>
      </trkpt>
      <trkpt lat="44.43668" lon="1.39033">
        <ele>234.3</ele>
        <time>2021-10-02T12:11:31Z</time>
      </trkpt>
      <trkpt lat="44.43672" lon="1.39036">
        <ele>234.1</ele>
        <time>2021-10-02T12:11:32Z</time>
      </trkpt>
      <trkpt lat="44.43677" lon="1.3904">
        <ele>233.7</ele>
        <time>2021-10-02T12:11:34Z</time>
      </trkpt>
      <trkpt lat="44.43682" lon="1.39044">
        <ele>233.4</ele>
        <time>2021-10-02T12:11:36Z</time>
      </trkpt>
      <trkpt lat="44.43689" lon="1.39049">
        <ele>232.9</ele>
        <time>2021-10-02T12:11:37Z</time>
      </trkpt>
      <trkpt lat="44.43693" lon="1.39052">
        <ele>232.6</ele>
        <time>2021-10-02T12:11:38Z</time>
      </trkpt>
      <trkpt lat="44.43698" lon="1.39055">
        <ele>232.3</ele>
        <time>2021-10-02T12:11:39Z</time>
      </trkpt>
      <trkpt lat="44.43702" lon="1.39056">
        <ele>232</ele>
        <time>2021-10-02T12:11:41Z</time>
      </trkpt>
      <trkpt lat="44.43706" lon="1.39058">
        <ele>231.7</ele>
        <time>2021-10-02T12:11:42Z</time>
      </trkpt>
      <trkpt lat="44.43713" lon="1.39061">
        <ele>231.2</ele>
        <time>2021-10-02T12:11:43Z</time>
      </trkpt>
      <trkpt lat="44.43723" lon="1.39067">
        <ele>230.6</ele>
        <time>2021-10-02T12:11:45Z</time>
      </trkpt>
      <trkpt lat="44.43729" lon="1.3907">
        <ele>230.4</ele>
        <time>2021-10-02T12:11:46Z</time>
      </trkpt>
      <trkpt lat="44.43739" lon="1.39077">
        <ele>230.3</ele>
        <time>2021-10-02T12:11:48Z</time>
      </trkpt>
      <trkpt lat="44.43748" lon="1.39086">
        <ele>230.1</ele>
        <time>2021-10-02T12:11:50Z</time>
      </trkpt>
      <trkpt lat="44.43753" lon="1.39089">
        <ele>229.9</ele>
        <time>2021-10-02T12:11:51Z</time>
      </trkpt>
      <trkpt lat="44.43764" lon="1.39096">
        <ele>229.3</ele>
        <time>2021-10-02T12:11:53Z</time>
      </trkpt>
      <trkpt lat="44.43769" lon="1.391">
        <ele>229</ele>
        <time>2021-10-02T12:11:54Z</time>
      </trkpt>
      <trkpt lat="44.43781" lon="1.3911">
        <ele>228.3</ele>
        <time>2021-10-02T12:11:56Z</time>
      </trkpt>
      <trkpt lat="44.43787" lon="1.39115">
        <ele>227.8</ele>
        <time>2021-10-02T12:11:57Z</time>
      </trkpt>
      <trkpt lat="44.43799" lon="1.39128">
        <ele>226.7</ele>
        <time>2021-10-02T12:11:59Z</time>
      </trkpt>
      <trkpt lat="44.43806" lon="1.39134">
        <ele>226.3</ele>
        <time>2021-10-02T12:12:00Z</time>
      </trkpt>
      <trkpt lat="44.43817" lon="1.39141">
        <ele>225.9</ele>
        <time>2021-10-02T12:12:02Z</time>
      </trkpt>
      <trkpt lat="44.43823" lon="1.39145">
        <ele>225.6</ele>
        <time>2021-10-02T12:12:03Z</time>
      </trkpt>
      <trkpt lat="44.43838" lon="1.39154">
        <ele>224.5</ele>
        <time>2021-10-02T12:12:05Z</time>
      </trkpt>
      <trkpt lat="44.43846" lon="1.39159">
        <ele>223.9</ele>
        <time>2021-10-02T12:12:06Z</time>
      </trkpt>
      <trkpt lat="44.43861" lon="1.3917">
        <ele>222.9</ele>
        <time>2021-10-02T12:12:08Z</time>
      </trkpt>
      <trkpt lat="44.43869" lon="1.39175">
        <ele>222.2</ele>
        <time>2021-10-02T12:12:09Z</time>
      </trkpt>
      <trkpt lat="44.43877" lon="1.3918">
        <ele>221.4</ele>
        <time>2021-10-02T12:12:10Z</time>
      </trkpt>
      <trkpt lat="44.43886" lon="1.39184">
        <ele>220.6</ele>
        <time>2021-10-02T12:12:11Z</time>
      </trkpt>
      <trkpt lat="44.43904" lon="1.39195">
        <ele>218.7</ele>
        <time>2021-10-02T12:12:13Z</time>
      </trkpt>
      <trkpt lat="44.43912" lon="1.39203">
        <ele>217.7</ele>
        <time>2021-10-02T12:12:14Z</time>
      </trkpt>
      <trkpt lat="44.43927" lon="1.39221">
        <ele>216.2</ele>
        <time>2021-10-02T12:12:16Z</time>
      </trkpt>
      <trkpt lat="44.43944" lon="1.39236">
        <ele>215.1</ele>
        <time>2021-10-02T12:12:18Z</time>
      </trkpt>
      <trkpt lat="44.43962" lon="1.39245">
        <ele>214.2</ele>
        <time>2021-10-02T12:12:20Z</time>
      </trkpt>
      <trkpt lat="44.43979" lon="1.39248">
        <ele>213.6</ele>
        <time>2021-10-02T12:12:22Z</time>
      </trkpt>
      <trkpt lat="44.43987" lon="1.39247">
        <ele>213.3</ele>
        <time>2021-10-02T12:12:23Z</time>
      </trkpt>
      <trkpt lat="44.43994" lon="1.39247">
        <ele>213.1</ele>
        <time>2021-10-02T12:12:24Z</time>
      </trkpt>
      <trkpt lat="44.44003" lon="1.39246">
        <ele>212.8</ele>
        <time>2021-10-02T12:12:25Z</time>
      </trkpt>
      <trkpt lat="44.4402" lon="1.39244">
        <ele>212.4</ele>
        <time>2021-10-02T12:12:27Z</time>
      </trkpt>
      <trkpt lat="44.44029" lon="1.39245">
        <ele>212.3</ele>
        <time>2021-10-02T12:12:28Z</time>
      </trkpt>
      <trkpt lat="44.44045" lon="1.39245">
        <ele>212.1</ele>
        <time>2021-10-02T12:12:30Z</time>
      </trkpt>
      <trkpt lat="44.4406" lon="1.39247">
        <ele>211.5</ele>
        <time>2021-10-02T12:12:32Z</time>
      </trkpt>
      <trkpt lat="44.44067" lon="1.3925">
        <ele>211.1</ele>
        <time>2021-10-02T12:12:33Z</time>
      </trkpt>
      <trkpt lat="44.44075" lon="1.39253">
        <ele>210.6</ele>
        <time>2021-10-02T12:12:34Z</time>
      </trkpt>
      <trkpt lat="44.4409" lon="1.39261">
        <ele>209.7</ele>
        <time>2021-10-02T12:12:36Z</time>
      </trkpt>
      <trkpt lat="44.44105" lon="1.39269">
        <ele>209</ele>
        <time>2021-10-02T12:12:38Z</time>
      </trkpt>
      <trkpt lat="44.44119" lon="1.39277">
        <ele>208.5</ele>
        <time>2021-10-02T12:12:40Z</time>
      </trkpt>
      <trkpt lat="44.44126" lon="1.39283">
        <ele>208.2</ele>
        <time>2021-10-02T12:12:41Z</time>
      </trkpt>
      <trkpt lat="44.44132" lon="1.39288">
        <ele>208</ele>
        <time>2021-10-02T12:12:42Z</time>
      </trkpt>
      <trkpt lat="44.44144" lon="1.39298">
        <ele>207.6</ele>
        <time>2021-10-02T12:12:44Z</time>
      </trkpt>
      <trkpt lat="44.44156" lon="1.39309">
        <ele>207.1</ele>
        <time>2021-10-02T12:12:46Z</time>
      </trkpt>
      <trkpt lat="44.44168" lon="1.39321">
        <ele>206.6</ele>
        <time>2021-10-02T12:12:48Z</time>
      </trkpt>
      <trkpt lat="44.44173" lon="1.39326">
        <ele>206.4</ele>
        <time>2021-10-02T12:12:49Z</time>
      </trkpt>
      <trkpt lat="44.44183" lon="1.39336">
        <ele>206</ele>
        <time>2021-10-02T12:12:51Z</time>
      </trkpt>
      <trkpt lat="44.44188" lon="1.3934">
        <ele>205.8</ele>
        <time>2021-10-02T12:12:52Z</time>
      </trkpt>
      <trkpt lat="44.44192" lon="1.39345">
        <ele>205.6</ele>
        <time>2021-10-02T12:12:53Z</time>
      </trkpt>
      <trkpt lat="44.442" lon="1.39353">
        <ele>205.3</ele>
        <time>2021-10-02T12:12:55Z</time>
      </trkpt>
      <trkpt lat="44.44204" lon="1.39356">
        <ele>205.1</ele>
        <time>2021-10-02T12:12:57Z</time>
      </trkpt>
      <trkpt lat="44.44207" lon="1.39358">
        <ele>204.9</ele>
        <time>2021-10-02T12:12:59Z</time>
      </trkpt>
      <trkpt lat="44.44208" lon="1.39359">
        <ele>204.9</ele>
        <time>2021-10-02T12:13:00Z</time>
      </trkpt>
      <trkpt lat="44.44208" lon="1.39359">
        <ele>204.9</ele>
        <time>2021-10-02T12:13:02Z</time>
      </trkpt>
      <trkpt lat="44.44209" lon="1.39359">
        <ele>204.9</ele>
        <time>2021-10-02T12:13:04Z</time>
      </trkpt>
      <trkpt lat="44.44209" lon="1.39359">
        <ele>204.9</ele>
        <time>2021-10-02T12:13:05Z</time>
      </trkpt>
      <trkpt lat="44.44209" lon="1.39359">
        <ele>204.9</ele>
        <time>2021-10-02T12:13:07Z</time>
      </trkpt>
      <trkpt lat="44.44209" lon="1.39359">
        <ele>204.9</ele>
        <time>2021-10-02T12:13:08Z</time>
      </trkpt>
      <trkpt lat="44.44209" lon="1.39359">
        <ele>204.9</ele>
        <time>2021-10-02T12:13:10Z</time>
      </trkpt>
      <trkpt lat="44.44211" lon="1.39358">
        <ele>204.8</ele>
        <time>2021-10-02T12:13:17Z</time>
      </trkpt>
      <trkpt lat="44.44215" lon="1.39357">
        <ele>204.6</ele>
        <time>2021-10-02T12:13:19Z</time>
      </trkpt>
      <trkpt lat="44.44217" lon="1.39356">
        <ele>204.6</ele>
        <time>2021-10-02T12:13:20Z</time>
      </trkpt>
      <trkpt lat="44.44217" lon="1.39356">
        <ele>204.6</ele>
        <time>2021-10-02T12:13:21Z</time>
      </trkpt>
      <trkpt lat="44.44218" lon="1.39356">
        <ele>204.6</ele>
        <time>2021-10-02T12:13:22Z</time>
      </trkpt>
      <trkpt lat="44.44219" lon="1.39356">
        <ele>204.5</ele>
        <time>2021-10-02T12:13:24Z</time>
      </trkpt>
      <trkpt lat="44.44221" lon="1.39356">
        <ele>204.5</ele>
        <time>2021-10-02T12:13:26Z</time>
      </trkpt>
      <trkpt lat="44.44222" lon="1.39355">
        <ele>204.4</ele>
        <time>2021-10-02T12:13:27Z</time>
      </trkpt>
      <trkpt lat="44.44223" lon="1.39355">
        <ele>204.4</ele>
        <time>2021-10-02T12:13:28Z</time>
      </trkpt>
      <trkpt lat="44.44226" lon="1.39355">
        <ele>204.3</ele>
        <time>2021-10-02T12:13:29Z</time>
      </trkpt>
      <trkpt lat="44.44229" lon="1.39355">
        <ele>204.2</ele>
        <time>2021-10-02T12:13:32Z</time>
      </trkpt>
      <trkpt lat="44.44232" lon="1.39354">
        <ele>204.1</ele>
        <time>2021-10-02T12:13:34Z</time>
      </trkpt>
      <trkpt lat="44.44233" lon="1.39354">
        <ele>204.1</ele>
        <time>2021-10-02T12:13:35Z</time>
      </trkpt>
      <trkpt lat="44.44237" lon="1.39353">
        <ele>204</ele>
        <time>2021-10-02T12:13:36Z</time>
      </trkpt>
      <trkpt lat="44.4424" lon="1.39352">
        <ele>203.9</ele>
        <time>2021-10-02T12:13:38Z</time>
      </trkpt>
      <trkpt lat="44.44242" lon="1.39352">
        <ele>203.8</ele>
        <time>2021-10-02T12:13:39Z</time>
      </trkpt>
      <trkpt lat="44.44245" lon="1.39351">
        <ele>203.7</ele>
        <time>2021-10-02T12:13:41Z</time>
      </trkpt>
      <trkpt lat="44.44249" lon="1.39351">
        <ele>203.6</ele>
        <time>2021-10-02T12:13:42Z</time>
      </trkpt>
      <trkpt lat="44.4425" lon="1.3935">
        <ele>203.6</ele>
        <time>2021-10-02T12:13:43Z</time>
      </trkpt>
      <trkpt lat="44.44252" lon="1.39349">
        <ele>203.5</ele>
        <time>2021-10-02T12:13:45Z</time>
      </trkpt>
      <trkpt lat="44.44253" lon="1.39349">
        <ele>203.5</ele>
        <time>2021-10-02T12:13:46Z</time>
      </trkpt>
      <trkpt lat="44.44255" lon="1.39348">
        <ele>203.4</ele>
        <time>2021-10-02T12:13:47Z</time>
      </trkpt>
      <trkpt lat="44.44257" lon="1.39347">
        <ele>203.4</ele>
        <time>2021-10-02T12:13:48Z</time>
      </trkpt>
      <trkpt lat="44.44258" lon="1.39346">
        <ele>203.3</ele>
        <time>2021-10-02T12:13:49Z</time>
      </trkpt>
      <trkpt lat="44.44261" lon="1.39345">
        <ele>203.5</ele>
        <time>2021-10-02T12:13:51Z</time>
      </trkpt>
      <trkpt lat="44.44263" lon="1.39345">
        <ele>203.5</ele>
        <time>2021-10-02T12:13:52Z</time>
      </trkpt>
      <trkpt lat="44.44264" lon="1.39345">
        <ele>203.7</ele>
        <time>2021-10-02T12:13:53Z</time>
      </trkpt>
      <trkpt lat="44.44267" lon="1.39343">
        <ele>203.9</ele>
        <time>2021-10-02T12:13:54Z</time>
      </trkpt>
      <trkpt lat="44.44268" lon="1.39343">
        <ele>204</ele>
        <time>2021-10-02T12:13:55Z</time>
      </trkpt>
      <trkpt lat="44.44271" lon="1.39341">
        <ele>204.6</ele>
        <time>2021-10-02T12:13:57Z</time>
      </trkpt>
      <trkpt lat="44.44271" lon="1.39341">
        <ele>204.7</ele>
        <time>2021-10-02T12:13:58Z</time>
      </trkpt>
      <trkpt lat="44.44273" lon="1.3934">
        <ele>204.9</ele>
        <time>2021-10-02T12:13:59Z</time>
      </trkpt>
      <trkpt lat="44.44275" lon="1.3934">
        <ele>204.9</ele>
        <time>2021-10-02T12:14:00Z</time>
      </trkpt>
      <trkpt lat="44.44276" lon="1.39339">
        <ele>205.1</ele>
        <time>2021-10-02T12:14:01Z</time>
      </trkpt>
      <trkpt lat="44.44278" lon="1.39339">
        <ele>205.1</ele>
        <time>2021-10-02T12:14:02Z</time>
      </trkpt>
      <trkpt lat="44.4428" lon="1.39338">
        <ele>205.2</ele>
        <time>2021-10-02T12:14:03Z</time>
      </trkpt>
      <trkpt lat="44.44282" lon="1.39338">
        <ele>205.7</ele>
        <time>2021-10-02T12:14:05Z</time>
      </trkpt>
      <trkpt lat="44.44285" lon="1.39337">
        <ele>205.7</ele>
        <time>2021-10-02T12:14:06Z</time>
      </trkpt>
      <trkpt lat="44.44285" lon="1.39336">
        <ele>205.8</ele>
        <time>2021-10-02T12:14:07Z</time>
      </trkpt>
      <trkpt lat="44.44288" lon="1.39335">
        <ele>205.8</ele>
        <time>2021-10-02T12:14:09Z</time>
      </trkpt>
      <trkpt lat="44.44289" lon="1.39334">
        <ele>205.8</ele>
        <time>2021-10-02T12:14:10Z</time>
      </trkpt>
      <trkpt lat="44.44292" lon="1.39332">
        <ele>206.1</ele>
        <time>2021-10-02T12:14:12Z</time>
      </trkpt>
      <trkpt lat="44.44292" lon="1.39331">
        <ele>206.2</ele>
        <time>2021-10-02T12:14:13Z</time>
      </trkpt>
      <trkpt lat="44.44294" lon="1.39329">
        <ele>206.2</ele>
        <time>2021-10-02T12:14:14Z</time>
      </trkpt>
      <trkpt lat="44.44295" lon="1.39328">
        <ele>206.5</ele>
        <time>2021-10-02T12:14:15Z</time>
      </trkpt>
      <trkpt lat="44.44296" lon="1.39326">
        <ele>206.5</ele>
        <time>2021-10-02T12:14:16Z</time>
      </trkpt>
      <trkpt lat="44.44298" lon="1.39324">
        <ele>206.7</ele>
        <time>2021-10-02T12:14:17Z</time>
      </trkpt>
      <trkpt lat="44.443" lon="1.39321">
        <ele>206.7</ele>
        <time>2021-10-02T12:14:19Z</time>
      </trkpt>
      <trkpt lat="44.443" lon="1.3932">
        <ele>207.1</ele>
        <time>2021-10-02T12:14:20Z</time>
      </trkpt>
      <trkpt lat="44.44301" lon="1.39319">
        <ele>207</ele>
        <time>2021-10-02T12:14:21Z</time>
      </trkpt>
      <trkpt lat="44.44302" lon="1.39318">
        <ele>207</ele>
        <time>2021-10-02T12:14:22Z</time>
      </trkpt>
      <trkpt lat="44.44303" lon="1.39316">
        <ele>207</ele>
        <time>2021-10-02T12:14:23Z</time>
      </trkpt>
      <trkpt lat="44.44303" lon="1.39315">
        <ele>207.3</ele>
        <time>2021-10-02T12:14:24Z</time>
      </trkpt>
      <trkpt lat="44.44304" lon="1.39314">
        <ele>207.3</ele>
        <time>2021-10-02T12:14:26Z</time>
      </trkpt>
      <trkpt lat="44.44304" lon="1.39313">
        <ele>207.3</ele>
        <time>2021-10-02T12:14:27Z</time>
      </trkpt>
      <trkpt lat="44.44305" lon="1.39312">
        <ele>207.4</ele>
        <time>2021-10-02T12:14:28Z</time>
      </trkpt>
      <trkpt lat="44.44305" lon="1.39311">
        <ele>207.8</ele>
        <time>2021-10-02T12:14:29Z</time>
      </trkpt>
      <trkpt lat="44.44306" lon="1.39309">
        <ele>207.8</ele>
        <time>2021-10-02T12:14:30Z</time>
      </trkpt>
      <trkpt lat="44.44308" lon="1.39305">
        <ele>208.2</ele>
        <time>2021-10-02T12:14:32Z</time>
      </trkpt>
      <trkpt lat="44.44308" lon="1.39304">
        <ele>208.2</ele>
        <time>2021-10-02T12:14:33Z</time>
      </trkpt>
      <trkpt lat="44.44309" lon="1.39302">
        <ele>208.7</ele>
        <time>2021-10-02T12:14:34Z</time>
      </trkpt>
      <trkpt lat="44.4431" lon="1.39301">
        <ele>208.6</ele>
        <time>2021-10-02T12:14:35Z</time>
      </trkpt>
      <trkpt lat="44.44311" lon="1.39299">
        <ele>209.1</ele>
        <time>2021-10-02T12:14:37Z</time>
      </trkpt>
      <trkpt lat="44.44311" lon="1.39297">
        <ele>209.1</ele>
        <time>2021-10-02T12:14:38Z</time>
      </trkpt>
      <trkpt lat="44.44313" lon="1.39294">
        <ele>209.6</ele>
        <time>2021-10-02T12:14:39Z</time>
      </trkpt>
      <trkpt lat="44.44313" lon="1.39293">
        <ele>209.5</ele>
        <time>2021-10-02T12:14:40Z</time>
      </trkpt>
      <trkpt lat="44.44313" lon="1.39292">
        <ele>209.5</ele>
        <time>2021-10-02T12:14:41Z</time>
      </trkpt>
      <trkpt lat="44.44314" lon="1.39291">
        <ele>209.6</ele>
        <time>2021-10-02T12:14:43Z</time>
      </trkpt>
      <trkpt lat="44.44314" lon="1.3929">
        <ele>209.6</ele>
        <time>2021-10-02T12:14:44Z</time>
      </trkpt>
      <trkpt lat="44.44314" lon="1.3929">
        <ele>209.6</ele>
        <time>2021-10-02T12:14:45Z</time>
      </trkpt>
      <trkpt lat="44.44314" lon="1.3929">
        <ele>210.1</ele>
        <time>2021-10-02T12:14:46Z</time>
      </trkpt>
      <trkpt lat="44.44314" lon="1.3929">
        <ele>210.1</ele>
        <time>2021-10-02T12:14:48Z</time>
      </trkpt>
      <trkpt lat="44.44314" lon="1.39288">
        <ele>210.2</ele>
        <time>2021-10-02T12:14:49Z</time>
      </trkpt>
      <trkpt lat="44.44315" lon="1.39282">
        <ele>210.7</ele>
        <time>2021-10-02T12:14:51Z</time>
      </trkpt>
      <trkpt lat="44.44315" lon="1.3928">
        <ele>211.2</ele>
        <time>2021-10-02T12:14:52Z</time>
      </trkpt>
      <trkpt lat="44.44315" lon="1.39278">
        <ele>211.2</ele>
        <time>2021-10-02T12:14:53Z</time>
      </trkpt>
      <trkpt lat="44.44315" lon="1.39274">
        <ele>211.7</ele>
        <time>2021-10-02T12:14:55Z</time>
      </trkpt>
      <trkpt lat="44.44315" lon="1.39272">
        <ele>212.2</ele>
        <time>2021-10-02T12:14:56Z</time>
      </trkpt>
      <trkpt lat="44.44315" lon="1.39269">
        <ele>212.3</ele>
        <time>2021-10-02T12:14:57Z</time>
      </trkpt>
      <trkpt lat="44.44315" lon="1.39267">
        <ele>212.8</ele>
        <time>2021-10-02T12:14:58Z</time>
      </trkpt>
      <trkpt lat="44.44315" lon="1.39265">
        <ele>212.8</ele>
        <time>2021-10-02T12:14:59Z</time>
      </trkpt>
      <trkpt lat="44.44314" lon="1.39264">
        <ele>213.4</ele>
        <time>2021-10-02T12:15:01Z</time>
      </trkpt>
      <trkpt lat="44.44314" lon="1.39262">
        <ele>213.5</ele>
        <time>2021-10-02T12:15:02Z</time>
      </trkpt>
      <trkpt lat="44.44314" lon="1.39261">
        <ele>213.5</ele>
        <time>2021-10-02T12:15:03Z</time>
      </trkpt>
      <trkpt lat="44.44313" lon="1.39259">
        <ele>214.1</ele>
        <time>2021-10-02T12:15:04Z</time>
      </trkpt>
      <trkpt lat="44.44313" lon="1.39259">
        <ele>214.2</ele>
        <time>2021-10-02T12:15:05Z</time>
      </trkpt>
      <trkpt lat="44.44313" lon="1.39258">
        <ele>214.2</ele>
        <time>2021-10-02T12:15:07Z</time>
      </trkpt>
      <trkpt lat="44.44312" lon="1.39252">
        <ele>215.7</ele>
        <time>2021-10-02T12:15:08Z</time>
      </trkpt>
      <trkpt lat="44.44311" lon="1.39246">
        <ele>216.4</ele>
        <time>2021-10-02T12:15:10Z</time>
      </trkpt>
      <trkpt lat="44.4431" lon="1.3924">
        <ele>217.1</ele>
        <time>2021-10-02T12:15:11Z</time>
      </trkpt>
      <trkpt lat="44.4431" lon="1.39235">
        <ele>217.7</ele>
        <time>2021-10-02T12:15:13Z</time>
      </trkpt>
      <trkpt lat="44.44309" lon="1.39229">
        <ele>219.2</ele>
        <time>2021-10-02T12:15:14Z</time>
      </trkpt>
      <trkpt lat="44.44308" lon="1.39223">
        <ele>219.9</ele>
        <time>2021-10-02T12:15:39Z</time>
      </trkpt>
      <trkpt lat="44.44307" lon="1.39218">
        <ele>220.6</ele>
        <time>2021-10-02T12:15:40Z</time>
      </trkpt>
      <trkpt lat="44.44307" lon="1.39212">
        <ele>222</ele>
        <time>2021-10-02T12:15:41Z</time>
      </trkpt>
      <trkpt lat="44.44307" lon="1.39211">
        <ele>222</ele>
        <time>2021-10-02T12:15:43Z</time>
      </trkpt>
      <trkpt lat="44.44308" lon="1.39209">
        <ele>222</ele>
        <time>2021-10-02T12:15:45Z</time>
      </trkpt>
      <trkpt lat="44.44309" lon="1.39208">
        <ele>222.7</ele>
        <time>2021-10-02T12:15:46Z</time>
      </trkpt>
      <trkpt lat="44.44309" lon="1.39207">
        <ele>222.8</ele>
        <time>2021-10-02T12:15:48Z</time>
      </trkpt>
      <trkpt lat="44.4431" lon="1.39206">
        <ele>222.5</ele>
        <time>2021-10-02T12:15:50Z</time>
      </trkpt>
      <trkpt lat="44.44321" lon="1.39187">
        <ele>224.9</ele>
        <time>2021-10-02T12:15:59Z</time>
      </trkpt>
      <trkpt lat="44.44322" lon="1.39186">
        <ele>224.7</ele>
        <time>2021-10-02T12:16:01Z</time>
      </trkpt>
      <trkpt lat="44.44323" lon="1.39186">
        <ele>224.7</ele>
        <time>2021-10-02T12:16:02Z</time>
      </trkpt>
      <trkpt lat="44.44323" lon="1.39185">
        <ele>224.7</ele>
        <time>2021-10-02T12:16:03Z</time>
      </trkpt>
      <trkpt lat="44.44324" lon="1.39185">
        <ele>224.8</ele>
        <time>2021-10-02T12:16:04Z</time>
      </trkpt>
      <trkpt lat="44.44325" lon="1.39182">
        <ele>225.1</ele>
        <time>2021-10-02T12:16:06Z</time>
      </trkpt>
      <trkpt lat="44.44326" lon="1.3918">
        <ele>225.2</ele>
        <time>2021-10-02T12:16:07Z</time>
      </trkpt>
      <trkpt lat="44.44327" lon="1.39178">
        <ele>225.8</ele>
        <time>2021-10-02T12:16:09Z</time>
      </trkpt>
      <trkpt lat="44.44329" lon="1.39176">
        <ele>225.6</ele>
        <time>2021-10-02T12:16:10Z</time>
      </trkpt>
      <trkpt lat="44.4433" lon="1.39174">
        <ele>226.2</ele>
        <time>2021-10-02T12:16:11Z</time>
      </trkpt>
      <trkpt lat="44.44331" lon="1.39172">
        <ele>226.2</ele>
        <time>2021-10-02T12:16:13Z</time>
      </trkpt>
      <trkpt lat="44.44331" lon="1.39171">
        <ele>226</ele>
        <time>2021-10-02T12:16:14Z</time>
      </trkpt>
      <trkpt lat="44.44332" lon="1.39171">
        <ele>226</ele>
        <time>2021-10-02T12:16:16Z</time>
      </trkpt>
      <trkpt lat="44.44332" lon="1.39169">
        <ele>226.7</ele>
        <time>2021-10-02T12:16:18Z</time>
      </trkpt>
      <trkpt lat="44.44332" lon="1.39165">
        <ele>227.4</ele>
        <time>2021-10-02T12:16:20Z</time>
      </trkpt>
      <trkpt lat="44.44333" lon="1.39162">
        <ele>227.5</ele>
        <time>2021-10-02T12:16:21Z</time>
      </trkpt>
      <trkpt lat="44.44334" lon="1.3916">
        <ele>228.2</ele>
        <time>2021-10-02T12:16:23Z</time>
      </trkpt>
      <trkpt lat="44.44334" lon="1.39158">
        <ele>227.9</ele>
        <time>2021-10-02T12:16:24Z</time>
      </trkpt>
      <trkpt lat="44.44335" lon="1.39157">
        <ele>228.6</ele>
        <time>2021-10-02T12:16:26Z</time>
      </trkpt>
      <trkpt lat="44.44336" lon="1.39155">
        <ele>228.7</ele>
        <time>2021-10-02T12:16:27Z</time>
      </trkpt>
      <trkpt lat="44.44337" lon="1.39153">
        <ele>229.3</ele>
        <time>2021-10-02T12:16:28Z</time>
      </trkpt>
      <trkpt lat="44.44337" lon="1.39151">
        <ele>229.1</ele>
        <time>2021-10-02T12:16:30Z</time>
      </trkpt>
      <trkpt lat="44.44338" lon="1.3915">
        <ele>229.2</ele>
        <time>2021-10-02T12:16:31Z</time>
      </trkpt>
      <trkpt lat="44.44339" lon="1.39148">
        <ele>229.8</ele>
        <time>2021-10-02T12:16:32Z</time>
      </trkpt>
      <trkpt lat="44.4434" lon="1.39145">
        <ele>229.6</ele>
        <time>2021-10-02T12:16:34Z</time>
      </trkpt>
      <trkpt lat="44.44341" lon="1.39145">
        <ele>229.7</ele>
        <time>2021-10-02T12:16:35Z</time>
      </trkpt>
      <trkpt lat="44.44342" lon="1.39144">
        <ele>230.3</ele>
        <time>2021-10-02T12:16:36Z</time>
      </trkpt>
      <trkpt lat="44.44344" lon="1.39143">
        <ele>230.2</ele>
        <time>2021-10-02T12:16:38Z</time>
      </trkpt>
      <trkpt lat="44.44345" lon="1.39142">
        <ele>230.2</ele>
        <time>2021-10-02T12:16:39Z</time>
      </trkpt>
      <trkpt lat="44.44346" lon="1.39141">
        <ele>230</ele>
        <time>2021-10-02T12:16:41Z</time>
      </trkpt>
      <trkpt lat="44.44348" lon="1.39141">
        <ele>230.1</ele>
        <time>2021-10-02T12:16:43Z</time>
      </trkpt>
      <trkpt lat="44.44351" lon="1.39139">
        <ele>230.5</ele>
        <time>2021-10-02T12:16:45Z</time>
      </trkpt>
      <trkpt lat="44.44355" lon="1.39138">
        <ele>230.3</ele>
        <time>2021-10-02T12:16:47Z</time>
      </trkpt>
      <trkpt lat="44.44357" lon="1.39137">
        <ele>230.1</ele>
        <time>2021-10-02T12:16:48Z</time>
      </trkpt>
      <trkpt lat="44.44359" lon="1.39135">
        <ele>230.4</ele>
        <time>2021-10-02T12:16:50Z</time>
      </trkpt>
      <trkpt lat="44.44361" lon="1.39134">
        <ele>230.4</ele>
        <time>2021-10-02T12:16:51Z</time>
      </trkpt>
      <trkpt lat="44.44362" lon="1.39133">
        <ele>230.2</ele>
        <time>2021-10-02T12:16:52Z</time>
      </trkpt>
      <trkpt lat="44.44362" lon="1.39133">
        <ele>230.2</ele>
        <time>2021-10-02T12:16:53Z</time>
      </trkpt>
      <trkpt lat="44.44364" lon="1.39131">
        <ele>230.8</ele>
        <time>2021-10-02T12:16:55Z</time>
      </trkpt>
      <trkpt lat="44.44364" lon="1.3913">
        <ele>230.8</ele>
        <time>2021-10-02T12:16:56Z</time>
      </trkpt>
      <trkpt lat="44.44365" lon="1.39129">
        <ele>230.6</ele>
        <time>2021-10-02T12:16:58Z</time>
      </trkpt>
      <trkpt lat="44.44366" lon="1.39126">
        <ele>231.1</ele>
        <time>2021-10-02T12:16:59Z</time>
      </trkpt>
      <trkpt lat="44.44368" lon="1.39123">
        <ele>231.2</ele>
        <time>2021-10-02T12:17:01Z</time>
      </trkpt>
      <trkpt lat="44.4437" lon="1.39122">
        <ele>231.5</ele>
        <time>2021-10-02T12:17:02Z</time>
      </trkpt>
      <trkpt lat="44.44371" lon="1.39122">
        <ele>231.3</ele>
        <time>2021-10-02T12:17:03Z</time>
      </trkpt>
      <trkpt lat="44.44372" lon="1.39121">
        <ele>231.3</ele>
        <time>2021-10-02T12:17:05Z</time>
      </trkpt>
      <trkpt lat="44.44373" lon="1.39121">
        <ele>231.3</ele>
        <time>2021-10-02T12:17:07Z</time>
      </trkpt>
      <trkpt lat="44.44375" lon="1.39121">
        <ele>231.2</ele>
        <time>2021-10-02T12:17:08Z</time>
      </trkpt>
      <trkpt lat="44.44376" lon="1.39121">
        <ele>231.2</ele>
        <time>2021-10-02T12:17:09Z</time>
      </trkpt>
      <trkpt lat="44.44377" lon="1.39121">
        <ele>231</ele>
        <time>2021-10-02T12:17:10Z</time>
      </trkpt>
      <trkpt lat="44.44378" lon="1.3912">
        <ele>231</ele>
        <time>2021-10-02T12:17:12Z</time>
      </trkpt>
      <trkpt lat="44.4438" lon="1.3912">
        <ele>231.1</ele>
        <time>2021-10-02T12:17:48Z</time>
      </trkpt>
      <trkpt lat="44.44381" lon="1.3912">
        <ele>230.9</ele>
        <time>2021-10-02T12:17:49Z</time>
      </trkpt>
      <trkpt lat="44.44386" lon="1.39122">
        <ele>230.5</ele>
        <time>2021-10-02T12:17:50Z</time>
      </trkpt>
      <trkpt lat="44.44391" lon="1.39124">
        <ele>230</ele>
        <time>2021-10-02T12:17:51Z</time>
      </trkpt>
      <trkpt lat="44.44396" lon="1.39125">
        <ele>229.7</ele>
        <time>2021-10-02T12:17:53Z</time>
      </trkpt>
      <trkpt lat="44.44402" lon="1.39127">
        <ele>229.4</ele>
        <time>2021-10-02T12:17:54Z</time>
      </trkpt>
      <trkpt lat="44.44412" lon="1.39129">
        <ele>228.6</ele>
        <time>2021-10-02T12:17:56Z</time>
      </trkpt>
      <trkpt lat="44.44423" lon="1.39132">
        <ele>227.3</ele>
        <time>2021-10-02T12:17:58Z</time>
      </trkpt>
      <trkpt lat="44.44429" lon="1.39135">
        <ele>226.8</ele>
        <time>2021-10-02T12:17:59Z</time>
      </trkpt>
      <trkpt lat="44.44435" lon="1.39139">
        <ele>226</ele>
        <time>2021-10-02T12:18:00Z</time>
      </trkpt>
      <trkpt lat="44.44442" lon="1.39143">
        <ele>225</ele>
        <time>2021-10-02T12:18:01Z</time>
      </trkpt>
      <trkpt lat="44.44454" lon="1.39155">
        <ele>222.6</ele>
        <time>2021-10-02T12:18:03Z</time>
      </trkpt>
      <trkpt lat="44.44467" lon="1.3917">
        <ele>219.7</ele>
        <time>2021-10-02T12:18:05Z</time>
      </trkpt>
      <trkpt lat="44.44482" lon="1.39187">
        <ele>216.5</ele>
        <time>2021-10-02T12:18:07Z</time>
      </trkpt>
      <trkpt lat="44.4449" lon="1.39195">
        <ele>215.1</ele>
        <time>2021-10-02T12:18:08Z</time>
      </trkpt>
      <trkpt lat="44.44496" lon="1.39203">
        <ele>213.7</ele>
        <time>2021-10-02T12:18:09Z</time>
      </trkpt>
      <trkpt lat="44.44502" lon="1.39211">
        <ele>212.2</ele>
        <time>2021-10-02T12:18:10Z</time>
      </trkpt>
      <trkpt lat="44.44514" lon="1.39225">
        <ele>209.2</ele>
        <time>2021-10-02T12:18:12Z</time>
      </trkpt>
      <trkpt lat="44.4452" lon="1.39234">
        <ele>207.4</ele>
        <time>2021-10-02T12:18:13Z</time>
      </trkpt>
      <trkpt lat="44.44533" lon="1.3925">
        <ele>203.2</ele>
        <time>2021-10-02T12:18:15Z</time>
      </trkpt>
      <trkpt lat="44.44546" lon="1.39266">
        <ele>199.3</ele>
        <time>2021-10-02T12:18:17Z</time>
      </trkpt>
      <trkpt lat="44.44553" lon="1.39272">
        <ele>198.2</ele>
        <time>2021-10-02T12:18:18Z</time>
      </trkpt>
      <trkpt lat="44.44565" lon="1.39283">
        <ele>196</ele>
        <time>2021-10-02T12:18:20Z</time>
      </trkpt>
      <trkpt lat="44.44577" lon="1.39294">
        <ele>194.6</ele>
        <time>2021-10-02T12:18:22Z</time>
      </trkpt>
      <trkpt lat="44.44589" lon="1.39305">
        <ele>193</ele>
        <time>2021-10-02T12:18:24Z</time>
      </trkpt>
      <trkpt lat="44.44596" lon="1.3931">
        <ele>192.4</ele>
        <time>2021-10-02T12:18:25Z</time>
      </trkpt>
      <trkpt lat="44.44603" lon="1.39315">
        <ele>191.8</ele>
        <time>2021-10-02T12:18:26Z</time>
      </trkpt>
      <trkpt lat="44.44614" lon="1.39326">
        <ele>190</ele>
        <time>2021-10-02T12:18:28Z</time>
      </trkpt>
      <trkpt lat="44.44621" lon="1.39332">
        <ele>189.4</ele>
        <time>2021-10-02T12:18:29Z</time>
      </trkpt>
      <trkpt lat="44.44631" lon="1.3934">
        <ele>188.5</ele>
        <time>2021-10-02T12:18:31Z</time>
      </trkpt>
      <trkpt lat="44.44634" lon="1.39342">
        <ele>188.4</ele>
        <time>2021-10-02T12:18:32Z</time>
      </trkpt>
      <trkpt lat="44.44638" lon="1.39338">
        <ele>188.4</ele>
        <time>2021-10-02T12:18:34Z</time>
      </trkpt>
      <trkpt lat="44.4464" lon="1.39334">
        <ele>188.7</ele>
        <time>2021-10-02T12:18:36Z</time>
      </trkpt>
      <trkpt lat="44.44641" lon="1.39331">
        <ele>189.1</ele>
        <time>2021-10-02T12:18:38Z</time>
      </trkpt>
      <trkpt lat="44.44643" lon="1.3933">
        <ele>189.1</ele>
        <time>2021-10-02T12:18:40Z</time>
      </trkpt>
      <trkpt lat="44.44645" lon="1.39329">
        <ele>189.1</ele>
        <time>2021-10-02T12:18:41Z</time>
      </trkpt>
      <trkpt lat="44.44645" lon="1.3933">
        <ele>189.1</ele>
        <time>2021-10-02T12:18:43Z</time>
      </trkpt>
      <trkpt lat="44.44645" lon="1.3933">
        <ele>189.2</ele>
        <time>2021-10-02T12:18:44Z</time>
      </trkpt>
      <trkpt lat="44.44645" lon="1.3933">
        <ele>189.2</ele>
        <time>2021-10-02T12:18:45Z</time>
      </trkpt>
      <trkpt lat="44.44645" lon="1.3933">
        <ele>189.2</ele>
        <time>2021-10-02T12:18:46Z</time>
      </trkpt>
      <trkpt lat="44.44646" lon="1.39329">
        <ele>189.2</ele>
        <time>2021-10-02T12:18:48Z</time>
      </trkpt>
      <trkpt lat="44.44646" lon="1.39329">
        <ele>189.3</ele>
        <time>2021-10-02T12:18:49Z</time>
      </trkpt>
      <trkpt lat="44.44646" lon="1.39329">
        <ele>189.3</ele>
        <time>2021-10-02T12:18:51Z</time>
      </trkpt>
      <trkpt lat="44.44649" lon="1.39337">
        <ele>189</ele>
        <time>2021-10-02T12:19:50Z</time>
      </trkpt>
      <trkpt lat="44.4465" lon="1.39343">
        <ele>188.4</ele>
        <time>2021-10-02T12:19:52Z</time>
      </trkpt>
      <trkpt lat="44.44652" lon="1.39351">
        <ele>188</ele>
        <time>2021-10-02T12:19:53Z</time>
      </trkpt>
      <trkpt lat="44.44653" lon="1.39358">
        <ele>187.9</ele>
        <time>2021-10-02T12:19:54Z</time>
      </trkpt>
      <trkpt lat="44.44655" lon="1.39362">
        <ele>188</ele>
        <time>2021-10-02T12:19:55Z</time>
      </trkpt>
      <trkpt lat="44.44657" lon="1.39367">
        <ele>188.1</ele>
        <time>2021-10-02T12:19:56Z</time>
      </trkpt>
      <trkpt lat="44.4466" lon="1.39373">
        <ele>188.5</ele>
        <time>2021-10-02T12:19:57Z</time>
      </trkpt>
      <trkpt lat="44.44662" lon="1.39379">
        <ele>188.7</ele>
        <time>2021-10-02T12:19:59Z</time>
      </trkpt>
      <trkpt lat="44.44664" lon="1.39381">
        <ele>189.1</ele>
        <time>2021-10-02T12:20:00Z</time>
      </trkpt>
      <trkpt lat="44.44666" lon="1.39384">
        <ele>189.3</ele>
        <time>2021-10-02T12:20:01Z</time>
      </trkpt>
      <trkpt lat="44.44667" lon="1.39385">
        <ele>189.7</ele>
        <time>2021-10-02T12:20:03Z</time>
      </trkpt>
      <trkpt lat="44.44668" lon="1.39386">
        <ele>189.9</ele>
        <time>2021-10-02T12:20:04Z</time>
      </trkpt>
      <trkpt lat="44.44669" lon="1.39389">
        <ele>189.9</ele>
        <time>2021-10-02T12:20:05Z</time>
      </trkpt>
      <trkpt lat="44.44671" lon="1.39391">
        <ele>190.3</ele>
        <time>2021-10-02T12:20:06Z</time>
      </trkpt>
      <trkpt lat="44.44671" lon="1.39392">
        <ele>190.6</ele>
        <time>2021-10-02T12:20:07Z</time>
      </trkpt>
      <trkpt lat="44.44672" lon="1.39392">
        <ele>190.6</ele>
        <time>2021-10-02T12:20:08Z</time>
      </trkpt>
      <trkpt lat="44.44674" lon="1.39395">
        <ele>191.2</ele>
        <time>2021-10-02T12:20:10Z</time>
      </trkpt>
      <trkpt lat="44.44675" lon="1.39396">
        <ele>191.2</ele>
        <time>2021-10-02T12:20:11Z</time>
      </trkpt>
      <trkpt lat="44.44677" lon="1.39398">
        <ele>191.6</ele>
        <time>2021-10-02T12:20:13Z</time>
      </trkpt>
      <trkpt lat="44.44678" lon="1.39399">
        <ele>191.9</ele>
        <time>2021-10-02T12:20:14Z</time>
      </trkpt>
      <trkpt lat="44.44681" lon="1.39401">
        <ele>192.2</ele>
        <time>2021-10-02T12:20:16Z</time>
      </trkpt>
      <trkpt lat="44.44682" lon="1.39402">
        <ele>192.2</ele>
        <time>2021-10-02T12:20:17Z</time>
      </trkpt>
      <trkpt lat="44.44684" lon="1.39403">
        <ele>192.9</ele>
        <time>2021-10-02T12:20:18Z</time>
      </trkpt>
      <trkpt lat="44.44685" lon="1.39405">
        <ele>192.9</ele>
        <time>2021-10-02T12:20:20Z</time>
      </trkpt>
      <trkpt lat="44.44687" lon="1.39407">
        <ele>193.5</ele>
        <time>2021-10-02T12:20:21Z</time>
      </trkpt>
      <trkpt lat="44.44688" lon="1.39409">
        <ele>193.6</ele>
        <time>2021-10-02T12:20:23Z</time>
      </trkpt>
      <trkpt lat="44.44689" lon="1.3941">
        <ele>193.6</ele>
        <time>2021-10-02T12:20:24Z</time>
      </trkpt>
      <trkpt lat="44.4469" lon="1.39411">
        <ele>194.2</ele>
        <time>2021-10-02T12:20:25Z</time>
      </trkpt>
      <trkpt lat="44.44691" lon="1.39412">
        <ele>194.3</ele>
        <time>2021-10-02T12:20:26Z</time>
      </trkpt>
      <trkpt lat="44.44692" lon="1.39413">
        <ele>194.3</ele>
        <time>2021-10-02T12:20:27Z</time>
      </trkpt>
      <trkpt lat="44.44694" lon="1.39413">
        <ele>194.5</ele>
        <time>2021-10-02T12:20:28Z</time>
      </trkpt>
      <trkpt lat="44.44695" lon="1.39412">
        <ele>194.6</ele>
        <time>2021-10-02T12:20:29Z</time>
      </trkpt>
      <trkpt lat="44.44696" lon="1.39412">
        <ele>194.8</ele>
        <time>2021-10-02T12:20:30Z</time>
      </trkpt>
      <trkpt lat="44.44696" lon="1.39412">
        <ele>194.8</ele>
        <time>2021-10-02T12:20:32Z</time>
      </trkpt>
      <trkpt lat="44.44696" lon="1.39411">
        <ele>194.8</ele>
        <time>2021-10-02T12:20:34Z</time>
      </trkpt>
      <trkpt lat="44.44696" lon="1.39411">
        <ele>194.9</ele>
        <time>2021-10-02T12:20:35Z</time>
      </trkpt>
      <trkpt lat="44.44696" lon="1.39411">
        <ele>194.9</ele>
        <time>2021-10-02T12:20:36Z</time>
      </trkpt>
      <trkpt lat="44.44696" lon="1.39411">
        <ele>194.9</ele>
        <time>2021-10-02T12:20:37Z</time>
      </trkpt>
      <trkpt lat="44.44696" lon="1.39411">
        <ele>194.9</ele>
        <time>2021-10-02T12:20:39Z</time>
      </trkpt>
      <trkpt lat="44.44702" lon="1.39398">
        <ele>193.9</ele>
        <time>2021-10-02T12:20:48Z</time>
      </trkpt>
      <trkpt lat="44.44704" lon="1.39394">
        <ele>193.7</ele>
        <time>2021-10-02T12:20:49Z</time>
      </trkpt>
      <trkpt lat="44.44707" lon="1.39391">
        <ele>193.4</ele>
        <time>2021-10-02T12:20:50Z</time>
      </trkpt>
      <trkpt lat="44.44709" lon="1.39391">
        <ele>193.5</ele>
        <time>2021-10-02T12:20:51Z</time>
      </trkpt>
      <trkpt lat="44.44712" lon="1.39389">
        <ele>193.5</ele>
        <time>2021-10-02T12:20:52Z</time>
      </trkpt>
      <trkpt lat="44.44715" lon="1.39388">
        <ele>193.1</ele>
        <time>2021-10-02T12:20:53Z</time>
      </trkpt>
      <trkpt lat="44.4472" lon="1.39385">
        <ele>193.1</ele>
        <time>2021-10-02T12:20:55Z</time>
      </trkpt>
      <trkpt lat="44.44722" lon="1.39381">
        <ele>192.5</ele>
        <time>2021-10-02T12:20:56Z</time>
      </trkpt>
      <trkpt lat="44.44725" lon="1.39377">
        <ele>191.8</ele>
        <time>2021-10-02T12:20:57Z</time>
      </trkpt>
      <trkpt lat="44.44732" lon="1.39368">
        <ele>190.2</ele>
        <time>2021-10-02T12:20:59Z</time>
      </trkpt>
      <trkpt lat="44.44742" lon="1.39362">
        <ele>189</ele>
        <time>2021-10-02T12:21:01Z</time>
      </trkpt>
      <trkpt lat="44.44746" lon="1.39363">
        <ele>189.5</ele>
        <time>2021-10-02T12:21:02Z</time>
      </trkpt>
      <trkpt lat="44.44751" lon="1.39362">
        <ele>189.1</ele>
        <time>2021-10-02T12:21:03Z</time>
      </trkpt>
      <trkpt lat="44.44756" lon="1.39359">
        <ele>189.2</ele>
        <time>2021-10-02T12:21:05Z</time>
      </trkpt>
      <trkpt lat="44.44759" lon="1.39362">
        <ele>189.3</ele>
        <time>2021-10-02T12:21:06Z</time>
      </trkpt>
      <trkpt lat="44.4476" lon="1.39362">
        <ele>189.4</ele>
        <time>2021-10-02T12:21:07Z</time>
      </trkpt>
      <trkpt lat="44.44763" lon="1.39361">
        <ele>189.5</ele>
        <time>2021-10-02T12:21:08Z</time>
      </trkpt>
      <trkpt lat="44.44767" lon="1.39359">
        <ele>189.6</ele>
        <time>2021-10-02T12:21:09Z</time>
      </trkpt>
      <trkpt lat="44.44771" lon="1.39358">
        <ele>189.1</ele>
        <time>2021-10-02T12:21:10Z</time>
      </trkpt>
      <trkpt lat="44.44775" lon="1.39357">
        <ele>189.1</ele>
        <time>2021-10-02T12:21:11Z</time>
      </trkpt>
      <trkpt lat="44.44779" lon="1.39356">
        <ele>189.1</ele>
        <time>2021-10-02T12:21:13Z</time>
      </trkpt>
      <trkpt lat="44.44783" lon="1.39354">
        <ele>188.7</ele>
        <time>2021-10-02T12:21:14Z</time>
      </trkpt>
      <trkpt lat="44.44787" lon="1.39355">
        <ele>189.1</ele>
        <time>2021-10-02T12:21:15Z</time>
      </trkpt>
      <trkpt lat="44.4479" lon="1.39354">
        <ele>188.7</ele>
        <time>2021-10-02T12:21:16Z</time>
      </trkpt>
      <trkpt lat="44.44793" lon="1.39351">
        <ele>188.7</ele>
        <time>2021-10-02T12:21:17Z</time>
      </trkpt>
      <trkpt lat="44.44798" lon="1.39353">
        <ele>188.6</ele>
        <time>2021-10-02T12:21:18Z</time>
      </trkpt>
      <trkpt lat="44.44801" lon="1.39352">
        <ele>188.6</ele>
        <time>2021-10-02T12:21:19Z</time>
      </trkpt>
      <trkpt lat="44.44805" lon="1.39353">
        <ele>188.5</ele>
        <time>2021-10-02T12:21:21Z</time>
      </trkpt>
      <trkpt lat="44.4481" lon="1.3935">
        <ele>187.9</ele>
        <time>2021-10-02T12:21:22Z</time>
      </trkpt>
      <trkpt lat="44.44814" lon="1.39348">
        <ele>187.8</ele>
        <time>2021-10-02T12:21:24Z</time>
      </trkpt>
      <trkpt lat="44.44817" lon="1.39349">
        <ele>187.7</ele>
        <time>2021-10-02T12:21:25Z</time>
      </trkpt>
      <trkpt lat="44.4482" lon="1.39353">
        <ele>187.9</ele>
        <time>2021-10-02T12:21:27Z</time>
      </trkpt>
      <trkpt lat="44.44823" lon="1.39351">
        <ele>187.8</ele>
        <time>2021-10-02T12:21:28Z</time>
      </trkpt>
      <trkpt lat="44.44826" lon="1.39349">
        <ele>187.2</ele>
        <time>2021-10-02T12:21:29Z</time>
      </trkpt>
      <trkpt lat="44.44831" lon="1.39349">
        <ele>186.7</ele>
        <time>2021-10-02T12:21:30Z</time>
      </trkpt>
      <trkpt lat="44.44837" lon="1.3935">
        <ele>186.2</ele>
        <time>2021-10-02T12:21:32Z</time>
      </trkpt>
      <trkpt lat="44.4484" lon="1.3935">
        <ele>186</ele>
        <time>2021-10-02T12:21:33Z</time>
      </trkpt>
      <trkpt lat="44.44843" lon="1.3935">
        <ele>185.8</ele>
        <time>2021-10-02T12:21:34Z</time>
      </trkpt>
      <trkpt lat="44.4485" lon="1.39353">
        <ele>185.8</ele>
        <time>2021-10-02T12:21:36Z</time>
      </trkpt>
      <trkpt lat="44.44856" lon="1.3936">
        <ele>186.4</ele>
        <time>2021-10-02T12:21:38Z</time>
      </trkpt>
      <trkpt lat="44.44859" lon="1.39363">
        <ele>186.2</ele>
        <time>2021-10-02T12:21:39Z</time>
      </trkpt>
      <trkpt lat="44.44862" lon="1.39365">
        <ele>186.4</ele>
        <time>2021-10-02T12:21:40Z</time>
      </trkpt>
      <trkpt lat="44.44865" lon="1.39365">
        <ele>186.2</ele>
        <time>2021-10-02T12:21:41Z</time>
      </trkpt>
      <trkpt lat="44.44869" lon="1.39366">
        <ele>186</ele>
        <time>2021-10-02T12:21:42Z</time>
      </trkpt>
      <trkpt lat="44.44874" lon="1.39368">
        <ele>186</ele>
        <time>2021-10-02T12:21:43Z</time>
      </trkpt>
      <trkpt lat="44.44877" lon="1.39369">
        <ele>185.8</ele>
        <time>2021-10-02T12:21:44Z</time>
      </trkpt>
      <trkpt lat="44.44882" lon="1.3937">
        <ele>185.7</ele>
        <time>2021-10-02T12:21:46Z</time>
      </trkpt>
      <trkpt lat="44.44889" lon="1.39374">
        <ele>185.5</ele>
        <time>2021-10-02T12:21:47Z</time>
      </trkpt>
      <trkpt lat="44.44892" lon="1.39375">
        <ele>185.4</ele>
        <time>2021-10-02T12:21:49Z</time>
      </trkpt>
      <trkpt lat="44.44899" lon="1.39375">
        <ele>185.2</ele>
        <time>2021-10-02T12:21:51Z</time>
      </trkpt>
      <trkpt lat="44.44905" lon="1.39372">
        <ele>185.1</ele>
        <time>2021-10-02T12:21:52Z</time>
      </trkpt>
      <trkpt lat="44.44911" lon="1.39371">
        <ele>184.5</ele>
        <time>2021-10-02T12:21:53Z</time>
      </trkpt>
      <trkpt lat="44.44915" lon="1.39369">
        <ele>184.5</ele>
        <time>2021-10-02T12:21:55Z</time>
      </trkpt>
      <trkpt lat="44.44919" lon="1.39369">
        <ele>184.4</ele>
        <time>2021-10-02T12:21:56Z</time>
      </trkpt>
      <trkpt lat="44.44924" lon="1.39366">
        <ele>184</ele>
        <time>2021-10-02T12:21:57Z</time>
      </trkpt>
      <trkpt lat="44.44928" lon="1.39367">
        <ele>184.1</ele>
        <time>2021-10-02T12:21:59Z</time>
      </trkpt>
      <trkpt lat="44.44932" lon="1.39362">
        <ele>183.9</ele>
        <time>2021-10-02T12:22:00Z</time>
      </trkpt>
      <trkpt lat="44.44938" lon="1.39361">
        <ele>184</ele>
        <time>2021-10-02T12:22:01Z</time>
      </trkpt>
      <trkpt lat="44.44942" lon="1.3936">
        <ele>184.3</ele>
        <time>2021-10-02T12:22:02Z</time>
      </trkpt>
      <trkpt lat="44.44945" lon="1.39361">
        <ele>184.4</ele>
        <time>2021-10-02T12:22:03Z</time>
      </trkpt>
      <trkpt lat="44.44948" lon="1.39361">
        <ele>184.7</ele>
        <time>2021-10-02T12:22:04Z</time>
      </trkpt>
      <trkpt lat="44.44954" lon="1.39361">
        <ele>185</ele>
        <time>2021-10-02T12:22:06Z</time>
      </trkpt>
      <trkpt lat="44.44957" lon="1.39359">
        <ele>185.1</ele>
        <time>2021-10-02T12:22:07Z</time>
      </trkpt>
      <trkpt lat="44.44959" lon="1.39359">
        <ele>185.3</ele>
        <time>2021-10-02T12:22:08Z</time>
      </trkpt>
      <trkpt lat="44.44962" lon="1.3936">
        <ele>185.3</ele>
        <time>2021-10-02T12:22:09Z</time>
      </trkpt>
      <trkpt lat="44.44966" lon="1.39359">
        <ele>185.3</ele>
        <time>2021-10-02T12:22:11Z</time>
      </trkpt>
      <trkpt lat="44.44971" lon="1.39358">
        <ele>185.6</ele>
        <time>2021-10-02T12:22:12Z</time>
      </trkpt>
      <trkpt lat="44.44976" lon="1.39352">
        <ele>185.5</ele>
        <time>2021-10-02T12:22:14Z</time>
      </trkpt>
      <trkpt lat="44.44978" lon="1.39348">
        <ele>185.4</ele>
        <time>2021-10-02T12:22:15Z</time>
      </trkpt>
      <trkpt lat="44.44983" lon="1.39343">
        <ele>185.4</ele>
        <time>2021-10-02T12:22:16Z</time>
      </trkpt>
      <trkpt lat="44.44987" lon="1.3934">
        <ele>185.4</ele>
        <time>2021-10-02T12:22:17Z</time>
      </trkpt>
      <trkpt lat="44.44994" lon="1.39338">
        <ele>185.7</ele>
        <time>2021-10-02T12:22:19Z</time>
      </trkpt>
      <trkpt lat="44.44997" lon="1.39338">
        <ele>185.9</ele>
        <time>2021-10-02T12:22:20Z</time>
      </trkpt>
      <trkpt lat="44.45" lon="1.39338">
        <ele>186.1</ele>
        <time>2021-10-02T12:22:22Z</time>
      </trkpt>
      <trkpt lat="44.44999" lon="1.39336">
        <ele>185.8</ele>
        <time>2021-10-02T12:22:23Z</time>
      </trkpt>
      <trkpt lat="44.45" lon="1.39336">
        <ele>185.8</ele>
        <time>2021-10-02T12:22:24Z</time>
      </trkpt>
      <trkpt lat="44.45001" lon="1.39336">
        <ele>185.9</ele>
        <time>2021-10-02T12:22:26Z</time>
      </trkpt>
      <trkpt lat="44.45" lon="1.39336">
        <ele>185.9</ele>
        <time>2021-10-02T12:22:27Z</time>
      </trkpt>
      <trkpt lat="44.45" lon="1.39335">
        <ele>185.9</ele>
        <time>2021-10-02T12:22:28Z</time>
      </trkpt>
      <trkpt lat="44.45" lon="1.39335">
        <ele>186</ele>
        <time>2021-10-02T12:22:29Z</time>
      </trkpt>
      <trkpt lat="44.44999" lon="1.39335">
        <ele>186</ele>
        <time>2021-10-02T12:22:31Z</time>
      </trkpt>
      <trkpt lat="44.45003" lon="1.39335">
        <ele>186.2</ele>
        <time>2021-10-02T12:22:35Z</time>
      </trkpt>
      <trkpt lat="44.45007" lon="1.39335">
        <ele>186.3</ele>
        <time>2021-10-02T12:22:36Z</time>
      </trkpt>
      <trkpt lat="44.4501" lon="1.39336">
        <ele>186.5</ele>
        <time>2021-10-02T12:22:37Z</time>
      </trkpt>
      <trkpt lat="44.45012" lon="1.39336">
        <ele>186.7</ele>
        <time>2021-10-02T12:22:38Z</time>
      </trkpt>
      <trkpt lat="44.45012" lon="1.39336">
        <ele>186.8</ele>
        <time>2021-10-02T12:22:40Z</time>
      </trkpt>
      <trkpt lat="44.45013" lon="1.39336">
        <ele>186.7</ele>
        <time>2021-10-02T12:22:41Z</time>
      </trkpt>
      <trkpt lat="44.45014" lon="1.39335">
        <ele>186.7</ele>
        <time>2021-10-02T12:22:42Z</time>
      </trkpt>
      <trkpt lat="44.45014" lon="1.39335">
        <ele>186.7</ele>
        <time>2021-10-02T12:22:43Z</time>
      </trkpt>
      <trkpt lat="44.45014" lon="1.39335">
        <ele>186.6</ele>
        <time>2021-10-02T12:22:44Z</time>
      </trkpt>
      <trkpt lat="44.45012" lon="1.3933">
        <ele>186.5</ele>
        <time>2021-10-02T12:22:46Z</time>
      </trkpt>
      <trkpt lat="44.4501" lon="1.39327">
        <ele>186.4</ele>
        <time>2021-10-02T12:22:47Z</time>
      </trkpt>
      <trkpt lat="44.45008" lon="1.39326">
        <ele>186.3</ele>
        <time>2021-10-02T12:22:48Z</time>
      </trkpt>
      <trkpt lat="44.45006" lon="1.39324">
        <ele>186.2</ele>
        <time>2021-10-02T12:22:49Z</time>
      </trkpt>
      <trkpt lat="44.45003" lon="1.39321">
        <ele>186.2</ele>
        <time>2021-10-02T12:22:50Z</time>
      </trkpt>
      <trkpt lat="44.45001" lon="1.39319">
        <ele>186.1</ele>
        <time>2021-10-02T12:22:51Z</time>
      </trkpt>
      <trkpt lat="44.44998" lon="1.39316">
        <ele>186.1</ele>
        <time>2021-10-02T12:22:53Z</time>
      </trkpt>
      <trkpt lat="44.44994" lon="1.39308">
        <ele>186</ele>
        <time>2021-10-02T12:22:54Z</time>
      </trkpt>
      <trkpt lat="44.44992" lon="1.39304">
        <ele>186</ele>
        <time>2021-10-02T12:22:55Z</time>
      </trkpt>
      <trkpt lat="44.44989" lon="1.39299">
        <ele>186</ele>
        <time>2021-10-02T12:22:57Z</time>
      </trkpt>
      <trkpt lat="44.44987" lon="1.39293">
        <ele>186</ele>
        <time>2021-10-02T12:22:58Z</time>
      </trkpt>
      <trkpt lat="44.44985" lon="1.39287">
        <ele>186</ele>
        <time>2021-10-02T12:22:59Z</time>
      </trkpt>
      <trkpt lat="44.44984" lon="1.39282">
        <ele>186.1</ele>
        <time>2021-10-02T12:23:00Z</time>
      </trkpt>
      <trkpt lat="44.44982" lon="1.39276">
        <ele>186.1</ele>
        <time>2021-10-02T12:23:02Z</time>
      </trkpt>
      <trkpt lat="44.44979" lon="1.39269">
        <ele>186.1</ele>
        <time>2021-10-02T12:23:04Z</time>
      </trkpt>
      <trkpt lat="44.44976" lon="1.39267">
        <ele>186.1</ele>
        <time>2021-10-02T12:23:05Z</time>
      </trkpt>
      <trkpt lat="44.44976" lon="1.39262">
        <ele>186.1</ele>
        <time>2021-10-02T12:23:06Z</time>
      </trkpt>
      <trkpt lat="44.44976" lon="1.3926">
        <ele>186</ele>
        <time>2021-10-02T12:23:07Z</time>
      </trkpt>
      <trkpt lat="44.44977" lon="1.39258">
        <ele>185.9</ele>
        <time>2021-10-02T12:23:09Z</time>
      </trkpt>
      <trkpt lat="44.44977" lon="1.39256">
        <ele>185.8</ele>
        <time>2021-10-02T12:23:10Z</time>
      </trkpt>
      <trkpt lat="44.44977" lon="1.39255">
        <ele>185.7</ele>
        <time>2021-10-02T12:23:11Z</time>
      </trkpt>
      <trkpt lat="44.44977" lon="1.39252">
        <ele>185.6</ele>
        <time>2021-10-02T12:23:12Z</time>
      </trkpt>
      <trkpt lat="44.44979" lon="1.39247">
        <ele>185.4</ele>
        <time>2021-10-02T12:23:13Z</time>
      </trkpt>
      <trkpt lat="44.4498" lon="1.39242">
        <ele>185.2</ele>
        <time>2021-10-02T12:23:14Z</time>
      </trkpt>
      <trkpt lat="44.44982" lon="1.39237">
        <ele>184.9</ele>
        <time>2021-10-02T12:23:16Z</time>
      </trkpt>
      <trkpt lat="44.44983" lon="1.39232">
        <ele>184.7</ele>
        <time>2021-10-02T12:23:17Z</time>
      </trkpt>
      <trkpt lat="44.44985" lon="1.39225">
        <ele>184.4</ele>
        <time>2021-10-02T12:23:18Z</time>
      </trkpt>
      <trkpt lat="44.44987" lon="1.39219">
        <ele>184.2</ele>
        <time>2021-10-02T12:23:19Z</time>
      </trkpt>
      <trkpt lat="44.44988" lon="1.39207">
        <ele>183.7</ele>
        <time>2021-10-02T12:23:21Z</time>
      </trkpt>
      <trkpt lat="44.4499" lon="1.39189">
        <ele>183.3</ele>
        <time>2021-10-02T12:23:23Z</time>
      </trkpt>
      <trkpt lat="44.44992" lon="1.39181">
        <ele>183.1</ele>
        <time>2021-10-02T12:23:24Z</time>
      </trkpt>
      <trkpt lat="44.44992" lon="1.39173">
        <ele>183</ele>
        <time>2021-10-02T12:23:25Z</time>
      </trkpt>
      <trkpt lat="44.44996" lon="1.39159">
        <ele>182.7</ele>
        <time>2021-10-02T12:23:27Z</time>
      </trkpt>
      <trkpt lat="44.45" lon="1.39154">
        <ele>182.6</ele>
        <time>2021-10-02T12:23:28Z</time>
      </trkpt>
      <trkpt lat="44.45007" lon="1.3915">
        <ele>182.5</ele>
        <time>2021-10-02T12:23:30Z</time>
      </trkpt>
      <trkpt lat="44.45019" lon="1.39148">
        <ele>182.3</ele>
        <time>2021-10-02T12:23:32Z</time>
      </trkpt>
      <trkpt lat="44.45027" lon="1.39138">
        <ele>182.1</ele>
        <time>2021-10-02T12:23:34Z</time>
      </trkpt>
      <trkpt lat="44.4503" lon="1.39123">
        <ele>181.9</ele>
        <time>2021-10-02T12:23:36Z</time>
      </trkpt>
      <trkpt lat="44.45032" lon="1.39114">
        <ele>181.8</ele>
        <time>2021-10-02T12:23:37Z</time>
      </trkpt>
      <trkpt lat="44.45034" lon="1.39106">
        <ele>181.6</ele>
        <time>2021-10-02T12:23:38Z</time>
      </trkpt>
      <trkpt lat="44.45037" lon="1.39091">
        <ele>181.3</ele>
        <time>2021-10-02T12:23:40Z</time>
      </trkpt>
      <trkpt lat="44.45042" lon="1.39076">
        <ele>181</ele>
        <time>2021-10-02T12:23:42Z</time>
      </trkpt>
      <trkpt lat="44.45048" lon="1.3906">
        <ele>180.6</ele>
        <time>2021-10-02T12:23:44Z</time>
      </trkpt>
      <trkpt lat="44.45051" lon="1.39051">
        <ele>180.3</ele>
        <time>2021-10-02T12:23:45Z</time>
      </trkpt>
      <trkpt lat="44.45057" lon="1.39034">
        <ele>180</ele>
        <time>2021-10-02T12:23:47Z</time>
      </trkpt>
      <trkpt lat="44.45063" lon="1.39018">
        <ele>179.7</ele>
        <time>2021-10-02T12:23:49Z</time>
      </trkpt>
      <trkpt lat="44.45066" lon="1.3901">
        <ele>179.7</ele>
        <time>2021-10-02T12:23:50Z</time>
      </trkpt>
      <trkpt lat="44.45069" lon="1.39002">
        <ele>179.6</ele>
        <time>2021-10-02T12:23:51Z</time>
      </trkpt>
      <trkpt lat="44.45072" lon="1.38994">
        <ele>179.5</ele>
        <time>2021-10-02T12:23:52Z</time>
      </trkpt>
      <trkpt lat="44.45077" lon="1.3898">
        <ele>179.5</ele>
        <time>2021-10-02T12:23:54Z</time>
      </trkpt>
      <trkpt lat="44.4508" lon="1.38973">
        <ele>179.5</ele>
        <time>2021-10-02T12:23:55Z</time>
      </trkpt>
      <trkpt lat="44.45082" lon="1.38965">
        <ele>179.5</ele>
        <time>2021-10-02T12:23:56Z</time>
      </trkpt>
      <trkpt lat="44.45085" lon="1.38958">
        <ele>179.5</ele>
        <time>2021-10-02T12:23:57Z</time>
      </trkpt>
      <trkpt lat="44.4509" lon="1.38945">
        <ele>179.4</ele>
        <time>2021-10-02T12:23:59Z</time>
      </trkpt>
      <trkpt lat="44.45095" lon="1.38931">
        <ele>179.3</ele>
        <time>2021-10-02T12:24:01Z</time>
      </trkpt>
      <trkpt lat="44.45097" lon="1.38925">
        <ele>179.3</ele>
        <time>2021-10-02T12:24:02Z</time>
      </trkpt>
      <trkpt lat="44.45101" lon="1.38911">
        <ele>179.1</ele>
        <time>2021-10-02T12:24:04Z</time>
      </trkpt>
      <trkpt lat="44.45103" lon="1.38897">
        <ele>178.8</ele>
        <time>2021-10-02T12:24:06Z</time>
      </trkpt>
      <trkpt lat="44.45103" lon="1.38889">
        <ele>178.7</ele>
        <time>2021-10-02T12:24:07Z</time>
      </trkpt>
      <trkpt lat="44.45103" lon="1.38881">
        <ele>178.5</ele>
        <time>2021-10-02T12:24:08Z</time>
      </trkpt>
      <trkpt lat="44.45103" lon="1.38864">
        <ele>178.1</ele>
        <time>2021-10-02T12:24:10Z</time>
      </trkpt>
      <trkpt lat="44.45106" lon="1.38847">
        <ele>177.9</ele>
        <time>2021-10-02T12:24:12Z</time>
      </trkpt>
      <trkpt lat="44.45109" lon="1.38831">
        <ele>177.7</ele>
        <time>2021-10-02T12:24:14Z</time>
      </trkpt>
      <trkpt lat="44.45113" lon="1.38814">
        <ele>177.5</ele>
        <time>2021-10-02T12:24:16Z</time>
      </trkpt>
      <trkpt lat="44.45115" lon="1.38806">
        <ele>177.5</ele>
        <time>2021-10-02T12:24:17Z</time>
      </trkpt>
      <trkpt lat="44.45119" lon="1.38789">
        <ele>177.4</ele>
        <time>2021-10-02T12:24:19Z</time>
      </trkpt>
      <trkpt lat="44.45122" lon="1.3878">
        <ele>177.3</ele>
        <time>2021-10-02T12:24:20Z</time>
      </trkpt>
      <trkpt lat="44.45127" lon="1.38763">
        <ele>177.3</ele>
        <time>2021-10-02T12:24:22Z</time>
      </trkpt>
      <trkpt lat="44.45129" lon="1.38754">
        <ele>177.3</ele>
        <time>2021-10-02T12:24:23Z</time>
      </trkpt>
      <trkpt lat="44.45135" lon="1.3874">
        <ele>177.3</ele>
        <time>2021-10-02T12:24:25Z</time>
      </trkpt>
      <trkpt lat="44.45141" lon="1.38726">
        <ele>177.2</ele>
        <time>2021-10-02T12:24:27Z</time>
      </trkpt>
      <trkpt lat="44.45148" lon="1.38714">
        <ele>177.2</ele>
        <time>2021-10-02T12:24:29Z</time>
      </trkpt>
      <trkpt lat="44.45152" lon="1.38709">
        <ele>177.2</ele>
        <time>2021-10-02T12:24:30Z</time>
      </trkpt>
      <trkpt lat="44.45161" lon="1.38698">
        <ele>177.1</ele>
        <time>2021-10-02T12:24:32Z</time>
      </trkpt>
      <trkpt lat="44.4517" lon="1.38687">
        <ele>177</ele>
        <time>2021-10-02T12:24:34Z</time>
      </trkpt>
      <trkpt lat="44.45174" lon="1.38681">
        <ele>176.9</ele>
        <time>2021-10-02T12:24:35Z</time>
      </trkpt>
      <trkpt lat="44.45179" lon="1.38676">
        <ele>176.9</ele>
        <time>2021-10-02T12:24:36Z</time>
      </trkpt>
      <trkpt lat="44.45188" lon="1.38667">
        <ele>176.8</ele>
        <time>2021-10-02T12:24:38Z</time>
      </trkpt>
      <trkpt lat="44.45197" lon="1.3866">
        <ele>176.7</ele>
        <time>2021-10-02T12:24:40Z</time>
      </trkpt>
      <trkpt lat="44.45206" lon="1.38653">
        <ele>176.6</ele>
        <time>2021-10-02T12:24:42Z</time>
      </trkpt>
      <trkpt lat="44.45211" lon="1.3865">
        <ele>176.6</ele>
        <time>2021-10-02T12:24:43Z</time>
      </trkpt>
      <trkpt lat="44.45216" lon="1.38647">
        <ele>176.5</ele>
        <time>2021-10-02T12:24:44Z</time>
      </trkpt>
      <trkpt lat="44.45227" lon="1.38642">
        <ele>176.3</ele>
        <time>2021-10-02T12:24:46Z</time>
      </trkpt>
      <trkpt lat="44.45238" lon="1.38635">
        <ele>176.2</ele>
        <time>2021-10-02T12:24:48Z</time>
      </trkpt>
      <trkpt lat="44.45249" lon="1.38629">
        <ele>175.9</ele>
        <time>2021-10-02T12:24:50Z</time>
      </trkpt>
      <trkpt lat="44.45261" lon="1.38623">
        <ele>175.6</ele>
        <time>2021-10-02T12:24:52Z</time>
      </trkpt>
      <trkpt lat="44.45286" lon="1.38611">
        <ele>174.9</ele>
        <time>2021-10-02T12:24:56Z</time>
      </trkpt>
      <trkpt lat="44.45298" lon="1.38607">
        <ele>174.7</ele>
        <time>2021-10-02T12:24:58Z</time>
      </trkpt>
      <trkpt lat="44.4531" lon="1.38603">
        <ele>174.5</ele>
        <time>2021-10-02T12:25:00Z</time>
      </trkpt>
      <trkpt lat="44.45316" lon="1.38601">
        <ele>174.4</ele>
        <time>2021-10-02T12:25:01Z</time>
      </trkpt>
      <trkpt lat="44.45321" lon="1.386">
        <ele>174.3</ele>
        <time>2021-10-02T12:25:02Z</time>
      </trkpt>
      <trkpt lat="44.45333" lon="1.38598">
        <ele>174.2</ele>
        <time>2021-10-02T12:25:04Z</time>
      </trkpt>
      <trkpt lat="44.45344" lon="1.38597">
        <ele>174.2</ele>
        <time>2021-10-02T12:25:06Z</time>
      </trkpt>
      <trkpt lat="44.45355" lon="1.38597">
        <ele>174.1</ele>
        <time>2021-10-02T12:25:08Z</time>
      </trkpt>
      <trkpt lat="44.45365" lon="1.38599">
        <ele>174</ele>
        <time>2021-10-02T12:25:10Z</time>
      </trkpt>
      <trkpt lat="44.4537" lon="1.386">
        <ele>174</ele>
        <time>2021-10-02T12:25:11Z</time>
      </trkpt>
      <trkpt lat="44.45375" lon="1.38601">
        <ele>173.9</ele>
        <time>2021-10-02T12:25:12Z</time>
      </trkpt>
      <trkpt lat="44.45386" lon="1.38602">
        <ele>173.8</ele>
        <time>2021-10-02T12:25:14Z</time>
      </trkpt>
      <trkpt lat="44.45398" lon="1.38605">
        <ele>173.4</ele>
        <time>2021-10-02T12:25:16Z</time>
      </trkpt>
      <trkpt lat="44.45409" lon="1.38609">
        <ele>173.1</ele>
        <time>2021-10-02T12:25:18Z</time>
      </trkpt>
      <trkpt lat="44.45415" lon="1.38611">
        <ele>172.9</ele>
        <time>2021-10-02T12:25:19Z</time>
      </trkpt>
      <trkpt lat="44.45428" lon="1.38616">
        <ele>172.4</ele>
        <time>2021-10-02T12:25:21Z</time>
      </trkpt>
      <trkpt lat="44.45434" lon="1.38619">
        <ele>172.1</ele>
        <time>2021-10-02T12:25:22Z</time>
      </trkpt>
      <trkpt lat="44.4544" lon="1.38622">
        <ele>171.8</ele>
        <time>2021-10-02T12:25:23Z</time>
      </trkpt>
      <trkpt lat="44.45446" lon="1.38625">
        <ele>171.5</ele>
        <time>2021-10-02T12:25:24Z</time>
      </trkpt>
      <trkpt lat="44.45457" lon="1.38632">
        <ele>170.9</ele>
        <time>2021-10-02T12:25:26Z</time>
      </trkpt>
      <trkpt lat="44.45464" lon="1.38635">
        <ele>170.6</ele>
        <time>2021-10-02T12:25:27Z</time>
      </trkpt>
      <trkpt lat="44.45469" lon="1.38634">
        <ele>170.3</ele>
        <time>2021-10-02T12:25:28Z</time>
      </trkpt>
      <trkpt lat="44.45476" lon="1.38618">
        <ele>169.6</ele>
        <time>2021-10-02T12:25:30Z</time>
      </trkpt>
      <trkpt lat="44.45478" lon="1.38601">
        <ele>169.5</ele>
        <time>2021-10-02T12:25:32Z</time>
      </trkpt>
      <trkpt lat="44.45482" lon="1.38591">
        <ele>169.6</ele>
        <time>2021-10-02T12:25:34Z</time>
      </trkpt>
      <trkpt lat="44.45485" lon="1.38584">
        <ele>169.8</ele>
        <time>2021-10-02T12:25:36Z</time>
      </trkpt>
      <trkpt lat="44.45487" lon="1.38581">
        <ele>169.9</ele>
        <time>2021-10-02T12:25:37Z</time>
      </trkpt>
      <trkpt lat="44.45491" lon="1.38577">
        <ele>170.1</ele>
        <time>2021-10-02T12:25:39Z</time>
      </trkpt>
      <trkpt lat="44.45494" lon="1.38575">
        <ele>170.3</ele>
        <time>2021-10-02T12:25:40Z</time>
      </trkpt>
      <trkpt lat="44.45497" lon="1.38571">
        <ele>170.5</ele>
        <time>2021-10-02T12:25:41Z</time>
      </trkpt>
      <trkpt lat="44.455" lon="1.38571">
        <ele>170.6</ele>
        <time>2021-10-02T12:25:43Z</time>
      </trkpt>
      <trkpt lat="44.45502" lon="1.38571">
        <ele>170.7</ele>
        <time>2021-10-02T12:25:44Z</time>
      </trkpt>
      <trkpt lat="44.45503" lon="1.38573">
        <ele>170.7</ele>
        <time>2021-10-02T12:25:45Z</time>
      </trkpt>
      <trkpt lat="44.45505" lon="1.38576">
        <ele>170.8</ele>
        <time>2021-10-02T12:25:47Z</time>
      </trkpt>
      <trkpt lat="44.45509" lon="1.38578">
        <ele>170.8</ele>
        <time>2021-10-02T12:25:48Z</time>
      </trkpt>
      <trkpt lat="44.45513" lon="1.38581">
        <ele>170.8</ele>
        <time>2021-10-02T12:25:50Z</time>
      </trkpt>
      <trkpt lat="44.45516" lon="1.38583">
        <ele>170.8</ele>
        <time>2021-10-02T12:25:51Z</time>
      </trkpt>
      <trkpt lat="44.45519" lon="1.38585">
        <ele>170.8</ele>
        <time>2021-10-02T12:25:52Z</time>
      </trkpt>
      <trkpt lat="44.45524" lon="1.38589">
        <ele>170.8</ele>
        <time>2021-10-02T12:25:53Z</time>
      </trkpt>
      <trkpt lat="44.45528" lon="1.38592">
        <ele>170.7</ele>
        <time>2021-10-02T12:25:54Z</time>
      </trkpt>
      <trkpt lat="44.45532" lon="1.38595">
        <ele>170.7</ele>
        <time>2021-10-02T12:25:55Z</time>
      </trkpt>
      <trkpt lat="44.45537" lon="1.38599">
        <ele>170.6</ele>
        <time>2021-10-02T12:25:57Z</time>
      </trkpt>
      <trkpt lat="44.45542" lon="1.38602">
        <ele>170.6</ele>
        <time>2021-10-02T12:25:58Z</time>
      </trkpt>
      <trkpt lat="44.45547" lon="1.38604">
        <ele>170.5</ele>
        <time>2021-10-02T12:25:59Z</time>
      </trkpt>
      <trkpt lat="44.45553" lon="1.38608">
        <ele>170.5</ele>
        <time>2021-10-02T12:26:01Z</time>
      </trkpt>
      <trkpt lat="44.4556" lon="1.38611">
        <ele>170.4</ele>
        <time>2021-10-02T12:26:02Z</time>
      </trkpt>
      <trkpt lat="44.45564" lon="1.38614">
        <ele>170.4</ele>
        <time>2021-10-02T12:26:03Z</time>
      </trkpt>
      <trkpt lat="44.45575" lon="1.3862">
        <ele>170.2</ele>
        <time>2021-10-02T12:26:05Z</time>
      </trkpt>
      <trkpt lat="44.45581" lon="1.38623">
        <ele>170</ele>
        <time>2021-10-02T12:26:06Z</time>
      </trkpt>
      <trkpt lat="44.45587" lon="1.38627">
        <ele>169.8</ele>
        <time>2021-10-02T12:26:07Z</time>
      </trkpt>
      <trkpt lat="44.45598" lon="1.38633">
        <ele>169.5</ele>
        <time>2021-10-02T12:26:09Z</time>
      </trkpt>
      <trkpt lat="44.45611" lon="1.38638">
        <ele>169.3</ele>
        <time>2021-10-02T12:26:11Z</time>
      </trkpt>
      <trkpt lat="44.45623" lon="1.38645">
        <ele>169</ele>
        <time>2021-10-02T12:26:13Z</time>
      </trkpt>
      <trkpt lat="44.45635" lon="1.38651">
        <ele>168.7</ele>
        <time>2021-10-02T12:26:15Z</time>
      </trkpt>
      <trkpt lat="44.45641" lon="1.38654">
        <ele>168.6</ele>
        <time>2021-10-02T12:26:16Z</time>
      </trkpt>
      <trkpt lat="44.45652" lon="1.3866">
        <ele>168.3</ele>
        <time>2021-10-02T12:26:18Z</time>
      </trkpt>
      <trkpt lat="44.45662" lon="1.38667">
        <ele>167.9</ele>
        <time>2021-10-02T12:26:20Z</time>
      </trkpt>
      <trkpt lat="44.45672" lon="1.38676">
        <ele>167.5</ele>
        <time>2021-10-02T12:26:22Z</time>
      </trkpt>
      <trkpt lat="44.45677" lon="1.3868">
        <ele>167.3</ele>
        <time>2021-10-02T12:26:23Z</time>
      </trkpt>
      <trkpt lat="44.45688" lon="1.38689">
        <ele>166.8</ele>
        <time>2021-10-02T12:26:25Z</time>
      </trkpt>
      <trkpt lat="44.45698" lon="1.38697">
        <ele>166.5</ele>
        <time>2021-10-02T12:26:27Z</time>
      </trkpt>
      <trkpt lat="44.45709" lon="1.38701">
        <ele>166.3</ele>
        <time>2021-10-02T12:26:29Z</time>
      </trkpt>
      <trkpt lat="44.45719" lon="1.38702">
        <ele>166.2</ele>
        <time>2021-10-02T12:26:31Z</time>
      </trkpt>
      <trkpt lat="44.45731" lon="1.38704">
        <ele>166</ele>
        <time>2021-10-02T12:26:33Z</time>
      </trkpt>
      <trkpt lat="44.45737" lon="1.38704">
        <ele>166</ele>
        <time>2021-10-02T12:26:34Z</time>
      </trkpt>
      <trkpt lat="44.45748" lon="1.38705">
        <ele>165.9</ele>
        <time>2021-10-02T12:26:36Z</time>
      </trkpt>
      <trkpt lat="44.45754" lon="1.38705">
        <ele>165.9</ele>
        <time>2021-10-02T12:26:37Z</time>
      </trkpt>
      <trkpt lat="44.45762" lon="1.38705">
        <ele>165.8</ele>
        <time>2021-10-02T12:26:39Z</time>
      </trkpt>
      <trkpt lat="44.45765" lon="1.38705">
        <ele>165.8</ele>
        <time>2021-10-02T12:26:40Z</time>
      </trkpt>
      <trkpt lat="44.45777" lon="1.38706">
        <ele>165.5</ele>
        <time>2021-10-02T12:26:42Z</time>
      </trkpt>
      <trkpt lat="44.45787" lon="1.38707">
        <ele>165.1</ele>
        <time>2021-10-02T12:26:44Z</time>
      </trkpt>
      <trkpt lat="44.4579" lon="1.38709">
        <ele>165</ele>
        <time>2021-10-02T12:26:45Z</time>
      </trkpt>
      <trkpt lat="44.45796" lon="1.38714">
        <ele>164.7</ele>
        <time>2021-10-02T12:26:46Z</time>
      </trkpt>
      <trkpt lat="44.45798" lon="1.3872">
        <ele>164.9</ele>
        <time>2021-10-02T12:26:48Z</time>
      </trkpt>
      <trkpt lat="44.45794" lon="1.38735">
        <ele>165.4</ele>
        <time>2021-10-02T12:26:50Z</time>
      </trkpt>
      <trkpt lat="44.45791" lon="1.38743">
        <ele>165.8</ele>
        <time>2021-10-02T12:26:51Z</time>
      </trkpt>
      <trkpt lat="44.45789" lon="1.38751">
        <ele>166.3</ele>
        <time>2021-10-02T12:26:52Z</time>
      </trkpt>
      <trkpt lat="44.45787" lon="1.38759">
        <ele>166.8</ele>
        <time>2021-10-02T12:26:53Z</time>
      </trkpt>
      <trkpt lat="44.45786" lon="1.38766">
        <ele>167.4</ele>
        <time>2021-10-02T12:26:54Z</time>
      </trkpt>
      <trkpt lat="44.45783" lon="1.38771">
        <ele>167.8</ele>
        <time>2021-10-02T12:26:55Z</time>
      </trkpt>
      <trkpt lat="44.45783" lon="1.38774">
        <ele>168.1</ele>
        <time>2021-10-02T12:26:56Z</time>
      </trkpt>
      <trkpt lat="44.45782" lon="1.38779">
        <ele>168.4</ele>
        <time>2021-10-02T12:26:58Z</time>
      </trkpt>
      <trkpt lat="44.45782" lon="1.3878">
        <ele>168.3</ele>
        <time>2021-10-02T12:26:59Z</time>
      </trkpt>
      <trkpt lat="44.45782" lon="1.38782">
        <ele>168.3</ele>
        <time>2021-10-02T12:27:01Z</time>
      </trkpt>
      <trkpt lat="44.45782" lon="1.38783">
        <ele>168.3</ele>
        <time>2021-10-02T12:27:03Z</time>
      </trkpt>
      <trkpt lat="44.45782" lon="1.38784">
        <ele>168.3</ele>
        <time>2021-10-02T12:27:05Z</time>
      </trkpt>
      <trkpt lat="44.45782" lon="1.38784">
        <ele>168.3</ele>
        <time>2021-10-02T12:27:06Z</time>
      </trkpt>
      <trkpt lat="44.45782" lon="1.38785">
        <ele>168.3</ele>
        <time>2021-10-02T12:27:07Z</time>
      </trkpt>
      <trkpt lat="44.45782" lon="1.38788">
        <ele>168.3</ele>
        <time>2021-10-02T12:27:08Z</time>
      </trkpt>
      <trkpt lat="44.45782" lon="1.38792">
        <ele>168.5</ele>
        <time>2021-10-02T12:27:10Z</time>
      </trkpt>
      <trkpt lat="44.45783" lon="1.38797">
        <ele>168.8</ele>
        <time>2021-10-02T12:27:11Z</time>
      </trkpt>
      <trkpt lat="44.45783" lon="1.38798">
        <ele>169.2</ele>
        <time>2021-10-02T12:27:12Z</time>
      </trkpt>
      <trkpt lat="44.45783" lon="1.38803">
        <ele>169.7</ele>
        <time>2021-10-02T12:27:13Z</time>
      </trkpt>
      <trkpt lat="44.45783" lon="1.38804">
        <ele>169.6</ele>
        <time>2021-10-02T12:27:14Z</time>
      </trkpt>
      <trkpt lat="44.45785" lon="1.38807">
        <ele>170.1</ele>
        <time>2021-10-02T12:27:15Z</time>
      </trkpt>
      <trkpt lat="44.45787" lon="1.38807">
        <ele>169.9</ele>
        <time>2021-10-02T12:27:16Z</time>
      </trkpt>
      <trkpt lat="44.45788" lon="1.38808">
        <ele>169.9</ele>
        <time>2021-10-02T12:27:18Z</time>
      </trkpt>
      <trkpt lat="44.4579" lon="1.38809">
        <ele>169.8</ele>
        <time>2021-10-02T12:27:19Z</time>
      </trkpt>
      <trkpt lat="44.45793" lon="1.38812">
        <ele>170.1</ele>
        <time>2021-10-02T12:27:20Z</time>
      </trkpt>
      <trkpt lat="44.45794" lon="1.38813">
        <ele>170.1</ele>
        <time>2021-10-02T12:27:21Z</time>
      </trkpt>
      <trkpt lat="44.45797" lon="1.38815">
        <ele>170.4</ele>
        <time>2021-10-02T12:27:22Z</time>
      </trkpt>
      <trkpt lat="44.45799" lon="1.38818">
        <ele>170.2</ele>
        <time>2021-10-02T12:27:23Z</time>
      </trkpt>
      <trkpt lat="44.45801" lon="1.38821">
        <ele>170.5</ele>
        <time>2021-10-02T12:27:24Z</time>
      </trkpt>
      <trkpt lat="44.45804" lon="1.38823">
        <ele>170.6</ele>
        <time>2021-10-02T12:27:26Z</time>
      </trkpt>
      <trkpt lat="44.45806" lon="1.38825">
        <ele>170.4</ele>
        <time>2021-10-02T12:27:27Z</time>
      </trkpt>
      <trkpt lat="44.45809" lon="1.38827">
        <ele>170.2</ele>
        <time>2021-10-02T12:27:28Z</time>
      </trkpt>
      <trkpt lat="44.45813" lon="1.3883">
        <ele>170.3</ele>
        <time>2021-10-02T12:27:30Z</time>
      </trkpt>
      <trkpt lat="44.45818" lon="1.38835">
        <ele>170.2</ele>
        <time>2021-10-02T12:27:32Z</time>
      </trkpt>
      <trkpt lat="44.45821" lon="1.38838">
        <ele>170.2</ele>
        <time>2021-10-02T12:27:33Z</time>
      </trkpt>
      <trkpt lat="44.45824" lon="1.38842">
        <ele>170.3</ele>
        <time>2021-10-02T12:27:34Z</time>
      </trkpt>
      <trkpt lat="44.45827" lon="1.38846">
        <ele>170.3</ele>
        <time>2021-10-02T12:27:36Z</time>
      </trkpt>
      <trkpt lat="44.45831" lon="1.3885">
        <ele>170.4</ele>
        <time>2021-10-02T12:27:37Z</time>
      </trkpt>
      <trkpt lat="44.45835" lon="1.38854">
        <ele>170.4</ele>
        <time>2021-10-02T12:27:39Z</time>
      </trkpt>
      <trkpt lat="44.45838" lon="1.38856">
        <ele>170.3</ele>
        <time>2021-10-02T12:27:40Z</time>
      </trkpt>
      <trkpt lat="44.4584" lon="1.3886">
        <ele>170.3</ele>
        <time>2021-10-02T12:27:41Z</time>
      </trkpt>
      <trkpt lat="44.45843" lon="1.38863">
        <ele>170.2</ele>
        <time>2021-10-02T12:27:42Z</time>
      </trkpt>
      <trkpt lat="44.45846" lon="1.38869">
        <ele>170.2</ele>
        <time>2021-10-02T12:27:44Z</time>
      </trkpt>
      <trkpt lat="44.45849" lon="1.38871">
        <ele>170.2</ele>
        <time>2021-10-02T12:27:45Z</time>
      </trkpt>
      <trkpt lat="44.45853" lon="1.38875">
        <ele>170.2</ele>
        <time>2021-10-02T12:27:46Z</time>
      </trkpt>
      <trkpt lat="44.45857" lon="1.3888">
        <ele>170</ele>
        <time>2021-10-02T12:27:48Z</time>
      </trkpt>
      <trkpt lat="44.45862" lon="1.38887">
        <ele>170</ele>
        <time>2021-10-02T12:27:49Z</time>
      </trkpt>
      <trkpt lat="44.45865" lon="1.38892">
        <ele>170.3</ele>
        <time>2021-10-02T12:27:50Z</time>
      </trkpt>
      <trkpt lat="44.45868" lon="1.38898">
        <ele>170.4</ele>
        <time>2021-10-02T12:27:52Z</time>
      </trkpt>
      <trkpt lat="44.45871" lon="1.38902">
        <ele>170.5</ele>
        <time>2021-10-02T12:27:53Z</time>
      </trkpt>
      <trkpt lat="44.45873" lon="1.38904">
        <ele>170.2</ele>
        <time>2021-10-02T12:27:54Z</time>
      </trkpt>
      <trkpt lat="44.45877" lon="1.38906">
        <ele>170.4</ele>
        <time>2021-10-02T12:27:55Z</time>
      </trkpt>
      <trkpt lat="44.45882" lon="1.38908">
        <ele>170</ele>
        <time>2021-10-02T12:27:57Z</time>
      </trkpt>
      <trkpt lat="44.45886" lon="1.38912">
        <ele>170.1</ele>
        <time>2021-10-02T12:27:58Z</time>
      </trkpt>
      <trkpt lat="44.45889" lon="1.38915">
        <ele>170.3</ele>
        <time>2021-10-02T12:27:59Z</time>
      </trkpt>
      <trkpt lat="44.45894" lon="1.38919">
        <ele>170.2</ele>
        <time>2021-10-02T12:28:01Z</time>
      </trkpt>
      <trkpt lat="44.45898" lon="1.3892">
        <ele>170</ele>
        <time>2021-10-02T12:28:02Z</time>
      </trkpt>
      <trkpt lat="44.45904" lon="1.38922">
        <ele>169.9</ele>
        <time>2021-10-02T12:28:04Z</time>
      </trkpt>
      <trkpt lat="44.45908" lon="1.38925">
        <ele>169.7</ele>
        <time>2021-10-02T12:28:05Z</time>
      </trkpt>
      <trkpt lat="44.45914" lon="1.38928">
        <ele>169.6</ele>
        <time>2021-10-02T12:28:07Z</time>
      </trkpt>
      <trkpt lat="44.45921" lon="1.38931">
        <ele>169.6</ele>
        <time>2021-10-02T12:28:08Z</time>
      </trkpt>
      <trkpt lat="44.45925" lon="1.38933">
        <ele>169.3</ele>
        <time>2021-10-02T12:28:09Z</time>
      </trkpt>
      <trkpt lat="44.4593" lon="1.38935">
        <ele>169.7</ele>
        <time>2021-10-02T12:28:11Z</time>
      </trkpt>
      <trkpt lat="44.45936" lon="1.38936">
        <ele>169.7</ele>
        <time>2021-10-02T12:28:12Z</time>
      </trkpt>
      <trkpt lat="44.45942" lon="1.38936">
        <ele>169.7</ele>
        <time>2021-10-02T12:28:13Z</time>
      </trkpt>
      <trkpt lat="44.45952" lon="1.3894">
        <ele>170.3</ele>
        <time>2021-10-02T12:28:15Z</time>
      </trkpt>
      <trkpt lat="44.45955" lon="1.38938">
        <ele>169.9</ele>
        <time>2021-10-02T12:28:16Z</time>
      </trkpt>
      <trkpt lat="44.45959" lon="1.38941">
        <ele>170.3</ele>
        <time>2021-10-02T12:28:17Z</time>
      </trkpt>
      <trkpt lat="44.45963" lon="1.38943">
        <ele>170.6</ele>
        <time>2021-10-02T12:28:19Z</time>
      </trkpt>
      <trkpt lat="44.45965" lon="1.38944">
        <ele>170.5</ele>
        <time>2021-10-02T12:28:20Z</time>
      </trkpt>
      <trkpt lat="44.45968" lon="1.38946">
        <ele>170.3</ele>
        <time>2021-10-02T12:28:21Z</time>
      </trkpt>
      <trkpt lat="44.45971" lon="1.38946">
        <ele>170.1</ele>
        <time>2021-10-02T12:28:23Z</time>
      </trkpt>
      <trkpt lat="44.45974" lon="1.38945">
        <ele>169.9</ele>
        <time>2021-10-02T12:28:24Z</time>
      </trkpt>
      <trkpt lat="44.45979" lon="1.38944">
        <ele>169.5</ele>
        <time>2021-10-02T12:28:25Z</time>
      </trkpt>
      <trkpt lat="44.45984" lon="1.38944">
        <ele>169.3</ele>
        <time>2021-10-02T12:28:27Z</time>
      </trkpt>
      <trkpt lat="44.45987" lon="1.38945">
        <ele>169.1</ele>
        <time>2021-10-02T12:28:28Z</time>
      </trkpt>
      <trkpt lat="44.4599" lon="1.38946">
        <ele>168.9</ele>
        <time>2021-10-02T12:28:29Z</time>
      </trkpt>
      <trkpt lat="44.45991" lon="1.38947">
        <ele>168.9</ele>
        <time>2021-10-02T12:28:30Z</time>
      </trkpt>
      <trkpt lat="44.45994" lon="1.38948">
        <ele>169.2</ele>
        <time>2021-10-02T12:28:31Z</time>
      </trkpt>
      <trkpt lat="44.45998" lon="1.38949">
        <ele>169</ele>
        <time>2021-10-02T12:28:33Z</time>
      </trkpt>
      <trkpt lat="44.46002" lon="1.3895">
        <ele>168.8</ele>
        <time>2021-10-02T12:28:34Z</time>
      </trkpt>
      <trkpt lat="44.46005" lon="1.38951">
        <ele>168.7</ele>
        <time>2021-10-02T12:28:36Z</time>
      </trkpt>
      <trkpt lat="44.4601" lon="1.38952">
        <ele>168.9</ele>
        <time>2021-10-02T12:28:37Z</time>
      </trkpt>
      <trkpt lat="44.46014" lon="1.38955">
        <ele>168.7</ele>
        <time>2021-10-02T12:28:39Z</time>
      </trkpt>
      <trkpt lat="44.46017" lon="1.38958">
        <ele>168.9</ele>
        <time>2021-10-02T12:28:40Z</time>
      </trkpt>
      <trkpt lat="44.46021" lon="1.38958">
        <ele>168.6</ele>
        <time>2021-10-02T12:28:42Z</time>
      </trkpt>
      <trkpt lat="44.46025" lon="1.38959">
        <ele>167.8</ele>
        <time>2021-10-02T12:28:43Z</time>
      </trkpt>
      <trkpt lat="44.46028" lon="1.38963">
        <ele>168.1</ele>
        <time>2021-10-02T12:28:44Z</time>
      </trkpt>
      <trkpt lat="44.46032" lon="1.38965">
        <ele>167.4</ele>
        <time>2021-10-02T12:28:46Z</time>
      </trkpt>
      <trkpt lat="44.46036" lon="1.38967">
        <ele>167</ele>
        <time>2021-10-02T12:28:47Z</time>
      </trkpt>
      <trkpt lat="44.46041" lon="1.3897">
        <ele>166.3</ele>
        <time>2021-10-02T12:28:48Z</time>
      </trkpt>
      <trkpt lat="44.46045" lon="1.38973">
        <ele>166.1</ele>
        <time>2021-10-02T12:28:50Z</time>
      </trkpt>
      <trkpt lat="44.46049" lon="1.38976">
        <ele>165.7</ele>
        <time>2021-10-02T12:28:51Z</time>
      </trkpt>
      <trkpt lat="44.46052" lon="1.38979">
        <ele>165.4</ele>
        <time>2021-10-02T12:28:52Z</time>
      </trkpt>
      <trkpt lat="44.46054" lon="1.38983">
        <ele>165</ele>
        <time>2021-10-02T12:28:53Z</time>
      </trkpt>
      <trkpt lat="44.46056" lon="1.38986">
        <ele>164.6</ele>
        <time>2021-10-02T12:28:55Z</time>
      </trkpt>
      <trkpt lat="44.4606" lon="1.38989">
        <ele>164.1</ele>
        <time>2021-10-02T12:28:56Z</time>
      </trkpt>
      <trkpt lat="44.46064" lon="1.3899">
        <ele>163.7</ele>
        <time>2021-10-02T12:28:58Z</time>
      </trkpt>
      <trkpt lat="44.46067" lon="1.38989">
        <ele>163.3</ele>
        <time>2021-10-02T12:28:59Z</time>
      </trkpt>
      <trkpt lat="44.4607" lon="1.38988">
        <ele>162.9</ele>
        <time>2021-10-02T12:29:01Z</time>
      </trkpt>
      <trkpt lat="44.46073" lon="1.38988">
        <ele>162.6</ele>
        <time>2021-10-02T12:29:02Z</time>
      </trkpt>
      <trkpt lat="44.46079" lon="1.38992">
        <ele>162.2</ele>
        <time>2021-10-02T12:29:03Z</time>
      </trkpt>
      <trkpt lat="44.46083" lon="1.38992">
        <ele>162</ele>
        <time>2021-10-02T12:29:04Z</time>
      </trkpt>
      <trkpt lat="44.46087" lon="1.38998">
        <ele>161.7</ele>
        <time>2021-10-02T12:29:06Z</time>
      </trkpt>
      <trkpt lat="44.4609" lon="1.39003">
        <ele>161.3</ele>
        <time>2021-10-02T12:29:07Z</time>
      </trkpt>
      <trkpt lat="44.46094" lon="1.39009">
        <ele>161.1</ele>
        <time>2021-10-02T12:29:08Z</time>
      </trkpt>
      <trkpt lat="44.46097" lon="1.39013">
        <ele>160.8</ele>
        <time>2021-10-02T12:29:10Z</time>
      </trkpt>
      <trkpt lat="44.461" lon="1.39016">
        <ele>160.7</ele>
        <time>2021-10-02T12:29:11Z</time>
      </trkpt>
      <trkpt lat="44.46103" lon="1.39023">
        <ele>160.5</ele>
        <time>2021-10-02T12:29:13Z</time>
      </trkpt>
      <trkpt lat="44.46106" lon="1.39027">
        <ele>160.4</ele>
        <time>2021-10-02T12:29:14Z</time>
      </trkpt>
      <trkpt lat="44.46108" lon="1.39031">
        <ele>160.4</ele>
        <time>2021-10-02T12:29:15Z</time>
      </trkpt>
      <trkpt lat="44.46111" lon="1.39035">
        <ele>160.5</ele>
        <time>2021-10-02T12:29:16Z</time>
      </trkpt>
      <trkpt lat="44.46114" lon="1.39039">
        <ele>160.5</ele>
        <time>2021-10-02T12:29:18Z</time>
      </trkpt>
      <trkpt lat="44.46118" lon="1.39044">
        <ele>160.6</ele>
        <time>2021-10-02T12:29:19Z</time>
      </trkpt>
      <trkpt lat="44.4612" lon="1.39049">
        <ele>160.7</ele>
        <time>2021-10-02T12:29:20Z</time>
      </trkpt>
      <trkpt lat="44.46123" lon="1.39052">
        <ele>160.7</ele>
        <time>2021-10-02T12:29:22Z</time>
      </trkpt>
      <trkpt lat="44.46128" lon="1.39058">
        <ele>160.6</ele>
        <time>2021-10-02T12:29:23Z</time>
      </trkpt>
      <trkpt lat="44.46131" lon="1.39062">
        <ele>160.5</ele>
        <time>2021-10-02T12:29:25Z</time>
      </trkpt>
      <trkpt lat="44.46134" lon="1.39066">
        <ele>160.4</ele>
        <time>2021-10-02T12:29:26Z</time>
      </trkpt>
      <trkpt lat="44.46136" lon="1.39069">
        <ele>160.3</ele>
        <time>2021-10-02T12:29:27Z</time>
      </trkpt>
      <trkpt lat="44.46143" lon="1.39078">
        <ele>160.4</ele>
        <time>2021-10-02T12:29:29Z</time>
      </trkpt>
      <trkpt lat="44.46147" lon="1.39082">
        <ele>160.5</ele>
        <time>2021-10-02T12:29:30Z</time>
      </trkpt>
      <trkpt lat="44.46153" lon="1.39092">
        <ele>160.7</ele>
        <time>2021-10-02T12:29:32Z</time>
      </trkpt>
      <trkpt lat="44.46156" lon="1.39098">
        <ele>161</ele>
        <time>2021-10-02T12:29:33Z</time>
      </trkpt>
      <trkpt lat="44.46158" lon="1.391">
        <ele>160.8</ele>
        <time>2021-10-02T12:29:34Z</time>
      </trkpt>
      <trkpt lat="44.46164" lon="1.39104">
        <ele>160.6</ele>
        <time>2021-10-02T12:29:35Z</time>
      </trkpt>
      <trkpt lat="44.46171" lon="1.39104">
        <ele>160.1</ele>
        <time>2021-10-02T12:29:36Z</time>
      </trkpt>
      <trkpt lat="44.46175" lon="1.39103">
        <ele>159.6</ele>
        <time>2021-10-02T12:29:38Z</time>
      </trkpt>
      <trkpt lat="44.46181" lon="1.39105">
        <ele>159.4</ele>
        <time>2021-10-02T12:29:39Z</time>
      </trkpt>
      <trkpt lat="44.46182" lon="1.39106">
        <ele>159.4</ele>
        <time>2021-10-02T12:29:40Z</time>
      </trkpt>
      <trkpt lat="44.46183" lon="1.39109">
        <ele>159.4</ele>
        <time>2021-10-02T12:29:42Z</time>
      </trkpt>
      <trkpt lat="44.46186" lon="1.39111">
        <ele>159.6</ele>
        <time>2021-10-02T12:29:43Z</time>
      </trkpt>
      <trkpt lat="44.46188" lon="1.39114">
        <ele>159.3</ele>
        <time>2021-10-02T12:29:44Z</time>
      </trkpt>
      <trkpt lat="44.46191" lon="1.39116">
        <ele>159.5</ele>
        <time>2021-10-02T12:29:45Z</time>
      </trkpt>
      <trkpt lat="44.46195" lon="1.39118">
        <ele>159.3</ele>
        <time>2021-10-02T12:29:47Z</time>
      </trkpt>
      <trkpt lat="44.46198" lon="1.39117">
        <ele>159</ele>
        <time>2021-10-02T12:29:48Z</time>
      </trkpt>
      <trkpt lat="44.462" lon="1.3912">
        <ele>159.1</ele>
        <time>2021-10-02T12:29:50Z</time>
      </trkpt>
      <trkpt lat="44.46201" lon="1.39121">
        <ele>159.1</ele>
        <time>2021-10-02T12:29:51Z</time>
      </trkpt>
      <trkpt lat="44.46204" lon="1.39124">
        <ele>159.2</ele>
        <time>2021-10-02T12:29:52Z</time>
      </trkpt>
      <trkpt lat="44.46205" lon="1.39125">
        <ele>159.2</ele>
        <time>2021-10-02T12:29:53Z</time>
      </trkpt>
      <trkpt lat="44.46209" lon="1.39125">
        <ele>159</ele>
        <time>2021-10-02T12:29:54Z</time>
      </trkpt>
      <trkpt lat="44.46213" lon="1.39129">
        <ele>158.9</ele>
        <time>2021-10-02T12:29:55Z</time>
      </trkpt>
      <trkpt lat="44.46216" lon="1.3913">
        <ele>158.8</ele>
        <time>2021-10-02T12:29:57Z</time>
      </trkpt>
      <trkpt lat="44.46218" lon="1.39126">
        <ele>158.5</ele>
        <time>2021-10-02T12:29:58Z</time>
      </trkpt>
      <trkpt lat="44.46221" lon="1.39122">
        <ele>158.3</ele>
        <time>2021-10-02T12:30:00Z</time>
      </trkpt>
      <trkpt lat="44.46224" lon="1.39122">
        <ele>158.2</ele>
        <time>2021-10-02T12:30:01Z</time>
      </trkpt>
      <trkpt lat="44.46227" lon="1.39123">
        <ele>158.3</ele>
        <time>2021-10-02T12:30:02Z</time>
      </trkpt>
      <trkpt lat="44.4623" lon="1.39124">
        <ele>158.3</ele>
        <time>2021-10-02T12:30:03Z</time>
      </trkpt>
      <trkpt lat="44.46232" lon="1.39128">
        <ele>158.3</ele>
        <time>2021-10-02T12:30:04Z</time>
      </trkpt>
      <trkpt lat="44.46234" lon="1.39133">
        <ele>158.3</ele>
        <time>2021-10-02T12:30:06Z</time>
      </trkpt>
      <trkpt lat="44.46238" lon="1.39136">
        <ele>158.4</ele>
        <time>2021-10-02T12:30:07Z</time>
      </trkpt>
      <trkpt lat="44.46241" lon="1.39137">
        <ele>158.2</ele>
        <time>2021-10-02T12:30:08Z</time>
      </trkpt>
      <trkpt lat="44.46244" lon="1.3914">
        <ele>158.1</ele>
        <time>2021-10-02T12:30:09Z</time>
      </trkpt>
      <trkpt lat="44.46245" lon="1.39141">
        <ele>158.2</ele>
        <time>2021-10-02T12:30:10Z</time>
      </trkpt>
      <trkpt lat="44.46246" lon="1.39144">
        <ele>158.1</ele>
        <time>2021-10-02T12:30:11Z</time>
      </trkpt>
      <trkpt lat="44.46247" lon="1.39146">
        <ele>158.2</ele>
        <time>2021-10-02T12:30:13Z</time>
      </trkpt>
      <trkpt lat="44.46248" lon="1.39149">
        <ele>158.4</ele>
        <time>2021-10-02T12:30:14Z</time>
      </trkpt>
      <trkpt lat="44.46249" lon="1.39151">
        <ele>158.3</ele>
        <time>2021-10-02T12:30:15Z</time>
      </trkpt>
      <trkpt lat="44.46251" lon="1.39154">
        <ele>158.4</ele>
        <time>2021-10-02T12:30:17Z</time>
      </trkpt>
      <trkpt lat="44.46252" lon="1.39155">
        <ele>158.3</ele>
        <time>2021-10-02T12:30:18Z</time>
      </trkpt>
      <trkpt lat="44.46255" lon="1.39157">
        <ele>158.1</ele>
        <time>2021-10-02T12:30:19Z</time>
      </trkpt>
      <trkpt lat="44.46256" lon="1.39157">
        <ele>158.1</ele>
        <time>2021-10-02T12:30:20Z</time>
      </trkpt>
      <trkpt lat="44.4626" lon="1.39158">
        <ele>158.1</ele>
        <time>2021-10-02T12:30:21Z</time>
      </trkpt>
      <trkpt lat="44.46266" lon="1.39159">
        <ele>157.9</ele>
        <time>2021-10-02T12:30:23Z</time>
      </trkpt>
      <trkpt lat="44.46269" lon="1.39159">
        <ele>157.7</ele>
        <time>2021-10-02T12:30:24Z</time>
      </trkpt>
      <trkpt lat="44.46274" lon="1.39163">
        <ele>157.6</ele>
        <time>2021-10-02T12:30:26Z</time>
      </trkpt>
      <trkpt lat="44.46278" lon="1.39163">
        <ele>157.5</ele>
        <time>2021-10-02T12:30:27Z</time>
      </trkpt>
      <trkpt lat="44.46281" lon="1.39164">
        <ele>157.4</ele>
        <time>2021-10-02T12:30:28Z</time>
      </trkpt>
      <trkpt lat="44.46284" lon="1.39166">
        <ele>157.5</ele>
        <time>2021-10-02T12:30:30Z</time>
      </trkpt>
      <trkpt lat="44.46286" lon="1.3917">
        <ele>157.4</ele>
        <time>2021-10-02T12:30:31Z</time>
      </trkpt>
      <trkpt lat="44.46289" lon="1.39173">
        <ele>157.5</ele>
        <time>2021-10-02T12:30:33Z</time>
      </trkpt>
      <trkpt lat="44.4629" lon="1.39173">
        <ele>157.5</ele>
        <time>2021-10-02T12:30:34Z</time>
      </trkpt>
      <trkpt lat="44.4629" lon="1.39173">
        <ele>157.5</ele>
        <time>2021-10-02T12:30:36Z</time>
      </trkpt>
      <trkpt lat="44.46291" lon="1.39172">
        <ele>157.4</ele>
        <time>2021-10-02T12:30:38Z</time>
      </trkpt>
      <trkpt lat="44.46291" lon="1.39172">
        <ele>157.4</ele>
        <time>2021-10-02T12:30:39Z</time>
      </trkpt>
      <trkpt lat="44.46291" lon="1.39172">
        <ele>157.4</ele>
        <time>2021-10-02T12:30:41Z</time>
      </trkpt>
      <trkpt lat="44.46291" lon="1.39172">
        <ele>157.4</ele>
        <time>2021-10-02T12:30:43Z</time>
      </trkpt>
      <trkpt lat="44.46291" lon="1.39172">
        <ele>157.4</ele>
        <time>2021-10-02T12:30:44Z</time>
      </trkpt>
      <trkpt lat="44.46292" lon="1.39172">
        <ele>157.3</ele>
        <time>2021-10-02T12:30:45Z</time>
      </trkpt>
      <trkpt lat="44.46295" lon="1.39172">
        <ele>157.2</ele>
        <time>2021-10-02T12:30:46Z</time>
      </trkpt>
      <trkpt lat="44.46304" lon="1.3917">
        <ele>156.5</ele>
        <time>2021-10-02T12:30:48Z</time>
      </trkpt>
      <trkpt lat="44.4631" lon="1.39167">
        <ele>156.2</ele>
        <time>2021-10-02T12:30:49Z</time>
      </trkpt>
      <trkpt lat="44.46315" lon="1.39163">
        <ele>155.9</ele>
        <time>2021-10-02T12:30:50Z</time>
      </trkpt>
      <trkpt lat="44.46322" lon="1.39159">
        <ele>155.5</ele>
        <time>2021-10-02T12:30:52Z</time>
      </trkpt>
      <trkpt lat="44.46332" lon="1.39152">
        <ele>154.9</ele>
        <time>2021-10-02T12:30:54Z</time>
      </trkpt>
      <trkpt lat="44.46342" lon="1.39144">
        <ele>154.4</ele>
        <time>2021-10-02T12:30:56Z</time>
      </trkpt>
      <trkpt lat="44.46347" lon="1.39141">
        <ele>154.1</ele>
        <time>2021-10-02T12:30:57Z</time>
      </trkpt>
      <trkpt lat="44.46352" lon="1.39139">
        <ele>153.9</ele>
        <time>2021-10-02T12:30:58Z</time>
      </trkpt>
      <trkpt lat="44.46362" lon="1.39138">
        <ele>153.4</ele>
        <time>2021-10-02T12:31:00Z</time>
      </trkpt>
      <trkpt lat="44.4637" lon="1.39138">
        <ele>153</ele>
        <time>2021-10-02T12:31:02Z</time>
      </trkpt>
      <trkpt lat="44.46374" lon="1.39137">
        <ele>152.8</ele>
        <time>2021-10-02T12:31:03Z</time>
      </trkpt>
      <trkpt lat="44.46379" lon="1.39135">
        <ele>152.6</ele>
        <time>2021-10-02T12:31:04Z</time>
      </trkpt>
      <trkpt lat="44.46381" lon="1.39133">
        <ele>152.5</ele>
        <time>2021-10-02T12:31:06Z</time>
      </trkpt>
      <trkpt lat="44.46383" lon="1.39131">
        <ele>152.3</ele>
        <time>2021-10-02T12:31:07Z</time>
      </trkpt>
      <trkpt lat="44.46385" lon="1.39126">
        <ele>152.2</ele>
        <time>2021-10-02T12:31:08Z</time>
      </trkpt>
      <trkpt lat="44.46388" lon="1.39122">
        <ele>152.1</ele>
        <time>2021-10-02T12:31:10Z</time>
      </trkpt>
      <trkpt lat="44.46393" lon="1.39118">
        <ele>152.1</ele>
        <time>2021-10-02T12:31:12Z</time>
      </trkpt>
      <trkpt lat="44.46397" lon="1.39114">
        <ele>152</ele>
        <time>2021-10-02T12:31:13Z</time>
      </trkpt>
      <trkpt lat="44.464" lon="1.39111">
        <ele>152</ele>
        <time>2021-10-02T12:31:14Z</time>
      </trkpt>
      <trkpt lat="44.46405" lon="1.39103">
        <ele>152</ele>
        <time>2021-10-02T12:31:16Z</time>
      </trkpt>
      <trkpt lat="44.46408" lon="1.39097">
        <ele>151.9</ele>
        <time>2021-10-02T12:31:17Z</time>
      </trkpt>
      <trkpt lat="44.46412" lon="1.39093">
        <ele>151.9</ele>
        <time>2021-10-02T12:31:18Z</time>
      </trkpt>
      <trkpt lat="44.46417" lon="1.3909">
        <ele>151.8</ele>
        <time>2021-10-02T12:31:19Z</time>
      </trkpt>
      <trkpt lat="44.46423" lon="1.39093">
        <ele>151.8</ele>
        <time>2021-10-02T12:31:21Z</time>
      </trkpt>
      <trkpt lat="44.46433" lon="1.39096">
        <ele>151.7</ele>
        <time>2021-10-02T12:31:23Z</time>
      </trkpt>
      <trkpt lat="44.46438" lon="1.39096">
        <ele>151.7</ele>
        <time>2021-10-02T12:31:24Z</time>
      </trkpt>
      <trkpt lat="44.46447" lon="1.39094">
        <ele>151.6</ele>
        <time>2021-10-02T12:31:26Z</time>
      </trkpt>
      <trkpt lat="44.46451" lon="1.39093">
        <ele>151.6</ele>
        <time>2021-10-02T12:31:27Z</time>
      </trkpt>
      <trkpt lat="44.46456" lon="1.39094">
        <ele>151.6</ele>
        <time>2021-10-02T12:31:28Z</time>
      </trkpt>
      <trkpt lat="44.46462" lon="1.39093">
        <ele>151.5</ele>
        <time>2021-10-02T12:31:30Z</time>
      </trkpt>
      <trkpt lat="44.46467" lon="1.39091">
        <ele>151.5</ele>
        <time>2021-10-02T12:31:31Z</time>
      </trkpt>
      <trkpt lat="44.46471" lon="1.39091">
        <ele>151.4</ele>
        <time>2021-10-02T12:31:32Z</time>
      </trkpt>
      <trkpt lat="44.46477" lon="1.39091">
        <ele>151.4</ele>
        <time>2021-10-02T12:31:34Z</time>
      </trkpt>
      <trkpt lat="44.46481" lon="1.39091">
        <ele>151.3</ele>
        <time>2021-10-02T12:31:35Z</time>
      </trkpt>
      <trkpt lat="44.46485" lon="1.39092">
        <ele>151.3</ele>
        <time>2021-10-02T12:31:36Z</time>
      </trkpt>
      <trkpt lat="44.46492" lon="1.39094">
        <ele>151.2</ele>
        <time>2021-10-02T12:31:37Z</time>
      </trkpt>
      <trkpt lat="44.46496" lon="1.39094">
        <ele>151.1</ele>
        <time>2021-10-02T12:31:38Z</time>
      </trkpt>
      <trkpt lat="44.46502" lon="1.39096">
        <ele>151.1</ele>
        <time>2021-10-02T12:31:40Z</time>
      </trkpt>
      <trkpt lat="44.46507" lon="1.39099">
        <ele>151</ele>
        <time>2021-10-02T12:31:41Z</time>
      </trkpt>
      <trkpt lat="44.46512" lon="1.39103">
        <ele>150.9</ele>
        <time>2021-10-02T12:31:42Z</time>
      </trkpt>
      <trkpt lat="44.46517" lon="1.39106">
        <ele>150.9</ele>
        <time>2021-10-02T12:31:43Z</time>
      </trkpt>
      <trkpt lat="44.46524" lon="1.39112">
        <ele>150.8</ele>
        <time>2021-10-02T12:31:45Z</time>
      </trkpt>
      <trkpt lat="44.46528" lon="1.39117">
        <ele>150.7</ele>
        <time>2021-10-02T12:31:46Z</time>
      </trkpt>
      <trkpt lat="44.46536" lon="1.39129">
        <ele>150.5</ele>
        <time>2021-10-02T12:31:48Z</time>
      </trkpt>
      <trkpt lat="44.46539" lon="1.39134">
        <ele>150.5</ele>
        <time>2021-10-02T12:31:49Z</time>
      </trkpt>
      <trkpt lat="44.46543" lon="1.3914">
        <ele>150.4</ele>
        <time>2021-10-02T12:31:50Z</time>
      </trkpt>
      <trkpt lat="44.46549" lon="1.39146">
        <ele>150.3</ele>
        <time>2021-10-02T12:31:51Z</time>
      </trkpt>
      <trkpt lat="44.46554" lon="1.39148">
        <ele>150.2</ele>
        <time>2021-10-02T12:31:53Z</time>
      </trkpt>
      <trkpt lat="44.46561" lon="1.39155">
        <ele>150.1</ele>
        <time>2021-10-02T12:31:54Z</time>
      </trkpt>
      <trkpt lat="44.46565" lon="1.39161">
        <ele>150</ele>
        <time>2021-10-02T12:31:55Z</time>
      </trkpt>
      <trkpt lat="44.46571" lon="1.39164">
        <ele>149.9</ele>
        <time>2021-10-02T12:31:57Z</time>
      </trkpt>
      <trkpt lat="44.46575" lon="1.39165">
        <ele>149.8</ele>
        <time>2021-10-02T12:31:58Z</time>
      </trkpt>
      <trkpt lat="44.4658" lon="1.39167">
        <ele>149.7</ele>
        <time>2021-10-02T12:31:59Z</time>
      </trkpt>
      <trkpt lat="44.46586" lon="1.39165">
        <ele>149.6</ele>
        <time>2021-10-02T12:32:00Z</time>
      </trkpt>
      <trkpt lat="44.46591" lon="1.39167">
        <ele>149.5</ele>
        <time>2021-10-02T12:32:02Z</time>
      </trkpt>
      <trkpt lat="44.466" lon="1.3917">
        <ele>149.3</ele>
        <time>2021-10-02T12:32:03Z</time>
      </trkpt>
      <trkpt lat="44.46605" lon="1.39171">
        <ele>149.2</ele>
        <time>2021-10-02T12:32:05Z</time>
      </trkpt>
      <trkpt lat="44.46611" lon="1.39172">
        <ele>149.1</ele>
        <time>2021-10-02T12:32:06Z</time>
      </trkpt>
      <trkpt lat="44.46616" lon="1.39173">
        <ele>149</ele>
        <time>2021-10-02T12:32:07Z</time>
      </trkpt>
      <trkpt lat="44.46619" lon="1.39175">
        <ele>149</ele>
        <time>2021-10-02T12:32:08Z</time>
      </trkpt>
      <trkpt lat="44.46624" lon="1.39175">
        <ele>148.9</ele>
        <time>2021-10-02T12:32:10Z</time>
      </trkpt>
      <trkpt lat="44.46628" lon="1.39176">
        <ele>148.8</ele>
        <time>2021-10-02T12:32:11Z</time>
      </trkpt>
      <trkpt lat="44.46634" lon="1.39179">
        <ele>148.7</ele>
        <time>2021-10-02T12:32:12Z</time>
      </trkpt>
      <trkpt lat="44.46638" lon="1.39181">
        <ele>148.7</ele>
        <time>2021-10-02T12:32:13Z</time>
      </trkpt>
      <trkpt lat="44.46643" lon="1.39184">
        <ele>148.6</ele>
        <time>2021-10-02T12:32:15Z</time>
      </trkpt>
      <trkpt lat="44.46649" lon="1.39188">
        <ele>148.5</ele>
        <time>2021-10-02T12:32:16Z</time>
      </trkpt>
      <trkpt lat="44.46653" lon="1.39189">
        <ele>148.5</ele>
        <time>2021-10-02T12:32:17Z</time>
      </trkpt>
      <trkpt lat="44.46656" lon="1.39187">
        <ele>148.4</ele>
        <time>2021-10-02T12:32:19Z</time>
      </trkpt>
      <trkpt lat="44.46659" lon="1.39185">
        <ele>148.4</ele>
        <time>2021-10-02T12:32:20Z</time>
      </trkpt>
      <trkpt lat="44.46662" lon="1.39181">
        <ele>148.3</ele>
        <time>2021-10-02T12:32:22Z</time>
      </trkpt>
      <trkpt lat="44.46663" lon="1.39176">
        <ele>148.3</ele>
        <time>2021-10-02T12:32:23Z</time>
      </trkpt>
      <trkpt lat="44.46664" lon="1.39175">
        <ele>148.3</ele>
        <time>2021-10-02T12:32:24Z</time>
      </trkpt>
      <trkpt lat="44.46664" lon="1.39172">
        <ele>148.3</ele>
        <time>2021-10-02T12:32:25Z</time>
      </trkpt>
      <trkpt lat="44.46664" lon="1.39169">
        <ele>148.3</ele>
        <time>2021-10-02T12:32:27Z</time>
      </trkpt>
      <trkpt lat="44.46663" lon="1.39165">
        <ele>148.3</ele>
        <time>2021-10-02T12:32:28Z</time>
      </trkpt>
      <trkpt lat="44.46667" lon="1.39161">
        <ele>148.3</ele>
        <time>2021-10-02T12:32:30Z</time>
      </trkpt>
      <trkpt lat="44.46668" lon="1.39159">
        <ele>148.3</ele>
        <time>2021-10-02T12:32:31Z</time>
      </trkpt>
      <trkpt lat="44.46671" lon="1.39153">
        <ele>148.3</ele>
        <time>2021-10-02T12:32:33Z</time>
      </trkpt>
      <trkpt lat="44.46672" lon="1.39152">
        <ele>148.3</ele>
        <time>2021-10-02T12:32:34Z</time>
      </trkpt>
      <trkpt lat="44.46673" lon="1.3915">
        <ele>148.3</ele>
        <time>2021-10-02T12:32:35Z</time>
      </trkpt>
      <trkpt lat="44.46676" lon="1.39148">
        <ele>148.2</ele>
        <time>2021-10-02T12:32:36Z</time>
      </trkpt>
      <trkpt lat="44.46678" lon="1.39146">
        <ele>148.2</ele>
        <time>2021-10-02T12:32:37Z</time>
      </trkpt>
      <trkpt lat="44.46679" lon="1.39145">
        <ele>148.2</ele>
        <time>2021-10-02T12:32:39Z</time>
      </trkpt>
      <trkpt lat="44.4668" lon="1.39145">
        <ele>148.2</ele>
        <time>2021-10-02T12:32:40Z</time>
      </trkpt>
      <trkpt lat="44.46682" lon="1.39145">
        <ele>148.2</ele>
        <time>2021-10-02T12:32:41Z</time>
      </trkpt>
      <trkpt lat="44.46686" lon="1.39147">
        <ele>148.2</ele>
        <time>2021-10-02T12:32:42Z</time>
      </trkpt>
      <trkpt lat="44.46687" lon="1.39147">
        <ele>148.2</ele>
        <time>2021-10-02T12:32:43Z</time>
      </trkpt>
      <trkpt lat="44.46688" lon="1.3915">
        <ele>148.2</ele>
        <time>2021-10-02T12:32:44Z</time>
      </trkpt>
      <trkpt lat="44.46693" lon="1.39153">
        <ele>148.1</ele>
        <time>2021-10-02T12:32:46Z</time>
      </trkpt>
      <trkpt lat="44.46697" lon="1.39152">
        <ele>148.1</ele>
        <time>2021-10-02T12:32:47Z</time>
      </trkpt>
      <trkpt lat="44.46701" lon="1.39151">
        <ele>148</ele>
        <time>2021-10-02T12:32:48Z</time>
      </trkpt>
      <trkpt lat="44.46704" lon="1.39151">
        <ele>148</ele>
        <time>2021-10-02T12:32:49Z</time>
      </trkpt>
      <trkpt lat="44.46707" lon="1.39152">
        <ele>147.9</ele>
        <time>2021-10-02T12:32:50Z</time>
      </trkpt>
      <trkpt lat="44.4671" lon="1.39154">
        <ele>147.9</ele>
        <time>2021-10-02T12:32:52Z</time>
      </trkpt>
      <trkpt lat="44.46714" lon="1.39155">
        <ele>147.8</ele>
        <time>2021-10-02T12:32:53Z</time>
      </trkpt>
      <trkpt lat="44.46719" lon="1.39157">
        <ele>147.8</ele>
        <time>2021-10-02T12:32:54Z</time>
      </trkpt>
      <trkpt lat="44.46723" lon="1.39156">
        <ele>147.7</ele>
        <time>2021-10-02T12:32:55Z</time>
      </trkpt>
      <trkpt lat="44.46729" lon="1.39155">
        <ele>147.7</ele>
        <time>2021-10-02T12:32:56Z</time>
      </trkpt>
      <trkpt lat="44.46733" lon="1.39156">
        <ele>147.6</ele>
        <time>2021-10-02T12:32:58Z</time>
      </trkpt>
      <trkpt lat="44.46738" lon="1.39157">
        <ele>147.6</ele>
        <time>2021-10-02T12:32:59Z</time>
      </trkpt>
      <trkpt lat="44.46744" lon="1.3916">
        <ele>147.5</ele>
        <time>2021-10-02T12:33:00Z</time>
      </trkpt>
      <trkpt lat="44.46747" lon="1.39162">
        <ele>147.5</ele>
        <time>2021-10-02T12:33:02Z</time>
      </trkpt>
      <trkpt lat="44.46755" lon="1.39165">
        <ele>147.4</ele>
        <time>2021-10-02T12:33:03Z</time>
      </trkpt>
      <trkpt lat="44.46759" lon="1.39169">
        <ele>147.4</ele>
        <time>2021-10-02T12:33:04Z</time>
      </trkpt>
      <trkpt lat="44.46764" lon="1.3917">
        <ele>147.3</ele>
        <time>2021-10-02T12:33:05Z</time>
      </trkpt>
      <trkpt lat="44.46769" lon="1.39166">
        <ele>147.3</ele>
        <time>2021-10-02T12:33:07Z</time>
      </trkpt>
      <trkpt lat="44.46773" lon="1.39166">
        <ele>147.2</ele>
        <time>2021-10-02T12:33:08Z</time>
      </trkpt>
      <trkpt lat="44.46776" lon="1.39168">
        <ele>147.2</ele>
        <time>2021-10-02T12:33:09Z</time>
      </trkpt>
      <trkpt lat="44.4678" lon="1.3917">
        <ele>147.1</ele>
        <time>2021-10-02T12:33:10Z</time>
      </trkpt>
      <trkpt lat="44.46784" lon="1.39171">
        <ele>147</ele>
        <time>2021-10-02T12:33:11Z</time>
      </trkpt>
      <trkpt lat="44.46788" lon="1.39171">
        <ele>146.9</ele>
        <time>2021-10-02T12:33:13Z</time>
      </trkpt>
      <trkpt lat="44.46792" lon="1.39171">
        <ele>146.9</ele>
        <time>2021-10-02T12:33:14Z</time>
      </trkpt>
      <trkpt lat="44.46795" lon="1.39173">
        <ele>146.8</ele>
        <time>2021-10-02T12:33:15Z</time>
      </trkpt>
      <trkpt lat="44.46799" lon="1.39175">
        <ele>146.7</ele>
        <time>2021-10-02T12:33:16Z</time>
      </trkpt>
      <trkpt lat="44.46802" lon="1.39178">
        <ele>146.7</ele>
        <time>2021-10-02T12:33:17Z</time>
      </trkpt>
      <trkpt lat="44.46805" lon="1.39177">
        <ele>146.6</ele>
        <time>2021-10-02T12:33:19Z</time>
      </trkpt>
      <trkpt lat="44.46811" lon="1.39178">
        <ele>146.6</ele>
        <time>2021-10-02T12:33:20Z</time>
      </trkpt>
      <trkpt lat="44.46817" lon="1.39182">
        <ele>146.5</ele>
        <time>2021-10-02T12:33:22Z</time>
      </trkpt>
      <trkpt lat="44.46824" lon="1.39186">
        <ele>146.4</ele>
        <time>2021-10-02T12:33:23Z</time>
      </trkpt>
      <trkpt lat="44.46828" lon="1.39188">
        <ele>146.3</ele>
        <time>2021-10-02T12:33:24Z</time>
      </trkpt>
      <trkpt lat="44.46831" lon="1.39187">
        <ele>146.3</ele>
        <time>2021-10-02T12:33:25Z</time>
      </trkpt>
      <trkpt lat="44.46834" lon="1.39186">
        <ele>146.2</ele>
        <time>2021-10-02T12:33:27Z</time>
      </trkpt>
      <trkpt lat="44.46837" lon="1.39186">
        <ele>146.2</ele>
        <time>2021-10-02T12:33:28Z</time>
      </trkpt>
      <trkpt lat="44.46845" lon="1.39187">
        <ele>146.1</ele>
        <time>2021-10-02T12:33:29Z</time>
      </trkpt>
      <trkpt lat="44.46851" lon="1.39183">
        <ele>146</ele>
        <time>2021-10-02T12:33:31Z</time>
      </trkpt>
      <trkpt lat="44.46858" lon="1.39186">
        <ele>145.9</ele>
        <time>2021-10-02T12:33:33Z</time>
      </trkpt>
      <trkpt lat="44.46861" lon="1.39187">
        <ele>145.8</ele>
        <time>2021-10-02T12:33:34Z</time>
      </trkpt>
      <trkpt lat="44.46866" lon="1.39193">
        <ele>145.7</ele>
        <time>2021-10-02T12:33:35Z</time>
      </trkpt>
      <trkpt lat="44.46869" lon="1.39196">
        <ele>145.7</ele>
        <time>2021-10-02T12:33:37Z</time>
      </trkpt>
      <trkpt lat="44.4687" lon="1.39197">
        <ele>145.6</ele>
        <time>2021-10-02T12:33:39Z</time>
      </trkpt>
      <trkpt lat="44.4687" lon="1.39196">
        <ele>145.6</ele>
        <time>2021-10-02T12:33:40Z</time>
      </trkpt>
      <trkpt lat="44.4687" lon="1.39197">
        <ele>145.6</ele>
        <time>2021-10-02T12:33:41Z</time>
      </trkpt>
      <trkpt lat="44.46871" lon="1.39197">
        <ele>145.6</ele>
        <time>2021-10-02T12:33:43Z</time>
      </trkpt>
      <trkpt lat="44.46871" lon="1.39197">
        <ele>145.6</ele>
        <time>2021-10-02T12:33:44Z</time>
      </trkpt>
      <trkpt lat="44.46871" lon="1.39196">
        <ele>145.6</ele>
        <time>2021-10-02T12:33:46Z</time>
      </trkpt>
      <trkpt lat="44.46871" lon="1.39196">
        <ele>145.6</ele>
        <time>2021-10-02T12:33:48Z</time>
      </trkpt>
      <trkpt lat="44.46874" lon="1.39199">
        <ele>145.5</ele>
        <time>2021-10-02T12:35:26Z</time>
      </trkpt>
      <trkpt lat="44.46876" lon="1.39202">
        <ele>145.5</ele>
        <time>2021-10-02T12:35:27Z</time>
      </trkpt>
      <trkpt lat="44.46881" lon="1.39208">
        <ele>145.4</ele>
        <time>2021-10-02T12:35:28Z</time>
      </trkpt>
      <trkpt lat="44.46887" lon="1.39216">
        <ele>145.4</ele>
        <time>2021-10-02T12:35:30Z</time>
      </trkpt>
      <trkpt lat="44.4689" lon="1.39221">
        <ele>145.4</ele>
        <time>2021-10-02T12:35:31Z</time>
      </trkpt>
      <trkpt lat="44.46893" lon="1.39227">
        <ele>145.3</ele>
        <time>2021-10-02T12:35:32Z</time>
      </trkpt>
      <trkpt lat="44.46896" lon="1.39235">
        <ele>145.3</ele>
        <time>2021-10-02T12:35:33Z</time>
      </trkpt>
      <trkpt lat="44.46898" lon="1.3924">
        <ele>145.2</ele>
        <time>2021-10-02T12:35:34Z</time>
      </trkpt>
      <trkpt lat="44.46902" lon="1.39247">
        <ele>145.2</ele>
        <time>2021-10-02T12:35:36Z</time>
      </trkpt>
      <trkpt lat="44.46907" lon="1.39257">
        <ele>145.1</ele>
        <time>2021-10-02T12:35:38Z</time>
      </trkpt>
      <trkpt lat="44.4691" lon="1.39263">
        <ele>145.1</ele>
        <time>2021-10-02T12:35:39Z</time>
      </trkpt>
      <trkpt lat="44.46913" lon="1.39269">
        <ele>145.1</ele>
        <time>2021-10-02T12:35:40Z</time>
      </trkpt>
      <trkpt lat="44.46916" lon="1.39275">
        <ele>145</ele>
        <time>2021-10-02T12:35:41Z</time>
      </trkpt>
      <trkpt lat="44.46919" lon="1.39281">
        <ele>145</ele>
        <time>2021-10-02T12:35:42Z</time>
      </trkpt>
      <trkpt lat="44.46922" lon="1.39287">
        <ele>144.9</ele>
        <time>2021-10-02T12:35:43Z</time>
      </trkpt>
      <trkpt lat="44.46924" lon="1.39293">
        <ele>144.9</ele>
        <time>2021-10-02T12:35:44Z</time>
      </trkpt>
      <trkpt lat="44.46929" lon="1.39296">
        <ele>144.8</ele>
        <time>2021-10-02T12:35:46Z</time>
      </trkpt>
      <trkpt lat="44.46933" lon="1.39297">
        <ele>144.8</ele>
        <time>2021-10-02T12:35:47Z</time>
      </trkpt>
      <trkpt lat="44.46937" lon="1.39299">
        <ele>144.7</ele>
        <time>2021-10-02T12:35:48Z</time>
      </trkpt>
      <trkpt lat="44.46942" lon="1.39301">
        <ele>144.6</ele>
        <time>2021-10-02T12:35:49Z</time>
      </trkpt>
      <trkpt lat="44.46947" lon="1.39303">
        <ele>144.5</ele>
        <time>2021-10-02T12:35:51Z</time>
      </trkpt>
      <trkpt lat="44.46951" lon="1.39305">
        <ele>144.4</ele>
        <time>2021-10-02T12:35:52Z</time>
      </trkpt>
      <trkpt lat="44.46956" lon="1.39309">
        <ele>144.4</ele>
        <time>2021-10-02T12:35:53Z</time>
      </trkpt>
      <trkpt lat="44.46963" lon="1.39314">
        <ele>144.4</ele>
        <time>2021-10-02T12:35:55Z</time>
      </trkpt>
      <trkpt lat="44.46969" lon="1.39317">
        <ele>144.4</ele>
        <time>2021-10-02T12:35:56Z</time>
      </trkpt>
      <trkpt lat="44.46981" lon="1.3932">
        <ele>144.3</ele>
        <time>2021-10-02T12:35:58Z</time>
      </trkpt>
      <trkpt lat="44.4699" lon="1.39321">
        <ele>144.3</ele>
        <time>2021-10-02T12:36:00Z</time>
      </trkpt>
      <trkpt lat="44.46995" lon="1.39322">
        <ele>144.3</ele>
        <time>2021-10-02T12:36:01Z</time>
      </trkpt>
      <trkpt lat="44.46998" lon="1.39322">
        <ele>144.3</ele>
        <time>2021-10-02T12:36:03Z</time>
      </trkpt>
      <trkpt lat="44.46999" lon="1.39323">
        <ele>144.3</ele>
        <time>2021-10-02T12:36:04Z</time>
      </trkpt>
      <trkpt lat="44.46999" lon="1.39324">
        <ele>144.3</ele>
        <time>2021-10-02T12:36:06Z</time>
      </trkpt>
      <trkpt lat="44.46999" lon="1.39323">
        <ele>144.3</ele>
        <time>2021-10-02T12:36:08Z</time>
      </trkpt>
      <trkpt lat="44.46999" lon="1.39323">
        <ele>144.3</ele>
        <time>2021-10-02T12:36:10Z</time>
      </trkpt>
      <trkpt lat="44.46998" lon="1.39323">
        <ele>144.3</ele>
        <time>2021-10-02T12:36:12Z</time>
      </trkpt>
      <trkpt lat="44.46998" lon="1.39323">
        <ele>144.3</ele>
        <time>2021-10-02T12:36:13Z</time>
      </trkpt>
      <trkpt lat="44.47009" lon="1.39332">
        <ele>144.5</ele>
        <time>2021-10-02T12:36:22Z</time>
      </trkpt>
      <trkpt lat="44.47013" lon="1.39335">
        <ele>144.5</ele>
        <time>2021-10-02T12:36:23Z</time>
      </trkpt>
      <trkpt lat="44.47017" lon="1.39337">
        <ele>144.6</ele>
        <time>2021-10-02T12:36:24Z</time>
      </trkpt>
      <trkpt lat="44.47022" lon="1.39338">
        <ele>144.6</ele>
        <time>2021-10-02T12:36:25Z</time>
      </trkpt>
      <trkpt lat="44.47022" lon="1.39339">
        <ele>144.6</ele>
        <time>2021-10-02T12:36:27Z</time>
      </trkpt>
      <trkpt lat="44.47022" lon="1.39339">
        <ele>144.6</ele>
        <time>2021-10-02T12:36:28Z</time>
      </trkpt>
      <trkpt lat="44.47023" lon="1.39339">
        <ele>144.6</ele>
        <time>2021-10-02T12:36:29Z</time>
      </trkpt>
      <trkpt lat="44.47023" lon="1.39339">
        <ele>144.6</ele>
        <time>2021-10-02T12:36:30Z</time>
      </trkpt>
      <trkpt lat="44.47023" lon="1.39339">
        <ele>144.6</ele>
        <time>2021-10-02T12:36:31Z</time>
      </trkpt>
      <trkpt lat="44.47023" lon="1.39339">
        <ele>144.6</ele>
        <time>2021-10-02T12:36:33Z</time>
      </trkpt>
      <trkpt lat="44.47023" lon="1.39339">
        <ele>144.6</ele>
        <time>2021-10-02T12:36:34Z</time>
      </trkpt>
      <trkpt lat="44.4703" lon="1.39335">
        <ele>144.6</ele>
        <time>2021-10-02T12:36:35Z</time>
      </trkpt>
      <trkpt lat="44.47033" lon="1.39332">
        <ele>144.6</ele>
        <time>2021-10-02T12:36:37Z</time>
      </trkpt>
      <trkpt lat="44.47037" lon="1.3933">
        <ele>144.6</ele>
        <time>2021-10-02T12:36:38Z</time>
      </trkpt>
      <trkpt lat="44.4704" lon="1.39329">
        <ele>144.6</ele>
        <time>2021-10-02T12:36:40Z</time>
      </trkpt>
      <trkpt lat="44.47043" lon="1.39328">
        <ele>144.6</ele>
        <time>2021-10-02T12:36:41Z</time>
      </trkpt>
      <trkpt lat="44.47046" lon="1.39326">
        <ele>144.5</ele>
        <time>2021-10-02T12:36:42Z</time>
      </trkpt>
      <trkpt lat="44.47047" lon="1.39325">
        <ele>144.5</ele>
        <time>2021-10-02T12:36:43Z</time>
      </trkpt>
      <trkpt lat="44.4705" lon="1.39325">
        <ele>144.5</ele>
        <time>2021-10-02T12:36:44Z</time>
      </trkpt>
      <trkpt lat="44.47051" lon="1.39324">
        <ele>144.5</ele>
        <time>2021-10-02T12:36:45Z</time>
      </trkpt>
      <trkpt lat="44.47053" lon="1.39324">
        <ele>144.5</ele>
        <time>2021-10-02T12:36:46Z</time>
      </trkpt>
      <trkpt lat="44.47054" lon="1.39324">
        <ele>144.4</ele>
        <time>2021-10-02T12:36:48Z</time>
      </trkpt>
      <trkpt lat="44.47057" lon="1.39327">
        <ele>144.4</ele>
        <time>2021-10-02T12:36:50Z</time>
      </trkpt>
      <trkpt lat="44.4706" lon="1.39331">
        <ele>144.3</ele>
        <time>2021-10-02T12:36:52Z</time>
      </trkpt>
      <trkpt lat="44.47061" lon="1.39331">
        <ele>144.3</ele>
        <time>2021-10-02T12:36:53Z</time>
      </trkpt>
      <trkpt lat="44.47061" lon="1.39331">
        <ele>144.3</ele>
        <time>2021-10-02T12:36:54Z</time>
      </trkpt>
      <trkpt lat="44.47062" lon="1.39331">
        <ele>144.3</ele>
        <time>2021-10-02T12:36:56Z</time>
      </trkpt>
      <trkpt lat="44.47062" lon="1.39331">
        <ele>144.3</ele>
        <time>2021-10-02T12:36:58Z</time>
      </trkpt>
      <trkpt lat="44.47062" lon="1.39331">
        <ele>144.3</ele>
        <time>2021-10-02T12:37:00Z</time>
      </trkpt>
      <trkpt lat="44.47064" lon="1.3933">
        <ele>144.2</ele>
        <time>2021-10-02T12:37:06Z</time>
      </trkpt>
      <trkpt lat="44.47072" lon="1.39328">
        <ele>144</ele>
        <time>2021-10-02T12:37:08Z</time>
      </trkpt>
      <trkpt lat="44.47076" lon="1.39328">
        <ele>143.9</ele>
        <time>2021-10-02T12:37:09Z</time>
      </trkpt>
      <trkpt lat="44.4708" lon="1.39329">
        <ele>143.8</ele>
        <time>2021-10-02T12:37:10Z</time>
      </trkpt>
      <trkpt lat="44.47083" lon="1.39331">
        <ele>143.8</ele>
        <time>2021-10-02T12:37:11Z</time>
      </trkpt>
      <trkpt lat="44.47086" lon="1.39332">
        <ele>143.7</ele>
        <time>2021-10-02T12:37:12Z</time>
      </trkpt>
      <trkpt lat="44.4709" lon="1.39334">
        <ele>143.6</ele>
        <time>2021-10-02T12:37:14Z</time>
      </trkpt>
      <trkpt lat="44.47094" lon="1.39336">
        <ele>143.5</ele>
        <time>2021-10-02T12:37:15Z</time>
      </trkpt>
      <trkpt lat="44.47099" lon="1.39339">
        <ele>143.4</ele>
        <time>2021-10-02T12:37:16Z</time>
      </trkpt>
      <trkpt lat="44.47105" lon="1.39342">
        <ele>143.3</ele>
        <time>2021-10-02T12:37:18Z</time>
      </trkpt>
      <trkpt lat="44.47108" lon="1.39345">
        <ele>143.2</ele>
        <time>2021-10-02T12:37:19Z</time>
      </trkpt>
      <trkpt lat="44.47115" lon="1.39349">
        <ele>143.1</ele>
        <time>2021-10-02T12:37:20Z</time>
      </trkpt>
      <trkpt lat="44.47121" lon="1.39353">
        <ele>143</ele>
        <time>2021-10-02T12:37:22Z</time>
      </trkpt>
      <trkpt lat="44.47131" lon="1.3936">
        <ele>142.8</ele>
        <time>2021-10-02T12:37:24Z</time>
      </trkpt>
      <trkpt lat="44.47141" lon="1.39366">
        <ele>142.6</ele>
        <time>2021-10-02T12:37:26Z</time>
      </trkpt>
      <trkpt lat="44.4715" lon="1.39374">
        <ele>142.4</ele>
        <time>2021-10-02T12:37:28Z</time>
      </trkpt>
      <trkpt lat="44.47155" lon="1.39377">
        <ele>142.3</ele>
        <time>2021-10-02T12:37:29Z</time>
      </trkpt>
      <trkpt lat="44.4716" lon="1.39381">
        <ele>142.2</ele>
        <time>2021-10-02T12:37:30Z</time>
      </trkpt>
      <trkpt lat="44.4717" lon="1.39389">
        <ele>142</ele>
        <time>2021-10-02T12:37:32Z</time>
      </trkpt>
      <trkpt lat="44.47179" lon="1.39398">
        <ele>141.8</ele>
        <time>2021-10-02T12:37:34Z</time>
      </trkpt>
      <trkpt lat="44.47187" lon="1.39409">
        <ele>141.5</ele>
        <time>2021-10-02T12:37:36Z</time>
      </trkpt>
      <trkpt lat="44.47199" lon="1.39418">
        <ele>141.3</ele>
        <time>2021-10-02T12:37:38Z</time>
      </trkpt>
      <trkpt lat="44.4721" lon="1.3943">
        <ele>141</ele>
        <time>2021-10-02T12:37:40Z</time>
      </trkpt>
      <trkpt lat="44.47215" lon="1.39436">
        <ele>140.9</ele>
        <time>2021-10-02T12:37:41Z</time>
      </trkpt>
      <trkpt lat="44.4722" lon="1.39442">
        <ele>140.7</ele>
        <time>2021-10-02T12:37:42Z</time>
      </trkpt>
      <trkpt lat="44.47231" lon="1.39452">
        <ele>140.5</ele>
        <time>2021-10-02T12:37:44Z</time>
      </trkpt>
      <trkpt lat="44.47241" lon="1.39459">
        <ele>140.3</ele>
        <time>2021-10-02T12:37:46Z</time>
      </trkpt>
      <trkpt lat="44.47246" lon="1.39463">
        <ele>140.2</ele>
        <time>2021-10-02T12:37:47Z</time>
      </trkpt>
      <trkpt lat="44.47253" lon="1.39466">
        <ele>140.1</ele>
        <time>2021-10-02T12:37:48Z</time>
      </trkpt>
      <trkpt lat="44.47265" lon="1.39472">
        <ele>139.8</ele>
        <time>2021-10-02T12:37:50Z</time>
      </trkpt>
      <trkpt lat="44.47277" lon="1.3948">
        <ele>139.6</ele>
        <time>2021-10-02T12:37:52Z</time>
      </trkpt>
      <trkpt lat="44.47287" lon="1.39489">
        <ele>139.4</ele>
        <time>2021-10-02T12:37:54Z</time>
      </trkpt>
      <trkpt lat="44.47292" lon="1.39493">
        <ele>139.3</ele>
        <time>2021-10-02T12:37:55Z</time>
      </trkpt>
      <trkpt lat="44.47296" lon="1.39495">
        <ele>139.2</ele>
        <time>2021-10-02T12:37:56Z</time>
      </trkpt>
      <trkpt lat="44.47303" lon="1.395">
        <ele>139.1</ele>
        <time>2021-10-02T12:37:58Z</time>
      </trkpt>
      <trkpt lat="44.47309" lon="1.39504">
        <ele>139</ele>
        <time>2021-10-02T12:38:00Z</time>
      </trkpt>
      <trkpt lat="44.47312" lon="1.39506">
        <ele>139</ele>
        <time>2021-10-02T12:38:01Z</time>
      </trkpt>
      <trkpt lat="44.47316" lon="1.39509">
        <ele>138.9</ele>
        <time>2021-10-02T12:38:02Z</time>
      </trkpt>
      <trkpt lat="44.47322" lon="1.39514">
        <ele>138.8</ele>
        <time>2021-10-02T12:38:04Z</time>
      </trkpt>
      <trkpt lat="44.47325" lon="1.39519">
        <ele>138.8</ele>
        <time>2021-10-02T12:38:06Z</time>
      </trkpt>
      <trkpt lat="44.47333" lon="1.3952">
        <ele>138.7</ele>
        <time>2021-10-02T12:38:07Z</time>
      </trkpt>
      <trkpt lat="44.4734" lon="1.39524">
        <ele>138.6</ele>
        <time>2021-10-02T12:38:08Z</time>
      </trkpt>
      <trkpt lat="44.47346" lon="1.39527">
        <ele>138.5</ele>
        <time>2021-10-02T12:38:10Z</time>
      </trkpt>
      <trkpt lat="44.47352" lon="1.39533">
        <ele>138.4</ele>
        <time>2021-10-02T12:38:11Z</time>
      </trkpt>
      <trkpt lat="44.47356" lon="1.39536">
        <ele>138.4</ele>
        <time>2021-10-02T12:38:12Z</time>
      </trkpt>
      <trkpt lat="44.47361" lon="1.3954">
        <ele>138.4</ele>
        <time>2021-10-02T12:38:13Z</time>
      </trkpt>
      <trkpt lat="44.47366" lon="1.39542">
        <ele>138.3</ele>
        <time>2021-10-02T12:38:14Z</time>
      </trkpt>
      <trkpt lat="44.47372" lon="1.39545">
        <ele>138.3</ele>
        <time>2021-10-02T12:38:16Z</time>
      </trkpt>
      <trkpt lat="44.47376" lon="1.39549">
        <ele>138.2</ele>
        <time>2021-10-02T12:38:17Z</time>
      </trkpt>
      <trkpt lat="44.47383" lon="1.39556">
        <ele>138.2</ele>
        <time>2021-10-02T12:38:19Z</time>
      </trkpt>
      <trkpt lat="44.47388" lon="1.3956">
        <ele>138.1</ele>
        <time>2021-10-02T12:38:20Z</time>
      </trkpt>
      <trkpt lat="44.474" lon="1.39569">
        <ele>138</ele>
        <time>2021-10-02T12:38:22Z</time>
      </trkpt>
      <trkpt lat="44.4741" lon="1.39577">
        <ele>137.8</ele>
        <time>2021-10-02T12:38:24Z</time>
      </trkpt>
      <trkpt lat="44.47415" lon="1.3958">
        <ele>137.7</ele>
        <time>2021-10-02T12:38:25Z</time>
      </trkpt>
      <trkpt lat="44.4742" lon="1.39582">
        <ele>137.7</ele>
        <time>2021-10-02T12:38:26Z</time>
      </trkpt>
      <trkpt lat="44.4743" lon="1.39587">
        <ele>137.5</ele>
        <time>2021-10-02T12:38:28Z</time>
      </trkpt>
      <trkpt lat="44.47436" lon="1.39592">
        <ele>137.3</ele>
        <time>2021-10-02T12:38:29Z</time>
      </trkpt>
      <trkpt lat="44.47442" lon="1.39597">
        <ele>137.2</ele>
        <time>2021-10-02T12:38:31Z</time>
      </trkpt>
      <trkpt lat="44.47445" lon="1.39599">
        <ele>137.1</ele>
        <time>2021-10-02T12:38:32Z</time>
      </trkpt>
      <trkpt lat="44.47454" lon="1.39603">
        <ele>137</ele>
        <time>2021-10-02T12:38:33Z</time>
      </trkpt>
      <trkpt lat="44.47461" lon="1.39606">
        <ele>136.6</ele>
        <time>2021-10-02T12:38:35Z</time>
      </trkpt>
      <trkpt lat="44.47465" lon="1.39608">
        <ele>136.1</ele>
        <time>2021-10-02T12:38:36Z</time>
      </trkpt>
      <trkpt lat="44.47473" lon="1.39612">
        <ele>135.6</ele>
        <time>2021-10-02T12:38:37Z</time>
      </trkpt>
      <trkpt lat="44.4748" lon="1.39617">
        <ele>135.2</ele>
        <time>2021-10-02T12:38:39Z</time>
      </trkpt>
      <trkpt lat="44.47484" lon="1.39617">
        <ele>135.3</ele>
        <time>2021-10-02T12:38:40Z</time>
      </trkpt>
      <trkpt lat="44.47489" lon="1.3962">
        <ele>135.3</ele>
        <time>2021-10-02T12:38:41Z</time>
      </trkpt>
      <trkpt lat="44.47494" lon="1.39622">
        <ele>134.9</ele>
        <time>2021-10-02T12:38:42Z</time>
      </trkpt>
      <trkpt lat="44.475" lon="1.39623">
        <ele>134.9</ele>
        <time>2021-10-02T12:38:44Z</time>
      </trkpt>
      <trkpt lat="44.47506" lon="1.39624">
        <ele>134.8</ele>
        <time>2021-10-02T12:38:45Z</time>
      </trkpt>
      <trkpt lat="44.4751" lon="1.39624">
        <ele>134.8</ele>
        <time>2021-10-02T12:38:46Z</time>
      </trkpt>
      <trkpt lat="44.47512" lon="1.39625">
        <ele>134.5</ele>
        <time>2021-10-02T12:38:47Z</time>
      </trkpt>
      <trkpt lat="44.47516" lon="1.39625">
        <ele>134.5</ele>
        <time>2021-10-02T12:38:49Z</time>
      </trkpt>
      <trkpt lat="44.4752" lon="1.39626">
        <ele>134.5</ele>
        <time>2021-10-02T12:38:50Z</time>
      </trkpt>
      <trkpt lat="44.47523" lon="1.39627">
        <ele>134.6</ele>
        <time>2021-10-02T12:38:51Z</time>
      </trkpt>
      <trkpt lat="44.47526" lon="1.39628">
        <ele>134.6</ele>
        <time>2021-10-02T12:38:52Z</time>
      </trkpt>
      <trkpt lat="44.47531" lon="1.39629">
        <ele>134.6</ele>
        <time>2021-10-02T12:38:54Z</time>
      </trkpt>
      <trkpt lat="44.47536" lon="1.3963">
        <ele>134.3</ele>
        <time>2021-10-02T12:38:55Z</time>
      </trkpt>
      <trkpt lat="44.47542" lon="1.3963">
        <ele>134.3</ele>
        <time>2021-10-02T12:38:57Z</time>
      </trkpt>
      <trkpt lat="44.47547" lon="1.39631">
        <ele>134.2</ele>
        <time>2021-10-02T12:38:58Z</time>
      </trkpt>
      <trkpt lat="44.47552" lon="1.39634">
        <ele>134</ele>
        <time>2021-10-02T12:38:59Z</time>
      </trkpt>
      <trkpt lat="44.47558" lon="1.39635">
        <ele>133.6</ele>
        <time>2021-10-02T12:39:01Z</time>
      </trkpt>
      <trkpt lat="44.47564" lon="1.39633">
        <ele>133.6</ele>
        <time>2021-10-02T12:39:02Z</time>
      </trkpt>
      <trkpt lat="44.47568" lon="1.39632">
        <ele>133.6</ele>
        <time>2021-10-02T12:39:03Z</time>
      </trkpt>
      <trkpt lat="44.47573" lon="1.3963">
        <ele>133.6</ele>
        <time>2021-10-02T12:39:05Z</time>
      </trkpt>
      <trkpt lat="44.47576" lon="1.39629">
        <ele>133.7</ele>
        <time>2021-10-02T12:39:06Z</time>
      </trkpt>
      <trkpt lat="44.47579" lon="1.39629">
        <ele>133.7</ele>
        <time>2021-10-02T12:39:07Z</time>
      </trkpt>
      <trkpt lat="44.47582" lon="1.39629">
        <ele>133.8</ele>
        <time>2021-10-02T12:39:09Z</time>
      </trkpt>
      <trkpt lat="44.47587" lon="1.3963">
        <ele>133.7</ele>
        <time>2021-10-02T12:39:10Z</time>
      </trkpt>
      <trkpt lat="44.47589" lon="1.39629">
        <ele>133.9</ele>
        <time>2021-10-02T12:39:11Z</time>
      </trkpt>
      <trkpt lat="44.47592" lon="1.39628">
        <ele>133.9</ele>
        <time>2021-10-02T12:39:13Z</time>
      </trkpt>
      <trkpt lat="44.47594" lon="1.39628">
        <ele>133.9</ele>
        <time>2021-10-02T12:39:14Z</time>
      </trkpt>
      <trkpt lat="44.47595" lon="1.39628">
        <ele>133.9</ele>
        <time>2021-10-02T12:39:15Z</time>
      </trkpt>
      <trkpt lat="44.47596" lon="1.39628">
        <ele>133.9</ele>
        <time>2021-10-02T12:39:17Z</time>
      </trkpt>
      <trkpt lat="44.47596" lon="1.39628">
        <ele>133.9</ele>
        <time>2021-10-02T12:39:18Z</time>
      </trkpt>
      <trkpt lat="44.47597" lon="1.39628">
        <ele>133.9</ele>
        <time>2021-10-02T12:39:19Z</time>
      </trkpt>
      <trkpt lat="44.47597" lon="1.39628">
        <ele>133.9</ele>
        <time>2021-10-02T12:39:21Z</time>
      </trkpt>
      <trkpt lat="44.47597" lon="1.39628">
        <ele>133.9</ele>
        <time>2021-10-02T12:39:22Z</time>
      </trkpt>
      <trkpt lat="44.47597" lon="1.39628">
        <ele>133.9</ele>
        <time>2021-10-02T12:39:23Z</time>
      </trkpt>
      <trkpt lat="44.47602" lon="1.39627">
        <ele>133.8</ele>
        <time>2021-10-02T12:39:25Z</time>
      </trkpt>
      <trkpt lat="44.47602" lon="1.39627">
        <ele>133.8</ele>
        <time>2021-10-02T12:39:25Z</time>
      </trkpt>
      <trkpt lat="44.4761" lon="1.39625">
        <ele>133.5</ele>
        <time>2021-10-02T12:39:27Z</time>
      </trkpt>
      <trkpt lat="44.47614" lon="1.39625">
        <ele>133.3</ele>
        <time>2021-10-02T12:39:28Z</time>
      </trkpt>
      <trkpt lat="44.47616" lon="1.39625">
        <ele>133.2</ele>
        <time>2021-10-02T12:39:29Z</time>
      </trkpt>
      <trkpt lat="44.47619" lon="1.39625">
        <ele>133.3</ele>
        <time>2021-10-02T12:39:30Z</time>
      </trkpt>
      <trkpt lat="44.47623" lon="1.39625">
        <ele>133.2</ele>
        <time>2021-10-02T12:39:31Z</time>
      </trkpt>
      <trkpt lat="44.47627" lon="1.39625">
        <ele>132.9</ele>
        <time>2021-10-02T12:39:32Z</time>
      </trkpt>
      <trkpt lat="44.47632" lon="1.39625">
        <ele>132.9</ele>
        <time>2021-10-02T12:39:34Z</time>
      </trkpt>
      <trkpt lat="44.47639" lon="1.39626">
        <ele>132.9</ele>
        <time>2021-10-02T12:39:35Z</time>
      </trkpt>
      <trkpt lat="44.47644" lon="1.39627">
        <ele>133</ele>
        <time>2021-10-02T12:39:36Z</time>
      </trkpt>
      <trkpt lat="44.47648" lon="1.39625">
        <ele>133.1</ele>
        <time>2021-10-02T12:39:37Z</time>
      </trkpt>
      <trkpt lat="44.47653" lon="1.39626">
        <ele>133.1</ele>
        <time>2021-10-02T12:39:39Z</time>
      </trkpt>
      <trkpt lat="44.47659" lon="1.39629">
        <ele>133.2</ele>
        <time>2021-10-02T12:39:40Z</time>
      </trkpt>
      <trkpt lat="44.47664" lon="1.39632">
        <ele>133</ele>
        <time>2021-10-02T12:39:41Z</time>
      </trkpt>
      <trkpt lat="44.4767" lon="1.39636">
        <ele>132.8</ele>
        <time>2021-10-02T12:39:42Z</time>
      </trkpt>
      <trkpt lat="44.47675" lon="1.39639">
        <ele>132.5</ele>
        <time>2021-10-02T12:39:44Z</time>
      </trkpt>
      <trkpt lat="44.4768" lon="1.39639">
        <ele>132.5</ele>
        <time>2021-10-02T12:39:45Z</time>
      </trkpt>
      <trkpt lat="44.47684" lon="1.39639">
        <ele>132.4</ele>
        <time>2021-10-02T12:39:46Z</time>
      </trkpt>
      <trkpt lat="44.47689" lon="1.39638">
        <ele>132.6</ele>
        <time>2021-10-02T12:39:47Z</time>
      </trkpt>
      <trkpt lat="44.47693" lon="1.39632">
        <ele>132.9</ele>
        <time>2021-10-02T12:39:48Z</time>
      </trkpt>
      <trkpt lat="44.47698" lon="1.39627">
        <ele>133.2</ele>
        <time>2021-10-02T12:39:50Z</time>
      </trkpt>
      <trkpt lat="44.47701" lon="1.39624">
        <ele>133.5</ele>
        <time>2021-10-02T12:39:51Z</time>
      </trkpt>
      <trkpt lat="44.47703" lon="1.39621">
        <ele>133.5</ele>
        <time>2021-10-02T12:39:52Z</time>
      </trkpt>
      <trkpt lat="44.47705" lon="1.39618">
        <ele>134</ele>
        <time>2021-10-02T12:39:53Z</time>
      </trkpt>
      <trkpt lat="44.47707" lon="1.39614">
        <ele>134.4</ele>
        <time>2021-10-02T12:39:55Z</time>
      </trkpt>
      <trkpt lat="44.47709" lon="1.39611">
        <ele>134.8</ele>
        <time>2021-10-02T12:39:56Z</time>
      </trkpt>
      <trkpt lat="44.47711" lon="1.39608">
        <ele>135.3</ele>
        <time>2021-10-02T12:39:57Z</time>
      </trkpt>
      <trkpt lat="44.47714" lon="1.39605">
        <ele>135.3</ele>
        <time>2021-10-02T12:39:59Z</time>
      </trkpt>
      <trkpt lat="44.47718" lon="1.39603">
        <ele>135.8</ele>
        <time>2021-10-02T12:40:00Z</time>
      </trkpt>
      <trkpt lat="44.4772" lon="1.39601">
        <ele>135.8</ele>
        <time>2021-10-02T12:40:02Z</time>
      </trkpt>
      <trkpt lat="44.47722" lon="1.39598">
        <ele>136.1</ele>
        <time>2021-10-02T12:40:03Z</time>
      </trkpt>
      <trkpt lat="44.47725" lon="1.39595">
        <ele>136.4</ele>
        <time>2021-10-02T12:40:04Z</time>
      </trkpt>
      <trkpt lat="44.47725" lon="1.39593">
        <ele>136.4</ele>
        <time>2021-10-02T12:40:05Z</time>
      </trkpt>
      <trkpt lat="44.47727" lon="1.39591">
        <ele>136.4</ele>
        <time>2021-10-02T12:40:07Z</time>
      </trkpt>
      <trkpt lat="44.47728" lon="1.39591">
        <ele>136.4</ele>
        <time>2021-10-02T12:40:08Z</time>
      </trkpt>
      <trkpt lat="44.47728" lon="1.39591">
        <ele>136.7</ele>
        <time>2021-10-02T12:40:10Z</time>
      </trkpt>
      <trkpt lat="44.47729" lon="1.3959">
        <ele>136.7</ele>
        <time>2021-10-02T12:40:11Z</time>
      </trkpt>
      <trkpt lat="44.47734" lon="1.39587">
        <ele>136.5</ele>
        <time>2021-10-02T12:40:13Z</time>
      </trkpt>
      <trkpt lat="44.47739" lon="1.39585">
        <ele>136.8</ele>
        <time>2021-10-02T12:40:14Z</time>
      </trkpt>
      <trkpt lat="44.47743" lon="1.39583">
        <ele>136.5</ele>
        <time>2021-10-02T12:40:15Z</time>
      </trkpt>
      <trkpt lat="44.47747" lon="1.39579">
        <ele>136.8</ele>
        <time>2021-10-02T12:40:17Z</time>
      </trkpt>
      <trkpt lat="44.47749" lon="1.39577">
        <ele>137.2</ele>
        <time>2021-10-02T12:40:19Z</time>
      </trkpt>
      <trkpt lat="44.47752" lon="1.39574">
        <ele>137.2</ele>
        <time>2021-10-02T12:40:20Z</time>
      </trkpt>
      <trkpt lat="44.47754" lon="1.39573">
        <ele>137.5</ele>
        <time>2021-10-02T12:40:22Z</time>
      </trkpt>
      <trkpt lat="44.47758" lon="1.39571">
        <ele>137.3</ele>
        <time>2021-10-02T12:40:24Z</time>
      </trkpt>
      <trkpt lat="44.47761" lon="1.39571">
        <ele>137.2</ele>
        <time>2021-10-02T12:40:25Z</time>
      </trkpt>
      <trkpt lat="44.47765" lon="1.39572">
        <ele>136.8</ele>
        <time>2021-10-02T12:40:26Z</time>
      </trkpt>
      <trkpt lat="44.47767" lon="1.39572">
        <ele>136.8</ele>
        <time>2021-10-02T12:40:27Z</time>
      </trkpt>
      <trkpt lat="44.47773" lon="1.39574">
        <ele>135.9</ele>
        <time>2021-10-02T12:40:29Z</time>
      </trkpt>
      <trkpt lat="44.47775" lon="1.39575">
        <ele>135.6</ele>
        <time>2021-10-02T12:40:30Z</time>
      </trkpt>
      <trkpt lat="44.47777" lon="1.39576">
        <ele>135.4</ele>
        <time>2021-10-02T12:40:31Z</time>
      </trkpt>
      <trkpt lat="44.47787" lon="1.39579">
        <ele>134.2</ele>
        <time>2021-10-02T12:40:33Z</time>
      </trkpt>
      <trkpt lat="44.47792" lon="1.39579">
        <ele>133.6</ele>
        <time>2021-10-02T12:40:34Z</time>
      </trkpt>
      <trkpt lat="44.47802" lon="1.39578">
        <ele>132.8</ele>
        <time>2021-10-02T12:40:36Z</time>
      </trkpt>
      <trkpt lat="44.47806" lon="1.39577">
        <ele>132.4</ele>
        <time>2021-10-02T12:40:37Z</time>
      </trkpt>
      <trkpt lat="44.47812" lon="1.39574">
        <ele>131.7</ele>
        <time>2021-10-02T12:40:39Z</time>
      </trkpt>
      <trkpt lat="44.47818" lon="1.39571">
        <ele>131.4</ele>
        <time>2021-10-02T12:40:40Z</time>
      </trkpt>
      <trkpt lat="44.47823" lon="1.39568">
        <ele>131.6</ele>
        <time>2021-10-02T12:40:41Z</time>
      </trkpt>
      <trkpt lat="44.47826" lon="1.39564">
        <ele>131.5</ele>
        <time>2021-10-02T12:40:43Z</time>
      </trkpt>
      <trkpt lat="44.47826" lon="1.39563">
        <ele>131.5</ele>
        <time>2021-10-02T12:40:45Z</time>
      </trkpt>
      <trkpt lat="44.47827" lon="1.39561">
        <ele>131.5</ele>
        <time>2021-10-02T12:40:46Z</time>
      </trkpt>
      <trkpt lat="44.47828" lon="1.39562">
        <ele>131.5</ele>
        <time>2021-10-02T12:40:48Z</time>
      </trkpt>
      <trkpt lat="44.47828" lon="1.39562">
        <ele>131.5</ele>
        <time>2021-10-02T12:40:50Z</time>
      </trkpt>
      <trkpt lat="44.47827" lon="1.39562">
        <ele>131.5</ele>
        <time>2021-10-02T12:40:52Z</time>
      </trkpt>
      <trkpt lat="44.47828" lon="1.3956">
        <ele>131.8</ele>
        <time>2021-10-02T12:41:00Z</time>
      </trkpt>
      <trkpt lat="44.4783" lon="1.39558">
        <ele>131.5</ele>
        <time>2021-10-02T12:41:01Z</time>
      </trkpt>
      <trkpt lat="44.47833" lon="1.39554">
        <ele>131.5</ele>
        <time>2021-10-02T12:41:03Z</time>
      </trkpt>
      <trkpt lat="44.47837" lon="1.39549">
        <ele>131.5</ele>
        <time>2021-10-02T12:41:04Z</time>
      </trkpt>
      <trkpt lat="44.47839" lon="1.39545">
        <ele>131.3</ele>
        <time>2021-10-02T12:41:06Z</time>
      </trkpt>
      <trkpt lat="44.47843" lon="1.39541">
        <ele>131.2</ele>
        <time>2021-10-02T12:41:07Z</time>
      </trkpt>
      <trkpt lat="44.47844" lon="1.39539">
        <ele>131</ele>
        <time>2021-10-02T12:41:08Z</time>
      </trkpt>
      <trkpt lat="44.47847" lon="1.39536">
        <ele>131</ele>
        <time>2021-10-02T12:41:09Z</time>
      </trkpt>
      <trkpt lat="44.47849" lon="1.39534">
        <ele>130.9</ele>
        <time>2021-10-02T12:41:11Z</time>
      </trkpt>
      <trkpt lat="44.47853" lon="1.39531">
        <ele>130.8</ele>
        <time>2021-10-02T12:41:12Z</time>
      </trkpt>
      <trkpt lat="44.47857" lon="1.39528">
        <ele>130.2</ele>
        <time>2021-10-02T12:41:13Z</time>
      </trkpt>
      <trkpt lat="44.47861" lon="1.39524">
        <ele>130.4</ele>
        <time>2021-10-02T12:41:15Z</time>
      </trkpt>
      <trkpt lat="44.47866" lon="1.39521">
        <ele>130.1</ele>
        <time>2021-10-02T12:41:16Z</time>
      </trkpt>
      <trkpt lat="44.4787" lon="1.3952">
        <ele>129.9</ele>
        <time>2021-10-02T12:41:17Z</time>
      </trkpt>
      <trkpt lat="44.47875" lon="1.39517">
        <ele>130.1</ele>
        <time>2021-10-02T12:41:19Z</time>
      </trkpt>
      <trkpt lat="44.47882" lon="1.39517">
        <ele>129.7</ele>
        <time>2021-10-02T12:41:20Z</time>
      </trkpt>
      <trkpt lat="44.47886" lon="1.39512">
        <ele>130</ele>
        <time>2021-10-02T12:41:22Z</time>
      </trkpt>
      <trkpt lat="44.47889" lon="1.39509">
        <ele>130.2</ele>
        <time>2021-10-02T12:41:23Z</time>
      </trkpt>
      <trkpt lat="44.47892" lon="1.39507">
        <ele>130</ele>
        <time>2021-10-02T12:41:24Z</time>
      </trkpt>
      <trkpt lat="44.47895" lon="1.39504">
        <ele>130.2</ele>
        <time>2021-10-02T12:41:25Z</time>
      </trkpt>
      <trkpt lat="44.47897" lon="1.39501">
        <ele>130.4</ele>
        <time>2021-10-02T12:41:26Z</time>
      </trkpt>
      <trkpt lat="44.479" lon="1.395">
        <ele>130.3</ele>
        <time>2021-10-02T12:41:28Z</time>
      </trkpt>
      <trkpt lat="44.47903" lon="1.39497">
        <ele>130.1</ele>
        <time>2021-10-02T12:41:29Z</time>
      </trkpt>
      <trkpt lat="44.47906" lon="1.39494">
        <ele>130.3</ele>
        <time>2021-10-02T12:41:30Z</time>
      </trkpt>
      <trkpt lat="44.47911" lon="1.39489">
        <ele>130.4</ele>
        <time>2021-10-02T12:41:32Z</time>
      </trkpt>
      <trkpt lat="44.47914" lon="1.39488">
        <ele>130.5</ele>
        <time>2021-10-02T12:41:33Z</time>
      </trkpt>
      <trkpt lat="44.47918" lon="1.39484">
        <ele>130.1</ele>
        <time>2021-10-02T12:41:35Z</time>
      </trkpt>
      <trkpt lat="44.47923" lon="1.39481">
        <ele>130.3</ele>
        <time>2021-10-02T12:41:36Z</time>
      </trkpt>
      <trkpt lat="44.47931" lon="1.39474">
        <ele>130.5</ele>
        <time>2021-10-02T12:41:38Z</time>
      </trkpt>
      <trkpt lat="44.47934" lon="1.39471">
        <ele>130.3</ele>
        <time>2021-10-02T12:41:39Z</time>
      </trkpt>
      <trkpt lat="44.4794" lon="1.39464">
        <ele>130.5</ele>
        <time>2021-10-02T12:41:41Z</time>
      </trkpt>
      <trkpt lat="44.47944" lon="1.39458">
        <ele>130.5</ele>
        <time>2021-10-02T12:41:42Z</time>
      </trkpt>
      <trkpt lat="44.47947" lon="1.39453">
        <ele>130.6</ele>
        <time>2021-10-02T12:41:43Z</time>
      </trkpt>
      <trkpt lat="44.47949" lon="1.3945">
        <ele>130.3</ele>
        <time>2021-10-02T12:41:44Z</time>
      </trkpt>
      <trkpt lat="44.47953" lon="1.39447">
        <ele>130.3</ele>
        <time>2021-10-02T12:41:46Z</time>
      </trkpt>
      <trkpt lat="44.47958" lon="1.39445">
        <ele>130</ele>
        <time>2021-10-02T12:41:47Z</time>
      </trkpt>
      <trkpt lat="44.47962" lon="1.3944">
        <ele>130</ele>
        <time>2021-10-02T12:41:49Z</time>
      </trkpt>
      <trkpt lat="44.47967" lon="1.39434">
        <ele>129.8</ele>
        <time>2021-10-02T12:41:50Z</time>
      </trkpt>
      <trkpt lat="44.4797" lon="1.3943">
        <ele>129.3</ele>
        <time>2021-10-02T12:41:51Z</time>
      </trkpt>
      <trkpt lat="44.47974" lon="1.39427">
        <ele>128.9</ele>
        <time>2021-10-02T12:41:53Z</time>
      </trkpt>
      <trkpt lat="44.47977" lon="1.39425">
        <ele>128.6</ele>
        <time>2021-10-02T12:41:54Z</time>
      </trkpt>
      <trkpt lat="44.47981" lon="1.39421">
        <ele>128.2</ele>
        <time>2021-10-02T12:41:55Z</time>
      </trkpt>
      <trkpt lat="44.47984" lon="1.39416">
        <ele>127.9</ele>
        <time>2021-10-02T12:41:56Z</time>
      </trkpt>
      <trkpt lat="44.47987" lon="1.39412">
        <ele>127.6</ele>
        <time>2021-10-02T12:41:57Z</time>
      </trkpt>
      <trkpt lat="44.4799" lon="1.39408">
        <ele>127.3</ele>
        <time>2021-10-02T12:41:59Z</time>
      </trkpt>
      <trkpt lat="44.47993" lon="1.39404">
        <ele>127.1</ele>
        <time>2021-10-02T12:42:00Z</time>
      </trkpt>
      <trkpt lat="44.47998" lon="1.39399">
        <ele>126.7</ele>
        <time>2021-10-02T12:42:02Z</time>
      </trkpt>
      <trkpt lat="44.48001" lon="1.39395">
        <ele>126.5</ele>
        <time>2021-10-02T12:42:03Z</time>
      </trkpt>
      <trkpt lat="44.48005" lon="1.39391">
        <ele>126.4</ele>
        <time>2021-10-02T12:42:04Z</time>
      </trkpt>
      <trkpt lat="44.48009" lon="1.39385">
        <ele>126.2</ele>
        <time>2021-10-02T12:42:06Z</time>
      </trkpt>
      <trkpt lat="44.48011" lon="1.39382">
        <ele>126.1</ele>
        <time>2021-10-02T12:42:07Z</time>
      </trkpt>
      <trkpt lat="44.48016" lon="1.39378">
        <ele>125.8</ele>
        <time>2021-10-02T12:42:09Z</time>
      </trkpt>
      <trkpt lat="44.48022" lon="1.39374">
        <ele>125.3</ele>
        <time>2021-10-02T12:42:10Z</time>
      </trkpt>
      <trkpt lat="44.48026" lon="1.39371">
        <ele>125</ele>
        <time>2021-10-02T12:42:11Z</time>
      </trkpt>
      <trkpt lat="44.48031" lon="1.39367">
        <ele>124.6</ele>
        <time>2021-10-02T12:42:13Z</time>
      </trkpt>
      <trkpt lat="44.48036" lon="1.39362">
        <ele>123.9</ele>
        <time>2021-10-02T12:42:14Z</time>
      </trkpt>
      <trkpt lat="44.4804" lon="1.39357">
        <ele>123.1</ele>
        <time>2021-10-02T12:42:15Z</time>
      </trkpt>
      <trkpt lat="44.48045" lon="1.39352">
        <ele>122.7</ele>
        <time>2021-10-02T12:42:17Z</time>
      </trkpt>
      <trkpt lat="44.48049" lon="1.39346">
        <ele>122.2</ele>
        <time>2021-10-02T12:42:18Z</time>
      </trkpt>
      <trkpt lat="44.48052" lon="1.39341">
        <ele>121.8</ele>
        <time>2021-10-02T12:42:19Z</time>
      </trkpt>
      <trkpt lat="44.48054" lon="1.39337">
        <ele>121.6</ele>
        <time>2021-10-02T12:42:20Z</time>
      </trkpt>
      <trkpt lat="44.48057" lon="1.39334">
        <ele>121.3</ele>
        <time>2021-10-02T12:42:22Z</time>
      </trkpt>
      <trkpt lat="44.4806" lon="1.39331">
        <ele>121</ele>
        <time>2021-10-02T12:42:23Z</time>
      </trkpt>
      <trkpt lat="44.48064" lon="1.39328">
        <ele>120.7</ele>
        <time>2021-10-02T12:42:25Z</time>
      </trkpt>
      <trkpt lat="44.48071" lon="1.39323">
        <ele>120</ele>
        <time>2021-10-02T12:42:26Z</time>
      </trkpt>
      <trkpt lat="44.48076" lon="1.3932">
        <ele>119.3</ele>
        <time>2021-10-02T12:42:27Z</time>
      </trkpt>
      <trkpt lat="44.48079" lon="1.39318">
        <ele>119</ele>
        <time>2021-10-02T12:42:28Z</time>
      </trkpt>
      <trkpt lat="44.48084" lon="1.39314">
        <ele>117.8</ele>
        <time>2021-10-02T12:42:29Z</time>
      </trkpt>
      <trkpt lat="44.4809" lon="1.39311">
        <ele>117.1</ele>
        <time>2021-10-02T12:42:30Z</time>
      </trkpt>
      <trkpt lat="44.48096" lon="1.39312">
        <ele>117</ele>
        <time>2021-10-02T12:42:32Z</time>
      </trkpt>
      <trkpt lat="44.48102" lon="1.39312">
        <ele>116.8</ele>
        <time>2021-10-02T12:42:33Z</time>
      </trkpt>
      <trkpt lat="44.4811" lon="1.39313">
        <ele>117</ele>
        <time>2021-10-02T12:42:34Z</time>
      </trkpt>
      <trkpt lat="44.48115" lon="1.39317">
        <ele>117.3</ele>
        <time>2021-10-02T12:42:36Z</time>
      </trkpt>
      <trkpt lat="44.48117" lon="1.39322">
        <ele>117.5</ele>
        <time>2021-10-02T12:42:37Z</time>
      </trkpt>
      <trkpt lat="44.48118" lon="1.39326">
        <ele>117.6</ele>
        <time>2021-10-02T12:42:38Z</time>
      </trkpt>
      <trkpt lat="44.48118" lon="1.39331">
        <ele>117.7</ele>
        <time>2021-10-02T12:42:39Z</time>
      </trkpt>
      <trkpt lat="44.4812" lon="1.39334">
        <ele>117.8</ele>
        <time>2021-10-02T12:42:41Z</time>
      </trkpt>
      <trkpt lat="44.48121" lon="1.39335">
        <ele>117.8</ele>
        <time>2021-10-02T12:42:43Z</time>
      </trkpt>
      <trkpt lat="44.48122" lon="1.39336">
        <ele>117.8</ele>
        <time>2021-10-02T12:42:44Z</time>
      </trkpt>
      <trkpt lat="44.48123" lon="1.39338">
        <ele>117.7</ele>
        <time>2021-10-02T12:42:46Z</time>
      </trkpt>
      <trkpt lat="44.48124" lon="1.39339">
        <ele>117.8</ele>
        <time>2021-10-02T12:42:47Z</time>
      </trkpt>
      <trkpt lat="44.48125" lon="1.3934">
        <ele>117.8</ele>
        <time>2021-10-02T12:42:49Z</time>
      </trkpt>
      <trkpt lat="44.48126" lon="1.39341">
        <ele>117.7</ele>
        <time>2021-10-02T12:43:31Z</time>
      </trkpt>
      <trkpt lat="44.48127" lon="1.39342">
        <ele>117.7</ele>
        <time>2021-10-02T12:43:32Z</time>
      </trkpt>
      <trkpt lat="44.48128" lon="1.39343">
        <ele>117.8</ele>
        <time>2021-10-02T12:43:33Z</time>
      </trkpt>
      <trkpt lat="44.48129" lon="1.39348">
        <ele>117.8</ele>
        <time>2021-10-02T12:43:35Z</time>
      </trkpt>
      <trkpt lat="44.48129" lon="1.39352">
        <ele>117.9</ele>
        <time>2021-10-02T12:43:36Z</time>
      </trkpt>
      <trkpt lat="44.4813" lon="1.39358">
        <ele>118.3</ele>
        <time>2021-10-02T12:43:37Z</time>
      </trkpt>
      <trkpt lat="44.48131" lon="1.39362">
        <ele>118.6</ele>
        <time>2021-10-02T12:43:39Z</time>
      </trkpt>
      <trkpt lat="44.48133" lon="1.39367">
        <ele>119</ele>
        <time>2021-10-02T12:43:40Z</time>
      </trkpt>
      <trkpt lat="44.48134" lon="1.3937">
        <ele>119.3</ele>
        <time>2021-10-02T12:43:41Z</time>
      </trkpt>
      <trkpt lat="44.48135" lon="1.39373">
        <ele>119.8</ele>
        <time>2021-10-02T12:43:43Z</time>
      </trkpt>
      <trkpt lat="44.48136" lon="1.39375">
        <ele>119.8</ele>
        <time>2021-10-02T12:43:44Z</time>
      </trkpt>
      <trkpt lat="44.48137" lon="1.39377">
        <ele>120.3</ele>
        <time>2021-10-02T12:43:45Z</time>
      </trkpt>
      <trkpt lat="44.48137" lon="1.39378">
        <ele>120.4</ele>
        <time>2021-10-02T12:43:46Z</time>
      </trkpt>
      <trkpt lat="44.48137" lon="1.39379">
        <ele>120.6</ele>
        <time>2021-10-02T12:43:48Z</time>
      </trkpt>
      <trkpt lat="44.48137" lon="1.3938">
        <ele>120.8</ele>
        <time>2021-10-02T12:43:50Z</time>
      </trkpt>
      <trkpt lat="44.48138" lon="1.3938">
        <ele>120.9</ele>
        <time>2021-10-02T12:43:52Z</time>
      </trkpt>
      <trkpt lat="44.48138" lon="1.3938">
        <ele>121.1</ele>
        <time>2021-10-02T12:43:53Z</time>
      </trkpt>
      <trkpt lat="44.48138" lon="1.39381">
        <ele>121.4</ele>
        <time>2021-10-02T12:43:55Z</time>
      </trkpt>
      <trkpt lat="44.48146" lon="1.39401">
        <ele>123.1</ele>
        <time>2021-10-02T12:44:03Z</time>
      </trkpt>
      <trkpt lat="44.48148" lon="1.39404">
        <ele>123.7</ele>
        <time>2021-10-02T12:44:04Z</time>
      </trkpt>
      <trkpt lat="44.4815" lon="1.39406">
        <ele>123.9</ele>
        <time>2021-10-02T12:44:05Z</time>
      </trkpt>
      <trkpt lat="44.4815" lon="1.39407">
        <ele>124.6</ele>
        <time>2021-10-02T12:44:07Z</time>
      </trkpt>
      <trkpt lat="44.4815" lon="1.39408">
        <ele>124.7</ele>
        <time>2021-10-02T12:44:08Z</time>
      </trkpt>
      <trkpt lat="44.4815" lon="1.39409">
        <ele>125</ele>
        <time>2021-10-02T12:44:10Z</time>
      </trkpt>
      <trkpt lat="44.4815" lon="1.3941">
        <ele>125.1</ele>
        <time>2021-10-02T12:44:11Z</time>
      </trkpt>
      <trkpt lat="44.4815" lon="1.3941">
        <ele>125.2</ele>
        <time>2021-10-02T12:44:12Z</time>
      </trkpt>
      <trkpt lat="44.4815" lon="1.3941">
        <ele>125.3</ele>
        <time>2021-10-02T12:44:13Z</time>
      </trkpt>
      <trkpt lat="44.4815" lon="1.3941">
        <ele>125.5</ele>
        <time>2021-10-02T12:44:15Z</time>
      </trkpt>
      <trkpt lat="44.48141" lon="1.39429">
        <ele>128.3</ele>
        <time>2021-10-02T12:44:28Z</time>
      </trkpt>
      <trkpt lat="44.48138" lon="1.39431">
        <ele>128.4</ele>
        <time>2021-10-02T12:44:29Z</time>
      </trkpt>
      <trkpt lat="44.48137" lon="1.39433">
        <ele>129.3</ele>
        <time>2021-10-02T12:44:31Z</time>
      </trkpt>
      <trkpt lat="44.48135" lon="1.39434">
        <ele>129.5</ele>
        <time>2021-10-02T12:44:32Z</time>
      </trkpt>
      <trkpt lat="44.48133" lon="1.39435">
        <ele>129.6</ele>
        <time>2021-10-02T12:44:33Z</time>
      </trkpt>
      <trkpt lat="44.4813" lon="1.39436">
        <ele>129.7</ele>
        <time>2021-10-02T12:44:34Z</time>
      </trkpt>
      <trkpt lat="44.48126" lon="1.3944">
        <ele>130.6</ele>
        <time>2021-10-02T12:44:36Z</time>
      </trkpt>
      <trkpt lat="44.48122" lon="1.39444">
        <ele>131.6</ele>
        <time>2021-10-02T12:44:38Z</time>
      </trkpt>
      <trkpt lat="44.4812" lon="1.39445">
        <ele>132.6</ele>
        <time>2021-10-02T12:44:39Z</time>
      </trkpt>
      <trkpt lat="44.48119" lon="1.39447">
        <ele>132.7</ele>
        <time>2021-10-02T12:44:40Z</time>
      </trkpt>
      <trkpt lat="44.48116" lon="1.39449">
        <ele>133</ele>
        <time>2021-10-02T12:44:42Z</time>
      </trkpt>
      <trkpt lat="44.48115" lon="1.3945">
        <ele>133.9</ele>
        <time>2021-10-02T12:44:43Z</time>
      </trkpt>
      <trkpt lat="44.48112" lon="1.39453">
        <ele>134.1</ele>
        <time>2021-10-02T12:44:44Z</time>
      </trkpt>
      <trkpt lat="44.48111" lon="1.39455">
        <ele>135</ele>
        <time>2021-10-02T12:44:45Z</time>
      </trkpt>
      <trkpt lat="44.48109" lon="1.39458">
        <ele>135.1</ele>
        <time>2021-10-02T12:44:47Z</time>
      </trkpt>
      <trkpt lat="44.48108" lon="1.39459">
        <ele>136.1</ele>
        <time>2021-10-02T12:44:48Z</time>
      </trkpt>
      <trkpt lat="44.48107" lon="1.39461">
        <ele>136.2</ele>
        <time>2021-10-02T12:44:49Z</time>
      </trkpt>
      <trkpt lat="44.48106" lon="1.39463">
        <ele>137.1</ele>
        <time>2021-10-02T12:44:50Z</time>
      </trkpt>
      <trkpt lat="44.48105" lon="1.39465">
        <ele>137.3</ele>
        <time>2021-10-02T12:44:51Z</time>
      </trkpt>
      <trkpt lat="44.48105" lon="1.39468">
        <ele>138.3</ele>
        <time>2021-10-02T12:44:53Z</time>
      </trkpt>
      <trkpt lat="44.48103" lon="1.39473">
        <ele>139.2</ele>
        <time>2021-10-02T12:44:55Z</time>
      </trkpt>
      <trkpt lat="44.48103" lon="1.39473">
        <ele>139.3</ele>
        <time>2021-10-02T12:44:56Z</time>
      </trkpt>
      <trkpt lat="44.48102" lon="1.39474">
        <ele>139.5</ele>
        <time>2021-10-02T12:44:57Z</time>
      </trkpt>
      <trkpt lat="44.48102" lon="1.39475">
        <ele>139.6</ele>
        <time>2021-10-02T12:44:59Z</time>
      </trkpt>
      <trkpt lat="44.48102" lon="1.39475">
        <ele>140.7</ele>
        <time>2021-10-02T12:45:00Z</time>
      </trkpt>
      <trkpt lat="44.48099" lon="1.3948">
        <ele>141.5</ele>
        <time>2021-10-02T12:45:02Z</time>
      </trkpt>
      <trkpt lat="44.48099" lon="1.39482">
        <ele>141.7</ele>
        <time>2021-10-02T12:45:03Z</time>
      </trkpt>
      <trkpt lat="44.48098" lon="1.39483">
        <ele>141.7</ele>
        <time>2021-10-02T12:45:04Z</time>
      </trkpt>
      <trkpt lat="44.48097" lon="1.39484">
        <ele>142.7</ele>
        <time>2021-10-02T12:45:06Z</time>
      </trkpt>
      <trkpt lat="44.48097" lon="1.39485">
        <ele>142.9</ele>
        <time>2021-10-02T12:45:07Z</time>
      </trkpt>
      <trkpt lat="44.48097" lon="1.39486">
        <ele>143</ele>
        <time>2021-10-02T12:45:09Z</time>
      </trkpt>
      <trkpt lat="44.48097" lon="1.39486">
        <ele>143.2</ele>
        <time>2021-10-02T12:45:10Z</time>
      </trkpt>
      <trkpt lat="44.48097" lon="1.39486">
        <ele>143.3</ele>
        <time>2021-10-02T12:45:12Z</time>
      </trkpt>
      <trkpt lat="44.48097" lon="1.39486">
        <ele>143.5</ele>
        <time>2021-10-02T12:45:14Z</time>
      </trkpt>
      <trkpt lat="44.48092" lon="1.39509">
        <ele>148.2</ele>
        <time>2021-10-02T12:46:27Z</time>
      </trkpt>
      <trkpt lat="44.48091" lon="1.39512">
        <ele>148.3</ele>
        <time>2021-10-02T12:46:29Z</time>
      </trkpt>
      <trkpt lat="44.48091" lon="1.39513">
        <ele>148.5</ele>
        <time>2021-10-02T12:46:31Z</time>
      </trkpt>
      <trkpt lat="44.48091" lon="1.39514">
        <ele>149.6</ele>
        <time>2021-10-02T12:46:32Z</time>
      </trkpt>
      <trkpt lat="44.48091" lon="1.39514">
        <ele>149.7</ele>
        <time>2021-10-02T12:46:34Z</time>
      </trkpt>
      <trkpt lat="44.48091" lon="1.39514">
        <ele>149.9</ele>
        <time>2021-10-02T12:46:35Z</time>
      </trkpt>
      <trkpt lat="44.48091" lon="1.39514">
        <ele>150</ele>
        <time>2021-10-02T12:46:36Z</time>
      </trkpt>
      <trkpt lat="44.4809" lon="1.39515">
        <ele>150.2</ele>
        <time>2021-10-02T12:46:38Z</time>
      </trkpt>
      <trkpt lat="44.4809" lon="1.39515">
        <ele>150.3</ele>
        <time>2021-10-02T12:46:40Z</time>
      </trkpt>
      <trkpt lat="44.4809" lon="1.39515">
        <ele>150.5</ele>
        <time>2021-10-02T12:46:41Z</time>
      </trkpt>
      <trkpt lat="44.4809" lon="1.39515">
        <ele>150.6</ele>
        <time>2021-10-02T12:46:43Z</time>
      </trkpt>
      <trkpt lat="44.4809" lon="1.39515">
        <ele>150.8</ele>
        <time>2021-10-02T12:46:44Z</time>
      </trkpt>
      <trkpt lat="44.48086" lon="1.39526">
        <ele>152</ele>
        <time>2021-10-02T12:46:46Z</time>
      </trkpt>
      <trkpt lat="44.48085" lon="1.39528">
        <ele>153.7</ele>
        <time>2021-10-02T12:46:48Z</time>
      </trkpt>
      <trkpt lat="44.48084" lon="1.39529">
        <ele>153.8</ele>
        <time>2021-10-02T12:46:50Z</time>
      </trkpt>
      <trkpt lat="44.48084" lon="1.39529">
        <ele>154</ele>
        <time>2021-10-02T12:46:51Z</time>
      </trkpt>
      <trkpt lat="44.48084" lon="1.39529">
        <ele>154.1</ele>
        <time>2021-10-02T12:46:53Z</time>
      </trkpt>
      <trkpt lat="44.48084" lon="1.39529">
        <ele>154.3</ele>
        <time>2021-10-02T12:46:54Z</time>
      </trkpt>
      <trkpt lat="44.4808" lon="1.39536">
        <ele>155.5</ele>
        <time>2021-10-02T12:46:57Z</time>
      </trkpt>
      <trkpt lat="44.48078" lon="1.39541">
        <ele>155.9</ele>
        <time>2021-10-02T12:46:58Z</time>
      </trkpt>
      <trkpt lat="44.48078" lon="1.39543">
        <ele>156.1</ele>
        <time>2021-10-02T12:46:59Z</time>
      </trkpt>
      <trkpt lat="44.48077" lon="1.39545">
        <ele>156.5</ele>
        <time>2021-10-02T12:47:00Z</time>
      </trkpt>
      <trkpt lat="44.48076" lon="1.39547">
        <ele>156.7</ele>
        <time>2021-10-02T12:47:02Z</time>
      </trkpt>
      <trkpt lat="44.48075" lon="1.39548">
        <ele>157.6</ele>
        <time>2021-10-02T12:47:04Z</time>
      </trkpt>
      <trkpt lat="44.48074" lon="1.39549">
        <ele>157.8</ele>
        <time>2021-10-02T12:47:05Z</time>
      </trkpt>
      <trkpt lat="44.48072" lon="1.39553">
        <ele>158.2</ele>
        <time>2021-10-02T12:47:07Z</time>
      </trkpt>
      <trkpt lat="44.48071" lon="1.39556">
        <ele>158.3</ele>
        <time>2021-10-02T12:47:08Z</time>
      </trkpt>
      <trkpt lat="44.4807" lon="1.39556">
        <ele>158</ele>
        <time>2021-10-02T12:47:09Z</time>
      </trkpt>
      <trkpt lat="44.4807" lon="1.39557">
        <ele>158.9</ele>
        <time>2021-10-02T12:47:11Z</time>
      </trkpt>
      <trkpt lat="44.48069" lon="1.39559">
        <ele>159.1</ele>
        <time>2021-10-02T12:47:12Z</time>
      </trkpt>
      <trkpt lat="44.48069" lon="1.39559">
        <ele>159.2</ele>
        <time>2021-10-02T12:47:13Z</time>
      </trkpt>
      <trkpt lat="44.48068" lon="1.39559">
        <ele>159.4</ele>
        <time>2021-10-02T12:47:14Z</time>
      </trkpt>
      <trkpt lat="44.48068" lon="1.3956">
        <ele>159.5</ele>
        <time>2021-10-02T12:47:15Z</time>
      </trkpt>
      <trkpt lat="44.48068" lon="1.3956">
        <ele>159.2</ele>
        <time>2021-10-02T12:47:16Z</time>
      </trkpt>
      <trkpt lat="44.48068" lon="1.3956">
        <ele>159.4</ele>
        <time>2021-10-02T12:47:18Z</time>
      </trkpt>
      <trkpt lat="44.48067" lon="1.39564">
        <ele>160.3</ele>
        <time>2021-10-02T12:47:21Z</time>
      </trkpt>
      <trkpt lat="44.48067" lon="1.39564">
        <ele>160.5</ele>
        <time>2021-10-02T12:47:22Z</time>
      </trkpt>
      <trkpt lat="44.48065" lon="1.39576">
        <ele>163.1</ele>
        <time>2021-10-02T12:47:24Z</time>
      </trkpt>
      <trkpt lat="44.48065" lon="1.39577">
        <ele>163.3</ele>
        <time>2021-10-02T12:47:25Z</time>
      </trkpt>
      <trkpt lat="44.48065" lon="1.39577">
        <ele>163.4</ele>
        <time>2021-10-02T12:47:27Z</time>
      </trkpt>
      <trkpt lat="44.48065" lon="1.39577">
        <ele>163.6</ele>
        <time>2021-10-02T12:47:28Z</time>
      </trkpt>
      <trkpt lat="44.48065" lon="1.39577">
        <ele>163.7</ele>
        <time>2021-10-02T12:47:30Z</time>
      </trkpt>
      <trkpt lat="44.48065" lon="1.39577">
        <ele>163.9</ele>
        <time>2021-10-02T12:47:31Z</time>
      </trkpt>
      <trkpt lat="44.48065" lon="1.39577">
        <ele>163.9</ele>
        <time>2021-10-02T12:47:33Z</time>
      </trkpt>
      <trkpt lat="44.4806" lon="1.39587">
        <ele>165.2</ele>
        <time>2021-10-02T12:47:35Z</time>
      </trkpt>
      <trkpt lat="44.48059" lon="1.39589">
        <ele>164.6</ele>
        <time>2021-10-02T12:47:36Z</time>
      </trkpt>
      <trkpt lat="44.48058" lon="1.3959">
        <ele>164.6</ele>
        <time>2021-10-02T12:47:38Z</time>
      </trkpt>
      <trkpt lat="44.48058" lon="1.3959">
        <ele>164.6</ele>
        <time>2021-10-02T12:47:39Z</time>
      </trkpt>
      <trkpt lat="44.48057" lon="1.39592">
        <ele>165.3</ele>
        <time>2021-10-02T12:47:40Z</time>
      </trkpt>
      <trkpt lat="44.48057" lon="1.39593">
        <ele>165.3</ele>
        <time>2021-10-02T12:47:41Z</time>
      </trkpt>
      <trkpt lat="44.48057" lon="1.39594">
        <ele>165.3</ele>
        <time>2021-10-02T12:47:42Z</time>
      </trkpt>
      <trkpt lat="44.48057" lon="1.39595">
        <ele>165.3</ele>
        <time>2021-10-02T12:47:44Z</time>
      </trkpt>
      <trkpt lat="44.48056" lon="1.39596">
        <ele>166.1</ele>
        <time>2021-10-02T12:47:46Z</time>
      </trkpt>
      <trkpt lat="44.48056" lon="1.39597">
        <ele>166.1</ele>
        <time>2021-10-02T12:47:47Z</time>
      </trkpt>
      <trkpt lat="44.48056" lon="1.39598">
        <ele>166.1</ele>
        <time>2021-10-02T12:47:48Z</time>
      </trkpt>
      <trkpt lat="44.48053" lon="1.39604">
        <ele>167.2</ele>
        <time>2021-10-02T12:47:49Z</time>
      </trkpt>
      <trkpt lat="44.48053" lon="1.39606">
        <ele>167.2</ele>
        <time>2021-10-02T12:47:51Z</time>
      </trkpt>
      <trkpt lat="44.48052" lon="1.39607">
        <ele>166.6</ele>
        <time>2021-10-02T12:47:52Z</time>
      </trkpt>
      <trkpt lat="44.48052" lon="1.39607">
        <ele>166.6</ele>
        <time>2021-10-02T12:47:54Z</time>
      </trkpt>
      <trkpt lat="44.48052" lon="1.39608">
        <ele>167.5</ele>
        <time>2021-10-02T12:47:55Z</time>
      </trkpt>
      <trkpt lat="44.48051" lon="1.39609">
        <ele>167.5</ele>
        <time>2021-10-02T12:47:57Z</time>
      </trkpt>
      <trkpt lat="44.48051" lon="1.3961">
        <ele>167.5</ele>
        <time>2021-10-02T12:47:58Z</time>
      </trkpt>
      <trkpt lat="44.48047" lon="1.39618">
        <ele>168.7</ele>
        <time>2021-10-02T12:48:00Z</time>
      </trkpt>
      <trkpt lat="44.48046" lon="1.3962">
        <ele>168.7</ele>
        <time>2021-10-02T12:48:01Z</time>
      </trkpt>
      <trkpt lat="44.48046" lon="1.39621">
        <ele>169</ele>
        <time>2021-10-02T12:48:02Z</time>
      </trkpt>
      <trkpt lat="44.48045" lon="1.39623">
        <ele>169</ele>
        <time>2021-10-02T12:48:03Z</time>
      </trkpt>
      <trkpt lat="44.48045" lon="1.39624">
        <ele>169</ele>
        <time>2021-10-02T12:48:05Z</time>
      </trkpt>
      <trkpt lat="44.48044" lon="1.39625">
        <ele>169.7</ele>
        <time>2021-10-02T12:48:06Z</time>
      </trkpt>
      <trkpt lat="44.48044" lon="1.39627">
        <ele>169.7</ele>
        <time>2021-10-02T12:48:07Z</time>
      </trkpt>
      <trkpt lat="44.48043" lon="1.39628">
        <ele>169.7</ele>
        <time>2021-10-02T12:48:08Z</time>
      </trkpt>
      <trkpt lat="44.48043" lon="1.39629">
        <ele>169.2</ele>
        <time>2021-10-02T12:48:10Z</time>
      </trkpt>
      <trkpt lat="44.48042" lon="1.39631">
        <ele>170</ele>
        <time>2021-10-02T12:48:11Z</time>
      </trkpt>
      <trkpt lat="44.48042" lon="1.39632">
        <ele>170</ele>
        <time>2021-10-02T12:48:12Z</time>
      </trkpt>
      <trkpt lat="44.48042" lon="1.39634">
        <ele>170</ele>
        <time>2021-10-02T12:48:14Z</time>
      </trkpt>
      <trkpt lat="44.48041" lon="1.39636">
        <ele>170.7</ele>
        <time>2021-10-02T12:48:15Z</time>
      </trkpt>
      <trkpt lat="44.48041" lon="1.39637">
        <ele>170.7</ele>
        <time>2021-10-02T12:48:17Z</time>
      </trkpt>
      <trkpt lat="44.48041" lon="1.39638">
        <ele>171.4</ele>
        <time>2021-10-02T12:48:18Z</time>
      </trkpt>
      <trkpt lat="44.48041" lon="1.39639">
        <ele>171.4</ele>
        <time>2021-10-02T12:48:19Z</time>
      </trkpt>
      <trkpt lat="44.48041" lon="1.3964">
        <ele>171.4</ele>
        <time>2021-10-02T12:48:20Z</time>
      </trkpt>
      <trkpt lat="44.48041" lon="1.3964">
        <ele>171.4</ele>
        <time>2021-10-02T12:48:21Z</time>
      </trkpt>
      <trkpt lat="44.4804" lon="1.39642">
        <ele>171.4</ele>
        <time>2021-10-02T12:48:23Z</time>
      </trkpt>
      <trkpt lat="44.4804" lon="1.39643">
        <ele>172.1</ele>
        <time>2021-10-02T12:48:25Z</time>
      </trkpt>
      <trkpt lat="44.4804" lon="1.39644">
        <ele>171.6</ele>
        <time>2021-10-02T12:48:26Z</time>
      </trkpt>
      <trkpt lat="44.4804" lon="1.39646">
        <ele>171.6</ele>
        <time>2021-10-02T12:48:28Z</time>
      </trkpt>
      <trkpt lat="44.4804" lon="1.39647">
        <ele>172.4</ele>
        <time>2021-10-02T12:48:29Z</time>
      </trkpt>
      <trkpt lat="44.4804" lon="1.39648">
        <ele>172.4</ele>
        <time>2021-10-02T12:48:30Z</time>
      </trkpt>
      <trkpt lat="44.48039" lon="1.39649">
        <ele>172.4</ele>
        <time>2021-10-02T12:48:32Z</time>
      </trkpt>
      <trkpt lat="44.48039" lon="1.3965">
        <ele>172.4</ele>
        <time>2021-10-02T12:48:33Z</time>
      </trkpt>
      <trkpt lat="44.48038" lon="1.39654">
        <ele>173.1</ele>
        <time>2021-10-02T12:48:34Z</time>
      </trkpt>
      <trkpt lat="44.48038" lon="1.39655">
        <ele>173.1</ele>
        <time>2021-10-02T12:48:35Z</time>
      </trkpt>
      <trkpt lat="44.48038" lon="1.39656">
        <ele>173.9</ele>
        <time>2021-10-02T12:48:37Z</time>
      </trkpt>
      <trkpt lat="44.48037" lon="1.39657">
        <ele>173.9</ele>
        <time>2021-10-02T12:48:39Z</time>
      </trkpt>
      <trkpt lat="44.48037" lon="1.39657">
        <ele>173.9</ele>
        <time>2021-10-02T12:48:41Z</time>
      </trkpt>
      <trkpt lat="44.48037" lon="1.39658">
        <ele>173.9</ele>
        <time>2021-10-02T12:48:42Z</time>
      </trkpt>
      <trkpt lat="44.48037" lon="1.39658">
        <ele>173.9</ele>
        <time>2021-10-02T12:48:43Z</time>
      </trkpt>
      <trkpt lat="44.48034" lon="1.39662">
        <ele>174.2</ele>
        <time>2021-10-02T12:48:47Z</time>
      </trkpt>
      <trkpt lat="44.48031" lon="1.39667">
        <ele>174.5</ele>
        <time>2021-10-02T12:48:48Z</time>
      </trkpt>
      <trkpt lat="44.4803" lon="1.39669">
        <ele>174.8</ele>
        <time>2021-10-02T12:48:50Z</time>
      </trkpt>
      <trkpt lat="44.4803" lon="1.3967">
        <ele>174.8</ele>
        <time>2021-10-02T12:48:51Z</time>
      </trkpt>
      <trkpt lat="44.48029" lon="1.3967">
        <ele>174.8</ele>
        <time>2021-10-02T12:48:53Z</time>
      </trkpt>
      <trkpt lat="44.48029" lon="1.3967">
        <ele>174.8</ele>
        <time>2021-10-02T12:48:54Z</time>
      </trkpt>
      <trkpt lat="44.48029" lon="1.39671">
        <ele>174.8</ele>
        <time>2021-10-02T12:48:56Z</time>
      </trkpt>
      <trkpt lat="44.48029" lon="1.39671">
        <ele>174.8</ele>
        <time>2021-10-02T12:48:57Z</time>
      </trkpt>
      <trkpt lat="44.48029" lon="1.39671">
        <ele>174.8</ele>
        <time>2021-10-02T12:48:59Z</time>
      </trkpt>
      <trkpt lat="44.48025" lon="1.39679">
        <ele>175.7</ele>
        <time>2021-10-02T12:49:06Z</time>
      </trkpt>
      <trkpt lat="44.48023" lon="1.39682">
        <ele>176</ele>
        <time>2021-10-02T12:49:07Z</time>
      </trkpt>
      <trkpt lat="44.48023" lon="1.39683">
        <ele>176</ele>
        <time>2021-10-02T12:49:09Z</time>
      </trkpt>
      <trkpt lat="44.48022" lon="1.39684">
        <ele>176</ele>
        <time>2021-10-02T12:49:10Z</time>
      </trkpt>
      <trkpt lat="44.48022" lon="1.39684">
        <ele>176</ele>
        <time>2021-10-02T12:49:12Z</time>
      </trkpt>
      <trkpt lat="44.48022" lon="1.39684">
        <ele>176</ele>
        <time>2021-10-02T12:49:13Z</time>
      </trkpt>
      <trkpt lat="44.48022" lon="1.39684">
        <ele>176</ele>
        <time>2021-10-02T12:49:15Z</time>
      </trkpt>
      <trkpt lat="44.48022" lon="1.39685">
        <ele>176</ele>
        <time>2021-10-02T12:49:16Z</time>
      </trkpt>
      <trkpt lat="44.48021" lon="1.39689">
        <ele>176.2</ele>
        <time>2021-10-02T12:49:18Z</time>
      </trkpt>
      <trkpt lat="44.48018" lon="1.39696">
        <ele>177.2</ele>
        <time>2021-10-02T12:49:19Z</time>
      </trkpt>
      <trkpt lat="44.48016" lon="1.397">
        <ele>177.9</ele>
        <time>2021-10-02T12:49:20Z</time>
      </trkpt>
      <trkpt lat="44.48016" lon="1.39702">
        <ele>177.9</ele>
        <time>2021-10-02T12:49:21Z</time>
      </trkpt>
      <trkpt lat="44.48015" lon="1.39704">
        <ele>178.3</ele>
        <time>2021-10-02T12:49:22Z</time>
      </trkpt>
      <trkpt lat="44.48015" lon="1.39706">
        <ele>178.3</ele>
        <time>2021-10-02T12:49:23Z</time>
      </trkpt>
      <trkpt lat="44.48015" lon="1.39708">
        <ele>178.9</ele>
        <time>2021-10-02T12:49:25Z</time>
      </trkpt>
      <trkpt lat="44.48014" lon="1.3971">
        <ele>178.9</ele>
        <time>2021-10-02T12:49:26Z</time>
      </trkpt>
      <trkpt lat="44.48013" lon="1.39713">
        <ele>179.6</ele>
        <time>2021-10-02T12:49:27Z</time>
      </trkpt>
      <trkpt lat="44.48013" lon="1.39715">
        <ele>179.6</ele>
        <time>2021-10-02T12:49:29Z</time>
      </trkpt>
      <trkpt lat="44.48012" lon="1.39717">
        <ele>179.9</ele>
        <time>2021-10-02T12:49:30Z</time>
      </trkpt>
      <trkpt lat="44.48012" lon="1.39719">
        <ele>179.9</ele>
        <time>2021-10-02T12:49:32Z</time>
      </trkpt>
      <trkpt lat="44.48011" lon="1.39721">
        <ele>180.6</ele>
        <time>2021-10-02T12:49:37Z</time>
      </trkpt>
      <trkpt lat="44.48011" lon="1.39723">
        <ele>180.6</ele>
        <time>2021-10-02T12:49:38Z</time>
      </trkpt>
      <trkpt lat="44.4801" lon="1.39725">
        <ele>181.2</ele>
        <time>2021-10-02T12:49:39Z</time>
      </trkpt>
      <trkpt lat="44.4801" lon="1.39726">
        <ele>181.2</ele>
        <time>2021-10-02T12:49:41Z</time>
      </trkpt>
      <trkpt lat="44.4801" lon="1.39728">
        <ele>181.2</ele>
        <time>2021-10-02T12:49:42Z</time>
      </trkpt>
      <trkpt lat="44.48009" lon="1.39729">
        <ele>181.5</ele>
        <time>2021-10-02T12:49:43Z</time>
      </trkpt>
      <trkpt lat="44.48009" lon="1.3973">
        <ele>181.5</ele>
        <time>2021-10-02T12:49:45Z</time>
      </trkpt>
      <trkpt lat="44.48009" lon="1.39731">
        <ele>181.5</ele>
        <time>2021-10-02T12:49:46Z</time>
      </trkpt>
      <trkpt lat="44.48009" lon="1.39732">
        <ele>181.5</ele>
        <time>2021-10-02T12:49:47Z</time>
      </trkpt>
      <trkpt lat="44.48007" lon="1.39739">
        <ele>182.8</ele>
        <time>2021-10-02T12:49:49Z</time>
      </trkpt>
      <trkpt lat="44.48006" lon="1.39741">
        <ele>183.2</ele>
        <time>2021-10-02T12:49:51Z</time>
      </trkpt>
      <trkpt lat="44.48005" lon="1.39742">
        <ele>183.2</ele>
        <time>2021-10-02T12:49:52Z</time>
      </trkpt>
      <trkpt lat="44.48005" lon="1.39743">
        <ele>183.2</ele>
        <time>2021-10-02T12:49:53Z</time>
      </trkpt>
      <trkpt lat="44.48004" lon="1.39748">
        <ele>183.9</ele>
        <time>2021-10-02T12:49:55Z</time>
      </trkpt>
      <trkpt lat="44.48004" lon="1.3975">
        <ele>184.6</ele>
        <time>2021-10-02T12:49:56Z</time>
      </trkpt>
      <trkpt lat="44.48004" lon="1.3975">
        <ele>184.6</ele>
        <time>2021-10-02T12:49:57Z</time>
      </trkpt>
      <trkpt lat="44.48003" lon="1.39757">
        <ele>185</ele>
        <time>2021-10-02T12:50:03Z</time>
      </trkpt>
      <trkpt lat="44.48004" lon="1.3976">
        <ele>185.9</ele>
        <time>2021-10-02T12:50:04Z</time>
      </trkpt>
      <trkpt lat="44.48003" lon="1.39767">
        <ele>186.1</ele>
        <time>2021-10-02T12:50:06Z</time>
      </trkpt>
      <trkpt lat="44.48001" lon="1.39772">
        <ele>187.2</ele>
        <time>2021-10-02T12:50:07Z</time>
      </trkpt>
      <trkpt lat="44.48001" lon="1.39777">
        <ele>187.7</ele>
        <time>2021-10-02T12:50:08Z</time>
      </trkpt>
      <trkpt lat="44.48001" lon="1.39779">
        <ele>187.7</ele>
        <time>2021-10-02T12:50:09Z</time>
      </trkpt>
      <trkpt lat="44.48001" lon="1.39783">
        <ele>188.3</ele>
        <time>2021-10-02T12:50:11Z</time>
      </trkpt>
      <trkpt lat="44.48001" lon="1.39785">
        <ele>188.9</ele>
        <time>2021-10-02T12:50:12Z</time>
      </trkpt>
      <trkpt lat="44.48" lon="1.39787">
        <ele>188.5</ele>
        <time>2021-10-02T12:50:13Z</time>
      </trkpt>
      <trkpt lat="44.47998" lon="1.39791">
        <ele>189.1</ele>
        <time>2021-10-02T12:50:15Z</time>
      </trkpt>
      <trkpt lat="44.47998" lon="1.39792">
        <ele>189.1</ele>
        <time>2021-10-02T12:50:16Z</time>
      </trkpt>
      <trkpt lat="44.47996" lon="1.39797">
        <ele>189.4</ele>
        <time>2021-10-02T12:50:17Z</time>
      </trkpt>
      <trkpt lat="44.47996" lon="1.39799">
        <ele>190</ele>
        <time>2021-10-02T12:50:18Z</time>
      </trkpt>
      <trkpt lat="44.47996" lon="1.39802">
        <ele>190.6</ele>
        <time>2021-10-02T12:50:20Z</time>
      </trkpt>
      <trkpt lat="44.47998" lon="1.39805">
        <ele>191</ele>
        <time>2021-10-02T12:50:22Z</time>
      </trkpt>
      <trkpt lat="44.47998" lon="1.39806">
        <ele>191.6</ele>
        <time>2021-10-02T12:50:24Z</time>
      </trkpt>
      <trkpt lat="44.47998" lon="1.39807">
        <ele>191.6</ele>
        <time>2021-10-02T12:50:26Z</time>
      </trkpt>
      <trkpt lat="44.47998" lon="1.39807">
        <ele>191.6</ele>
        <time>2021-10-02T12:50:27Z</time>
      </trkpt>
      <trkpt lat="44.47998" lon="1.39807">
        <ele>191.6</ele>
        <time>2021-10-02T12:50:29Z</time>
      </trkpt>
      <trkpt lat="44.47998" lon="1.39807">
        <ele>191.6</ele>
        <time>2021-10-02T12:50:30Z</time>
      </trkpt>
      <trkpt lat="44.47997" lon="1.39807">
        <ele>191.6</ele>
        <time>2021-10-02T12:50:31Z</time>
      </trkpt>
      <trkpt lat="44.47998" lon="1.39807">
        <ele>191.6</ele>
        <time>2021-10-02T12:50:32Z</time>
      </trkpt>
      <trkpt lat="44.47997" lon="1.3981">
        <ele>191.7</ele>
        <time>2021-10-02T12:52:48Z</time>
      </trkpt>
      <trkpt lat="44.47996" lon="1.39818">
        <ele>192.2</ele>
        <time>2021-10-02T12:52:50Z</time>
      </trkpt>
      <trkpt lat="44.47994" lon="1.39822">
        <ele>192.3</ele>
        <time>2021-10-02T12:52:52Z</time>
      </trkpt>
      <trkpt lat="44.47992" lon="1.39827">
        <ele>193.1</ele>
        <time>2021-10-02T12:52:54Z</time>
      </trkpt>
      <trkpt lat="44.47989" lon="1.39834">
        <ele>193.1</ele>
        <time>2021-10-02T12:52:56Z</time>
      </trkpt>
      <trkpt lat="44.47985" lon="1.39841">
        <ele>193.4</ele>
        <time>2021-10-02T12:52:58Z</time>
      </trkpt>
      <trkpt lat="44.4798" lon="1.39848">
        <ele>193.1</ele>
        <time>2021-10-02T12:53:00Z</time>
      </trkpt>
      <trkpt lat="44.47975" lon="1.39854">
        <ele>192.9</ele>
        <time>2021-10-02T12:53:02Z</time>
      </trkpt>
      <trkpt lat="44.47974" lon="1.39858">
        <ele>193</ele>
        <time>2021-10-02T12:53:03Z</time>
      </trkpt>
      <trkpt lat="44.47973" lon="1.3986">
        <ele>192.8</ele>
        <time>2021-10-02T12:53:04Z</time>
      </trkpt>
      <trkpt lat="44.47971" lon="1.39864">
        <ele>192.9</ele>
        <time>2021-10-02T12:53:06Z</time>
      </trkpt>
      <trkpt lat="44.4797" lon="1.39866">
        <ele>193</ele>
        <time>2021-10-02T12:53:07Z</time>
      </trkpt>
      <trkpt lat="44.47967" lon="1.39869">
        <ele>192.8</ele>
        <time>2021-10-02T12:53:09Z</time>
      </trkpt>
      <trkpt lat="44.47964" lon="1.39872">
        <ele>192.7</ele>
        <time>2021-10-02T12:53:11Z</time>
      </trkpt>
      <trkpt lat="44.47961" lon="1.39876">
        <ele>192.5</ele>
        <time>2021-10-02T12:53:13Z</time>
      </trkpt>
      <trkpt lat="44.47957" lon="1.3988">
        <ele>192.4</ele>
        <time>2021-10-02T12:53:15Z</time>
      </trkpt>
      <trkpt lat="44.47955" lon="1.39882">
        <ele>192.4</ele>
        <time>2021-10-02T12:53:16Z</time>
      </trkpt>
      <trkpt lat="44.47954" lon="1.39882">
        <ele>192.2</ele>
        <time>2021-10-02T12:53:17Z</time>
      </trkpt>
      <trkpt lat="44.47949" lon="1.39883">
        <ele>192.1</ele>
        <time>2021-10-02T12:53:19Z</time>
      </trkpt>
      <trkpt lat="44.47945" lon="1.39884">
        <ele>191.6</ele>
        <time>2021-10-02T12:53:20Z</time>
      </trkpt>
      <trkpt lat="44.47939" lon="1.39887">
        <ele>191</ele>
        <time>2021-10-02T12:53:22Z</time>
      </trkpt>
      <trkpt lat="44.47934" lon="1.3989">
        <ele>191</ele>
        <time>2021-10-02T12:53:24Z</time>
      </trkpt>
      <trkpt lat="44.4793" lon="1.39895">
        <ele>190.7</ele>
        <time>2021-10-02T12:53:26Z</time>
      </trkpt>
      <trkpt lat="44.47926" lon="1.399">
        <ele>190.9</ele>
        <time>2021-10-02T12:53:28Z</time>
      </trkpt>
      <trkpt lat="44.47922" lon="1.39904">
        <ele>190.6</ele>
        <time>2021-10-02T12:53:30Z</time>
      </trkpt>
      <trkpt lat="44.4792" lon="1.39906">
        <ele>190.5</ele>
        <time>2021-10-02T12:53:31Z</time>
      </trkpt>
      <trkpt lat="44.47914" lon="1.39909">
        <ele>190.1</ele>
        <time>2021-10-02T12:53:33Z</time>
      </trkpt>
      <trkpt lat="44.47912" lon="1.39911">
        <ele>190.1</ele>
        <time>2021-10-02T12:53:34Z</time>
      </trkpt>
      <trkpt lat="44.47906" lon="1.39914">
        <ele>189.6</ele>
        <time>2021-10-02T12:53:36Z</time>
      </trkpt>
      <trkpt lat="44.47903" lon="1.39915">
        <ele>189.3</ele>
        <time>2021-10-02T12:53:37Z</time>
      </trkpt>
      <trkpt lat="44.47898" lon="1.39917">
        <ele>189</ele>
        <time>2021-10-02T12:53:39Z</time>
      </trkpt>
      <trkpt lat="44.47892" lon="1.39919">
        <ele>188.4</ele>
        <time>2021-10-02T12:53:41Z</time>
      </trkpt>
      <trkpt lat="44.47885" lon="1.39924">
        <ele>188.3</ele>
        <time>2021-10-02T12:53:43Z</time>
      </trkpt>
      <trkpt lat="44.47882" lon="1.39927">
        <ele>188.5</ele>
        <time>2021-10-02T12:53:44Z</time>
      </trkpt>
      <trkpt lat="44.47879" lon="1.39929">
        <ele>188.2</ele>
        <time>2021-10-02T12:53:45Z</time>
      </trkpt>
      <trkpt lat="44.47876" lon="1.39931">
        <ele>188.5</ele>
        <time>2021-10-02T12:53:46Z</time>
      </trkpt>
      <trkpt lat="44.47873" lon="1.39933">
        <ele>188.2</ele>
        <time>2021-10-02T12:53:47Z</time>
      </trkpt>
      <trkpt lat="44.47867" lon="1.39936">
        <ele>188.2</ele>
        <time>2021-10-02T12:53:49Z</time>
      </trkpt>
      <trkpt lat="44.47865" lon="1.39938">
        <ele>187.9</ele>
        <time>2021-10-02T12:53:50Z</time>
      </trkpt>
      <trkpt lat="44.4786" lon="1.39939">
        <ele>188.1</ele>
        <time>2021-10-02T12:53:52Z</time>
      </trkpt>
      <trkpt lat="44.47852" lon="1.39941">
        <ele>187.4</ele>
        <time>2021-10-02T12:53:53Z</time>
      </trkpt>
      <trkpt lat="44.47847" lon="1.39944">
        <ele>187.7</ele>
        <time>2021-10-02T12:53:55Z</time>
      </trkpt>
      <trkpt lat="44.47841" lon="1.39947">
        <ele>188.2</ele>
        <time>2021-10-02T12:53:56Z</time>
      </trkpt>
      <trkpt lat="44.47837" lon="1.39951">
        <ele>188.1</ele>
        <time>2021-10-02T12:53:57Z</time>
      </trkpt>
      <trkpt lat="44.47834" lon="1.39952">
        <ele>188.8</ele>
        <time>2021-10-02T12:53:58Z</time>
      </trkpt>
      <trkpt lat="44.4783" lon="1.39953">
        <ele>188.8</ele>
        <time>2021-10-02T12:54:00Z</time>
      </trkpt>
      <trkpt lat="44.47823" lon="1.39956">
        <ele>189.5</ele>
        <time>2021-10-02T12:54:02Z</time>
      </trkpt>
      <trkpt lat="44.47818" lon="1.39958">
        <ele>189.6</ele>
        <time>2021-10-02T12:54:03Z</time>
      </trkpt>
      <trkpt lat="44.47813" lon="1.39958">
        <ele>189.8</ele>
        <time>2021-10-02T12:54:04Z</time>
      </trkpt>
      <trkpt lat="44.47808" lon="1.39958">
        <ele>189.9</ele>
        <time>2021-10-02T12:54:06Z</time>
      </trkpt>
      <trkpt lat="44.47804" lon="1.39957">
        <ele>190.3</ele>
        <time>2021-10-02T12:54:07Z</time>
      </trkpt>
      <trkpt lat="44.47801" lon="1.39954">
        <ele>189.7</ele>
        <time>2021-10-02T12:54:08Z</time>
      </trkpt>
      <trkpt lat="44.47796" lon="1.39952">
        <ele>189.9</ele>
        <time>2021-10-02T12:54:09Z</time>
      </trkpt>
      <trkpt lat="44.47789" lon="1.39952">
        <ele>190.3</ele>
        <time>2021-10-02T12:54:11Z</time>
      </trkpt>
      <trkpt lat="44.47785" lon="1.39952">
        <ele>190.8</ele>
        <time>2021-10-02T12:54:12Z</time>
      </trkpt>
      <trkpt lat="44.47781" lon="1.39954">
        <ele>191</ele>
        <time>2021-10-02T12:54:13Z</time>
      </trkpt>
      <trkpt lat="44.47779" lon="1.39954">
        <ele>191.3</ele>
        <time>2021-10-02T12:54:14Z</time>
      </trkpt>
      <trkpt lat="44.47776" lon="1.39955">
        <ele>191.6</ele>
        <time>2021-10-02T12:54:16Z</time>
      </trkpt>
      <trkpt lat="44.47773" lon="1.39955">
        <ele>191.9</ele>
        <time>2021-10-02T12:54:17Z</time>
      </trkpt>
      <trkpt lat="44.47768" lon="1.39955">
        <ele>192.2</ele>
        <time>2021-10-02T12:54:19Z</time>
      </trkpt>
      <trkpt lat="44.47765" lon="1.39956">
        <ele>192.4</ele>
        <time>2021-10-02T12:54:20Z</time>
      </trkpt>
      <trkpt lat="44.4776" lon="1.39955">
        <ele>193</ele>
        <time>2021-10-02T12:54:22Z</time>
      </trkpt>
      <trkpt lat="44.47756" lon="1.39956">
        <ele>194</ele>
        <time>2021-10-02T12:54:23Z</time>
      </trkpt>
      <trkpt lat="44.47752" lon="1.39958">
        <ele>194.5</ele>
        <time>2021-10-02T12:54:25Z</time>
      </trkpt>
      <trkpt lat="44.47751" lon="1.39956">
        <ele>194.5</ele>
        <time>2021-10-02T12:54:26Z</time>
      </trkpt>
      <trkpt lat="44.47749" lon="1.39954">
        <ele>194.1</ele>
        <time>2021-10-02T12:54:28Z</time>
      </trkpt>
      <trkpt lat="44.47746" lon="1.39952">
        <ele>194.3</ele>
        <time>2021-10-02T12:54:29Z</time>
      </trkpt>
      <trkpt lat="44.47744" lon="1.39952">
        <ele>194.3</ele>
        <time>2021-10-02T12:54:30Z</time>
      </trkpt>
      <trkpt lat="44.47741" lon="1.39952">
        <ele>194.6</ele>
        <time>2021-10-02T12:54:32Z</time>
      </trkpt>
      <trkpt lat="44.47741" lon="1.39952">
        <ele>194.6</ele>
        <time>2021-10-02T12:54:33Z</time>
      </trkpt>
      <trkpt lat="44.47739" lon="1.39952">
        <ele>194.8</ele>
        <time>2021-10-02T12:54:35Z</time>
      </trkpt>
      <trkpt lat="44.47738" lon="1.39953">
        <ele>194.8</ele>
        <time>2021-10-02T12:54:36Z</time>
      </trkpt>
      <trkpt lat="44.47737" lon="1.39954">
        <ele>195.1</ele>
        <time>2021-10-02T12:54:38Z</time>
      </trkpt>
      <trkpt lat="44.47735" lon="1.39954">
        <ele>195.1</ele>
        <time>2021-10-02T12:54:40Z</time>
      </trkpt>
      <trkpt lat="44.47732" lon="1.39955">
        <ele>195.4</ele>
        <time>2021-10-02T12:54:41Z</time>
      </trkpt>
      <trkpt lat="44.4773" lon="1.39955">
        <ele>195.6</ele>
        <time>2021-10-02T12:54:42Z</time>
      </trkpt>
      <trkpt lat="44.47728" lon="1.39956">
        <ele>196.6</ele>
        <time>2021-10-02T12:54:44Z</time>
      </trkpt>
      <trkpt lat="44.47726" lon="1.39956">
        <ele>196.6</ele>
        <time>2021-10-02T12:54:45Z</time>
      </trkpt>
      <trkpt lat="44.47724" lon="1.39956">
        <ele>196.9</ele>
        <time>2021-10-02T12:54:46Z</time>
      </trkpt>
      <trkpt lat="44.47722" lon="1.39957">
        <ele>196.9</ele>
        <time>2021-10-02T12:54:47Z</time>
      </trkpt>
      <trkpt lat="44.4772" lon="1.39957">
        <ele>197.1</ele>
        <time>2021-10-02T12:54:49Z</time>
      </trkpt>
      <trkpt lat="44.47718" lon="1.39957">
        <ele>197.3</ele>
        <time>2021-10-02T12:54:50Z</time>
      </trkpt>
      <trkpt lat="44.47714" lon="1.39957">
        <ele>197.5</ele>
        <time>2021-10-02T12:54:52Z</time>
      </trkpt>
      <trkpt lat="44.47709" lon="1.39958">
        <ele>197.8</ele>
        <time>2021-10-02T12:54:54Z</time>
      </trkpt>
      <trkpt lat="44.47705" lon="1.39959">
        <ele>197.9</ele>
        <time>2021-10-02T12:54:55Z</time>
      </trkpt>
      <trkpt lat="44.47701" lon="1.39961">
        <ele>198.3</ele>
        <time>2021-10-02T12:54:56Z</time>
      </trkpt>
      <trkpt lat="44.47698" lon="1.39966">
        <ele>198.6</ele>
        <time>2021-10-02T12:54:58Z</time>
      </trkpt>
      <trkpt lat="44.47698" lon="1.39968">
        <ele>198.8</ele>
        <time>2021-10-02T12:54:59Z</time>
      </trkpt>
      <trkpt lat="44.47697" lon="1.3997">
        <ele>198.7</ele>
        <time>2021-10-02T12:55:00Z</time>
      </trkpt>
      <trkpt lat="44.47696" lon="1.39974">
        <ele>198.8</ele>
        <time>2021-10-02T12:55:01Z</time>
      </trkpt>
      <trkpt lat="44.47694" lon="1.39977">
        <ele>198.7</ele>
        <time>2021-10-02T12:55:02Z</time>
      </trkpt>
      <trkpt lat="44.47693" lon="1.39978">
        <ele>198.7</ele>
        <time>2021-10-02T12:55:04Z</time>
      </trkpt>
      <trkpt lat="44.47692" lon="1.3998">
        <ele>198.7</ele>
        <time>2021-10-02T12:55:05Z</time>
      </trkpt>
      <trkpt lat="44.4769" lon="1.3998">
        <ele>198.6</ele>
        <time>2021-10-02T12:55:06Z</time>
      </trkpt>
      <trkpt lat="44.47689" lon="1.39981">
        <ele>198.6</ele>
        <time>2021-10-02T12:55:08Z</time>
      </trkpt>
      <trkpt lat="44.47688" lon="1.39981">
        <ele>198.5</ele>
        <time>2021-10-02T12:55:09Z</time>
      </trkpt>
      <trkpt lat="44.47687" lon="1.39981">
        <ele>198.5</ele>
        <time>2021-10-02T12:55:11Z</time>
      </trkpt>
      <trkpt lat="44.47686" lon="1.39981">
        <ele>198.5</ele>
        <time>2021-10-02T12:55:12Z</time>
      </trkpt>
      <trkpt lat="44.47685" lon="1.39982">
        <ele>198.5</ele>
        <time>2021-10-02T12:55:14Z</time>
      </trkpt>
      <trkpt lat="44.47684" lon="1.39982">
        <ele>198.5</ele>
        <time>2021-10-02T12:55:16Z</time>
      </trkpt>
      <trkpt lat="44.47683" lon="1.39982">
        <ele>198.5</ele>
        <time>2021-10-02T12:55:55Z</time>
      </trkpt>
      <trkpt lat="44.47682" lon="1.39982">
        <ele>198.5</ele>
        <time>2021-10-02T12:55:56Z</time>
      </trkpt>
      <trkpt lat="44.47681" lon="1.39983">
        <ele>198.5</ele>
        <time>2021-10-02T12:55:57Z</time>
      </trkpt>
      <trkpt lat="44.47677" lon="1.39983">
        <ele>198.5</ele>
        <time>2021-10-02T12:55:58Z</time>
      </trkpt>
      <trkpt lat="44.47673" lon="1.39986">
        <ele>198.5</ele>
        <time>2021-10-02T12:56:00Z</time>
      </trkpt>
      <trkpt lat="44.47671" lon="1.39987">
        <ele>198.5</ele>
        <time>2021-10-02T12:56:01Z</time>
      </trkpt>
      <trkpt lat="44.47668" lon="1.39988">
        <ele>198.6</ele>
        <time>2021-10-02T12:56:02Z</time>
      </trkpt>
      <trkpt lat="44.47663" lon="1.3999">
        <ele>198.6</ele>
        <time>2021-10-02T12:56:04Z</time>
      </trkpt>
      <trkpt lat="44.47659" lon="1.39993">
        <ele>198.5</ele>
        <time>2021-10-02T12:56:05Z</time>
      </trkpt>
      <trkpt lat="44.47657" lon="1.39997">
        <ele>198.4</ele>
        <time>2021-10-02T12:56:07Z</time>
      </trkpt>
      <trkpt lat="44.47657" lon="1.40001">
        <ele>198.4</ele>
        <time>2021-10-02T12:56:08Z</time>
      </trkpt>
      <trkpt lat="44.47657" lon="1.40009">
        <ele>198.2</ele>
        <time>2021-10-02T12:56:10Z</time>
      </trkpt>
      <trkpt lat="44.4766" lon="1.40012">
        <ele>198.1</ele>
        <time>2021-10-02T12:56:11Z</time>
      </trkpt>
      <trkpt lat="44.47662" lon="1.40017">
        <ele>197.9</ele>
        <time>2021-10-02T12:56:12Z</time>
      </trkpt>
      <trkpt lat="44.47663" lon="1.40021">
        <ele>197.8</ele>
        <time>2021-10-02T12:56:13Z</time>
      </trkpt>
      <trkpt lat="44.47661" lon="1.40025">
        <ele>197.6</ele>
        <time>2021-10-02T12:56:15Z</time>
      </trkpt>
      <trkpt lat="44.47657" lon="1.40027">
        <ele>197.7</ele>
        <time>2021-10-02T12:56:16Z</time>
      </trkpt>
      <trkpt lat="44.47657" lon="1.40034">
        <ele>197.4</ele>
        <time>2021-10-02T12:56:17Z</time>
      </trkpt>
      <trkpt lat="44.47652" lon="1.40035">
        <ele>197.4</ele>
        <time>2021-10-02T12:56:19Z</time>
      </trkpt>
      <trkpt lat="44.47649" lon="1.40036">
        <ele>197.4</ele>
        <time>2021-10-02T12:56:20Z</time>
      </trkpt>
      <trkpt lat="44.47646" lon="1.4004">
        <ele>197.2</ele>
        <time>2021-10-02T12:56:21Z</time>
      </trkpt>
      <trkpt lat="44.47643" lon="1.40044">
        <ele>197</ele>
        <time>2021-10-02T12:56:23Z</time>
      </trkpt>
      <trkpt lat="44.47639" lon="1.40046">
        <ele>196.7</ele>
        <time>2021-10-02T12:56:24Z</time>
      </trkpt>
      <trkpt lat="44.47634" lon="1.40045">
        <ele>196.7</ele>
        <time>2021-10-02T12:56:25Z</time>
      </trkpt>
      <trkpt lat="44.47627" lon="1.40042">
        <ele>196.3</ele>
        <time>2021-10-02T12:56:27Z</time>
      </trkpt>
      <trkpt lat="44.47623" lon="1.40041">
        <ele>195.9</ele>
        <time>2021-10-02T12:56:28Z</time>
      </trkpt>
      <trkpt lat="44.47615" lon="1.4004">
        <ele>195.4</ele>
        <time>2021-10-02T12:56:30Z</time>
      </trkpt>
      <trkpt lat="44.47609" lon="1.40037">
        <ele>194.7</ele>
        <time>2021-10-02T12:56:32Z</time>
      </trkpt>
      <trkpt lat="44.47605" lon="1.40039">
        <ele>194.4</ele>
        <time>2021-10-02T12:56:33Z</time>
      </trkpt>
      <trkpt lat="44.47599" lon="1.40044">
        <ele>193.9</ele>
        <time>2021-10-02T12:56:34Z</time>
      </trkpt>
      <trkpt lat="44.47596" lon="1.4005">
        <ele>193.8</ele>
        <time>2021-10-02T12:56:36Z</time>
      </trkpt>
      <trkpt lat="44.47593" lon="1.40057">
        <ele>193.9</ele>
        <time>2021-10-02T12:56:37Z</time>
      </trkpt>
      <trkpt lat="44.47588" lon="1.40061">
        <ele>194</ele>
        <time>2021-10-02T12:56:39Z</time>
      </trkpt>
      <trkpt lat="44.47584" lon="1.40069">
        <ele>194.2</ele>
        <time>2021-10-02T12:56:40Z</time>
      </trkpt>
      <trkpt lat="44.47581" lon="1.40076">
        <ele>194.6</ele>
        <time>2021-10-02T12:56:42Z</time>
      </trkpt>
      <trkpt lat="44.4758" lon="1.40078">
        <ele>194.6</ele>
        <time>2021-10-02T12:56:43Z</time>
      </trkpt>
      <trkpt lat="44.47577" lon="1.40078">
        <ele>194.5</ele>
        <time>2021-10-02T12:56:45Z</time>
      </trkpt>
      <trkpt lat="44.47572" lon="1.40078">
        <ele>194.4</ele>
        <time>2021-10-02T12:56:46Z</time>
      </trkpt>
      <trkpt lat="44.4757" lon="1.40079">
        <ele>194.3</ele>
        <time>2021-10-02T12:56:47Z</time>
      </trkpt>
      <trkpt lat="44.47566" lon="1.40082">
        <ele>194.5</ele>
        <time>2021-10-02T12:56:48Z</time>
      </trkpt>
      <trkpt lat="44.47561" lon="1.40085">
        <ele>194.6</ele>
        <time>2021-10-02T12:56:49Z</time>
      </trkpt>
      <trkpt lat="44.47556" lon="1.40091">
        <ele>194.7</ele>
        <time>2021-10-02T12:56:50Z</time>
      </trkpt>
      <trkpt lat="44.47552" lon="1.40096">
        <ele>194.9</ele>
        <time>2021-10-02T12:56:51Z</time>
      </trkpt>
      <trkpt lat="44.47547" lon="1.40096">
        <ele>194.8</ele>
        <time>2021-10-02T12:56:53Z</time>
      </trkpt>
      <trkpt lat="44.47543" lon="1.40096">
        <ele>194.7</ele>
        <time>2021-10-02T12:56:54Z</time>
      </trkpt>
      <trkpt lat="44.4754" lon="1.40097">
        <ele>194.6</ele>
        <time>2021-10-02T12:56:55Z</time>
      </trkpt>
      <trkpt lat="44.47536" lon="1.401">
        <ele>194.7</ele>
        <time>2021-10-02T12:56:56Z</time>
      </trkpt>
      <trkpt lat="44.47533" lon="1.40103">
        <ele>194.8</ele>
        <time>2021-10-02T12:56:58Z</time>
      </trkpt>
      <trkpt lat="44.47531" lon="1.40103">
        <ele>194.7</ele>
        <time>2021-10-02T12:56:59Z</time>
      </trkpt>
      <trkpt lat="44.4753" lon="1.40103">
        <ele>194.7</ele>
        <time>2021-10-02T12:57:01Z</time>
      </trkpt>
      <trkpt lat="44.47529" lon="1.40103">
        <ele>194.6</ele>
        <time>2021-10-02T12:57:02Z</time>
      </trkpt>
      <trkpt lat="44.47527" lon="1.40103">
        <ele>194.6</ele>
        <time>2021-10-02T12:57:03Z</time>
      </trkpt>
      <trkpt lat="44.47526" lon="1.40103">
        <ele>194.6</ele>
        <time>2021-10-02T12:57:05Z</time>
      </trkpt>
      <trkpt lat="44.47525" lon="1.40103">
        <ele>194.5</ele>
        <time>2021-10-02T12:57:06Z</time>
      </trkpt>
      <trkpt lat="44.47524" lon="1.40103">
        <ele>194.5</ele>
        <time>2021-10-02T12:57:07Z</time>
      </trkpt>
      <trkpt lat="44.47522" lon="1.40103">
        <ele>194.5</ele>
        <time>2021-10-02T12:57:09Z</time>
      </trkpt>
      <trkpt lat="44.47521" lon="1.40103">
        <ele>194.5</ele>
        <time>2021-10-02T12:58:13Z</time>
      </trkpt>
      <trkpt lat="44.4752" lon="1.40103">
        <ele>194.5</ele>
        <time>2021-10-02T12:58:14Z</time>
      </trkpt>
      <trkpt lat="44.47516" lon="1.40103">
        <ele>194.5</ele>
        <time>2021-10-02T12:58:15Z</time>
      </trkpt>
      <trkpt lat="44.47511" lon="1.40102">
        <ele>194.6</ele>
        <time>2021-10-02T12:58:16Z</time>
      </trkpt>
      <trkpt lat="44.47507" lon="1.401">
        <ele>194.7</ele>
        <time>2021-10-02T12:58:17Z</time>
      </trkpt>
      <trkpt lat="44.47503" lon="1.40099">
        <ele>194.9</ele>
        <time>2021-10-02T12:58:19Z</time>
      </trkpt>
      <trkpt lat="44.47498" lon="1.40097">
        <ele>194.9</ele>
        <time>2021-10-02T12:58:20Z</time>
      </trkpt>
      <trkpt lat="44.47495" lon="1.40098">
        <ele>195.8</ele>
        <time>2021-10-02T12:58:21Z</time>
      </trkpt>
      <trkpt lat="44.47492" lon="1.401">
        <ele>196.2</ele>
        <time>2021-10-02T12:58:22Z</time>
      </trkpt>
      <trkpt lat="44.47489" lon="1.40101">
        <ele>196.5</ele>
        <time>2021-10-02T12:58:24Z</time>
      </trkpt>
      <trkpt lat="44.47488" lon="1.40102">
        <ele>196.8</ele>
        <time>2021-10-02T12:58:25Z</time>
      </trkpt>
      <trkpt lat="44.47486" lon="1.40102">
        <ele>197.1</ele>
        <time>2021-10-02T12:58:26Z</time>
      </trkpt>
      <trkpt lat="44.47484" lon="1.40101">
        <ele>196.8</ele>
        <time>2021-10-02T12:58:27Z</time>
      </trkpt>
      <trkpt lat="44.47483" lon="1.40098">
        <ele>197.1</ele>
        <time>2021-10-02T12:58:29Z</time>
      </trkpt>
      <trkpt lat="44.4748" lon="1.40095">
        <ele>197.2</ele>
        <time>2021-10-02T12:58:30Z</time>
      </trkpt>
      <trkpt lat="44.47475" lon="1.40092">
        <ele>197.3</ele>
        <time>2021-10-02T12:58:32Z</time>
      </trkpt>
      <trkpt lat="44.47471" lon="1.40088">
        <ele>197.4</ele>
        <time>2021-10-02T12:58:34Z</time>
      </trkpt>
      <trkpt lat="44.4747" lon="1.40083">
        <ele>197.7</ele>
        <time>2021-10-02T12:58:35Z</time>
      </trkpt>
      <trkpt lat="44.47469" lon="1.40081">
        <ele>197.7</ele>
        <time>2021-10-02T12:58:36Z</time>
      </trkpt>
      <trkpt lat="44.47467" lon="1.40078">
        <ele>197.9</ele>
        <time>2021-10-02T12:58:38Z</time>
      </trkpt>
      <trkpt lat="44.47463" lon="1.40076">
        <ele>198.4</ele>
        <time>2021-10-02T12:58:39Z</time>
      </trkpt>
      <trkpt lat="44.47461" lon="1.40075">
        <ele>198.7</ele>
        <time>2021-10-02T12:58:40Z</time>
      </trkpt>
      <trkpt lat="44.47459" lon="1.40073">
        <ele>198.7</ele>
        <time>2021-10-02T12:58:42Z</time>
      </trkpt>
      <trkpt lat="44.47456" lon="1.40071">
        <ele>198.9</ele>
        <time>2021-10-02T12:58:44Z</time>
      </trkpt>
      <trkpt lat="44.47453" lon="1.4007">
        <ele>199.4</ele>
        <time>2021-10-02T12:58:45Z</time>
      </trkpt>
      <trkpt lat="44.47452" lon="1.40069">
        <ele>199.9</ele>
        <time>2021-10-02T12:58:46Z</time>
      </trkpt>
      <trkpt lat="44.4745" lon="1.40067">
        <ele>199.9</ele>
        <time>2021-10-02T12:58:48Z</time>
      </trkpt>
      <trkpt lat="44.47449" lon="1.40067">
        <ele>200.3</ele>
        <time>2021-10-02T12:58:49Z</time>
      </trkpt>
      <trkpt lat="44.47449" lon="1.40066">
        <ele>200.3</ele>
        <time>2021-10-02T12:58:50Z</time>
      </trkpt>
      <trkpt lat="44.47449" lon="1.40064">
        <ele>200.3</ele>
        <time>2021-10-02T12:58:51Z</time>
      </trkpt>
      <trkpt lat="44.47447" lon="1.40062">
        <ele>200.1</ele>
        <time>2021-10-02T12:58:53Z</time>
      </trkpt>
      <trkpt lat="44.47445" lon="1.40056">
        <ele>200.4</ele>
        <time>2021-10-02T12:58:54Z</time>
      </trkpt>
      <trkpt lat="44.47444" lon="1.40054">
        <ele>200.2</ele>
        <time>2021-10-02T12:58:55Z</time>
      </trkpt>
      <trkpt lat="44.47443" lon="1.40053">
        <ele>200.2</ele>
        <time>2021-10-02T12:58:57Z</time>
      </trkpt>
      <trkpt lat="44.47443" lon="1.4005">
        <ele>200.5</ele>
        <time>2021-10-02T12:58:58Z</time>
      </trkpt>
      <trkpt lat="44.47442" lon="1.40048">
        <ele>200.5</ele>
        <time>2021-10-02T12:59:00Z</time>
      </trkpt>
      <trkpt lat="44.47442" lon="1.40047">
        <ele>200.5</ele>
        <time>2021-10-02T12:59:02Z</time>
      </trkpt>
      <trkpt lat="44.47442" lon="1.40047">
        <ele>200.5</ele>
        <time>2021-10-02T12:59:04Z</time>
      </trkpt>
      <trkpt lat="44.47442" lon="1.40046">
        <ele>200.5</ele>
        <time>2021-10-02T12:59:05Z</time>
      </trkpt>
      <trkpt lat="44.47442" lon="1.40046">
        <ele>200.5</ele>
        <time>2021-10-02T12:59:06Z</time>
      </trkpt>
      <trkpt lat="44.47441" lon="1.40046">
        <ele>200.5</ele>
        <time>2021-10-02T12:59:07Z</time>
      </trkpt>
      <trkpt lat="44.47436" lon="1.40034">
        <ele>200.8</ele>
        <time>2021-10-02T12:59:18Z</time>
      </trkpt>
      <trkpt lat="44.47434" lon="1.40037">
        <ele>201.3</ele>
        <time>2021-10-02T12:59:20Z</time>
      </trkpt>
      <trkpt lat="44.47431" lon="1.4004">
        <ele>201.6</ele>
        <time>2021-10-02T12:59:21Z</time>
      </trkpt>
      <trkpt lat="44.47428" lon="1.40042">
        <ele>202.5</ele>
        <time>2021-10-02T12:59:22Z</time>
      </trkpt>
      <trkpt lat="44.47427" lon="1.40043">
        <ele>203</ele>
        <time>2021-10-02T12:59:23Z</time>
      </trkpt>
      <trkpt lat="44.47424" lon="1.40045">
        <ele>203.6</ele>
        <time>2021-10-02T12:59:25Z</time>
      </trkpt>
      <trkpt lat="44.47424" lon="1.40045">
        <ele>203.6</ele>
        <time>2021-10-02T12:59:26Z</time>
      </trkpt>
      <trkpt lat="44.47421" lon="1.40048">
        <ele>204.4</ele>
        <time>2021-10-02T12:59:27Z</time>
      </trkpt>
      <trkpt lat="44.47419" lon="1.4005">
        <ele>204.4</ele>
        <time>2021-10-02T12:59:29Z</time>
      </trkpt>
      <trkpt lat="44.47418" lon="1.40051">
        <ele>205.3</ele>
        <time>2021-10-02T12:59:30Z</time>
      </trkpt>
      <trkpt lat="44.47415" lon="1.40052">
        <ele>205.9</ele>
        <time>2021-10-02T12:59:32Z</time>
      </trkpt>
      <trkpt lat="44.47412" lon="1.40052">
        <ele>206.5</ele>
        <time>2021-10-02T12:59:34Z</time>
      </trkpt>
      <trkpt lat="44.47411" lon="1.40053">
        <ele>206.5</ele>
        <time>2021-10-02T12:59:36Z</time>
      </trkpt>
      <trkpt lat="44.47411" lon="1.40053">
        <ele>206.5</ele>
        <time>2021-10-02T12:59:37Z</time>
      </trkpt>
      <trkpt lat="44.47411" lon="1.40053">
        <ele>206.5</ele>
        <time>2021-10-02T12:59:38Z</time>
      </trkpt>
      <trkpt lat="44.47411" lon="1.40053">
        <ele>206.5</ele>
        <time>2021-10-02T12:59:40Z</time>
      </trkpt>
      <trkpt lat="44.4741" lon="1.40053">
        <ele>206.5</ele>
        <time>2021-10-02T12:59:42Z</time>
      </trkpt>
      <trkpt lat="44.4741" lon="1.40053">
        <ele>206.5</ele>
        <time>2021-10-02T12:59:43Z</time>
      </trkpt>
      <trkpt lat="44.4741" lon="1.40053">
        <ele>206.5</ele>
        <time>2021-10-02T12:59:45Z</time>
      </trkpt>
      <trkpt lat="44.4741" lon="1.40053">
        <ele>206.5</ele>
        <time>2021-10-02T12:59:46Z</time>
      </trkpt>
      <trkpt lat="44.47403" lon="1.40059">
        <ele>208.9</ele>
        <time>2021-10-02T13:00:15Z</time>
      </trkpt>
      <trkpt lat="44.47401" lon="1.40059">
        <ele>208.9</ele>
        <time>2021-10-02T13:00:16Z</time>
      </trkpt>
      <trkpt lat="44.474" lon="1.4006">
        <ele>209.6</ele>
        <time>2021-10-02T13:00:18Z</time>
      </trkpt>
      <trkpt lat="44.47399" lon="1.40061">
        <ele>209.6</ele>
        <time>2021-10-02T13:00:19Z</time>
      </trkpt>
      <trkpt lat="44.47399" lon="1.40062">
        <ele>209.6</ele>
        <time>2021-10-02T13:00:21Z</time>
      </trkpt>
      <trkpt lat="44.47399" lon="1.40062">
        <ele>209.6</ele>
        <time>2021-10-02T13:00:22Z</time>
      </trkpt>
      <trkpt lat="44.47399" lon="1.40062">
        <ele>209.6</ele>
        <time>2021-10-02T13:00:23Z</time>
      </trkpt>
      <trkpt lat="44.47399" lon="1.40062">
        <ele>209.6</ele>
        <time>2021-10-02T13:00:25Z</time>
      </trkpt>
      <trkpt lat="44.47399" lon="1.40062">
        <ele>209.6</ele>
        <time>2021-10-02T13:00:26Z</time>
      </trkpt>
      <trkpt lat="44.47391" lon="1.40067">
        <ele>212</ele>
        <time>2021-10-02T13:00:29Z</time>
      </trkpt>
      <trkpt lat="44.47388" lon="1.40067">
        <ele>212.6</ele>
        <time>2021-10-02T13:00:31Z</time>
      </trkpt>
      <trkpt lat="44.47387" lon="1.40067">
        <ele>212.6</ele>
        <time>2021-10-02T13:00:32Z</time>
      </trkpt>
      <trkpt lat="44.47386" lon="1.40066">
        <ele>212.6</ele>
        <time>2021-10-02T13:00:34Z</time>
      </trkpt>
      <trkpt lat="44.47385" lon="1.40066">
        <ele>212.6</ele>
        <time>2021-10-02T13:00:35Z</time>
      </trkpt>
      <trkpt lat="44.47384" lon="1.40065">
        <ele>213.3</ele>
        <time>2021-10-02T13:00:36Z</time>
      </trkpt>
      <trkpt lat="44.47384" lon="1.40065">
        <ele>213.3</ele>
        <time>2021-10-02T13:00:37Z</time>
      </trkpt>
      <trkpt lat="44.47382" lon="1.40065">
        <ele>213.3</ele>
        <time>2021-10-02T13:00:39Z</time>
      </trkpt>
      <trkpt lat="44.4738" lon="1.40064">
        <ele>213.9</ele>
        <time>2021-10-02T13:00:41Z</time>
      </trkpt>
      <trkpt lat="44.47379" lon="1.40063">
        <ele>213.9</ele>
        <time>2021-10-02T13:00:43Z</time>
      </trkpt>
      <trkpt lat="44.47379" lon="1.40063">
        <ele>213.4</ele>
        <time>2021-10-02T13:00:44Z</time>
      </trkpt>
      <trkpt lat="44.47379" lon="1.40062">
        <ele>213.9</ele>
        <time>2021-10-02T13:00:46Z</time>
      </trkpt>
      <trkpt lat="44.47386" lon="1.40043">
        <ele>210.4</ele>
        <time>2021-10-02T13:01:20Z</time>
      </trkpt>
      <trkpt lat="44.47389" lon="1.40041">
        <ele>209.5</ele>
        <time>2021-10-02T13:01:21Z</time>
      </trkpt>
      <trkpt lat="44.47389" lon="1.40041">
        <ele>209.5</ele>
        <time>2021-10-02T13:01:22Z</time>
      </trkpt>
      <trkpt lat="44.4739" lon="1.4004">
        <ele>209.5</ele>
        <time>2021-10-02T13:01:23Z</time>
      </trkpt>
      <trkpt lat="44.4739" lon="1.4004">
        <ele>209.5</ele>
        <time>2021-10-02T13:01:24Z</time>
      </trkpt>
      <trkpt lat="44.4739" lon="1.4004">
        <ele>209.5</ele>
        <time>2021-10-02T13:01:26Z</time>
      </trkpt>
      <trkpt lat="44.47392" lon="1.4004">
        <ele>208.9</ele>
        <time>2021-10-02T13:01:27Z</time>
      </trkpt>
      <trkpt lat="44.47397" lon="1.4004">
        <ele>208.3</ele>
        <time>2021-10-02T13:01:29Z</time>
      </trkpt>
      <trkpt lat="44.47398" lon="1.4004">
        <ele>207.8</ele>
        <time>2021-10-02T13:01:30Z</time>
      </trkpt>
      <trkpt lat="44.47399" lon="1.4004">
        <ele>207.8</ele>
        <time>2021-10-02T13:01:31Z</time>
      </trkpt>
      <trkpt lat="44.47399" lon="1.4004">
        <ele>207.8</ele>
        <time>2021-10-02T13:01:32Z</time>
      </trkpt>
      <trkpt lat="44.474" lon="1.4004">
        <ele>207.8</ele>
        <time>2021-10-02T13:01:34Z</time>
      </trkpt>
      <trkpt lat="44.474" lon="1.4004">
        <ele>207.2</ele>
        <time>2021-10-02T13:01:35Z</time>
      </trkpt>
      <trkpt lat="44.474" lon="1.4004">
        <ele>207.2</ele>
        <time>2021-10-02T13:01:37Z</time>
      </trkpt>
      <trkpt lat="44.47401" lon="1.4004">
        <ele>207.2</ele>
        <time>2021-10-02T13:01:39Z</time>
      </trkpt>
      <trkpt lat="44.47401" lon="1.4004">
        <ele>207.2</ele>
        <time>2021-10-02T13:01:40Z</time>
      </trkpt>
      <trkpt lat="44.47401" lon="1.4004">
        <ele>207.2</ele>
        <time>2021-10-02T13:01:41Z</time>
      </trkpt>
      <trkpt lat="44.47401" lon="1.4004">
        <ele>207.2</ele>
        <time>2021-10-02T13:01:54Z</time>
      </trkpt>
      <trkpt lat="44.47401" lon="1.4004">
        <ele>207.2</ele>
        <time>2021-10-02T13:01:55Z</time>
      </trkpt>
      <trkpt lat="44.47401" lon="1.4004">
        <ele>207.2</ele>
        <time>2021-10-02T13:01:56Z</time>
      </trkpt>
      <trkpt lat="44.47403" lon="1.4004">
        <ele>207.2</ele>
        <time>2021-10-02T13:01:58Z</time>
      </trkpt>
      <trkpt lat="44.47405" lon="1.40039">
        <ele>206.7</ele>
        <time>2021-10-02T13:02:00Z</time>
      </trkpt>
      <trkpt lat="44.47407" lon="1.40039">
        <ele>206.1</ele>
        <time>2021-10-02T13:02:02Z</time>
      </trkpt>
      <trkpt lat="44.47409" lon="1.40039">
        <ele>206.1</ele>
        <time>2021-10-02T13:02:03Z</time>
      </trkpt>
      <trkpt lat="44.47411" lon="1.40039">
        <ele>205.6</ele>
        <time>2021-10-02T13:02:05Z</time>
      </trkpt>
      <trkpt lat="44.47413" lon="1.40038">
        <ele>205</ele>
        <time>2021-10-02T13:02:07Z</time>
      </trkpt>
      <trkpt lat="44.47415" lon="1.40038">
        <ele>205</ele>
        <time>2021-10-02T13:02:45Z</time>
      </trkpt>
      <trkpt lat="44.47417" lon="1.40038">
        <ele>204.4</ele>
        <time>2021-10-02T13:02:46Z</time>
      </trkpt>
      <trkpt lat="44.47422" lon="1.40036">
        <ele>203</ele>
        <time>2021-10-02T13:02:48Z</time>
      </trkpt>
      <trkpt lat="44.47429" lon="1.40035">
        <ele>201.9</ele>
        <time>2021-10-02T13:02:49Z</time>
      </trkpt>
      <trkpt lat="44.47437" lon="1.40033">
        <ele>200.2</ele>
        <time>2021-10-02T13:02:51Z</time>
      </trkpt>
      <trkpt lat="44.47443" lon="1.40032">
        <ele>199.3</ele>
        <time>2021-10-02T13:02:52Z</time>
      </trkpt>
      <trkpt lat="44.47447" lon="1.40031">
        <ele>198.1</ele>
        <time>2021-10-02T13:02:53Z</time>
      </trkpt>
      <trkpt lat="44.47451" lon="1.40029">
        <ele>197.5</ele>
        <time>2021-10-02T13:02:55Z</time>
      </trkpt>
      <trkpt lat="44.47454" lon="1.40027">
        <ele>196.6</ele>
        <time>2021-10-02T13:02:56Z</time>
      </trkpt>
      <trkpt lat="44.47458" lon="1.40027">
        <ele>196.1</ele>
        <time>2021-10-02T13:02:57Z</time>
      </trkpt>
      <trkpt lat="44.47464" lon="1.4003">
        <ele>195.5</ele>
        <time>2021-10-02T13:02:58Z</time>
      </trkpt>
      <trkpt lat="44.47471" lon="1.40037">
        <ele>194.7</ele>
        <time>2021-10-02T13:03:00Z</time>
      </trkpt>
      <trkpt lat="44.47474" lon="1.40042">
        <ele>194.5</ele>
        <time>2021-10-02T13:03:01Z</time>
      </trkpt>
      <trkpt lat="44.47481" lon="1.40045">
        <ele>193.7</ele>
        <time>2021-10-02T13:03:02Z</time>
      </trkpt>
      <trkpt lat="44.47486" lon="1.40043">
        <ele>193.4</ele>
        <time>2021-10-02T13:03:03Z</time>
      </trkpt>
      <trkpt lat="44.47488" lon="1.40034">
        <ele>192.5</ele>
        <time>2021-10-02T13:03:05Z</time>
      </trkpt>
      <trkpt lat="44.47484" lon="1.40018">
        <ele>191.3</ele>
        <time>2021-10-02T13:03:06Z</time>
      </trkpt>
      <trkpt lat="44.47478" lon="1.40006">
        <ele>190.8</ele>
        <time>2021-10-02T13:03:09Z</time>
      </trkpt>
      <trkpt lat="44.47478" lon="1.40003">
        <ele>190.4</ele>
        <time>2021-10-02T13:03:10Z</time>
      </trkpt>
      <trkpt lat="44.47478" lon="1.40005">
        <ele>190.8</ele>
        <time>2021-10-02T13:03:12Z</time>
      </trkpt>
      <trkpt lat="44.47477" lon="1.40005">
        <ele>190.8</ele>
        <time>2021-10-02T13:03:14Z</time>
      </trkpt>
      <trkpt lat="44.47477" lon="1.40006">
        <ele>190.8</ele>
        <time>2021-10-02T13:03:15Z</time>
      </trkpt>
      <trkpt lat="44.47477" lon="1.40006">
        <ele>190.8</ele>
        <time>2021-10-02T13:03:17Z</time>
      </trkpt>
      <trkpt lat="44.47477" lon="1.40006">
        <ele>190.8</ele>
        <time>2021-10-02T13:03:18Z</time>
      </trkpt>
      <trkpt lat="44.47477" lon="1.40006">
        <ele>190.8</ele>
        <time>2021-10-02T13:03:20Z</time>
      </trkpt>
      <trkpt lat="44.47481" lon="1.40023">
        <ele>192</ele>
        <time>2021-10-02T13:03:29Z</time>
      </trkpt>
      <trkpt lat="44.47482" lon="1.40028">
        <ele>192.4</ele>
        <time>2021-10-02T13:03:30Z</time>
      </trkpt>
      <trkpt lat="44.47482" lon="1.4003">
        <ele>192.8</ele>
        <time>2021-10-02T13:03:32Z</time>
      </trkpt>
      <trkpt lat="44.47481" lon="1.40032">
        <ele>192.8</ele>
        <time>2021-10-02T13:03:33Z</time>
      </trkpt>
      <trkpt lat="44.47482" lon="1.40037">
        <ele>193.1</ele>
        <time>2021-10-02T13:03:35Z</time>
      </trkpt>
      <trkpt lat="44.47482" lon="1.40039">
        <ele>193.4</ele>
        <time>2021-10-02T13:03:36Z</time>
      </trkpt>
      <trkpt lat="44.47481" lon="1.40041">
        <ele>193.4</ele>
        <time>2021-10-02T13:03:38Z</time>
      </trkpt>
      <trkpt lat="44.4748" lon="1.40042">
        <ele>194</ele>
        <time>2021-10-02T13:03:39Z</time>
      </trkpt>
      <trkpt lat="44.47479" lon="1.40043">
        <ele>194</ele>
        <time>2021-10-02T13:03:40Z</time>
      </trkpt>
      <trkpt lat="44.47475" lon="1.40042">
        <ele>194.5</ele>
        <time>2021-10-02T13:03:41Z</time>
      </trkpt>
      <trkpt lat="44.47474" lon="1.40041">
        <ele>194.2</ele>
        <time>2021-10-02T13:03:43Z</time>
      </trkpt>
      <trkpt lat="44.47473" lon="1.40041">
        <ele>194.7</ele>
        <time>2021-10-02T13:03:44Z</time>
      </trkpt>
      <trkpt lat="44.47472" lon="1.40041">
        <ele>194.7</ele>
        <time>2021-10-02T13:03:45Z</time>
      </trkpt>
      <trkpt lat="44.47471" lon="1.40038">
        <ele>194.7</ele>
        <time>2021-10-02T13:03:46Z</time>
      </trkpt>
      <trkpt lat="44.47469" lon="1.40036">
        <ele>194.9</ele>
        <time>2021-10-02T13:03:48Z</time>
      </trkpt>
      <trkpt lat="44.47465" lon="1.40036">
        <ele>195.4</ele>
        <time>2021-10-02T13:03:49Z</time>
      </trkpt>
      <trkpt lat="44.47462" lon="1.40036">
        <ele>195.9</ele>
        <time>2021-10-02T13:03:50Z</time>
      </trkpt>
      <trkpt lat="44.47459" lon="1.40036">
        <ele>196.3</ele>
        <time>2021-10-02T13:03:52Z</time>
      </trkpt>
      <trkpt lat="44.47457" lon="1.40036">
        <ele>196.8</ele>
        <time>2021-10-02T13:03:53Z</time>
      </trkpt>
      <trkpt lat="44.47455" lon="1.40038">
        <ele>197.6</ele>
        <time>2021-10-02T13:03:55Z</time>
      </trkpt>
      <trkpt lat="44.47454" lon="1.40038">
        <ele>197.6</ele>
        <time>2021-10-02T13:03:56Z</time>
      </trkpt>
      <trkpt lat="44.47451" lon="1.4004">
        <ele>198.2</ele>
        <time>2021-10-02T13:03:57Z</time>
      </trkpt>
      <trkpt lat="44.47449" lon="1.4004">
        <ele>198.2</ele>
        <time>2021-10-02T13:03:58Z</time>
      </trkpt>
      <trkpt lat="44.4745" lon="1.4004">
        <ele>198.2</ele>
        <time>2021-10-02T13:04:00Z</time>
      </trkpt>
      <trkpt lat="44.47449" lon="1.4004">
        <ele>198.8</ele>
        <time>2021-10-02T13:04:01Z</time>
      </trkpt>
      <trkpt lat="44.47448" lon="1.4004">
        <ele>198.8</ele>
        <time>2021-10-02T13:04:02Z</time>
      </trkpt>
      <trkpt lat="44.47448" lon="1.4004">
        <ele>198.8</ele>
        <time>2021-10-02T13:04:04Z</time>
      </trkpt>
      <trkpt lat="44.47447" lon="1.4004">
        <ele>198.8</ele>
        <time>2021-10-02T13:04:05Z</time>
      </trkpt>
      <trkpt lat="44.47447" lon="1.4004">
        <ele>198.8</ele>
        <time>2021-10-02T13:04:06Z</time>
      </trkpt>
      <trkpt lat="44.47447" lon="1.4004">
        <ele>198.8</ele>
        <time>2021-10-02T13:04:08Z</time>
      </trkpt>
      <trkpt lat="44.47433" lon="1.40039">
        <ele>201.6</ele>
        <time>2021-10-02T13:04:42Z</time>
      </trkpt>
      <trkpt lat="44.47429" lon="1.40042">
        <ele>202.5</ele>
        <time>2021-10-02T13:04:44Z</time>
      </trkpt>
      <trkpt lat="44.47428" lon="1.40043">
        <ele>202.5</ele>
        <time>2021-10-02T13:04:45Z</time>
      </trkpt>
      <trkpt lat="44.47428" lon="1.40043">
        <ele>203</ele>
        <time>2021-10-02T13:04:47Z</time>
      </trkpt>
      <trkpt lat="44.47428" lon="1.40043">
        <ele>203</ele>
        <time>2021-10-02T13:04:48Z</time>
      </trkpt>
      <trkpt lat="44.47428" lon="1.40043">
        <ele>203</ele>
        <time>2021-10-02T13:04:49Z</time>
      </trkpt>
      <trkpt lat="44.47428" lon="1.40043">
        <ele>203</ele>
        <time>2021-10-02T13:04:50Z</time>
      </trkpt>
      <trkpt lat="44.47428" lon="1.40043">
        <ele>203</ele>
        <time>2021-10-02T13:04:52Z</time>
      </trkpt>
      <trkpt lat="44.47428" lon="1.40043">
        <ele>203</ele>
        <time>2021-10-02T13:04:53Z</time>
      </trkpt>
      <trkpt lat="44.47427" lon="1.40043">
        <ele>203</ele>
        <time>2021-10-02T13:04:55Z</time>
      </trkpt>
      <trkpt lat="44.47427" lon="1.40043">
        <ele>203</ele>
        <time>2021-10-02T13:04:56Z</time>
      </trkpt>
      <trkpt lat="44.47427" lon="1.40043">
        <ele>203</ele>
        <time>2021-10-02T13:04:58Z</time>
      </trkpt>
      <trkpt lat="44.47427" lon="1.40043">
        <ele>203</ele>
        <time>2021-10-02T13:04:59Z</time>
      </trkpt>
      <trkpt lat="44.47427" lon="1.40043">
        <ele>203</ele>
        <time>2021-10-02T13:05:00Z</time>
      </trkpt>
      <trkpt lat="44.47427" lon="1.40043">
        <ele>203</ele>
        <time>2021-10-02T13:05:02Z</time>
      </trkpt>
      <trkpt lat="44.47427" lon="1.40043">
        <ele>203</ele>
        <time>2021-10-02T13:05:03Z</time>
      </trkpt>
      <trkpt lat="44.47427" lon="1.40044">
        <ele>203</ele>
        <time>2021-10-02T13:05:05Z</time>
      </trkpt>
      <trkpt lat="44.47427" lon="1.40044">
        <ele>203</ele>
        <time>2021-10-02T13:05:07Z</time>
      </trkpt>
      <trkpt lat="44.47427" lon="1.40044">
        <ele>203</ele>
        <time>2021-10-02T13:05:09Z</time>
      </trkpt>
      <trkpt lat="44.47427" lon="1.40044">
        <ele>203</ele>
        <time>2021-10-02T13:05:11Z</time>
      </trkpt>
      <trkpt lat="44.47427" lon="1.40044">
        <ele>203</ele>
        <time>2021-10-02T13:05:12Z</time>
      </trkpt>
      <trkpt lat="44.47427" lon="1.40044">
        <ele>203</ele>
        <time>2021-10-02T13:05:14Z</time>
      </trkpt>
      <trkpt lat="44.47427" lon="1.40044">
        <ele>203</ele>
        <time>2021-10-02T13:05:15Z</time>
      </trkpt>
      <trkpt lat="44.47427" lon="1.40044">
        <ele>203</ele>
        <time>2021-10-02T13:05:17Z</time>
      </trkpt>
      <trkpt lat="44.47427" lon="1.40044">
        <ele>203</ele>
        <time>2021-10-02T13:05:19Z</time>
      </trkpt>
      <trkpt lat="44.47427" lon="1.40044">
        <ele>203</ele>
        <time>2021-10-02T13:05:21Z</time>
      </trkpt>
      <trkpt lat="44.47427" lon="1.40044">
        <ele>203</ele>
        <time>2021-10-02T13:05:22Z</time>
      </trkpt>
      <trkpt lat="44.47427" lon="1.40044">
        <ele>203</ele>
        <time>2021-10-02T13:05:23Z</time>
      </trkpt>
      <trkpt lat="44.47427" lon="1.40044">
        <ele>203</ele>
        <time>2021-10-02T13:05:24Z</time>
      </trkpt>
      <trkpt lat="44.47427" lon="1.40044">
        <ele>203</ele>
        <time>2021-10-02T13:05:26Z</time>
      </trkpt>
      <trkpt lat="44.47427" lon="1.40044">
        <ele>203</ele>
        <time>2021-10-02T13:05:27Z</time>
      </trkpt>
      <trkpt lat="44.47426" lon="1.40044">
        <ele>203</ele>
        <time>2021-10-02T13:05:29Z</time>
      </trkpt>
      <trkpt lat="44.47426" lon="1.40044">
        <ele>203</ele>
        <time>2021-10-02T13:05:30Z</time>
      </trkpt>
      <trkpt lat="44.47426" lon="1.40044">
        <ele>203</ele>
        <time>2021-10-02T13:05:32Z</time>
      </trkpt>
      <trkpt lat="44.47426" lon="1.40044">
        <ele>203</ele>
        <time>2021-10-02T13:05:33Z</time>
      </trkpt>
      <trkpt lat="44.47426" lon="1.40044">
        <ele>203</ele>
        <time>2021-10-02T13:05:34Z</time>
      </trkpt>
      <trkpt lat="44.47426" lon="1.40044">
        <ele>203</ele>
        <time>2021-10-02T13:05:35Z</time>
      </trkpt>
      <trkpt lat="44.47426" lon="1.40044">
        <ele>203</ele>
        <time>2021-10-02T13:05:37Z</time>
      </trkpt>
      <trkpt lat="44.47426" lon="1.40044">
        <ele>203</ele>
        <time>2021-10-02T13:05:39Z</time>
      </trkpt>
      <trkpt lat="44.47426" lon="1.40044">
        <ele>203</ele>
        <time>2021-10-02T13:05:40Z</time>
      </trkpt>
      <trkpt lat="44.47426" lon="1.40044">
        <ele>203</ele>
        <time>2021-10-02T13:05:41Z</time>
      </trkpt>
      <trkpt lat="44.47426" lon="1.40044">
        <ele>203</ele>
        <time>2021-10-02T13:05:43Z</time>
      </trkpt>
      <trkpt lat="44.47426" lon="1.40044">
        <ele>203</ele>
        <time>2021-10-02T13:05:45Z</time>
      </trkpt>
      <trkpt lat="44.47426" lon="1.40044">
        <ele>203</ele>
        <time>2021-10-02T13:05:47Z</time>
      </trkpt>
      <trkpt lat="44.47426" lon="1.40044">
        <ele>203</ele>
        <time>2021-10-02T13:05:49Z</time>
      </trkpt>
      <trkpt lat="44.47426" lon="1.40044">
        <ele>203</ele>
        <time>2021-10-02T13:05:50Z</time>
      </trkpt>
      <trkpt lat="44.47426" lon="1.40044">
        <ele>203</ele>
        <time>2021-10-02T13:05:52Z</time>
      </trkpt>
      <trkpt lat="44.47426" lon="1.40044">
        <ele>203</ele>
        <time>2021-10-02T13:05:54Z</time>
      </trkpt>
      <trkpt lat="44.47426" lon="1.40045">
        <ele>203</ele>
        <time>2021-10-02T13:05:55Z</time>
      </trkpt>
      <trkpt lat="44.47426" lon="1.40045">
        <ele>203</ele>
        <time>2021-10-02T13:05:56Z</time>
      </trkpt>
      <trkpt lat="44.47426" lon="1.40045">
        <ele>203</ele>
        <time>2021-10-02T13:05:58Z</time>
      </trkpt>
      <trkpt lat="44.47426" lon="1.40045">
        <ele>203</ele>
        <time>2021-10-02T13:05:59Z</time>
      </trkpt>
      <trkpt lat="44.47425" lon="1.40045">
        <ele>203</ele>
        <time>2021-10-02T13:06:01Z</time>
      </trkpt>
      <trkpt lat="44.47425" lon="1.40045">
        <ele>203</ele>
        <time>2021-10-02T13:06:02Z</time>
      </trkpt>
      <trkpt lat="44.47425" lon="1.40045">
        <ele>203</ele>
        <time>2021-10-02T13:06:03Z</time>
      </trkpt>
      <trkpt lat="44.47425" lon="1.40045">
        <ele>203</ele>
        <time>2021-10-02T13:06:05Z</time>
      </trkpt>
      <trkpt lat="44.47425" lon="1.40045">
        <ele>203</ele>
        <time>2021-10-02T13:06:06Z</time>
      </trkpt>
      <trkpt lat="44.47425" lon="1.40045">
        <ele>203</ele>
        <time>2021-10-02T13:06:08Z</time>
      </trkpt>
      <trkpt lat="44.47425" lon="1.40045">
        <ele>203</ele>
        <time>2021-10-02T13:06:09Z</time>
      </trkpt>
      <trkpt lat="44.47425" lon="1.40045">
        <ele>203</ele>
        <time>2021-10-02T13:06:11Z</time>
      </trkpt>
      <trkpt lat="44.47425" lon="1.40045">
        <ele>203</ele>
        <time>2021-10-02T13:06:12Z</time>
      </trkpt>
      <trkpt lat="44.47425" lon="1.40045">
        <ele>203</ele>
        <time>2021-10-02T13:06:14Z</time>
      </trkpt>
      <trkpt lat="44.47425" lon="1.40045">
        <ele>203</ele>
        <time>2021-10-02T13:06:16Z</time>
      </trkpt>
      <trkpt lat="44.47425" lon="1.40045">
        <ele>203</ele>
        <time>2021-10-02T13:06:18Z</time>
      </trkpt>
      <trkpt lat="44.47425" lon="1.40045">
        <ele>203</ele>
        <time>2021-10-02T13:06:20Z</time>
      </trkpt>
      <trkpt lat="44.47425" lon="1.40045">
        <ele>203</ele>
        <time>2021-10-02T13:06:21Z</time>
      </trkpt>
      <trkpt lat="44.47425" lon="1.40045">
        <ele>203</ele>
        <time>2021-10-02T13:06:22Z</time>
      </trkpt>
      <trkpt lat="44.47425" lon="1.40045">
        <ele>203</ele>
        <time>2021-10-02T13:06:23Z</time>
      </trkpt>
      <trkpt lat="44.47425" lon="1.40045">
        <ele>203</ele>
        <time>2021-10-02T13:06:24Z</time>
      </trkpt>
      <trkpt lat="44.47425" lon="1.40045">
        <ele>203.6</ele>
        <time>2021-10-02T13:06:26Z</time>
      </trkpt>
      <trkpt lat="44.47425" lon="1.40045">
        <ele>203.6</ele>
        <time>2021-10-02T13:06:28Z</time>
      </trkpt>
      <trkpt lat="44.47425" lon="1.40045">
        <ele>203.6</ele>
        <time>2021-10-02T13:06:29Z</time>
      </trkpt>
      <trkpt lat="44.47425" lon="1.40045">
        <ele>203.6</ele>
        <time>2021-10-02T13:06:31Z</time>
      </trkpt>
      <trkpt lat="44.47425" lon="1.40045">
        <ele>203.6</ele>
        <time>2021-10-02T13:06:32Z</time>
      </trkpt>
      <trkpt lat="44.47424" lon="1.40045">
        <ele>203.6</ele>
        <time>2021-10-02T13:06:33Z</time>
      </trkpt>
      <trkpt lat="44.47424" lon="1.40045">
        <ele>203.6</ele>
        <time>2021-10-02T13:06:35Z</time>
      </trkpt>
      <trkpt lat="44.47424" lon="1.40045">
        <ele>203.6</ele>
        <time>2021-10-02T13:06:36Z</time>
      </trkpt>
      <trkpt lat="44.47424" lon="1.40045">
        <ele>203.6</ele>
        <time>2021-10-02T13:06:38Z</time>
      </trkpt>
      <trkpt lat="44.47424" lon="1.40045">
        <ele>203.6</ele>
        <time>2021-10-02T13:06:39Z</time>
      </trkpt>
      <trkpt lat="44.47424" lon="1.40045">
        <ele>203.6</ele>
        <time>2021-10-02T13:06:41Z</time>
      </trkpt>
      <trkpt lat="44.47424" lon="1.40046">
        <ele>203.6</ele>
        <time>2021-10-02T13:06:42Z</time>
      </trkpt>
      <trkpt lat="44.47424" lon="1.40046">
        <ele>203.6</ele>
        <time>2021-10-02T13:06:44Z</time>
      </trkpt>
      <trkpt lat="44.47424" lon="1.40046">
        <ele>203.6</ele>
        <time>2021-10-02T13:06:46Z</time>
      </trkpt>
      <trkpt lat="44.47424" lon="1.40046">
        <ele>203.6</ele>
        <time>2021-10-02T13:06:47Z</time>
      </trkpt>
      <trkpt lat="44.47424" lon="1.40046">
        <ele>203.6</ele>
        <time>2021-10-02T13:06:49Z</time>
      </trkpt>
      <trkpt lat="44.47424" lon="1.40046">
        <ele>203.6</ele>
        <time>2021-10-02T13:06:50Z</time>
      </trkpt>
      <trkpt lat="44.47424" lon="1.40046">
        <ele>203.8</ele>
        <time>2021-10-02T13:06:51Z</time>
      </trkpt>
      <trkpt lat="44.47424" lon="1.40046">
        <ele>203.8</ele>
        <time>2021-10-02T13:06:53Z</time>
      </trkpt>
      <trkpt lat="44.47424" lon="1.40046">
        <ele>203.8</ele>
        <time>2021-10-02T13:06:54Z</time>
      </trkpt>
      <trkpt lat="44.47424" lon="1.40046">
        <ele>203.8</ele>
        <time>2021-10-02T13:06:56Z</time>
      </trkpt>
      <trkpt lat="44.47424" lon="1.40046">
        <ele>203.8</ele>
        <time>2021-10-02T13:06:57Z</time>
      </trkpt>
      <trkpt lat="44.47424" lon="1.40046">
        <ele>203.8</ele>
        <time>2021-10-02T13:06:59Z</time>
      </trkpt>
      <trkpt lat="44.47424" lon="1.40046">
        <ele>203.8</ele>
        <time>2021-10-02T13:07:01Z</time>
      </trkpt>
      <trkpt lat="44.47424" lon="1.40046">
        <ele>203.8</ele>
        <time>2021-10-02T13:07:02Z</time>
      </trkpt>
      <trkpt lat="44.47424" lon="1.40046">
        <ele>203.8</ele>
        <time>2021-10-02T13:07:03Z</time>
      </trkpt>
      <trkpt lat="44.47423" lon="1.40046">
        <ele>203.8</ele>
        <time>2021-10-02T13:07:05Z</time>
      </trkpt>
      <trkpt lat="44.47423" lon="1.40046">
        <ele>203.8</ele>
        <time>2021-10-02T13:07:06Z</time>
      </trkpt>
      <trkpt lat="44.47423" lon="1.40046">
        <ele>203.8</ele>
        <time>2021-10-02T13:07:07Z</time>
      </trkpt>
      <trkpt lat="44.47423" lon="1.40046">
        <ele>203.8</ele>
        <time>2021-10-02T13:07:09Z</time>
      </trkpt>
      <trkpt lat="44.47423" lon="1.40046">
        <ele>203.8</ele>
        <time>2021-10-02T13:07:10Z</time>
      </trkpt>
      <trkpt lat="44.47423" lon="1.40046">
        <ele>203.8</ele>
        <time>2021-10-02T13:07:11Z</time>
      </trkpt>
      <trkpt lat="44.47418" lon="1.40048">
        <ele>205</ele>
        <time>2021-10-02T13:07:13Z</time>
      </trkpt>
      <trkpt lat="44.47416" lon="1.40049">
        <ele>205</ele>
        <time>2021-10-02T13:07:15Z</time>
      </trkpt>
      <trkpt lat="44.47415" lon="1.40051">
        <ele>205.9</ele>
        <time>2021-10-02T13:07:16Z</time>
      </trkpt>
      <trkpt lat="44.47414" lon="1.40052">
        <ele>205.9</ele>
        <time>2021-10-02T13:07:18Z</time>
      </trkpt>
      <trkpt lat="44.47413" lon="1.40053">
        <ele>205.9</ele>
        <time>2021-10-02T13:07:19Z</time>
      </trkpt>
      <trkpt lat="44.47412" lon="1.40055">
        <ele>206.8</ele>
        <time>2021-10-02T13:07:21Z</time>
      </trkpt>
      <trkpt lat="44.47411" lon="1.40056">
        <ele>206.8</ele>
        <time>2021-10-02T13:08:38Z</time>
      </trkpt>
      <trkpt lat="44.4741" lon="1.40057">
        <ele>206.8</ele>
        <time>2021-10-02T13:08:39Z</time>
      </trkpt>
      <trkpt lat="44.47409" lon="1.40058">
        <ele>207.4</ele>
        <time>2021-10-02T13:08:41Z</time>
      </trkpt>
      <trkpt lat="44.47409" lon="1.40059">
        <ele>207.4</ele>
        <time>2021-10-02T13:08:42Z</time>
      </trkpt>
      <trkpt lat="44.47408" lon="1.40059">
        <ele>207.7</ele>
        <time>2021-10-02T13:08:43Z</time>
      </trkpt>
      <trkpt lat="44.47408" lon="1.40059">
        <ele>207.7</ele>
        <time>2021-10-02T13:08:45Z</time>
      </trkpt>
      <trkpt lat="44.47408" lon="1.40059">
        <ele>207.7</ele>
        <time>2021-10-02T13:08:46Z</time>
      </trkpt>
      <trkpt lat="44.47408" lon="1.40059">
        <ele>207.7</ele>
        <time>2021-10-02T13:08:48Z</time>
      </trkpt>
      <trkpt lat="44.47408" lon="1.40059">
        <ele>207.7</ele>
        <time>2021-10-02T13:08:49Z</time>
      </trkpt>
      <trkpt lat="44.47405" lon="1.40061">
        <ele>208.3</ele>
        <time>2021-10-02T13:08:51Z</time>
      </trkpt>
      <trkpt lat="44.47399" lon="1.40063">
        <ele>209.9</ele>
        <time>2021-10-02T13:08:53Z</time>
      </trkpt>
      <trkpt lat="44.47398" lon="1.40063">
        <ele>209.9</ele>
        <time>2021-10-02T13:08:54Z</time>
      </trkpt>
      <trkpt lat="44.47396" lon="1.40064">
        <ele>210.6</ele>
        <time>2021-10-02T13:08:56Z</time>
      </trkpt>
      <trkpt lat="44.47395" lon="1.40064">
        <ele>210.6</ele>
        <time>2021-10-02T13:08:57Z</time>
      </trkpt>
      <trkpt lat="44.47395" lon="1.40064">
        <ele>210.6</ele>
        <time>2021-10-02T13:08:59Z</time>
      </trkpt>
      <trkpt lat="44.47395" lon="1.40065">
        <ele>210.6</ele>
        <time>2021-10-02T13:09:01Z</time>
      </trkpt>
      <trkpt lat="44.47392" lon="1.40068">
        <ele>211.7</ele>
        <time>2021-10-02T13:09:03Z</time>
      </trkpt>
      <trkpt lat="44.47388" lon="1.40073">
        <ele>213.4</ele>
        <time>2021-10-02T13:09:05Z</time>
      </trkpt>
      <trkpt lat="44.47387" lon="1.40077">
        <ele>213.7</ele>
        <time>2021-10-02T13:09:06Z</time>
      </trkpt>
      <trkpt lat="44.47387" lon="1.40079">
        <ele>213.7</ele>
        <time>2021-10-02T13:09:07Z</time>
      </trkpt>
      <trkpt lat="44.47387" lon="1.40084">
        <ele>214</ele>
        <time>2021-10-02T13:09:08Z</time>
      </trkpt>
      <trkpt lat="44.47387" lon="1.40086">
        <ele>214.2</ele>
        <time>2021-10-02T13:09:09Z</time>
      </trkpt>
      <trkpt lat="44.47386" lon="1.40091">
        <ele>214.3</ele>
        <time>2021-10-02T13:09:11Z</time>
      </trkpt>
      <trkpt lat="44.47384" lon="1.40093">
        <ele>215.1</ele>
        <time>2021-10-02T13:09:12Z</time>
      </trkpt>
      <trkpt lat="44.4738" lon="1.40095">
        <ele>215.8</ele>
        <time>2021-10-02T13:09:14Z</time>
      </trkpt>
      <trkpt lat="44.47379" lon="1.40093">
        <ele>215.8</ele>
        <time>2021-10-02T13:09:15Z</time>
      </trkpt>
      <trkpt lat="44.47377" lon="1.40092">
        <ele>216.4</ele>
        <time>2021-10-02T13:09:17Z</time>
      </trkpt>
      <trkpt lat="44.47377" lon="1.40092">
        <ele>216.4</ele>
        <time>2021-10-02T13:09:18Z</time>
      </trkpt>
      <trkpt lat="44.47377" lon="1.40092">
        <ele>216.4</ele>
        <time>2021-10-02T13:09:20Z</time>
      </trkpt>
      <trkpt lat="44.47377" lon="1.40092">
        <ele>216.4</ele>
        <time>2021-10-02T13:09:21Z</time>
      </trkpt>
      <trkpt lat="44.47376" lon="1.40093">
        <ele>216.4</ele>
        <time>2021-10-02T13:09:22Z</time>
      </trkpt>
      <trkpt lat="44.47376" lon="1.40093">
        <ele>216.4</ele>
        <time>2021-10-02T13:09:24Z</time>
      </trkpt>
      <trkpt lat="44.47376" lon="1.40093">
        <ele>216.4</ele>
        <time>2021-10-02T13:09:25Z</time>
      </trkpt>
      <trkpt lat="44.47374" lon="1.40089">
        <ele>217</ele>
        <time>2021-10-02T13:09:29Z</time>
      </trkpt>
      <trkpt lat="44.47372" lon="1.40084">
        <ele>217</ele>
        <time>2021-10-02T13:09:30Z</time>
      </trkpt>
      <trkpt lat="44.4737" lon="1.40078">
        <ele>216.7</ele>
        <time>2021-10-02T13:09:31Z</time>
      </trkpt>
      <trkpt lat="44.47369" lon="1.40074">
        <ele>216.7</ele>
        <time>2021-10-02T13:09:32Z</time>
      </trkpt>
      <trkpt lat="44.47365" lon="1.4007">
        <ele>216.5</ele>
        <time>2021-10-02T13:09:34Z</time>
      </trkpt>
      <trkpt lat="44.47361" lon="1.40069">
        <ele>216.9</ele>
        <time>2021-10-02T13:09:36Z</time>
      </trkpt>
      <trkpt lat="44.47358" lon="1.40068">
        <ele>217.1</ele>
        <time>2021-10-02T13:09:37Z</time>
      </trkpt>
      <trkpt lat="44.47355" lon="1.40068">
        <ele>217.4</ele>
        <time>2021-10-02T13:09:38Z</time>
      </trkpt>
      <trkpt lat="44.47352" lon="1.40068">
        <ele>217.6</ele>
        <time>2021-10-02T13:09:39Z</time>
      </trkpt>
      <trkpt lat="44.4735" lon="1.40069">
        <ele>217.7</ele>
        <time>2021-10-02T13:09:40Z</time>
      </trkpt>
      <trkpt lat="44.47348" lon="1.40072">
        <ele>218.2</ele>
        <time>2021-10-02T13:09:42Z</time>
      </trkpt>
      <trkpt lat="44.47344" lon="1.40072">
        <ele>218.2</ele>
        <time>2021-10-02T13:09:43Z</time>
      </trkpt>
      <trkpt lat="44.47341" lon="1.40073">
        <ele>218.2</ele>
        <time>2021-10-02T13:09:44Z</time>
      </trkpt>
      <trkpt lat="44.47337" lon="1.40074">
        <ele>218.2</ele>
        <time>2021-10-02T13:09:46Z</time>
      </trkpt>
      <trkpt lat="44.47334" lon="1.40077">
        <ele>218.6</ele>
        <time>2021-10-02T13:09:47Z</time>
      </trkpt>
      <trkpt lat="44.47329" lon="1.40079">
        <ele>218.5</ele>
        <time>2021-10-02T13:09:49Z</time>
      </trkpt>
      <trkpt lat="44.47326" lon="1.40081">
        <ele>218.7</ele>
        <time>2021-10-02T13:09:50Z</time>
      </trkpt>
      <trkpt lat="44.47322" lon="1.40083">
        <ele>218.6</ele>
        <time>2021-10-02T13:09:51Z</time>
      </trkpt>
      <trkpt lat="44.47317" lon="1.40084">
        <ele>218.4</ele>
        <time>2021-10-02T13:09:53Z</time>
      </trkpt>
      <trkpt lat="44.47312" lon="1.40086">
        <ele>218.5</ele>
        <time>2021-10-02T13:09:55Z</time>
      </trkpt>
      <trkpt lat="44.47309" lon="1.40089">
        <ele>218.6</ele>
        <time>2021-10-02T13:09:56Z</time>
      </trkpt>
      <trkpt lat="44.47305" lon="1.40092">
        <ele>218.3</ele>
        <time>2021-10-02T13:09:57Z</time>
      </trkpt>
      <trkpt lat="44.47299" lon="1.40096">
        <ele>218</ele>
        <time>2021-10-02T13:09:58Z</time>
      </trkpt>
      <trkpt lat="44.47295" lon="1.40098">
        <ele>217.9</ele>
        <time>2021-10-02T13:09:59Z</time>
      </trkpt>
      <trkpt lat="44.47289" lon="1.40101">
        <ele>217.5</ele>
        <time>2021-10-02T13:10:01Z</time>
      </trkpt>
      <trkpt lat="44.47282" lon="1.40103">
        <ele>217</ele>
        <time>2021-10-02T13:10:02Z</time>
      </trkpt>
      <trkpt lat="44.47279" lon="1.40104">
        <ele>216.7</ele>
        <time>2021-10-02T13:10:03Z</time>
      </trkpt>
      <trkpt lat="44.47273" lon="1.40109">
        <ele>216.3</ele>
        <time>2021-10-02T13:10:05Z</time>
      </trkpt>
      <trkpt lat="44.4727" lon="1.40108">
        <ele>216.1</ele>
        <time>2021-10-02T13:10:06Z</time>
      </trkpt>
      <trkpt lat="44.47266" lon="1.40111">
        <ele>216</ele>
        <time>2021-10-02T13:10:07Z</time>
      </trkpt>
      <trkpt lat="44.47264" lon="1.40114">
        <ele>215.9</ele>
        <time>2021-10-02T13:10:08Z</time>
      </trkpt>
      <trkpt lat="44.4726" lon="1.40116">
        <ele>215.8</ele>
        <time>2021-10-02T13:10:09Z</time>
      </trkpt>
      <trkpt lat="44.47256" lon="1.40114">
        <ele>215.5</ele>
        <time>2021-10-02T13:10:11Z</time>
      </trkpt>
      <trkpt lat="44.47252" lon="1.40114">
        <ele>215.3</ele>
        <time>2021-10-02T13:10:12Z</time>
      </trkpt>
      <trkpt lat="44.47249" lon="1.40113">
        <ele>215.2</ele>
        <time>2021-10-02T13:10:14Z</time>
      </trkpt>
      <trkpt lat="44.47248" lon="1.40112">
        <ele>215.2</ele>
        <time>2021-10-02T13:10:15Z</time>
      </trkpt>
      <trkpt lat="44.47247" lon="1.40112">
        <ele>215.1</ele>
        <time>2021-10-02T13:10:16Z</time>
      </trkpt>
      <trkpt lat="44.47246" lon="1.40111">
        <ele>215.1</ele>
        <time>2021-10-02T13:10:18Z</time>
      </trkpt>
      <trkpt lat="44.47245" lon="1.40111">
        <ele>215.1</ele>
        <time>2021-10-02T13:10:20Z</time>
      </trkpt>
      <trkpt lat="44.47244" lon="1.4011">
        <ele>214.9</ele>
        <time>2021-10-02T13:10:21Z</time>
      </trkpt>
      <trkpt lat="44.47237" lon="1.40106">
        <ele>214.5</ele>
        <time>2021-10-02T13:10:22Z</time>
      </trkpt>
      <trkpt lat="44.47223" lon="1.40098">
        <ele>213.6</ele>
        <time>2021-10-02T13:10:24Z</time>
      </trkpt>
      <trkpt lat="44.4721" lon="1.40095">
        <ele>212</ele>
        <time>2021-10-02T13:10:26Z</time>
      </trkpt>
      <trkpt lat="44.47204" lon="1.40092">
        <ele>211.2</ele>
        <time>2021-10-02T13:10:27Z</time>
      </trkpt>
      <trkpt lat="44.47192" lon="1.40089">
        <ele>209.7</ele>
        <time>2021-10-02T13:10:29Z</time>
      </trkpt>
      <trkpt lat="44.47179" lon="1.40091">
        <ele>208.3</ele>
        <time>2021-10-02T13:10:31Z</time>
      </trkpt>
      <trkpt lat="44.47173" lon="1.40094">
        <ele>207.7</ele>
        <time>2021-10-02T13:10:32Z</time>
      </trkpt>
      <trkpt lat="44.47161" lon="1.401">
        <ele>206.3</ele>
        <time>2021-10-02T13:10:34Z</time>
      </trkpt>
      <trkpt lat="44.47155" lon="1.40103">
        <ele>205.8</ele>
        <time>2021-10-02T13:10:35Z</time>
      </trkpt>
      <trkpt lat="44.47147" lon="1.40105">
        <ele>205.2</ele>
        <time>2021-10-02T13:10:37Z</time>
      </trkpt>
      <trkpt lat="44.47144" lon="1.40105">
        <ele>204.8</ele>
        <time>2021-10-02T13:10:38Z</time>
      </trkpt>
      <trkpt lat="44.47141" lon="1.40106">
        <ele>204.5</ele>
        <time>2021-10-02T13:10:39Z</time>
      </trkpt>
      <trkpt lat="44.47138" lon="1.40111">
        <ele>204.2</ele>
        <time>2021-10-02T13:10:41Z</time>
      </trkpt>
      <trkpt lat="44.47138" lon="1.40117">
        <ele>204.3</ele>
        <time>2021-10-02T13:10:42Z</time>
      </trkpt>
      <trkpt lat="44.47136" lon="1.40123">
        <ele>204</ele>
        <time>2021-10-02T13:10:44Z</time>
      </trkpt>
      <trkpt lat="44.47133" lon="1.40129">
        <ele>203.6</ele>
        <time>2021-10-02T13:10:46Z</time>
      </trkpt>
      <trkpt lat="44.47131" lon="1.40132">
        <ele>203.7</ele>
        <time>2021-10-02T13:10:47Z</time>
      </trkpt>
      <trkpt lat="44.47128" lon="1.40133">
        <ele>203.3</ele>
        <time>2021-10-02T13:10:48Z</time>
      </trkpt>
      <trkpt lat="44.47124" lon="1.40135">
        <ele>202.7</ele>
        <time>2021-10-02T13:10:49Z</time>
      </trkpt>
      <trkpt lat="44.47114" lon="1.40136">
        <ele>201.6</ele>
        <time>2021-10-02T13:10:51Z</time>
      </trkpt>
      <trkpt lat="44.47106" lon="1.40136">
        <ele>200.4</ele>
        <time>2021-10-02T13:10:53Z</time>
      </trkpt>
      <trkpt lat="44.47102" lon="1.40141">
        <ele>200.1</ele>
        <time>2021-10-02T13:10:54Z</time>
      </trkpt>
      <trkpt lat="44.47099" lon="1.40147">
        <ele>199.8</ele>
        <time>2021-10-02T13:10:55Z</time>
      </trkpt>
      <trkpt lat="44.47099" lon="1.40154">
        <ele>199.8</ele>
        <time>2021-10-02T13:10:56Z</time>
      </trkpt>
      <trkpt lat="44.47096" lon="1.40163">
        <ele>199.4</ele>
        <time>2021-10-02T13:10:58Z</time>
      </trkpt>
      <trkpt lat="44.47093" lon="1.40169">
        <ele>198.9</ele>
        <time>2021-10-02T13:10:59Z</time>
      </trkpt>
      <trkpt lat="44.47092" lon="1.40175">
        <ele>198.8</ele>
        <time>2021-10-02T13:11:00Z</time>
      </trkpt>
      <trkpt lat="44.47092" lon="1.40179">
        <ele>198.8</ele>
        <time>2021-10-02T13:11:01Z</time>
      </trkpt>
      <trkpt lat="44.47092" lon="1.40183">
        <ele>198.8</ele>
        <time>2021-10-02T13:11:03Z</time>
      </trkpt>
      <trkpt lat="44.47091" lon="1.40185">
        <ele>198.7</ele>
        <time>2021-10-02T13:11:04Z</time>
      </trkpt>
      <trkpt lat="44.47092" lon="1.40187">
        <ele>198.7</ele>
        <time>2021-10-02T13:11:05Z</time>
      </trkpt>
      <trkpt lat="44.4709" lon="1.40193">
        <ele>198.3</ele>
        <time>2021-10-02T13:11:07Z</time>
      </trkpt>
      <trkpt lat="44.47089" lon="1.40196">
        <ele>198.3</ele>
        <time>2021-10-02T13:11:08Z</time>
      </trkpt>
      <trkpt lat="44.47087" lon="1.40199">
        <ele>198</ele>
        <time>2021-10-02T13:11:09Z</time>
      </trkpt>
      <trkpt lat="44.47085" lon="1.40202">
        <ele>198.1</ele>
        <time>2021-10-02T13:11:10Z</time>
      </trkpt>
      <trkpt lat="44.47083" lon="1.40205">
        <ele>197.8</ele>
        <time>2021-10-02T13:11:12Z</time>
      </trkpt>
      <trkpt lat="44.47083" lon="1.40206">
        <ele>197.8</ele>
        <time>2021-10-02T13:11:13Z</time>
      </trkpt>
      <trkpt lat="44.4708" lon="1.40209">
        <ele>197.5</ele>
        <time>2021-10-02T13:11:14Z</time>
      </trkpt>
      <trkpt lat="44.47079" lon="1.40211">
        <ele>197.5</ele>
        <time>2021-10-02T13:11:15Z</time>
      </trkpt>
      <trkpt lat="44.47076" lon="1.40212">
        <ele>197.2</ele>
        <time>2021-10-02T13:11:17Z</time>
      </trkpt>
      <trkpt lat="44.47073" lon="1.40216">
        <ele>197</ele>
        <time>2021-10-02T13:11:18Z</time>
      </trkpt>
      <trkpt lat="44.47071" lon="1.4022">
        <ele>196.8</ele>
        <time>2021-10-02T13:11:19Z</time>
      </trkpt>
      <trkpt lat="44.47069" lon="1.40221">
        <ele>196.6</ele>
        <time>2021-10-02T13:11:20Z</time>
      </trkpt>
      <trkpt lat="44.47066" lon="1.40225">
        <ele>196.5</ele>
        <time>2021-10-02T13:11:22Z</time>
      </trkpt>
      <trkpt lat="44.47062" lon="1.4023">
        <ele>196.4</ele>
        <time>2021-10-02T13:11:24Z</time>
      </trkpt>
      <trkpt lat="44.47059" lon="1.40234">
        <ele>196.3</ele>
        <time>2021-10-02T13:11:25Z</time>
      </trkpt>
      <trkpt lat="44.47058" lon="1.40236">
        <ele>196.3</ele>
        <time>2021-10-02T13:11:26Z</time>
      </trkpt>
      <trkpt lat="44.47055" lon="1.40239">
        <ele>196.2</ele>
        <time>2021-10-02T13:11:28Z</time>
      </trkpt>
      <trkpt lat="44.4705" lon="1.40245">
        <ele>196</ele>
        <time>2021-10-02T13:11:30Z</time>
      </trkpt>
      <trkpt lat="44.47047" lon="1.40248">
        <ele>195.9</ele>
        <time>2021-10-02T13:11:31Z</time>
      </trkpt>
      <trkpt lat="44.47044" lon="1.40252">
        <ele>195.8</ele>
        <time>2021-10-02T13:11:32Z</time>
      </trkpt>
      <trkpt lat="44.47041" lon="1.40256">
        <ele>195.8</ele>
        <time>2021-10-02T13:11:34Z</time>
      </trkpt>
      <trkpt lat="44.47038" lon="1.40258">
        <ele>195.7</ele>
        <time>2021-10-02T13:11:35Z</time>
      </trkpt>
      <trkpt lat="44.47037" lon="1.40259">
        <ele>195.7</ele>
        <time>2021-10-02T13:11:36Z</time>
      </trkpt>
      <trkpt lat="44.47032" lon="1.40263">
        <ele>195.5</ele>
        <time>2021-10-02T13:11:38Z</time>
      </trkpt>
      <trkpt lat="44.47029" lon="1.40261">
        <ele>195.4</ele>
        <time>2021-10-02T13:11:39Z</time>
      </trkpt>
      <trkpt lat="44.47028" lon="1.4026">
        <ele>195.5</ele>
        <time>2021-10-02T13:11:40Z</time>
      </trkpt>
      <trkpt lat="44.47026" lon="1.40257">
        <ele>195.5</ele>
        <time>2021-10-02T13:11:42Z</time>
      </trkpt>
      <trkpt lat="44.47023" lon="1.40255">
        <ele>195.5</ele>
        <time>2021-10-02T13:11:43Z</time>
      </trkpt>
      <trkpt lat="44.47021" lon="1.40255">
        <ele>195.5</ele>
        <time>2021-10-02T13:11:44Z</time>
      </trkpt>
      <trkpt lat="44.47018" lon="1.40253">
        <ele>195.5</ele>
        <time>2021-10-02T13:11:45Z</time>
      </trkpt>
      <trkpt lat="44.47013" lon="1.40251">
        <ele>195.4</ele>
        <time>2021-10-02T13:11:47Z</time>
      </trkpt>
      <trkpt lat="44.47008" lon="1.40251">
        <ele>195.4</ele>
        <time>2021-10-02T13:11:49Z</time>
      </trkpt>
      <trkpt lat="44.47006" lon="1.40253">
        <ele>195.4</ele>
        <time>2021-10-02T13:11:50Z</time>
      </trkpt>
      <trkpt lat="44.47002" lon="1.40254">
        <ele>195.4</ele>
        <time>2021-10-02T13:11:51Z</time>
      </trkpt>
      <trkpt lat="44.46998" lon="1.40253">
        <ele>195.4</ele>
        <time>2021-10-02T13:11:53Z</time>
      </trkpt>
      <trkpt lat="44.46995" lon="1.40253">
        <ele>195.4</ele>
        <time>2021-10-02T13:11:54Z</time>
      </trkpt>
      <trkpt lat="44.46991" lon="1.40253">
        <ele>195.4</ele>
        <time>2021-10-02T13:11:55Z</time>
      </trkpt>
      <trkpt lat="44.46988" lon="1.40254">
        <ele>195.4</ele>
        <time>2021-10-02T13:11:57Z</time>
      </trkpt>
      <trkpt lat="44.46985" lon="1.40254">
        <ele>195.4</ele>
        <time>2021-10-02T13:11:58Z</time>
      </trkpt>
      <trkpt lat="44.4698" lon="1.40254">
        <ele>195.4</ele>
        <time>2021-10-02T13:11:59Z</time>
      </trkpt>
      <trkpt lat="44.46977" lon="1.40256">
        <ele>195.4</ele>
        <time>2021-10-02T13:12:01Z</time>
      </trkpt>
      <trkpt lat="44.46974" lon="1.40259">
        <ele>195.4</ele>
        <time>2021-10-02T13:12:02Z</time>
      </trkpt>
      <trkpt lat="44.46971" lon="1.40259">
        <ele>195.4</ele>
        <time>2021-10-02T13:12:03Z</time>
      </trkpt>
      <trkpt lat="44.46966" lon="1.4026">
        <ele>195.4</ele>
        <time>2021-10-02T13:12:04Z</time>
      </trkpt>
      <trkpt lat="44.46961" lon="1.4026">
        <ele>195.4</ele>
        <time>2021-10-02T13:12:06Z</time>
      </trkpt>
      <trkpt lat="44.46957" lon="1.4026">
        <ele>195.4</ele>
        <time>2021-10-02T13:12:07Z</time>
      </trkpt>
      <trkpt lat="44.4695" lon="1.40259">
        <ele>195.5</ele>
        <time>2021-10-02T13:12:08Z</time>
      </trkpt>
      <trkpt lat="44.46944" lon="1.40257">
        <ele>195.5</ele>
        <time>2021-10-02T13:12:10Z</time>
      </trkpt>
      <trkpt lat="44.46939" lon="1.40254">
        <ele>195.6</ele>
        <time>2021-10-02T13:12:11Z</time>
      </trkpt>
      <trkpt lat="44.46935" lon="1.40252">
        <ele>195.7</ele>
        <time>2021-10-02T13:12:12Z</time>
      </trkpt>
      <trkpt lat="44.4693" lon="1.40252">
        <ele>195.7</ele>
        <time>2021-10-02T13:12:14Z</time>
      </trkpt>
      <trkpt lat="44.46926" lon="1.4025">
        <ele>195.8</ele>
        <time>2021-10-02T13:12:15Z</time>
      </trkpt>
      <trkpt lat="44.46923" lon="1.40248">
        <ele>195.8</ele>
        <time>2021-10-02T13:12:16Z</time>
      </trkpt>
      <trkpt lat="44.4692" lon="1.40246">
        <ele>195.9</ele>
        <time>2021-10-02T13:12:17Z</time>
      </trkpt>
      <trkpt lat="44.46917" lon="1.40244">
        <ele>195.9</ele>
        <time>2021-10-02T13:12:18Z</time>
      </trkpt>
      <trkpt lat="44.46913" lon="1.40241">
        <ele>196</ele>
        <time>2021-10-02T13:12:19Z</time>
      </trkpt>
      <trkpt lat="44.46913" lon="1.40236">
        <ele>196.1</ele>
        <time>2021-10-02T13:12:20Z</time>
      </trkpt>
      <trkpt lat="44.46916" lon="1.4023">
        <ele>196</ele>
        <time>2021-10-02T13:12:22Z</time>
      </trkpt>
      <trkpt lat="44.46915" lon="1.40222">
        <ele>196</ele>
        <time>2021-10-02T13:12:23Z</time>
      </trkpt>
      <trkpt lat="44.46915" lon="1.40218">
        <ele>196</ele>
        <time>2021-10-02T13:12:24Z</time>
      </trkpt>
      <trkpt lat="44.46915" lon="1.40212">
        <ele>195.8</ele>
        <time>2021-10-02T13:12:26Z</time>
      </trkpt>
      <trkpt lat="44.46916" lon="1.40207">
        <ele>195.7</ele>
        <time>2021-10-02T13:12:27Z</time>
      </trkpt>
      <trkpt lat="44.46917" lon="1.40199">
        <ele>195.3</ele>
        <time>2021-10-02T13:12:28Z</time>
      </trkpt>
      <trkpt lat="44.46918" lon="1.40192">
        <ele>195.1</ele>
        <time>2021-10-02T13:12:30Z</time>
      </trkpt>
      <trkpt lat="44.46921" lon="1.40182">
        <ele>194.4</ele>
        <time>2021-10-02T13:12:31Z</time>
      </trkpt>
      <trkpt lat="44.46922" lon="1.40173">
        <ele>193.9</ele>
        <time>2021-10-02T13:12:33Z</time>
      </trkpt>
      <trkpt lat="44.46921" lon="1.40157">
        <ele>192.9</ele>
        <time>2021-10-02T13:12:35Z</time>
      </trkpt>
      <trkpt lat="44.46918" lon="1.40151">
        <ele>192.3</ele>
        <time>2021-10-02T13:12:36Z</time>
      </trkpt>
      <trkpt lat="44.46912" lon="1.40138">
        <ele>191.4</ele>
        <time>2021-10-02T13:12:38Z</time>
      </trkpt>
      <trkpt lat="44.46904" lon="1.40131">
        <ele>190.9</ele>
        <time>2021-10-02T13:12:40Z</time>
      </trkpt>
      <trkpt lat="44.469" lon="1.40129">
        <ele>191.2</ele>
        <time>2021-10-02T13:12:41Z</time>
      </trkpt>
      <trkpt lat="44.46895" lon="1.40126">
        <ele>191</ele>
        <time>2021-10-02T13:12:42Z</time>
      </trkpt>
      <trkpt lat="44.46885" lon="1.40122">
        <ele>191.3</ele>
        <time>2021-10-02T13:12:44Z</time>
      </trkpt>
      <trkpt lat="44.46877" lon="1.40121">
        <ele>191.6</ele>
        <time>2021-10-02T13:12:46Z</time>
      </trkpt>
      <trkpt lat="44.46866" lon="1.40117">
        <ele>191.5</ele>
        <time>2021-10-02T13:12:48Z</time>
      </trkpt>
      <trkpt lat="44.46857" lon="1.40111">
        <ele>191.1</ele>
        <time>2021-10-02T13:12:50Z</time>
      </trkpt>
      <trkpt lat="44.46846" lon="1.40112">
        <ele>191</ele>
        <time>2021-10-02T13:12:52Z</time>
      </trkpt>
      <trkpt lat="44.46844" lon="1.40115">
        <ele>191.4</ele>
        <time>2021-10-02T13:12:53Z</time>
      </trkpt>
      <trkpt lat="44.46836" lon="1.40114">
        <ele>191.4</ele>
        <time>2021-10-02T13:12:55Z</time>
      </trkpt>
      <trkpt lat="44.46831" lon="1.40115">
        <ele>191.4</ele>
        <time>2021-10-02T13:12:56Z</time>
      </trkpt>
      <trkpt lat="44.46827" lon="1.40118">
        <ele>191.4</ele>
        <time>2021-10-02T13:12:57Z</time>
      </trkpt>
      <trkpt lat="44.46822" lon="1.40119">
        <ele>191.7</ele>
        <time>2021-10-02T13:12:59Z</time>
      </trkpt>
      <trkpt lat="44.46819" lon="1.4012">
        <ele>191.6</ele>
        <time>2021-10-02T13:13:00Z</time>
      </trkpt>
      <trkpt lat="44.46815" lon="1.40121">
        <ele>191.6</ele>
        <time>2021-10-02T13:13:01Z</time>
      </trkpt>
      <trkpt lat="44.46812" lon="1.40122">
        <ele>191.4</ele>
        <time>2021-10-02T13:13:02Z</time>
      </trkpt>
      <trkpt lat="44.46807" lon="1.40123">
        <ele>191.6</ele>
        <time>2021-10-02T13:13:03Z</time>
      </trkpt>
      <trkpt lat="44.46803" lon="1.40124">
        <ele>191.4</ele>
        <time>2021-10-02T13:13:05Z</time>
      </trkpt>
      <trkpt lat="44.46798" lon="1.40124">
        <ele>191.3</ele>
        <time>2021-10-02T13:13:06Z</time>
      </trkpt>
      <trkpt lat="44.46794" lon="1.40125">
        <ele>191.3</ele>
        <time>2021-10-02T13:13:08Z</time>
      </trkpt>
      <trkpt lat="44.46791" lon="1.40129">
        <ele>191.4</ele>
        <time>2021-10-02T13:13:09Z</time>
      </trkpt>
      <trkpt lat="44.46788" lon="1.40132">
        <ele>191.7</ele>
        <time>2021-10-02T13:13:10Z</time>
      </trkpt>
      <trkpt lat="44.46785" lon="1.40133">
        <ele>191.8</ele>
        <time>2021-10-02T13:13:11Z</time>
      </trkpt>
      <trkpt lat="44.4678" lon="1.40133">
        <ele>191.8</ele>
        <time>2021-10-02T13:13:13Z</time>
      </trkpt>
      <trkpt lat="44.46775" lon="1.40132">
        <ele>192</ele>
        <time>2021-10-02T13:13:15Z</time>
      </trkpt>
      <trkpt lat="44.4677" lon="1.40131">
        <ele>191.8</ele>
        <time>2021-10-02T13:13:16Z</time>
      </trkpt>
      <trkpt lat="44.46765" lon="1.4013">
        <ele>192</ele>
        <time>2021-10-02T13:13:18Z</time>
      </trkpt>
      <trkpt lat="44.46762" lon="1.40128">
        <ele>192.1</ele>
        <time>2021-10-02T13:13:19Z</time>
      </trkpt>
      <trkpt lat="44.46757" lon="1.40127">
        <ele>191.8</ele>
        <time>2021-10-02T13:13:20Z</time>
      </trkpt>
      <trkpt lat="44.46754" lon="1.40128">
        <ele>192.4</ele>
        <time>2021-10-02T13:13:21Z</time>
      </trkpt>
      <trkpt lat="44.46751" lon="1.40128">
        <ele>192.4</ele>
        <time>2021-10-02T13:13:23Z</time>
      </trkpt>
      <trkpt lat="44.46748" lon="1.40128">
        <ele>192.7</ele>
        <time>2021-10-02T13:13:24Z</time>
      </trkpt>
      <trkpt lat="44.46743" lon="1.40129">
        <ele>192.9</ele>
        <time>2021-10-02T13:13:25Z</time>
      </trkpt>
      <trkpt lat="44.46738" lon="1.40129">
        <ele>193.2</ele>
        <time>2021-10-02T13:13:26Z</time>
      </trkpt>
      <trkpt lat="44.46735" lon="1.40129">
        <ele>193.3</ele>
        <time>2021-10-02T13:13:28Z</time>
      </trkpt>
      <trkpt lat="44.46729" lon="1.40127">
        <ele>193.4</ele>
        <time>2021-10-02T13:13:30Z</time>
      </trkpt>
      <trkpt lat="44.46727" lon="1.40126">
        <ele>193.6</ele>
        <time>2021-10-02T13:13:31Z</time>
      </trkpt>
      <trkpt lat="44.46723" lon="1.40124">
        <ele>193.9</ele>
        <time>2021-10-02T13:13:32Z</time>
      </trkpt>
      <trkpt lat="44.46721" lon="1.40123">
        <ele>194</ele>
        <time>2021-10-02T13:13:33Z</time>
      </trkpt>
      <trkpt lat="44.46716" lon="1.40122">
        <ele>194.3</ele>
        <time>2021-10-02T13:13:35Z</time>
      </trkpt>
      <trkpt lat="44.46712" lon="1.40121">
        <ele>194.6</ele>
        <time>2021-10-02T13:13:36Z</time>
      </trkpt>
      <trkpt lat="44.46708" lon="1.40119">
        <ele>194.9</ele>
        <time>2021-10-02T13:13:37Z</time>
      </trkpt>
      <trkpt lat="44.46706" lon="1.40117">
        <ele>195.1</ele>
        <time>2021-10-02T13:13:38Z</time>
      </trkpt>
      <trkpt lat="44.46703" lon="1.40115">
        <ele>195.4</ele>
        <time>2021-10-02T13:13:39Z</time>
      </trkpt>
      <trkpt lat="44.467" lon="1.40114">
        <ele>195.6</ele>
        <time>2021-10-02T13:13:41Z</time>
      </trkpt>
      <trkpt lat="44.46696" lon="1.40111">
        <ele>195.9</ele>
        <time>2021-10-02T13:13:42Z</time>
      </trkpt>
      <trkpt lat="44.46693" lon="1.40108">
        <ele>196.2</ele>
        <time>2021-10-02T13:13:44Z</time>
      </trkpt>
      <trkpt lat="44.4669" lon="1.40106">
        <ele>196.4</ele>
        <time>2021-10-02T13:13:45Z</time>
      </trkpt>
      <trkpt lat="44.46688" lon="1.40104">
        <ele>196.6</ele>
        <time>2021-10-02T13:13:46Z</time>
      </trkpt>
      <trkpt lat="44.46687" lon="1.40103">
        <ele>196.7</ele>
        <time>2021-10-02T13:13:47Z</time>
      </trkpt>
      <trkpt lat="44.46685" lon="1.40103">
        <ele>196.9</ele>
        <time>2021-10-02T13:13:49Z</time>
      </trkpt>
      <trkpt lat="44.46684" lon="1.40103">
        <ele>197</ele>
        <time>2021-10-02T13:13:51Z</time>
      </trkpt>
      <trkpt lat="44.46682" lon="1.40103">
        <ele>197.1</ele>
        <time>2021-10-02T13:13:52Z</time>
      </trkpt>
      <trkpt lat="44.4668" lon="1.40102">
        <ele>197.2</ele>
        <time>2021-10-02T13:13:53Z</time>
      </trkpt>
      <trkpt lat="44.46677" lon="1.40102">
        <ele>197.5</ele>
        <time>2021-10-02T13:13:55Z</time>
      </trkpt>
      <trkpt lat="44.46675" lon="1.40101">
        <ele>197.7</ele>
        <time>2021-10-02T13:13:56Z</time>
      </trkpt>
      <trkpt lat="44.46672" lon="1.40101">
        <ele>197.9</ele>
        <time>2021-10-02T13:13:58Z</time>
      </trkpt>
      <trkpt lat="44.46669" lon="1.40103">
        <ele>198.2</ele>
        <time>2021-10-02T13:13:59Z</time>
      </trkpt>
      <trkpt lat="44.46666" lon="1.40102">
        <ele>198.4</ele>
        <time>2021-10-02T13:14:01Z</time>
      </trkpt>
      <trkpt lat="44.46663" lon="1.40099">
        <ele>198.7</ele>
        <time>2021-10-02T13:14:03Z</time>
      </trkpt>
      <trkpt lat="44.46661" lon="1.40097">
        <ele>199</ele>
        <time>2021-10-02T13:14:04Z</time>
      </trkpt>
      <trkpt lat="44.46658" lon="1.40095">
        <ele>199.2</ele>
        <time>2021-10-02T13:14:06Z</time>
      </trkpt>
      <trkpt lat="44.46655" lon="1.40093">
        <ele>199.4</ele>
        <time>2021-10-02T13:14:08Z</time>
      </trkpt>
      <trkpt lat="44.46653" lon="1.40092">
        <ele>199.6</ele>
        <time>2021-10-02T13:14:09Z</time>
      </trkpt>
      <trkpt lat="44.46652" lon="1.40091">
        <ele>199.7</ele>
        <time>2021-10-02T13:14:10Z</time>
      </trkpt>
      <trkpt lat="44.46649" lon="1.40091">
        <ele>199.9</ele>
        <time>2021-10-02T13:14:11Z</time>
      </trkpt>
      <trkpt lat="44.46648" lon="1.40091">
        <ele>200</ele>
        <time>2021-10-02T13:14:12Z</time>
      </trkpt>
      <trkpt lat="44.46645" lon="1.40091">
        <ele>200.2</ele>
        <time>2021-10-02T13:14:13Z</time>
      </trkpt>
      <trkpt lat="44.46643" lon="1.40091">
        <ele>200.4</ele>
        <time>2021-10-02T13:14:15Z</time>
      </trkpt>
      <trkpt lat="44.4664" lon="1.40092">
        <ele>200.6</ele>
        <time>2021-10-02T13:14:16Z</time>
      </trkpt>
      <trkpt lat="44.46639" lon="1.40092">
        <ele>200.7</ele>
        <time>2021-10-02T13:14:17Z</time>
      </trkpt>
      <trkpt lat="44.46636" lon="1.40093">
        <ele>200.9</ele>
        <time>2021-10-02T13:14:19Z</time>
      </trkpt>
      <trkpt lat="44.46635" lon="1.40093">
        <ele>201</ele>
        <time>2021-10-02T13:14:20Z</time>
      </trkpt>
      <trkpt lat="44.46633" lon="1.40094">
        <ele>201.1</ele>
        <time>2021-10-02T13:14:21Z</time>
      </trkpt>
      <trkpt lat="44.4663" lon="1.40094">
        <ele>201.3</ele>
        <time>2021-10-02T13:14:23Z</time>
      </trkpt>
      <trkpt lat="44.46628" lon="1.40096">
        <ele>201.6</ele>
        <time>2021-10-02T13:14:24Z</time>
      </trkpt>
      <trkpt lat="44.46627" lon="1.40096">
        <ele>201.6</ele>
        <time>2021-10-02T13:14:25Z</time>
      </trkpt>
      <trkpt lat="44.46624" lon="1.40096">
        <ele>201.9</ele>
        <time>2021-10-02T13:14:26Z</time>
      </trkpt>
      <trkpt lat="44.46623" lon="1.40096">
        <ele>202</ele>
        <time>2021-10-02T13:14:27Z</time>
      </trkpt>
      <trkpt lat="44.4662" lon="1.40097">
        <ele>202.3</ele>
        <time>2021-10-02T13:14:29Z</time>
      </trkpt>
      <trkpt lat="44.46619" lon="1.40098">
        <ele>202.4</ele>
        <time>2021-10-02T13:14:30Z</time>
      </trkpt>
      <trkpt lat="44.46615" lon="1.40099">
        <ele>202.7</ele>
        <time>2021-10-02T13:14:32Z</time>
      </trkpt>
      <trkpt lat="44.46614" lon="1.401">
        <ele>202.9</ele>
        <time>2021-10-02T13:14:33Z</time>
      </trkpt>
      <trkpt lat="44.46612" lon="1.401">
        <ele>203</ele>
        <time>2021-10-02T13:14:34Z</time>
      </trkpt>
      <trkpt lat="44.46609" lon="1.40102">
        <ele>203.3</ele>
        <time>2021-10-02T13:14:37Z</time>
      </trkpt>
      <trkpt lat="44.46607" lon="1.40102">
        <ele>203.5</ele>
        <time>2021-10-02T13:14:38Z</time>
      </trkpt>
      <trkpt lat="44.46605" lon="1.40103">
        <ele>203.7</ele>
        <time>2021-10-02T13:14:39Z</time>
      </trkpt>
      <trkpt lat="44.46603" lon="1.40104">
        <ele>203.8</ele>
        <time>2021-10-02T13:14:41Z</time>
      </trkpt>
      <trkpt lat="44.46603" lon="1.40105">
        <ele>203.9</ele>
        <time>2021-10-02T13:14:42Z</time>
      </trkpt>
      <trkpt lat="44.46602" lon="1.40106">
        <ele>204.1</ele>
        <time>2021-10-02T13:14:43Z</time>
      </trkpt>
      <trkpt lat="44.466" lon="1.40106">
        <ele>204.2</ele>
        <time>2021-10-02T13:14:44Z</time>
      </trkpt>
      <trkpt lat="44.46599" lon="1.40107">
        <ele>204.3</ele>
        <time>2021-10-02T13:14:46Z</time>
      </trkpt>
      <trkpt lat="44.46597" lon="1.40107">
        <ele>204.5</ele>
        <time>2021-10-02T13:14:47Z</time>
      </trkpt>
      <trkpt lat="44.46597" lon="1.40107">
        <ele>204.5</ele>
        <time>2021-10-02T13:14:49Z</time>
      </trkpt>
      <trkpt lat="44.46594" lon="1.40106">
        <ele>204.7</ele>
        <time>2021-10-02T13:14:51Z</time>
      </trkpt>
      <trkpt lat="44.4659" lon="1.40104">
        <ele>205.1</ele>
        <time>2021-10-02T13:14:53Z</time>
      </trkpt>
      <trkpt lat="44.46589" lon="1.40103">
        <ele>205.3</ele>
        <time>2021-10-02T13:14:54Z</time>
      </trkpt>
      <trkpt lat="44.46588" lon="1.40102">
        <ele>205.4</ele>
        <time>2021-10-02T13:14:55Z</time>
      </trkpt>
      <trkpt lat="44.46585" lon="1.40101">
        <ele>205.7</ele>
        <time>2021-10-02T13:14:57Z</time>
      </trkpt>
      <trkpt lat="44.46585" lon="1.401">
        <ele>205.7</ele>
        <time>2021-10-02T13:14:58Z</time>
      </trkpt>
      <trkpt lat="44.46583" lon="1.40099">
        <ele>205.9</ele>
        <time>2021-10-02T13:14:59Z</time>
      </trkpt>
      <trkpt lat="44.46582" lon="1.40098">
        <ele>206.1</ele>
        <time>2021-10-02T13:15:00Z</time>
      </trkpt>
      <trkpt lat="44.4658" lon="1.40097">
        <ele>206.2</ele>
        <time>2021-10-02T13:15:01Z</time>
      </trkpt>
      <trkpt lat="44.46579" lon="1.40097">
        <ele>206.3</ele>
        <time>2021-10-02T13:15:02Z</time>
      </trkpt>
      <trkpt lat="44.46576" lon="1.40097">
        <ele>206.5</ele>
        <time>2021-10-02T13:15:04Z</time>
      </trkpt>
      <trkpt lat="44.46575" lon="1.40097">
        <ele>206.6</ele>
        <time>2021-10-02T13:15:06Z</time>
      </trkpt>
      <trkpt lat="44.46574" lon="1.40097">
        <ele>206.7</ele>
        <time>2021-10-02T13:15:07Z</time>
      </trkpt>
      <trkpt lat="44.46573" lon="1.40097">
        <ele>206.8</ele>
        <time>2021-10-02T13:15:08Z</time>
      </trkpt>
      <trkpt lat="44.46571" lon="1.40096">
        <ele>207</ele>
        <time>2021-10-02T13:15:09Z</time>
      </trkpt>
      <trkpt lat="44.46569" lon="1.40095">
        <ele>207.2</ele>
        <time>2021-10-02T13:15:11Z</time>
      </trkpt>
      <trkpt lat="44.46568" lon="1.40094">
        <ele>207.3</ele>
        <time>2021-10-02T13:15:12Z</time>
      </trkpt>
      <trkpt lat="44.46567" lon="1.40093">
        <ele>207.4</ele>
        <time>2021-10-02T13:15:13Z</time>
      </trkpt>
      <trkpt lat="44.46565" lon="1.40093">
        <ele>207.6</ele>
        <time>2021-10-02T13:15:14Z</time>
      </trkpt>
      <trkpt lat="44.46564" lon="1.40093">
        <ele>207.7</ele>
        <time>2021-10-02T13:15:15Z</time>
      </trkpt>
      <trkpt lat="44.46562" lon="1.40093">
        <ele>207.8</ele>
        <time>2021-10-02T13:15:17Z</time>
      </trkpt>
      <trkpt lat="44.4656" lon="1.40094">
        <ele>208</ele>
        <time>2021-10-02T13:15:18Z</time>
      </trkpt>
      <trkpt lat="44.46558" lon="1.40094">
        <ele>208.2</ele>
        <time>2021-10-02T13:15:20Z</time>
      </trkpt>
      <trkpt lat="44.46556" lon="1.40094">
        <ele>208.4</ele>
        <time>2021-10-02T13:15:21Z</time>
      </trkpt>
      <trkpt lat="44.46555" lon="1.40094">
        <ele>208.5</ele>
        <time>2021-10-02T13:15:22Z</time>
      </trkpt>
      <trkpt lat="44.46552" lon="1.40095">
        <ele>208.7</ele>
        <time>2021-10-02T13:15:24Z</time>
      </trkpt>
      <trkpt lat="44.46551" lon="1.40095">
        <ele>208.8</ele>
        <time>2021-10-02T13:15:25Z</time>
      </trkpt>
      <trkpt lat="44.46548" lon="1.40095">
        <ele>209</ele>
        <time>2021-10-02T13:15:27Z</time>
      </trkpt>
      <trkpt lat="44.46547" lon="1.40094">
        <ele>209</ele>
        <time>2021-10-02T13:15:28Z</time>
      </trkpt>
      <trkpt lat="44.46545" lon="1.40095">
        <ele>209.3</ele>
        <time>2021-10-02T13:15:29Z</time>
      </trkpt>
      <trkpt lat="44.46543" lon="1.40095">
        <ele>209.4</ele>
        <time>2021-10-02T13:15:31Z</time>
      </trkpt>
      <trkpt lat="44.46542" lon="1.40095">
        <ele>209.5</ele>
        <time>2021-10-02T13:15:32Z</time>
      </trkpt>
      <trkpt lat="44.46541" lon="1.40095">
        <ele>209.6</ele>
        <time>2021-10-02T13:15:33Z</time>
      </trkpt>
      <trkpt lat="44.46539" lon="1.40095">
        <ele>209.7</ele>
        <time>2021-10-02T13:15:35Z</time>
      </trkpt>
      <trkpt lat="44.46538" lon="1.40095">
        <ele>209.8</ele>
        <time>2021-10-02T13:15:36Z</time>
      </trkpt>
      <trkpt lat="44.46535" lon="1.40096">
        <ele>210</ele>
        <time>2021-10-02T13:15:37Z</time>
      </trkpt>
      <trkpt lat="44.46534" lon="1.40096">
        <ele>210</ele>
        <time>2021-10-02T13:15:38Z</time>
      </trkpt>
      <trkpt lat="44.46533" lon="1.40096">
        <ele>210.1</ele>
        <time>2021-10-02T13:15:39Z</time>
      </trkpt>
      <trkpt lat="44.4653" lon="1.40095">
        <ele>210.3</ele>
        <time>2021-10-02T13:15:41Z</time>
      </trkpt>
      <trkpt lat="44.46529" lon="1.40095">
        <ele>210.4</ele>
        <time>2021-10-02T13:15:42Z</time>
      </trkpt>
      <trkpt lat="44.46527" lon="1.40093">
        <ele>210.6</ele>
        <time>2021-10-02T13:15:44Z</time>
      </trkpt>
      <trkpt lat="44.46526" lon="1.40093">
        <ele>210.7</ele>
        <time>2021-10-02T13:15:45Z</time>
      </trkpt>
      <trkpt lat="44.46522" lon="1.40092">
        <ele>210.9</ele>
        <time>2021-10-02T13:15:47Z</time>
      </trkpt>
      <trkpt lat="44.46521" lon="1.40092">
        <ele>210.9</ele>
        <time>2021-10-02T13:15:48Z</time>
      </trkpt>
      <trkpt lat="44.46519" lon="1.40093">
        <ele>211.1</ele>
        <time>2021-10-02T13:15:50Z</time>
      </trkpt>
      <trkpt lat="44.46518" lon="1.40093">
        <ele>211.2</ele>
        <time>2021-10-02T13:15:51Z</time>
      </trkpt>
      <trkpt lat="44.46515" lon="1.40094">
        <ele>211.4</ele>
        <time>2021-10-02T13:15:52Z</time>
      </trkpt>
      <trkpt lat="44.46513" lon="1.40094">
        <ele>211.4</ele>
        <time>2021-10-02T13:15:54Z</time>
      </trkpt>
      <trkpt lat="44.46512" lon="1.40094">
        <ele>211.5</ele>
        <time>2021-10-02T13:15:55Z</time>
      </trkpt>
      <trkpt lat="44.46511" lon="1.40094">
        <ele>211.6</ele>
        <time>2021-10-02T13:15:56Z</time>
      </trkpt>
      <trkpt lat="44.46509" lon="1.40095">
        <ele>211.7</ele>
        <time>2021-10-02T13:15:57Z</time>
      </trkpt>
      <trkpt lat="44.46508" lon="1.40095">
        <ele>211.8</ele>
        <time>2021-10-02T13:15:58Z</time>
      </trkpt>
      <trkpt lat="44.46507" lon="1.40096">
        <ele>211.8</ele>
        <time>2021-10-02T13:16:00Z</time>
      </trkpt>
      <trkpt lat="44.46505" lon="1.40096">
        <ele>211.9</ele>
        <time>2021-10-02T13:16:01Z</time>
      </trkpt>
      <trkpt lat="44.46503" lon="1.40097">
        <ele>212</ele>
        <time>2021-10-02T13:16:02Z</time>
      </trkpt>
      <trkpt lat="44.46501" lon="1.40097">
        <ele>212.1</ele>
        <time>2021-10-02T13:16:04Z</time>
      </trkpt>
      <trkpt lat="44.465" lon="1.40097">
        <ele>212.2</ele>
        <time>2021-10-02T13:16:05Z</time>
      </trkpt>
      <trkpt lat="44.46499" lon="1.40097">
        <ele>212.3</ele>
        <time>2021-10-02T13:16:06Z</time>
      </trkpt>
      <trkpt lat="44.46495" lon="1.40096">
        <ele>212.4</ele>
        <time>2021-10-02T13:16:07Z</time>
      </trkpt>
      <trkpt lat="44.46493" lon="1.40096">
        <ele>212.5</ele>
        <time>2021-10-02T13:16:09Z</time>
      </trkpt>
      <trkpt lat="44.46492" lon="1.40095">
        <ele>212.6</ele>
        <time>2021-10-02T13:16:11Z</time>
      </trkpt>
      <trkpt lat="44.4649" lon="1.40095">
        <ele>212.7</ele>
        <time>2021-10-02T13:16:12Z</time>
      </trkpt>
      <trkpt lat="44.46488" lon="1.40095">
        <ele>212.7</ele>
        <time>2021-10-02T13:16:13Z</time>
      </trkpt>
      <trkpt lat="44.46487" lon="1.40094">
        <ele>212.8</ele>
        <time>2021-10-02T13:16:15Z</time>
      </trkpt>
      <trkpt lat="44.46485" lon="1.40094">
        <ele>212.8</ele>
        <time>2021-10-02T13:16:16Z</time>
      </trkpt>
      <trkpt lat="44.46484" lon="1.40094">
        <ele>212.9</ele>
        <time>2021-10-02T13:16:17Z</time>
      </trkpt>
      <trkpt lat="44.46482" lon="1.40093">
        <ele>213</ele>
        <time>2021-10-02T13:16:18Z</time>
      </trkpt>
      <trkpt lat="44.4648" lon="1.40093">
        <ele>213</ele>
        <time>2021-10-02T13:16:19Z</time>
      </trkpt>
      <trkpt lat="44.46479" lon="1.40093">
        <ele>213.1</ele>
        <time>2021-10-02T13:16:21Z</time>
      </trkpt>
      <trkpt lat="44.46476" lon="1.40094">
        <ele>213.2</ele>
        <time>2021-10-02T13:16:22Z</time>
      </trkpt>
      <trkpt lat="44.46474" lon="1.40094">
        <ele>213.2</ele>
        <time>2021-10-02T13:16:24Z</time>
      </trkpt>
      <trkpt lat="44.46473" lon="1.40094">
        <ele>213.2</ele>
        <time>2021-10-02T13:16:25Z</time>
      </trkpt>
      <trkpt lat="44.46469" lon="1.40095">
        <ele>213.3</ele>
        <time>2021-10-02T13:16:27Z</time>
      </trkpt>
      <trkpt lat="44.46466" lon="1.40096">
        <ele>213.4</ele>
        <time>2021-10-02T13:16:28Z</time>
      </trkpt>
      <trkpt lat="44.46465" lon="1.40096">
        <ele>213.5</ele>
        <time>2021-10-02T13:16:29Z</time>
      </trkpt>
      <trkpt lat="44.4646" lon="1.40097">
        <ele>213.6</ele>
        <time>2021-10-02T13:16:31Z</time>
      </trkpt>
      <trkpt lat="44.46457" lon="1.40097">
        <ele>213.7</ele>
        <time>2021-10-02T13:16:32Z</time>
      </trkpt>
      <trkpt lat="44.46454" lon="1.40096">
        <ele>213.7</ele>
        <time>2021-10-02T13:16:33Z</time>
      </trkpt>
      <trkpt lat="44.46451" lon="1.40096">
        <ele>213.8</ele>
        <time>2021-10-02T13:16:35Z</time>
      </trkpt>
      <trkpt lat="44.46448" lon="1.40095">
        <ele>213.8</ele>
        <time>2021-10-02T13:16:36Z</time>
      </trkpt>
      <trkpt lat="44.46445" lon="1.40094">
        <ele>213.9</ele>
        <time>2021-10-02T13:16:37Z</time>
      </trkpt>
      <trkpt lat="44.46441" lon="1.40094">
        <ele>214</ele>
        <time>2021-10-02T13:16:39Z</time>
      </trkpt>
      <trkpt lat="44.46439" lon="1.40094">
        <ele>214</ele>
        <time>2021-10-02T13:16:40Z</time>
      </trkpt>
      <trkpt lat="44.46435" lon="1.40093">
        <ele>214.1</ele>
        <time>2021-10-02T13:16:41Z</time>
      </trkpt>
      <trkpt lat="44.46431" lon="1.40093">
        <ele>214.2</ele>
        <time>2021-10-02T13:16:43Z</time>
      </trkpt>
      <trkpt lat="44.46427" lon="1.40091">
        <ele>214.3</ele>
        <time>2021-10-02T13:16:44Z</time>
      </trkpt>
      <trkpt lat="44.46422" lon="1.40091">
        <ele>214.5</ele>
        <time>2021-10-02T13:16:46Z</time>
      </trkpt>
      <trkpt lat="44.4642" lon="1.40091">
        <ele>214.5</ele>
        <time>2021-10-02T13:16:47Z</time>
      </trkpt>
      <trkpt lat="44.46418" lon="1.40091">
        <ele>214.6</ele>
        <time>2021-10-02T13:16:48Z</time>
      </trkpt>
      <trkpt lat="44.46414" lon="1.4009">
        <ele>214.7</ele>
        <time>2021-10-02T13:16:49Z</time>
      </trkpt>
      <trkpt lat="44.4641" lon="1.40091">
        <ele>214.9</ele>
        <time>2021-10-02T13:16:51Z</time>
      </trkpt>
      <trkpt lat="44.46407" lon="1.40092">
        <ele>215</ele>
        <time>2021-10-02T13:16:52Z</time>
      </trkpt>
      <trkpt lat="44.46403" lon="1.40092">
        <ele>215.1</ele>
        <time>2021-10-02T13:16:53Z</time>
      </trkpt>
      <trkpt lat="44.46398" lon="1.40092">
        <ele>215.3</ele>
        <time>2021-10-02T13:16:55Z</time>
      </trkpt>
      <trkpt lat="44.46396" lon="1.40093">
        <ele>215.4</ele>
        <time>2021-10-02T13:16:56Z</time>
      </trkpt>
      <trkpt lat="44.46394" lon="1.40093">
        <ele>215.5</ele>
        <time>2021-10-02T13:16:57Z</time>
      </trkpt>
      <trkpt lat="44.4639" lon="1.40094">
        <ele>215.7</ele>
        <time>2021-10-02T13:16:59Z</time>
      </trkpt>
      <trkpt lat="44.46385" lon="1.40093">
        <ele>215.9</ele>
        <time>2021-10-02T13:17:00Z</time>
      </trkpt>
      <trkpt lat="44.46384" lon="1.40093">
        <ele>216</ele>
        <time>2021-10-02T13:17:01Z</time>
      </trkpt>
      <trkpt lat="44.4638" lon="1.40093">
        <ele>216.2</ele>
        <time>2021-10-02T13:17:03Z</time>
      </trkpt>
      <trkpt lat="44.46376" lon="1.40092">
        <ele>216.4</ele>
        <time>2021-10-02T13:17:04Z</time>
      </trkpt>
      <trkpt lat="44.46372" lon="1.40093">
        <ele>216.6</ele>
        <time>2021-10-02T13:17:06Z</time>
      </trkpt>
      <trkpt lat="44.46366" lon="1.40092">
        <ele>217.1</ele>
        <time>2021-10-02T13:17:08Z</time>
      </trkpt>
      <trkpt lat="44.4636" lon="1.40093">
        <ele>217.5</ele>
        <time>2021-10-02T13:17:10Z</time>
      </trkpt>
      <trkpt lat="44.46356" lon="1.40092">
        <ele>217.8</ele>
        <time>2021-10-02T13:17:11Z</time>
      </trkpt>
      <trkpt lat="44.46353" lon="1.40092">
        <ele>218.1</ele>
        <time>2021-10-02T13:17:12Z</time>
      </trkpt>
      <trkpt lat="44.46349" lon="1.40092">
        <ele>218.4</ele>
        <time>2021-10-02T13:17:14Z</time>
      </trkpt>
      <trkpt lat="44.46347" lon="1.40091">
        <ele>218.6</ele>
        <time>2021-10-02T13:17:15Z</time>
      </trkpt>
      <trkpt lat="44.46342" lon="1.40091">
        <ele>219.1</ele>
        <time>2021-10-02T13:17:17Z</time>
      </trkpt>
      <trkpt lat="44.46338" lon="1.40091">
        <ele>219.4</ele>
        <time>2021-10-02T13:17:18Z</time>
      </trkpt>
      <trkpt lat="44.46334" lon="1.40089">
        <ele>219.8</ele>
        <time>2021-10-02T13:17:19Z</time>
      </trkpt>
      <trkpt lat="44.46333" lon="1.40089">
        <ele>219.9</ele>
        <time>2021-10-02T13:17:20Z</time>
      </trkpt>
      <trkpt lat="44.46329" lon="1.40089">
        <ele>220.3</ele>
        <time>2021-10-02T13:17:21Z</time>
      </trkpt>
      <trkpt lat="44.46326" lon="1.40089">
        <ele>220.6</ele>
        <time>2021-10-02T13:17:23Z</time>
      </trkpt>
      <trkpt lat="44.46323" lon="1.40089">
        <ele>220.9</ele>
        <time>2021-10-02T13:17:24Z</time>
      </trkpt>
      <trkpt lat="44.4632" lon="1.40088">
        <ele>221.2</ele>
        <time>2021-10-02T13:17:25Z</time>
      </trkpt>
      <trkpt lat="44.46317" lon="1.40088">
        <ele>221.4</ele>
        <time>2021-10-02T13:17:26Z</time>
      </trkpt>
      <trkpt lat="44.46313" lon="1.40088">
        <ele>221.8</ele>
        <time>2021-10-02T13:17:28Z</time>
      </trkpt>
      <trkpt lat="44.46312" lon="1.40088">
        <ele>222</ele>
        <time>2021-10-02T13:17:29Z</time>
      </trkpt>
      <trkpt lat="44.46308" lon="1.40087">
        <ele>222.3</ele>
        <time>2021-10-02T13:17:31Z</time>
      </trkpt>
      <trkpt lat="44.46307" lon="1.40087">
        <ele>222.4</ele>
        <time>2021-10-02T13:17:32Z</time>
      </trkpt>
      <trkpt lat="44.46304" lon="1.40086">
        <ele>222.8</ele>
        <time>2021-10-02T13:17:33Z</time>
      </trkpt>
      <trkpt lat="44.46302" lon="1.40086">
        <ele>222.9</ele>
        <time>2021-10-02T13:17:34Z</time>
      </trkpt>
      <trkpt lat="44.46299" lon="1.40085">
        <ele>223.4</ele>
        <time>2021-10-02T13:17:35Z</time>
      </trkpt>
      <trkpt lat="44.46295" lon="1.40084">
        <ele>223.7</ele>
        <time>2021-10-02T13:17:37Z</time>
      </trkpt>
      <trkpt lat="44.46293" lon="1.40085">
        <ele>224</ele>
        <time>2021-10-02T13:17:38Z</time>
      </trkpt>
      <trkpt lat="44.4629" lon="1.40085">
        <ele>224.4</ele>
        <time>2021-10-02T13:17:40Z</time>
      </trkpt>
      <trkpt lat="44.46287" lon="1.40087">
        <ele>224.7</ele>
        <time>2021-10-02T13:17:41Z</time>
      </trkpt>
      <trkpt lat="44.46286" lon="1.40087">
        <ele>224.9</ele>
        <time>2021-10-02T13:17:42Z</time>
      </trkpt>
      <trkpt lat="44.46285" lon="1.40088">
        <ele>225.1</ele>
        <time>2021-10-02T13:17:43Z</time>
      </trkpt>
      <trkpt lat="44.46282" lon="1.4009">
        <ele>225.4</ele>
        <time>2021-10-02T13:17:45Z</time>
      </trkpt>
      <trkpt lat="44.46279" lon="1.40091">
        <ele>225.9</ele>
        <time>2021-10-02T13:17:46Z</time>
      </trkpt>
      <trkpt lat="44.46278" lon="1.40091">
        <ele>226.1</ele>
        <time>2021-10-02T13:17:47Z</time>
      </trkpt>
      <trkpt lat="44.46276" lon="1.40092">
        <ele>226.5</ele>
        <time>2021-10-02T13:17:48Z</time>
      </trkpt>
      <trkpt lat="44.46275" lon="1.40092">
        <ele>226.6</ele>
        <time>2021-10-02T13:17:50Z</time>
      </trkpt>
      <trkpt lat="44.46273" lon="1.40092">
        <ele>226.8</ele>
        <time>2021-10-02T13:17:51Z</time>
      </trkpt>
      <trkpt lat="44.46272" lon="1.40092">
        <ele>227</ele>
        <time>2021-10-02T13:17:52Z</time>
      </trkpt>
      <trkpt lat="44.46271" lon="1.40092">
        <ele>227.3</ele>
        <time>2021-10-02T13:17:53Z</time>
      </trkpt>
      <trkpt lat="44.46269" lon="1.40091">
        <ele>227.6</ele>
        <time>2021-10-02T13:17:55Z</time>
      </trkpt>
      <trkpt lat="44.46268" lon="1.4009">
        <ele>227.8</ele>
        <time>2021-10-02T13:17:56Z</time>
      </trkpt>
      <trkpt lat="44.46267" lon="1.4009">
        <ele>228</ele>
        <time>2021-10-02T13:17:57Z</time>
      </trkpt>
      <trkpt lat="44.46264" lon="1.40089">
        <ele>228.4</ele>
        <time>2021-10-02T13:17:59Z</time>
      </trkpt>
      <trkpt lat="44.46263" lon="1.40088">
        <ele>228.7</ele>
        <time>2021-10-02T13:18:00Z</time>
      </trkpt>
      <trkpt lat="44.46262" lon="1.40087">
        <ele>228.8</ele>
        <time>2021-10-02T13:18:01Z</time>
      </trkpt>
      <trkpt lat="44.46261" lon="1.40087">
        <ele>229.1</ele>
        <time>2021-10-02T13:18:02Z</time>
      </trkpt>
      <trkpt lat="44.46259" lon="1.40087">
        <ele>229.3</ele>
        <time>2021-10-02T13:18:03Z</time>
      </trkpt>
      <trkpt lat="44.46256" lon="1.40087">
        <ele>229.9</ele>
        <time>2021-10-02T13:18:06Z</time>
      </trkpt>
      <trkpt lat="44.46254" lon="1.40086">
        <ele>230.3</ele>
        <time>2021-10-02T13:18:07Z</time>
      </trkpt>
      <trkpt lat="44.46253" lon="1.40086">
        <ele>230.4</ele>
        <time>2021-10-02T13:18:08Z</time>
      </trkpt>
      <trkpt lat="44.46252" lon="1.40086">
        <ele>230.6</ele>
        <time>2021-10-02T13:18:09Z</time>
      </trkpt>
      <trkpt lat="44.4625" lon="1.40085">
        <ele>231</ele>
        <time>2021-10-02T13:18:11Z</time>
      </trkpt>
      <trkpt lat="44.46249" lon="1.40085">
        <ele>231.3</ele>
        <time>2021-10-02T13:18:12Z</time>
      </trkpt>
      <trkpt lat="44.46248" lon="1.40085">
        <ele>231.3</ele>
        <time>2021-10-02T13:18:13Z</time>
      </trkpt>
      <trkpt lat="44.46248" lon="1.40085">
        <ele>231.5</ele>
        <time>2021-10-02T13:18:15Z</time>
      </trkpt>
      <trkpt lat="44.46247" lon="1.40085">
        <ele>231.5</ele>
        <time>2021-10-02T13:18:17Z</time>
      </trkpt>
      <trkpt lat="44.46246" lon="1.40085">
        <ele>231.8</ele>
        <time>2021-10-02T13:18:18Z</time>
      </trkpt>
      <trkpt lat="44.46242" lon="1.40085">
        <ele>232.5</ele>
        <time>2021-10-02T13:18:19Z</time>
      </trkpt>
      <trkpt lat="44.4624" lon="1.40085">
        <ele>232.8</ele>
        <time>2021-10-02T13:18:20Z</time>
      </trkpt>
      <trkpt lat="44.46239" lon="1.40085">
        <ele>233.1</ele>
        <time>2021-10-02T13:18:22Z</time>
      </trkpt>
      <trkpt lat="44.46238" lon="1.40084">
        <ele>233.3</ele>
        <time>2021-10-02T13:18:23Z</time>
      </trkpt>
      <trkpt lat="44.46236" lon="1.40084">
        <ele>233.5</ele>
        <time>2021-10-02T13:18:24Z</time>
      </trkpt>
      <trkpt lat="44.46234" lon="1.40083">
        <ele>233.9</ele>
        <time>2021-10-02T13:18:26Z</time>
      </trkpt>
      <trkpt lat="44.46233" lon="1.40083">
        <ele>234.2</ele>
        <time>2021-10-02T13:18:27Z</time>
      </trkpt>
      <trkpt lat="44.46231" lon="1.40083">
        <ele>234.4</ele>
        <time>2021-10-02T13:18:28Z</time>
      </trkpt>
      <trkpt lat="44.46229" lon="1.40084">
        <ele>234.9</ele>
        <time>2021-10-02T13:18:30Z</time>
      </trkpt>
      <trkpt lat="44.46228" lon="1.40085">
        <ele>235</ele>
        <time>2021-10-02T13:18:31Z</time>
      </trkpt>
      <trkpt lat="44.46226" lon="1.40086">
        <ele>235.4</ele>
        <time>2021-10-02T13:18:33Z</time>
      </trkpt>
      <trkpt lat="44.46225" lon="1.40086">
        <ele>235.6</ele>
        <time>2021-10-02T13:18:34Z</time>
      </trkpt>
      <trkpt lat="44.46224" lon="1.40086">
        <ele>235.7</ele>
        <time>2021-10-02T13:18:36Z</time>
      </trkpt>
      <trkpt lat="44.46223" lon="1.40087">
        <ele>235.9</ele>
        <time>2021-10-02T13:18:37Z</time>
      </trkpt>
      <trkpt lat="44.46222" lon="1.40087">
        <ele>236</ele>
        <time>2021-10-02T13:18:38Z</time>
      </trkpt>
      <trkpt lat="44.46221" lon="1.40087">
        <ele>236.2</ele>
        <time>2021-10-02T13:18:39Z</time>
      </trkpt>
      <trkpt lat="44.4622" lon="1.40088">
        <ele>236.3</ele>
        <time>2021-10-02T13:18:41Z</time>
      </trkpt>
      <trkpt lat="44.46219" lon="1.40088">
        <ele>236.5</ele>
        <time>2021-10-02T13:18:42Z</time>
      </trkpt>
      <trkpt lat="44.46218" lon="1.40088">
        <ele>236.6</ele>
        <time>2021-10-02T13:18:43Z</time>
      </trkpt>
      <trkpt lat="44.46217" lon="1.40089">
        <ele>236.9</ele>
        <time>2021-10-02T13:18:45Z</time>
      </trkpt>
      <trkpt lat="44.46216" lon="1.40089">
        <ele>237</ele>
        <time>2021-10-02T13:18:46Z</time>
      </trkpt>
      <trkpt lat="44.46215" lon="1.40089">
        <ele>237.1</ele>
        <time>2021-10-02T13:18:47Z</time>
      </trkpt>
      <trkpt lat="44.46213" lon="1.4009">
        <ele>237.4</ele>
        <time>2021-10-02T13:18:49Z</time>
      </trkpt>
      <trkpt lat="44.46212" lon="1.4009">
        <ele>237.7</ele>
        <time>2021-10-02T13:18:51Z</time>
      </trkpt>
      <trkpt lat="44.4621" lon="1.40091">
        <ele>237.9</ele>
        <time>2021-10-02T13:18:52Z</time>
      </trkpt>
      <trkpt lat="44.46208" lon="1.40091">
        <ele>238.2</ele>
        <time>2021-10-02T13:18:53Z</time>
      </trkpt>
      <trkpt lat="44.46207" lon="1.40092">
        <ele>238.5</ele>
        <time>2021-10-02T13:18:59Z</time>
      </trkpt>
      <trkpt lat="44.46205" lon="1.40093">
        <ele>238.7</ele>
        <time>2021-10-02T13:19:00Z</time>
      </trkpt>
      <trkpt lat="44.46203" lon="1.40094">
        <ele>239.1</ele>
        <time>2021-10-02T13:19:01Z</time>
      </trkpt>
      <trkpt lat="44.46202" lon="1.40094">
        <ele>239.2</ele>
        <time>2021-10-02T13:19:03Z</time>
      </trkpt>
      <trkpt lat="44.46201" lon="1.40094">
        <ele>239.4</ele>
        <time>2021-10-02T13:19:04Z</time>
      </trkpt>
      <trkpt lat="44.46199" lon="1.40095">
        <ele>239.7</ele>
        <time>2021-10-02T13:19:05Z</time>
      </trkpt>
      <trkpt lat="44.46199" lon="1.40095">
        <ele>239.7</ele>
        <time>2021-10-02T13:19:06Z</time>
      </trkpt>
      <trkpt lat="44.46198" lon="1.40095">
        <ele>239.8</ele>
        <time>2021-10-02T13:19:08Z</time>
      </trkpt>
      <trkpt lat="44.46198" lon="1.40095">
        <ele>239.9</ele>
        <time>2021-10-02T13:19:09Z</time>
      </trkpt>
      <trkpt lat="44.46196" lon="1.40096">
        <ele>240.2</ele>
        <time>2021-10-02T13:19:10Z</time>
      </trkpt>
      <trkpt lat="44.46195" lon="1.40096">
        <ele>240.4</ele>
        <time>2021-10-02T13:19:12Z</time>
      </trkpt>
      <trkpt lat="44.46194" lon="1.40097">
        <ele>240.6</ele>
        <time>2021-10-02T13:19:13Z</time>
      </trkpt>
      <trkpt lat="44.46193" lon="1.40097">
        <ele>240.8</ele>
        <time>2021-10-02T13:19:14Z</time>
      </trkpt>
      <trkpt lat="44.46192" lon="1.40097">
        <ele>241</ele>
        <time>2021-10-02T13:19:16Z</time>
      </trkpt>
      <trkpt lat="44.46191" lon="1.40098">
        <ele>241.1</ele>
        <time>2021-10-02T13:19:17Z</time>
      </trkpt>
      <trkpt lat="44.46186" lon="1.40099">
        <ele>241.9</ele>
        <time>2021-10-02T13:19:18Z</time>
      </trkpt>
      <trkpt lat="44.46181" lon="1.401">
        <ele>242.6</ele>
        <time>2021-10-02T13:19:20Z</time>
      </trkpt>
      <trkpt lat="44.46177" lon="1.40101">
        <ele>243.3</ele>
        <time>2021-10-02T13:19:22Z</time>
      </trkpt>
      <trkpt lat="44.46172" lon="1.40102">
        <ele>244</ele>
        <time>2021-10-02T13:19:39Z</time>
      </trkpt>
      <trkpt lat="44.46168" lon="1.40103">
        <ele>244.6</ele>
        <time>2021-10-02T13:19:40Z</time>
      </trkpt>
      <trkpt lat="44.46166" lon="1.40103">
        <ele>244.9</ele>
        <time>2021-10-02T13:19:41Z</time>
      </trkpt>
      <trkpt lat="44.46165" lon="1.40104">
        <ele>245.1</ele>
        <time>2021-10-02T13:19:43Z</time>
      </trkpt>
      <trkpt lat="44.46162" lon="1.40106">
        <ele>245.6</ele>
        <time>2021-10-02T13:19:44Z</time>
      </trkpt>
      <trkpt lat="44.4616" lon="1.40106">
        <ele>245.9</ele>
        <time>2021-10-02T13:19:45Z</time>
      </trkpt>
      <trkpt lat="44.46159" lon="1.40106">
        <ele>246</ele>
        <time>2021-10-02T13:19:46Z</time>
      </trkpt>
      <trkpt lat="44.46158" lon="1.40106">
        <ele>246.1</ele>
        <time>2021-10-02T13:19:48Z</time>
      </trkpt>
      <trkpt lat="44.46158" lon="1.40106">
        <ele>246.3</ele>
        <time>2021-10-02T13:19:49Z</time>
      </trkpt>
      <trkpt lat="44.46157" lon="1.40106">
        <ele>246.4</ele>
        <time>2021-10-02T13:19:51Z</time>
      </trkpt>
      <trkpt lat="44.46156" lon="1.40107">
        <ele>246.5</ele>
        <time>2021-10-02T13:19:52Z</time>
      </trkpt>
      <trkpt lat="44.46155" lon="1.40107">
        <ele>246.7</ele>
        <time>2021-10-02T13:19:53Z</time>
      </trkpt>
      <trkpt lat="44.46153" lon="1.40107">
        <ele>246.9</ele>
        <time>2021-10-02T13:19:55Z</time>
      </trkpt>
      <trkpt lat="44.46151" lon="1.40107">
        <ele>247.2</ele>
        <time>2021-10-02T13:19:57Z</time>
      </trkpt>
      <trkpt lat="44.46148" lon="1.40107">
        <ele>247.8</ele>
        <time>2021-10-02T13:19:58Z</time>
      </trkpt>
      <trkpt lat="44.46145" lon="1.40107">
        <ele>248.2</ele>
        <time>2021-10-02T13:20:00Z</time>
      </trkpt>
      <trkpt lat="44.46143" lon="1.40108">
        <ele>248.5</ele>
        <time>2021-10-02T13:20:02Z</time>
      </trkpt>
      <trkpt lat="44.4614" lon="1.40109">
        <ele>248.9</ele>
        <time>2021-10-02T13:20:03Z</time>
      </trkpt>
      <trkpt lat="44.46138" lon="1.40109">
        <ele>249.3</ele>
        <time>2021-10-02T13:20:18Z</time>
      </trkpt>
      <trkpt lat="44.46135" lon="1.4011">
        <ele>249.7</ele>
        <time>2021-10-02T13:20:20Z</time>
      </trkpt>
      <trkpt lat="44.46133" lon="1.40111">
        <ele>250</ele>
        <time>2021-10-02T13:20:21Z</time>
      </trkpt>
      <trkpt lat="44.46131" lon="1.40111">
        <ele>250.4</ele>
        <time>2021-10-02T13:20:22Z</time>
      </trkpt>
      <trkpt lat="44.4613" lon="1.40111">
        <ele>250.5</ele>
        <time>2021-10-02T13:20:24Z</time>
      </trkpt>
      <trkpt lat="44.46129" lon="1.40111">
        <ele>250.6</ele>
        <time>2021-10-02T13:20:25Z</time>
      </trkpt>
      <trkpt lat="44.46129" lon="1.40112">
        <ele>250.7</ele>
        <time>2021-10-02T13:20:26Z</time>
      </trkpt>
      <trkpt lat="44.46128" lon="1.40112">
        <ele>250.7</ele>
        <time>2021-10-02T13:20:28Z</time>
      </trkpt>
      <trkpt lat="44.46128" lon="1.40112">
        <ele>250.8</ele>
        <time>2021-10-02T13:20:29Z</time>
      </trkpt>
      <trkpt lat="44.46128" lon="1.40112">
        <ele>250.8</ele>
        <time>2021-10-02T13:20:30Z</time>
      </trkpt>
      <trkpt lat="44.46124" lon="1.40112">
        <ele>251.4</ele>
        <time>2021-10-02T13:20:32Z</time>
      </trkpt>
      <trkpt lat="44.46119" lon="1.40112">
        <ele>252</ele>
        <time>2021-10-02T13:20:33Z</time>
      </trkpt>
      <trkpt lat="44.46117" lon="1.40112">
        <ele>252.3</ele>
        <time>2021-10-02T13:20:34Z</time>
      </trkpt>
      <trkpt lat="44.46116" lon="1.40112">
        <ele>252.5</ele>
        <time>2021-10-02T13:20:36Z</time>
      </trkpt>
      <trkpt lat="44.46116" lon="1.40112">
        <ele>252.5</ele>
        <time>2021-10-02T13:20:37Z</time>
      </trkpt>
      <trkpt lat="44.46115" lon="1.40112">
        <ele>252.6</ele>
        <time>2021-10-02T13:20:38Z</time>
      </trkpt>
      <trkpt lat="44.46115" lon="1.40112">
        <ele>252.6</ele>
        <time>2021-10-02T13:20:39Z</time>
      </trkpt>
      <trkpt lat="44.46115" lon="1.40112">
        <ele>252.6</ele>
        <time>2021-10-02T13:20:41Z</time>
      </trkpt>
      <trkpt lat="44.46115" lon="1.40112">
        <ele>252.6</ele>
        <time>2021-10-02T13:20:43Z</time>
      </trkpt>
      <trkpt lat="44.46106" lon="1.40111">
        <ele>253.8</ele>
        <time>2021-10-02T13:20:45Z</time>
      </trkpt>
      <trkpt lat="44.46103" lon="1.4011">
        <ele>254.3</ele>
        <time>2021-10-02T13:20:46Z</time>
      </trkpt>
      <trkpt lat="44.46099" lon="1.4011">
        <ele>254.8</ele>
        <time>2021-10-02T13:20:48Z</time>
      </trkpt>
      <trkpt lat="44.46096" lon="1.40109">
        <ele>255.2</ele>
        <time>2021-10-02T13:20:49Z</time>
      </trkpt>
      <trkpt lat="44.46093" lon="1.40108">
        <ele>255.5</ele>
        <time>2021-10-02T13:20:50Z</time>
      </trkpt>
      <trkpt lat="44.4609" lon="1.40107">
        <ele>255.9</ele>
        <time>2021-10-02T13:20:52Z</time>
      </trkpt>
      <trkpt lat="44.46088" lon="1.40107">
        <ele>256.2</ele>
        <time>2021-10-02T13:20:53Z</time>
      </trkpt>
      <trkpt lat="44.46085" lon="1.40106">
        <ele>256.6</ele>
        <time>2021-10-02T13:20:54Z</time>
      </trkpt>
      <trkpt lat="44.46082" lon="1.40105">
        <ele>256.9</ele>
        <time>2021-10-02T13:20:56Z</time>
      </trkpt>
      <trkpt lat="44.46079" lon="1.40104">
        <ele>257.2</ele>
        <time>2021-10-02T13:21:13Z</time>
      </trkpt>
      <trkpt lat="44.46076" lon="1.40103">
        <ele>257.5</ele>
        <time>2021-10-02T13:21:14Z</time>
      </trkpt>
      <trkpt lat="44.46074" lon="1.40102">
        <ele>257.9</ele>
        <time>2021-10-02T13:21:15Z</time>
      </trkpt>
      <trkpt lat="44.46072" lon="1.40101">
        <ele>258</ele>
        <time>2021-10-02T13:21:16Z</time>
      </trkpt>
      <trkpt lat="44.46071" lon="1.40102">
        <ele>258.1</ele>
        <time>2021-10-02T13:21:18Z</time>
      </trkpt>
      <trkpt lat="44.46071" lon="1.40102">
        <ele>258.2</ele>
        <time>2021-10-02T13:21:19Z</time>
      </trkpt>
      <trkpt lat="44.4607" lon="1.40102">
        <ele>258.3</ele>
        <time>2021-10-02T13:21:20Z</time>
      </trkpt>
      <trkpt lat="44.46069" lon="1.40101">
        <ele>258.3</ele>
        <time>2021-10-02T13:21:22Z</time>
      </trkpt>
      <trkpt lat="44.46069" lon="1.40101">
        <ele>258.4</ele>
        <time>2021-10-02T13:21:23Z</time>
      </trkpt>
      <trkpt lat="44.46067" lon="1.40101">
        <ele>258.5</ele>
        <time>2021-10-02T13:21:25Z</time>
      </trkpt>
      <trkpt lat="44.46065" lon="1.401">
        <ele>258.7</ele>
        <time>2021-10-02T13:21:26Z</time>
      </trkpt>
      <trkpt lat="44.46064" lon="1.40098">
        <ele>258.8</ele>
        <time>2021-10-02T13:21:28Z</time>
      </trkpt>
      <trkpt lat="44.46063" lon="1.40098">
        <ele>258.9</ele>
        <time>2021-10-02T13:21:30Z</time>
      </trkpt>
      <trkpt lat="44.46062" lon="1.40097">
        <ele>259</ele>
        <time>2021-10-02T13:21:31Z</time>
      </trkpt>
      <trkpt lat="44.46061" lon="1.40097">
        <ele>259</ele>
        <time>2021-10-02T13:21:32Z</time>
      </trkpt>
      <trkpt lat="44.46058" lon="1.40096">
        <ele>259.2</ele>
        <time>2021-10-02T13:21:34Z</time>
      </trkpt>
      <trkpt lat="44.46055" lon="1.40094">
        <ele>259.3</ele>
        <time>2021-10-02T13:21:35Z</time>
      </trkpt>
      <trkpt lat="44.46052" lon="1.40093">
        <ele>259.5</ele>
        <time>2021-10-02T13:21:39Z</time>
      </trkpt>
      <trkpt lat="44.46049" lon="1.40091">
        <ele>259.6</ele>
        <time>2021-10-02T13:21:40Z</time>
      </trkpt>
      <trkpt lat="44.46048" lon="1.40091">
        <ele>259.7</ele>
        <time>2021-10-02T13:21:41Z</time>
      </trkpt>
      <trkpt lat="44.46047" lon="1.40091">
        <ele>259.7</ele>
        <time>2021-10-02T13:21:43Z</time>
      </trkpt>
      <trkpt lat="44.46047" lon="1.40091">
        <ele>259.7</ele>
        <time>2021-10-02T13:21:44Z</time>
      </trkpt>
      <trkpt lat="44.46046" lon="1.40091">
        <ele>259.7</ele>
        <time>2021-10-02T13:21:45Z</time>
      </trkpt>
      <trkpt lat="44.46046" lon="1.40091">
        <ele>259.7</ele>
        <time>2021-10-02T13:21:47Z</time>
      </trkpt>
      <trkpt lat="44.46046" lon="1.40091">
        <ele>259.7</ele>
        <time>2021-10-02T13:21:48Z</time>
      </trkpt>
      <trkpt lat="44.46046" lon="1.40091">
        <ele>259.7</ele>
        <time>2021-10-02T13:21:50Z</time>
      </trkpt>
      <trkpt lat="44.46046" lon="1.40091">
        <ele>259.7</ele>
        <time>2021-10-02T13:21:52Z</time>
      </trkpt>
      <trkpt lat="44.46046" lon="1.40091">
        <ele>259.7</ele>
        <time>2021-10-02T13:21:53Z</time>
      </trkpt>
      <trkpt lat="44.46046" lon="1.40091">
        <ele>259.7</ele>
        <time>2021-10-02T13:21:55Z</time>
      </trkpt>
      <trkpt lat="44.46046" lon="1.40091">
        <ele>259.7</ele>
        <time>2021-10-02T13:21:56Z</time>
      </trkpt>
      <trkpt lat="44.46046" lon="1.40091">
        <ele>259.7</ele>
        <time>2021-10-02T13:21:58Z</time>
      </trkpt>
      <trkpt lat="44.46046" lon="1.40091">
        <ele>259.7</ele>
        <time>2021-10-02T13:21:59Z</time>
      </trkpt>
      <trkpt lat="44.46046" lon="1.40091">
        <ele>259.7</ele>
        <time>2021-10-02T13:22:00Z</time>
      </trkpt>
      <trkpt lat="44.46046" lon="1.40091">
        <ele>259.7</ele>
        <time>2021-10-02T13:22:02Z</time>
      </trkpt>
      <trkpt lat="44.46046" lon="1.40091">
        <ele>259.7</ele>
        <time>2021-10-02T13:22:03Z</time>
      </trkpt>
      <trkpt lat="44.46046" lon="1.40091">
        <ele>259.7</ele>
        <time>2021-10-02T13:22:05Z</time>
      </trkpt>
      <trkpt lat="44.46046" lon="1.40091">
        <ele>259.7</ele>
        <time>2021-10-02T13:22:06Z</time>
      </trkpt>
      <trkpt lat="44.46046" lon="1.40091">
        <ele>259.7</ele>
        <time>2021-10-02T13:22:07Z</time>
      </trkpt>
      <trkpt lat="44.46046" lon="1.40091">
        <ele>259.7</ele>
        <time>2021-10-02T13:22:08Z</time>
      </trkpt>
      <trkpt lat="44.46046" lon="1.40091">
        <ele>259.7</ele>
        <time>2021-10-02T13:22:10Z</time>
      </trkpt>
      <trkpt lat="44.46046" lon="1.40091">
        <ele>259.7</ele>
        <time>2021-10-02T13:22:12Z</time>
      </trkpt>
      <trkpt lat="44.46046" lon="1.40091">
        <ele>259.7</ele>
        <time>2021-10-02T13:22:14Z</time>
      </trkpt>
      <trkpt lat="44.46046" lon="1.40091">
        <ele>259.7</ele>
        <time>2021-10-02T13:22:15Z</time>
      </trkpt>
      <trkpt lat="44.46046" lon="1.40091">
        <ele>259.7</ele>
        <time>2021-10-02T13:22:17Z</time>
      </trkpt>
      <trkpt lat="44.46046" lon="1.40091">
        <ele>259.7</ele>
        <time>2021-10-02T13:22:18Z</time>
      </trkpt>
      <trkpt lat="44.46046" lon="1.40091">
        <ele>259.7</ele>
        <time>2021-10-02T13:22:20Z</time>
      </trkpt>
      <trkpt lat="44.46046" lon="1.40091">
        <ele>259.7</ele>
        <time>2021-10-02T13:22:22Z</time>
      </trkpt>
      <trkpt lat="44.46046" lon="1.40091">
        <ele>259.7</ele>
        <time>2021-10-02T13:22:23Z</time>
      </trkpt>
      <trkpt lat="44.46046" lon="1.40091">
        <ele>259.7</ele>
        <time>2021-10-02T13:22:24Z</time>
      </trkpt>
      <trkpt lat="44.46046" lon="1.40091">
        <ele>259.7</ele>
        <time>2021-10-02T13:22:25Z</time>
      </trkpt>
      <trkpt lat="44.46046" lon="1.40091">
        <ele>259.7</ele>
        <time>2021-10-02T13:22:27Z</time>
      </trkpt>
      <trkpt lat="44.46046" lon="1.40091">
        <ele>259.7</ele>
        <time>2021-10-02T13:22:28Z</time>
      </trkpt>
      <trkpt lat="44.46046" lon="1.40091">
        <ele>259.7</ele>
        <time>2021-10-02T13:22:29Z</time>
      </trkpt>
      <trkpt lat="44.46046" lon="1.40091">
        <ele>259.7</ele>
        <time>2021-10-02T13:22:31Z</time>
      </trkpt>
      <trkpt lat="44.46046" lon="1.40091">
        <ele>259.7</ele>
        <time>2021-10-02T13:22:32Z</time>
      </trkpt>
      <trkpt lat="44.46046" lon="1.40091">
        <ele>259.7</ele>
        <time>2021-10-02T13:22:33Z</time>
      </trkpt>
      <trkpt lat="44.46046" lon="1.40091">
        <ele>259.7</ele>
        <time>2021-10-02T13:22:35Z</time>
      </trkpt>
      <trkpt lat="44.46046" lon="1.40091">
        <ele>259.7</ele>
        <time>2021-10-02T13:22:37Z</time>
      </trkpt>
      <trkpt lat="44.46046" lon="1.40091">
        <ele>259.7</ele>
        <time>2021-10-02T13:22:39Z</time>
      </trkpt>
      <trkpt lat="44.46046" lon="1.40091">
        <ele>259.7</ele>
        <time>2021-10-02T13:22:40Z</time>
      </trkpt>
      <trkpt lat="44.46046" lon="1.40091">
        <ele>259.7</ele>
        <time>2021-10-02T13:22:42Z</time>
      </trkpt>
      <trkpt lat="44.46046" lon="1.40091">
        <ele>259.7</ele>
        <time>2021-10-02T13:22:44Z</time>
      </trkpt>
      <trkpt lat="44.46046" lon="1.40091">
        <ele>259.7</ele>
        <time>2021-10-02T13:22:45Z</time>
      </trkpt>
      <trkpt lat="44.46045" lon="1.40091">
        <ele>259.7</ele>
        <time>2021-10-02T13:22:46Z</time>
      </trkpt>
      <trkpt lat="44.46042" lon="1.40089">
        <ele>259.6</ele>
        <time>2021-10-02T13:22:48Z</time>
      </trkpt>
      <trkpt lat="44.46037" lon="1.40088">
        <ele>259.5</ele>
        <time>2021-10-02T13:22:49Z</time>
      </trkpt>
      <trkpt lat="44.46034" lon="1.40088">
        <ele>259.5</ele>
        <time>2021-10-02T13:22:50Z</time>
      </trkpt>
      <trkpt lat="44.4603" lon="1.40088">
        <ele>259.4</ele>
        <time>2021-10-02T13:22:52Z</time>
      </trkpt>
      <trkpt lat="44.46028" lon="1.40088">
        <ele>259.3</ele>
        <time>2021-10-02T13:22:53Z</time>
      </trkpt>
      <trkpt lat="44.46025" lon="1.40087">
        <ele>259.3</ele>
        <time>2021-10-02T13:22:54Z</time>
      </trkpt>
      <trkpt lat="44.46022" lon="1.40087">
        <ele>259.2</ele>
        <time>2021-10-02T13:22:56Z</time>
      </trkpt>
      <trkpt lat="44.46018" lon="1.40086">
        <ele>259.1</ele>
        <time>2021-10-02T13:22:57Z</time>
      </trkpt>
      <trkpt lat="44.46014" lon="1.40085">
        <ele>258.9</ele>
        <time>2021-10-02T13:22:58Z</time>
      </trkpt>
      <trkpt lat="44.46012" lon="1.40085">
        <ele>258.8</ele>
        <time>2021-10-02T13:22:59Z</time>
      </trkpt>
      <trkpt lat="44.46008" lon="1.40084">
        <ele>258.7</ele>
        <time>2021-10-02T13:23:00Z</time>
      </trkpt>
      <trkpt lat="44.46004" lon="1.40084">
        <ele>258.6</ele>
        <time>2021-10-02T13:23:01Z</time>
      </trkpt>
      <trkpt lat="44.46" lon="1.40084">
        <ele>258.4</ele>
        <time>2021-10-02T13:23:02Z</time>
      </trkpt>
      <trkpt lat="44.45996" lon="1.40084">
        <ele>258.2</ele>
        <time>2021-10-02T13:23:03Z</time>
      </trkpt>
      <trkpt lat="44.4599" lon="1.40081">
        <ele>257.9</ele>
        <time>2021-10-02T13:23:05Z</time>
      </trkpt>
      <trkpt lat="44.45985" lon="1.40079">
        <ele>257.7</ele>
        <time>2021-10-02T13:23:06Z</time>
      </trkpt>
      <trkpt lat="44.4598" lon="1.40078">
        <ele>257.5</ele>
        <time>2021-10-02T13:23:07Z</time>
      </trkpt>
      <trkpt lat="44.45975" lon="1.40076">
        <ele>257.2</ele>
        <time>2021-10-02T13:23:09Z</time>
      </trkpt>
      <trkpt lat="44.4597" lon="1.40074">
        <ele>257.1</ele>
        <time>2021-10-02T13:23:10Z</time>
      </trkpt>
      <trkpt lat="44.45964" lon="1.40072">
        <ele>256.9</ele>
        <time>2021-10-02T13:23:11Z</time>
      </trkpt>
      <trkpt lat="44.4596" lon="1.4007">
        <ele>256.9</ele>
        <time>2021-10-02T13:23:12Z</time>
      </trkpt>
      <trkpt lat="44.45952" lon="1.40067">
        <ele>256.8</ele>
        <time>2021-10-02T13:23:14Z</time>
      </trkpt>
      <trkpt lat="44.45948" lon="1.40065">
        <ele>256.8</ele>
        <time>2021-10-02T13:23:15Z</time>
      </trkpt>
      <trkpt lat="44.45946" lon="1.40068">
        <ele>256.8</ele>
        <time>2021-10-02T13:23:16Z</time>
      </trkpt>
      <trkpt lat="44.45945" lon="1.40075">
        <ele>256.9</ele>
        <time>2021-10-02T13:23:17Z</time>
      </trkpt>
      <trkpt lat="44.45945" lon="1.40079">
        <ele>256.9</ele>
        <time>2021-10-02T13:23:18Z</time>
      </trkpt>
      <trkpt lat="44.45944" lon="1.40083">
        <ele>256.9</ele>
        <time>2021-10-02T13:23:20Z</time>
      </trkpt>
      <trkpt lat="44.45943" lon="1.40084">
        <ele>256.9</ele>
        <time>2021-10-02T13:23:21Z</time>
      </trkpt>
      <trkpt lat="44.4594" lon="1.40087">
        <ele>256.8</ele>
        <time>2021-10-02T13:23:22Z</time>
      </trkpt>
      <trkpt lat="44.45936" lon="1.40089">
        <ele>256.8</ele>
        <time>2021-10-02T13:23:24Z</time>
      </trkpt>
      <trkpt lat="44.45934" lon="1.40089">
        <ele>256.7</ele>
        <time>2021-10-02T13:23:25Z</time>
      </trkpt>
      <trkpt lat="44.45928" lon="1.40088">
        <ele>256.5</ele>
        <time>2021-10-02T13:23:27Z</time>
      </trkpt>
      <trkpt lat="44.45926" lon="1.40084">
        <ele>256.3</ele>
        <time>2021-10-02T13:23:28Z</time>
      </trkpt>
      <trkpt lat="44.45922" lon="1.40081">
        <ele>256.1</ele>
        <time>2021-10-02T13:23:29Z</time>
      </trkpt>
      <trkpt lat="44.45917" lon="1.40075">
        <ele>255.7</ele>
        <time>2021-10-02T13:23:30Z</time>
      </trkpt>
      <trkpt lat="44.45913" lon="1.40069">
        <ele>255.3</ele>
        <time>2021-10-02T13:23:32Z</time>
      </trkpt>
      <trkpt lat="44.45908" lon="1.40066">
        <ele>254.8</ele>
        <time>2021-10-02T13:23:33Z</time>
      </trkpt>
      <trkpt lat="44.45899" lon="1.40065">
        <ele>254.1</ele>
        <time>2021-10-02T13:23:35Z</time>
      </trkpt>
      <trkpt lat="44.45896" lon="1.40064">
        <ele>253.8</ele>
        <time>2021-10-02T13:23:36Z</time>
      </trkpt>
      <trkpt lat="44.45894" lon="1.40061">
        <ele>253.6</ele>
        <time>2021-10-02T13:23:37Z</time>
      </trkpt>
      <trkpt lat="44.45887" lon="1.40056">
        <ele>253.1</ele>
        <time>2021-10-02T13:23:38Z</time>
      </trkpt>
      <trkpt lat="44.45883" lon="1.40057">
        <ele>252.8</ele>
        <time>2021-10-02T13:23:39Z</time>
      </trkpt>
      <trkpt lat="44.45876" lon="1.40056">
        <ele>252.3</ele>
        <time>2021-10-02T13:23:41Z</time>
      </trkpt>
      <trkpt lat="44.4587" lon="1.40054">
        <ele>252</ele>
        <time>2021-10-02T13:23:42Z</time>
      </trkpt>
      <trkpt lat="44.45865" lon="1.40051">
        <ele>251.7</ele>
        <time>2021-10-02T13:23:44Z</time>
      </trkpt>
      <trkpt lat="44.45862" lon="1.40049">
        <ele>251.4</ele>
        <time>2021-10-02T13:23:45Z</time>
      </trkpt>
      <trkpt lat="44.45854" lon="1.40045">
        <ele>251</ele>
        <time>2021-10-02T13:23:46Z</time>
      </trkpt>
      <trkpt lat="44.45851" lon="1.4004">
        <ele>250.7</ele>
        <time>2021-10-02T13:23:48Z</time>
      </trkpt>
      <trkpt lat="44.45847" lon="1.40037">
        <ele>250.4</ele>
        <time>2021-10-02T13:23:49Z</time>
      </trkpt>
      <trkpt lat="44.45842" lon="1.40032">
        <ele>250.1</ele>
        <time>2021-10-02T13:23:50Z</time>
      </trkpt>
      <trkpt lat="44.45838" lon="1.40026">
        <ele>249.7</ele>
        <time>2021-10-02T13:23:52Z</time>
      </trkpt>
      <trkpt lat="44.45834" lon="1.40024">
        <ele>249.3</ele>
        <time>2021-10-02T13:23:53Z</time>
      </trkpt>
      <trkpt lat="44.45829" lon="1.40023">
        <ele>249.1</ele>
        <time>2021-10-02T13:23:54Z</time>
      </trkpt>
      <trkpt lat="44.45824" lon="1.40022">
        <ele>248.8</ele>
        <time>2021-10-02T13:23:55Z</time>
      </trkpt>
      <trkpt lat="44.45819" lon="1.40021">
        <ele>248.6</ele>
        <time>2021-10-02T13:23:56Z</time>
      </trkpt>
      <trkpt lat="44.45814" lon="1.4002">
        <ele>248.4</ele>
        <time>2021-10-02T13:23:58Z</time>
      </trkpt>
      <trkpt lat="44.45808" lon="1.40018">
        <ele>248.3</ele>
        <time>2021-10-02T13:23:59Z</time>
      </trkpt>
      <trkpt lat="44.458" lon="1.40017">
        <ele>248.2</ele>
        <time>2021-10-02T13:24:01Z</time>
      </trkpt>
      <trkpt lat="44.45794" lon="1.40016">
        <ele>248.2</ele>
        <time>2021-10-02T13:24:03Z</time>
      </trkpt>
      <trkpt lat="44.4579" lon="1.40014">
        <ele>248.2</ele>
        <time>2021-10-02T13:24:04Z</time>
      </trkpt>
      <trkpt lat="44.45788" lon="1.40008">
        <ele>248.2</ele>
        <time>2021-10-02T13:24:05Z</time>
      </trkpt>
      <trkpt lat="44.45785" lon="1.40002">
        <ele>248.3</ele>
        <time>2021-10-02T13:24:06Z</time>
      </trkpt>
      <trkpt lat="44.4578" lon="1.4">
        <ele>248.3</ele>
        <time>2021-10-02T13:24:08Z</time>
      </trkpt>
      <trkpt lat="44.45776" lon="1.39995">
        <ele>248.4</ele>
        <time>2021-10-02T13:24:09Z</time>
      </trkpt>
      <trkpt lat="44.45771" lon="1.39993">
        <ele>248.4</ele>
        <time>2021-10-02T13:24:10Z</time>
      </trkpt>
      <trkpt lat="44.45765" lon="1.39991">
        <ele>248.5</ele>
        <time>2021-10-02T13:24:12Z</time>
      </trkpt>
      <trkpt lat="44.45762" lon="1.39992">
        <ele>248.5</ele>
        <time>2021-10-02T13:24:13Z</time>
      </trkpt>
      <trkpt lat="44.45758" lon="1.39993">
        <ele>248.5</ele>
        <time>2021-10-02T13:24:14Z</time>
      </trkpt>
      <trkpt lat="44.45753" lon="1.3999">
        <ele>248.5</ele>
        <time>2021-10-02T13:24:16Z</time>
      </trkpt>
      <trkpt lat="44.45748" lon="1.39988">
        <ele>248.6</ele>
        <time>2021-10-02T13:24:17Z</time>
      </trkpt>
      <trkpt lat="44.45745" lon="1.3999">
        <ele>248.6</ele>
        <time>2021-10-02T13:24:18Z</time>
      </trkpt>
      <trkpt lat="44.45743" lon="1.3999">
        <ele>248.6</ele>
        <time>2021-10-02T13:24:19Z</time>
      </trkpt>
      <trkpt lat="44.45741" lon="1.39988">
        <ele>248.7</ele>
        <time>2021-10-02T13:24:21Z</time>
      </trkpt>
      <trkpt lat="44.45737" lon="1.39987">
        <ele>248.7</ele>
        <time>2021-10-02T13:24:22Z</time>
      </trkpt>
      <trkpt lat="44.45737" lon="1.39987">
        <ele>248.7</ele>
        <time>2021-10-02T13:24:24Z</time>
      </trkpt>
      <trkpt lat="44.45736" lon="1.39987">
        <ele>248.8</ele>
        <time>2021-10-02T13:24:26Z</time>
      </trkpt>
      <trkpt lat="44.45735" lon="1.39986">
        <ele>248.8</ele>
        <time>2021-10-02T13:24:28Z</time>
      </trkpt>
      <trkpt lat="44.45734" lon="1.39986">
        <ele>248.8</ele>
        <time>2021-10-02T13:24:29Z</time>
      </trkpt>
      <trkpt lat="44.45733" lon="1.39986">
        <ele>248.8</ele>
        <time>2021-10-02T13:24:30Z</time>
      </trkpt>
      <trkpt lat="44.45732" lon="1.39985">
        <ele>248.8</ele>
        <time>2021-10-02T13:24:31Z</time>
      </trkpt>
      <trkpt lat="44.4573" lon="1.39982">
        <ele>248.9</ele>
        <time>2021-10-02T13:24:33Z</time>
      </trkpt>
      <trkpt lat="44.45726" lon="1.39978">
        <ele>249.1</ele>
        <time>2021-10-02T13:24:35Z</time>
      </trkpt>
      <trkpt lat="44.45723" lon="1.39974">
        <ele>249.3</ele>
        <time>2021-10-02T13:24:36Z</time>
      </trkpt>
      <trkpt lat="44.45721" lon="1.39971">
        <ele>249.4</ele>
        <time>2021-10-02T13:24:38Z</time>
      </trkpt>
      <trkpt lat="44.45717" lon="1.39966">
        <ele>249.6</ele>
        <time>2021-10-02T13:24:39Z</time>
      </trkpt>
      <trkpt lat="44.45713" lon="1.39963">
        <ele>249.8</ele>
        <time>2021-10-02T13:24:41Z</time>
      </trkpt>
      <trkpt lat="44.45711" lon="1.39962">
        <ele>249.9</ele>
        <time>2021-10-02T13:24:42Z</time>
      </trkpt>
      <trkpt lat="44.4571" lon="1.39961">
        <ele>250</ele>
        <time>2021-10-02T13:24:43Z</time>
      </trkpt>
      <trkpt lat="44.45708" lon="1.39959">
        <ele>250.1</ele>
        <time>2021-10-02T13:24:44Z</time>
      </trkpt>
      <trkpt lat="44.45706" lon="1.39955">
        <ele>250.2</ele>
        <time>2021-10-02T13:24:46Z</time>
      </trkpt>
      <trkpt lat="44.45705" lon="1.39951">
        <ele>250.3</ele>
        <time>2021-10-02T13:24:47Z</time>
      </trkpt>
      <trkpt lat="44.45703" lon="1.39947">
        <ele>250.4</ele>
        <time>2021-10-02T13:24:48Z</time>
      </trkpt>
      <trkpt lat="44.45701" lon="1.39944">
        <ele>250.5</ele>
        <time>2021-10-02T13:24:49Z</time>
      </trkpt>
      <trkpt lat="44.45698" lon="1.39942">
        <ele>250.6</ele>
        <time>2021-10-02T13:24:50Z</time>
      </trkpt>
      <trkpt lat="44.45694" lon="1.39943">
        <ele>250.6</ele>
        <time>2021-10-02T13:24:52Z</time>
      </trkpt>
      <trkpt lat="44.4569" lon="1.3994">
        <ele>250.6</ele>
        <time>2021-10-02T13:24:54Z</time>
      </trkpt>
      <trkpt lat="44.45687" lon="1.39937">
        <ele>250.7</ele>
        <time>2021-10-02T13:24:55Z</time>
      </trkpt>
      <trkpt lat="44.45685" lon="1.39935">
        <ele>250.7</ele>
        <time>2021-10-02T13:24:56Z</time>
      </trkpt>
      <trkpt lat="44.45682" lon="1.39934">
        <ele>250.6</ele>
        <time>2021-10-02T13:24:57Z</time>
      </trkpt>
      <trkpt lat="44.45679" lon="1.39931">
        <ele>250.6</ele>
        <time>2021-10-02T13:24:59Z</time>
      </trkpt>
      <trkpt lat="44.45677" lon="1.39928">
        <ele>250.6</ele>
        <time>2021-10-02T13:25:00Z</time>
      </trkpt>
      <trkpt lat="44.45673" lon="1.39924">
        <ele>250.6</ele>
        <time>2021-10-02T13:25:01Z</time>
      </trkpt>
      <trkpt lat="44.45669" lon="1.39922">
        <ele>250.5</ele>
        <time>2021-10-02T13:25:02Z</time>
      </trkpt>
      <trkpt lat="44.45665" lon="1.39922">
        <ele>250.5</ele>
        <time>2021-10-02T13:25:03Z</time>
      </trkpt>
      <trkpt lat="44.45661" lon="1.39921">
        <ele>250.4</ele>
        <time>2021-10-02T13:25:04Z</time>
      </trkpt>
      <trkpt lat="44.45657" lon="1.39917">
        <ele>250.2</ele>
        <time>2021-10-02T13:25:06Z</time>
      </trkpt>
      <trkpt lat="44.45653" lon="1.39913">
        <ele>250.1</ele>
        <time>2021-10-02T13:25:07Z</time>
      </trkpt>
      <trkpt lat="44.45649" lon="1.39913">
        <ele>249.9</ele>
        <time>2021-10-02T13:25:08Z</time>
      </trkpt>
      <trkpt lat="44.45644" lon="1.39914">
        <ele>249.6</ele>
        <time>2021-10-02T13:25:09Z</time>
      </trkpt>
      <trkpt lat="44.45638" lon="1.39915">
        <ele>249.3</ele>
        <time>2021-10-02T13:25:11Z</time>
      </trkpt>
      <trkpt lat="44.45633" lon="1.39915">
        <ele>249</ele>
        <time>2021-10-02T13:25:12Z</time>
      </trkpt>
      <trkpt lat="44.45626" lon="1.39915">
        <ele>248.5</ele>
        <time>2021-10-02T13:25:13Z</time>
      </trkpt>
      <trkpt lat="44.45622" lon="1.39916">
        <ele>248.1</ele>
        <time>2021-10-02T13:25:15Z</time>
      </trkpt>
      <trkpt lat="44.45617" lon="1.39916">
        <ele>247.7</ele>
        <time>2021-10-02T13:25:16Z</time>
      </trkpt>
      <trkpt lat="44.45611" lon="1.39913">
        <ele>247.1</ele>
        <time>2021-10-02T13:25:17Z</time>
      </trkpt>
      <trkpt lat="44.45603" lon="1.3991">
        <ele>246.4</ele>
        <time>2021-10-02T13:25:19Z</time>
      </trkpt>
      <trkpt lat="44.45597" lon="1.39908">
        <ele>245.9</ele>
        <time>2021-10-02T13:25:20Z</time>
      </trkpt>
      <trkpt lat="44.45591" lon="1.39907">
        <ele>245.4</ele>
        <time>2021-10-02T13:25:21Z</time>
      </trkpt>
      <trkpt lat="44.4558" lon="1.39906">
        <ele>244.8</ele>
        <time>2021-10-02T13:25:23Z</time>
      </trkpt>
      <trkpt lat="44.45577" lon="1.39904">
        <ele>244.5</ele>
        <time>2021-10-02T13:25:24Z</time>
      </trkpt>
      <trkpt lat="44.45575" lon="1.39901">
        <ele>244.4</ele>
        <time>2021-10-02T13:25:25Z</time>
      </trkpt>
      <trkpt lat="44.4557" lon="1.39895">
        <ele>244</ele>
        <time>2021-10-02T13:25:26Z</time>
      </trkpt>
      <trkpt lat="44.45566" lon="1.39892">
        <ele>243.8</ele>
        <time>2021-10-02T13:25:28Z</time>
      </trkpt>
      <trkpt lat="44.45566" lon="1.39893">
        <ele>243.7</ele>
        <time>2021-10-02T13:25:29Z</time>
      </trkpt>
      <trkpt lat="44.45566" lon="1.39893">
        <ele>243.7</ele>
        <time>2021-10-02T13:25:31Z</time>
      </trkpt>
      <trkpt lat="44.45566" lon="1.39893">
        <ele>243.7</ele>
        <time>2021-10-02T13:25:33Z</time>
      </trkpt>
      <trkpt lat="44.45566" lon="1.39892">
        <ele>243.7</ele>
        <time>2021-10-02T13:25:35Z</time>
      </trkpt>
      <trkpt lat="44.45566" lon="1.39892">
        <ele>243.7</ele>
        <time>2021-10-02T13:25:36Z</time>
      </trkpt>
      <trkpt lat="44.45565" lon="1.39892">
        <ele>243.6</ele>
        <time>2021-10-02T13:25:37Z</time>
      </trkpt>
      <trkpt lat="44.45562" lon="1.3989">
        <ele>243.4</ele>
        <time>2021-10-02T13:25:39Z</time>
      </trkpt>
      <trkpt lat="44.45557" lon="1.39889">
        <ele>243.1</ele>
        <time>2021-10-02T13:25:40Z</time>
      </trkpt>
      <trkpt lat="44.45553" lon="1.39887">
        <ele>242.9</ele>
        <time>2021-10-02T13:25:41Z</time>
      </trkpt>
      <trkpt lat="44.4555" lon="1.39885">
        <ele>242.7</ele>
        <time>2021-10-02T13:25:42Z</time>
      </trkpt>
      <trkpt lat="44.45543" lon="1.39883">
        <ele>242.5</ele>
        <time>2021-10-02T13:25:43Z</time>
      </trkpt>
      <trkpt lat="44.45538" lon="1.39881">
        <ele>242.3</ele>
        <time>2021-10-02T13:25:45Z</time>
      </trkpt>
      <trkpt lat="44.45532" lon="1.39881">
        <ele>242.2</ele>
        <time>2021-10-02T13:25:46Z</time>
      </trkpt>
      <trkpt lat="44.45523" lon="1.39875">
        <ele>242.3</ele>
        <time>2021-10-02T13:25:48Z</time>
      </trkpt>
      <trkpt lat="44.45522" lon="1.39871">
        <ele>242.3</ele>
        <time>2021-10-02T13:25:49Z</time>
      </trkpt>
      <trkpt lat="44.45518" lon="1.39862">
        <ele>242.7</ele>
        <time>2021-10-02T13:25:51Z</time>
      </trkpt>
      <trkpt lat="44.45516" lon="1.39858">
        <ele>242.9</ele>
        <time>2021-10-02T13:25:52Z</time>
      </trkpt>
      <trkpt lat="44.45511" lon="1.39855">
        <ele>243.2</ele>
        <time>2021-10-02T13:25:53Z</time>
      </trkpt>
      <trkpt lat="44.45507" lon="1.39856">
        <ele>243.5</ele>
        <time>2021-10-02T13:25:55Z</time>
      </trkpt>
      <trkpt lat="44.45505" lon="1.39857">
        <ele>243.7</ele>
        <time>2021-10-02T13:25:56Z</time>
      </trkpt>
      <trkpt lat="44.455" lon="1.39856">
        <ele>244</ele>
        <time>2021-10-02T13:25:57Z</time>
      </trkpt>
      <trkpt lat="44.45497" lon="1.39851">
        <ele>244.4</ele>
        <time>2021-10-02T13:25:59Z</time>
      </trkpt>
      <trkpt lat="44.45495" lon="1.39849">
        <ele>244.6</ele>
        <time>2021-10-02T13:26:00Z</time>
      </trkpt>
      <trkpt lat="44.45491" lon="1.39847">
        <ele>244.9</ele>
        <time>2021-10-02T13:26:01Z</time>
      </trkpt>
      <trkpt lat="44.45489" lon="1.39843">
        <ele>245.3</ele>
        <time>2021-10-02T13:26:02Z</time>
      </trkpt>
      <trkpt lat="44.45488" lon="1.39837">
        <ele>245.7</ele>
        <time>2021-10-02T13:26:03Z</time>
      </trkpt>
      <trkpt lat="44.45486" lon="1.39831">
        <ele>246.1</ele>
        <time>2021-10-02T13:26:05Z</time>
      </trkpt>
      <trkpt lat="44.45485" lon="1.3983">
        <ele>246.3</ele>
        <time>2021-10-02T13:26:06Z</time>
      </trkpt>
      <trkpt lat="44.45483" lon="1.39829">
        <ele>246.4</ele>
        <time>2021-10-02T13:26:07Z</time>
      </trkpt>
      <trkpt lat="44.45481" lon="1.39827">
        <ele>246.8</ele>
        <time>2021-10-02T13:26:08Z</time>
      </trkpt>
      <trkpt lat="44.45478" lon="1.39825">
        <ele>247.1</ele>
        <time>2021-10-02T13:26:10Z</time>
      </trkpt>
      <trkpt lat="44.45476" lon="1.39822">
        <ele>247.5</ele>
        <time>2021-10-02T13:26:11Z</time>
      </trkpt>
      <trkpt lat="44.45473" lon="1.39817">
        <ele>248.1</ele>
        <time>2021-10-02T13:26:13Z</time>
      </trkpt>
      <trkpt lat="44.45472" lon="1.39815">
        <ele>248.3</ele>
        <time>2021-10-02T13:26:14Z</time>
      </trkpt>
      <trkpt lat="44.45471" lon="1.39813">
        <ele>248.5</ele>
        <time>2021-10-02T13:26:15Z</time>
      </trkpt>
      <trkpt lat="44.4547" lon="1.39807">
        <ele>249.1</ele>
        <time>2021-10-02T13:26:17Z</time>
      </trkpt>
      <trkpt lat="44.45469" lon="1.39805">
        <ele>249.3</ele>
        <time>2021-10-02T13:26:18Z</time>
      </trkpt>
      <trkpt lat="44.45467" lon="1.39799">
        <ele>249.9</ele>
        <time>2021-10-02T13:26:20Z</time>
      </trkpt>
      <trkpt lat="44.45467" lon="1.39797">
        <ele>250</ele>
        <time>2021-10-02T13:26:21Z</time>
      </trkpt>
      <trkpt lat="44.45466" lon="1.39796">
        <ele>250.2</ele>
        <time>2021-10-02T13:26:22Z</time>
      </trkpt>
      <trkpt lat="44.45464" lon="1.39789">
        <ele>250.9</ele>
        <time>2021-10-02T13:26:24Z</time>
      </trkpt>
      <trkpt lat="44.45463" lon="1.39787">
        <ele>251.1</ele>
        <time>2021-10-02T13:26:25Z</time>
      </trkpt>
      <trkpt lat="44.45462" lon="1.39784">
        <ele>251.3</ele>
        <time>2021-10-02T13:26:26Z</time>
      </trkpt>
      <trkpt lat="44.4546" lon="1.39779">
        <ele>251.8</ele>
        <time>2021-10-02T13:26:28Z</time>
      </trkpt>
      <trkpt lat="44.4546" lon="1.39777">
        <ele>252</ele>
        <time>2021-10-02T13:26:29Z</time>
      </trkpt>
      <trkpt lat="44.45459" lon="1.39775">
        <ele>252.1</ele>
        <time>2021-10-02T13:26:30Z</time>
      </trkpt>
      <trkpt lat="44.45457" lon="1.39771">
        <ele>252.5</ele>
        <time>2021-10-02T13:26:31Z</time>
      </trkpt>
      <trkpt lat="44.45456" lon="1.3977">
        <ele>252.6</ele>
        <time>2021-10-02T13:26:32Z</time>
      </trkpt>
      <trkpt lat="44.45456" lon="1.39768">
        <ele>252.7</ele>
        <time>2021-10-02T13:26:34Z</time>
      </trkpt>
      <trkpt lat="44.45455" lon="1.39766">
        <ele>252.8</ele>
        <time>2021-10-02T13:26:35Z</time>
      </trkpt>
      <trkpt lat="44.45454" lon="1.39765">
        <ele>252.9</ele>
        <time>2021-10-02T13:26:36Z</time>
      </trkpt>
      <trkpt lat="44.45453" lon="1.39763">
        <ele>253.1</ele>
        <time>2021-10-02T13:26:37Z</time>
      </trkpt>
      <trkpt lat="44.4545" lon="1.3976">
        <ele>253.3</ele>
        <time>2021-10-02T13:26:39Z</time>
      </trkpt>
      <trkpt lat="44.45449" lon="1.39759">
        <ele>253.4</ele>
        <time>2021-10-02T13:26:40Z</time>
      </trkpt>
      <trkpt lat="44.45448" lon="1.39757">
        <ele>253.6</ele>
        <time>2021-10-02T13:26:41Z</time>
      </trkpt>
      <trkpt lat="44.45446" lon="1.39755">
        <ele>253.7</ele>
        <time>2021-10-02T13:26:43Z</time>
      </trkpt>
      <trkpt lat="44.45445" lon="1.39753">
        <ele>253.8</ele>
        <time>2021-10-02T13:26:44Z</time>
      </trkpt>
      <trkpt lat="44.45443" lon="1.3975">
        <ele>254</ele>
        <time>2021-10-02T13:26:46Z</time>
      </trkpt>
      <trkpt lat="44.45441" lon="1.39747">
        <ele>254.1</ele>
        <time>2021-10-02T13:26:47Z</time>
      </trkpt>
      <trkpt lat="44.45439" lon="1.39744">
        <ele>254.3</ele>
        <time>2021-10-02T13:26:48Z</time>
      </trkpt>
      <trkpt lat="44.45436" lon="1.39741">
        <ele>254.5</ele>
        <time>2021-10-02T13:26:50Z</time>
      </trkpt>
      <trkpt lat="44.45435" lon="1.3974">
        <ele>254.6</ele>
        <time>2021-10-02T13:26:51Z</time>
      </trkpt>
      <trkpt lat="44.45433" lon="1.39737">
        <ele>254.8</ele>
        <time>2021-10-02T13:26:52Z</time>
      </trkpt>
      <trkpt lat="44.45432" lon="1.39735">
        <ele>254.9</ele>
        <time>2021-10-02T13:26:53Z</time>
      </trkpt>
      <trkpt lat="44.4543" lon="1.39731">
        <ele>255.1</ele>
        <time>2021-10-02T13:26:54Z</time>
      </trkpt>
      <trkpt lat="44.45429" lon="1.39729">
        <ele>255.2</ele>
        <time>2021-10-02T13:26:55Z</time>
      </trkpt>
      <trkpt lat="44.45427" lon="1.39726">
        <ele>255.4</ele>
        <time>2021-10-02T13:26:57Z</time>
      </trkpt>
      <trkpt lat="44.45426" lon="1.39724">
        <ele>255.5</ele>
        <time>2021-10-02T13:26:58Z</time>
      </trkpt>
      <trkpt lat="44.45424" lon="1.39723">
        <ele>255.6</ele>
        <time>2021-10-02T13:26:59Z</time>
      </trkpt>
      <trkpt lat="44.45423" lon="1.39721">
        <ele>255.8</ele>
        <time>2021-10-02T13:27:01Z</time>
      </trkpt>
      <trkpt lat="44.45422" lon="1.3972">
        <ele>255.9</ele>
        <time>2021-10-02T13:27:02Z</time>
      </trkpt>
      <trkpt lat="44.4542" lon="1.39717">
        <ele>256.1</ele>
        <time>2021-10-02T13:27:03Z</time>
      </trkpt>
      <trkpt lat="44.45418" lon="1.39714">
        <ele>256.3</ele>
        <time>2021-10-02T13:27:05Z</time>
      </trkpt>
      <trkpt lat="44.45416" lon="1.39711">
        <ele>256.5</ele>
        <time>2021-10-02T13:27:06Z</time>
      </trkpt>
      <trkpt lat="44.45415" lon="1.39709">
        <ele>256.6</ele>
        <time>2021-10-02T13:27:08Z</time>
      </trkpt>
      <trkpt lat="44.45415" lon="1.39707">
        <ele>256.7</ele>
        <time>2021-10-02T13:27:09Z</time>
      </trkpt>
      <trkpt lat="44.45413" lon="1.39704">
        <ele>256.9</ele>
        <time>2021-10-02T13:27:10Z</time>
      </trkpt>
      <trkpt lat="44.45412" lon="1.39703">
        <ele>257</ele>
        <time>2021-10-02T13:27:11Z</time>
      </trkpt>
      <trkpt lat="44.4541" lon="1.39701">
        <ele>257</ele>
        <time>2021-10-02T13:27:13Z</time>
      </trkpt>
      <trkpt lat="44.45408" lon="1.39701">
        <ele>257.1</ele>
        <time>2021-10-02T13:27:14Z</time>
      </trkpt>
      <trkpt lat="44.45406" lon="1.39701">
        <ele>257.1</ele>
        <time>2021-10-02T13:27:15Z</time>
      </trkpt>
      <trkpt lat="44.45404" lon="1.397">
        <ele>257.2</ele>
        <time>2021-10-02T13:27:17Z</time>
      </trkpt>
      <trkpt lat="44.45401" lon="1.397">
        <ele>257.3</ele>
        <time>2021-10-02T13:27:18Z</time>
      </trkpt>
      <trkpt lat="44.454" lon="1.397">
        <ele>257.3</ele>
        <time>2021-10-02T13:27:19Z</time>
      </trkpt>
      <trkpt lat="44.45398" lon="1.397">
        <ele>257.3</ele>
        <time>2021-10-02T13:27:20Z</time>
      </trkpt>
      <trkpt lat="44.45397" lon="1.397">
        <ele>257.3</ele>
        <time>2021-10-02T13:27:21Z</time>
      </trkpt>
      <trkpt lat="44.45394" lon="1.397">
        <ele>257.4</ele>
        <time>2021-10-02T13:27:22Z</time>
      </trkpt>
      <trkpt lat="44.45392" lon="1.397">
        <ele>257.4</ele>
        <time>2021-10-02T13:27:23Z</time>
      </trkpt>
      <trkpt lat="44.45388" lon="1.39701">
        <ele>257.5</ele>
        <time>2021-10-02T13:27:25Z</time>
      </trkpt>
      <trkpt lat="44.45387" lon="1.39701">
        <ele>257.5</ele>
        <time>2021-10-02T13:27:26Z</time>
      </trkpt>
      <trkpt lat="44.45386" lon="1.39702">
        <ele>257.5</ele>
        <time>2021-10-02T13:27:27Z</time>
      </trkpt>
      <trkpt lat="44.45383" lon="1.39703">
        <ele>257.6</ele>
        <time>2021-10-02T13:27:28Z</time>
      </trkpt>
      <trkpt lat="44.45379" lon="1.39704">
        <ele>257.7</ele>
        <time>2021-10-02T13:27:29Z</time>
      </trkpt>
      <trkpt lat="44.45375" lon="1.39704">
        <ele>257.7</ele>
        <time>2021-10-02T13:27:31Z</time>
      </trkpt>
      <trkpt lat="44.45372" lon="1.39705">
        <ele>257.8</ele>
        <time>2021-10-02T13:27:32Z</time>
      </trkpt>
      <trkpt lat="44.45369" lon="1.39707">
        <ele>257.8</ele>
        <time>2021-10-02T13:27:33Z</time>
      </trkpt>
      <trkpt lat="44.45366" lon="1.39709">
        <ele>257.9</ele>
        <time>2021-10-02T13:27:34Z</time>
      </trkpt>
      <trkpt lat="44.45362" lon="1.39711">
        <ele>257.9</ele>
        <time>2021-10-02T13:27:35Z</time>
      </trkpt>
      <trkpt lat="44.45356" lon="1.39715">
        <ele>258</ele>
        <time>2021-10-02T13:27:37Z</time>
      </trkpt>
      <trkpt lat="44.45354" lon="1.39717">
        <ele>258</ele>
        <time>2021-10-02T13:27:38Z</time>
      </trkpt>
      <trkpt lat="44.4535" lon="1.39719">
        <ele>258</ele>
        <time>2021-10-02T13:27:39Z</time>
      </trkpt>
      <trkpt lat="44.45347" lon="1.39722">
        <ele>258</ele>
        <time>2021-10-02T13:27:40Z</time>
      </trkpt>
      <trkpt lat="44.45345" lon="1.39725">
        <ele>258</ele>
        <time>2021-10-02T13:27:42Z</time>
      </trkpt>
      <trkpt lat="44.45341" lon="1.39728">
        <ele>258</ele>
        <time>2021-10-02T13:27:43Z</time>
      </trkpt>
      <trkpt lat="44.45338" lon="1.39731">
        <ele>258.1</ele>
        <time>2021-10-02T13:27:44Z</time>
      </trkpt>
      <trkpt lat="44.45333" lon="1.39736">
        <ele>258.1</ele>
        <time>2021-10-02T13:27:45Z</time>
      </trkpt>
      <trkpt lat="44.45327" lon="1.39739">
        <ele>258.1</ele>
        <time>2021-10-02T13:27:47Z</time>
      </trkpt>
      <trkpt lat="44.45325" lon="1.39741">
        <ele>258.1</ele>
        <time>2021-10-02T13:27:48Z</time>
      </trkpt>
      <trkpt lat="44.4532" lon="1.39746">
        <ele>258.2</ele>
        <time>2021-10-02T13:27:50Z</time>
      </trkpt>
      <trkpt lat="44.45316" lon="1.39748">
        <ele>258.2</ele>
        <time>2021-10-02T13:27:51Z</time>
      </trkpt>
      <trkpt lat="44.45311" lon="1.39752">
        <ele>258.3</ele>
        <time>2021-10-02T13:27:53Z</time>
      </trkpt>
      <trkpt lat="44.45308" lon="1.39754">
        <ele>258.4</ele>
        <time>2021-10-02T13:27:54Z</time>
      </trkpt>
      <trkpt lat="44.45304" lon="1.39758">
        <ele>258.5</ele>
        <time>2021-10-02T13:27:55Z</time>
      </trkpt>
      <trkpt lat="44.453" lon="1.39761">
        <ele>258.5</ele>
        <time>2021-10-02T13:27:57Z</time>
      </trkpt>
      <trkpt lat="44.45297" lon="1.39763">
        <ele>258.6</ele>
        <time>2021-10-02T13:27:58Z</time>
      </trkpt>
      <trkpt lat="44.45294" lon="1.39766">
        <ele>258.6</ele>
        <time>2021-10-02T13:27:59Z</time>
      </trkpt>
      <trkpt lat="44.4529" lon="1.39771">
        <ele>258.7</ele>
        <time>2021-10-02T13:28:01Z</time>
      </trkpt>
      <trkpt lat="44.45287" lon="1.39776">
        <ele>258.7</ele>
        <time>2021-10-02T13:28:02Z</time>
      </trkpt>
      <trkpt lat="44.45284" lon="1.39779">
        <ele>258.7</ele>
        <time>2021-10-02T13:28:04Z</time>
      </trkpt>
      <trkpt lat="44.45281" lon="1.39783">
        <ele>258.8</ele>
        <time>2021-10-02T13:28:05Z</time>
      </trkpt>
      <trkpt lat="44.45277" lon="1.39788">
        <ele>258.8</ele>
        <time>2021-10-02T13:28:07Z</time>
      </trkpt>
      <trkpt lat="44.45274" lon="1.39792">
        <ele>258.8</ele>
        <time>2021-10-02T13:28:08Z</time>
      </trkpt>
      <trkpt lat="44.45272" lon="1.39795">
        <ele>258.8</ele>
        <time>2021-10-02T13:28:09Z</time>
      </trkpt>
      <trkpt lat="44.45268" lon="1.39802">
        <ele>258.9</ele>
        <time>2021-10-02T13:28:10Z</time>
      </trkpt>
      <trkpt lat="44.45263" lon="1.3981">
        <ele>258.9</ele>
        <time>2021-10-02T13:28:12Z</time>
      </trkpt>
      <trkpt lat="44.4526" lon="1.39814">
        <ele>258.9</ele>
        <time>2021-10-02T13:28:14Z</time>
      </trkpt>
      <trkpt lat="44.45257" lon="1.39818">
        <ele>258.9</ele>
        <time>2021-10-02T13:28:15Z</time>
      </trkpt>
      <trkpt lat="44.45253" lon="1.39826">
        <ele>259</ele>
        <time>2021-10-02T13:28:17Z</time>
      </trkpt>
      <trkpt lat="44.45249" lon="1.39832">
        <ele>259</ele>
        <time>2021-10-02T13:28:18Z</time>
      </trkpt>
      <trkpt lat="44.45245" lon="1.39836">
        <ele>259</ele>
        <time>2021-10-02T13:28:19Z</time>
      </trkpt>
      <trkpt lat="44.4524" lon="1.39837">
        <ele>258.9</ele>
        <time>2021-10-02T13:28:20Z</time>
      </trkpt>
      <trkpt lat="44.45234" lon="1.39842">
        <ele>258.9</ele>
        <time>2021-10-02T13:28:22Z</time>
      </trkpt>
      <trkpt lat="44.45228" lon="1.39848">
        <ele>258.8</ele>
        <time>2021-10-02T13:28:23Z</time>
      </trkpt>
      <trkpt lat="44.45224" lon="1.39852">
        <ele>258.7</ele>
        <time>2021-10-02T13:28:24Z</time>
      </trkpt>
      <trkpt lat="44.45221" lon="1.39856">
        <ele>258.6</ele>
        <time>2021-10-02T13:28:26Z</time>
      </trkpt>
      <trkpt lat="44.45217" lon="1.39862">
        <ele>258.5</ele>
        <time>2021-10-02T13:28:27Z</time>
      </trkpt>
      <trkpt lat="44.45214" lon="1.39866">
        <ele>258.4</ele>
        <time>2021-10-02T13:28:28Z</time>
      </trkpt>
      <trkpt lat="44.4521" lon="1.39871">
        <ele>258.3</ele>
        <time>2021-10-02T13:28:29Z</time>
      </trkpt>
      <trkpt lat="44.45205" lon="1.39877">
        <ele>258.2</ele>
        <time>2021-10-02T13:28:30Z</time>
      </trkpt>
      <trkpt lat="44.45201" lon="1.39882">
        <ele>258.2</ele>
        <time>2021-10-02T13:28:32Z</time>
      </trkpt>
      <trkpt lat="44.45198" lon="1.39886">
        <ele>258.1</ele>
        <time>2021-10-02T13:28:33Z</time>
      </trkpt>
      <trkpt lat="44.45192" lon="1.39894">
        <ele>258.1</ele>
        <time>2021-10-02T13:28:34Z</time>
      </trkpt>
      <trkpt lat="44.45189" lon="1.399">
        <ele>258.1</ele>
        <time>2021-10-02T13:28:36Z</time>
      </trkpt>
      <trkpt lat="44.45184" lon="1.39904">
        <ele>258.1</ele>
        <time>2021-10-02T13:28:37Z</time>
      </trkpt>
      <trkpt lat="44.4518" lon="1.3991">
        <ele>258.1</ele>
        <time>2021-10-02T13:28:38Z</time>
      </trkpt>
      <trkpt lat="44.45176" lon="1.39916">
        <ele>258.1</ele>
        <time>2021-10-02T13:28:40Z</time>
      </trkpt>
      <trkpt lat="44.45172" lon="1.39921">
        <ele>258.1</ele>
        <time>2021-10-02T13:28:41Z</time>
      </trkpt>
      <trkpt lat="44.45168" lon="1.39927">
        <ele>258.2</ele>
        <time>2021-10-02T13:28:42Z</time>
      </trkpt>
      <trkpt lat="44.45164" lon="1.39929">
        <ele>258.2</ele>
        <time>2021-10-02T13:28:44Z</time>
      </trkpt>
      <trkpt lat="44.45158" lon="1.39937">
        <ele>258.1</ele>
        <time>2021-10-02T13:28:45Z</time>
      </trkpt>
      <trkpt lat="44.45153" lon="1.39943">
        <ele>258</ele>
        <time>2021-10-02T13:28:47Z</time>
      </trkpt>
      <trkpt lat="44.45148" lon="1.39949">
        <ele>257.9</ele>
        <time>2021-10-02T13:28:48Z</time>
      </trkpt>
      <trkpt lat="44.45145" lon="1.39953">
        <ele>257.8</ele>
        <time>2021-10-02T13:28:50Z</time>
      </trkpt>
      <trkpt lat="44.45141" lon="1.39957">
        <ele>257.7</ele>
        <time>2021-10-02T13:28:51Z</time>
      </trkpt>
      <trkpt lat="44.45136" lon="1.39962">
        <ele>257.5</ele>
        <time>2021-10-02T13:28:52Z</time>
      </trkpt>
      <trkpt lat="44.45133" lon="1.39967">
        <ele>257.4</ele>
        <time>2021-10-02T13:28:53Z</time>
      </trkpt>
      <trkpt lat="44.4513" lon="1.39971">
        <ele>257.2</ele>
        <time>2021-10-02T13:28:55Z</time>
      </trkpt>
      <trkpt lat="44.45124" lon="1.39979">
        <ele>256.9</ele>
        <time>2021-10-02T13:28:56Z</time>
      </trkpt>
      <trkpt lat="44.45121" lon="1.39983">
        <ele>256.7</ele>
        <time>2021-10-02T13:28:58Z</time>
      </trkpt>
      <trkpt lat="44.45116" lon="1.3999">
        <ele>256.3</ele>
        <time>2021-10-02T13:28:59Z</time>
      </trkpt>
      <trkpt lat="44.45111" lon="1.39996">
        <ele>255.9</ele>
        <time>2021-10-02T13:29:01Z</time>
      </trkpt>
      <trkpt lat="44.45106" lon="1.4">
        <ele>255.5</ele>
        <time>2021-10-02T13:29:02Z</time>
      </trkpt>
      <trkpt lat="44.45102" lon="1.40003">
        <ele>255.2</ele>
        <time>2021-10-02T13:29:03Z</time>
      </trkpt>
      <trkpt lat="44.45097" lon="1.40008">
        <ele>254.7</ele>
        <time>2021-10-02T13:29:05Z</time>
      </trkpt>
      <trkpt lat="44.45092" lon="1.40012">
        <ele>254.4</ele>
        <time>2021-10-02T13:29:06Z</time>
      </trkpt>
      <trkpt lat="44.45088" lon="1.40016">
        <ele>254</ele>
        <time>2021-10-02T13:29:07Z</time>
      </trkpt>
      <trkpt lat="44.45079" lon="1.40021">
        <ele>253.5</ele>
        <time>2021-10-02T13:29:09Z</time>
      </trkpt>
      <trkpt lat="44.4507" lon="1.40027">
        <ele>253</ele>
        <time>2021-10-02T13:29:11Z</time>
      </trkpt>
      <trkpt lat="44.4506" lon="1.40032">
        <ele>252.5</ele>
        <time>2021-10-02T13:29:13Z</time>
      </trkpt>
      <trkpt lat="44.45056" lon="1.40034">
        <ele>252.3</ele>
        <time>2021-10-02T13:29:14Z</time>
      </trkpt>
      <trkpt lat="44.45046" lon="1.40037">
        <ele>251.9</ele>
        <time>2021-10-02T13:29:16Z</time>
      </trkpt>
      <trkpt lat="44.45036" lon="1.40039">
        <ele>251.5</ele>
        <time>2021-10-02T13:29:18Z</time>
      </trkpt>
      <trkpt lat="44.45031" lon="1.4004">
        <ele>251.4</ele>
        <time>2021-10-02T13:29:19Z</time>
      </trkpt>
      <trkpt lat="44.4502" lon="1.40042">
        <ele>251.4</ele>
        <time>2021-10-02T13:29:21Z</time>
      </trkpt>
      <trkpt lat="44.4501" lon="1.40044">
        <ele>251.5</ele>
        <time>2021-10-02T13:29:23Z</time>
      </trkpt>
      <trkpt lat="44.45005" lon="1.40045">
        <ele>251.5</ele>
        <time>2021-10-02T13:29:24Z</time>
      </trkpt>
      <trkpt lat="44.44994" lon="1.40049">
        <ele>251.5</ele>
        <time>2021-10-02T13:29:26Z</time>
      </trkpt>
      <trkpt lat="44.44984" lon="1.40053">
        <ele>251.3</ele>
        <time>2021-10-02T13:29:28Z</time>
      </trkpt>
      <trkpt lat="44.44979" lon="1.40056">
        <ele>251.1</ele>
        <time>2021-10-02T13:29:29Z</time>
      </trkpt>
      <trkpt lat="44.44969" lon="1.40061">
        <ele>250.7</ele>
        <time>2021-10-02T13:29:31Z</time>
      </trkpt>
      <trkpt lat="44.44964" lon="1.40064">
        <ele>250.5</ele>
        <time>2021-10-02T13:29:32Z</time>
      </trkpt>
      <trkpt lat="44.4496" lon="1.40068">
        <ele>250.5</ele>
        <time>2021-10-02T13:29:33Z</time>
      </trkpt>
      <trkpt lat="44.44956" lon="1.40071">
        <ele>250.4</ele>
        <time>2021-10-02T13:29:34Z</time>
      </trkpt>
      <trkpt lat="44.44953" lon="1.40074">
        <ele>250.3</ele>
        <time>2021-10-02T13:29:35Z</time>
      </trkpt>
      <trkpt lat="44.44946" lon="1.4008">
        <ele>250.1</ele>
        <time>2021-10-02T13:29:37Z</time>
      </trkpt>
      <trkpt lat="44.44939" lon="1.40084">
        <ele>249.9</ele>
        <time>2021-10-02T13:29:39Z</time>
      </trkpt>
      <trkpt lat="44.4493" lon="1.4009">
        <ele>249.6</ele>
        <time>2021-10-02T13:29:41Z</time>
      </trkpt>
      <trkpt lat="44.44925" lon="1.40092">
        <ele>249.5</ele>
        <time>2021-10-02T13:29:42Z</time>
      </trkpt>
      <trkpt lat="44.44914" lon="1.40097">
        <ele>249.2</ele>
        <time>2021-10-02T13:29:44Z</time>
      </trkpt>
      <trkpt lat="44.44909" lon="1.40099">
        <ele>249.1</ele>
        <time>2021-10-02T13:29:45Z</time>
      </trkpt>
      <trkpt lat="44.44899" lon="1.40103">
        <ele>248.9</ele>
        <time>2021-10-02T13:29:47Z</time>
      </trkpt>
      <trkpt lat="44.44895" lon="1.40105">
        <ele>248.9</ele>
        <time>2021-10-02T13:29:48Z</time>
      </trkpt>
      <trkpt lat="44.4489" lon="1.40108">
        <ele>248.8</ele>
        <time>2021-10-02T13:29:49Z</time>
      </trkpt>
      <trkpt lat="44.44887" lon="1.40114">
        <ele>248.8</ele>
        <time>2021-10-02T13:29:50Z</time>
      </trkpt>
      <trkpt lat="44.44885" lon="1.40119">
        <ele>248.8</ele>
        <time>2021-10-02T13:29:51Z</time>
      </trkpt>
      <trkpt lat="44.44877" lon="1.40125">
        <ele>248.8</ele>
        <time>2021-10-02T13:29:53Z</time>
      </trkpt>
      <trkpt lat="44.44873" lon="1.40129">
        <ele>248.9</ele>
        <time>2021-10-02T13:29:54Z</time>
      </trkpt>
      <trkpt lat="44.44869" lon="1.40133">
        <ele>249</ele>
        <time>2021-10-02T13:29:55Z</time>
      </trkpt>
      <trkpt lat="44.44867" lon="1.40133">
        <ele>249</ele>
        <time>2021-10-02T13:29:56Z</time>
      </trkpt>
      <trkpt lat="44.44857" lon="1.40134">
        <ele>249.2</ele>
        <time>2021-10-02T13:29:58Z</time>
      </trkpt>
      <trkpt lat="44.44852" lon="1.40135">
        <ele>249.2</ele>
        <time>2021-10-02T13:29:59Z</time>
      </trkpt>
      <trkpt lat="44.44845" lon="1.40139">
        <ele>249.3</ele>
        <time>2021-10-02T13:30:00Z</time>
      </trkpt>
      <trkpt lat="44.44838" lon="1.40144">
        <ele>249.4</ele>
        <time>2021-10-02T13:30:02Z</time>
      </trkpt>
      <trkpt lat="44.44829" lon="1.40148">
        <ele>249.6</ele>
        <time>2021-10-02T13:30:04Z</time>
      </trkpt>
      <trkpt lat="44.44824" lon="1.40148">
        <ele>249.8</ele>
        <time>2021-10-02T13:30:05Z</time>
      </trkpt>
      <trkpt lat="44.44821" lon="1.40148">
        <ele>249.9</ele>
        <time>2021-10-02T13:30:06Z</time>
      </trkpt>
      <trkpt lat="44.44815" lon="1.40149">
        <ele>250.1</ele>
        <time>2021-10-02T13:30:07Z</time>
      </trkpt>
      <trkpt lat="44.44811" lon="1.4015">
        <ele>250.3</ele>
        <time>2021-10-02T13:30:08Z</time>
      </trkpt>
      <trkpt lat="44.44809" lon="1.40155">
        <ele>250.5</ele>
        <time>2021-10-02T13:30:10Z</time>
      </trkpt>
      <trkpt lat="44.44802" lon="1.40158">
        <ele>251</ele>
        <time>2021-10-02T13:30:11Z</time>
      </trkpt>
      <trkpt lat="44.448" lon="1.40165">
        <ele>251.3</ele>
        <time>2021-10-02T13:30:13Z</time>
      </trkpt>
      <trkpt lat="44.44796" lon="1.4017">
        <ele>251.7</ele>
        <time>2021-10-02T13:30:14Z</time>
      </trkpt>
      <trkpt lat="44.44793" lon="1.40173">
        <ele>252</ele>
        <time>2021-10-02T13:30:16Z</time>
      </trkpt>
      <trkpt lat="44.44788" lon="1.40177">
        <ele>252.4</ele>
        <time>2021-10-02T13:30:18Z</time>
      </trkpt>
      <trkpt lat="44.44787" lon="1.40181">
        <ele>252.5</ele>
        <time>2021-10-02T13:30:19Z</time>
      </trkpt>
      <trkpt lat="44.44786" lon="1.40182">
        <ele>252.4</ele>
        <time>2021-10-02T13:30:20Z</time>
      </trkpt>
      <trkpt lat="44.44784" lon="1.40186">
        <ele>252.5</ele>
        <time>2021-10-02T13:30:22Z</time>
      </trkpt>
      <trkpt lat="44.44785" lon="1.40191">
        <ele>251.9</ele>
        <time>2021-10-02T13:30:23Z</time>
      </trkpt>
      <trkpt lat="44.44785" lon="1.40195">
        <ele>251.6</ele>
        <time>2021-10-02T13:30:25Z</time>
      </trkpt>
      <trkpt lat="44.44783" lon="1.402">
        <ele>251.4</ele>
        <time>2021-10-02T13:30:26Z</time>
      </trkpt>
      <trkpt lat="44.44782" lon="1.40206">
        <ele>251</ele>
        <time>2021-10-02T13:30:28Z</time>
      </trkpt>
      <trkpt lat="44.44782" lon="1.40209">
        <ele>251</ele>
        <time>2021-10-02T13:30:29Z</time>
      </trkpt>
      <trkpt lat="44.44782" lon="1.4021">
        <ele>250.7</ele>
        <time>2021-10-02T13:30:30Z</time>
      </trkpt>
      <trkpt lat="44.44782" lon="1.40211">
        <ele>250.7</ele>
        <time>2021-10-02T13:30:32Z</time>
      </trkpt>
      <trkpt lat="44.44782" lon="1.40212">
        <ele>250.7</ele>
        <time>2021-10-02T13:30:34Z</time>
      </trkpt>
      <trkpt lat="44.44782" lon="1.40214">
        <ele>250.3</ele>
        <time>2021-10-02T13:30:35Z</time>
      </trkpt>
      <trkpt lat="44.44782" lon="1.40215">
        <ele>250.3</ele>
        <time>2021-10-02T13:30:37Z</time>
      </trkpt>
      <trkpt lat="44.44782" lon="1.40216">
        <ele>250.3</ele>
        <time>2021-10-02T13:30:38Z</time>
      </trkpt>
      <trkpt lat="44.44782" lon="1.40218">
        <ele>250</ele>
        <time>2021-10-02T13:31:25Z</time>
      </trkpt>
      <trkpt lat="44.44782" lon="1.40219">
        <ele>250</ele>
        <time>2021-10-02T13:31:26Z</time>
      </trkpt>
      <trkpt lat="44.44784" lon="1.40223">
        <ele>249.6</ele>
        <time>2021-10-02T13:31:28Z</time>
      </trkpt>
      <trkpt lat="44.44789" lon="1.40229">
        <ele>248.4</ele>
        <time>2021-10-02T13:31:30Z</time>
      </trkpt>
      <trkpt lat="44.44794" lon="1.40232">
        <ele>247.1</ele>
        <time>2021-10-02T13:31:32Z</time>
      </trkpt>
      <trkpt lat="44.44801" lon="1.40237">
        <ele>245.8</ele>
        <time>2021-10-02T13:31:34Z</time>
      </trkpt>
      <trkpt lat="44.44805" lon="1.40241">
        <ele>244.9</ele>
        <time>2021-10-02T13:31:36Z</time>
      </trkpt>
      <trkpt lat="44.44807" lon="1.40244">
        <ele>243.8</ele>
        <time>2021-10-02T13:31:37Z</time>
      </trkpt>
      <trkpt lat="44.44808" lon="1.40246">
        <ele>243.8</ele>
        <time>2021-10-02T13:31:38Z</time>
      </trkpt>
      <trkpt lat="44.44811" lon="1.40252">
        <ele>242.8</ele>
        <time>2021-10-02T13:31:40Z</time>
      </trkpt>
      <trkpt lat="44.44813" lon="1.40261">
        <ele>240.5</ele>
        <time>2021-10-02T13:31:42Z</time>
      </trkpt>
      <trkpt lat="44.44814" lon="1.40267">
        <ele>239.9</ele>
        <time>2021-10-02T13:31:43Z</time>
      </trkpt>
      <trkpt lat="44.44816" lon="1.40278">
        <ele>237.6</ele>
        <time>2021-10-02T13:31:45Z</time>
      </trkpt>
      <trkpt lat="44.44821" lon="1.40289">
        <ele>235.8</ele>
        <time>2021-10-02T13:31:47Z</time>
      </trkpt>
      <trkpt lat="44.4483" lon="1.403">
        <ele>232.3</ele>
        <time>2021-10-02T13:31:49Z</time>
      </trkpt>
      <trkpt lat="44.44835" lon="1.40306">
        <ele>230.4</ele>
        <time>2021-10-02T13:31:50Z</time>
      </trkpt>
      <trkpt lat="44.44843" lon="1.40319">
        <ele>226.9</ele>
        <time>2021-10-02T13:31:52Z</time>
      </trkpt>
      <trkpt lat="44.44849" lon="1.40324">
        <ele>225.3</ele>
        <time>2021-10-02T13:31:53Z</time>
      </trkpt>
      <trkpt lat="44.44859" lon="1.40335">
        <ele>222.2</ele>
        <time>2021-10-02T13:31:55Z</time>
      </trkpt>
      <trkpt lat="44.44863" lon="1.40342">
        <ele>221.2</ele>
        <time>2021-10-02T13:31:56Z</time>
      </trkpt>
      <trkpt lat="44.44869" lon="1.40354">
        <ele>219.2</ele>
        <time>2021-10-02T13:31:58Z</time>
      </trkpt>
      <trkpt lat="44.44871" lon="1.4036">
        <ele>218.3</ele>
        <time>2021-10-02T13:31:59Z</time>
      </trkpt>
      <trkpt lat="44.44872" lon="1.40363">
        <ele>218.2</ele>
        <time>2021-10-02T13:32:00Z</time>
      </trkpt>
      <trkpt lat="44.44874" lon="1.40371">
        <ele>217.5</ele>
        <time>2021-10-02T13:32:02Z</time>
      </trkpt>
      <trkpt lat="44.44876" lon="1.40376">
        <ele>217.2</ele>
        <time>2021-10-02T13:32:04Z</time>
      </trkpt>
      <trkpt lat="44.44878" lon="1.40378">
        <ele>216.8</ele>
        <time>2021-10-02T13:32:06Z</time>
      </trkpt>
      <trkpt lat="44.4488" lon="1.40379">
        <ele>216.4</ele>
        <time>2021-10-02T13:32:07Z</time>
      </trkpt>
      <trkpt lat="44.44882" lon="1.4038">
        <ele>216.4</ele>
        <time>2021-10-02T13:32:08Z</time>
      </trkpt>
      <trkpt lat="44.44884" lon="1.40382">
        <ele>215.9</ele>
        <time>2021-10-02T13:32:10Z</time>
      </trkpt>
      <trkpt lat="44.44885" lon="1.40383">
        <ele>215.8</ele>
        <time>2021-10-02T13:32:11Z</time>
      </trkpt>
      <trkpt lat="44.44887" lon="1.40384">
        <ele>215.4</ele>
        <time>2021-10-02T13:32:13Z</time>
      </trkpt>
      <trkpt lat="44.44889" lon="1.40386">
        <ele>214.9</ele>
        <time>2021-10-02T13:32:15Z</time>
      </trkpt>
      <trkpt lat="44.44891" lon="1.40387">
        <ele>214.9</ele>
        <time>2021-10-02T13:32:31Z</time>
      </trkpt>
      <trkpt lat="44.44893" lon="1.40388">
        <ele>214.5</ele>
        <time>2021-10-02T13:32:32Z</time>
      </trkpt>
      <trkpt lat="44.44899" lon="1.4039">
        <ele>213.9</ele>
        <time>2021-10-02T13:32:34Z</time>
      </trkpt>
      <trkpt lat="44.44903" lon="1.40393">
        <ele>213.6</ele>
        <time>2021-10-02T13:32:35Z</time>
      </trkpt>
      <trkpt lat="44.4491" lon="1.404">
        <ele>213.4</ele>
        <time>2021-10-02T13:32:37Z</time>
      </trkpt>
      <trkpt lat="44.44913" lon="1.40403">
        <ele>213.3</ele>
        <time>2021-10-02T13:32:38Z</time>
      </trkpt>
      <trkpt lat="44.44915" lon="1.40404">
        <ele>213.3</ele>
        <time>2021-10-02T13:32:39Z</time>
      </trkpt>
      <trkpt lat="44.44915" lon="1.40405">
        <ele>213.3</ele>
        <time>2021-10-02T13:32:41Z</time>
      </trkpt>
      <trkpt lat="44.44915" lon="1.40405">
        <ele>213.3</ele>
        <time>2021-10-02T13:32:42Z</time>
      </trkpt>
      <trkpt lat="44.44915" lon="1.40406">
        <ele>213.3</ele>
        <time>2021-10-02T13:32:44Z</time>
      </trkpt>
      <trkpt lat="44.44915" lon="1.40406">
        <ele>213.3</ele>
        <time>2021-10-02T13:32:46Z</time>
      </trkpt>
      <trkpt lat="44.44915" lon="1.40406">
        <ele>213.3</ele>
        <time>2021-10-02T13:32:47Z</time>
      </trkpt>
      <trkpt lat="44.44915" lon="1.40406">
        <ele>213.3</ele>
        <time>2021-10-02T13:32:49Z</time>
      </trkpt>
      <trkpt lat="44.44915" lon="1.40406">
        <ele>213.3</ele>
        <time>2021-10-02T13:32:50Z</time>
      </trkpt>
      <trkpt lat="44.44915" lon="1.40406">
        <ele>213.2</ele>
        <time>2021-10-02T13:32:51Z</time>
      </trkpt>
      <trkpt lat="44.44915" lon="1.40406">
        <ele>213.2</ele>
        <time>2021-10-02T13:32:52Z</time>
      </trkpt>
      <trkpt lat="44.44918" lon="1.40419">
        <ele>213.8</ele>
        <time>2021-10-02T13:33:15Z</time>
      </trkpt>
      <trkpt lat="44.44919" lon="1.40421">
        <ele>214</ele>
        <time>2021-10-02T13:33:17Z</time>
      </trkpt>
      <trkpt lat="44.44922" lon="1.40422">
        <ele>213.9</ele>
        <time>2021-10-02T13:33:19Z</time>
      </trkpt>
      <trkpt lat="44.44923" lon="1.40423">
        <ele>213.8</ele>
        <time>2021-10-02T13:33:21Z</time>
      </trkpt>
      <trkpt lat="44.44923" lon="1.40423">
        <ele>213.8</ele>
        <time>2021-10-02T13:33:22Z</time>
      </trkpt>
      <trkpt lat="44.44923" lon="1.40423">
        <ele>214</ele>
        <time>2021-10-02T13:33:24Z</time>
      </trkpt>
      <trkpt lat="44.44923" lon="1.40424">
        <ele>214</ele>
        <time>2021-10-02T13:33:25Z</time>
      </trkpt>
      <trkpt lat="44.44924" lon="1.40424">
        <ele>214</ele>
        <time>2021-10-02T13:33:26Z</time>
      </trkpt>
      <trkpt lat="44.44924" lon="1.40424">
        <ele>214</ele>
        <time>2021-10-02T13:33:28Z</time>
      </trkpt>
      <trkpt lat="44.44924" lon="1.40424">
        <ele>214</ele>
        <time>2021-10-02T13:33:29Z</time>
      </trkpt>
      <trkpt lat="44.4494" lon="1.40435">
        <ele>213.8</ele>
        <time>2021-10-02T13:33:48Z</time>
      </trkpt>
      <trkpt lat="44.44941" lon="1.40437">
        <ele>214</ele>
        <time>2021-10-02T13:33:50Z</time>
      </trkpt>
      <trkpt lat="44.44942" lon="1.40437">
        <ele>214</ele>
        <time>2021-10-02T13:33:51Z</time>
      </trkpt>
      <trkpt lat="44.44942" lon="1.40438">
        <ele>214</ele>
        <time>2021-10-02T13:33:53Z</time>
      </trkpt>
      <trkpt lat="44.44942" lon="1.40438">
        <ele>214</ele>
        <time>2021-10-02T13:33:54Z</time>
      </trkpt>
      <trkpt lat="44.44942" lon="1.40438">
        <ele>214</ele>
        <time>2021-10-02T13:33:55Z</time>
      </trkpt>
      <trkpt lat="44.44943" lon="1.40438">
        <ele>214</ele>
        <time>2021-10-02T13:33:56Z</time>
      </trkpt>
      <trkpt lat="44.44943" lon="1.40438">
        <ele>214</ele>
        <time>2021-10-02T13:33:57Z</time>
      </trkpt>
      <trkpt lat="44.44943" lon="1.40438">
        <ele>214</ele>
        <time>2021-10-02T13:33:59Z</time>
      </trkpt>
      <trkpt lat="44.44943" lon="1.40438">
        <ele>213.9</ele>
        <time>2021-10-02T13:34:00Z</time>
      </trkpt>
      <trkpt lat="44.44943" lon="1.40438">
        <ele>213.9</ele>
        <time>2021-10-02T13:34:01Z</time>
      </trkpt>
      <trkpt lat="44.44943" lon="1.40438">
        <ele>213.9</ele>
        <time>2021-10-02T13:34:03Z</time>
      </trkpt>
      <trkpt lat="44.44943" lon="1.40438">
        <ele>213.9</ele>
        <time>2021-10-02T13:34:05Z</time>
      </trkpt>
      <trkpt lat="44.44943" lon="1.40438">
        <ele>213.9</ele>
        <time>2021-10-02T13:34:06Z</time>
      </trkpt>
      <trkpt lat="44.44943" lon="1.40438">
        <ele>213.9</ele>
        <time>2021-10-02T13:34:07Z</time>
      </trkpt>
      <trkpt lat="44.44945" lon="1.40444">
        <ele>214.1</ele>
        <time>2021-10-02T13:34:09Z</time>
      </trkpt>
      <trkpt lat="44.44946" lon="1.40449">
        <ele>215</ele>
        <time>2021-10-02T13:34:11Z</time>
      </trkpt>
      <trkpt lat="44.44947" lon="1.4045">
        <ele>215</ele>
        <time>2021-10-02T13:34:12Z</time>
      </trkpt>
      <trkpt lat="44.44947" lon="1.40451">
        <ele>215</ele>
        <time>2021-10-02T13:34:13Z</time>
      </trkpt>
      <trkpt lat="44.44947" lon="1.40452">
        <ele>215</ele>
        <time>2021-10-02T13:34:14Z</time>
      </trkpt>
      <trkpt lat="44.44947" lon="1.40452">
        <ele>215</ele>
        <time>2021-10-02T13:34:15Z</time>
      </trkpt>
      <trkpt lat="44.44946" lon="1.40452">
        <ele>215</ele>
        <time>2021-10-02T13:34:16Z</time>
      </trkpt>
      <trkpt lat="44.44946" lon="1.40452">
        <ele>215</ele>
        <time>2021-10-02T13:34:18Z</time>
      </trkpt>
      <trkpt lat="44.44946" lon="1.40452">
        <ele>215</ele>
        <time>2021-10-02T13:34:19Z</time>
      </trkpt>
      <trkpt lat="44.44946" lon="1.40452">
        <ele>214.9</ele>
        <time>2021-10-02T13:34:20Z</time>
      </trkpt>
      <trkpt lat="44.44946" lon="1.40452">
        <ele>214.9</ele>
        <time>2021-10-02T13:34:21Z</time>
      </trkpt>
      <trkpt lat="44.44946" lon="1.40452">
        <ele>214.9</ele>
        <time>2021-10-02T13:34:22Z</time>
      </trkpt>
      <trkpt lat="44.44946" lon="1.40452">
        <ele>214.9</ele>
        <time>2021-10-02T13:34:24Z</time>
      </trkpt>
      <trkpt lat="44.44946" lon="1.40452">
        <ele>214.9</ele>
        <time>2021-10-02T13:34:26Z</time>
      </trkpt>
      <trkpt lat="44.44946" lon="1.40452">
        <ele>214.9</ele>
        <time>2021-10-02T13:34:27Z</time>
      </trkpt>
      <trkpt lat="44.44946" lon="1.40452">
        <ele>214.9</ele>
        <time>2021-10-02T13:34:29Z</time>
      </trkpt>
      <trkpt lat="44.44946" lon="1.40452">
        <ele>214.9</ele>
        <time>2021-10-02T13:34:30Z</time>
      </trkpt>
      <trkpt lat="44.44946" lon="1.40457">
        <ele>215.3</ele>
        <time>2021-10-02T13:34:32Z</time>
      </trkpt>
      <trkpt lat="44.44946" lon="1.40461">
        <ele>215.7</ele>
        <time>2021-10-02T13:34:33Z</time>
      </trkpt>
      <trkpt lat="44.44946" lon="1.40464">
        <ele>216.2</ele>
        <time>2021-10-02T13:34:34Z</time>
      </trkpt>
      <trkpt lat="44.44947" lon="1.40466">
        <ele>216.1</ele>
        <time>2021-10-02T13:34:35Z</time>
      </trkpt>
      <trkpt lat="44.44947" lon="1.40466">
        <ele>216.6</ele>
        <time>2021-10-02T13:34:37Z</time>
      </trkpt>
      <trkpt lat="44.44947" lon="1.40467">
        <ele>216.3</ele>
        <time>2021-10-02T13:34:38Z</time>
      </trkpt>
      <trkpt lat="44.44947" lon="1.40467">
        <ele>216.3</ele>
        <time>2021-10-02T13:34:40Z</time>
      </trkpt>
      <trkpt lat="44.44947" lon="1.40467">
        <ele>216.3</ele>
        <time>2021-10-02T13:34:41Z</time>
      </trkpt>
      <trkpt lat="44.44947" lon="1.40467">
        <ele>216.3</ele>
        <time>2021-10-02T13:34:42Z</time>
      </trkpt>
      <trkpt lat="44.44947" lon="1.40467">
        <ele>216.3</ele>
        <time>2021-10-02T13:34:44Z</time>
      </trkpt>
      <trkpt lat="44.44947" lon="1.40467">
        <ele>216.3</ele>
        <time>2021-10-02T13:34:46Z</time>
      </trkpt>
      <trkpt lat="44.44947" lon="1.40467">
        <ele>216.2</ele>
        <time>2021-10-02T13:34:47Z</time>
      </trkpt>
      <trkpt lat="44.44951" lon="1.40475">
        <ele>216.9</ele>
        <time>2021-10-02T13:34:49Z</time>
      </trkpt>
      <trkpt lat="44.44952" lon="1.40479">
        <ele>216.9</ele>
        <time>2021-10-02T13:34:51Z</time>
      </trkpt>
      <trkpt lat="44.44952" lon="1.4048">
        <ele>217.3</ele>
        <time>2021-10-02T13:34:52Z</time>
      </trkpt>
      <trkpt lat="44.44953" lon="1.4048">
        <ele>217.3</ele>
        <time>2021-10-02T13:34:53Z</time>
      </trkpt>
      <trkpt lat="44.44953" lon="1.4048">
        <ele>217.3</ele>
        <time>2021-10-02T13:34:55Z</time>
      </trkpt>
      <trkpt lat="44.44953" lon="1.4048">
        <ele>217.2</ele>
        <time>2021-10-02T13:34:57Z</time>
      </trkpt>
      <trkpt lat="44.44952" lon="1.40481">
        <ele>217.2</ele>
        <time>2021-10-02T13:34:59Z</time>
      </trkpt>
      <trkpt lat="44.44952" lon="1.40481">
        <ele>217.2</ele>
        <time>2021-10-02T13:35:01Z</time>
      </trkpt>
      <trkpt lat="44.44953" lon="1.40481">
        <ele>217.2</ele>
        <time>2021-10-02T13:35:02Z</time>
      </trkpt>
      <trkpt lat="44.44953" lon="1.40481">
        <ele>217.2</ele>
        <time>2021-10-02T13:35:04Z</time>
      </trkpt>
      <trkpt lat="44.44953" lon="1.40481">
        <ele>217.2</ele>
        <time>2021-10-02T13:35:05Z</time>
      </trkpt>
      <trkpt lat="44.44953" lon="1.40481">
        <ele>217.2</ele>
        <time>2021-10-02T13:35:07Z</time>
      </trkpt>
      <trkpt lat="44.44953" lon="1.4048">
        <ele>217.2</ele>
        <time>2021-10-02T13:35:08Z</time>
      </trkpt>
      <trkpt lat="44.44953" lon="1.40486">
        <ele>217.5</ele>
        <time>2021-10-02T13:35:10Z</time>
      </trkpt>
      <trkpt lat="44.44953" lon="1.40491">
        <ele>217.7</ele>
        <time>2021-10-02T13:35:11Z</time>
      </trkpt>
      <trkpt lat="44.44953" lon="1.40492">
        <ele>217.6</ele>
        <time>2021-10-02T13:35:12Z</time>
      </trkpt>
      <trkpt lat="44.44954" lon="1.40495">
        <ele>217.9</ele>
        <time>2021-10-02T13:35:14Z</time>
      </trkpt>
      <trkpt lat="44.44954" lon="1.40495">
        <ele>217.9</ele>
        <time>2021-10-02T13:35:15Z</time>
      </trkpt>
      <trkpt lat="44.44954" lon="1.40495">
        <ele>217.9</ele>
        <time>2021-10-02T13:35:16Z</time>
      </trkpt>
      <trkpt lat="44.44954" lon="1.40495">
        <ele>217.9</ele>
        <time>2021-10-02T13:35:18Z</time>
      </trkpt>
      <trkpt lat="44.44954" lon="1.40495">
        <ele>217.9</ele>
        <time>2021-10-02T13:35:19Z</time>
      </trkpt>
      <trkpt lat="44.44954" lon="1.40495">
        <ele>217.8</ele>
        <time>2021-10-02T13:35:21Z</time>
      </trkpt>
      <trkpt lat="44.44973" lon="1.40519">
        <ele>217.7</ele>
        <time>2021-10-02T13:36:00Z</time>
      </trkpt>
      <trkpt lat="44.44975" lon="1.40527">
        <ele>217.4</ele>
        <time>2021-10-02T13:36:02Z</time>
      </trkpt>
      <trkpt lat="44.44975" lon="1.40532">
        <ele>217.4</ele>
        <time>2021-10-02T13:36:04Z</time>
      </trkpt>
      <trkpt lat="44.44975" lon="1.40534">
        <ele>217.4</ele>
        <time>2021-10-02T13:36:05Z</time>
      </trkpt>
      <trkpt lat="44.44974" lon="1.40534">
        <ele>217.8</ele>
        <time>2021-10-02T13:36:06Z</time>
      </trkpt>
      <trkpt lat="44.44974" lon="1.40535">
        <ele>217.9</ele>
        <time>2021-10-02T13:36:08Z</time>
      </trkpt>
      <trkpt lat="44.44974" lon="1.40536">
        <ele>217.8</ele>
        <time>2021-10-02T13:36:09Z</time>
      </trkpt>
      <trkpt lat="44.44974" lon="1.40536">
        <ele>217.8</ele>
        <time>2021-10-02T13:36:11Z</time>
      </trkpt>
      <trkpt lat="44.44973" lon="1.40537">
        <ele>217.8</ele>
        <time>2021-10-02T13:36:13Z</time>
      </trkpt>
      <trkpt lat="44.44973" lon="1.40537">
        <ele>217.8</ele>
        <time>2021-10-02T13:36:14Z</time>
      </trkpt>
      <trkpt lat="44.44973" lon="1.40539">
        <ele>217.8</ele>
        <time>2021-10-02T13:36:16Z</time>
      </trkpt>
      <trkpt lat="44.44972" lon="1.40541">
        <ele>217.8</ele>
        <time>2021-10-02T13:36:17Z</time>
      </trkpt>
      <trkpt lat="44.4497" lon="1.40543">
        <ele>218.3</ele>
        <time>2021-10-02T13:36:19Z</time>
      </trkpt>
      <trkpt lat="44.44969" lon="1.40545">
        <ele>218.3</ele>
        <time>2021-10-02T13:36:20Z</time>
      </trkpt>
      <trkpt lat="44.44969" lon="1.40546">
        <ele>218.3</ele>
        <time>2021-10-02T13:36:21Z</time>
      </trkpt>
      <trkpt lat="44.44969" lon="1.40548">
        <ele>218.3</ele>
        <time>2021-10-02T13:36:22Z</time>
      </trkpt>
      <trkpt lat="44.44969" lon="1.40549">
        <ele>218.3</ele>
        <time>2021-10-02T13:36:24Z</time>
      </trkpt>
      <trkpt lat="44.44969" lon="1.40549">
        <ele>218.3</ele>
        <time>2021-10-02T13:36:26Z</time>
      </trkpt>
      <trkpt lat="44.44951" lon="1.40596">
        <ele>222.3</ele>
        <time>2021-10-02T13:36:59Z</time>
      </trkpt>
      <trkpt lat="44.44951" lon="1.40599">
        <ele>222.3</ele>
        <time>2021-10-02T13:37:01Z</time>
      </trkpt>
      <trkpt lat="44.44951" lon="1.406">
        <ele>222.4</ele>
        <time>2021-10-02T13:37:02Z</time>
      </trkpt>
      <trkpt lat="44.4495" lon="1.40601">
        <ele>222.4</ele>
        <time>2021-10-02T13:37:03Z</time>
      </trkpt>
      <trkpt lat="44.4495" lon="1.40606">
        <ele>223.2</ele>
        <time>2021-10-02T13:37:05Z</time>
      </trkpt>
      <trkpt lat="44.44949" lon="1.40611">
        <ele>223.3</ele>
        <time>2021-10-02T13:37:06Z</time>
      </trkpt>
      <trkpt lat="44.44949" lon="1.40613">
        <ele>223.4</ele>
        <time>2021-10-02T13:37:07Z</time>
      </trkpt>
      <trkpt lat="44.44947" lon="1.40617">
        <ele>223.5</ele>
        <time>2021-10-02T13:37:08Z</time>
      </trkpt>
      <trkpt lat="44.44945" lon="1.40623">
        <ele>224.9</ele>
        <time>2021-10-02T13:37:10Z</time>
      </trkpt>
      <trkpt lat="44.44944" lon="1.40625">
        <ele>225.7</ele>
        <time>2021-10-02T13:37:11Z</time>
      </trkpt>
      <trkpt lat="44.44943" lon="1.40627">
        <ele>225.8</ele>
        <time>2021-10-02T13:37:12Z</time>
      </trkpt>
      <trkpt lat="44.44941" lon="1.4063">
        <ele>226.5</ele>
        <time>2021-10-02T13:37:14Z</time>
      </trkpt>
      <trkpt lat="44.4494" lon="1.40634">
        <ele>226.5</ele>
        <time>2021-10-02T13:37:15Z</time>
      </trkpt>
      <trkpt lat="44.44938" lon="1.40637">
        <ele>226.4</ele>
        <time>2021-10-02T13:37:16Z</time>
      </trkpt>
      <trkpt lat="44.44937" lon="1.40638">
        <ele>227</ele>
        <time>2021-10-02T13:37:17Z</time>
      </trkpt>
      <trkpt lat="44.44936" lon="1.4064">
        <ele>227</ele>
        <time>2021-10-02T13:37:18Z</time>
      </trkpt>
      <trkpt lat="44.44935" lon="1.40641">
        <ele>227</ele>
        <time>2021-10-02T13:37:20Z</time>
      </trkpt>
      <trkpt lat="44.44933" lon="1.40645">
        <ele>227.5</ele>
        <time>2021-10-02T13:37:21Z</time>
      </trkpt>
      <trkpt lat="44.44933" lon="1.40646">
        <ele>227.4</ele>
        <time>2021-10-02T13:37:22Z</time>
      </trkpt>
      <trkpt lat="44.44932" lon="1.40648">
        <ele>227.3</ele>
        <time>2021-10-02T13:37:23Z</time>
      </trkpt>
      <trkpt lat="44.4493" lon="1.4065">
        <ele>227.9</ele>
        <time>2021-10-02T13:37:25Z</time>
      </trkpt>
      <trkpt lat="44.44929" lon="1.40653">
        <ele>227.7</ele>
        <time>2021-10-02T13:37:26Z</time>
      </trkpt>
      <trkpt lat="44.44928" lon="1.40655">
        <ele>228.4</ele>
        <time>2021-10-02T13:37:28Z</time>
      </trkpt>
      <trkpt lat="44.44925" lon="1.40658">
        <ele>228.2</ele>
        <time>2021-10-02T13:37:29Z</time>
      </trkpt>
      <trkpt lat="44.44925" lon="1.40659">
        <ele>228.7</ele>
        <time>2021-10-02T13:37:30Z</time>
      </trkpt>
      <trkpt lat="44.44923" lon="1.40663">
        <ele>228.7</ele>
        <time>2021-10-02T13:37:33Z</time>
      </trkpt>
      <trkpt lat="44.44922" lon="1.40666">
        <ele>229.2</ele>
        <time>2021-10-02T13:37:34Z</time>
      </trkpt>
      <trkpt lat="44.44921" lon="1.40669">
        <ele>229</ele>
        <time>2021-10-02T13:37:36Z</time>
      </trkpt>
      <trkpt lat="44.44919" lon="1.40673">
        <ele>229.5</ele>
        <time>2021-10-02T13:37:37Z</time>
      </trkpt>
      <trkpt lat="44.44918" lon="1.40674">
        <ele>229.5</ele>
        <time>2021-10-02T13:37:38Z</time>
      </trkpt>
      <trkpt lat="44.44915" lon="1.40674">
        <ele>230.3</ele>
        <time>2021-10-02T13:37:40Z</time>
      </trkpt>
      <trkpt lat="44.44914" lon="1.40674">
        <ele>230.3</ele>
        <time>2021-10-02T13:37:41Z</time>
      </trkpt>
      <trkpt lat="44.44911" lon="1.40674">
        <ele>231</ele>
        <time>2021-10-02T13:37:43Z</time>
      </trkpt>
      <trkpt lat="44.4491" lon="1.40674">
        <ele>231.8</ele>
        <time>2021-10-02T13:37:44Z</time>
      </trkpt>
      <trkpt lat="44.44909" lon="1.40673">
        <ele>231.8</ele>
        <time>2021-10-02T13:37:45Z</time>
      </trkpt>
      <trkpt lat="44.44908" lon="1.40673">
        <ele>231.8</ele>
        <time>2021-10-02T13:37:46Z</time>
      </trkpt>
      <trkpt lat="44.44907" lon="1.40673">
        <ele>232.5</ele>
        <time>2021-10-02T13:37:47Z</time>
      </trkpt>
      <trkpt lat="44.44906" lon="1.40673">
        <ele>232.5</ele>
        <time>2021-10-02T13:37:49Z</time>
      </trkpt>
      <trkpt lat="44.44905" lon="1.40673">
        <ele>232.5</ele>
        <time>2021-10-02T13:37:50Z</time>
      </trkpt>
      <trkpt lat="44.44903" lon="1.40674">
        <ele>233.2</ele>
        <time>2021-10-02T13:37:51Z</time>
      </trkpt>
      <trkpt lat="44.44902" lon="1.40674">
        <ele>233.2</ele>
        <time>2021-10-02T13:37:52Z</time>
      </trkpt>
      <trkpt lat="44.449" lon="1.40676">
        <ele>233.9</ele>
        <time>2021-10-02T13:37:53Z</time>
      </trkpt>
      <trkpt lat="44.44898" lon="1.40678">
        <ele>233.7</ele>
        <time>2021-10-02T13:37:55Z</time>
      </trkpt>
      <trkpt lat="44.44897" lon="1.40679">
        <ele>234.4</ele>
        <time>2021-10-02T13:37:56Z</time>
      </trkpt>
      <trkpt lat="44.44896" lon="1.4068">
        <ele>234.4</ele>
        <time>2021-10-02T13:37:58Z</time>
      </trkpt>
      <trkpt lat="44.44896" lon="1.40681">
        <ele>234.4</ele>
        <time>2021-10-02T13:37:59Z</time>
      </trkpt>
      <trkpt lat="44.44895" lon="1.40681">
        <ele>234.1</ele>
        <time>2021-10-02T13:38:01Z</time>
      </trkpt>
      <trkpt lat="44.44895" lon="1.40682">
        <ele>234.1</ele>
        <time>2021-10-02T13:38:03Z</time>
      </trkpt>
      <trkpt lat="44.44894" lon="1.40683">
        <ele>234.8</ele>
        <time>2021-10-02T13:38:04Z</time>
      </trkpt>
      <trkpt lat="44.44894" lon="1.40684">
        <ele>234.8</ele>
        <time>2021-10-02T13:38:05Z</time>
      </trkpt>
      <trkpt lat="44.44893" lon="1.40684">
        <ele>234.8</ele>
        <time>2021-10-02T13:38:06Z</time>
      </trkpt>
      <trkpt lat="44.44891" lon="1.40686">
        <ele>235.3</ele>
        <time>2021-10-02T13:38:07Z</time>
      </trkpt>
      <trkpt lat="44.4489" lon="1.40687">
        <ele>235.3</ele>
        <time>2021-10-02T13:38:09Z</time>
      </trkpt>
      <trkpt lat="44.44887" lon="1.4069">
        <ele>235.7</ele>
        <time>2021-10-02T13:38:11Z</time>
      </trkpt>
      <trkpt lat="44.44886" lon="1.4069">
        <ele>235.7</ele>
        <time>2021-10-02T13:38:12Z</time>
      </trkpt>
      <trkpt lat="44.44883" lon="1.40692">
        <ele>236.6</ele>
        <time>2021-10-02T13:38:14Z</time>
      </trkpt>
      <trkpt lat="44.44882" lon="1.40693">
        <ele>237.3</ele>
        <time>2021-10-02T13:38:15Z</time>
      </trkpt>
      <trkpt lat="44.44878" lon="1.40697">
        <ele>237.7</ele>
        <time>2021-10-02T13:38:17Z</time>
      </trkpt>
      <trkpt lat="44.44877" lon="1.40699">
        <ele>237.3</ele>
        <time>2021-10-02T13:38:18Z</time>
      </trkpt>
      <trkpt lat="44.44876" lon="1.40701">
        <ele>237.9</ele>
        <time>2021-10-02T13:38:20Z</time>
      </trkpt>
      <trkpt lat="44.44875" lon="1.40702">
        <ele>237.5</ele>
        <time>2021-10-02T13:38:21Z</time>
      </trkpt>
      <trkpt lat="44.44874" lon="1.40704">
        <ele>237.5</ele>
        <time>2021-10-02T13:38:22Z</time>
      </trkpt>
      <trkpt lat="44.44873" lon="1.40708">
        <ele>237.7</ele>
        <time>2021-10-02T13:38:24Z</time>
      </trkpt>
      <trkpt lat="44.44871" lon="1.40711">
        <ele>237.2</ele>
        <time>2021-10-02T13:38:25Z</time>
      </trkpt>
      <trkpt lat="44.44869" lon="1.40712">
        <ele>237.8</ele>
        <time>2021-10-02T13:38:27Z</time>
      </trkpt>
      <trkpt lat="44.44868" lon="1.40712">
        <ele>237.8</ele>
        <time>2021-10-02T13:38:28Z</time>
      </trkpt>
      <trkpt lat="44.44865" lon="1.40712">
        <ele>238.5</ele>
        <time>2021-10-02T13:38:29Z</time>
      </trkpt>
      <trkpt lat="44.44864" lon="1.40712">
        <ele>239.2</ele>
        <time>2021-10-02T13:38:30Z</time>
      </trkpt>
      <trkpt lat="44.44861" lon="1.40714">
        <ele>239.9</ele>
        <time>2021-10-02T13:38:32Z</time>
      </trkpt>
      <trkpt lat="44.44859" lon="1.40715">
        <ele>239.9</ele>
        <time>2021-10-02T13:38:33Z</time>
      </trkpt>
      <trkpt lat="44.44857" lon="1.40717">
        <ele>240.1</ele>
        <time>2021-10-02T13:38:35Z</time>
      </trkpt>
      <trkpt lat="44.44857" lon="1.40718">
        <ele>240.1</ele>
        <time>2021-10-02T13:38:36Z</time>
      </trkpt>
      <trkpt lat="44.44854" lon="1.40721">
        <ele>240.1</ele>
        <time>2021-10-02T13:38:37Z</time>
      </trkpt>
      <trkpt lat="44.44853" lon="1.40722">
        <ele>240.1</ele>
        <time>2021-10-02T13:38:38Z</time>
      </trkpt>
      <trkpt lat="44.44852" lon="1.40725">
        <ele>239.5</ele>
        <time>2021-10-02T13:38:40Z</time>
      </trkpt>
      <trkpt lat="44.44849" lon="1.40731">
        <ele>239.3</ele>
        <time>2021-10-02T13:38:42Z</time>
      </trkpt>
      <trkpt lat="44.44846" lon="1.40736">
        <ele>239.1</ele>
        <time>2021-10-02T13:38:43Z</time>
      </trkpt>
      <trkpt lat="44.44844" lon="1.40739">
        <ele>238.9</ele>
        <time>2021-10-02T13:38:44Z</time>
      </trkpt>
      <trkpt lat="44.44842" lon="1.40744">
        <ele>238.6</ele>
        <time>2021-10-02T13:38:46Z</time>
      </trkpt>
      <trkpt lat="44.44837" lon="1.40747">
        <ele>238.4</ele>
        <time>2021-10-02T13:38:47Z</time>
      </trkpt>
      <trkpt lat="44.44835" lon="1.40749">
        <ele>239</ele>
        <time>2021-10-02T13:38:49Z</time>
      </trkpt>
      <trkpt lat="44.44833" lon="1.40752">
        <ele>238.7</ele>
        <time>2021-10-02T13:38:50Z</time>
      </trkpt>
      <trkpt lat="44.4483" lon="1.40754">
        <ele>238.4</ele>
        <time>2021-10-02T13:38:52Z</time>
      </trkpt>
      <trkpt lat="44.44827" lon="1.40756">
        <ele>238.9</ele>
        <time>2021-10-02T13:38:53Z</time>
      </trkpt>
      <trkpt lat="44.44824" lon="1.40758">
        <ele>238</ele>
        <time>2021-10-02T13:38:55Z</time>
      </trkpt>
      <trkpt lat="44.44821" lon="1.4076">
        <ele>239.1</ele>
        <time>2021-10-02T13:38:56Z</time>
      </trkpt>
      <trkpt lat="44.44818" lon="1.40762">
        <ele>239.6</ele>
        <time>2021-10-02T13:38:57Z</time>
      </trkpt>
      <trkpt lat="44.44817" lon="1.40763">
        <ele>238.7</ele>
        <time>2021-10-02T13:38:58Z</time>
      </trkpt>
      <trkpt lat="44.44813" lon="1.40765">
        <ele>239.3</ele>
        <time>2021-10-02T13:39:00Z</time>
      </trkpt>
      <trkpt lat="44.44812" lon="1.40766">
        <ele>239.3</ele>
        <time>2021-10-02T13:39:01Z</time>
      </trkpt>
      <trkpt lat="44.4481" lon="1.40769">
        <ele>239</ele>
        <time>2021-10-02T13:39:02Z</time>
      </trkpt>
      <trkpt lat="44.44809" lon="1.40771">
        <ele>239</ele>
        <time>2021-10-02T13:39:04Z</time>
      </trkpt>
      <trkpt lat="44.44808" lon="1.40772">
        <ele>238.7</ele>
        <time>2021-10-02T13:39:05Z</time>
      </trkpt>
      <trkpt lat="44.44807" lon="1.40774">
        <ele>238.6</ele>
        <time>2021-10-02T13:39:06Z</time>
      </trkpt>
      <trkpt lat="44.44804" lon="1.40779">
        <ele>238.2</ele>
        <time>2021-10-02T13:39:07Z</time>
      </trkpt>
      <trkpt lat="44.44801" lon="1.40781">
        <ele>237.7</ele>
        <time>2021-10-02T13:39:09Z</time>
      </trkpt>
      <trkpt lat="44.44797" lon="1.40783">
        <ele>238.2</ele>
        <time>2021-10-02T13:39:10Z</time>
      </trkpt>
      <trkpt lat="44.44795" lon="1.40786">
        <ele>237.6</ele>
        <time>2021-10-02T13:39:12Z</time>
      </trkpt>
      <trkpt lat="44.44794" lon="1.40787">
        <ele>237.6</ele>
        <time>2021-10-02T13:39:13Z</time>
      </trkpt>
      <trkpt lat="44.44793" lon="1.40787">
        <ele>238</ele>
        <time>2021-10-02T13:39:14Z</time>
      </trkpt>
      <trkpt lat="44.44793" lon="1.40786">
        <ele>238</ele>
        <time>2021-10-02T13:39:16Z</time>
      </trkpt>
      <trkpt lat="44.44793" lon="1.40786">
        <ele>238</ele>
        <time>2021-10-02T13:39:18Z</time>
      </trkpt>
      <trkpt lat="44.44793" lon="1.40786">
        <ele>238</ele>
        <time>2021-10-02T13:39:19Z</time>
      </trkpt>
      <trkpt lat="44.44793" lon="1.40786">
        <ele>238</ele>
        <time>2021-10-02T13:39:20Z</time>
      </trkpt>
      <trkpt lat="44.44793" lon="1.40786">
        <ele>238</ele>
        <time>2021-10-02T13:39:22Z</time>
      </trkpt>
      <trkpt lat="44.44793" lon="1.40786">
        <ele>238</ele>
        <time>2021-10-02T13:39:24Z</time>
      </trkpt>
      <trkpt lat="44.44788" lon="1.40793">
        <ele>236.3</ele>
        <time>2021-10-02T13:39:28Z</time>
      </trkpt>
      <trkpt lat="44.44785" lon="1.40798">
        <ele>235.7</ele>
        <time>2021-10-02T13:39:29Z</time>
      </trkpt>
      <trkpt lat="44.44782" lon="1.40801">
        <ele>236.1</ele>
        <time>2021-10-02T13:39:30Z</time>
      </trkpt>
      <trkpt lat="44.44781" lon="1.40805">
        <ele>235.7</ele>
        <time>2021-10-02T13:39:31Z</time>
      </trkpt>
      <trkpt lat="44.44781" lon="1.40807">
        <ele>234.7</ele>
        <time>2021-10-02T13:39:33Z</time>
      </trkpt>
      <trkpt lat="44.44781" lon="1.40809">
        <ele>234.3</ele>
        <time>2021-10-02T13:39:34Z</time>
      </trkpt>
      <trkpt lat="44.44782" lon="1.40811">
        <ele>233.3</ele>
        <time>2021-10-02T13:39:35Z</time>
      </trkpt>
      <trkpt lat="44.44782" lon="1.40813">
        <ele>233.3</ele>
        <time>2021-10-02T13:39:36Z</time>
      </trkpt>
      <trkpt lat="44.44783" lon="1.40815">
        <ele>232.4</ele>
        <time>2021-10-02T13:39:38Z</time>
      </trkpt>
      <trkpt lat="44.44784" lon="1.40816">
        <ele>232.4</ele>
        <time>2021-10-02T13:39:39Z</time>
      </trkpt>
      <trkpt lat="44.44784" lon="1.40821">
        <ele>231.5</ele>
        <time>2021-10-02T13:39:41Z</time>
      </trkpt>
      <trkpt lat="44.44784" lon="1.40826">
        <ele>230.7</ele>
        <time>2021-10-02T13:39:42Z</time>
      </trkpt>
      <trkpt lat="44.44785" lon="1.40831">
        <ele>228.6</ele>
        <time>2021-10-02T13:39:43Z</time>
      </trkpt>
      <trkpt lat="44.44785" lon="1.40832">
        <ele>228.6</ele>
        <time>2021-10-02T13:39:44Z</time>
      </trkpt>
      <trkpt lat="44.44786" lon="1.40836">
        <ele>227.8</ele>
        <time>2021-10-02T13:39:46Z</time>
      </trkpt>
      <trkpt lat="44.44787" lon="1.40841">
        <ele>227.2</ele>
        <time>2021-10-02T13:39:47Z</time>
      </trkpt>
      <trkpt lat="44.44787" lon="1.40846">
        <ele>226.5</ele>
        <time>2021-10-02T13:39:49Z</time>
      </trkpt>
      <trkpt lat="44.44787" lon="1.40847">
        <ele>226.5</ele>
        <time>2021-10-02T13:39:50Z</time>
      </trkpt>
      <trkpt lat="44.44788" lon="1.40852">
        <ele>225.7</ele>
        <time>2021-10-02T13:39:51Z</time>
      </trkpt>
      <trkpt lat="44.44789" lon="1.40853">
        <ele>225.2</ele>
        <time>2021-10-02T13:39:52Z</time>
      </trkpt>
      <trkpt lat="44.44787" lon="1.40858">
        <ele>225</ele>
        <time>2021-10-02T13:39:53Z</time>
      </trkpt>
      <trkpt lat="44.44788" lon="1.40863">
        <ele>224.3</ele>
        <time>2021-10-02T13:39:54Z</time>
      </trkpt>
      <trkpt lat="44.44789" lon="1.4087">
        <ele>223.5</ele>
        <time>2021-10-02T13:39:56Z</time>
      </trkpt>
      <trkpt lat="44.44789" lon="1.40875">
        <ele>223.2</ele>
        <time>2021-10-02T13:39:58Z</time>
      </trkpt>
      <trkpt lat="44.44789" lon="1.4088">
        <ele>223</ele>
        <time>2021-10-02T13:39:59Z</time>
      </trkpt>
      <trkpt lat="44.4479" lon="1.40883">
        <ele>222.8</ele>
        <time>2021-10-02T13:40:00Z</time>
      </trkpt>
      <trkpt lat="44.44793" lon="1.4089">
        <ele>222.3</ele>
        <time>2021-10-02T13:40:02Z</time>
      </trkpt>
      <trkpt lat="44.44796" lon="1.40895">
        <ele>221.8</ele>
        <time>2021-10-02T13:40:04Z</time>
      </trkpt>
      <trkpt lat="44.44797" lon="1.40893">
        <ele>221.8</ele>
        <time>2021-10-02T13:40:06Z</time>
      </trkpt>
      <trkpt lat="44.44797" lon="1.40893">
        <ele>221.4</ele>
        <time>2021-10-02T13:40:07Z</time>
      </trkpt>
      <trkpt lat="44.44797" lon="1.40893">
        <ele>221.4</ele>
        <time>2021-10-02T13:40:08Z</time>
      </trkpt>
      <trkpt lat="44.44797" lon="1.40894">
        <ele>221.8</ele>
        <time>2021-10-02T13:40:10Z</time>
      </trkpt>
      <trkpt lat="44.44797" lon="1.40894">
        <ele>221.8</ele>
        <time>2021-10-02T13:40:11Z</time>
      </trkpt>
      <trkpt lat="44.44797" lon="1.40894">
        <ele>221.8</ele>
        <time>2021-10-02T13:40:12Z</time>
      </trkpt>
      <trkpt lat="44.44763" lon="1.40903">
        <ele>225.2</ele>
        <time>2021-10-02T13:42:35Z</time>
      </trkpt>
      <trkpt lat="44.44761" lon="1.40902">
        <ele>225.4</ele>
        <time>2021-10-02T13:42:36Z</time>
      </trkpt>
      <trkpt lat="44.4476" lon="1.40902">
        <ele>225.4</ele>
        <time>2021-10-02T13:42:38Z</time>
      </trkpt>
      <trkpt lat="44.44758" lon="1.40902">
        <ele>225.6</ele>
        <time>2021-10-02T13:42:39Z</time>
      </trkpt>
      <trkpt lat="44.44755" lon="1.40902">
        <ele>225.9</ele>
        <time>2021-10-02T13:42:40Z</time>
      </trkpt>
      <trkpt lat="44.44752" lon="1.40903">
        <ele>226.1</ele>
        <time>2021-10-02T13:42:42Z</time>
      </trkpt>
      <trkpt lat="44.44751" lon="1.40903">
        <ele>226.1</ele>
        <time>2021-10-02T13:42:43Z</time>
      </trkpt>
      <trkpt lat="44.4475" lon="1.40904">
        <ele>226.3</ele>
        <time>2021-10-02T13:42:44Z</time>
      </trkpt>
      <trkpt lat="44.44746" lon="1.40904">
        <ele>226.4</ele>
        <time>2021-10-02T13:42:46Z</time>
      </trkpt>
      <trkpt lat="44.44744" lon="1.40905">
        <ele>226.6</ele>
        <time>2021-10-02T13:42:47Z</time>
      </trkpt>
      <trkpt lat="44.44743" lon="1.40905">
        <ele>226.5</ele>
        <time>2021-10-02T13:42:48Z</time>
      </trkpt>
      <trkpt lat="44.4474" lon="1.40907">
        <ele>226.7</ele>
        <time>2021-10-02T13:42:49Z</time>
      </trkpt>
      <trkpt lat="44.44739" lon="1.40907">
        <ele>226.7</ele>
        <time>2021-10-02T13:42:50Z</time>
      </trkpt>
      <trkpt lat="44.44737" lon="1.40908">
        <ele>226.6</ele>
        <time>2021-10-02T13:42:51Z</time>
      </trkpt>
      <trkpt lat="44.44735" lon="1.40909">
        <ele>226.7</ele>
        <time>2021-10-02T13:42:53Z</time>
      </trkpt>
      <trkpt lat="44.44733" lon="1.40912">
        <ele>226.7</ele>
        <time>2021-10-02T13:42:54Z</time>
      </trkpt>
      <trkpt lat="44.44732" lon="1.40913">
        <ele>226.7</ele>
        <time>2021-10-02T13:42:55Z</time>
      </trkpt>
      <trkpt lat="44.4473" lon="1.40915">
        <ele>226.7</ele>
        <time>2021-10-02T13:42:56Z</time>
      </trkpt>
      <trkpt lat="44.44729" lon="1.40916">
        <ele>226.8</ele>
        <time>2021-10-02T13:42:58Z</time>
      </trkpt>
      <trkpt lat="44.44728" lon="1.40917">
        <ele>226.8</ele>
        <time>2021-10-02T13:43:00Z</time>
      </trkpt>
      <trkpt lat="44.44727" lon="1.40917">
        <ele>226.7</ele>
        <time>2021-10-02T13:43:01Z</time>
      </trkpt>
      <trkpt lat="44.44726" lon="1.40918">
        <ele>226.9</ele>
        <time>2021-10-02T13:43:02Z</time>
      </trkpt>
      <trkpt lat="44.44725" lon="1.40919">
        <ele>226.8</ele>
        <time>2021-10-02T13:43:04Z</time>
      </trkpt>
      <trkpt lat="44.44724" lon="1.40919">
        <ele>226.8</ele>
        <time>2021-10-02T13:43:05Z</time>
      </trkpt>
      <trkpt lat="44.44724" lon="1.40919">
        <ele>226.8</ele>
        <time>2021-10-02T13:43:06Z</time>
      </trkpt>
      <trkpt lat="44.44724" lon="1.4092">
        <ele>226.8</ele>
        <time>2021-10-02T13:43:07Z</time>
      </trkpt>
      <trkpt lat="44.44723" lon="1.4092">
        <ele>226.8</ele>
        <time>2021-10-02T13:43:08Z</time>
      </trkpt>
      <trkpt lat="44.44723" lon="1.4092">
        <ele>226.8</ele>
        <time>2021-10-02T13:43:10Z</time>
      </trkpt>
      <trkpt lat="44.44723" lon="1.4092">
        <ele>226.8</ele>
        <time>2021-10-02T13:43:11Z</time>
      </trkpt>
      <trkpt lat="44.4472" lon="1.40924">
        <ele>226.8</ele>
        <time>2021-10-02T13:43:15Z</time>
      </trkpt>
      <trkpt lat="44.44714" lon="1.40931">
        <ele>227.1</ele>
        <time>2021-10-02T13:43:17Z</time>
      </trkpt>
      <trkpt lat="44.44713" lon="1.40932">
        <ele>227.1</ele>
        <time>2021-10-02T13:43:18Z</time>
      </trkpt>
      <trkpt lat="44.44713" lon="1.40932">
        <ele>227.1</ele>
        <time>2021-10-02T13:43:20Z</time>
      </trkpt>
      <trkpt lat="44.44709" lon="1.40933">
        <ele>227.2</ele>
        <time>2021-10-02T13:43:22Z</time>
      </trkpt>
      <trkpt lat="44.44708" lon="1.40934">
        <ele>227.2</ele>
        <time>2021-10-02T13:43:24Z</time>
      </trkpt>
      <trkpt lat="44.44707" lon="1.40934">
        <ele>227.3</ele>
        <time>2021-10-02T13:43:25Z</time>
      </trkpt>
      <trkpt lat="44.44707" lon="1.40935">
        <ele>227.3</ele>
        <time>2021-10-02T13:43:27Z</time>
      </trkpt>
      <trkpt lat="44.44706" lon="1.40936">
        <ele>227.3</ele>
        <time>2021-10-02T13:43:28Z</time>
      </trkpt>
      <trkpt lat="44.44705" lon="1.40938">
        <ele>227.2</ele>
        <time>2021-10-02T13:43:29Z</time>
      </trkpt>
      <trkpt lat="44.44702" lon="1.4094">
        <ele>227.4</ele>
        <time>2021-10-02T13:43:31Z</time>
      </trkpt>
      <trkpt lat="44.447" lon="1.40941">
        <ele>227.4</ele>
        <time>2021-10-02T13:43:32Z</time>
      </trkpt>
      <trkpt lat="44.44699" lon="1.40942">
        <ele>227.4</ele>
        <time>2021-10-02T13:43:34Z</time>
      </trkpt>
      <trkpt lat="44.44697" lon="1.40943">
        <ele>227.5</ele>
        <time>2021-10-02T13:43:36Z</time>
      </trkpt>
      <trkpt lat="44.44696" lon="1.40944">
        <ele>227.5</ele>
        <time>2021-10-02T13:43:38Z</time>
      </trkpt>
      <trkpt lat="44.44696" lon="1.40944">
        <ele>227.5</ele>
        <time>2021-10-02T13:43:39Z</time>
      </trkpt>
      <trkpt lat="44.44679" lon="1.40954">
        <ele>227.2</ele>
        <time>2021-10-02T13:43:49Z</time>
      </trkpt>
      <trkpt lat="44.44678" lon="1.40955">
        <ele>227.2</ele>
        <time>2021-10-02T13:43:50Z</time>
      </trkpt>
      <trkpt lat="44.44676" lon="1.40955">
        <ele>227.1</ele>
        <time>2021-10-02T13:43:52Z</time>
      </trkpt>
      <trkpt lat="44.44675" lon="1.40956">
        <ele>227.1</ele>
        <time>2021-10-02T13:43:54Z</time>
      </trkpt>
      <trkpt lat="44.44674" lon="1.40956">
        <ele>227.1</ele>
        <time>2021-10-02T13:43:55Z</time>
      </trkpt>
      <trkpt lat="44.44674" lon="1.40957">
        <ele>227.1</ele>
        <time>2021-10-02T13:43:57Z</time>
      </trkpt>
      <trkpt lat="44.44674" lon="1.40957">
        <ele>227</ele>
        <time>2021-10-02T13:43:59Z</time>
      </trkpt>
      <trkpt lat="44.44674" lon="1.40957">
        <ele>227</ele>
        <time>2021-10-02T13:44:00Z</time>
      </trkpt>
      <trkpt lat="44.44661" lon="1.40965">
        <ele>226.8</ele>
        <time>2021-10-02T13:44:06Z</time>
      </trkpt>
      <trkpt lat="44.4466" lon="1.40967">
        <ele>226.8</ele>
        <time>2021-10-02T13:44:07Z</time>
      </trkpt>
      <trkpt lat="44.44659" lon="1.40968">
        <ele>226.8</ele>
        <time>2021-10-02T13:44:08Z</time>
      </trkpt>
      <trkpt lat="44.44657" lon="1.40968">
        <ele>226.8</ele>
        <time>2021-10-02T13:44:10Z</time>
      </trkpt>
      <trkpt lat="44.44656" lon="1.40969">
        <ele>226.8</ele>
        <time>2021-10-02T13:44:11Z</time>
      </trkpt>
      <trkpt lat="44.44655" lon="1.40969">
        <ele>226.8</ele>
        <time>2021-10-02T13:44:12Z</time>
      </trkpt>
      <trkpt lat="44.44652" lon="1.4097">
        <ele>226.8</ele>
        <time>2021-10-02T13:44:14Z</time>
      </trkpt>
      <trkpt lat="44.44651" lon="1.40972">
        <ele>226.7</ele>
        <time>2021-10-02T13:44:15Z</time>
      </trkpt>
      <trkpt lat="44.44648" lon="1.40974">
        <ele>226.8</ele>
        <time>2021-10-02T13:44:17Z</time>
      </trkpt>
      <trkpt lat="44.44647" lon="1.40975">
        <ele>226.8</ele>
        <time>2021-10-02T13:44:18Z</time>
      </trkpt>
      <trkpt lat="44.44646" lon="1.40976">
        <ele>226.9</ele>
        <time>2021-10-02T13:44:20Z</time>
      </trkpt>
      <trkpt lat="44.44645" lon="1.40976">
        <ele>226.9</ele>
        <time>2021-10-02T13:44:22Z</time>
      </trkpt>
      <trkpt lat="44.44644" lon="1.40977">
        <ele>226.8</ele>
        <time>2021-10-02T13:44:23Z</time>
      </trkpt>
      <trkpt lat="44.44643" lon="1.40977">
        <ele>226.9</ele>
        <time>2021-10-02T13:44:25Z</time>
      </trkpt>
      <trkpt lat="44.44642" lon="1.40978">
        <ele>226.9</ele>
        <time>2021-10-02T13:44:26Z</time>
      </trkpt>
      <trkpt lat="44.44641" lon="1.40978">
        <ele>226.9</ele>
        <time>2021-10-02T13:44:27Z</time>
      </trkpt>
      <trkpt lat="44.4464" lon="1.40979">
        <ele>227.1</ele>
        <time>2021-10-02T13:44:28Z</time>
      </trkpt>
      <trkpt lat="44.44634" lon="1.4098">
        <ele>227.3</ele>
        <time>2021-10-02T13:44:30Z</time>
      </trkpt>
      <trkpt lat="44.44633" lon="1.40981">
        <ele>227.5</ele>
        <time>2021-10-02T13:44:31Z</time>
      </trkpt>
      <trkpt lat="44.44633" lon="1.40982">
        <ele>227.4</ele>
        <time>2021-10-02T13:44:32Z</time>
      </trkpt>
      <trkpt lat="44.44632" lon="1.40982">
        <ele>227.3</ele>
        <time>2021-10-02T13:44:33Z</time>
      </trkpt>
      <trkpt lat="44.44632" lon="1.40982">
        <ele>227.3</ele>
        <time>2021-10-02T13:44:35Z</time>
      </trkpt>
      <trkpt lat="44.44632" lon="1.40982">
        <ele>227.3</ele>
        <time>2021-10-02T13:44:36Z</time>
      </trkpt>
      <trkpt lat="44.44632" lon="1.40982">
        <ele>227.3</ele>
        <time>2021-10-02T13:44:37Z</time>
      </trkpt>
      <trkpt lat="44.44632" lon="1.40983">
        <ele>227.3</ele>
        <time>2021-10-02T13:44:38Z</time>
      </trkpt>
      <trkpt lat="44.44632" lon="1.40983">
        <ele>227.3</ele>
        <time>2021-10-02T13:44:40Z</time>
      </trkpt>
      <trkpt lat="44.44632" lon="1.40983">
        <ele>227.3</ele>
        <time>2021-10-02T13:44:41Z</time>
      </trkpt>
      <trkpt lat="44.44632" lon="1.40983">
        <ele>227.3</ele>
        <time>2021-10-02T13:44:42Z</time>
      </trkpt>
      <trkpt lat="44.44623" lon="1.40989">
        <ele>227.9</ele>
        <time>2021-10-02T13:44:44Z</time>
      </trkpt>
      <trkpt lat="44.4462" lon="1.40991">
        <ele>228.1</ele>
        <time>2021-10-02T13:44:45Z</time>
      </trkpt>
      <trkpt lat="44.4462" lon="1.40991">
        <ele>228.1</ele>
        <time>2021-10-02T13:44:47Z</time>
      </trkpt>
      <trkpt lat="44.4462" lon="1.40992">
        <ele>228.1</ele>
        <time>2021-10-02T13:44:48Z</time>
      </trkpt>
      <trkpt lat="44.4462" lon="1.40992">
        <ele>228.1</ele>
        <time>2021-10-02T13:44:49Z</time>
      </trkpt>
      <trkpt lat="44.4462" lon="1.40992">
        <ele>228.1</ele>
        <time>2021-10-02T13:44:51Z</time>
      </trkpt>
      <trkpt lat="44.44619" lon="1.40992">
        <ele>228</ele>
        <time>2021-10-02T13:44:53Z</time>
      </trkpt>
      <trkpt lat="44.44604" lon="1.41006">
        <ele>230.9</ele>
        <time>2021-10-02T13:45:04Z</time>
      </trkpt>
      <trkpt lat="44.446" lon="1.41009">
        <ele>231.5</ele>
        <time>2021-10-02T13:45:06Z</time>
      </trkpt>
      <trkpt lat="44.44597" lon="1.41011">
        <ele>232</ele>
        <time>2021-10-02T13:45:07Z</time>
      </trkpt>
      <trkpt lat="44.44596" lon="1.41011">
        <ele>232.1</ele>
        <time>2021-10-02T13:45:08Z</time>
      </trkpt>
      <trkpt lat="44.44595" lon="1.41013">
        <ele>232.1</ele>
        <time>2021-10-02T13:45:10Z</time>
      </trkpt>
      <trkpt lat="44.44594" lon="1.41013">
        <ele>232.6</ele>
        <time>2021-10-02T13:45:11Z</time>
      </trkpt>
      <trkpt lat="44.44593" lon="1.41014">
        <ele>232.6</ele>
        <time>2021-10-02T13:45:12Z</time>
      </trkpt>
      <trkpt lat="44.44593" lon="1.41014">
        <ele>232.6</ele>
        <time>2021-10-02T13:45:13Z</time>
      </trkpt>
      <trkpt lat="44.44592" lon="1.41015">
        <ele>232.6</ele>
        <time>2021-10-02T13:45:15Z</time>
      </trkpt>
      <trkpt lat="44.44591" lon="1.41016">
        <ele>233.2</ele>
        <time>2021-10-02T13:45:16Z</time>
      </trkpt>
      <trkpt lat="44.44591" lon="1.41016">
        <ele>233.2</ele>
        <time>2021-10-02T13:45:17Z</time>
      </trkpt>
      <trkpt lat="44.4459" lon="1.41017">
        <ele>233.2</ele>
        <time>2021-10-02T13:45:19Z</time>
      </trkpt>
      <trkpt lat="44.4459" lon="1.41017">
        <ele>233.2</ele>
        <time>2021-10-02T13:45:21Z</time>
      </trkpt>
      <trkpt lat="44.44589" lon="1.41017">
        <ele>233.2</ele>
        <time>2021-10-02T13:45:23Z</time>
      </trkpt>
      <trkpt lat="44.44576" lon="1.41024">
        <ele>236.5</ele>
        <time>2021-10-02T13:45:30Z</time>
      </trkpt>
      <trkpt lat="44.44575" lon="1.41024">
        <ele>236.5</ele>
        <time>2021-10-02T13:45:31Z</time>
      </trkpt>
      <trkpt lat="44.44574" lon="1.41024">
        <ele>236.5</ele>
        <time>2021-10-02T13:45:32Z</time>
      </trkpt>
      <trkpt lat="44.44574" lon="1.41023">
        <ele>236.5</ele>
        <time>2021-10-02T13:45:34Z</time>
      </trkpt>
      <trkpt lat="44.44573" lon="1.41023">
        <ele>236.4</ele>
        <time>2021-10-02T13:45:35Z</time>
      </trkpt>
      <trkpt lat="44.44573" lon="1.41021">
        <ele>237.1</ele>
        <time>2021-10-02T13:45:37Z</time>
      </trkpt>
      <trkpt lat="44.44572" lon="1.41019">
        <ele>237.1</ele>
        <time>2021-10-02T13:45:38Z</time>
      </trkpt>
      <trkpt lat="44.44572" lon="1.41017">
        <ele>237.1</ele>
        <time>2021-10-02T13:45:39Z</time>
      </trkpt>
      <trkpt lat="44.44572" lon="1.41015">
        <ele>237.1</ele>
        <time>2021-10-02T13:45:40Z</time>
      </trkpt>
      <trkpt lat="44.44571" lon="1.41013">
        <ele>237.1</ele>
        <time>2021-10-02T13:45:42Z</time>
      </trkpt>
      <trkpt lat="44.44571" lon="1.41011">
        <ele>237.1</ele>
        <time>2021-10-02T13:45:43Z</time>
      </trkpt>
      <trkpt lat="44.4457" lon="1.4101">
        <ele>237.2</ele>
        <time>2021-10-02T13:45:44Z</time>
      </trkpt>
      <trkpt lat="44.4457" lon="1.41007">
        <ele>237.2</ele>
        <time>2021-10-02T13:45:46Z</time>
      </trkpt>
      <trkpt lat="44.4457" lon="1.41006">
        <ele>237.3</ele>
        <time>2021-10-02T13:45:48Z</time>
      </trkpt>
      <trkpt lat="44.4457" lon="1.41006">
        <ele>237.3</ele>
        <time>2021-10-02T13:45:50Z</time>
      </trkpt>
      <trkpt lat="44.4457" lon="1.41006">
        <ele>237.3</ele>
        <time>2021-10-02T13:45:51Z</time>
      </trkpt>
      <trkpt lat="44.4457" lon="1.41006">
        <ele>237.3</ele>
        <time>2021-10-02T13:45:52Z</time>
      </trkpt>
      <trkpt lat="44.44571" lon="1.41002">
        <ele>237.5</ele>
        <time>2021-10-02T13:45:53Z</time>
      </trkpt>
      <trkpt lat="44.44571" lon="1.40988">
        <ele>238.3</ele>
        <time>2021-10-02T13:45:57Z</time>
      </trkpt>
      <trkpt lat="44.44571" lon="1.40987">
        <ele>238.3</ele>
        <time>2021-10-02T13:45:58Z</time>
      </trkpt>
      <trkpt lat="44.44572" lon="1.40985">
        <ele>238.6</ele>
        <time>2021-10-02T13:46:00Z</time>
      </trkpt>
      <trkpt lat="44.44572" lon="1.40985">
        <ele>238.6</ele>
        <time>2021-10-02T13:46:01Z</time>
      </trkpt>
      <trkpt lat="44.44572" lon="1.40983">
        <ele>238.6</ele>
        <time>2021-10-02T13:46:03Z</time>
      </trkpt>
      <trkpt lat="44.44572" lon="1.40983">
        <ele>238.6</ele>
        <time>2021-10-02T13:46:04Z</time>
      </trkpt>
      <trkpt lat="44.44573" lon="1.40983">
        <ele>238.6</ele>
        <time>2021-10-02T13:46:06Z</time>
      </trkpt>
      <trkpt lat="44.44573" lon="1.40983">
        <ele>238.6</ele>
        <time>2021-10-02T13:46:08Z</time>
      </trkpt>
      <trkpt lat="44.44575" lon="1.40971">
        <ele>238.8</ele>
        <time>2021-10-02T13:46:10Z</time>
      </trkpt>
      <trkpt lat="44.44577" lon="1.40967">
        <ele>238.2</ele>
        <time>2021-10-02T13:46:11Z</time>
      </trkpt>
      <trkpt lat="44.44577" lon="1.40966">
        <ele>238.2</ele>
        <time>2021-10-02T13:46:13Z</time>
      </trkpt>
      <trkpt lat="44.44577" lon="1.40964">
        <ele>238.7</ele>
        <time>2021-10-02T13:46:15Z</time>
      </trkpt>
      <trkpt lat="44.44577" lon="1.40963">
        <ele>238.7</ele>
        <time>2021-10-02T13:46:16Z</time>
      </trkpt>
      <trkpt lat="44.44577" lon="1.40963">
        <ele>238.7</ele>
        <time>2021-10-02T13:46:18Z</time>
      </trkpt>
      <trkpt lat="44.44577" lon="1.40962">
        <ele>238.7</ele>
        <time>2021-10-02T13:46:19Z</time>
      </trkpt>
      <trkpt lat="44.44578" lon="1.40961">
        <ele>238.7</ele>
        <time>2021-10-02T13:46:21Z</time>
      </trkpt>
      <trkpt lat="44.44579" lon="1.40959">
        <ele>239.3</ele>
        <time>2021-10-02T13:46:22Z</time>
      </trkpt>
      <trkpt lat="44.44579" lon="1.40957">
        <ele>239.2</ele>
        <time>2021-10-02T13:46:23Z</time>
      </trkpt>
      <trkpt lat="44.44579" lon="1.40956">
        <ele>239.2</ele>
        <time>2021-10-02T13:46:24Z</time>
      </trkpt>
      <trkpt lat="44.44579" lon="1.40954">
        <ele>239.9</ele>
        <time>2021-10-02T13:46:25Z</time>
      </trkpt>
      <trkpt lat="44.4458" lon="1.40949">
        <ele>239.5</ele>
        <time>2021-10-02T13:46:26Z</time>
      </trkpt>
      <trkpt lat="44.44582" lon="1.40944">
        <ele>240.2</ele>
        <time>2021-10-02T13:46:27Z</time>
      </trkpt>
      <trkpt lat="44.44584" lon="1.4094">
        <ele>239.9</ele>
        <time>2021-10-02T13:46:29Z</time>
      </trkpt>
      <trkpt lat="44.44586" lon="1.40935">
        <ele>239.7</ele>
        <time>2021-10-02T13:46:30Z</time>
      </trkpt>
      <trkpt lat="44.44587" lon="1.40931">
        <ele>240.4</ele>
        <time>2021-10-02T13:46:31Z</time>
      </trkpt>
      <trkpt lat="44.44589" lon="1.40926">
        <ele>240.3</ele>
        <time>2021-10-02T13:46:54Z</time>
      </trkpt>
      <trkpt lat="44.44591" lon="1.40921">
        <ele>241.1</ele>
        <time>2021-10-02T13:46:55Z</time>
      </trkpt>
      <trkpt lat="44.44593" lon="1.40917">
        <ele>242</ele>
        <time>2021-10-02T13:46:56Z</time>
      </trkpt>
      <trkpt lat="44.44593" lon="1.40915">
        <ele>242</ele>
        <time>2021-10-02T13:46:57Z</time>
      </trkpt>
      <trkpt lat="44.44594" lon="1.40914">
        <ele>241.9</ele>
        <time>2021-10-02T13:46:59Z</time>
      </trkpt>
      <trkpt lat="44.44595" lon="1.40912">
        <ele>242</ele>
        <time>2021-10-02T13:47:01Z</time>
      </trkpt>
      <trkpt lat="44.44596" lon="1.40909">
        <ele>242</ele>
        <time>2021-10-02T13:47:02Z</time>
      </trkpt>
      <trkpt lat="44.44596" lon="1.40908">
        <ele>242.8</ele>
        <time>2021-10-02T13:47:04Z</time>
      </trkpt>
      <trkpt lat="44.44597" lon="1.40907">
        <ele>242.7</ele>
        <time>2021-10-02T13:47:05Z</time>
      </trkpt>
      <trkpt lat="44.44597" lon="1.40906">
        <ele>242.7</ele>
        <time>2021-10-02T13:47:06Z</time>
      </trkpt>
      <trkpt lat="44.44597" lon="1.40905">
        <ele>242.7</ele>
        <time>2021-10-02T13:47:07Z</time>
      </trkpt>
      <trkpt lat="44.44597" lon="1.40904">
        <ele>242.7</ele>
        <time>2021-10-02T13:47:09Z</time>
      </trkpt>
      <trkpt lat="44.44598" lon="1.40903">
        <ele>242.7</ele>
        <time>2021-10-02T13:47:10Z</time>
      </trkpt>
      <trkpt lat="44.44599" lon="1.40901">
        <ele>242.7</ele>
        <time>2021-10-02T13:47:12Z</time>
      </trkpt>
      <trkpt lat="44.44601" lon="1.40899">
        <ele>243.5</ele>
        <time>2021-10-02T13:47:14Z</time>
      </trkpt>
      <trkpt lat="44.44601" lon="1.40896">
        <ele>242.7</ele>
        <time>2021-10-02T13:47:16Z</time>
      </trkpt>
      <trkpt lat="44.44602" lon="1.40895">
        <ele>243.5</ele>
        <time>2021-10-02T13:47:17Z</time>
      </trkpt>
      <trkpt lat="44.44602" lon="1.40894">
        <ele>243.5</ele>
        <time>2021-10-02T13:47:19Z</time>
      </trkpt>
      <trkpt lat="44.44602" lon="1.40892">
        <ele>243.5</ele>
        <time>2021-10-02T13:47:20Z</time>
      </trkpt>
      <trkpt lat="44.44603" lon="1.40891">
        <ele>244.3</ele>
        <time>2021-10-02T13:47:21Z</time>
      </trkpt>
      <trkpt lat="44.44605" lon="1.40888">
        <ele>243.5</ele>
        <time>2021-10-02T13:47:24Z</time>
      </trkpt>
      <trkpt lat="44.44606" lon="1.40886">
        <ele>244.3</ele>
        <time>2021-10-02T13:47:25Z</time>
      </trkpt>
      <trkpt lat="44.44608" lon="1.40882">
        <ele>244.5</ele>
        <time>2021-10-02T13:47:27Z</time>
      </trkpt>
      <trkpt lat="44.4461" lon="1.40879">
        <ele>244.4</ele>
        <time>2021-10-02T13:47:28Z</time>
      </trkpt>
      <trkpt lat="44.4461" lon="1.40878">
        <ele>244.6</ele>
        <time>2021-10-02T13:47:30Z</time>
      </trkpt>
      <trkpt lat="44.44611" lon="1.40878">
        <ele>244.6</ele>
        <time>2021-10-02T13:47:31Z</time>
      </trkpt>
      <trkpt lat="44.44612" lon="1.40877">
        <ele>244.6</ele>
        <time>2021-10-02T13:47:32Z</time>
      </trkpt>
      <trkpt lat="44.44612" lon="1.40877">
        <ele>244.6</ele>
        <time>2021-10-02T13:47:33Z</time>
      </trkpt>
      <trkpt lat="44.44612" lon="1.40876">
        <ele>244.6</ele>
        <time>2021-10-02T13:47:35Z</time>
      </trkpt>
      <trkpt lat="44.44613" lon="1.40875">
        <ele>244.5</ele>
        <time>2021-10-02T13:47:36Z</time>
      </trkpt>
      <trkpt lat="44.44614" lon="1.40873">
        <ele>244.7</ele>
        <time>2021-10-02T13:47:37Z</time>
      </trkpt>
      <trkpt lat="44.44615" lon="1.40871">
        <ele>244.7</ele>
        <time>2021-10-02T13:47:39Z</time>
      </trkpt>
      <trkpt lat="44.44615" lon="1.4087">
        <ele>244.7</ele>
        <time>2021-10-02T13:47:40Z</time>
      </trkpt>
      <trkpt lat="44.44616" lon="1.40869">
        <ele>245.6</ele>
        <time>2021-10-02T13:47:41Z</time>
      </trkpt>
      <trkpt lat="44.44616" lon="1.40867">
        <ele>244.9</ele>
        <time>2021-10-02T13:47:43Z</time>
      </trkpt>
      <trkpt lat="44.44617" lon="1.40864">
        <ele>245.9</ele>
        <time>2021-10-02T13:47:46Z</time>
      </trkpt>
      <trkpt lat="44.44617" lon="1.40862">
        <ele>245.9</ele>
        <time>2021-10-02T13:47:47Z</time>
      </trkpt>
      <trkpt lat="44.44617" lon="1.4086">
        <ele>246.8</ele>
        <time>2021-10-02T13:47:48Z</time>
      </trkpt>
      <trkpt lat="44.44617" lon="1.40859">
        <ele>246.8</ele>
        <time>2021-10-02T13:47:50Z</time>
      </trkpt>
      <trkpt lat="44.44618" lon="1.40858">
        <ele>246.8</ele>
        <time>2021-10-02T13:47:52Z</time>
      </trkpt>
      <trkpt lat="44.44618" lon="1.40857">
        <ele>246.8</ele>
        <time>2021-10-02T13:47:54Z</time>
      </trkpt>
      <trkpt lat="44.44618" lon="1.40857">
        <ele>246.8</ele>
        <time>2021-10-02T13:47:55Z</time>
      </trkpt>
      <trkpt lat="44.44618" lon="1.40857">
        <ele>246.8</ele>
        <time>2021-10-02T13:47:57Z</time>
      </trkpt>
      <trkpt lat="44.44627" lon="1.40833">
        <ele>250.2</ele>
        <time>2021-10-02T13:48:15Z</time>
      </trkpt>
      <trkpt lat="44.44628" lon="1.4083">
        <ele>251.1</ele>
        <time>2021-10-02T13:48:17Z</time>
      </trkpt>
      <trkpt lat="44.44628" lon="1.40828">
        <ele>250.5</ele>
        <time>2021-10-02T13:48:18Z</time>
      </trkpt>
      <trkpt lat="44.44628" lon="1.40828">
        <ele>250.5</ele>
        <time>2021-10-02T13:48:20Z</time>
      </trkpt>
      <trkpt lat="44.44628" lon="1.40828">
        <ele>250.5</ele>
        <time>2021-10-02T13:48:21Z</time>
      </trkpt>
      <trkpt lat="44.44628" lon="1.40828">
        <ele>250.5</ele>
        <time>2021-10-02T13:48:23Z</time>
      </trkpt>
      <trkpt lat="44.44628" lon="1.40828">
        <ele>250.5</ele>
        <time>2021-10-02T13:48:24Z</time>
      </trkpt>
      <trkpt lat="44.44631" lon="1.40823">
        <ele>251.4</ele>
        <time>2021-10-02T13:48:26Z</time>
      </trkpt>
      <trkpt lat="44.44634" lon="1.40816">
        <ele>252.5</ele>
        <time>2021-10-02T13:48:28Z</time>
      </trkpt>
      <trkpt lat="44.44634" lon="1.40814">
        <ele>252</ele>
        <time>2021-10-02T13:48:30Z</time>
      </trkpt>
      <trkpt lat="44.44634" lon="1.40814">
        <ele>252.7</ele>
        <time>2021-10-02T13:48:31Z</time>
      </trkpt>
      <trkpt lat="44.44634" lon="1.40813">
        <ele>252.7</ele>
        <time>2021-10-02T13:48:33Z</time>
      </trkpt>
      <trkpt lat="44.44634" lon="1.40813">
        <ele>252.7</ele>
        <time>2021-10-02T13:48:34Z</time>
      </trkpt>
      <trkpt lat="44.44635" lon="1.40813">
        <ele>252.7</ele>
        <time>2021-10-02T13:48:35Z</time>
      </trkpt>
      <trkpt lat="44.44635" lon="1.40813">
        <ele>252.7</ele>
        <time>2021-10-02T13:48:37Z</time>
      </trkpt>
      <trkpt lat="44.44631" lon="1.40813">
        <ele>253.7</ele>
        <time>2021-10-02T13:48:43Z</time>
      </trkpt>
      <trkpt lat="44.44626" lon="1.40813">
        <ele>254.2</ele>
        <time>2021-10-02T13:48:45Z</time>
      </trkpt>
      <trkpt lat="44.44625" lon="1.40813">
        <ele>254.7</ele>
        <time>2021-10-02T13:48:46Z</time>
      </trkpt>
      <trkpt lat="44.44625" lon="1.40813">
        <ele>254.7</ele>
        <time>2021-10-02T13:48:47Z</time>
      </trkpt>
      <trkpt lat="44.44624" lon="1.40814">
        <ele>254.7</ele>
        <time>2021-10-02T13:48:48Z</time>
      </trkpt>
      <trkpt lat="44.44624" lon="1.40814">
        <ele>254.7</ele>
        <time>2021-10-02T13:48:50Z</time>
      </trkpt>
      <trkpt lat="44.44624" lon="1.40814">
        <ele>253.9</ele>
        <time>2021-10-02T13:48:51Z</time>
      </trkpt>
      <trkpt lat="44.44624" lon="1.40814">
        <ele>253.9</ele>
        <time>2021-10-02T13:48:52Z</time>
      </trkpt>
      <trkpt lat="44.44624" lon="1.40814">
        <ele>253.9</ele>
        <time>2021-10-02T13:48:54Z</time>
      </trkpt>
      <trkpt lat="44.44624" lon="1.40814">
        <ele>253.9</ele>
        <time>2021-10-02T13:48:55Z</time>
      </trkpt>
      <trkpt lat="44.44624" lon="1.40814">
        <ele>253.9</ele>
        <time>2021-10-02T13:48:56Z</time>
      </trkpt>
      <trkpt lat="44.44624" lon="1.40814">
        <ele>253.9</ele>
        <time>2021-10-02T13:48:58Z</time>
      </trkpt>
      <trkpt lat="44.44623" lon="1.40814">
        <ele>253.8</ele>
        <time>2021-10-02T13:48:59Z</time>
      </trkpt>
      <trkpt lat="44.44615" lon="1.40818">
        <ele>254.7</ele>
        <time>2021-10-02T13:49:01Z</time>
      </trkpt>
      <trkpt lat="44.44614" lon="1.40819">
        <ele>254.7</ele>
        <time>2021-10-02T13:49:02Z</time>
      </trkpt>
      <trkpt lat="44.44614" lon="1.40819">
        <ele>254.7</ele>
        <time>2021-10-02T13:49:03Z</time>
      </trkpt>
      <trkpt lat="44.44614" lon="1.40819">
        <ele>254.7</ele>
        <time>2021-10-02T13:49:04Z</time>
      </trkpt>
      <trkpt lat="44.44613" lon="1.4082">
        <ele>254.7</ele>
        <time>2021-10-02T13:49:05Z</time>
      </trkpt>
      <trkpt lat="44.44613" lon="1.4082">
        <ele>254.7</ele>
        <time>2021-10-02T13:49:07Z</time>
      </trkpt>
      <trkpt lat="44.44613" lon="1.40819">
        <ele>254.7</ele>
        <time>2021-10-02T13:49:09Z</time>
      </trkpt>
      <trkpt lat="44.44607" lon="1.40823">
        <ele>255</ele>
        <time>2021-10-02T13:49:13Z</time>
      </trkpt>
      <trkpt lat="44.44604" lon="1.40825">
        <ele>255.6</ele>
        <time>2021-10-02T13:49:15Z</time>
      </trkpt>
      <trkpt lat="44.44603" lon="1.40826">
        <ele>256.2</ele>
        <time>2021-10-02T13:49:16Z</time>
      </trkpt>
      <trkpt lat="44.44602" lon="1.40826">
        <ele>256.2</ele>
        <time>2021-10-02T13:49:18Z</time>
      </trkpt>
      <trkpt lat="44.44602" lon="1.40826">
        <ele>256.2</ele>
        <time>2021-10-02T13:49:19Z</time>
      </trkpt>
      <trkpt lat="44.44601" lon="1.40827">
        <ele>256.2</ele>
        <time>2021-10-02T13:49:21Z</time>
      </trkpt>
      <trkpt lat="44.44601" lon="1.40827">
        <ele>256</ele>
        <time>2021-10-02T13:49:23Z</time>
      </trkpt>
      <trkpt lat="44.446" lon="1.40827">
        <ele>256</ele>
        <time>2021-10-02T13:49:24Z</time>
      </trkpt>
      <trkpt lat="44.44599" lon="1.40828">
        <ele>256</ele>
        <time>2021-10-02T13:49:25Z</time>
      </trkpt>
      <trkpt lat="44.44599" lon="1.40828">
        <ele>256</ele>
        <time>2021-10-02T13:49:26Z</time>
      </trkpt>
      <trkpt lat="44.44598" lon="1.40828">
        <ele>256</ele>
        <time>2021-10-02T13:49:28Z</time>
      </trkpt>
      <trkpt lat="44.44597" lon="1.40829">
        <ele>256.6</ele>
        <time>2021-10-02T13:49:29Z</time>
      </trkpt>
      <trkpt lat="44.44594" lon="1.40831">
        <ele>257.3</ele>
        <time>2021-10-02T13:49:31Z</time>
      </trkpt>
      <trkpt lat="44.44593" lon="1.40831">
        <ele>256.5</ele>
        <time>2021-10-02T13:49:32Z</time>
      </trkpt>
      <trkpt lat="44.44592" lon="1.40832">
        <ele>256.5</ele>
        <time>2021-10-02T13:49:33Z</time>
      </trkpt>
      <trkpt lat="44.44592" lon="1.40832">
        <ele>256.5</ele>
        <time>2021-10-02T13:49:34Z</time>
      </trkpt>
      <trkpt lat="44.44592" lon="1.40832">
        <ele>256.5</ele>
        <time>2021-10-02T13:49:36Z</time>
      </trkpt>
      <trkpt lat="44.44592" lon="1.40832">
        <ele>256.5</ele>
        <time>2021-10-02T13:49:38Z</time>
      </trkpt>
      <trkpt lat="44.44589" lon="1.40815">
        <ele>260.2</ele>
        <time>2021-10-02T13:50:09Z</time>
      </trkpt>
      <trkpt lat="44.44591" lon="1.40808">
        <ele>260.8</ele>
        <time>2021-10-02T13:50:11Z</time>
      </trkpt>
      <trkpt lat="44.44592" lon="1.40806">
        <ele>260.8</ele>
        <time>2021-10-02T13:50:13Z</time>
      </trkpt>
      <trkpt lat="44.44593" lon="1.40805">
        <ele>261.5</ele>
        <time>2021-10-02T13:50:14Z</time>
      </trkpt>
      <trkpt lat="44.44593" lon="1.40805">
        <ele>261.4</ele>
        <time>2021-10-02T13:50:16Z</time>
      </trkpt>
      <trkpt lat="44.44593" lon="1.40804">
        <ele>261.4</ele>
        <time>2021-10-02T13:50:18Z</time>
      </trkpt>
      <trkpt lat="44.44593" lon="1.40804">
        <ele>261.4</ele>
        <time>2021-10-02T13:50:19Z</time>
      </trkpt>
      <trkpt lat="44.44593" lon="1.40804">
        <ele>261.4</ele>
        <time>2021-10-02T13:50:21Z</time>
      </trkpt>
      <trkpt lat="44.44593" lon="1.40804">
        <ele>261.4</ele>
        <time>2021-10-02T13:50:22Z</time>
      </trkpt>
      <trkpt lat="44.44594" lon="1.40801">
        <ele>262</ele>
        <time>2021-10-02T13:50:24Z</time>
      </trkpt>
      <trkpt lat="44.44597" lon="1.40792">
        <ele>262.7</ele>
        <time>2021-10-02T13:50:26Z</time>
      </trkpt>
      <trkpt lat="44.44597" lon="1.4079">
        <ele>262.6</ele>
        <time>2021-10-02T13:50:27Z</time>
      </trkpt>
      <trkpt lat="44.44598" lon="1.40788">
        <ele>262.1</ele>
        <time>2021-10-02T13:50:30Z</time>
      </trkpt>
      <trkpt lat="44.44598" lon="1.40788">
        <ele>262.7</ele>
        <time>2021-10-02T13:50:32Z</time>
      </trkpt>
      <trkpt lat="44.44598" lon="1.40788">
        <ele>262.7</ele>
        <time>2021-10-02T13:50:33Z</time>
      </trkpt>
      <trkpt lat="44.44598" lon="1.40787">
        <ele>262.7</ele>
        <time>2021-10-02T13:50:35Z</time>
      </trkpt>
      <trkpt lat="44.44599" lon="1.40784">
        <ele>263.2</ele>
        <time>2021-10-02T13:50:39Z</time>
      </trkpt>
      <trkpt lat="44.44602" lon="1.40777">
        <ele>263.3</ele>
        <time>2021-10-02T13:50:41Z</time>
      </trkpt>
      <trkpt lat="44.44602" lon="1.40775">
        <ele>263.8</ele>
        <time>2021-10-02T13:50:42Z</time>
      </trkpt>
      <trkpt lat="44.44603" lon="1.40774">
        <ele>263.8</ele>
        <time>2021-10-02T13:50:43Z</time>
      </trkpt>
      <trkpt lat="44.44603" lon="1.40773">
        <ele>263.8</ele>
        <time>2021-10-02T13:50:44Z</time>
      </trkpt>
      <trkpt lat="44.44603" lon="1.40773">
        <ele>263.7</ele>
        <time>2021-10-02T13:50:45Z</time>
      </trkpt>
      <trkpt lat="44.44603" lon="1.40772">
        <ele>263.7</ele>
        <time>2021-10-02T13:50:47Z</time>
      </trkpt>
      <trkpt lat="44.44603" lon="1.40772">
        <ele>263.7</ele>
        <time>2021-10-02T13:50:48Z</time>
      </trkpt>
      <trkpt lat="44.44603" lon="1.40772">
        <ele>263.7</ele>
        <time>2021-10-02T13:50:50Z</time>
      </trkpt>
      <trkpt lat="44.44606" lon="1.40763">
        <ele>264.1</ele>
        <time>2021-10-02T13:50:52Z</time>
      </trkpt>
      <trkpt lat="44.44607" lon="1.4076">
        <ele>264.5</ele>
        <time>2021-10-02T13:50:53Z</time>
      </trkpt>
      <trkpt lat="44.44608" lon="1.40756">
        <ele>264.4</ele>
        <time>2021-10-02T13:50:55Z</time>
      </trkpt>
      <trkpt lat="44.44608" lon="1.40754">
        <ele>264.4</ele>
        <time>2021-10-02T13:50:56Z</time>
      </trkpt>
      <trkpt lat="44.4461" lon="1.40752">
        <ele>264.7</ele>
        <time>2021-10-02T13:50:58Z</time>
      </trkpt>
      <trkpt lat="44.44611" lon="1.40748">
        <ele>264.6</ele>
        <time>2021-10-02T13:51:00Z</time>
      </trkpt>
      <trkpt lat="44.44612" lon="1.40747">
        <ele>264.6</ele>
        <time>2021-10-02T13:51:01Z</time>
      </trkpt>
      <trkpt lat="44.44612" lon="1.40746">
        <ele>264.6</ele>
        <time>2021-10-02T13:51:02Z</time>
      </trkpt>
      <trkpt lat="44.44612" lon="1.40746">
        <ele>264.6</ele>
        <time>2021-10-02T13:51:03Z</time>
      </trkpt>
      <trkpt lat="44.44613" lon="1.40743">
        <ele>264.9</ele>
        <time>2021-10-02T13:51:05Z</time>
      </trkpt>
      <trkpt lat="44.44614" lon="1.40739">
        <ele>264.8</ele>
        <time>2021-10-02T13:51:06Z</time>
      </trkpt>
      <trkpt lat="44.44614" lon="1.40738">
        <ele>264.8</ele>
        <time>2021-10-02T13:51:07Z</time>
      </trkpt>
      <trkpt lat="44.44614" lon="1.40736">
        <ele>265</ele>
        <time>2021-10-02T13:51:09Z</time>
      </trkpt>
      <trkpt lat="44.44614" lon="1.40736">
        <ele>265</ele>
        <time>2021-10-02T13:51:10Z</time>
      </trkpt>
      <trkpt lat="44.44614" lon="1.40736">
        <ele>265.1</ele>
        <time>2021-10-02T13:51:12Z</time>
      </trkpt>
      <trkpt lat="44.44614" lon="1.40735">
        <ele>265.1</ele>
        <time>2021-10-02T13:51:14Z</time>
      </trkpt>
      <trkpt lat="44.44614" lon="1.40735">
        <ele>265.1</ele>
        <time>2021-10-02T13:51:15Z</time>
      </trkpt>
      <trkpt lat="44.44614" lon="1.40735">
        <ele>265.1</ele>
        <time>2021-10-02T13:51:16Z</time>
      </trkpt>
      <trkpt lat="44.44614" lon="1.40735">
        <ele>265.1</ele>
        <time>2021-10-02T13:51:17Z</time>
      </trkpt>
      <trkpt lat="44.44609" lon="1.4074">
        <ele>265.7</ele>
        <time>2021-10-02T13:51:42Z</time>
      </trkpt>
      <trkpt lat="44.44607" lon="1.40742">
        <ele>265.9</ele>
        <time>2021-10-02T13:51:43Z</time>
      </trkpt>
      <trkpt lat="44.44605" lon="1.40743">
        <ele>266.1</ele>
        <time>2021-10-02T13:51:45Z</time>
      </trkpt>
      <trkpt lat="44.44602" lon="1.40745">
        <ele>266.3</ele>
        <time>2021-10-02T13:51:47Z</time>
      </trkpt>
      <trkpt lat="44.44602" lon="1.40745">
        <ele>266.4</ele>
        <time>2021-10-02T13:51:48Z</time>
      </trkpt>
      <trkpt lat="44.446" lon="1.40746">
        <ele>266.5</ele>
        <time>2021-10-02T13:51:50Z</time>
      </trkpt>
      <trkpt lat="44.44599" lon="1.40747">
        <ele>266.6</ele>
        <time>2021-10-02T13:51:52Z</time>
      </trkpt>
      <trkpt lat="44.44599" lon="1.40747">
        <ele>266.6</ele>
        <time>2021-10-02T13:51:54Z</time>
      </trkpt>
      <trkpt lat="44.44599" lon="1.40747">
        <ele>266.6</ele>
        <time>2021-10-02T13:51:55Z</time>
      </trkpt>
      <trkpt lat="44.44599" lon="1.40747">
        <ele>266.6</ele>
        <time>2021-10-02T13:51:57Z</time>
      </trkpt>
      <trkpt lat="44.44594" lon="1.40753">
        <ele>267.2</ele>
        <time>2021-10-02T13:51:59Z</time>
      </trkpt>
      <trkpt lat="44.4459" lon="1.40758">
        <ele>267.5</ele>
        <time>2021-10-02T13:52:01Z</time>
      </trkpt>
      <trkpt lat="44.44588" lon="1.40759">
        <ele>267.7</ele>
        <time>2021-10-02T13:52:02Z</time>
      </trkpt>
      <trkpt lat="44.44587" lon="1.4076">
        <ele>267.7</ele>
        <time>2021-10-02T13:52:03Z</time>
      </trkpt>
      <trkpt lat="44.44586" lon="1.40761">
        <ele>267.9</ele>
        <time>2021-10-02T13:52:04Z</time>
      </trkpt>
      <trkpt lat="44.44583" lon="1.40764">
        <ele>268.1</ele>
        <time>2021-10-02T13:52:06Z</time>
      </trkpt>
      <trkpt lat="44.44581" lon="1.40766">
        <ele>268.2</ele>
        <time>2021-10-02T13:52:07Z</time>
      </trkpt>
      <trkpt lat="44.4458" lon="1.40767">
        <ele>268.3</ele>
        <time>2021-10-02T13:52:09Z</time>
      </trkpt>
      <trkpt lat="44.44579" lon="1.40769">
        <ele>268.4</ele>
        <time>2021-10-02T13:52:10Z</time>
      </trkpt>
      <trkpt lat="44.44578" lon="1.40771">
        <ele>268.5</ele>
        <time>2021-10-02T13:52:11Z</time>
      </trkpt>
      <trkpt lat="44.44576" lon="1.40773">
        <ele>268.7</ele>
        <time>2021-10-02T13:52:12Z</time>
      </trkpt>
      <trkpt lat="44.44573" lon="1.40776">
        <ele>268.9</ele>
        <time>2021-10-02T13:52:14Z</time>
      </trkpt>
      <trkpt lat="44.4457" lon="1.40779">
        <ele>269.2</ele>
        <time>2021-10-02T13:52:16Z</time>
      </trkpt>
      <trkpt lat="44.44567" lon="1.40782">
        <ele>269.5</ele>
        <time>2021-10-02T13:52:18Z</time>
      </trkpt>
      <trkpt lat="44.44566" lon="1.40784">
        <ele>269.6</ele>
        <time>2021-10-02T13:52:19Z</time>
      </trkpt>
      <trkpt lat="44.44562" lon="1.40788">
        <ele>270</ele>
        <time>2021-10-02T13:52:21Z</time>
      </trkpt>
      <trkpt lat="44.4456" lon="1.40792">
        <ele>270.4</ele>
        <time>2021-10-02T13:52:22Z</time>
      </trkpt>
      <trkpt lat="44.44559" lon="1.40793">
        <ele>270.5</ele>
        <time>2021-10-02T13:52:23Z</time>
      </trkpt>
      <trkpt lat="44.44557" lon="1.40794">
        <ele>270.7</ele>
        <time>2021-10-02T13:52:24Z</time>
      </trkpt>
      <trkpt lat="44.44554" lon="1.40796">
        <ele>271</ele>
        <time>2021-10-02T13:52:26Z</time>
      </trkpt>
      <trkpt lat="44.44553" lon="1.40797">
        <ele>271.2</ele>
        <time>2021-10-02T13:52:27Z</time>
      </trkpt>
      <trkpt lat="44.44552" lon="1.40799">
        <ele>271.4</ele>
        <time>2021-10-02T13:52:28Z</time>
      </trkpt>
      <trkpt lat="44.4455" lon="1.408">
        <ele>271.6</ele>
        <time>2021-10-02T13:52:29Z</time>
      </trkpt>
      <trkpt lat="44.44548" lon="1.40803">
        <ele>272</ele>
        <time>2021-10-02T13:52:31Z</time>
      </trkpt>
      <trkpt lat="44.44544" lon="1.40806">
        <ele>272.6</ele>
        <time>2021-10-02T13:52:33Z</time>
      </trkpt>
      <trkpt lat="44.44543" lon="1.40807">
        <ele>272.8</ele>
        <time>2021-10-02T13:52:34Z</time>
      </trkpt>
      <trkpt lat="44.44542" lon="1.40808">
        <ele>273</ele>
        <time>2021-10-02T13:52:35Z</time>
      </trkpt>
      <trkpt lat="44.44538" lon="1.40809">
        <ele>273.5</ele>
        <time>2021-10-02T13:52:37Z</time>
      </trkpt>
      <trkpt lat="44.44535" lon="1.40811">
        <ele>274</ele>
        <time>2021-10-02T13:52:39Z</time>
      </trkpt>
      <trkpt lat="44.44533" lon="1.40811">
        <ele>274.2</ele>
        <time>2021-10-02T13:52:40Z</time>
      </trkpt>
      <trkpt lat="44.4453" lon="1.40812">
        <ele>274.6</ele>
        <time>2021-10-02T13:52:42Z</time>
      </trkpt>
      <trkpt lat="44.44525" lon="1.40814">
        <ele>275.2</ele>
        <time>2021-10-02T13:52:44Z</time>
      </trkpt>
      <trkpt lat="44.44523" lon="1.40814">
        <ele>275.4</ele>
        <time>2021-10-02T13:52:46Z</time>
      </trkpt>
      <trkpt lat="44.44522" lon="1.40814">
        <ele>275.6</ele>
        <time>2021-10-02T13:52:48Z</time>
      </trkpt>
      <trkpt lat="44.4452" lon="1.40815">
        <ele>275.8</ele>
        <time>2021-10-02T13:52:49Z</time>
      </trkpt>
      <trkpt lat="44.44518" lon="1.40814">
        <ele>276</ele>
        <time>2021-10-02T13:52:50Z</time>
      </trkpt>
      <trkpt lat="44.44515" lon="1.40813">
        <ele>276.3</ele>
        <time>2021-10-02T13:52:52Z</time>
      </trkpt>
      <trkpt lat="44.44513" lon="1.40814">
        <ele>276.5</ele>
        <time>2021-10-02T13:52:53Z</time>
      </trkpt>
      <trkpt lat="44.44509" lon="1.40816">
        <ele>276.9</ele>
        <time>2021-10-02T13:52:55Z</time>
      </trkpt>
      <trkpt lat="44.44505" lon="1.40818">
        <ele>277.3</ele>
        <time>2021-10-02T13:52:57Z</time>
      </trkpt>
      <trkpt lat="44.44503" lon="1.40819">
        <ele>277.4</ele>
        <time>2021-10-02T13:52:58Z</time>
      </trkpt>
      <trkpt lat="44.44501" lon="1.40819">
        <ele>277.6</ele>
        <time>2021-10-02T13:53:00Z</time>
      </trkpt>
      <trkpt lat="44.44499" lon="1.4082">
        <ele>277.7</ele>
        <time>2021-10-02T13:53:01Z</time>
      </trkpt>
      <trkpt lat="44.44498" lon="1.40821">
        <ele>277.8</ele>
        <time>2021-10-02T13:53:02Z</time>
      </trkpt>
      <trkpt lat="44.44496" lon="1.40821">
        <ele>277.9</ele>
        <time>2021-10-02T13:53:03Z</time>
      </trkpt>
      <trkpt lat="44.44493" lon="1.40822">
        <ele>278.1</ele>
        <time>2021-10-02T13:53:05Z</time>
      </trkpt>
      <trkpt lat="44.4449" lon="1.40822">
        <ele>278.2</ele>
        <time>2021-10-02T13:53:07Z</time>
      </trkpt>
      <trkpt lat="44.44489" lon="1.40822">
        <ele>278.3</ele>
        <time>2021-10-02T13:53:08Z</time>
      </trkpt>
      <trkpt lat="44.44485" lon="1.40822">
        <ele>278.5</ele>
        <time>2021-10-02T13:53:10Z</time>
      </trkpt>
      <trkpt lat="44.44482" lon="1.40822">
        <ele>278.6</ele>
        <time>2021-10-02T13:53:12Z</time>
      </trkpt>
      <trkpt lat="44.4448" lon="1.40822">
        <ele>278.7</ele>
        <time>2021-10-02T13:53:13Z</time>
      </trkpt>
      <trkpt lat="44.44478" lon="1.40823">
        <ele>278.8</ele>
        <time>2021-10-02T13:53:15Z</time>
      </trkpt>
      <trkpt lat="44.44476" lon="1.40824">
        <ele>278.8</ele>
        <time>2021-10-02T13:53:17Z</time>
      </trkpt>
      <trkpt lat="44.44476" lon="1.40826">
        <ele>278.7</ele>
        <time>2021-10-02T13:53:18Z</time>
      </trkpt>
      <trkpt lat="44.44475" lon="1.40829">
        <ele>278.6</ele>
        <time>2021-10-02T13:53:19Z</time>
      </trkpt>
      <trkpt lat="44.44474" lon="1.40831">
        <ele>278.5</ele>
        <time>2021-10-02T13:53:21Z</time>
      </trkpt>
      <trkpt lat="44.44474" lon="1.40832">
        <ele>278.5</ele>
        <time>2021-10-02T13:53:22Z</time>
      </trkpt>
      <trkpt lat="44.44473" lon="1.40833">
        <ele>278.5</ele>
        <time>2021-10-02T13:53:23Z</time>
      </trkpt>
      <trkpt lat="44.44473" lon="1.40834">
        <ele>278.4</ele>
        <time>2021-10-02T13:53:25Z</time>
      </trkpt>
      <trkpt lat="44.44473" lon="1.40836">
        <ele>278.4</ele>
        <time>2021-10-02T13:53:26Z</time>
      </trkpt>
      <trkpt lat="44.44472" lon="1.40837">
        <ele>278.4</ele>
        <time>2021-10-02T13:53:27Z</time>
      </trkpt>
      <trkpt lat="44.44472" lon="1.40838">
        <ele>278.3</ele>
        <time>2021-10-02T13:53:29Z</time>
      </trkpt>
      <trkpt lat="44.44471" lon="1.40839">
        <ele>278.3</ele>
        <time>2021-10-02T13:53:31Z</time>
      </trkpt>
      <trkpt lat="44.44471" lon="1.4084">
        <ele>278.2</ele>
        <time>2021-10-02T14:01:47Z</time>
      </trkpt>
      <trkpt lat="44.4447" lon="1.40841">
        <ele>278.2</ele>
        <time>2021-10-02T14:01:48Z</time>
      </trkpt>
      <trkpt lat="44.44469" lon="1.40848">
        <ele>278</ele>
        <time>2021-10-02T14:01:50Z</time>
      </trkpt>
      <trkpt lat="44.44469" lon="1.40855">
        <ele>277.9</ele>
        <time>2021-10-02T14:01:52Z</time>
      </trkpt>
      <trkpt lat="44.44469" lon="1.4086">
        <ele>277.8</ele>
        <time>2021-10-02T14:01:53Z</time>
      </trkpt>
      <trkpt lat="44.44469" lon="1.40862">
        <ele>277.7</ele>
        <time>2021-10-02T14:01:54Z</time>
      </trkpt>
      <trkpt lat="44.44468" lon="1.40868">
        <ele>277.6</ele>
        <time>2021-10-02T14:01:55Z</time>
      </trkpt>
      <trkpt lat="44.44468" lon="1.4087">
        <ele>277.6</ele>
        <time>2021-10-02T14:01:56Z</time>
      </trkpt>
      <trkpt lat="44.44467" lon="1.40878">
        <ele>277.5</ele>
        <time>2021-10-02T14:01:57Z</time>
      </trkpt>
      <trkpt lat="44.44466" lon="1.40886">
        <ele>277.5</ele>
        <time>2021-10-02T14:01:58Z</time>
      </trkpt>
      <trkpt lat="44.44465" lon="1.40893">
        <ele>277.4</ele>
        <time>2021-10-02T14:01:59Z</time>
      </trkpt>
      <trkpt lat="44.44464" lon="1.40901">
        <ele>277.4</ele>
        <time>2021-10-02T14:02:01Z</time>
      </trkpt>
      <trkpt lat="44.44463" lon="1.40916">
        <ele>277.3</ele>
        <time>2021-10-02T14:02:03Z</time>
      </trkpt>
      <trkpt lat="44.44462" lon="1.4093">
        <ele>277.3</ele>
        <time>2021-10-02T14:02:05Z</time>
      </trkpt>
      <trkpt lat="44.44462" lon="1.40937">
        <ele>277.4</ele>
        <time>2021-10-02T14:02:06Z</time>
      </trkpt>
      <trkpt lat="44.44462" lon="1.4095">
        <ele>277.5</ele>
        <time>2021-10-02T14:02:08Z</time>
      </trkpt>
      <trkpt lat="44.44461" lon="1.40954">
        <ele>277.5</ele>
        <time>2021-10-02T14:02:09Z</time>
      </trkpt>
      <trkpt lat="44.44461" lon="1.40963">
        <ele>277.7</ele>
        <time>2021-10-02T14:02:10Z</time>
      </trkpt>
      <trkpt lat="44.4446" lon="1.40969">
        <ele>277.8</ele>
        <time>2021-10-02T14:02:11Z</time>
      </trkpt>
      <trkpt lat="44.44459" lon="1.40976">
        <ele>278</ele>
        <time>2021-10-02T14:02:13Z</time>
      </trkpt>
      <trkpt lat="44.4446" lon="1.40982">
        <ele>278.1</ele>
        <time>2021-10-02T14:02:14Z</time>
      </trkpt>
      <trkpt lat="44.44459" lon="1.40986">
        <ele>278.2</ele>
        <time>2021-10-02T14:02:15Z</time>
      </trkpt>
      <trkpt lat="44.4446" lon="1.4099">
        <ele>278.3</ele>
        <time>2021-10-02T14:02:16Z</time>
      </trkpt>
      <trkpt lat="44.44459" lon="1.40997">
        <ele>278.5</ele>
        <time>2021-10-02T14:02:17Z</time>
      </trkpt>
      <trkpt lat="44.44458" lon="1.41002">
        <ele>278.7</ele>
        <time>2021-10-02T14:02:19Z</time>
      </trkpt>
      <trkpt lat="44.44457" lon="1.41011">
        <ele>279</ele>
        <time>2021-10-02T14:02:21Z</time>
      </trkpt>
      <trkpt lat="44.44457" lon="1.41017">
        <ele>279.1</ele>
        <time>2021-10-02T14:02:22Z</time>
      </trkpt>
      <trkpt lat="44.44457" lon="1.41022">
        <ele>279.2</ele>
        <time>2021-10-02T14:02:23Z</time>
      </trkpt>
      <trkpt lat="44.44457" lon="1.41028">
        <ele>279.3</ele>
        <time>2021-10-02T14:02:25Z</time>
      </trkpt>
      <trkpt lat="44.44457" lon="1.41033">
        <ele>279.4</ele>
        <time>2021-10-02T14:02:26Z</time>
      </trkpt>
      <trkpt lat="44.44457" lon="1.41044">
        <ele>279.4</ele>
        <time>2021-10-02T14:02:27Z</time>
      </trkpt>
      <trkpt lat="44.44457" lon="1.41052">
        <ele>279.4</ele>
        <time>2021-10-02T14:02:28Z</time>
      </trkpt>
      <trkpt lat="44.44457" lon="1.41061">
        <ele>279.3</ele>
        <time>2021-10-02T14:02:30Z</time>
      </trkpt>
      <trkpt lat="44.44457" lon="1.41075">
        <ele>279.1</ele>
        <time>2021-10-02T14:02:32Z</time>
      </trkpt>
      <trkpt lat="44.44457" lon="1.41089">
        <ele>278.9</ele>
        <time>2021-10-02T14:02:34Z</time>
      </trkpt>
      <trkpt lat="44.44457" lon="1.41096">
        <ele>278.8</ele>
        <time>2021-10-02T14:02:35Z</time>
      </trkpt>
      <trkpt lat="44.44458" lon="1.4111">
        <ele>278.6</ele>
        <time>2021-10-02T14:02:37Z</time>
      </trkpt>
      <trkpt lat="44.44459" lon="1.41126">
        <ele>278.5</ele>
        <time>2021-10-02T14:02:39Z</time>
      </trkpt>
      <trkpt lat="44.44458" lon="1.41141">
        <ele>278.4</ele>
        <time>2021-10-02T14:02:41Z</time>
      </trkpt>
      <trkpt lat="44.44458" lon="1.41149">
        <ele>278.3</ele>
        <time>2021-10-02T14:02:42Z</time>
      </trkpt>
      <trkpt lat="44.44457" lon="1.41163">
        <ele>278.2</ele>
        <time>2021-10-02T14:02:44Z</time>
      </trkpt>
      <trkpt lat="44.44457" lon="1.41171">
        <ele>278.2</ele>
        <time>2021-10-02T14:02:45Z</time>
      </trkpt>
      <trkpt lat="44.44457" lon="1.41178">
        <ele>278.1</ele>
        <time>2021-10-02T14:02:46Z</time>
      </trkpt>
      <trkpt lat="44.44457" lon="1.41193">
        <ele>277.8</ele>
        <time>2021-10-02T14:02:48Z</time>
      </trkpt>
      <trkpt lat="44.44457" lon="1.41209">
        <ele>277.5</ele>
        <time>2021-10-02T14:02:50Z</time>
      </trkpt>
      <trkpt lat="44.44458" lon="1.41218">
        <ele>277.3</ele>
        <time>2021-10-02T14:02:51Z</time>
      </trkpt>
      <trkpt lat="44.44458" lon="1.41228">
        <ele>277.2</ele>
        <time>2021-10-02T14:02:52Z</time>
      </trkpt>
      <trkpt lat="44.44458" lon="1.41246">
        <ele>277</ele>
        <time>2021-10-02T14:02:54Z</time>
      </trkpt>
      <trkpt lat="44.44459" lon="1.41262">
        <ele>276.9</ele>
        <time>2021-10-02T14:02:56Z</time>
      </trkpt>
      <trkpt lat="44.44459" lon="1.41276">
        <ele>276.8</ele>
        <time>2021-10-02T14:02:58Z</time>
      </trkpt>
      <trkpt lat="44.44458" lon="1.41282">
        <ele>276.8</ele>
        <time>2021-10-02T14:02:59Z</time>
      </trkpt>
      <trkpt lat="44.44458" lon="1.41287">
        <ele>276.7</ele>
        <time>2021-10-02T14:03:00Z</time>
      </trkpt>
      <trkpt lat="44.44459" lon="1.41298">
        <ele>276.3</ele>
        <time>2021-10-02T14:03:02Z</time>
      </trkpt>
      <trkpt lat="44.4446" lon="1.41306">
        <ele>275.9</ele>
        <time>2021-10-02T14:03:03Z</time>
      </trkpt>
      <trkpt lat="44.44461" lon="1.41314">
        <ele>275.4</ele>
        <time>2021-10-02T14:03:04Z</time>
      </trkpt>
      <trkpt lat="44.44462" lon="1.41326">
        <ele>274.5</ele>
        <time>2021-10-02T14:03:06Z</time>
      </trkpt>
      <trkpt lat="44.44463" lon="1.41331">
        <ele>274.1</ele>
        <time>2021-10-02T14:03:07Z</time>
      </trkpt>
      <trkpt lat="44.44464" lon="1.41338">
        <ele>273.5</ele>
        <time>2021-10-02T14:03:08Z</time>
      </trkpt>
      <trkpt lat="44.44464" lon="1.41347">
        <ele>272.7</ele>
        <time>2021-10-02T14:03:10Z</time>
      </trkpt>
      <trkpt lat="44.44464" lon="1.41353">
        <ele>272.1</ele>
        <time>2021-10-02T14:03:11Z</time>
      </trkpt>
      <trkpt lat="44.44463" lon="1.4136">
        <ele>271.6</ele>
        <time>2021-10-02T14:03:12Z</time>
      </trkpt>
      <trkpt lat="44.44462" lon="1.41368">
        <ele>270.9</ele>
        <time>2021-10-02T14:03:13Z</time>
      </trkpt>
      <trkpt lat="44.4446" lon="1.41377">
        <ele>270</ele>
        <time>2021-10-02T14:03:15Z</time>
      </trkpt>
      <trkpt lat="44.44459" lon="1.41387">
        <ele>269.2</ele>
        <time>2021-10-02T14:03:16Z</time>
      </trkpt>
      <trkpt lat="44.44458" lon="1.41394">
        <ele>268.4</ele>
        <time>2021-10-02T14:03:17Z</time>
      </trkpt>
      <trkpt lat="44.44455" lon="1.41412">
        <ele>267</ele>
        <time>2021-10-02T14:03:19Z</time>
      </trkpt>
      <trkpt lat="44.44452" lon="1.4143">
        <ele>265.7</ele>
        <time>2021-10-02T14:03:21Z</time>
      </trkpt>
      <trkpt lat="44.44451" lon="1.41449">
        <ele>264.9</ele>
        <time>2021-10-02T14:03:23Z</time>
      </trkpt>
      <trkpt lat="44.44451" lon="1.41458">
        <ele>264.6</ele>
        <time>2021-10-02T14:03:24Z</time>
      </trkpt>
      <trkpt lat="44.44452" lon="1.41468">
        <ele>264.4</ele>
        <time>2021-10-02T14:03:25Z</time>
      </trkpt>
      <trkpt lat="44.44454" lon="1.41484">
        <ele>263.9</ele>
        <time>2021-10-02T14:03:27Z</time>
      </trkpt>
      <trkpt lat="44.44456" lon="1.415">
        <ele>263.4</ele>
        <time>2021-10-02T14:03:29Z</time>
      </trkpt>
      <trkpt lat="44.44457" lon="1.41516">
        <ele>262.9</ele>
        <time>2021-10-02T14:03:31Z</time>
      </trkpt>
      <trkpt lat="44.44458" lon="1.41532">
        <ele>262.2</ele>
        <time>2021-10-02T14:03:33Z</time>
      </trkpt>
      <trkpt lat="44.44458" lon="1.41549">
        <ele>261.3</ele>
        <time>2021-10-02T14:03:35Z</time>
      </trkpt>
      <trkpt lat="44.44459" lon="1.41558">
        <ele>260.8</ele>
        <time>2021-10-02T14:03:36Z</time>
      </trkpt>
      <trkpt lat="44.44462" lon="1.41578">
        <ele>259.7</ele>
        <time>2021-10-02T14:03:38Z</time>
      </trkpt>
      <trkpt lat="44.44464" lon="1.41589">
        <ele>259.2</ele>
        <time>2021-10-02T14:03:39Z</time>
      </trkpt>
      <trkpt lat="44.44465" lon="1.416">
        <ele>258.8</ele>
        <time>2021-10-02T14:03:40Z</time>
      </trkpt>
      <trkpt lat="44.44469" lon="1.41621">
        <ele>258.1</ele>
        <time>2021-10-02T14:03:42Z</time>
      </trkpt>
      <trkpt lat="44.44471" lon="1.41633">
        <ele>257.9</ele>
        <time>2021-10-02T14:03:43Z</time>
      </trkpt>
      <trkpt lat="44.44473" lon="1.41644">
        <ele>257.8</ele>
        <time>2021-10-02T14:03:44Z</time>
      </trkpt>
      <trkpt lat="44.44477" lon="1.41666">
        <ele>257.5</ele>
        <time>2021-10-02T14:03:46Z</time>
      </trkpt>
      <trkpt lat="44.44478" lon="1.41677">
        <ele>257.4</ele>
        <time>2021-10-02T14:03:47Z</time>
      </trkpt>
      <trkpt lat="44.4448" lon="1.41687">
        <ele>257.3</ele>
        <time>2021-10-02T14:03:48Z</time>
      </trkpt>
      <trkpt lat="44.44484" lon="1.41707">
        <ele>257.3</ele>
        <time>2021-10-02T14:03:50Z</time>
      </trkpt>
      <trkpt lat="44.44487" lon="1.41717">
        <ele>257.3</ele>
        <time>2021-10-02T14:03:51Z</time>
      </trkpt>
      <trkpt lat="44.44491" lon="1.41735">
        <ele>257.5</ele>
        <time>2021-10-02T14:03:53Z</time>
      </trkpt>
      <trkpt lat="44.44493" lon="1.41745">
        <ele>257.6</ele>
        <time>2021-10-02T14:03:54Z</time>
      </trkpt>
      <trkpt lat="44.44492" lon="1.4176">
        <ele>257.8</ele>
        <time>2021-10-02T14:03:56Z</time>
      </trkpt>
      <trkpt lat="44.44486" lon="1.41771">
        <ele>258.5</ele>
        <time>2021-10-02T14:03:58Z</time>
      </trkpt>
      <trkpt lat="44.44483" lon="1.41775">
        <ele>258.6</ele>
        <time>2021-10-02T14:03:59Z</time>
      </trkpt>
      <trkpt lat="44.44481" lon="1.4178">
        <ele>258.9</ele>
        <time>2021-10-02T14:04:00Z</time>
      </trkpt>
      <trkpt lat="44.4448" lon="1.41782">
        <ele>258.9</ele>
        <time>2021-10-02T14:04:01Z</time>
      </trkpt>
      <trkpt lat="44.44475" lon="1.4179">
        <ele>259.2</ele>
        <time>2021-10-02T14:04:03Z</time>
      </trkpt>
      <trkpt lat="44.44471" lon="1.41795">
        <ele>259.3</ele>
        <time>2021-10-02T14:04:05Z</time>
      </trkpt>
      <trkpt lat="44.44468" lon="1.41798">
        <ele>259.4</ele>
        <time>2021-10-02T14:04:06Z</time>
      </trkpt>
      <trkpt lat="44.44465" lon="1.41802">
        <ele>259.5</ele>
        <time>2021-10-02T14:04:07Z</time>
      </trkpt>
      <trkpt lat="44.44462" lon="1.41805">
        <ele>259.5</ele>
        <time>2021-10-02T14:04:08Z</time>
      </trkpt>
      <trkpt lat="44.44458" lon="1.41811">
        <ele>259.7</ele>
        <time>2021-10-02T14:04:10Z</time>
      </trkpt>
      <trkpt lat="44.44455" lon="1.41814">
        <ele>259.7</ele>
        <time>2021-10-02T14:04:11Z</time>
      </trkpt>
      <trkpt lat="44.44453" lon="1.41817">
        <ele>259.9</ele>
        <time>2021-10-02T14:04:12Z</time>
      </trkpt>
      <trkpt lat="44.44451" lon="1.4182">
        <ele>260</ele>
        <time>2021-10-02T14:04:13Z</time>
      </trkpt>
      <trkpt lat="44.44448" lon="1.41823">
        <ele>260</ele>
        <time>2021-10-02T14:04:14Z</time>
      </trkpt>
      <trkpt lat="44.44445" lon="1.41827">
        <ele>260.1</ele>
        <time>2021-10-02T14:04:16Z</time>
      </trkpt>
      <trkpt lat="44.44441" lon="1.41835">
        <ele>260.1</ele>
        <time>2021-10-02T14:04:18Z</time>
      </trkpt>
      <trkpt lat="44.44439" lon="1.4184">
        <ele>260.1</ele>
        <time>2021-10-02T14:04:19Z</time>
      </trkpt>
      <trkpt lat="44.44438" lon="1.41845">
        <ele>260</ele>
        <time>2021-10-02T14:04:20Z</time>
      </trkpt>
      <trkpt lat="44.44436" lon="1.41851">
        <ele>260</ele>
        <time>2021-10-02T14:04:21Z</time>
      </trkpt>
      <trkpt lat="44.44434" lon="1.41857">
        <ele>259.8</ele>
        <time>2021-10-02T14:04:23Z</time>
      </trkpt>
      <trkpt lat="44.44433" lon="1.41862">
        <ele>259.7</ele>
        <time>2021-10-02T14:04:24Z</time>
      </trkpt>
      <trkpt lat="44.44431" lon="1.4187">
        <ele>259.6</ele>
        <time>2021-10-02T14:04:25Z</time>
      </trkpt>
      <trkpt lat="44.44431" lon="1.41875">
        <ele>259.5</ele>
        <time>2021-10-02T14:04:27Z</time>
      </trkpt>
      <trkpt lat="44.44431" lon="1.41888">
        <ele>259.4</ele>
        <time>2021-10-02T14:04:29Z</time>
      </trkpt>
      <trkpt lat="44.44429" lon="1.41898">
        <ele>259.4</ele>
        <time>2021-10-02T14:04:30Z</time>
      </trkpt>
      <trkpt lat="44.44428" lon="1.41905">
        <ele>259</ele>
        <time>2021-10-02T14:04:32Z</time>
      </trkpt>
      <trkpt lat="44.44429" lon="1.41913">
        <ele>258.9</ele>
        <time>2021-10-02T14:04:33Z</time>
      </trkpt>
      <trkpt lat="44.4443" lon="1.41919">
        <ele>258.7</ele>
        <time>2021-10-02T14:04:34Z</time>
      </trkpt>
      <trkpt lat="44.44431" lon="1.41925">
        <ele>258.5</ele>
        <time>2021-10-02T14:04:35Z</time>
      </trkpt>
      <trkpt lat="44.44431" lon="1.41931">
        <ele>258</ele>
        <time>2021-10-02T14:04:36Z</time>
      </trkpt>
      <trkpt lat="44.44432" lon="1.41939">
        <ele>257.3</ele>
        <time>2021-10-02T14:04:38Z</time>
      </trkpt>
      <trkpt lat="44.44432" lon="1.41943">
        <ele>256.8</ele>
        <time>2021-10-02T14:04:39Z</time>
      </trkpt>
      <trkpt lat="44.44432" lon="1.41942">
        <ele>257.2</ele>
        <time>2021-10-02T14:04:40Z</time>
      </trkpt>
      <trkpt lat="44.44431" lon="1.41945">
        <ele>256.8</ele>
        <time>2021-10-02T14:04:42Z</time>
      </trkpt>
      <trkpt lat="44.44428" lon="1.4195">
        <ele>256.4</ele>
        <time>2021-10-02T14:04:44Z</time>
      </trkpt>
      <trkpt lat="44.44425" lon="1.41952">
        <ele>256</ele>
        <time>2021-10-02T14:04:45Z</time>
      </trkpt>
      <trkpt lat="44.44423" lon="1.41956">
        <ele>255.6</ele>
        <time>2021-10-02T14:04:46Z</time>
      </trkpt>
      <trkpt lat="44.44421" lon="1.41959">
        <ele>255.6</ele>
        <time>2021-10-02T14:04:48Z</time>
      </trkpt>
      <trkpt lat="44.44421" lon="1.4196">
        <ele>255.2</ele>
        <time>2021-10-02T14:04:49Z</time>
      </trkpt>
      <trkpt lat="44.44419" lon="1.41965">
        <ele>254.8</ele>
        <time>2021-10-02T14:04:50Z</time>
      </trkpt>
      <trkpt lat="44.44419" lon="1.41967">
        <ele>254.8</ele>
        <time>2021-10-02T14:04:51Z</time>
      </trkpt>
      <trkpt lat="44.44417" lon="1.41974">
        <ele>253.9</ele>
        <time>2021-10-02T14:04:52Z</time>
      </trkpt>
      <trkpt lat="44.44414" lon="1.41979">
        <ele>253.4</ele>
        <time>2021-10-02T14:04:54Z</time>
      </trkpt>
      <trkpt lat="44.44409" lon="1.41989">
        <ele>252.3</ele>
        <time>2021-10-02T14:04:56Z</time>
      </trkpt>
      <trkpt lat="44.44408" lon="1.41993">
        <ele>251.7</ele>
        <time>2021-10-02T14:04:57Z</time>
      </trkpt>
      <trkpt lat="44.44404" lon="1.42003">
        <ele>249.5</ele>
        <time>2021-10-02T14:04:59Z</time>
      </trkpt>
      <trkpt lat="44.44402" lon="1.42006">
        <ele>249.5</ele>
        <time>2021-10-02T14:05:00Z</time>
      </trkpt>
      <trkpt lat="44.44397" lon="1.42014">
        <ele>247.9</ele>
        <time>2021-10-02T14:05:01Z</time>
      </trkpt>
      <trkpt lat="44.44394" lon="1.42021">
        <ele>246.2</ele>
        <time>2021-10-02T14:05:03Z</time>
      </trkpt>
      <trkpt lat="44.44391" lon="1.4203">
        <ele>244.2</ele>
        <time>2021-10-02T14:05:04Z</time>
      </trkpt>
      <trkpt lat="44.44389" lon="1.42035">
        <ele>243.2</ele>
        <time>2021-10-02T14:05:06Z</time>
      </trkpt>
      <trkpt lat="44.44389" lon="1.42036">
        <ele>243</ele>
        <time>2021-10-02T14:05:07Z</time>
      </trkpt>
      <trkpt lat="44.44388" lon="1.42038">
        <ele>242</ele>
        <time>2021-10-02T14:05:08Z</time>
      </trkpt>
      <trkpt lat="44.44386" lon="1.42042">
        <ele>241</ele>
        <time>2021-10-02T14:05:10Z</time>
      </trkpt>
      <trkpt lat="44.44385" lon="1.42043">
        <ele>240.8</ele>
        <time>2021-10-02T14:05:11Z</time>
      </trkpt>
      <trkpt lat="44.44383" lon="1.42048">
        <ele>239.8</ele>
        <time>2021-10-02T14:05:12Z</time>
      </trkpt>
      <trkpt lat="44.44382" lon="1.42051">
        <ele>238.5</ele>
        <time>2021-10-02T14:05:13Z</time>
      </trkpt>
      <trkpt lat="44.4438" lon="1.42057">
        <ele>237.3</ele>
        <time>2021-10-02T14:05:14Z</time>
      </trkpt>
      <trkpt lat="44.44378" lon="1.42066">
        <ele>235.3</ele>
        <time>2021-10-02T14:05:16Z</time>
      </trkpt>
      <trkpt lat="44.44378" lon="1.42071">
        <ele>234.3</ele>
        <time>2021-10-02T14:05:17Z</time>
      </trkpt>
      <trkpt lat="44.44378" lon="1.42076">
        <ele>232.2</ele>
        <time>2021-10-02T14:05:18Z</time>
      </trkpt>
      <trkpt lat="44.44379" lon="1.42082">
        <ele>231</ele>
        <time>2021-10-02T14:05:20Z</time>
      </trkpt>
      <trkpt lat="44.44379" lon="1.42084">
        <ele>231</ele>
        <time>2021-10-02T14:05:21Z</time>
      </trkpt>
      <trkpt lat="44.44379" lon="1.42088">
        <ele>229.8</ele>
        <time>2021-10-02T14:05:22Z</time>
      </trkpt>
      <trkpt lat="44.4438" lon="1.42094">
        <ele>227.4</ele>
        <time>2021-10-02T14:05:24Z</time>
      </trkpt>
      <trkpt lat="44.44378" lon="1.42098">
        <ele>226.2</ele>
        <time>2021-10-02T14:05:25Z</time>
      </trkpt>
      <trkpt lat="44.44376" lon="1.42101">
        <ele>226.2</ele>
        <time>2021-10-02T14:05:26Z</time>
      </trkpt>
      <trkpt lat="44.44374" lon="1.42104">
        <ele>225.1</ele>
        <time>2021-10-02T14:05:28Z</time>
      </trkpt>
      <trkpt lat="44.44374" lon="1.42108">
        <ele>224</ele>
        <time>2021-10-02T14:05:29Z</time>
      </trkpt>
      <trkpt lat="44.44373" lon="1.42115">
        <ele>221.7</ele>
        <time>2021-10-02T14:05:30Z</time>
      </trkpt>
      <trkpt lat="44.44373" lon="1.4212">
        <ele>220.5</ele>
        <time>2021-10-02T14:05:31Z</time>
      </trkpt>
      <trkpt lat="44.44372" lon="1.42124">
        <ele>219.2</ele>
        <time>2021-10-02T14:05:33Z</time>
      </trkpt>
      <trkpt lat="44.44372" lon="1.42128">
        <ele>218</ele>
        <time>2021-10-02T14:05:34Z</time>
      </trkpt>
      <trkpt lat="44.44371" lon="1.42132">
        <ele>216.7</ele>
        <time>2021-10-02T14:05:36Z</time>
      </trkpt>
      <trkpt lat="44.44371" lon="1.42136">
        <ele>215.4</ele>
        <time>2021-10-02T14:05:37Z</time>
      </trkpt>
      <trkpt lat="44.44371" lon="1.42137">
        <ele>215.4</ele>
        <time>2021-10-02T14:05:39Z</time>
      </trkpt>
      <trkpt lat="44.44371" lon="1.42138">
        <ele>215.4</ele>
        <time>2021-10-02T14:05:40Z</time>
      </trkpt>
      <trkpt lat="44.4437" lon="1.4214">
        <ele>215.4</ele>
        <time>2021-10-02T14:05:41Z</time>
      </trkpt>
      <trkpt lat="44.4437" lon="1.42141">
        <ele>214.2</ele>
        <time>2021-10-02T14:05:42Z</time>
      </trkpt>
      <trkpt lat="44.4437" lon="1.42143">
        <ele>214.2</ele>
        <time>2021-10-02T14:05:44Z</time>
      </trkpt>
      <trkpt lat="44.44369" lon="1.42145">
        <ele>213</ele>
        <time>2021-10-02T14:05:45Z</time>
      </trkpt>
      <trkpt lat="44.44367" lon="1.42149">
        <ele>212</ele>
        <time>2021-10-02T14:05:46Z</time>
      </trkpt>
      <trkpt lat="44.44366" lon="1.4215">
        <ele>212</ele>
        <time>2021-10-02T14:05:47Z</time>
      </trkpt>
      <trkpt lat="44.44364" lon="1.42154">
        <ele>211</ele>
        <time>2021-10-02T14:05:48Z</time>
      </trkpt>
      <trkpt lat="44.44363" lon="1.42158">
        <ele>210</ele>
        <time>2021-10-02T14:05:50Z</time>
      </trkpt>
      <trkpt lat="44.44362" lon="1.4216">
        <ele>210</ele>
        <time>2021-10-02T14:05:51Z</time>
      </trkpt>
      <trkpt lat="44.44362" lon="1.42165">
        <ele>209</ele>
        <time>2021-10-02T14:05:52Z</time>
      </trkpt>
      <trkpt lat="44.44362" lon="1.42166">
        <ele>208</ele>
        <time>2021-10-02T14:05:53Z</time>
      </trkpt>
      <trkpt lat="44.44363" lon="1.42169">
        <ele>208</ele>
        <time>2021-10-02T14:05:54Z</time>
      </trkpt>
      <trkpt lat="44.44362" lon="1.42173">
        <ele>207</ele>
        <time>2021-10-02T14:05:56Z</time>
      </trkpt>
      <trkpt lat="44.44363" lon="1.42179">
        <ele>205.3</ele>
        <time>2021-10-02T14:05:57Z</time>
      </trkpt>
      <trkpt lat="44.44364" lon="1.42184">
        <ele>204.5</ele>
        <time>2021-10-02T14:05:59Z</time>
      </trkpt>
      <trkpt lat="44.44364" lon="1.42186">
        <ele>204.5</ele>
        <time>2021-10-02T14:06:00Z</time>
      </trkpt>
      <trkpt lat="44.44365" lon="1.42191">
        <ele>203.7</ele>
        <time>2021-10-02T14:06:01Z</time>
      </trkpt>
      <trkpt lat="44.44365" lon="1.422">
        <ele>202.4</ele>
        <time>2021-10-02T14:06:02Z</time>
      </trkpt>
      <trkpt lat="44.44365" lon="1.42206">
        <ele>201.3</ele>
        <time>2021-10-02T14:06:03Z</time>
      </trkpt>
      <trkpt lat="44.44364" lon="1.42211">
        <ele>200.8</ele>
        <time>2021-10-02T14:06:05Z</time>
      </trkpt>
      <trkpt lat="44.44364" lon="1.42216">
        <ele>200.4</ele>
        <time>2021-10-02T14:06:06Z</time>
      </trkpt>
      <trkpt lat="44.44365" lon="1.42222">
        <ele>199.6</ele>
        <time>2021-10-02T14:06:08Z</time>
      </trkpt>
      <trkpt lat="44.44366" lon="1.42231">
        <ele>198.9</ele>
        <time>2021-10-02T14:06:09Z</time>
      </trkpt>
      <trkpt lat="44.44366" lon="1.42236">
        <ele>198.6</ele>
        <time>2021-10-02T14:06:11Z</time>
      </trkpt>
      <trkpt lat="44.44365" lon="1.42242">
        <ele>198.4</ele>
        <time>2021-10-02T14:06:12Z</time>
      </trkpt>
      <trkpt lat="44.44365" lon="1.42246">
        <ele>198.1</ele>
        <time>2021-10-02T14:06:13Z</time>
      </trkpt>
      <trkpt lat="44.44365" lon="1.4225">
        <ele>197.8</ele>
        <time>2021-10-02T14:06:14Z</time>
      </trkpt>
      <trkpt lat="44.44365" lon="1.42253">
        <ele>197.5</ele>
        <time>2021-10-02T14:06:15Z</time>
      </trkpt>
      <trkpt lat="44.44364" lon="1.42256">
        <ele>196.9</ele>
        <time>2021-10-02T14:06:17Z</time>
      </trkpt>
      <trkpt lat="44.44364" lon="1.42261">
        <ele>196.5</ele>
        <time>2021-10-02T14:06:18Z</time>
      </trkpt>
      <trkpt lat="44.44364" lon="1.42262">
        <ele>196.5</ele>
        <time>2021-10-02T14:06:19Z</time>
      </trkpt>
      <trkpt lat="44.44363" lon="1.42267">
        <ele>196.1</ele>
        <time>2021-10-02T14:06:21Z</time>
      </trkpt>
      <trkpt lat="44.44364" lon="1.42268">
        <ele>196.1</ele>
        <time>2021-10-02T14:06:22Z</time>
      </trkpt>
      <trkpt lat="44.44363" lon="1.42271">
        <ele>195.7</ele>
        <time>2021-10-02T14:06:23Z</time>
      </trkpt>
      <trkpt lat="44.44364" lon="1.42274">
        <ele>195.3</ele>
        <time>2021-10-02T14:06:25Z</time>
      </trkpt>
      <trkpt lat="44.44366" lon="1.42278">
        <ele>195.3</ele>
        <time>2021-10-02T14:06:26Z</time>
      </trkpt>
      <trkpt lat="44.44367" lon="1.42279">
        <ele>195.2</ele>
        <time>2021-10-02T14:06:27Z</time>
      </trkpt>
      <trkpt lat="44.44368" lon="1.42283">
        <ele>195.2</ele>
        <time>2021-10-02T14:06:29Z</time>
      </trkpt>
      <trkpt lat="44.44369" lon="1.42285">
        <ele>195.2</ele>
        <time>2021-10-02T14:06:30Z</time>
      </trkpt>
      <trkpt lat="44.44371" lon="1.42286">
        <ele>194.8</ele>
        <time>2021-10-02T14:06:31Z</time>
      </trkpt>
      <trkpt lat="44.44371" lon="1.42286">
        <ele>194.8</ele>
        <time>2021-10-02T14:06:33Z</time>
      </trkpt>
      <trkpt lat="44.44371" lon="1.42286">
        <ele>195.1</ele>
        <time>2021-10-02T14:06:34Z</time>
      </trkpt>
      <trkpt lat="44.44371" lon="1.42286">
        <ele>195.4</ele>
        <time>2021-10-02T14:06:35Z</time>
      </trkpt>
      <trkpt lat="44.44371" lon="1.42286">
        <ele>195.4</ele>
        <time>2021-10-02T14:06:37Z</time>
      </trkpt>
      <trkpt lat="44.44371" lon="1.42286">
        <ele>195.3</ele>
        <time>2021-10-02T14:06:39Z</time>
      </trkpt>
      <trkpt lat="44.44372" lon="1.42285">
        <ele>195.3</ele>
        <time>2021-10-02T14:06:40Z</time>
      </trkpt>
      <trkpt lat="44.44375" lon="1.42281">
        <ele>195.9</ele>
        <time>2021-10-02T14:08:45Z</time>
      </trkpt>
      <trkpt lat="44.44378" lon="1.42274">
        <ele>196.4</ele>
        <time>2021-10-02T14:08:47Z</time>
      </trkpt>
      <trkpt lat="44.44383" lon="1.42264">
        <ele>197.5</ele>
        <time>2021-10-02T14:08:48Z</time>
      </trkpt>
      <trkpt lat="44.44387" lon="1.42257">
        <ele>198.1</ele>
        <time>2021-10-02T14:08:49Z</time>
      </trkpt>
      <trkpt lat="44.44393" lon="1.42245">
        <ele>199.1</ele>
        <time>2021-10-02T14:08:51Z</time>
      </trkpt>
      <trkpt lat="44.44396" lon="1.42238">
        <ele>199.7</ele>
        <time>2021-10-02T14:08:52Z</time>
      </trkpt>
      <trkpt lat="44.44403" lon="1.42227">
        <ele>200.6</ele>
        <time>2021-10-02T14:08:54Z</time>
      </trkpt>
      <trkpt lat="44.44406" lon="1.42222">
        <ele>201.2</ele>
        <time>2021-10-02T14:08:55Z</time>
      </trkpt>
      <trkpt lat="44.44411" lon="1.42213">
        <ele>202.3</ele>
        <time>2021-10-02T14:08:57Z</time>
      </trkpt>
      <trkpt lat="44.44417" lon="1.42204">
        <ele>203.6</ele>
        <time>2021-10-02T14:08:59Z</time>
      </trkpt>
      <trkpt lat="44.44422" lon="1.42196">
        <ele>204.9</ele>
        <time>2021-10-02T14:09:00Z</time>
      </trkpt>
      <trkpt lat="44.44425" lon="1.4219">
        <ele>205.6</ele>
        <time>2021-10-02T14:09:01Z</time>
      </trkpt>
      <trkpt lat="44.44428" lon="1.42186">
        <ele>206.2</ele>
        <time>2021-10-02T14:09:03Z</time>
      </trkpt>
      <trkpt lat="44.44433" lon="1.42178">
        <ele>207.5</ele>
        <time>2021-10-02T14:09:04Z</time>
      </trkpt>
      <trkpt lat="44.44435" lon="1.42173">
        <ele>208.1</ele>
        <time>2021-10-02T14:09:06Z</time>
      </trkpt>
      <trkpt lat="44.44438" lon="1.4217">
        <ele>208.2</ele>
        <time>2021-10-02T14:09:07Z</time>
      </trkpt>
      <trkpt lat="44.44439" lon="1.42169">
        <ele>208.9</ele>
        <time>2021-10-02T14:09:08Z</time>
      </trkpt>
      <trkpt lat="44.44441" lon="1.42167">
        <ele>208.9</ele>
        <time>2021-10-02T14:09:09Z</time>
      </trkpt>
      <trkpt lat="44.44444" lon="1.42163">
        <ele>209.6</ele>
        <time>2021-10-02T14:09:11Z</time>
      </trkpt>
      <trkpt lat="44.44446" lon="1.42161">
        <ele>210.4</ele>
        <time>2021-10-02T14:09:12Z</time>
      </trkpt>
      <trkpt lat="44.44447" lon="1.4216">
        <ele>210.4</ele>
        <time>2021-10-02T14:09:13Z</time>
      </trkpt>
      <trkpt lat="44.4445" lon="1.42157">
        <ele>211.2</ele>
        <time>2021-10-02T14:09:14Z</time>
      </trkpt>
      <trkpt lat="44.44451" lon="1.42156">
        <ele>211.3</ele>
        <time>2021-10-02T14:09:15Z</time>
      </trkpt>
      <trkpt lat="44.44454" lon="1.42152">
        <ele>212.1</ele>
        <time>2021-10-02T14:09:17Z</time>
      </trkpt>
      <trkpt lat="44.44455" lon="1.4215">
        <ele>212.1</ele>
        <time>2021-10-02T14:09:18Z</time>
      </trkpt>
      <trkpt lat="44.44457" lon="1.42147">
        <ele>213</ele>
        <time>2021-10-02T14:09:19Z</time>
      </trkpt>
      <trkpt lat="44.4446" lon="1.42143">
        <ele>213.7</ele>
        <time>2021-10-02T14:09:21Z</time>
      </trkpt>
      <trkpt lat="44.44461" lon="1.42141">
        <ele>213.9</ele>
        <time>2021-10-02T14:09:22Z</time>
      </trkpt>
      <trkpt lat="44.44464" lon="1.42136">
        <ele>214.9</ele>
        <time>2021-10-02T14:09:24Z</time>
      </trkpt>
      <trkpt lat="44.44465" lon="1.42135">
        <ele>215.8</ele>
        <time>2021-10-02T14:09:25Z</time>
      </trkpt>
      <trkpt lat="44.44466" lon="1.42133">
        <ele>216</ele>
        <time>2021-10-02T14:09:26Z</time>
      </trkpt>
      <trkpt lat="44.44469" lon="1.4213">
        <ele>216.8</ele>
        <time>2021-10-02T14:09:27Z</time>
      </trkpt>
      <trkpt lat="44.44472" lon="1.42126">
        <ele>217.9</ele>
        <time>2021-10-02T14:09:29Z</time>
      </trkpt>
      <trkpt lat="44.44473" lon="1.42125">
        <ele>218.1</ele>
        <time>2021-10-02T14:09:30Z</time>
      </trkpt>
      <trkpt lat="44.44476" lon="1.42121">
        <ele>219.2</ele>
        <time>2021-10-02T14:09:32Z</time>
      </trkpt>
      <trkpt lat="44.44478" lon="1.4212">
        <ele>219.2</ele>
        <time>2021-10-02T14:09:33Z</time>
      </trkpt>
      <trkpt lat="44.4448" lon="1.42118">
        <ele>220.2</ele>
        <time>2021-10-02T14:09:34Z</time>
      </trkpt>
      <trkpt lat="44.44483" lon="1.42115">
        <ele>220.5</ele>
        <time>2021-10-02T14:09:36Z</time>
      </trkpt>
      <trkpt lat="44.44484" lon="1.42114">
        <ele>221.3</ele>
        <time>2021-10-02T14:09:37Z</time>
      </trkpt>
      <trkpt lat="44.44486" lon="1.42112">
        <ele>221.6</ele>
        <time>2021-10-02T14:09:38Z</time>
      </trkpt>
      <trkpt lat="44.44489" lon="1.42112">
        <ele>222</ele>
        <time>2021-10-02T14:09:40Z</time>
      </trkpt>
      <trkpt lat="44.44491" lon="1.42111">
        <ele>222.4</ele>
        <time>2021-10-02T14:09:41Z</time>
      </trkpt>
      <trkpt lat="44.44492" lon="1.42111">
        <ele>222.4</ele>
        <time>2021-10-02T14:09:42Z</time>
      </trkpt>
      <trkpt lat="44.44494" lon="1.42112">
        <ele>222.8</ele>
        <time>2021-10-02T14:09:44Z</time>
      </trkpt>
      <trkpt lat="44.44495" lon="1.42112">
        <ele>222.8</ele>
        <time>2021-10-02T14:09:45Z</time>
      </trkpt>
      <trkpt lat="44.44498" lon="1.42112">
        <ele>223.3</ele>
        <time>2021-10-02T14:09:46Z</time>
      </trkpt>
      <trkpt lat="44.44499" lon="1.42112">
        <ele>223.3</ele>
        <time>2021-10-02T14:09:47Z</time>
      </trkpt>
      <trkpt lat="44.44502" lon="1.42114">
        <ele>223.2</ele>
        <time>2021-10-02T14:09:49Z</time>
      </trkpt>
      <trkpt lat="44.44502" lon="1.42115">
        <ele>223.2</ele>
        <time>2021-10-02T14:09:50Z</time>
      </trkpt>
      <trkpt lat="44.44504" lon="1.42117">
        <ele>223.8</ele>
        <time>2021-10-02T14:09:51Z</time>
      </trkpt>
      <trkpt lat="44.44505" lon="1.42118">
        <ele>223.8</ele>
        <time>2021-10-02T14:09:52Z</time>
      </trkpt>
      <trkpt lat="44.44506" lon="1.4212">
        <ele>223.7</ele>
        <time>2021-10-02T14:09:54Z</time>
      </trkpt>
      <trkpt lat="44.44507" lon="1.42121">
        <ele>223.7</ele>
        <time>2021-10-02T14:09:55Z</time>
      </trkpt>
      <trkpt lat="44.44508" lon="1.42123">
        <ele>223.7</ele>
        <time>2021-10-02T14:09:56Z</time>
      </trkpt>
      <trkpt lat="44.44509" lon="1.42125">
        <ele>223.7</ele>
        <time>2021-10-02T14:09:57Z</time>
      </trkpt>
      <trkpt lat="44.4451" lon="1.42127">
        <ele>223.6</ele>
        <time>2021-10-02T14:09:58Z</time>
      </trkpt>
      <trkpt lat="44.4451" lon="1.42129">
        <ele>223.4</ele>
        <time>2021-10-02T14:09:59Z</time>
      </trkpt>
      <trkpt lat="44.44511" lon="1.42132">
        <ele>223.2</ele>
        <time>2021-10-02T14:10:01Z</time>
      </trkpt>
      <trkpt lat="44.44512" lon="1.42133">
        <ele>223.1</ele>
        <time>2021-10-02T14:10:02Z</time>
      </trkpt>
      <trkpt lat="44.44512" lon="1.42134">
        <ele>223</ele>
        <time>2021-10-02T14:10:03Z</time>
      </trkpt>
      <trkpt lat="44.44512" lon="1.42135">
        <ele>222.9</ele>
        <time>2021-10-02T14:10:04Z</time>
      </trkpt>
      <trkpt lat="44.44513" lon="1.42136">
        <ele>222.8</ele>
        <time>2021-10-02T14:10:05Z</time>
      </trkpt>
      <trkpt lat="44.44514" lon="1.42138">
        <ele>222.6</ele>
        <time>2021-10-02T14:10:07Z</time>
      </trkpt>
      <trkpt lat="44.44515" lon="1.42142">
        <ele>222.3</ele>
        <time>2021-10-02T14:10:08Z</time>
      </trkpt>
      <trkpt lat="44.44516" lon="1.42143">
        <ele>222.2</ele>
        <time>2021-10-02T14:10:10Z</time>
      </trkpt>
      <trkpt lat="44.44517" lon="1.42146">
        <ele>222</ele>
        <time>2021-10-02T14:10:12Z</time>
      </trkpt>
      <trkpt lat="44.44517" lon="1.42146">
        <ele>221.9</ele>
        <time>2021-10-02T14:10:14Z</time>
      </trkpt>
      <trkpt lat="44.44519" lon="1.42147">
        <ele>221.7</ele>
        <time>2021-10-02T14:10:16Z</time>
      </trkpt>
      <trkpt lat="44.4452" lon="1.4215">
        <ele>221.5</ele>
        <time>2021-10-02T14:10:17Z</time>
      </trkpt>
      <trkpt lat="44.44521" lon="1.42153">
        <ele>221.2</ele>
        <time>2021-10-02T14:10:19Z</time>
      </trkpt>
      <trkpt lat="44.44521" lon="1.42159">
        <ele>220.8</ele>
        <time>2021-10-02T14:10:21Z</time>
      </trkpt>
      <trkpt lat="44.44519" lon="1.42169">
        <ele>220</ele>
        <time>2021-10-02T14:10:23Z</time>
      </trkpt>
      <trkpt lat="44.44517" lon="1.42176">
        <ele>219.5</ele>
        <time>2021-10-02T14:10:24Z</time>
      </trkpt>
      <trkpt lat="44.44517" lon="1.42185">
        <ele>219</ele>
        <time>2021-10-02T14:10:25Z</time>
      </trkpt>
      <trkpt lat="44.44517" lon="1.42192">
        <ele>218.7</ele>
        <time>2021-10-02T14:10:26Z</time>
      </trkpt>
      <trkpt lat="44.44517" lon="1.42199">
        <ele>218.7</ele>
        <time>2021-10-02T14:10:27Z</time>
      </trkpt>
      <trkpt lat="44.44518" lon="1.42203">
        <ele>218.8</ele>
        <time>2021-10-02T14:10:28Z</time>
      </trkpt>
      <trkpt lat="44.44518" lon="1.42209">
        <ele>219</ele>
        <time>2021-10-02T14:10:29Z</time>
      </trkpt>
      <trkpt lat="44.44518" lon="1.42213">
        <ele>219.2</ele>
        <time>2021-10-02T14:10:30Z</time>
      </trkpt>
      <trkpt lat="44.44518" lon="1.42217">
        <ele>219.5</ele>
        <time>2021-10-02T14:10:31Z</time>
      </trkpt>
      <trkpt lat="44.44519" lon="1.42222">
        <ele>220</ele>
        <time>2021-10-02T14:10:33Z</time>
      </trkpt>
      <trkpt lat="44.4452" lon="1.42229">
        <ele>220.5</ele>
        <time>2021-10-02T14:10:34Z</time>
      </trkpt>
      <trkpt lat="44.4452" lon="1.42233">
        <ele>220.9</ele>
        <time>2021-10-02T14:10:36Z</time>
      </trkpt>
      <trkpt lat="44.4452" lon="1.42238">
        <ele>221.3</ele>
        <time>2021-10-02T14:10:37Z</time>
      </trkpt>
      <trkpt lat="44.4452" lon="1.42244">
        <ele>221.7</ele>
        <time>2021-10-02T14:10:39Z</time>
      </trkpt>
      <trkpt lat="44.4452" lon="1.42247">
        <ele>221.9</ele>
        <time>2021-10-02T14:10:40Z</time>
      </trkpt>
      <trkpt lat="44.4452" lon="1.42251">
        <ele>222.2</ele>
        <time>2021-10-02T14:10:42Z</time>
      </trkpt>
      <trkpt lat="44.4452" lon="1.42256">
        <ele>222.5</ele>
        <time>2021-10-02T14:10:44Z</time>
      </trkpt>
      <trkpt lat="44.44521" lon="1.42258">
        <ele>222.7</ele>
        <time>2021-10-02T14:10:45Z</time>
      </trkpt>
      <trkpt lat="44.44521" lon="1.42261">
        <ele>222.9</ele>
        <time>2021-10-02T14:10:47Z</time>
      </trkpt>
      <trkpt lat="44.4452" lon="1.42263">
        <ele>223.1</ele>
        <time>2021-10-02T14:10:48Z</time>
      </trkpt>
      <trkpt lat="44.4452" lon="1.42265">
        <ele>222.9</ele>
        <time>2021-10-02T14:10:50Z</time>
      </trkpt>
      <trkpt lat="44.44519" lon="1.42267">
        <ele>222.7</ele>
        <time>2021-10-02T14:10:52Z</time>
      </trkpt>
      <trkpt lat="44.44519" lon="1.42268">
        <ele>222.4</ele>
        <time>2021-10-02T14:10:54Z</time>
      </trkpt>
      <trkpt lat="44.44519" lon="1.4227">
        <ele>222.2</ele>
        <time>2021-10-02T14:10:56Z</time>
      </trkpt>
      <trkpt lat="44.44518" lon="1.42272">
        <ele>221.9</ele>
        <time>2021-10-02T14:10:57Z</time>
      </trkpt>
      <trkpt lat="44.44518" lon="1.42274">
        <ele>221.7</ele>
        <time>2021-10-02T14:11:53Z</time>
      </trkpt>
      <trkpt lat="44.44517" lon="1.42275">
        <ele>221.4</ele>
        <time>2021-10-02T14:11:54Z</time>
      </trkpt>
      <trkpt lat="44.44515" lon="1.42287">
        <ele>219.8</ele>
        <time>2021-10-02T14:11:56Z</time>
      </trkpt>
      <trkpt lat="44.44516" lon="1.42306">
        <ele>217.6</ele>
        <time>2021-10-02T14:11:58Z</time>
      </trkpt>
      <trkpt lat="44.44517" lon="1.42325">
        <ele>215.2</ele>
        <time>2021-10-02T14:12:00Z</time>
      </trkpt>
      <trkpt lat="44.44519" lon="1.42345">
        <ele>212.4</ele>
        <time>2021-10-02T14:12:02Z</time>
      </trkpt>
      <trkpt lat="44.4452" lon="1.42357">
        <ele>210.8</ele>
        <time>2021-10-02T14:12:03Z</time>
      </trkpt>
      <trkpt lat="44.44522" lon="1.42381">
        <ele>207.6</ele>
        <time>2021-10-02T14:12:05Z</time>
      </trkpt>
      <trkpt lat="44.44522" lon="1.42403">
        <ele>204.8</ele>
        <time>2021-10-02T14:12:07Z</time>
      </trkpt>
      <trkpt lat="44.4452" lon="1.42426">
        <ele>202</ele>
        <time>2021-10-02T14:12:09Z</time>
      </trkpt>
      <trkpt lat="44.44518" lon="1.42439">
        <ele>200.7</ele>
        <time>2021-10-02T14:12:10Z</time>
      </trkpt>
      <trkpt lat="44.44517" lon="1.42451">
        <ele>199.3</ele>
        <time>2021-10-02T14:12:11Z</time>
      </trkpt>
      <trkpt lat="44.44515" lon="1.42463">
        <ele>198</ele>
        <time>2021-10-02T14:12:12Z</time>
      </trkpt>
      <trkpt lat="44.44511" lon="1.42485">
        <ele>195.6</ele>
        <time>2021-10-02T14:12:14Z</time>
      </trkpt>
      <trkpt lat="44.44507" lon="1.425">
        <ele>193.6</ele>
        <time>2021-10-02T14:12:16Z</time>
      </trkpt>
      <trkpt lat="44.44506" lon="1.42503">
        <ele>193.1</ele>
        <time>2021-10-02T14:12:18Z</time>
      </trkpt>
      <trkpt lat="44.44505" lon="1.42502">
        <ele>192.9</ele>
        <time>2021-10-02T14:12:20Z</time>
      </trkpt>
      <trkpt lat="44.44505" lon="1.42502">
        <ele>192.8</ele>
        <time>2021-10-02T14:12:22Z</time>
      </trkpt>
      <trkpt lat="44.44505" lon="1.42501">
        <ele>192.8</ele>
        <time>2021-10-02T14:12:23Z</time>
      </trkpt>
      <trkpt lat="44.44505" lon="1.42501">
        <ele>192.7</ele>
        <time>2021-10-02T14:12:24Z</time>
      </trkpt>
      <trkpt lat="44.44505" lon="1.42507">
        <ele>191.8</ele>
        <time>2021-10-02T14:12:26Z</time>
      </trkpt>
      <trkpt lat="44.44503" lon="1.42512">
        <ele>191</ele>
        <time>2021-10-02T14:12:27Z</time>
      </trkpt>
      <trkpt lat="44.44501" lon="1.42516">
        <ele>190.2</ele>
        <time>2021-10-02T14:12:28Z</time>
      </trkpt>
      <trkpt lat="44.44497" lon="1.4252">
        <ele>189.2</ele>
        <time>2021-10-02T14:12:30Z</time>
      </trkpt>
      <trkpt lat="44.44496" lon="1.42525">
        <ele>188.4</ele>
        <time>2021-10-02T14:12:31Z</time>
      </trkpt>
      <trkpt lat="44.44495" lon="1.4253">
        <ele>187.8</ele>
        <time>2021-10-02T14:12:32Z</time>
      </trkpt>
      <trkpt lat="44.44493" lon="1.42535">
        <ele>187.1</ele>
        <time>2021-10-02T14:12:34Z</time>
      </trkpt>
      <trkpt lat="44.44492" lon="1.42541">
        <ele>186.3</ele>
        <time>2021-10-02T14:12:35Z</time>
      </trkpt>
      <trkpt lat="44.44487" lon="1.42555">
        <ele>184.5</ele>
        <time>2021-10-02T14:12:37Z</time>
      </trkpt>
      <trkpt lat="44.44485" lon="1.42562">
        <ele>183.5</ele>
        <time>2021-10-02T14:12:38Z</time>
      </trkpt>
      <trkpt lat="44.4448" lon="1.42576">
        <ele>181.7</ele>
        <time>2021-10-02T14:12:40Z</time>
      </trkpt>
      <trkpt lat="44.44477" lon="1.42581">
        <ele>180.9</ele>
        <time>2021-10-02T14:12:41Z</time>
      </trkpt>
      <trkpt lat="44.44474" lon="1.42589">
        <ele>179.9</ele>
        <time>2021-10-02T14:12:42Z</time>
      </trkpt>
      <trkpt lat="44.44471" lon="1.426">
        <ele>178.3</ele>
        <time>2021-10-02T14:12:44Z</time>
      </trkpt>
      <trkpt lat="44.44469" lon="1.42609">
        <ele>177.3</ele>
        <time>2021-10-02T14:12:45Z</time>
      </trkpt>
      <trkpt lat="44.44467" lon="1.42616">
        <ele>176.4</ele>
        <time>2021-10-02T14:12:46Z</time>
      </trkpt>
      <trkpt lat="44.44466" lon="1.42622">
        <ele>175.5</ele>
        <time>2021-10-02T14:12:47Z</time>
      </trkpt>
      <trkpt lat="44.44463" lon="1.42628">
        <ele>174.4</ele>
        <time>2021-10-02T14:12:48Z</time>
      </trkpt>
      <trkpt lat="44.44461" lon="1.42632">
        <ele>173.7</ele>
        <time>2021-10-02T14:12:49Z</time>
      </trkpt>
      <trkpt lat="44.44459" lon="1.4264">
        <ele>172.5</ele>
        <time>2021-10-02T14:12:51Z</time>
      </trkpt>
      <trkpt lat="44.44457" lon="1.42648">
        <ele>171.3</ele>
        <time>2021-10-02T14:12:53Z</time>
      </trkpt>
      <trkpt lat="44.44455" lon="1.42651">
        <ele>170.6</ele>
        <time>2021-10-02T14:12:54Z</time>
      </trkpt>
      <trkpt lat="44.44454" lon="1.42654">
        <ele>170.2</ele>
        <time>2021-10-02T14:12:55Z</time>
      </trkpt>
      <trkpt lat="44.44453" lon="1.42659">
        <ele>169.4</ele>
        <time>2021-10-02T14:12:56Z</time>
      </trkpt>
      <trkpt lat="44.44451" lon="1.42664">
        <ele>168.5</ele>
        <time>2021-10-02T14:12:57Z</time>
      </trkpt>
      <trkpt lat="44.4445" lon="1.42669">
        <ele>167.8</ele>
        <time>2021-10-02T14:12:59Z</time>
      </trkpt>
      <trkpt lat="44.4445" lon="1.42674">
        <ele>167.1</ele>
        <time>2021-10-02T14:13:00Z</time>
      </trkpt>
      <trkpt lat="44.44449" lon="1.42679">
        <ele>166.4</ele>
        <time>2021-10-02T14:13:01Z</time>
      </trkpt>
      <trkpt lat="44.44448" lon="1.42683">
        <ele>165.8</ele>
        <time>2021-10-02T14:13:03Z</time>
      </trkpt>
      <trkpt lat="44.44448" lon="1.42683">
        <ele>165.7</ele>
        <time>2021-10-02T14:13:04Z</time>
      </trkpt>
      <trkpt lat="44.44448" lon="1.42684">
        <ele>165.6</ele>
        <time>2021-10-02T14:13:05Z</time>
      </trkpt>
      <trkpt lat="44.44448" lon="1.42684">
        <ele>165.6</ele>
        <time>2021-10-02T14:13:07Z</time>
      </trkpt>
      <trkpt lat="44.44448" lon="1.42684">
        <ele>165.6</ele>
        <time>2021-10-02T14:13:08Z</time>
      </trkpt>
      <trkpt lat="44.44448" lon="1.42684">
        <ele>165.5</ele>
        <time>2021-10-02T14:13:10Z</time>
      </trkpt>
      <trkpt lat="44.44448" lon="1.42683">
        <ele>165.4</ele>
        <time>2021-10-02T14:13:11Z</time>
      </trkpt>
      <trkpt lat="44.44448" lon="1.42688">
        <ele>164.8</ele>
        <time>2021-10-02T14:13:14Z</time>
      </trkpt>
      <trkpt lat="44.44447" lon="1.42694">
        <ele>163.8</ele>
        <time>2021-10-02T14:13:16Z</time>
      </trkpt>
      <trkpt lat="44.44448" lon="1.42703">
        <ele>162.4</ele>
        <time>2021-10-02T14:13:17Z</time>
      </trkpt>
      <trkpt lat="44.44449" lon="1.42709">
        <ele>161.2</ele>
        <time>2021-10-02T14:13:19Z</time>
      </trkpt>
      <trkpt lat="44.4445" lon="1.42714">
        <ele>160.3</ele>
        <time>2021-10-02T14:13:20Z</time>
      </trkpt>
      <trkpt lat="44.44452" lon="1.42723">
        <ele>158.6</ele>
        <time>2021-10-02T14:13:21Z</time>
      </trkpt>
      <trkpt lat="44.44456" lon="1.42733">
        <ele>156.4</ele>
        <time>2021-10-02T14:13:23Z</time>
      </trkpt>
      <trkpt lat="44.44459" lon="1.4274">
        <ele>155.1</ele>
        <time>2021-10-02T14:13:24Z</time>
      </trkpt>
      <trkpt lat="44.44463" lon="1.42746">
        <ele>153.6</ele>
        <time>2021-10-02T14:13:25Z</time>
      </trkpt>
      <trkpt lat="44.44471" lon="1.42759">
        <ele>150.6</ele>
        <time>2021-10-02T14:13:27Z</time>
      </trkpt>
      <trkpt lat="44.4448" lon="1.4277">
        <ele>147.8</ele>
        <time>2021-10-02T14:13:29Z</time>
      </trkpt>
      <trkpt lat="44.44485" lon="1.42775">
        <ele>146.3</ele>
        <time>2021-10-02T14:13:30Z</time>
      </trkpt>
      <trkpt lat="44.4449" lon="1.42781">
        <ele>144.6</ele>
        <time>2021-10-02T14:13:31Z</time>
      </trkpt>
      <trkpt lat="44.44501" lon="1.42795">
        <ele>141</ele>
        <time>2021-10-02T14:13:33Z</time>
      </trkpt>
      <trkpt lat="44.44508" lon="1.42802">
        <ele>138.9</ele>
        <time>2021-10-02T14:13:34Z</time>
      </trkpt>
      <trkpt lat="44.44515" lon="1.4281">
        <ele>136.7</ele>
        <time>2021-10-02T14:13:35Z</time>
      </trkpt>
      <trkpt lat="44.44527" lon="1.42824">
        <ele>133.4</ele>
        <time>2021-10-02T14:13:37Z</time>
      </trkpt>
      <trkpt lat="44.44532" lon="1.42829">
        <ele>132.6</ele>
        <time>2021-10-02T14:13:38Z</time>
      </trkpt>
      <trkpt lat="44.44545" lon="1.42834">
        <ele>131.6</ele>
        <time>2021-10-02T14:13:40Z</time>
      </trkpt>
      <trkpt lat="44.44552" lon="1.42836">
        <ele>131.3</ele>
        <time>2021-10-02T14:13:41Z</time>
      </trkpt>
      <trkpt lat="44.44562" lon="1.42839">
        <ele>131</ele>
        <time>2021-10-02T14:13:43Z</time>
      </trkpt>
      <trkpt lat="44.44565" lon="1.42841">
        <ele>131</ele>
        <time>2021-10-02T14:13:45Z</time>
      </trkpt>
      <trkpt lat="44.44565" lon="1.42843">
        <ele>130.9</ele>
        <time>2021-10-02T14:13:46Z</time>
      </trkpt>
      <trkpt lat="44.44566" lon="1.42844">
        <ele>130.9</ele>
        <time>2021-10-02T14:13:47Z</time>
      </trkpt>
      <trkpt lat="44.44567" lon="1.42845">
        <ele>130.8</ele>
        <time>2021-10-02T14:13:49Z</time>
      </trkpt>
      <trkpt lat="44.44568" lon="1.42846">
        <ele>130.8</ele>
        <time>2021-10-02T14:13:50Z</time>
      </trkpt>
      <trkpt lat="44.44568" lon="1.42848">
        <ele>130.7</ele>
        <time>2021-10-02T14:13:52Z</time>
      </trkpt>
      <trkpt lat="44.44569" lon="1.42849">
        <ele>130.6</ele>
        <time>2021-10-02T14:13:54Z</time>
      </trkpt>
      <trkpt lat="44.4457" lon="1.4285">
        <ele>130.6</ele>
        <time>2021-10-02T14:15:37Z</time>
      </trkpt>
      <trkpt lat="44.44571" lon="1.42852">
        <ele>130.5</ele>
        <time>2021-10-02T14:15:39Z</time>
      </trkpt>
      <trkpt lat="44.44571" lon="1.42853">
        <ele>130.5</ele>
        <time>2021-10-02T14:15:40Z</time>
      </trkpt>
      <trkpt lat="44.44574" lon="1.42857">
        <ele>130.3</ele>
        <time>2021-10-02T14:15:41Z</time>
      </trkpt>
      <trkpt lat="44.44578" lon="1.42863">
        <ele>130</ele>
        <time>2021-10-02T14:15:43Z</time>
      </trkpt>
      <trkpt lat="44.44581" lon="1.42868">
        <ele>129.8</ele>
        <time>2021-10-02T14:15:45Z</time>
      </trkpt>
      <trkpt lat="44.44584" lon="1.42873">
        <ele>129.5</ele>
        <time>2021-10-02T14:15:46Z</time>
      </trkpt>
      <trkpt lat="44.44587" lon="1.42878">
        <ele>129.2</ele>
        <time>2021-10-02T14:15:48Z</time>
      </trkpt>
      <trkpt lat="44.44591" lon="1.42886">
        <ele>128.8</ele>
        <time>2021-10-02T14:15:49Z</time>
      </trkpt>
      <trkpt lat="44.44594" lon="1.42891">
        <ele>128.5</ele>
        <time>2021-10-02T14:15:51Z</time>
      </trkpt>
      <trkpt lat="44.44597" lon="1.42897">
        <ele>128.1</ele>
        <time>2021-10-02T14:15:52Z</time>
      </trkpt>
      <trkpt lat="44.44603" lon="1.4291">
        <ele>127</ele>
        <time>2021-10-02T14:15:54Z</time>
      </trkpt>
      <trkpt lat="44.44606" lon="1.42917">
        <ele>126.4</ele>
        <time>2021-10-02T14:15:55Z</time>
      </trkpt>
      <trkpt lat="44.44614" lon="1.42934">
        <ele>125.1</ele>
        <time>2021-10-02T14:15:57Z</time>
      </trkpt>
      <trkpt lat="44.44617" lon="1.42943">
        <ele>124.5</ele>
        <time>2021-10-02T14:15:58Z</time>
      </trkpt>
      <trkpt lat="44.4462" lon="1.42961">
        <ele>123.6</ele>
        <time>2021-10-02T14:16:00Z</time>
      </trkpt>
      <trkpt lat="44.44614" lon="1.42975">
        <ele>123.1</ele>
        <time>2021-10-02T14:16:02Z</time>
      </trkpt>
      <trkpt lat="44.44609" lon="1.42978">
        <ele>122.9</ele>
        <time>2021-10-02T14:16:03Z</time>
      </trkpt>
      <trkpt lat="44.446" lon="1.42977">
        <ele>123.5</ele>
        <time>2021-10-02T14:16:05Z</time>
      </trkpt>
      <trkpt lat="44.44596" lon="1.42975">
        <ele>123.8</ele>
        <time>2021-10-02T14:16:06Z</time>
      </trkpt>
      <trkpt lat="44.44594" lon="1.42974">
        <ele>123.9</ele>
        <time>2021-10-02T14:16:07Z</time>
      </trkpt>
      <trkpt lat="44.44587" lon="1.42971">
        <ele>124.5</ele>
        <time>2021-10-02T14:16:09Z</time>
      </trkpt>
      <trkpt lat="44.44584" lon="1.42969">
        <ele>124.7</ele>
        <time>2021-10-02T14:16:11Z</time>
      </trkpt>
      <trkpt lat="44.44575" lon="1.42968">
        <ele>125.4</ele>
        <time>2021-10-02T14:16:13Z</time>
      </trkpt>
      <trkpt lat="44.4457" lon="1.42971">
        <ele>125.8</ele>
        <time>2021-10-02T14:16:15Z</time>
      </trkpt>
      <trkpt lat="44.44569" lon="1.42976">
        <ele>125.9</ele>
        <time>2021-10-02T14:16:16Z</time>
      </trkpt>
      <trkpt lat="44.44569" lon="1.42978">
        <ele>125.8</ele>
        <time>2021-10-02T14:16:17Z</time>
      </trkpt>
      <trkpt lat="44.4457" lon="1.42984">
        <ele>125.6</ele>
        <time>2021-10-02T14:16:18Z</time>
      </trkpt>
      <trkpt lat="44.44573" lon="1.42991">
        <ele>125.4</ele>
        <time>2021-10-02T14:16:19Z</time>
      </trkpt>
      <trkpt lat="44.44574" lon="1.43">
        <ele>125.2</ele>
        <time>2021-10-02T14:16:21Z</time>
      </trkpt>
      <trkpt lat="44.44574" lon="1.43008">
        <ele>125.1</ele>
        <time>2021-10-02T14:16:22Z</time>
      </trkpt>
      <trkpt lat="44.44571" lon="1.43022">
        <ele>124.9</ele>
        <time>2021-10-02T14:16:24Z</time>
      </trkpt>
      <trkpt lat="44.44561" lon="1.4303">
        <ele>124.8</ele>
        <time>2021-10-02T14:16:26Z</time>
      </trkpt>
      <trkpt lat="44.44551" lon="1.43035">
        <ele>124.8</ele>
        <time>2021-10-02T14:16:28Z</time>
      </trkpt>
      <trkpt lat="44.44541" lon="1.43039">
        <ele>124.9</ele>
        <time>2021-10-02T14:16:30Z</time>
      </trkpt>
      <trkpt lat="44.44536" lon="1.43041">
        <ele>124.9</ele>
        <time>2021-10-02T14:16:31Z</time>
      </trkpt>
      <trkpt lat="44.44532" lon="1.43042">
        <ele>125</ele>
        <time>2021-10-02T14:16:32Z</time>
      </trkpt>
      <trkpt lat="44.44524" lon="1.43044">
        <ele>125.2</ele>
        <time>2021-10-02T14:16:34Z</time>
      </trkpt>
      <trkpt lat="44.44516" lon="1.43046">
        <ele>125.4</ele>
        <time>2021-10-02T14:16:36Z</time>
      </trkpt>
      <trkpt lat="44.4451" lon="1.43049">
        <ele>125.6</ele>
        <time>2021-10-02T14:16:38Z</time>
      </trkpt>
      <trkpt lat="44.44506" lon="1.43051">
        <ele>125.7</ele>
        <time>2021-10-02T14:16:39Z</time>
      </trkpt>
      <trkpt lat="44.44504" lon="1.43051">
        <ele>125.8</ele>
        <time>2021-10-02T14:16:40Z</time>
      </trkpt>
      <trkpt lat="44.445" lon="1.43053">
        <ele>125.9</ele>
        <time>2021-10-02T14:16:42Z</time>
      </trkpt>
      <trkpt lat="44.44495" lon="1.43055">
        <ele>126.3</ele>
        <time>2021-10-02T14:16:43Z</time>
      </trkpt>
      <trkpt lat="44.44493" lon="1.43058">
        <ele>126.4</ele>
        <time>2021-10-02T14:16:45Z</time>
      </trkpt>
      <trkpt lat="44.44492" lon="1.43059">
        <ele>126.4</ele>
        <time>2021-10-02T14:16:46Z</time>
      </trkpt>
      <trkpt lat="44.44492" lon="1.43063">
        <ele>126.5</ele>
        <time>2021-10-02T14:16:48Z</time>
      </trkpt>
      <trkpt lat="44.44491" lon="1.43067">
        <ele>127.2</ele>
        <time>2021-10-02T14:16:49Z</time>
      </trkpt>
      <trkpt lat="44.44489" lon="1.43071">
        <ele>127.3</ele>
        <time>2021-10-02T14:16:51Z</time>
      </trkpt>
      <trkpt lat="44.44489" lon="1.43075">
        <ele>127.4</ele>
        <time>2021-10-02T14:16:53Z</time>
      </trkpt>
      <trkpt lat="44.4449" lon="1.4308">
        <ele>127.5</ele>
        <time>2021-10-02T14:16:55Z</time>
      </trkpt>
      <trkpt lat="44.44493" lon="1.43086">
        <ele>127.5</ele>
        <time>2021-10-02T14:16:57Z</time>
      </trkpt>
      <trkpt lat="44.44496" lon="1.43091">
        <ele>127.7</ele>
        <time>2021-10-02T14:16:58Z</time>
      </trkpt>
      <trkpt lat="44.44497" lon="1.43095">
        <ele>127.7</ele>
        <time>2021-10-02T14:17:00Z</time>
      </trkpt>
      <trkpt lat="44.44497" lon="1.431">
        <ele>127.8</ele>
        <time>2021-10-02T14:17:01Z</time>
      </trkpt>
      <trkpt lat="44.44497" lon="1.43103">
        <ele>127.9</ele>
        <time>2021-10-02T14:17:02Z</time>
      </trkpt>
      <trkpt lat="44.44497" lon="1.43108">
        <ele>127.9</ele>
        <time>2021-10-02T14:17:04Z</time>
      </trkpt>
      <trkpt lat="44.44497" lon="1.4311">
        <ele>128</ele>
        <time>2021-10-02T14:17:05Z</time>
      </trkpt>
      <trkpt lat="44.44497" lon="1.43117">
        <ele>128.1</ele>
        <time>2021-10-02T14:17:07Z</time>
      </trkpt>
      <trkpt lat="44.44498" lon="1.43119">
        <ele>128.1</ele>
        <time>2021-10-02T14:17:08Z</time>
      </trkpt>
      <trkpt lat="44.44498" lon="1.43121">
        <ele>128.2</ele>
        <time>2021-10-02T14:17:09Z</time>
      </trkpt>
      <trkpt lat="44.44501" lon="1.43127">
        <ele>128.3</ele>
        <time>2021-10-02T14:17:10Z</time>
      </trkpt>
      <trkpt lat="44.44502" lon="1.43132">
        <ele>128.4</ele>
        <time>2021-10-02T14:17:12Z</time>
      </trkpt>
      <trkpt lat="44.44503" lon="1.43135">
        <ele>128.4</ele>
        <time>2021-10-02T14:17:13Z</time>
      </trkpt>
      <trkpt lat="44.44503" lon="1.43142">
        <ele>128.5</ele>
        <time>2021-10-02T14:17:15Z</time>
      </trkpt>
      <trkpt lat="44.44503" lon="1.43145">
        <ele>128.5</ele>
        <time>2021-10-02T14:17:16Z</time>
      </trkpt>
      <trkpt lat="44.44503" lon="1.43148">
        <ele>128.6</ele>
        <time>2021-10-02T14:17:17Z</time>
      </trkpt>
      <trkpt lat="44.44503" lon="1.43153">
        <ele>128.6</ele>
        <time>2021-10-02T14:17:19Z</time>
      </trkpt>
      <trkpt lat="44.44503" lon="1.43155">
        <ele>128.6</ele>
        <time>2021-10-02T14:17:20Z</time>
      </trkpt>
      <trkpt lat="44.44503" lon="1.4316">
        <ele>128.7</ele>
        <time>2021-10-02T14:17:21Z</time>
      </trkpt>
      <trkpt lat="44.44503" lon="1.43162">
        <ele>128.7</ele>
        <time>2021-10-02T14:17:22Z</time>
      </trkpt>
      <trkpt lat="44.44505" lon="1.43166">
        <ele>128.7</ele>
        <time>2021-10-02T14:17:23Z</time>
      </trkpt>
      <trkpt lat="44.44507" lon="1.4317">
        <ele>128.7</ele>
        <time>2021-10-02T14:17:25Z</time>
      </trkpt>
      <trkpt lat="44.44507" lon="1.43174">
        <ele>128.6</ele>
        <time>2021-10-02T14:17:26Z</time>
      </trkpt>
      <trkpt lat="44.44508" lon="1.43181">
        <ele>128.4</ele>
        <time>2021-10-02T14:17:27Z</time>
      </trkpt>
      <trkpt lat="44.4451" lon="1.43188">
        <ele>128.2</ele>
        <time>2021-10-02T14:17:29Z</time>
      </trkpt>
      <trkpt lat="44.44511" lon="1.43193">
        <ele>128</ele>
        <time>2021-10-02T14:17:30Z</time>
      </trkpt>
      <trkpt lat="44.44513" lon="1.43199">
        <ele>127.8</ele>
        <time>2021-10-02T14:17:31Z</time>
      </trkpt>
      <trkpt lat="44.44514" lon="1.43204">
        <ele>127.6</ele>
        <time>2021-10-02T14:17:32Z</time>
      </trkpt>
      <trkpt lat="44.44516" lon="1.43209">
        <ele>127.4</ele>
        <time>2021-10-02T14:17:33Z</time>
      </trkpt>
      <trkpt lat="44.44518" lon="1.43216">
        <ele>127</ele>
        <time>2021-10-02T14:17:35Z</time>
      </trkpt>
      <trkpt lat="44.44519" lon="1.43222">
        <ele>126.7</ele>
        <time>2021-10-02T14:17:36Z</time>
      </trkpt>
      <trkpt lat="44.4452" lon="1.43226">
        <ele>126.5</ele>
        <time>2021-10-02T14:17:37Z</time>
      </trkpt>
      <trkpt lat="44.44522" lon="1.43233">
        <ele>126.2</ele>
        <time>2021-10-02T14:17:38Z</time>
      </trkpt>
      <trkpt lat="44.44524" lon="1.43239">
        <ele>125.8</ele>
        <time>2021-10-02T14:17:39Z</time>
      </trkpt>
      <trkpt lat="44.44525" lon="1.43244">
        <ele>125.5</ele>
        <time>2021-10-02T14:17:40Z</time>
      </trkpt>
      <trkpt lat="44.44526" lon="1.4325">
        <ele>125.4</ele>
        <time>2021-10-02T14:17:41Z</time>
      </trkpt>
      <trkpt lat="44.44529" lon="1.43259">
        <ele>125.1</ele>
        <time>2021-10-02T14:17:43Z</time>
      </trkpt>
      <trkpt lat="44.4453" lon="1.43273">
        <ele>124.6</ele>
        <time>2021-10-02T14:17:45Z</time>
      </trkpt>
      <trkpt lat="44.4453" lon="1.43281">
        <ele>124.2</ele>
        <time>2021-10-02T14:17:46Z</time>
      </trkpt>
      <trkpt lat="44.4453" lon="1.43289">
        <ele>123.9</ele>
        <time>2021-10-02T14:17:47Z</time>
      </trkpt>
      <trkpt lat="44.44531" lon="1.43298">
        <ele>123.6</ele>
        <time>2021-10-02T14:17:48Z</time>
      </trkpt>
      <trkpt lat="44.44532" lon="1.43314">
        <ele>123.1</ele>
        <time>2021-10-02T14:17:50Z</time>
      </trkpt>
      <trkpt lat="44.44531" lon="1.43319">
        <ele>122.9</ele>
        <time>2021-10-02T14:17:51Z</time>
      </trkpt>
      <trkpt lat="44.44529" lon="1.43322">
        <ele>122.7</ele>
        <time>2021-10-02T14:17:53Z</time>
      </trkpt>
      <trkpt lat="44.44527" lon="1.43321">
        <ele>122.6</ele>
        <time>2021-10-02T14:17:54Z</time>
      </trkpt>
      <trkpt lat="44.44525" lon="1.43314">
        <ele>122.4</ele>
        <time>2021-10-02T14:17:56Z</time>
      </trkpt>
      <trkpt lat="44.44524" lon="1.43306">
        <ele>122.3</ele>
        <time>2021-10-02T14:17:57Z</time>
      </trkpt>
      <trkpt lat="44.44526" lon="1.43299">
        <ele>121.7</ele>
        <time>2021-10-02T14:17:59Z</time>
      </trkpt>
      <trkpt lat="44.44526" lon="1.4329">
        <ele>121.2</ele>
        <time>2021-10-02T14:18:00Z</time>
      </trkpt>
      <trkpt lat="44.44525" lon="1.43282">
        <ele>120.7</ele>
        <time>2021-10-02T14:18:02Z</time>
      </trkpt>
      <trkpt lat="44.44523" lon="1.43274">
        <ele>120.4</ele>
        <time>2021-10-02T14:18:03Z</time>
      </trkpt>
      <trkpt lat="44.4452" lon="1.43263">
        <ele>119.8</ele>
        <time>2021-10-02T14:18:05Z</time>
      </trkpt>
      <trkpt lat="44.44516" lon="1.43259">
        <ele>119.8</ele>
        <time>2021-10-02T14:18:06Z</time>
      </trkpt>
      <trkpt lat="44.44511" lon="1.43255">
        <ele>119.9</ele>
        <time>2021-10-02T14:18:07Z</time>
      </trkpt>
      <trkpt lat="44.44505" lon="1.43254">
        <ele>120.1</ele>
        <time>2021-10-02T14:18:09Z</time>
      </trkpt>
      <trkpt lat="44.445" lon="1.43253">
        <ele>120.2</ele>
        <time>2021-10-02T14:18:10Z</time>
      </trkpt>
      <trkpt lat="44.44496" lon="1.43253">
        <ele>120.2</ele>
        <time>2021-10-02T14:18:11Z</time>
      </trkpt>
      <trkpt lat="44.4449" lon="1.43252">
        <ele>120.3</ele>
        <time>2021-10-02T14:18:12Z</time>
      </trkpt>
      <trkpt lat="44.44485" lon="1.43252">
        <ele>120.3</ele>
        <time>2021-10-02T14:18:14Z</time>
      </trkpt>
      <trkpt lat="44.44481" lon="1.43253">
        <ele>120.3</ele>
        <time>2021-10-02T14:18:15Z</time>
      </trkpt>
      <trkpt lat="44.44477" lon="1.43254">
        <ele>120.4</ele>
        <time>2021-10-02T14:18:16Z</time>
      </trkpt>
      <trkpt lat="44.4447" lon="1.43257">
        <ele>120.4</ele>
        <time>2021-10-02T14:18:17Z</time>
      </trkpt>
      <trkpt lat="44.44467" lon="1.43259">
        <ele>120.4</ele>
        <time>2021-10-02T14:18:18Z</time>
      </trkpt>
      <trkpt lat="44.44463" lon="1.43262">
        <ele>120.4</ele>
        <time>2021-10-02T14:18:20Z</time>
      </trkpt>
      <trkpt lat="44.44458" lon="1.43264">
        <ele>120.4</ele>
        <time>2021-10-02T14:18:21Z</time>
      </trkpt>
      <trkpt lat="44.44455" lon="1.43266">
        <ele>120.4</ele>
        <time>2021-10-02T14:18:22Z</time>
      </trkpt>
      <trkpt lat="44.4445" lon="1.43269">
        <ele>120.3</ele>
        <time>2021-10-02T14:18:24Z</time>
      </trkpt>
      <trkpt lat="44.44449" lon="1.4327">
        <ele>120.3</ele>
        <time>2021-10-02T14:18:26Z</time>
      </trkpt>
      <trkpt lat="44.44447" lon="1.4327">
        <ele>120.3</ele>
        <time>2021-10-02T14:18:27Z</time>
      </trkpt>
      <trkpt lat="44.44445" lon="1.43271">
        <ele>120.3</ele>
        <time>2021-10-02T14:18:28Z</time>
      </trkpt>
      <trkpt lat="44.44443" lon="1.43273">
        <ele>120.3</ele>
        <time>2021-10-02T14:18:29Z</time>
      </trkpt>
      <trkpt lat="44.4444" lon="1.43275">
        <ele>120.2</ele>
        <time>2021-10-02T14:18:31Z</time>
      </trkpt>
      <trkpt lat="44.44436" lon="1.43277">
        <ele>120.2</ele>
        <time>2021-10-02T14:18:32Z</time>
      </trkpt>
      <trkpt lat="44.44432" lon="1.43279">
        <ele>120.1</ele>
        <time>2021-10-02T14:18:33Z</time>
      </trkpt>
      <trkpt lat="44.44429" lon="1.43281">
        <ele>120.1</ele>
        <time>2021-10-02T14:18:34Z</time>
      </trkpt>
      <trkpt lat="44.44424" lon="1.43284">
        <ele>120</ele>
        <time>2021-10-02T14:18:36Z</time>
      </trkpt>
      <trkpt lat="44.44419" lon="1.43288">
        <ele>120</ele>
        <time>2021-10-02T14:18:37Z</time>
      </trkpt>
      <trkpt lat="44.44414" lon="1.43292">
        <ele>119.9</ele>
        <time>2021-10-02T14:18:39Z</time>
      </trkpt>
      <trkpt lat="44.4441" lon="1.43294">
        <ele>119.9</ele>
        <time>2021-10-02T14:18:40Z</time>
      </trkpt>
      <trkpt lat="44.44405" lon="1.43297">
        <ele>119.8</ele>
        <time>2021-10-02T14:18:42Z</time>
      </trkpt>
      <trkpt lat="44.44401" lon="1.43298">
        <ele>119.7</ele>
        <time>2021-10-02T14:18:43Z</time>
      </trkpt>
      <trkpt lat="44.44396" lon="1.43301">
        <ele>119.7</ele>
        <time>2021-10-02T14:18:44Z</time>
      </trkpt>
      <trkpt lat="44.44387" lon="1.43306">
        <ele>119.6</ele>
        <time>2021-10-02T14:18:46Z</time>
      </trkpt>
      <trkpt lat="44.44384" lon="1.43308">
        <ele>119.6</ele>
        <time>2021-10-02T14:18:47Z</time>
      </trkpt>
      <trkpt lat="44.44375" lon="1.43312">
        <ele>119.5</ele>
        <time>2021-10-02T14:18:49Z</time>
      </trkpt>
      <trkpt lat="44.44365" lon="1.43316">
        <ele>119.5</ele>
        <time>2021-10-02T14:18:51Z</time>
      </trkpt>
      <trkpt lat="44.44359" lon="1.4332">
        <ele>119.4</ele>
        <time>2021-10-02T14:18:52Z</time>
      </trkpt>
      <trkpt lat="44.44354" lon="1.43324">
        <ele>119.4</ele>
        <time>2021-10-02T14:18:54Z</time>
      </trkpt>
      <trkpt lat="44.4435" lon="1.43327">
        <ele>119.3</ele>
        <time>2021-10-02T14:18:55Z</time>
      </trkpt>
      <trkpt lat="44.44345" lon="1.43331">
        <ele>119.3</ele>
        <time>2021-10-02T14:18:56Z</time>
      </trkpt>
      <trkpt lat="44.44339" lon="1.43333">
        <ele>119.3</ele>
        <time>2021-10-02T14:18:58Z</time>
      </trkpt>
      <trkpt lat="44.44335" lon="1.43336">
        <ele>119.2</ele>
        <time>2021-10-02T14:18:59Z</time>
      </trkpt>
      <trkpt lat="44.4433" lon="1.43341">
        <ele>119.2</ele>
        <time>2021-10-02T14:19:00Z</time>
      </trkpt>
      <trkpt lat="44.44327" lon="1.43345">
        <ele>119.2</ele>
        <time>2021-10-02T14:19:01Z</time>
      </trkpt>
      <trkpt lat="44.44324" lon="1.43348">
        <ele>119.1</ele>
        <time>2021-10-02T14:19:03Z</time>
      </trkpt>
      <trkpt lat="44.44318" lon="1.43352">
        <ele>119.1</ele>
        <time>2021-10-02T14:19:04Z</time>
      </trkpt>
      <trkpt lat="44.44313" lon="1.43356">
        <ele>119.1</ele>
        <time>2021-10-02T14:19:06Z</time>
      </trkpt>
      <trkpt lat="44.44309" lon="1.43361">
        <ele>119</ele>
        <time>2021-10-02T14:19:07Z</time>
      </trkpt>
      <trkpt lat="44.44304" lon="1.43365">
        <ele>119</ele>
        <time>2021-10-02T14:19:08Z</time>
      </trkpt>
      <trkpt lat="44.44298" lon="1.4337">
        <ele>119</ele>
        <time>2021-10-02T14:19:09Z</time>
      </trkpt>
      <trkpt lat="44.44294" lon="1.43373">
        <ele>118.9</ele>
        <time>2021-10-02T14:19:11Z</time>
      </trkpt>
      <trkpt lat="44.44291" lon="1.43376">
        <ele>118.9</ele>
        <time>2021-10-02T14:19:12Z</time>
      </trkpt>
      <trkpt lat="44.44285" lon="1.43381">
        <ele>118.8</ele>
        <time>2021-10-02T14:19:13Z</time>
      </trkpt>
      <trkpt lat="44.4428" lon="1.43384">
        <ele>118.8</ele>
        <time>2021-10-02T14:19:15Z</time>
      </trkpt>
      <trkpt lat="44.44278" lon="1.43385">
        <ele>118.7</ele>
        <time>2021-10-02T14:19:16Z</time>
      </trkpt>
      <trkpt lat="44.44275" lon="1.43387">
        <ele>118.7</ele>
        <time>2021-10-02T14:19:17Z</time>
      </trkpt>
      <trkpt lat="44.44271" lon="1.43389">
        <ele>118.6</ele>
        <time>2021-10-02T14:19:19Z</time>
      </trkpt>
      <trkpt lat="44.44267" lon="1.43391">
        <ele>118.6</ele>
        <time>2021-10-02T14:19:20Z</time>
      </trkpt>
      <trkpt lat="44.44261" lon="1.43395">
        <ele>118.5</ele>
        <time>2021-10-02T14:19:21Z</time>
      </trkpt>
      <trkpt lat="44.44256" lon="1.43395">
        <ele>118.4</ele>
        <time>2021-10-02T14:19:23Z</time>
      </trkpt>
      <trkpt lat="44.44252" lon="1.43395">
        <ele>118.4</ele>
        <time>2021-10-02T14:19:24Z</time>
      </trkpt>
      <trkpt lat="44.44246" lon="1.43393">
        <ele>118.3</ele>
        <time>2021-10-02T14:19:25Z</time>
      </trkpt>
      <trkpt lat="44.44244" lon="1.43393">
        <ele>118.3</ele>
        <time>2021-10-02T14:19:26Z</time>
      </trkpt>
      <trkpt lat="44.44241" lon="1.4339">
        <ele>118.2</ele>
        <time>2021-10-02T14:19:28Z</time>
      </trkpt>
      <trkpt lat="44.44234" lon="1.43389">
        <ele>118.2</ele>
        <time>2021-10-02T14:19:29Z</time>
      </trkpt>
      <trkpt lat="44.44227" lon="1.43392">
        <ele>118.2</ele>
        <time>2021-10-02T14:19:31Z</time>
      </trkpt>
      <trkpt lat="44.44221" lon="1.434">
        <ele>118.1</ele>
        <time>2021-10-02T14:19:32Z</time>
      </trkpt>
      <trkpt lat="44.44215" lon="1.43407">
        <ele>118.1</ele>
        <time>2021-10-02T14:19:34Z</time>
      </trkpt>
      <trkpt lat="44.44211" lon="1.43409">
        <ele>118</ele>
        <time>2021-10-02T14:19:35Z</time>
      </trkpt>
      <trkpt lat="44.44204" lon="1.43416">
        <ele>117.5</ele>
        <time>2021-10-02T14:19:37Z</time>
      </trkpt>
      <trkpt lat="44.44198" lon="1.43421">
        <ele>117.2</ele>
        <time>2021-10-02T14:19:38Z</time>
      </trkpt>
      <trkpt lat="44.44195" lon="1.43424">
        <ele>117</ele>
        <time>2021-10-02T14:19:40Z</time>
      </trkpt>
      <trkpt lat="44.44192" lon="1.43427">
        <ele>116.8</ele>
        <time>2021-10-02T14:19:41Z</time>
      </trkpt>
      <trkpt lat="44.44189" lon="1.43432">
        <ele>116.4</ele>
        <time>2021-10-02T14:19:42Z</time>
      </trkpt>
      <trkpt lat="44.44186" lon="1.43439">
        <ele>116.3</ele>
        <time>2021-10-02T14:19:44Z</time>
      </trkpt>
      <trkpt lat="44.44183" lon="1.43443">
        <ele>116.2</ele>
        <time>2021-10-02T14:19:45Z</time>
      </trkpt>
      <trkpt lat="44.4418" lon="1.43448">
        <ele>116.1</ele>
        <time>2021-10-02T14:19:47Z</time>
      </trkpt>
      <trkpt lat="44.44176" lon="1.43454">
        <ele>116.1</ele>
        <time>2021-10-02T14:19:49Z</time>
      </trkpt>
      <trkpt lat="44.44173" lon="1.43458">
        <ele>116</ele>
        <time>2021-10-02T14:19:50Z</time>
      </trkpt>
      <trkpt lat="44.44171" lon="1.43461">
        <ele>116</ele>
        <time>2021-10-02T14:19:51Z</time>
      </trkpt>
      <trkpt lat="44.44169" lon="1.43464">
        <ele>116</ele>
        <time>2021-10-02T14:19:52Z</time>
      </trkpt>
      <trkpt lat="44.44167" lon="1.43468">
        <ele>116</ele>
        <time>2021-10-02T14:19:54Z</time>
      </trkpt>
      <trkpt lat="44.44163" lon="1.43473">
        <ele>115.9</ele>
        <time>2021-10-02T14:19:55Z</time>
      </trkpt>
      <trkpt lat="44.4416" lon="1.43478">
        <ele>115.9</ele>
        <time>2021-10-02T14:19:57Z</time>
      </trkpt>
      <trkpt lat="44.44159" lon="1.43482">
        <ele>115.8</ele>
        <time>2021-10-02T14:19:58Z</time>
      </trkpt>
      <trkpt lat="44.44158" lon="1.43482">
        <ele>115.8</ele>
        <time>2021-10-02T14:19:59Z</time>
      </trkpt>
      <trkpt lat="44.44157" lon="1.43484">
        <ele>115.8</ele>
        <time>2021-10-02T14:20:01Z</time>
      </trkpt>
      <trkpt lat="44.44156" lon="1.43486">
        <ele>115.8</ele>
        <time>2021-10-02T14:20:02Z</time>
      </trkpt>
      <trkpt lat="44.44155" lon="1.43488">
        <ele>115.8</ele>
        <time>2021-10-02T14:20:04Z</time>
      </trkpt>
      <trkpt lat="44.44154" lon="1.43489">
        <ele>115.8</ele>
        <time>2021-10-02T14:20:05Z</time>
      </trkpt>
      <trkpt lat="44.44153" lon="1.43491">
        <ele>115.8</ele>
        <time>2021-10-02T14:20:07Z</time>
      </trkpt>
      <trkpt lat="44.44152" lon="1.43493">
        <ele>115.8</ele>
        <time>2021-10-02T14:20:08Z</time>
      </trkpt>
      <trkpt lat="44.44151" lon="1.43495">
        <ele>115.8</ele>
        <time>2021-10-02T14:20:22Z</time>
      </trkpt>
      <trkpt lat="44.4415" lon="1.43497">
        <ele>115.7</ele>
        <time>2021-10-02T14:20:23Z</time>
      </trkpt>
      <trkpt lat="44.44147" lon="1.43503">
        <ele>115.7</ele>
        <time>2021-10-02T14:20:25Z</time>
      </trkpt>
      <trkpt lat="44.44146" lon="1.43507">
        <ele>115.7</ele>
        <time>2021-10-02T14:20:26Z</time>
      </trkpt>
      <trkpt lat="44.44145" lon="1.43511">
        <ele>115.7</ele>
        <time>2021-10-02T14:20:27Z</time>
      </trkpt>
      <trkpt lat="44.44143" lon="1.43515">
        <ele>115.7</ele>
        <time>2021-10-02T14:20:28Z</time>
      </trkpt>
      <trkpt lat="44.44142" lon="1.4352">
        <ele>115.7</ele>
        <time>2021-10-02T14:20:29Z</time>
      </trkpt>
      <trkpt lat="44.4414" lon="1.43525">
        <ele>115.7</ele>
        <time>2021-10-02T14:20:30Z</time>
      </trkpt>
      <trkpt lat="44.44138" lon="1.43533">
        <ele>115.8</ele>
        <time>2021-10-02T14:20:32Z</time>
      </trkpt>
      <trkpt lat="44.44137" lon="1.43539">
        <ele>115.8</ele>
        <time>2021-10-02T14:20:33Z</time>
      </trkpt>
      <trkpt lat="44.44135" lon="1.43545">
        <ele>115.7</ele>
        <time>2021-10-02T14:20:35Z</time>
      </trkpt>
      <trkpt lat="44.44135" lon="1.43546">
        <ele>115.7</ele>
        <time>2021-10-02T14:20:36Z</time>
      </trkpt>
      <trkpt lat="44.44135" lon="1.43547">
        <ele>115.7</ele>
        <time>2021-10-02T14:20:38Z</time>
      </trkpt>
      <trkpt lat="44.44135" lon="1.43548">
        <ele>115.7</ele>
        <time>2021-10-02T14:20:39Z</time>
      </trkpt>
      <trkpt lat="44.44134" lon="1.4355">
        <ele>115.7</ele>
        <time>2021-10-02T14:20:40Z</time>
      </trkpt>
      <trkpt lat="44.44134" lon="1.43554">
        <ele>115.7</ele>
        <time>2021-10-02T14:20:41Z</time>
      </trkpt>
      <trkpt lat="44.44133" lon="1.43559">
        <ele>115.7</ele>
        <time>2021-10-02T14:20:43Z</time>
      </trkpt>
      <trkpt lat="44.44133" lon="1.43561">
        <ele>115.7</ele>
        <time>2021-10-02T14:20:44Z</time>
      </trkpt>
      <trkpt lat="44.44132" lon="1.43566">
        <ele>115.7</ele>
        <time>2021-10-02T14:20:45Z</time>
      </trkpt>
      <trkpt lat="44.4413" lon="1.4358">
        <ele>115.5</ele>
        <time>2021-10-02T14:20:47Z</time>
      </trkpt>
      <trkpt lat="44.44129" lon="1.43588">
        <ele>115.5</ele>
        <time>2021-10-02T14:20:48Z</time>
      </trkpt>
      <trkpt lat="44.44128" lon="1.43595">
        <ele>115.4</ele>
        <time>2021-10-02T14:20:49Z</time>
      </trkpt>
      <trkpt lat="44.44128" lon="1.43602">
        <ele>115.3</ele>
        <time>2021-10-02T14:20:50Z</time>
      </trkpt>
      <trkpt lat="44.44127" lon="1.43618">
        <ele>115.3</ele>
        <time>2021-10-02T14:20:52Z</time>
      </trkpt>
      <trkpt lat="44.44127" lon="1.43627">
        <ele>115.2</ele>
        <time>2021-10-02T14:20:53Z</time>
      </trkpt>
      <trkpt lat="44.44126" lon="1.43636">
        <ele>115.2</ele>
        <time>2021-10-02T14:20:54Z</time>
      </trkpt>
      <trkpt lat="44.44125" lon="1.43646">
        <ele>115.2</ele>
        <time>2021-10-02T14:20:55Z</time>
      </trkpt>
      <trkpt lat="44.44125" lon="1.43656">
        <ele>115.2</ele>
        <time>2021-10-02T14:20:56Z</time>
      </trkpt>
      <trkpt lat="44.44125" lon="1.43665">
        <ele>115.1</ele>
        <time>2021-10-02T14:20:57Z</time>
      </trkpt>
      <trkpt lat="44.44125" lon="1.43684">
        <ele>115.1</ele>
        <time>2021-10-02T14:20:59Z</time>
      </trkpt>
      <trkpt lat="44.44124" lon="1.43703">
        <ele>115.1</ele>
        <time>2021-10-02T14:21:01Z</time>
      </trkpt>
      <trkpt lat="44.44124" lon="1.43721">
        <ele>115.2</ele>
        <time>2021-10-02T14:21:03Z</time>
      </trkpt>
      <trkpt lat="44.44124" lon="1.4373">
        <ele>115.2</ele>
        <time>2021-10-02T14:21:04Z</time>
      </trkpt>
      <trkpt lat="44.44123" lon="1.43747">
        <ele>115.1</ele>
        <time>2021-10-02T14:21:06Z</time>
      </trkpt>
      <trkpt lat="44.44123" lon="1.43763">
        <ele>115.1</ele>
        <time>2021-10-02T14:21:08Z</time>
      </trkpt>
      <trkpt lat="44.44125" lon="1.4378">
        <ele>115.1</ele>
        <time>2021-10-02T14:21:10Z</time>
      </trkpt>
      <trkpt lat="44.44126" lon="1.43795">
        <ele>115.1</ele>
        <time>2021-10-02T14:21:12Z</time>
      </trkpt>
      <trkpt lat="44.44128" lon="1.43806">
        <ele>115.1</ele>
        <time>2021-10-02T14:21:14Z</time>
      </trkpt>
      <trkpt lat="44.44129" lon="1.43812">
        <ele>115.1</ele>
        <time>2021-10-02T14:21:15Z</time>
      </trkpt>
      <trkpt lat="44.4413" lon="1.43817">
        <ele>115.1</ele>
        <time>2021-10-02T14:21:16Z</time>
      </trkpt>
      <trkpt lat="44.44131" lon="1.4382">
        <ele>115.1</ele>
        <time>2021-10-02T14:21:17Z</time>
      </trkpt>
      <trkpt lat="44.44131" lon="1.43829">
        <ele>115</ele>
        <time>2021-10-02T14:21:19Z</time>
      </trkpt>
      <trkpt lat="44.44132" lon="1.43835">
        <ele>115</ele>
        <time>2021-10-02T14:21:20Z</time>
      </trkpt>
      <trkpt lat="44.44132" lon="1.43838">
        <ele>114.9</ele>
        <time>2021-10-02T14:21:21Z</time>
      </trkpt>
      <trkpt lat="44.44132" lon="1.43847">
        <ele>114.9</ele>
        <time>2021-10-02T14:21:22Z</time>
      </trkpt>
      <trkpt lat="44.44131" lon="1.43855">
        <ele>114.8</ele>
        <time>2021-10-02T14:21:23Z</time>
      </trkpt>
      <trkpt lat="44.44131" lon="1.43864">
        <ele>114.7</ele>
        <time>2021-10-02T14:21:25Z</time>
      </trkpt>
      <trkpt lat="44.44134" lon="1.43874">
        <ele>114.7</ele>
        <time>2021-10-02T14:21:26Z</time>
      </trkpt>
      <trkpt lat="44.44136" lon="1.43881">
        <ele>114.8</ele>
        <time>2021-10-02T14:21:28Z</time>
      </trkpt>
      <trkpt lat="44.44139" lon="1.43892">
        <ele>114.8</ele>
        <time>2021-10-02T14:21:30Z</time>
      </trkpt>
      <trkpt lat="44.4414" lon="1.43898">
        <ele>114.8</ele>
        <time>2021-10-02T14:21:31Z</time>
      </trkpt>
      <trkpt lat="44.44141" lon="1.43903">
        <ele>114.9</ele>
        <time>2021-10-02T14:21:32Z</time>
      </trkpt>
      <trkpt lat="44.44142" lon="1.4391">
        <ele>114.9</ele>
        <time>2021-10-02T14:21:33Z</time>
      </trkpt>
      <trkpt lat="44.44143" lon="1.43917">
        <ele>115</ele>
        <time>2021-10-02T14:21:35Z</time>
      </trkpt>
      <trkpt lat="44.44144" lon="1.43922">
        <ele>115</ele>
        <time>2021-10-02T14:21:36Z</time>
      </trkpt>
      <trkpt lat="44.44145" lon="1.43926">
        <ele>115</ele>
        <time>2021-10-02T14:21:37Z</time>
      </trkpt>
      <trkpt lat="44.44146" lon="1.43933">
        <ele>115</ele>
        <time>2021-10-02T14:21:39Z</time>
      </trkpt>
      <trkpt lat="44.44147" lon="1.43937">
        <ele>115.1</ele>
        <time>2021-10-02T14:21:40Z</time>
      </trkpt>
      <trkpt lat="44.44147" lon="1.43943">
        <ele>115.1</ele>
        <time>2021-10-02T14:21:42Z</time>
      </trkpt>
      <trkpt lat="44.44148" lon="1.43947">
        <ele>115.1</ele>
        <time>2021-10-02T14:21:43Z</time>
      </trkpt>
      <trkpt lat="44.44149" lon="1.43952">
        <ele>115.2</ele>
        <time>2021-10-02T14:21:44Z</time>
      </trkpt>
      <trkpt lat="44.4415" lon="1.43958">
        <ele>115.2</ele>
        <time>2021-10-02T14:21:45Z</time>
      </trkpt>
      <trkpt lat="44.44151" lon="1.43964">
        <ele>115.3</ele>
        <time>2021-10-02T14:21:47Z</time>
      </trkpt>
      <trkpt lat="44.44153" lon="1.4397">
        <ele>115.4</ele>
        <time>2021-10-02T14:21:48Z</time>
      </trkpt>
      <trkpt lat="44.44153" lon="1.43973">
        <ele>115.5</ele>
        <time>2021-10-02T14:21:49Z</time>
      </trkpt>
      <trkpt lat="44.44155" lon="1.43976">
        <ele>115.6</ele>
        <time>2021-10-02T14:21:51Z</time>
      </trkpt>
      <trkpt lat="44.44156" lon="1.43981">
        <ele>115.6</ele>
        <time>2021-10-02T14:21:52Z</time>
      </trkpt>
      <trkpt lat="44.44157" lon="1.43984">
        <ele>115.6</ele>
        <time>2021-10-02T14:21:53Z</time>
      </trkpt>
      <trkpt lat="44.44158" lon="1.43989">
        <ele>115.6</ele>
        <time>2021-10-02T14:21:54Z</time>
      </trkpt>
      <trkpt lat="44.44159" lon="1.43996">
        <ele>115.6</ele>
        <time>2021-10-02T14:21:55Z</time>
      </trkpt>
      <trkpt lat="44.4416" lon="1.44002">
        <ele>115.6</ele>
        <time>2021-10-02T14:21:57Z</time>
      </trkpt>
      <trkpt lat="44.4416" lon="1.44006">
        <ele>115.6</ele>
        <time>2021-10-02T14:21:58Z</time>
      </trkpt>
      <trkpt lat="44.44162" lon="1.44009">
        <ele>115.6</ele>
        <time>2021-10-02T14:21:59Z</time>
      </trkpt>
      <trkpt lat="44.44163" lon="1.44015">
        <ele>115.6</ele>
        <time>2021-10-02T14:22:01Z</time>
      </trkpt>
      <trkpt lat="44.44164" lon="1.44018">
        <ele>115.6</ele>
        <time>2021-10-02T14:22:02Z</time>
      </trkpt>
      <trkpt lat="44.44166" lon="1.44022">
        <ele>115.7</ele>
        <time>2021-10-02T14:22:03Z</time>
      </trkpt>
      <trkpt lat="44.44167" lon="1.44027">
        <ele>115.7</ele>
        <time>2021-10-02T14:22:04Z</time>
      </trkpt>
      <trkpt lat="44.44169" lon="1.44032">
        <ele>115.7</ele>
        <time>2021-10-02T14:22:05Z</time>
      </trkpt>
      <trkpt lat="44.4417" lon="1.44038">
        <ele>115.8</ele>
        <time>2021-10-02T14:22:06Z</time>
      </trkpt>
      <trkpt lat="44.4417" lon="1.44045">
        <ele>115.8</ele>
        <time>2021-10-02T14:22:07Z</time>
      </trkpt>
      <trkpt lat="44.44172" lon="1.44053">
        <ele>115.8</ele>
        <time>2021-10-02T14:22:08Z</time>
      </trkpt>
      <trkpt lat="44.44174" lon="1.44058">
        <ele>115.8</ele>
        <time>2021-10-02T14:22:10Z</time>
      </trkpt>
      <trkpt lat="44.44177" lon="1.44067">
        <ele>115.8</ele>
        <time>2021-10-02T14:22:11Z</time>
      </trkpt>
      <trkpt lat="44.44179" lon="1.44074">
        <ele>115.8</ele>
        <time>2021-10-02T14:22:13Z</time>
      </trkpt>
      <trkpt lat="44.44181" lon="1.44083">
        <ele>115.8</ele>
        <time>2021-10-02T14:22:14Z</time>
      </trkpt>
      <trkpt lat="44.44183" lon="1.4409">
        <ele>115.8</ele>
        <time>2021-10-02T14:22:16Z</time>
      </trkpt>
      <trkpt lat="44.44182" lon="1.44094">
        <ele>115.8</ele>
        <time>2021-10-02T14:22:17Z</time>
      </trkpt>
      <trkpt lat="44.44183" lon="1.44098">
        <ele>115.8</ele>
        <time>2021-10-02T14:22:18Z</time>
      </trkpt>
      <trkpt lat="44.44183" lon="1.44103">
        <ele>115.8</ele>
        <time>2021-10-02T14:22:19Z</time>
      </trkpt>
      <trkpt lat="44.44184" lon="1.44108">
        <ele>115.7</ele>
        <time>2021-10-02T14:22:20Z</time>
      </trkpt>
      <trkpt lat="44.44186" lon="1.44115">
        <ele>115.7</ele>
        <time>2021-10-02T14:22:22Z</time>
      </trkpt>
      <trkpt lat="44.44187" lon="1.44124">
        <ele>115.6</ele>
        <time>2021-10-02T14:22:24Z</time>
      </trkpt>
      <trkpt lat="44.44188" lon="1.44131">
        <ele>115.6</ele>
        <time>2021-10-02T14:22:25Z</time>
      </trkpt>
      <trkpt lat="44.44188" lon="1.44138">
        <ele>115.6</ele>
        <time>2021-10-02T14:22:26Z</time>
      </trkpt>
      <trkpt lat="44.4419" lon="1.44142">
        <ele>115.5</ele>
        <time>2021-10-02T14:22:28Z</time>
      </trkpt>
      <trkpt lat="44.44193" lon="1.44148">
        <ele>115.5</ele>
        <time>2021-10-02T14:22:29Z</time>
      </trkpt>
      <trkpt lat="44.44196" lon="1.44153">
        <ele>115.4</ele>
        <time>2021-10-02T14:22:31Z</time>
      </trkpt>
      <trkpt lat="44.44199" lon="1.44158">
        <ele>115.4</ele>
        <time>2021-10-02T14:22:33Z</time>
      </trkpt>
      <trkpt lat="44.44199" lon="1.44163">
        <ele>115.4</ele>
        <time>2021-10-02T14:22:34Z</time>
      </trkpt>
      <trkpt lat="44.44201" lon="1.44172">
        <ele>115.3</ele>
        <time>2021-10-02T14:22:35Z</time>
      </trkpt>
      <trkpt lat="44.44203" lon="1.44179">
        <ele>115.2</ele>
        <time>2021-10-02T14:22:37Z</time>
      </trkpt>
      <trkpt lat="44.44205" lon="1.44183">
        <ele>115.2</ele>
        <time>2021-10-02T14:22:38Z</time>
      </trkpt>
      <trkpt lat="44.44205" lon="1.44187">
        <ele>115.2</ele>
        <time>2021-10-02T14:22:39Z</time>
      </trkpt>
      <trkpt lat="44.44207" lon="1.44193">
        <ele>115.2</ele>
        <time>2021-10-02T14:22:40Z</time>
      </trkpt>
      <trkpt lat="44.44208" lon="1.44198">
        <ele>115.2</ele>
        <time>2021-10-02T14:22:42Z</time>
      </trkpt>
      <trkpt lat="44.4421" lon="1.44202">
        <ele>115.2</ele>
        <time>2021-10-02T14:22:43Z</time>
      </trkpt>
      <trkpt lat="44.44212" lon="1.44207">
        <ele>115.2</ele>
        <time>2021-10-02T14:22:44Z</time>
      </trkpt>
      <trkpt lat="44.44214" lon="1.4421">
        <ele>115.2</ele>
        <time>2021-10-02T14:22:46Z</time>
      </trkpt>
      <trkpt lat="44.44216" lon="1.44213">
        <ele>115.2</ele>
        <time>2021-10-02T14:22:48Z</time>
      </trkpt>
      <trkpt lat="44.44216" lon="1.44213">
        <ele>115.2</ele>
        <time>2021-10-02T14:22:50Z</time>
      </trkpt>
      <trkpt lat="44.44216" lon="1.44213">
        <ele>115.2</ele>
        <time>2021-10-02T14:22:51Z</time>
      </trkpt>
      <trkpt lat="44.44216" lon="1.44213">
        <ele>115.2</ele>
        <time>2021-10-02T14:22:52Z</time>
      </trkpt>
      <trkpt lat="44.44217" lon="1.44213">
        <ele>115.2</ele>
        <time>2021-10-02T14:22:54Z</time>
      </trkpt>
      <trkpt lat="44.44217" lon="1.44213">
        <ele>115.2</ele>
        <time>2021-10-02T14:22:55Z</time>
      </trkpt>
      <trkpt lat="44.44217" lon="1.44213">
        <ele>115.2</ele>
        <time>2021-10-02T14:22:57Z</time>
      </trkpt>
      <trkpt lat="44.44217" lon="1.44213">
        <ele>115.2</ele>
        <time>2021-10-02T14:22:58Z</time>
      </trkpt>
      <trkpt lat="44.44219" lon="1.44218">
        <ele>115.2</ele>
        <time>2021-10-02T14:23:01Z</time>
      </trkpt>
      <trkpt lat="44.44226" lon="1.44231">
        <ele>115.1</ele>
        <time>2021-10-02T14:23:02Z</time>
      </trkpt>
      <trkpt lat="44.44228" lon="1.44239">
        <ele>115</ele>
        <time>2021-10-02T14:23:04Z</time>
      </trkpt>
      <trkpt lat="44.44229" lon="1.44246">
        <ele>115</ele>
        <time>2021-10-02T14:23:05Z</time>
      </trkpt>
      <trkpt lat="44.44231" lon="1.44251">
        <ele>115</ele>
        <time>2021-10-02T14:23:06Z</time>
      </trkpt>
      <trkpt lat="44.44233" lon="1.44257">
        <ele>115</ele>
        <time>2021-10-02T14:23:08Z</time>
      </trkpt>
      <trkpt lat="44.44233" lon="1.44262">
        <ele>115</ele>
        <time>2021-10-02T14:23:09Z</time>
      </trkpt>
      <trkpt lat="44.44233" lon="1.44264">
        <ele>115</ele>
        <time>2021-10-02T14:23:10Z</time>
      </trkpt>
      <trkpt lat="44.44234" lon="1.44271">
        <ele>115</ele>
        <time>2021-10-02T14:23:12Z</time>
      </trkpt>
      <trkpt lat="44.44235" lon="1.44273">
        <ele>115</ele>
        <time>2021-10-02T14:23:13Z</time>
      </trkpt>
      <trkpt lat="44.44235" lon="1.44273">
        <ele>115</ele>
        <time>2021-10-02T14:23:14Z</time>
      </trkpt>
      <trkpt lat="44.44234" lon="1.44272">
        <ele>115</ele>
        <time>2021-10-02T14:23:16Z</time>
      </trkpt>
      <trkpt lat="44.44234" lon="1.44272">
        <ele>115</ele>
        <time>2021-10-02T14:23:17Z</time>
      </trkpt>
      <trkpt lat="44.44234" lon="1.44272">
        <ele>115</ele>
        <time>2021-10-02T14:23:18Z</time>
      </trkpt>
      <trkpt lat="44.44235" lon="1.44272">
        <ele>115</ele>
        <time>2021-10-02T14:23:19Z</time>
      </trkpt>
      <trkpt lat="44.44235" lon="1.44272">
        <ele>115</ele>
        <time>2021-10-02T14:23:20Z</time>
      </trkpt>
      <trkpt lat="44.44235" lon="1.44272">
        <ele>115</ele>
        <time>2021-10-02T14:23:22Z</time>
      </trkpt>
      <trkpt lat="44.44235" lon="1.44271">
        <ele>115</ele>
        <time>2021-10-02T14:23:23Z</time>
      </trkpt>
      <trkpt lat="44.44233" lon="1.44267">
        <ele>115</ele>
        <time>2021-10-02T14:23:29Z</time>
      </trkpt>
      <trkpt lat="44.44232" lon="1.44266">
        <ele>115</ele>
        <time>2021-10-02T14:23:30Z</time>
      </trkpt>
      <trkpt lat="44.44231" lon="1.44264">
        <ele>115</ele>
        <time>2021-10-02T14:23:31Z</time>
      </trkpt>
      <trkpt lat="44.44229" lon="1.44258">
        <ele>115</ele>
        <time>2021-10-02T14:23:33Z</time>
      </trkpt>
      <trkpt lat="44.44227" lon="1.44253">
        <ele>115</ele>
        <time>2021-10-02T14:23:34Z</time>
      </trkpt>
      <trkpt lat="44.44226" lon="1.44247">
        <ele>115</ele>
        <time>2021-10-02T14:23:35Z</time>
      </trkpt>
      <trkpt lat="44.44225" lon="1.44243">
        <ele>115</ele>
        <time>2021-10-02T14:23:36Z</time>
      </trkpt>
      <trkpt lat="44.44224" lon="1.44237">
        <ele>115.1</ele>
        <time>2021-10-02T14:23:38Z</time>
      </trkpt>
      <trkpt lat="44.44224" lon="1.44232">
        <ele>115.1</ele>
        <time>2021-10-02T14:23:39Z</time>
      </trkpt>
      <trkpt lat="44.44223" lon="1.44228">
        <ele>115.1</ele>
        <time>2021-10-02T14:23:41Z</time>
      </trkpt>
      <trkpt lat="44.44222" lon="1.44227">
        <ele>115.1</ele>
        <time>2021-10-02T14:23:42Z</time>
      </trkpt>
      <trkpt lat="44.44221" lon="1.44224">
        <ele>115.3</ele>
        <time>2021-10-02T14:23:44Z</time>
      </trkpt>
      <trkpt lat="44.44221" lon="1.44223">
        <ele>115.4</ele>
        <time>2021-10-02T14:23:45Z</time>
      </trkpt>
      <trkpt lat="44.44221" lon="1.44222">
        <ele>115.5</ele>
        <time>2021-10-02T14:23:47Z</time>
      </trkpt>
      <trkpt lat="44.44221" lon="1.44221">
        <ele>115.5</ele>
        <time>2021-10-02T14:23:48Z</time>
      </trkpt>
      <trkpt lat="44.44221" lon="1.44221">
        <ele>115.5</ele>
        <time>2021-10-02T14:23:50Z</time>
      </trkpt>
      <trkpt lat="44.44221" lon="1.4422">
        <ele>115.5</ele>
        <time>2021-10-02T14:23:51Z</time>
      </trkpt>
      <trkpt lat="44.44221" lon="1.4422">
        <ele>115.6</ele>
        <time>2021-10-02T14:23:53Z</time>
      </trkpt>
      <trkpt lat="44.44221" lon="1.4422">
        <ele>115.6</ele>
        <time>2021-10-02T14:23:55Z</time>
      </trkpt>
      <trkpt lat="44.44216" lon="1.44202">
        <ele>116.6</ele>
        <time>2021-10-02T14:25:50Z</time>
      </trkpt>
      <trkpt lat="44.44215" lon="1.44198">
        <ele>116.8</ele>
        <time>2021-10-02T14:25:52Z</time>
      </trkpt>
      <trkpt lat="44.44215" lon="1.44196">
        <ele>116.9</ele>
        <time>2021-10-02T14:25:53Z</time>
      </trkpt>
      <trkpt lat="44.44215" lon="1.44193">
        <ele>117</ele>
        <time>2021-10-02T14:25:55Z</time>
      </trkpt>
      <trkpt lat="44.44215" lon="1.44191">
        <ele>117.1</ele>
        <time>2021-10-02T14:25:56Z</time>
      </trkpt>
      <trkpt lat="44.44214" lon="1.44187">
        <ele>117.3</ele>
        <time>2021-10-02T14:25:58Z</time>
      </trkpt>
      <trkpt lat="44.44213" lon="1.44184">
        <ele>117.5</ele>
        <time>2021-10-02T14:26:00Z</time>
      </trkpt>
      <trkpt lat="44.44212" lon="1.4418">
        <ele>117.7</ele>
        <time>2021-10-02T14:26:02Z</time>
      </trkpt>
      <trkpt lat="44.44211" lon="1.44175">
        <ele>117.9</ele>
        <time>2021-10-02T14:26:04Z</time>
      </trkpt>
      <trkpt lat="44.4421" lon="1.44171">
        <ele>118.1</ele>
        <time>2021-10-02T14:26:06Z</time>
      </trkpt>
      <trkpt lat="44.44208" lon="1.44165">
        <ele>118.4</ele>
        <time>2021-10-02T14:26:08Z</time>
      </trkpt>
      <trkpt lat="44.44207" lon="1.4416">
        <ele>118.7</ele>
        <time>2021-10-02T14:26:10Z</time>
      </trkpt>
      <trkpt lat="44.44205" lon="1.44155">
        <ele>118.9</ele>
        <time>2021-10-02T14:26:12Z</time>
      </trkpt>
      <trkpt lat="44.44204" lon="1.44153">
        <ele>119</ele>
        <time>2021-10-02T14:26:13Z</time>
      </trkpt>
      <trkpt lat="44.44202" lon="1.44148">
        <ele>119.2</ele>
        <time>2021-10-02T14:26:15Z</time>
      </trkpt>
      <trkpt lat="44.44201" lon="1.44144">
        <ele>119.4</ele>
        <time>2021-10-02T14:26:17Z</time>
      </trkpt>
      <trkpt lat="44.442" lon="1.44142">
        <ele>119.5</ele>
        <time>2021-10-02T14:26:18Z</time>
      </trkpt>
      <trkpt lat="44.44202" lon="1.44138">
        <ele>119.7</ele>
        <time>2021-10-02T14:26:20Z</time>
      </trkpt>
      <trkpt lat="44.44205" lon="1.44136">
        <ele>119.9</ele>
        <time>2021-10-02T14:26:22Z</time>
      </trkpt>
      <trkpt lat="44.44207" lon="1.44136">
        <ele>120.1</ele>
        <time>2021-10-02T14:26:23Z</time>
      </trkpt>
      <trkpt lat="44.44212" lon="1.44138">
        <ele>120.2</ele>
        <time>2021-10-02T14:26:25Z</time>
      </trkpt>
      <trkpt lat="44.44213" lon="1.44139">
        <ele>120.3</ele>
        <time>2021-10-02T14:26:26Z</time>
      </trkpt>
      <trkpt lat="44.44218" lon="1.44145">
        <ele>120.4</ele>
        <time>2021-10-02T14:26:28Z</time>
      </trkpt>
      <trkpt lat="44.44225" lon="1.44151">
        <ele>120.4</ele>
        <time>2021-10-02T14:26:30Z</time>
      </trkpt>
      <trkpt lat="44.44228" lon="1.44155">
        <ele>120.5</ele>
        <time>2021-10-02T14:26:31Z</time>
      </trkpt>
      <trkpt lat="44.44233" lon="1.4416">
        <ele>120.6</ele>
        <time>2021-10-02T14:26:33Z</time>
      </trkpt>
      <trkpt lat="44.44239" lon="1.44166">
        <ele>120.8</ele>
        <time>2021-10-02T14:26:35Z</time>
      </trkpt>
      <trkpt lat="44.44244" lon="1.44171">
        <ele>121.2</ele>
        <time>2021-10-02T14:26:37Z</time>
      </trkpt>
      <trkpt lat="44.44249" lon="1.44175">
        <ele>121.3</ele>
        <time>2021-10-02T14:26:39Z</time>
      </trkpt>
      <trkpt lat="44.44254" lon="1.44182">
        <ele>121.4</ele>
        <time>2021-10-02T14:26:41Z</time>
      </trkpt>
      <trkpt lat="44.44257" lon="1.44185">
        <ele>121.5</ele>
        <time>2021-10-02T14:26:42Z</time>
      </trkpt>
      <trkpt lat="44.44263" lon="1.44191">
        <ele>121.7</ele>
        <time>2021-10-02T14:26:44Z</time>
      </trkpt>
      <trkpt lat="44.44269" lon="1.44197">
        <ele>121.9</ele>
        <time>2021-10-02T14:26:46Z</time>
      </trkpt>
      <trkpt lat="44.44272" lon="1.44199">
        <ele>122</ele>
        <time>2021-10-02T14:26:47Z</time>
      </trkpt>
      <trkpt lat="44.44274" lon="1.44201">
        <ele>122.1</ele>
        <time>2021-10-02T14:26:48Z</time>
      </trkpt>
      <trkpt lat="44.44277" lon="1.44205">
        <ele>122.2</ele>
        <time>2021-10-02T14:26:49Z</time>
      </trkpt>
      <trkpt lat="44.4428" lon="1.44211">
        <ele>122.5</ele>
        <time>2021-10-02T14:26:51Z</time>
      </trkpt>
      <trkpt lat="44.4428" lon="1.44217">
        <ele>123.6</ele>
        <time>2021-10-02T14:26:53Z</time>
      </trkpt>
      <trkpt lat="44.44275" lon="1.44219">
        <ele>123.8</ele>
        <time>2021-10-02T14:26:54Z</time>
      </trkpt>
      <trkpt lat="44.44273" lon="1.44219">
        <ele>123.9</ele>
        <time>2021-10-02T14:26:55Z</time>
      </trkpt>
      <trkpt lat="44.44268" lon="1.4422">
        <ele>124.1</ele>
        <time>2021-10-02T14:26:57Z</time>
      </trkpt>
      <trkpt lat="44.44264" lon="1.44221">
        <ele>124.3</ele>
        <time>2021-10-02T14:26:58Z</time>
      </trkpt>
      <trkpt lat="44.4426" lon="1.44222">
        <ele>124.5</ele>
        <time>2021-10-02T14:26:59Z</time>
      </trkpt>
      <trkpt lat="44.44256" lon="1.44224">
        <ele>124.7</ele>
        <time>2021-10-02T14:27:00Z</time>
      </trkpt>
      <trkpt lat="44.44251" lon="1.44227">
        <ele>124.9</ele>
        <time>2021-10-02T14:27:01Z</time>
      </trkpt>
      <trkpt lat="44.44247" lon="1.44229">
        <ele>125.1</ele>
        <time>2021-10-02T14:27:02Z</time>
      </trkpt>
      <trkpt lat="44.44243" lon="1.44233">
        <ele>125.3</ele>
        <time>2021-10-02T14:27:03Z</time>
      </trkpt>
      <trkpt lat="44.44241" lon="1.44235">
        <ele>125.4</ele>
        <time>2021-10-02T14:27:05Z</time>
      </trkpt>
      <trkpt lat="44.44239" lon="1.44237">
        <ele>125.5</ele>
        <time>2021-10-02T14:27:06Z</time>
      </trkpt>
      <trkpt lat="44.44238" lon="1.44238">
        <ele>125.5</ele>
        <time>2021-10-02T14:27:07Z</time>
      </trkpt>
      <trkpt lat="44.44236" lon="1.44241">
        <ele>125.6</ele>
        <time>2021-10-02T14:27:09Z</time>
      </trkpt>
      <trkpt lat="44.44232" lon="1.44243">
        <ele>125.7</ele>
        <time>2021-10-02T14:27:10Z</time>
      </trkpt>
      <trkpt lat="44.44225" lon="1.44245">
        <ele>125.8</ele>
        <time>2021-10-02T14:27:12Z</time>
      </trkpt>
      <trkpt lat="44.44219" lon="1.44247">
        <ele>126</ele>
        <time>2021-10-02T14:27:13Z</time>
      </trkpt>
      <trkpt lat="44.44214" lon="1.44249">
        <ele>126</ele>
        <time>2021-10-02T14:27:14Z</time>
      </trkpt>
      <trkpt lat="44.44207" lon="1.44252">
        <ele>126.1</ele>
        <time>2021-10-02T14:27:16Z</time>
      </trkpt>
      <trkpt lat="44.44203" lon="1.44254">
        <ele>126.1</ele>
        <time>2021-10-02T14:27:17Z</time>
      </trkpt>
      <trkpt lat="44.44195" lon="1.44257">
        <ele>126.2</ele>
        <time>2021-10-02T14:27:19Z</time>
      </trkpt>
      <trkpt lat="44.44185" lon="1.4426">
        <ele>126.2</ele>
        <time>2021-10-02T14:27:21Z</time>
      </trkpt>
      <trkpt lat="44.44179" lon="1.44261">
        <ele>126.3</ele>
        <time>2021-10-02T14:27:22Z</time>
      </trkpt>
      <trkpt lat="44.44174" lon="1.44263">
        <ele>126.3</ele>
        <time>2021-10-02T14:27:23Z</time>
      </trkpt>
      <trkpt lat="44.44165" lon="1.44266">
        <ele>126.3</ele>
        <time>2021-10-02T14:27:25Z</time>
      </trkpt>
      <trkpt lat="44.4416" lon="1.44268">
        <ele>126.2</ele>
        <time>2021-10-02T14:27:26Z</time>
      </trkpt>
      <trkpt lat="44.44151" lon="1.44272">
        <ele>126.1</ele>
        <time>2021-10-02T14:27:28Z</time>
      </trkpt>
      <trkpt lat="44.44142" lon="1.44275">
        <ele>126</ele>
        <time>2021-10-02T14:27:30Z</time>
      </trkpt>
      <trkpt lat="44.44138" lon="1.44276">
        <ele>125.9</ele>
        <time>2021-10-02T14:27:31Z</time>
      </trkpt>
      <trkpt lat="44.44128" lon="1.4428">
        <ele>125.8</ele>
        <time>2021-10-02T14:27:33Z</time>
      </trkpt>
      <trkpt lat="44.44123" lon="1.44281">
        <ele>125.7</ele>
        <time>2021-10-02T14:27:34Z</time>
      </trkpt>
      <trkpt lat="44.44118" lon="1.44284">
        <ele>125.6</ele>
        <time>2021-10-02T14:27:35Z</time>
      </trkpt>
      <trkpt lat="44.44109" lon="1.44287">
        <ele>125.4</ele>
        <time>2021-10-02T14:27:37Z</time>
      </trkpt>
      <trkpt lat="44.441" lon="1.4429">
        <ele>125.2</ele>
        <time>2021-10-02T14:27:39Z</time>
      </trkpt>
      <trkpt lat="44.44095" lon="1.44291">
        <ele>125.1</ele>
        <time>2021-10-02T14:27:40Z</time>
      </trkpt>
      <trkpt lat="44.4409" lon="1.44293">
        <ele>124.9</ele>
        <time>2021-10-02T14:27:41Z</time>
      </trkpt>
      <trkpt lat="44.44078" lon="1.44291">
        <ele>124.5</ele>
        <time>2021-10-02T14:27:43Z</time>
      </trkpt>
      <trkpt lat="44.44072" lon="1.44288">
        <ele>124.3</ele>
        <time>2021-10-02T14:27:44Z</time>
      </trkpt>
      <trkpt lat="44.44062" lon="1.44277">
        <ele>123.7</ele>
        <time>2021-10-02T14:27:46Z</time>
      </trkpt>
      <trkpt lat="44.44053" lon="1.44262">
        <ele>123</ele>
        <time>2021-10-02T14:27:48Z</time>
      </trkpt>
      <trkpt lat="44.4405" lon="1.44254">
        <ele>122.7</ele>
        <time>2021-10-02T14:27:49Z</time>
      </trkpt>
      <trkpt lat="44.44046" lon="1.44245">
        <ele>122.3</ele>
        <time>2021-10-02T14:27:50Z</time>
      </trkpt>
      <trkpt lat="44.44042" lon="1.44237">
        <ele>122.1</ele>
        <time>2021-10-02T14:27:51Z</time>
      </trkpt>
      <trkpt lat="44.44038" lon="1.44228">
        <ele>121.8</ele>
        <time>2021-10-02T14:27:52Z</time>
      </trkpt>
      <trkpt lat="44.44031" lon="1.44213">
        <ele>121.4</ele>
        <time>2021-10-02T14:27:54Z</time>
      </trkpt>
      <trkpt lat="44.44024" lon="1.44195">
        <ele>121.1</ele>
        <time>2021-10-02T14:27:56Z</time>
      </trkpt>
      <trkpt lat="44.44018" lon="1.44183">
        <ele>120</ele>
        <time>2021-10-02T14:27:58Z</time>
      </trkpt>
      <trkpt lat="44.44017" lon="1.44175">
        <ele>118.9</ele>
        <time>2021-10-02T14:28:00Z</time>
      </trkpt>
      <trkpt lat="44.44017" lon="1.44168">
        <ele>117.6</ele>
        <time>2021-10-02T14:28:02Z</time>
      </trkpt>
      <trkpt lat="44.44016" lon="1.44163">
        <ele>117.5</ele>
        <time>2021-10-02T14:28:03Z</time>
      </trkpt>
      <trkpt lat="44.44016" lon="1.44162">
        <ele>117.5</ele>
        <time>2021-10-02T14:28:04Z</time>
      </trkpt>
      <trkpt lat="44.44017" lon="1.44158">
        <ele>117.5</ele>
        <time>2021-10-02T14:28:06Z</time>
      </trkpt>
      <trkpt lat="44.44016" lon="1.44158">
        <ele>117.5</ele>
        <time>2021-10-02T14:28:07Z</time>
      </trkpt>
      <trkpt lat="44.44015" lon="1.44159">
        <ele>117.5</ele>
        <time>2021-10-02T14:28:09Z</time>
      </trkpt>
      <trkpt lat="44.44015" lon="1.44163">
        <ele>117.5</ele>
        <time>2021-10-02T14:28:11Z</time>
      </trkpt>
      <trkpt lat="44.44014" lon="1.44164">
        <ele>117.5</ele>
        <time>2021-10-02T14:28:13Z</time>
      </trkpt>
      <trkpt lat="44.44014" lon="1.44165">
        <ele>117.5</ele>
        <time>2021-10-02T14:28:14Z</time>
      </trkpt>
      <trkpt lat="44.44014" lon="1.44165">
        <ele>117.5</ele>
        <time>2021-10-02T14:28:15Z</time>
      </trkpt>
      <trkpt lat="44.44015" lon="1.44167">
        <ele>117.5</ele>
        <time>2021-10-02T14:28:17Z</time>
      </trkpt>
      <trkpt lat="44.44015" lon="1.44167">
        <ele>117.5</ele>
        <time>2021-10-02T14:28:18Z</time>
      </trkpt>
      <trkpt lat="44.44015" lon="1.44169">
        <ele>117.5</ele>
        <time>2021-10-02T14:28:19Z</time>
      </trkpt>
      <trkpt lat="44.44017" lon="1.44176">
        <ele>117.5</ele>
        <time>2021-10-02T14:28:20Z</time>
      </trkpt>
      <trkpt lat="44.44019" lon="1.44179">
        <ele>117.5</ele>
        <time>2021-10-02T14:28:21Z</time>
      </trkpt>
      <trkpt lat="44.44021" lon="1.44183">
        <ele>117.5</ele>
        <time>2021-10-02T14:28:23Z</time>
      </trkpt>
      <trkpt lat="44.44023" lon="1.44188">
        <ele>117.5</ele>
        <time>2021-10-02T14:28:24Z</time>
      </trkpt>
      <trkpt lat="44.44025" lon="1.44193">
        <ele>117.5</ele>
        <time>2021-10-02T14:28:25Z</time>
      </trkpt>
      <trkpt lat="44.44027" lon="1.44197">
        <ele>117.5</ele>
        <time>2021-10-02T14:28:26Z</time>
      </trkpt>
      <trkpt lat="44.4403" lon="1.44203">
        <ele>117.5</ele>
        <time>2021-10-02T14:28:27Z</time>
      </trkpt>
      <trkpt lat="44.44033" lon="1.44209">
        <ele>117.5</ele>
        <time>2021-10-02T14:28:28Z</time>
      </trkpt>
      <trkpt lat="44.44036" lon="1.44214">
        <ele>117.6</ele>
        <time>2021-10-02T14:28:29Z</time>
      </trkpt>
      <trkpt lat="44.4404" lon="1.44221">
        <ele>117.6</ele>
        <time>2021-10-02T14:28:31Z</time>
      </trkpt>
      <trkpt lat="44.44044" lon="1.44224">
        <ele>117.6</ele>
        <time>2021-10-02T14:28:32Z</time>
      </trkpt>
      <trkpt lat="44.44049" lon="1.44222">
        <ele>117.4</ele>
        <time>2021-10-02T14:28:33Z</time>
      </trkpt>
      <trkpt lat="44.44059" lon="1.44215">
        <ele>117</ele>
        <time>2021-10-02T14:28:35Z</time>
      </trkpt>
      <trkpt lat="44.44068" lon="1.44207">
        <ele>116.6</ele>
        <time>2021-10-02T14:28:37Z</time>
      </trkpt>
      <trkpt lat="44.44071" lon="1.44201">
        <ele>116.6</ele>
        <time>2021-10-02T14:28:38Z</time>
      </trkpt>
      <trkpt lat="44.4407" lon="1.44194">
        <ele>116.8</ele>
        <time>2021-10-02T14:28:39Z</time>
      </trkpt>
      <trkpt lat="44.44066" lon="1.44179">
        <ele>117</ele>
        <time>2021-10-02T14:28:41Z</time>
      </trkpt>
      <trkpt lat="44.44063" lon="1.44173">
        <ele>117.1</ele>
        <time>2021-10-02T14:28:42Z</time>
      </trkpt>
      <trkpt lat="44.4406" lon="1.44166">
        <ele>117.1</ele>
        <time>2021-10-02T14:28:43Z</time>
      </trkpt>
      <trkpt lat="44.44058" lon="1.4416">
        <ele>117.1</ele>
        <time>2021-10-02T14:28:44Z</time>
      </trkpt>
      <trkpt lat="44.44055" lon="1.44154">
        <ele>117.2</ele>
        <time>2021-10-02T14:28:45Z</time>
      </trkpt>
      <trkpt lat="44.44053" lon="1.44148">
        <ele>117.2</ele>
        <time>2021-10-02T14:28:46Z</time>
      </trkpt>
      <trkpt lat="44.4405" lon="1.44143">
        <ele>117.3</ele>
        <time>2021-10-02T14:28:47Z</time>
      </trkpt>
      <trkpt lat="44.44046" lon="1.44141">
        <ele>117.3</ele>
        <time>2021-10-02T14:28:48Z</time>
      </trkpt>
      <trkpt lat="44.4404" lon="1.44139">
        <ele>117.3</ele>
        <time>2021-10-02T14:28:50Z</time>
      </trkpt>
      <trkpt lat="44.44035" lon="1.44132">
        <ele>117.4</ele>
        <time>2021-10-02T14:28:51Z</time>
      </trkpt>
      <trkpt lat="44.44032" lon="1.44124">
        <ele>117.8</ele>
        <time>2021-10-02T14:28:53Z</time>
      </trkpt>
      <trkpt lat="44.44031" lon="1.44119">
        <ele>117.8</ele>
        <time>2021-10-02T14:28:54Z</time>
      </trkpt>
      <trkpt lat="44.44031" lon="1.44114">
        <ele>117.8</ele>
        <time>2021-10-02T14:28:55Z</time>
      </trkpt>
      <trkpt lat="44.44032" lon="1.4411">
        <ele>117.8</ele>
        <time>2021-10-02T14:28:56Z</time>
      </trkpt>
      <trkpt lat="44.44036" lon="1.44108">
        <ele>117.8</ele>
        <time>2021-10-02T14:28:57Z</time>
      </trkpt>
      <trkpt lat="44.44041" lon="1.44107">
        <ele>117.8</ele>
        <time>2021-10-02T14:28:58Z</time>
      </trkpt>
      <trkpt lat="44.44041" lon="1.44105">
        <ele>117.8</ele>
        <time>2021-10-02T14:29:00Z</time>
      </trkpt>
      <trkpt lat="44.44041" lon="1.44103">
        <ele>117.7</ele>
        <time>2021-10-02T14:29:01Z</time>
      </trkpt>
      <trkpt lat="44.44041" lon="1.44101">
        <ele>117.7</ele>
        <time>2021-10-02T14:29:02Z</time>
      </trkpt>
      <trkpt lat="44.44041" lon="1.441">
        <ele>117.7</ele>
        <time>2021-10-02T14:29:03Z</time>
      </trkpt>
      <trkpt lat="44.44041" lon="1.44098">
        <ele>117.7</ele>
        <time>2021-10-02T14:29:04Z</time>
      </trkpt>
      <trkpt lat="44.44042" lon="1.44093">
        <ele>117.6</ele>
        <time>2021-10-02T14:29:06Z</time>
      </trkpt>
      <trkpt lat="44.44042" lon="1.44086">
        <ele>117.5</ele>
        <time>2021-10-02T14:29:07Z</time>
      </trkpt>
      <trkpt lat="44.4404" lon="1.44077">
        <ele>117.4</ele>
        <time>2021-10-02T14:29:08Z</time>
      </trkpt>
      <trkpt lat="44.44037" lon="1.44069">
        <ele>117.3</ele>
        <time>2021-10-02T14:29:10Z</time>
      </trkpt>
      <trkpt lat="44.44036" lon="1.44063">
        <ele>117.3</ele>
        <time>2021-10-02T14:29:11Z</time>
      </trkpt>
      <trkpt lat="44.44034" lon="1.44054">
        <ele>117.3</ele>
        <time>2021-10-02T14:29:12Z</time>
      </trkpt>
      <trkpt lat="44.44033" lon="1.44048">
        <ele>117.2</ele>
        <time>2021-10-02T14:29:13Z</time>
      </trkpt>
      <trkpt lat="44.44033" lon="1.44043">
        <ele>117.2</ele>
        <time>2021-10-02T14:29:14Z</time>
      </trkpt>
      <trkpt lat="44.44033" lon="1.44034">
        <ele>117.2</ele>
        <time>2021-10-02T14:29:16Z</time>
      </trkpt>
      <trkpt lat="44.44031" lon="1.44028">
        <ele>117.1</ele>
        <time>2021-10-02T14:29:17Z</time>
      </trkpt>
      <trkpt lat="44.4403" lon="1.44022">
        <ele>117.1</ele>
        <time>2021-10-02T14:29:18Z</time>
      </trkpt>
      <trkpt lat="44.44029" lon="1.44015">
        <ele>117.1</ele>
        <time>2021-10-02T14:29:20Z</time>
      </trkpt>
      <trkpt lat="44.44029" lon="1.44009">
        <ele>117.1</ele>
        <time>2021-10-02T14:29:21Z</time>
      </trkpt>
      <trkpt lat="44.44028" lon="1.44004">
        <ele>117</ele>
        <time>2021-10-02T14:29:22Z</time>
      </trkpt>
      <trkpt lat="44.44026" lon="1.43995">
        <ele>117</ele>
        <time>2021-10-02T14:29:23Z</time>
      </trkpt>
      <trkpt lat="44.44024" lon="1.43989">
        <ele>117</ele>
        <time>2021-10-02T14:29:25Z</time>
      </trkpt>
      <trkpt lat="44.44021" lon="1.4398">
        <ele>117</ele>
        <time>2021-10-02T14:29:26Z</time>
      </trkpt>
      <trkpt lat="44.44018" lon="1.43973">
        <ele>117</ele>
        <time>2021-10-02T14:29:28Z</time>
      </trkpt>
      <trkpt lat="44.44015" lon="1.4397">
        <ele>117</ele>
        <time>2021-10-02T14:29:29Z</time>
      </trkpt>
      <trkpt lat="44.44013" lon="1.43968">
        <ele>117</ele>
        <time>2021-10-02T14:29:30Z</time>
      </trkpt>
      <trkpt lat="44.4401" lon="1.43969">
        <ele>117</ele>
        <time>2021-10-02T14:29:31Z</time>
      </trkpt>
      <trkpt lat="44.44006" lon="1.43968">
        <ele>117</ele>
        <time>2021-10-02T14:29:32Z</time>
      </trkpt>
      <trkpt lat="44.44002" lon="1.43968">
        <ele>117</ele>
        <time>2021-10-02T14:29:33Z</time>
      </trkpt>
      <trkpt lat="44.43998" lon="1.43969">
        <ele>116.9</ele>
        <time>2021-10-02T14:29:34Z</time>
      </trkpt>
      <trkpt lat="44.43995" lon="1.4397">
        <ele>116.9</ele>
        <time>2021-10-02T14:29:36Z</time>
      </trkpt>
      <trkpt lat="44.43994" lon="1.4397">
        <ele>116.9</ele>
        <time>2021-10-02T14:29:37Z</time>
      </trkpt>
      <trkpt lat="44.43992" lon="1.4397">
        <ele>116.9</ele>
        <time>2021-10-02T14:29:38Z</time>
      </trkpt>
      <trkpt lat="44.4399" lon="1.4397">
        <ele>116.9</ele>
        <time>2021-10-02T14:29:40Z</time>
      </trkpt>
      <trkpt lat="44.43992" lon="1.43965">
        <ele>116.9</ele>
        <time>2021-10-02T14:29:42Z</time>
      </trkpt>
      <trkpt lat="44.43993" lon="1.43961">
        <ele>116.9</ele>
        <time>2021-10-02T14:29:43Z</time>
      </trkpt>
      <trkpt lat="44.43992" lon="1.43954">
        <ele>117</ele>
        <time>2021-10-02T14:29:44Z</time>
      </trkpt>
      <trkpt lat="44.4399" lon="1.4395">
        <ele>117</ele>
        <time>2021-10-02T14:29:45Z</time>
      </trkpt>
      <trkpt lat="44.43986" lon="1.43948">
        <ele>117.1</ele>
        <time>2021-10-02T14:29:47Z</time>
      </trkpt>
      <trkpt lat="44.43982" lon="1.43948">
        <ele>117.1</ele>
        <time>2021-10-02T14:29:48Z</time>
      </trkpt>
      <trkpt lat="44.43977" lon="1.43949">
        <ele>117.2</ele>
        <time>2021-10-02T14:29:49Z</time>
      </trkpt>
      <trkpt lat="44.4397" lon="1.43957">
        <ele>117.2</ele>
        <time>2021-10-02T14:29:51Z</time>
      </trkpt>
      <trkpt lat="44.43963" lon="1.43967">
        <ele>117.2</ele>
        <time>2021-10-02T14:29:53Z</time>
      </trkpt>
      <trkpt lat="44.43956" lon="1.43976">
        <ele>117.2</ele>
        <time>2021-10-02T14:29:55Z</time>
      </trkpt>
      <trkpt lat="44.43948" lon="1.43983">
        <ele>117.3</ele>
        <time>2021-10-02T14:29:57Z</time>
      </trkpt>
      <trkpt lat="44.43939" lon="1.43991">
        <ele>117.4</ele>
        <time>2021-10-02T14:29:59Z</time>
      </trkpt>
      <trkpt lat="44.43932" lon="1.43999">
        <ele>117.5</ele>
        <time>2021-10-02T14:30:01Z</time>
      </trkpt>
      <trkpt lat="44.43928" lon="1.44003">
        <ele>117.6</ele>
        <time>2021-10-02T14:30:02Z</time>
      </trkpt>
      <trkpt lat="44.43924" lon="1.44008">
        <ele>117.7</ele>
        <time>2021-10-02T14:30:03Z</time>
      </trkpt>
      <trkpt lat="44.43918" lon="1.44017">
        <ele>117.9</ele>
        <time>2021-10-02T14:30:05Z</time>
      </trkpt>
      <trkpt lat="44.43915" lon="1.44022">
        <ele>118</ele>
        <time>2021-10-02T14:30:06Z</time>
      </trkpt>
      <trkpt lat="44.43912" lon="1.44026">
        <ele>118.1</ele>
        <time>2021-10-02T14:30:07Z</time>
      </trkpt>
      <trkpt lat="44.43909" lon="1.44033">
        <ele>118.2</ele>
        <time>2021-10-02T14:30:08Z</time>
      </trkpt>
      <trkpt lat="44.43905" lon="1.44043">
        <ele>118.3</ele>
        <time>2021-10-02T14:30:10Z</time>
      </trkpt>
      <trkpt lat="44.43903" lon="1.44047">
        <ele>118.3</ele>
        <time>2021-10-02T14:30:11Z</time>
      </trkpt>
      <trkpt lat="44.439" lon="1.44057">
        <ele>118.3</ele>
        <time>2021-10-02T14:30:12Z</time>
      </trkpt>
      <trkpt lat="44.43897" lon="1.44062">
        <ele>118.4</ele>
        <time>2021-10-02T14:30:14Z</time>
      </trkpt>
      <trkpt lat="44.43894" lon="1.44069">
        <ele>118.4</ele>
        <time>2021-10-02T14:30:15Z</time>
      </trkpt>
      <trkpt lat="44.43892" lon="1.44075">
        <ele>118.5</ele>
        <time>2021-10-02T14:30:16Z</time>
      </trkpt>
      <trkpt lat="44.43889" lon="1.44081">
        <ele>118.5</ele>
        <time>2021-10-02T14:30:17Z</time>
      </trkpt>
      <trkpt lat="44.43888" lon="1.44084">
        <ele>118.5</ele>
        <time>2021-10-02T14:30:18Z</time>
      </trkpt>
      <trkpt lat="44.43884" lon="1.44093">
        <ele>118.6</ele>
        <time>2021-10-02T14:30:19Z</time>
      </trkpt>
      <trkpt lat="44.43882" lon="1.44099">
        <ele>118.7</ele>
        <time>2021-10-02T14:30:21Z</time>
      </trkpt>
      <trkpt lat="44.43879" lon="1.44103">
        <ele>118.8</ele>
        <time>2021-10-02T14:30:22Z</time>
      </trkpt>
      <trkpt lat="44.43871" lon="1.4411">
        <ele>119</ele>
        <time>2021-10-02T14:30:24Z</time>
      </trkpt>
      <trkpt lat="44.43868" lon="1.44113">
        <ele>119</ele>
        <time>2021-10-02T14:30:25Z</time>
      </trkpt>
      <trkpt lat="44.43863" lon="1.44116">
        <ele>119</ele>
        <time>2021-10-02T14:30:26Z</time>
      </trkpt>
      <trkpt lat="44.43854" lon="1.44119">
        <ele>118.9</ele>
        <time>2021-10-02T14:30:28Z</time>
      </trkpt>
      <trkpt lat="44.4385" lon="1.44121">
        <ele>118.9</ele>
        <time>2021-10-02T14:30:29Z</time>
      </trkpt>
      <trkpt lat="44.43847" lon="1.4412">
        <ele>118.9</ele>
        <time>2021-10-02T14:30:30Z</time>
      </trkpt>
      <trkpt lat="44.43838" lon="1.44123">
        <ele>118.8</ele>
        <time>2021-10-02T14:30:31Z</time>
      </trkpt>
      <trkpt lat="44.43833" lon="1.44124">
        <ele>118.7</ele>
        <time>2021-10-02T14:30:33Z</time>
      </trkpt>
      <trkpt lat="44.43828" lon="1.44124">
        <ele>118.7</ele>
        <time>2021-10-02T14:30:34Z</time>
      </trkpt>
      <trkpt lat="44.43821" lon="1.44125">
        <ele>118.6</ele>
        <time>2021-10-02T14:30:35Z</time>
      </trkpt>
      <trkpt lat="44.43816" lon="1.44126">
        <ele>118.6</ele>
        <time>2021-10-02T14:30:37Z</time>
      </trkpt>
      <trkpt lat="44.43806" lon="1.44126">
        <ele>118.5</ele>
        <time>2021-10-02T14:30:39Z</time>
      </trkpt>
      <trkpt lat="44.43796" lon="1.4412">
        <ele>118.4</ele>
        <time>2021-10-02T14:30:41Z</time>
      </trkpt>
      <trkpt lat="44.43785" lon="1.44115">
        <ele>118.4</ele>
        <time>2021-10-02T14:30:43Z</time>
      </trkpt>
      <trkpt lat="44.4378" lon="1.44114">
        <ele>118.4</ele>
        <time>2021-10-02T14:30:44Z</time>
      </trkpt>
      <trkpt lat="44.43774" lon="1.44115">
        <ele>118.4</ele>
        <time>2021-10-02T14:30:45Z</time>
      </trkpt>
      <trkpt lat="44.43768" lon="1.44116">
        <ele>118.4</ele>
        <time>2021-10-02T14:30:46Z</time>
      </trkpt>
      <trkpt lat="44.43758" lon="1.4412">
        <ele>118.4</ele>
        <time>2021-10-02T14:30:48Z</time>
      </trkpt>
      <trkpt lat="44.43747" lon="1.44126">
        <ele>118.4</ele>
        <time>2021-10-02T14:30:50Z</time>
      </trkpt>
      <trkpt lat="44.43742" lon="1.44129">
        <ele>118.4</ele>
        <time>2021-10-02T14:30:51Z</time>
      </trkpt>
      <trkpt lat="44.43733" lon="1.44135">
        <ele>118.4</ele>
        <time>2021-10-02T14:30:53Z</time>
      </trkpt>
      <trkpt lat="44.43729" lon="1.44138">
        <ele>118.4</ele>
        <time>2021-10-02T14:30:54Z</time>
      </trkpt>
      <trkpt lat="44.43722" lon="1.44143">
        <ele>118.5</ele>
        <time>2021-10-02T14:30:56Z</time>
      </trkpt>
      <trkpt lat="44.43714" lon="1.4415">
        <ele>118.5</ele>
        <time>2021-10-02T14:30:58Z</time>
      </trkpt>
      <trkpt lat="44.43705" lon="1.44156">
        <ele>118.6</ele>
        <time>2021-10-02T14:31:00Z</time>
      </trkpt>
      <trkpt lat="44.43701" lon="1.44159">
        <ele>118.6</ele>
        <time>2021-10-02T14:31:01Z</time>
      </trkpt>
      <trkpt lat="44.43697" lon="1.44162">
        <ele>118.6</ele>
        <time>2021-10-02T14:31:02Z</time>
      </trkpt>
      <trkpt lat="44.43691" lon="1.44167">
        <ele>118.7</ele>
        <time>2021-10-02T14:31:03Z</time>
      </trkpt>
      <trkpt lat="44.43688" lon="1.4417">
        <ele>118.7</ele>
        <time>2021-10-02T14:31:04Z</time>
      </trkpt>
      <trkpt lat="44.43681" lon="1.44175">
        <ele>118.7</ele>
        <time>2021-10-02T14:31:06Z</time>
      </trkpt>
      <trkpt lat="44.43676" lon="1.44179">
        <ele>118.7</ele>
        <time>2021-10-02T14:31:07Z</time>
      </trkpt>
      <trkpt lat="44.43671" lon="1.44182">
        <ele>118.8</ele>
        <time>2021-10-02T14:31:09Z</time>
      </trkpt>
      <trkpt lat="44.43665" lon="1.44186">
        <ele>118.8</ele>
        <time>2021-10-02T14:31:10Z</time>
      </trkpt>
      <trkpt lat="44.4366" lon="1.4419">
        <ele>118.9</ele>
        <time>2021-10-02T14:31:12Z</time>
      </trkpt>
      <trkpt lat="44.43656" lon="1.44192">
        <ele>118.9</ele>
        <time>2021-10-02T14:31:13Z</time>
      </trkpt>
      <trkpt lat="44.4365" lon="1.44197">
        <ele>119</ele>
        <time>2021-10-02T14:31:14Z</time>
      </trkpt>
      <trkpt lat="44.43644" lon="1.44201">
        <ele>119</ele>
        <time>2021-10-02T14:31:16Z</time>
      </trkpt>
      <trkpt lat="44.43638" lon="1.44206">
        <ele>119.1</ele>
        <time>2021-10-02T14:31:17Z</time>
      </trkpt>
      <trkpt lat="44.43633" lon="1.44209">
        <ele>119.1</ele>
        <time>2021-10-02T14:31:19Z</time>
      </trkpt>
      <trkpt lat="44.43629" lon="1.44212">
        <ele>119.2</ele>
        <time>2021-10-02T14:31:20Z</time>
      </trkpt>
      <trkpt lat="44.43624" lon="1.44215">
        <ele>119.2</ele>
        <time>2021-10-02T14:31:21Z</time>
      </trkpt>
      <trkpt lat="44.43616" lon="1.44221">
        <ele>119.2</ele>
        <time>2021-10-02T14:31:23Z</time>
      </trkpt>
      <trkpt lat="44.43613" lon="1.44224">
        <ele>119.3</ele>
        <time>2021-10-02T14:31:24Z</time>
      </trkpt>
      <trkpt lat="44.43609" lon="1.44226">
        <ele>119.3</ele>
        <time>2021-10-02T14:31:25Z</time>
      </trkpt>
      <trkpt lat="44.436" lon="1.44231">
        <ele>119.3</ele>
        <time>2021-10-02T14:31:27Z</time>
      </trkpt>
      <trkpt lat="44.4359" lon="1.44238">
        <ele>119.5</ele>
        <time>2021-10-02T14:31:29Z</time>
      </trkpt>
      <trkpt lat="44.43585" lon="1.4424">
        <ele>119.5</ele>
        <time>2021-10-02T14:31:30Z</time>
      </trkpt>
      <trkpt lat="44.43576" lon="1.44245">
        <ele>119.6</ele>
        <time>2021-10-02T14:31:32Z</time>
      </trkpt>
      <trkpt lat="44.43571" lon="1.44248">
        <ele>119.7</ele>
        <time>2021-10-02T14:31:33Z</time>
      </trkpt>
      <trkpt lat="44.43562" lon="1.44253">
        <ele>119.8</ele>
        <time>2021-10-02T14:31:35Z</time>
      </trkpt>
      <trkpt lat="44.43553" lon="1.44257">
        <ele>119.8</ele>
        <time>2021-10-02T14:31:37Z</time>
      </trkpt>
      <trkpt lat="44.43548" lon="1.44259">
        <ele>119.9</ele>
        <time>2021-10-02T14:31:38Z</time>
      </trkpt>
      <trkpt lat="44.43544" lon="1.44259">
        <ele>120</ele>
        <time>2021-10-02T14:31:39Z</time>
      </trkpt>
      <trkpt lat="44.4354" lon="1.44259">
        <ele>120.1</ele>
        <time>2021-10-02T14:31:40Z</time>
      </trkpt>
      <trkpt lat="44.43533" lon="1.44258">
        <ele>120.3</ele>
        <time>2021-10-02T14:31:41Z</time>
      </trkpt>
      <trkpt lat="44.4353" lon="1.44257">
        <ele>120.5</ele>
        <time>2021-10-02T14:31:43Z</time>
      </trkpt>
      <trkpt lat="44.43525" lon="1.44256">
        <ele>120.7</ele>
        <time>2021-10-02T14:31:44Z</time>
      </trkpt>
      <trkpt lat="44.43522" lon="1.44255">
        <ele>120.9</ele>
        <time>2021-10-02T14:31:45Z</time>
      </trkpt>
      <trkpt lat="44.43519" lon="1.44255">
        <ele>121</ele>
        <time>2021-10-02T14:31:47Z</time>
      </trkpt>
      <trkpt lat="44.43514" lon="1.44254">
        <ele>121.3</ele>
        <time>2021-10-02T14:31:48Z</time>
      </trkpt>
      <trkpt lat="44.4351" lon="1.44253">
        <ele>121.5</ele>
        <time>2021-10-02T14:31:49Z</time>
      </trkpt>
      <trkpt lat="44.43505" lon="1.44253">
        <ele>121.9</ele>
        <time>2021-10-02T14:31:51Z</time>
      </trkpt>
      <trkpt lat="44.43497" lon="1.44253">
        <ele>122.4</ele>
        <time>2021-10-02T14:31:53Z</time>
      </trkpt>
      <trkpt lat="44.43494" lon="1.44252">
        <ele>122.6</ele>
        <time>2021-10-02T14:31:54Z</time>
      </trkpt>
      <trkpt lat="44.43489" lon="1.44252">
        <ele>123</ele>
        <time>2021-10-02T14:31:55Z</time>
      </trkpt>
      <trkpt lat="44.43485" lon="1.44253">
        <ele>123.3</ele>
        <time>2021-10-02T14:31:56Z</time>
      </trkpt>
      <trkpt lat="44.4348" lon="1.44254">
        <ele>123.7</ele>
        <time>2021-10-02T14:31:57Z</time>
      </trkpt>
      <trkpt lat="44.43477" lon="1.44255">
        <ele>124</ele>
        <time>2021-10-02T14:31:59Z</time>
      </trkpt>
      <trkpt lat="44.43474" lon="1.44256">
        <ele>124.3</ele>
        <time>2021-10-02T14:32:00Z</time>
      </trkpt>
      <trkpt lat="44.4347" lon="1.44259">
        <ele>124.7</ele>
        <time>2021-10-02T14:32:01Z</time>
      </trkpt>
      <trkpt lat="44.43466" lon="1.44261">
        <ele>125</ele>
        <time>2021-10-02T14:32:03Z</time>
      </trkpt>
      <trkpt lat="44.43461" lon="1.44264">
        <ele>125.5</ele>
        <time>2021-10-02T14:32:05Z</time>
      </trkpt>
      <trkpt lat="44.43458" lon="1.44266">
        <ele>125.8</ele>
        <time>2021-10-02T14:32:06Z</time>
      </trkpt>
      <trkpt lat="44.43453" lon="1.44269">
        <ele>126.2</ele>
        <time>2021-10-02T14:32:07Z</time>
      </trkpt>
      <trkpt lat="44.43449" lon="1.44271">
        <ele>126.5</ele>
        <time>2021-10-02T14:32:09Z</time>
      </trkpt>
      <trkpt lat="44.43445" lon="1.44272">
        <ele>126.8</ele>
        <time>2021-10-02T14:32:10Z</time>
      </trkpt>
      <trkpt lat="44.43442" lon="1.44272">
        <ele>127</ele>
        <time>2021-10-02T14:32:11Z</time>
      </trkpt>
      <trkpt lat="44.43438" lon="1.44271">
        <ele>127.3</ele>
        <time>2021-10-02T14:32:13Z</time>
      </trkpt>
      <trkpt lat="44.43434" lon="1.4427">
        <ele>127.5</ele>
        <time>2021-10-02T14:32:14Z</time>
      </trkpt>
      <trkpt lat="44.43433" lon="1.44269">
        <ele>127.6</ele>
        <time>2021-10-02T14:32:15Z</time>
      </trkpt>
      <trkpt lat="44.4343" lon="1.44268">
        <ele>127.8</ele>
        <time>2021-10-02T14:32:16Z</time>
      </trkpt>
      <trkpt lat="44.43426" lon="1.44267">
        <ele>128</ele>
        <time>2021-10-02T14:32:18Z</time>
      </trkpt>
      <trkpt lat="44.43425" lon="1.44267">
        <ele>128</ele>
        <time>2021-10-02T14:32:19Z</time>
      </trkpt>
      <trkpt lat="44.43421" lon="1.44268">
        <ele>128.1</ele>
        <time>2021-10-02T14:32:20Z</time>
      </trkpt>
      <trkpt lat="44.43418" lon="1.4427">
        <ele>128.2</ele>
        <time>2021-10-02T14:32:21Z</time>
      </trkpt>
      <trkpt lat="44.43414" lon="1.44272">
        <ele>128.2</ele>
        <time>2021-10-02T14:32:23Z</time>
      </trkpt>
      <trkpt lat="44.43408" lon="1.44275">
        <ele>128.3</ele>
        <time>2021-10-02T14:32:25Z</time>
      </trkpt>
      <trkpt lat="44.43405" lon="1.44277">
        <ele>128.3</ele>
        <time>2021-10-02T14:32:26Z</time>
      </trkpt>
      <trkpt lat="44.43401" lon="1.44279">
        <ele>128.3</ele>
        <time>2021-10-02T14:32:28Z</time>
      </trkpt>
      <trkpt lat="44.43398" lon="1.4428">
        <ele>128.3</ele>
        <time>2021-10-02T14:32:29Z</time>
      </trkpt>
      <trkpt lat="44.43392" lon="1.44284">
        <ele>128.3</ele>
        <time>2021-10-02T14:32:30Z</time>
      </trkpt>
      <trkpt lat="44.43388" lon="1.44287">
        <ele>128.4</ele>
        <time>2021-10-02T14:32:32Z</time>
      </trkpt>
      <trkpt lat="44.43384" lon="1.44289">
        <ele>128.4</ele>
        <time>2021-10-02T14:32:33Z</time>
      </trkpt>
      <trkpt lat="44.4338" lon="1.44293">
        <ele>128.4</ele>
        <time>2021-10-02T14:32:34Z</time>
      </trkpt>
      <trkpt lat="44.43375" lon="1.44295">
        <ele>128.4</ele>
        <time>2021-10-02T14:32:36Z</time>
      </trkpt>
      <trkpt lat="44.43368" lon="1.44298">
        <ele>128.3</ele>
        <time>2021-10-02T14:32:37Z</time>
      </trkpt>
      <trkpt lat="44.43362" lon="1.44302">
        <ele>128.3</ele>
        <time>2021-10-02T14:32:39Z</time>
      </trkpt>
      <trkpt lat="44.43357" lon="1.44307">
        <ele>128.3</ele>
        <time>2021-10-02T14:32:41Z</time>
      </trkpt>
      <trkpt lat="44.43348" lon="1.44311">
        <ele>128.3</ele>
        <time>2021-10-02T14:32:43Z</time>
      </trkpt>
      <trkpt lat="44.43344" lon="1.44314">
        <ele>128.3</ele>
        <time>2021-10-02T14:32:44Z</time>
      </trkpt>
      <trkpt lat="44.43338" lon="1.44317">
        <ele>128.3</ele>
        <time>2021-10-02T14:32:45Z</time>
      </trkpt>
      <trkpt lat="44.43332" lon="1.44319">
        <ele>128.3</ele>
        <time>2021-10-02T14:32:47Z</time>
      </trkpt>
      <trkpt lat="44.43328" lon="1.4432">
        <ele>128.3</ele>
        <time>2021-10-02T14:32:48Z</time>
      </trkpt>
      <trkpt lat="44.43323" lon="1.44322">
        <ele>128.2</ele>
        <time>2021-10-02T14:32:50Z</time>
      </trkpt>
      <trkpt lat="44.43319" lon="1.44324">
        <ele>128.2</ele>
        <time>2021-10-02T14:32:51Z</time>
      </trkpt>
      <trkpt lat="44.43315" lon="1.44325">
        <ele>128.2</ele>
        <time>2021-10-02T14:32:52Z</time>
      </trkpt>
      <trkpt lat="44.43309" lon="1.44325">
        <ele>128.2</ele>
        <time>2021-10-02T14:32:53Z</time>
      </trkpt>
      <trkpt lat="44.43303" lon="1.44326">
        <ele>128.2</ele>
        <time>2021-10-02T14:32:54Z</time>
      </trkpt>
      <trkpt lat="44.43295" lon="1.44328">
        <ele>128.1</ele>
        <time>2021-10-02T14:32:56Z</time>
      </trkpt>
      <trkpt lat="44.43289" lon="1.44328">
        <ele>128.1</ele>
        <time>2021-10-02T14:32:57Z</time>
      </trkpt>
      <trkpt lat="44.43284" lon="1.44328">
        <ele>128</ele>
        <time>2021-10-02T14:32:59Z</time>
      </trkpt>
      <trkpt lat="44.43278" lon="1.44327">
        <ele>128</ele>
        <time>2021-10-02T14:33:00Z</time>
      </trkpt>
      <trkpt lat="44.43271" lon="1.44326">
        <ele>127.9</ele>
        <time>2021-10-02T14:33:02Z</time>
      </trkpt>
      <trkpt lat="44.43264" lon="1.44326">
        <ele>127.9</ele>
        <time>2021-10-02T14:33:04Z</time>
      </trkpt>
      <trkpt lat="44.43259" lon="1.44325">
        <ele>127.8</ele>
        <time>2021-10-02T14:33:05Z</time>
      </trkpt>
      <trkpt lat="44.43252" lon="1.44325">
        <ele>127.7</ele>
        <time>2021-10-02T14:33:07Z</time>
      </trkpt>
      <trkpt lat="44.43247" lon="1.44326">
        <ele>127.6</ele>
        <time>2021-10-02T14:33:08Z</time>
      </trkpt>
      <trkpt lat="44.43242" lon="1.44326">
        <ele>127.6</ele>
        <time>2021-10-02T14:33:09Z</time>
      </trkpt>
      <trkpt lat="44.43238" lon="1.44326">
        <ele>127.5</ele>
        <time>2021-10-02T14:33:10Z</time>
      </trkpt>
      <trkpt lat="44.43228" lon="1.44326">
        <ele>127.3</ele>
        <time>2021-10-02T14:33:12Z</time>
      </trkpt>
      <trkpt lat="44.43218" lon="1.44323">
        <ele>127.1</ele>
        <time>2021-10-02T14:33:14Z</time>
      </trkpt>
      <trkpt lat="44.43214" lon="1.44322">
        <ele>127</ele>
        <time>2021-10-02T14:33:15Z</time>
      </trkpt>
      <trkpt lat="44.43204" lon="1.44318">
        <ele>126.8</ele>
        <time>2021-10-02T14:33:17Z</time>
      </trkpt>
      <trkpt lat="44.43194" lon="1.44313">
        <ele>126.7</ele>
        <time>2021-10-02T14:33:19Z</time>
      </trkpt>
      <trkpt lat="44.43183" lon="1.44308">
        <ele>126.5</ele>
        <time>2021-10-02T14:33:21Z</time>
      </trkpt>
      <trkpt lat="44.43178" lon="1.44304">
        <ele>126.4</ele>
        <time>2021-10-02T14:33:22Z</time>
      </trkpt>
      <trkpt lat="44.43167" lon="1.44298">
        <ele>126.2</ele>
        <time>2021-10-02T14:33:24Z</time>
      </trkpt>
      <trkpt lat="44.43162" lon="1.44295">
        <ele>126.1</ele>
        <time>2021-10-02T14:33:25Z</time>
      </trkpt>
      <trkpt lat="44.43156" lon="1.44292">
        <ele>126.1</ele>
        <time>2021-10-02T14:33:26Z</time>
      </trkpt>
      <trkpt lat="44.43145" lon="1.44286">
        <ele>125.9</ele>
        <time>2021-10-02T14:33:28Z</time>
      </trkpt>
      <trkpt lat="44.43135" lon="1.44279">
        <ele>125.9</ele>
        <time>2021-10-02T14:33:30Z</time>
      </trkpt>
      <trkpt lat="44.4313" lon="1.44275">
        <ele>125.8</ele>
        <time>2021-10-02T14:33:31Z</time>
      </trkpt>
      <trkpt lat="44.43125" lon="1.4427">
        <ele>125.8</ele>
        <time>2021-10-02T14:33:32Z</time>
      </trkpt>
      <trkpt lat="44.4312" lon="1.44266">
        <ele>125.8</ele>
        <time>2021-10-02T14:33:33Z</time>
      </trkpt>
      <trkpt lat="44.43109" lon="1.44258">
        <ele>125.8</ele>
        <time>2021-10-02T14:33:35Z</time>
      </trkpt>
      <trkpt lat="44.431" lon="1.44249">
        <ele>125.8</ele>
        <time>2021-10-02T14:33:37Z</time>
      </trkpt>
      <trkpt lat="44.43092" lon="1.44239">
        <ele>125.8</ele>
        <time>2021-10-02T14:33:39Z</time>
      </trkpt>
      <trkpt lat="44.43088" lon="1.44234">
        <ele>125.8</ele>
        <time>2021-10-02T14:33:40Z</time>
      </trkpt>
      <trkpt lat="44.43081" lon="1.44224">
        <ele>125.8</ele>
        <time>2021-10-02T14:33:42Z</time>
      </trkpt>
      <trkpt lat="44.43073" lon="1.44214">
        <ele>125.8</ele>
        <time>2021-10-02T14:33:44Z</time>
      </trkpt>
      <trkpt lat="44.4307" lon="1.44209">
        <ele>125.9</ele>
        <time>2021-10-02T14:33:45Z</time>
      </trkpt>
      <trkpt lat="44.43062" lon="1.442">
        <ele>125.9</ele>
        <time>2021-10-02T14:33:47Z</time>
      </trkpt>
      <trkpt lat="44.43058" lon="1.44196">
        <ele>125.9</ele>
        <time>2021-10-02T14:33:48Z</time>
      </trkpt>
      <trkpt lat="44.43054" lon="1.44191">
        <ele>125.9</ele>
        <time>2021-10-02T14:33:49Z</time>
      </trkpt>
      <trkpt lat="44.43045" lon="1.44183">
        <ele>125.9</ele>
        <time>2021-10-02T14:33:51Z</time>
      </trkpt>
      <trkpt lat="44.43037" lon="1.44174">
        <ele>125.9</ele>
        <time>2021-10-02T14:33:53Z</time>
      </trkpt>
      <trkpt lat="44.43028" lon="1.44167">
        <ele>126</ele>
        <time>2021-10-02T14:33:55Z</time>
      </trkpt>
      <trkpt lat="44.43023" lon="1.44163">
        <ele>126</ele>
        <time>2021-10-02T14:33:56Z</time>
      </trkpt>
      <trkpt lat="44.43014" lon="1.44157">
        <ele>126.1</ele>
        <time>2021-10-02T14:33:58Z</time>
      </trkpt>
      <trkpt lat="44.43005" lon="1.44152">
        <ele>126.2</ele>
        <time>2021-10-02T14:34:00Z</time>
      </trkpt>
      <trkpt lat="44.42996" lon="1.44149">
        <ele>126.3</ele>
        <time>2021-10-02T14:34:02Z</time>
      </trkpt>
      <trkpt lat="44.42991" lon="1.44147">
        <ele>126.4</ele>
        <time>2021-10-02T14:34:03Z</time>
      </trkpt>
      <trkpt lat="44.42982" lon="1.44143">
        <ele>126.5</ele>
        <time>2021-10-02T14:34:05Z</time>
      </trkpt>
      <trkpt lat="44.42977" lon="1.44142">
        <ele>126.6</ele>
        <time>2021-10-02T14:34:06Z</time>
      </trkpt>
      <trkpt lat="44.42971" lon="1.44137">
        <ele>126.7</ele>
        <time>2021-10-02T14:34:08Z</time>
      </trkpt>
      <trkpt lat="44.42967" lon="1.44128">
        <ele>126.7</ele>
        <time>2021-10-02T14:34:10Z</time>
      </trkpt>
      <trkpt lat="44.42963" lon="1.44118">
        <ele>126.8</ele>
        <time>2021-10-02T14:34:12Z</time>
      </trkpt>
      <trkpt lat="44.42961" lon="1.44113">
        <ele>126.9</ele>
        <time>2021-10-02T14:34:13Z</time>
      </trkpt>
      <trkpt lat="44.42959" lon="1.44107">
        <ele>126.9</ele>
        <time>2021-10-02T14:34:14Z</time>
      </trkpt>
      <trkpt lat="44.42957" lon="1.44099">
        <ele>127.1</ele>
        <time>2021-10-02T14:34:16Z</time>
      </trkpt>
      <trkpt lat="44.42955" lon="1.44094">
        <ele>127.1</ele>
        <time>2021-10-02T14:34:17Z</time>
      </trkpt>
      <trkpt lat="44.42954" lon="1.4409">
        <ele>127.2</ele>
        <time>2021-10-02T14:34:18Z</time>
      </trkpt>
      <trkpt lat="44.42953" lon="1.44085">
        <ele>127.3</ele>
        <time>2021-10-02T14:34:19Z</time>
      </trkpt>
      <trkpt lat="44.42952" lon="1.44081">
        <ele>127.3</ele>
        <time>2021-10-02T14:34:20Z</time>
      </trkpt>
      <trkpt lat="44.42951" lon="1.44072">
        <ele>127.4</ele>
        <time>2021-10-02T14:34:21Z</time>
      </trkpt>
      <trkpt lat="44.42949" lon="1.44066">
        <ele>127.5</ele>
        <time>2021-10-02T14:34:22Z</time>
      </trkpt>
      <trkpt lat="44.42947" lon="1.44059">
        <ele>127.6</ele>
        <time>2021-10-02T14:34:24Z</time>
      </trkpt>
      <trkpt lat="44.42944" lon="1.4405">
        <ele>127.7</ele>
        <time>2021-10-02T14:34:25Z</time>
      </trkpt>
      <trkpt lat="44.42941" lon="1.44043">
        <ele>127.8</ele>
        <time>2021-10-02T14:34:27Z</time>
      </trkpt>
      <trkpt lat="44.42939" lon="1.44037">
        <ele>127.9</ele>
        <time>2021-10-02T14:34:28Z</time>
      </trkpt>
      <trkpt lat="44.42937" lon="1.44033">
        <ele>128.1</ele>
        <time>2021-10-02T14:34:29Z</time>
      </trkpt>
      <trkpt lat="44.42934" lon="1.44026">
        <ele>128.2</ele>
        <time>2021-10-02T14:34:30Z</time>
      </trkpt>
      <trkpt lat="44.42933" lon="1.44021">
        <ele>128.3</ele>
        <time>2021-10-02T14:34:32Z</time>
      </trkpt>
      <trkpt lat="44.42933" lon="1.44017">
        <ele>128.4</ele>
        <time>2021-10-02T14:34:33Z</time>
      </trkpt>
      <trkpt lat="44.42935" lon="1.44011">
        <ele>128.6</ele>
        <time>2021-10-02T14:34:34Z</time>
      </trkpt>
      <trkpt lat="44.42936" lon="1.44007">
        <ele>128.7</ele>
        <time>2021-10-02T14:34:35Z</time>
      </trkpt>
      <trkpt lat="44.42937" lon="1.44003">
        <ele>128.7</ele>
        <time>2021-10-02T14:34:37Z</time>
      </trkpt>
      <trkpt lat="44.42934" lon="1.43997">
        <ele>128.8</ele>
        <time>2021-10-02T14:34:38Z</time>
      </trkpt>
      <trkpt lat="44.42932" lon="1.43993">
        <ele>128.9</ele>
        <time>2021-10-02T14:34:40Z</time>
      </trkpt>
      <trkpt lat="44.42928" lon="1.43987">
        <ele>129</ele>
        <time>2021-10-02T14:34:41Z</time>
      </trkpt>
      <trkpt lat="44.42926" lon="1.43983">
        <ele>129</ele>
        <time>2021-10-02T14:34:43Z</time>
      </trkpt>
      <trkpt lat="44.42921" lon="1.43977">
        <ele>129.1</ele>
        <time>2021-10-02T14:34:44Z</time>
      </trkpt>
      <trkpt lat="44.42917" lon="1.43973">
        <ele>129.2</ele>
        <time>2021-10-02T14:34:46Z</time>
      </trkpt>
      <trkpt lat="44.42914" lon="1.43966">
        <ele>129.2</ele>
        <time>2021-10-02T14:34:47Z</time>
      </trkpt>
      <trkpt lat="44.4291" lon="1.43958">
        <ele>129.3</ele>
        <time>2021-10-02T14:34:49Z</time>
      </trkpt>
      <trkpt lat="44.42908" lon="1.43952">
        <ele>129.4</ele>
        <time>2021-10-02T14:34:50Z</time>
      </trkpt>
      <trkpt lat="44.42907" lon="1.43946">
        <ele>129.4</ele>
        <time>2021-10-02T14:34:51Z</time>
      </trkpt>
      <trkpt lat="44.42904" lon="1.43937">
        <ele>129.5</ele>
        <time>2021-10-02T14:34:52Z</time>
      </trkpt>
      <trkpt lat="44.42902" lon="1.43931">
        <ele>129.6</ele>
        <time>2021-10-02T14:34:54Z</time>
      </trkpt>
      <trkpt lat="44.429" lon="1.43925">
        <ele>129.7</ele>
        <time>2021-10-02T14:34:55Z</time>
      </trkpt>
      <trkpt lat="44.42897" lon="1.43917">
        <ele>129.8</ele>
        <time>2021-10-02T14:34:56Z</time>
      </trkpt>
      <trkpt lat="44.42894" lon="1.4391">
        <ele>129.9</ele>
        <time>2021-10-02T14:34:58Z</time>
      </trkpt>
      <trkpt lat="44.42892" lon="1.43905">
        <ele>130</ele>
        <time>2021-10-02T14:34:59Z</time>
      </trkpt>
      <trkpt lat="44.4289" lon="1.43898">
        <ele>130.1</ele>
        <time>2021-10-02T14:35:00Z</time>
      </trkpt>
      <trkpt lat="44.42887" lon="1.43893">
        <ele>130.2</ele>
        <time>2021-10-02T14:35:01Z</time>
      </trkpt>
      <trkpt lat="44.42885" lon="1.43887">
        <ele>130.4</ele>
        <time>2021-10-02T14:35:02Z</time>
      </trkpt>
      <trkpt lat="44.42883" lon="1.43881">
        <ele>130.5</ele>
        <time>2021-10-02T14:35:04Z</time>
      </trkpt>
      <trkpt lat="44.4288" lon="1.43877">
        <ele>130.7</ele>
        <time>2021-10-02T14:35:05Z</time>
      </trkpt>
      <trkpt lat="44.42878" lon="1.43872">
        <ele>130.8</ele>
        <time>2021-10-02T14:35:06Z</time>
      </trkpt>
      <trkpt lat="44.42876" lon="1.43867">
        <ele>131</ele>
        <time>2021-10-02T14:35:07Z</time>
      </trkpt>
      <trkpt lat="44.42873" lon="1.43859">
        <ele>131.3</ele>
        <time>2021-10-02T14:35:09Z</time>
      </trkpt>
      <trkpt lat="44.42872" lon="1.43853">
        <ele>131.5</ele>
        <time>2021-10-02T14:35:10Z</time>
      </trkpt>
      <trkpt lat="44.42869" lon="1.43849">
        <ele>131.7</ele>
        <time>2021-10-02T14:35:11Z</time>
      </trkpt>
      <trkpt lat="44.42864" lon="1.43843">
        <ele>132</ele>
        <time>2021-10-02T14:35:13Z</time>
      </trkpt>
      <trkpt lat="44.42863" lon="1.4384">
        <ele>132.1</ele>
        <time>2021-10-02T14:35:14Z</time>
      </trkpt>
      <trkpt lat="44.42863" lon="1.43835">
        <ele>132.3</ele>
        <time>2021-10-02T14:35:16Z</time>
      </trkpt>
      <trkpt lat="44.42862" lon="1.43828">
        <ele>132.5</ele>
        <time>2021-10-02T14:35:18Z</time>
      </trkpt>
      <trkpt lat="44.42861" lon="1.43821">
        <ele>132.8</ele>
        <time>2021-10-02T14:35:20Z</time>
      </trkpt>
      <trkpt lat="44.4286" lon="1.43813">
        <ele>133.1</ele>
        <time>2021-10-02T14:35:22Z</time>
      </trkpt>
      <trkpt lat="44.4286" lon="1.43808">
        <ele>133.2</ele>
        <time>2021-10-02T14:35:23Z</time>
      </trkpt>
      <trkpt lat="44.42859" lon="1.43804">
        <ele>133.3</ele>
        <time>2021-10-02T14:35:24Z</time>
      </trkpt>
      <trkpt lat="44.42858" lon="1.43799">
        <ele>133.5</ele>
        <time>2021-10-02T14:35:25Z</time>
      </trkpt>
      <trkpt lat="44.42858" lon="1.43798">
        <ele>133.6</ele>
        <time>2021-10-02T14:35:26Z</time>
      </trkpt>
      <trkpt lat="44.42856" lon="1.43792">
        <ele>133.7</ele>
        <time>2021-10-02T14:35:28Z</time>
      </trkpt>
      <trkpt lat="44.42856" lon="1.43788">
        <ele>133.9</ele>
        <time>2021-10-02T14:35:29Z</time>
      </trkpt>
      <trkpt lat="44.42854" lon="1.43781">
        <ele>134.1</ele>
        <time>2021-10-02T14:35:31Z</time>
      </trkpt>
      <trkpt lat="44.42853" lon="1.43773">
        <ele>134.2</ele>
        <time>2021-10-02T14:35:33Z</time>
      </trkpt>
      <trkpt lat="44.42852" lon="1.43768">
        <ele>134.4</ele>
        <time>2021-10-02T14:35:35Z</time>
      </trkpt>
      <trkpt lat="44.4285" lon="1.43763">
        <ele>134.5</ele>
        <time>2021-10-02T14:35:36Z</time>
      </trkpt>
      <trkpt lat="44.42849" lon="1.4376">
        <ele>134.6</ele>
        <time>2021-10-02T14:35:37Z</time>
      </trkpt>
      <trkpt lat="44.42847" lon="1.43753">
        <ele>134.7</ele>
        <time>2021-10-02T14:35:39Z</time>
      </trkpt>
      <trkpt lat="44.42846" lon="1.43746">
        <ele>134.8</ele>
        <time>2021-10-02T14:35:41Z</time>
      </trkpt>
      <trkpt lat="44.42843" lon="1.43739">
        <ele>134.8</ele>
        <time>2021-10-02T14:35:43Z</time>
      </trkpt>
      <trkpt lat="44.42841" lon="1.43735">
        <ele>134.8</ele>
        <time>2021-10-02T14:35:44Z</time>
      </trkpt>
      <trkpt lat="44.42839" lon="1.43728">
        <ele>134.8</ele>
        <time>2021-10-02T14:35:45Z</time>
      </trkpt>
      <trkpt lat="44.42836" lon="1.4372">
        <ele>134.8</ele>
        <time>2021-10-02T14:35:48Z</time>
      </trkpt>
      <trkpt lat="44.42835" lon="1.43716">
        <ele>134.8</ele>
        <time>2021-10-02T14:35:49Z</time>
      </trkpt>
      <trkpt lat="44.42832" lon="1.43707">
        <ele>134.7</ele>
        <time>2021-10-02T14:35:51Z</time>
      </trkpt>
      <trkpt lat="44.4283" lon="1.43703">
        <ele>134.7</ele>
        <time>2021-10-02T14:35:52Z</time>
      </trkpt>
      <trkpt lat="44.42827" lon="1.43694">
        <ele>134.7</ele>
        <time>2021-10-02T14:35:53Z</time>
      </trkpt>
      <trkpt lat="44.42825" lon="1.43688">
        <ele>134.7</ele>
        <time>2021-10-02T14:35:55Z</time>
      </trkpt>
      <trkpt lat="44.42823" lon="1.43682">
        <ele>134.6</ele>
        <time>2021-10-02T14:35:56Z</time>
      </trkpt>
      <trkpt lat="44.42819" lon="1.43671">
        <ele>134.6</ele>
        <time>2021-10-02T14:35:58Z</time>
      </trkpt>
      <trkpt lat="44.42816" lon="1.43662">
        <ele>134.5</ele>
        <time>2021-10-02T14:35:59Z</time>
      </trkpt>
      <trkpt lat="44.42813" lon="1.43654">
        <ele>134.5</ele>
        <time>2021-10-02T14:36:01Z</time>
      </trkpt>
      <trkpt lat="44.42811" lon="1.43648">
        <ele>134.4</ele>
        <time>2021-10-02T14:36:02Z</time>
      </trkpt>
      <trkpt lat="44.42807" lon="1.43637">
        <ele>134.5</ele>
        <time>2021-10-02T14:36:04Z</time>
      </trkpt>
      <trkpt lat="44.42806" lon="1.43632">
        <ele>134.5</ele>
        <time>2021-10-02T14:36:05Z</time>
      </trkpt>
      <trkpt lat="44.42804" lon="1.43624">
        <ele>134.6</ele>
        <time>2021-10-02T14:36:06Z</time>
      </trkpt>
      <trkpt lat="44.42802" lon="1.43616">
        <ele>134.7</ele>
        <time>2021-10-02T14:36:08Z</time>
      </trkpt>
      <trkpt lat="44.42799" lon="1.43605">
        <ele>134.9</ele>
        <time>2021-10-02T14:36:10Z</time>
      </trkpt>
      <trkpt lat="44.42798" lon="1.436">
        <ele>135</ele>
        <time>2021-10-02T14:36:11Z</time>
      </trkpt>
      <trkpt lat="44.42796" lon="1.43592">
        <ele>135.2</ele>
        <time>2021-10-02T14:36:12Z</time>
      </trkpt>
      <trkpt lat="44.42795" lon="1.43586">
        <ele>135.3</ele>
        <time>2021-10-02T14:36:14Z</time>
      </trkpt>
      <trkpt lat="44.42794" lon="1.43581">
        <ele>135.4</ele>
        <time>2021-10-02T14:36:15Z</time>
      </trkpt>
      <trkpt lat="44.42794" lon="1.43576">
        <ele>135.5</ele>
        <time>2021-10-02T14:36:16Z</time>
      </trkpt>
      <trkpt lat="44.42794" lon="1.43566">
        <ele>135.8</ele>
        <time>2021-10-02T14:36:18Z</time>
      </trkpt>
      <trkpt lat="44.42793" lon="1.43562">
        <ele>136</ele>
        <time>2021-10-02T14:36:19Z</time>
      </trkpt>
      <trkpt lat="44.42792" lon="1.43552">
        <ele>136.2</ele>
        <time>2021-10-02T14:36:21Z</time>
      </trkpt>
      <trkpt lat="44.42792" lon="1.43545">
        <ele>136.4</ele>
        <time>2021-10-02T14:36:22Z</time>
      </trkpt>
      <trkpt lat="44.42792" lon="1.43539">
        <ele>136.5</ele>
        <time>2021-10-02T14:36:24Z</time>
      </trkpt>
      <trkpt lat="44.42791" lon="1.43529">
        <ele>136.7</ele>
        <time>2021-10-02T14:36:26Z</time>
      </trkpt>
      <trkpt lat="44.42791" lon="1.4352">
        <ele>136.8</ele>
        <time>2021-10-02T14:36:28Z</time>
      </trkpt>
      <trkpt lat="44.4279" lon="1.43512">
        <ele>136.9</ele>
        <time>2021-10-02T14:36:29Z</time>
      </trkpt>
      <trkpt lat="44.4279" lon="1.43506">
        <ele>137</ele>
        <time>2021-10-02T14:36:31Z</time>
      </trkpt>
      <trkpt lat="44.42789" lon="1.43499">
        <ele>137</ele>
        <time>2021-10-02T14:36:32Z</time>
      </trkpt>
      <trkpt lat="44.42789" lon="1.43493">
        <ele>137</ele>
        <time>2021-10-02T14:36:33Z</time>
      </trkpt>
      <trkpt lat="44.42789" lon="1.43487">
        <ele>137</ele>
        <time>2021-10-02T14:36:35Z</time>
      </trkpt>
      <trkpt lat="44.42789" lon="1.43478">
        <ele>137</ele>
        <time>2021-10-02T14:36:36Z</time>
      </trkpt>
      <trkpt lat="44.42789" lon="1.43473">
        <ele>137</ele>
        <time>2021-10-02T14:36:38Z</time>
      </trkpt>
      <trkpt lat="44.42789" lon="1.43467">
        <ele>137</ele>
        <time>2021-10-02T14:36:39Z</time>
      </trkpt>
      <trkpt lat="44.4279" lon="1.43459">
        <ele>137</ele>
        <time>2021-10-02T14:36:40Z</time>
      </trkpt>
      <trkpt lat="44.42791" lon="1.4345">
        <ele>137</ele>
        <time>2021-10-02T14:36:42Z</time>
      </trkpt>
      <trkpt lat="44.42792" lon="1.43444">
        <ele>137</ele>
        <time>2021-10-02T14:36:43Z</time>
      </trkpt>
      <trkpt lat="44.42795" lon="1.43432">
        <ele>137</ele>
        <time>2021-10-02T14:36:45Z</time>
      </trkpt>
      <trkpt lat="44.42796" lon="1.43425">
        <ele>137</ele>
        <time>2021-10-02T14:36:46Z</time>
      </trkpt>
      <trkpt lat="44.42799" lon="1.43413">
        <ele>137</ele>
        <time>2021-10-02T14:36:48Z</time>
      </trkpt>
      <trkpt lat="44.428" lon="1.43408">
        <ele>137</ele>
        <time>2021-10-02T14:36:49Z</time>
      </trkpt>
      <trkpt lat="44.42804" lon="1.43396">
        <ele>137</ele>
        <time>2021-10-02T14:36:51Z</time>
      </trkpt>
      <trkpt lat="44.42808" lon="1.43383">
        <ele>137.1</ele>
        <time>2021-10-02T14:36:53Z</time>
      </trkpt>
      <trkpt lat="44.42811" lon="1.43371">
        <ele>137.3</ele>
        <time>2021-10-02T14:36:55Z</time>
      </trkpt>
      <trkpt lat="44.42813" lon="1.43365">
        <ele>137.3</ele>
        <time>2021-10-02T14:36:56Z</time>
      </trkpt>
      <trkpt lat="44.42816" lon="1.43353">
        <ele>137.5</ele>
        <time>2021-10-02T14:36:58Z</time>
      </trkpt>
      <trkpt lat="44.42818" lon="1.43348">
        <ele>137.5</ele>
        <time>2021-10-02T14:36:59Z</time>
      </trkpt>
      <trkpt lat="44.42822" lon="1.43336">
        <ele>137.6</ele>
        <time>2021-10-02T14:37:01Z</time>
      </trkpt>
      <trkpt lat="44.42823" lon="1.4333">
        <ele>137.6</ele>
        <time>2021-10-02T14:37:02Z</time>
      </trkpt>
      <trkpt lat="44.42826" lon="1.43318">
        <ele>137.7</ele>
        <time>2021-10-02T14:37:04Z</time>
      </trkpt>
      <trkpt lat="44.42828" lon="1.43312">
        <ele>137.7</ele>
        <time>2021-10-02T14:37:05Z</time>
      </trkpt>
      <trkpt lat="44.4283" lon="1.43301">
        <ele>137.8</ele>
        <time>2021-10-02T14:37:07Z</time>
      </trkpt>
      <trkpt lat="44.42832" lon="1.43294">
        <ele>137.9</ele>
        <time>2021-10-02T14:37:08Z</time>
      </trkpt>
      <trkpt lat="44.42836" lon="1.43281">
        <ele>138.1</ele>
        <time>2021-10-02T14:37:10Z</time>
      </trkpt>
      <trkpt lat="44.42839" lon="1.43268">
        <ele>138.2</ele>
        <time>2021-10-02T14:37:12Z</time>
      </trkpt>
      <trkpt lat="44.42843" lon="1.43256">
        <ele>138.3</ele>
        <time>2021-10-02T14:37:14Z</time>
      </trkpt>
      <trkpt lat="44.42844" lon="1.43251">
        <ele>138.4</ele>
        <time>2021-10-02T14:37:15Z</time>
      </trkpt>
      <trkpt lat="44.42846" lon="1.43244">
        <ele>138.5</ele>
        <time>2021-10-02T14:37:16Z</time>
      </trkpt>
      <trkpt lat="44.42846" lon="1.43238">
        <ele>138.5</ele>
        <time>2021-10-02T14:37:17Z</time>
      </trkpt>
      <trkpt lat="44.42847" lon="1.43229">
        <ele>138.6</ele>
        <time>2021-10-02T14:37:18Z</time>
      </trkpt>
      <trkpt lat="44.42849" lon="1.43221">
        <ele>138.7</ele>
        <time>2021-10-02T14:37:20Z</time>
      </trkpt>
      <trkpt lat="44.42851" lon="1.43215">
        <ele>138.7</ele>
        <time>2021-10-02T14:37:21Z</time>
      </trkpt>
      <trkpt lat="44.42852" lon="1.43208">
        <ele>138.8</ele>
        <time>2021-10-02T14:37:22Z</time>
      </trkpt>
      <trkpt lat="44.42855" lon="1.43197">
        <ele>138.9</ele>
        <time>2021-10-02T14:37:24Z</time>
      </trkpt>
      <trkpt lat="44.42858" lon="1.43185">
        <ele>139</ele>
        <time>2021-10-02T14:37:26Z</time>
      </trkpt>
      <trkpt lat="44.4286" lon="1.43175">
        <ele>139.1</ele>
        <time>2021-10-02T14:37:27Z</time>
      </trkpt>
      <trkpt lat="44.42861" lon="1.43168">
        <ele>139.2</ele>
        <time>2021-10-02T14:37:28Z</time>
      </trkpt>
      <trkpt lat="44.42861" lon="1.43159">
        <ele>139.3</ele>
        <time>2021-10-02T14:37:30Z</time>
      </trkpt>
      <trkpt lat="44.4286" lon="1.43153">
        <ele>139.4</ele>
        <time>2021-10-02T14:37:31Z</time>
      </trkpt>
      <trkpt lat="44.4286" lon="1.43144">
        <ele>139.5</ele>
        <time>2021-10-02T14:37:33Z</time>
      </trkpt>
      <trkpt lat="44.42859" lon="1.43139">
        <ele>139.6</ele>
        <time>2021-10-02T14:37:34Z</time>
      </trkpt>
      <trkpt lat="44.42859" lon="1.43128">
        <ele>139.6</ele>
        <time>2021-10-02T14:37:36Z</time>
      </trkpt>
      <trkpt lat="44.42859" lon="1.43123">
        <ele>139.7</ele>
        <time>2021-10-02T14:37:37Z</time>
      </trkpt>
      <trkpt lat="44.42859" lon="1.43112">
        <ele>139.8</ele>
        <time>2021-10-02T14:37:39Z</time>
      </trkpt>
      <trkpt lat="44.42859" lon="1.43106">
        <ele>139.8</ele>
        <time>2021-10-02T14:37:40Z</time>
      </trkpt>
      <trkpt lat="44.42859" lon="1.43095">
        <ele>139.9</ele>
        <time>2021-10-02T14:37:41Z</time>
      </trkpt>
      <trkpt lat="44.42859" lon="1.43089">
        <ele>139.9</ele>
        <time>2021-10-02T14:37:42Z</time>
      </trkpt>
      <trkpt lat="44.4286" lon="1.43083">
        <ele>140</ele>
        <time>2021-10-02T14:37:44Z</time>
      </trkpt>
      <trkpt lat="44.42861" lon="1.43077">
        <ele>140.1</ele>
        <time>2021-10-02T14:37:45Z</time>
      </trkpt>
      <trkpt lat="44.42863" lon="1.43064">
        <ele>140.2</ele>
        <time>2021-10-02T14:37:47Z</time>
      </trkpt>
      <trkpt lat="44.42865" lon="1.43053">
        <ele>140.4</ele>
        <time>2021-10-02T14:37:49Z</time>
      </trkpt>
      <trkpt lat="44.42866" lon="1.43047">
        <ele>140.5</ele>
        <time>2021-10-02T14:37:50Z</time>
      </trkpt>
      <trkpt lat="44.42867" lon="1.43041">
        <ele>140.6</ele>
        <time>2021-10-02T14:37:51Z</time>
      </trkpt>
      <trkpt lat="44.42869" lon="1.4303">
        <ele>140.8</ele>
        <time>2021-10-02T14:37:53Z</time>
      </trkpt>
      <trkpt lat="44.4287" lon="1.43024">
        <ele>140.8</ele>
        <time>2021-10-02T14:37:54Z</time>
      </trkpt>
      <trkpt lat="44.42872" lon="1.43015">
        <ele>140.9</ele>
        <time>2021-10-02T14:37:56Z</time>
      </trkpt>
      <trkpt lat="44.42872" lon="1.43004">
        <ele>140.9</ele>
        <time>2021-10-02T14:37:58Z</time>
      </trkpt>
      <trkpt lat="44.42868" lon="1.42995">
        <ele>140.9</ele>
        <time>2021-10-02T14:38:00Z</time>
      </trkpt>
      <trkpt lat="44.42865" lon="1.42991">
        <ele>140.9</ele>
        <time>2021-10-02T14:38:01Z</time>
      </trkpt>
      <trkpt lat="44.42857" lon="1.42981">
        <ele>140.9</ele>
        <time>2021-10-02T14:38:03Z</time>
      </trkpt>
      <trkpt lat="44.42853" lon="1.42974">
        <ele>140.9</ele>
        <time>2021-10-02T14:38:04Z</time>
      </trkpt>
      <trkpt lat="44.42849" lon="1.42967">
        <ele>140.9</ele>
        <time>2021-10-02T14:38:06Z</time>
      </trkpt>
      <trkpt lat="44.42847" lon="1.42964">
        <ele>141.5</ele>
        <time>2021-10-02T14:38:07Z</time>
      </trkpt>
      <trkpt lat="44.42842" lon="1.42961">
        <ele>142.1</ele>
        <time>2021-10-02T14:38:09Z</time>
      </trkpt>
      <trkpt lat="44.42833" lon="1.42965">
        <ele>142.5</ele>
        <time>2021-10-02T14:38:10Z</time>
      </trkpt>
      <trkpt lat="44.42828" lon="1.42963">
        <ele>143.2</ele>
        <time>2021-10-02T14:38:11Z</time>
      </trkpt>
      <trkpt lat="44.42824" lon="1.42954">
        <ele>143.9</ele>
        <time>2021-10-02T14:38:13Z</time>
      </trkpt>
      <trkpt lat="44.42824" lon="1.42949">
        <ele>144</ele>
        <time>2021-10-02T14:38:14Z</time>
      </trkpt>
      <trkpt lat="44.42827" lon="1.42942">
        <ele>144.1</ele>
        <time>2021-10-02T14:38:15Z</time>
      </trkpt>
      <trkpt lat="44.42831" lon="1.42939">
        <ele>144.2</ele>
        <time>2021-10-02T14:38:17Z</time>
      </trkpt>
      <trkpt lat="44.42834" lon="1.42936">
        <ele>144.3</ele>
        <time>2021-10-02T14:38:18Z</time>
      </trkpt>
      <trkpt lat="44.42835" lon="1.42935">
        <ele>144.4</ele>
        <time>2021-10-02T14:38:19Z</time>
      </trkpt>
      <trkpt lat="44.42838" lon="1.42933">
        <ele>144.5</ele>
        <time>2021-10-02T14:38:20Z</time>
      </trkpt>
      <trkpt lat="44.42839" lon="1.42932">
        <ele>144.5</ele>
        <time>2021-10-02T14:38:21Z</time>
      </trkpt>
      <trkpt lat="44.42842" lon="1.42929">
        <ele>144.6</ele>
        <time>2021-10-02T14:38:23Z</time>
      </trkpt>
      <trkpt lat="44.42843" lon="1.42929">
        <ele>144.6</ele>
        <time>2021-10-02T14:38:24Z</time>
      </trkpt>
      <trkpt lat="44.42845" lon="1.42925">
        <ele>144.7</ele>
        <time>2021-10-02T14:38:26Z</time>
      </trkpt>
      <trkpt lat="44.42845" lon="1.42923">
        <ele>144.7</ele>
        <time>2021-10-02T14:38:27Z</time>
      </trkpt>
      <trkpt lat="44.42846" lon="1.42921">
        <ele>144.8</ele>
        <time>2021-10-02T14:38:28Z</time>
      </trkpt>
      <trkpt lat="44.42847" lon="1.42917">
        <ele>144.9</ele>
        <time>2021-10-02T14:38:30Z</time>
      </trkpt>
      <trkpt lat="44.42848" lon="1.42916">
        <ele>144.9</ele>
        <time>2021-10-02T14:38:31Z</time>
      </trkpt>
      <trkpt lat="44.42849" lon="1.42913">
        <ele>144.9</ele>
        <time>2021-10-02T14:38:32Z</time>
      </trkpt>
      <trkpt lat="44.4285" lon="1.42908">
        <ele>145</ele>
        <time>2021-10-02T14:38:34Z</time>
      </trkpt>
      <trkpt lat="44.42853" lon="1.42902">
        <ele>145.2</ele>
        <time>2021-10-02T14:38:36Z</time>
      </trkpt>
      <trkpt lat="44.42854" lon="1.42898">
        <ele>145.2</ele>
        <time>2021-10-02T14:38:37Z</time>
      </trkpt>
      <trkpt lat="44.42856" lon="1.42893">
        <ele>145.3</ele>
        <time>2021-10-02T14:38:38Z</time>
      </trkpt>
      <trkpt lat="44.42859" lon="1.42887">
        <ele>145.4</ele>
        <time>2021-10-02T14:38:40Z</time>
      </trkpt>
      <trkpt lat="44.42861" lon="1.42878">
        <ele>145.5</ele>
        <time>2021-10-02T14:38:42Z</time>
      </trkpt>
      <trkpt lat="44.42862" lon="1.42873">
        <ele>145.6</ele>
        <time>2021-10-02T14:38:43Z</time>
      </trkpt>
      <trkpt lat="44.42865" lon="1.42868">
        <ele>145.6</ele>
        <time>2021-10-02T14:38:45Z</time>
      </trkpt>
      <trkpt lat="44.42867" lon="1.42864">
        <ele>145.7</ele>
        <time>2021-10-02T14:38:46Z</time>
      </trkpt>
      <trkpt lat="44.42869" lon="1.42858">
        <ele>145.7</ele>
        <time>2021-10-02T14:38:48Z</time>
      </trkpt>
      <trkpt lat="44.42871" lon="1.42855">
        <ele>145.7</ele>
        <time>2021-10-02T14:38:49Z</time>
      </trkpt>
      <trkpt lat="44.42873" lon="1.42849">
        <ele>145.7</ele>
        <time>2021-10-02T14:38:51Z</time>
      </trkpt>
      <trkpt lat="44.42875" lon="1.4284">
        <ele>145.7</ele>
        <time>2021-10-02T14:38:52Z</time>
      </trkpt>
      <trkpt lat="44.42874" lon="1.42836">
        <ele>145.6</ele>
        <time>2021-10-02T14:38:54Z</time>
      </trkpt>
      <trkpt lat="44.4287" lon="1.42833">
        <ele>145.6</ele>
        <time>2021-10-02T14:38:55Z</time>
      </trkpt>
      <trkpt lat="44.42863" lon="1.42829">
        <ele>145.6</ele>
        <time>2021-10-02T14:38:57Z</time>
      </trkpt>
      <trkpt lat="44.42858" lon="1.42827">
        <ele>145.6</ele>
        <time>2021-10-02T14:38:58Z</time>
      </trkpt>
      <trkpt lat="44.42847" lon="1.42825">
        <ele>145.7</ele>
        <time>2021-10-02T14:39:00Z</time>
      </trkpt>
      <trkpt lat="44.42838" lon="1.42822">
        <ele>146</ele>
        <time>2021-10-02T14:39:02Z</time>
      </trkpt>
      <trkpt lat="44.42833" lon="1.42821">
        <ele>146.2</ele>
        <time>2021-10-02T14:39:03Z</time>
      </trkpt>
      <trkpt lat="44.42826" lon="1.42819">
        <ele>146.6</ele>
        <time>2021-10-02T14:39:05Z</time>
      </trkpt>
      <trkpt lat="44.42821" lon="1.42818">
        <ele>146.9</ele>
        <time>2021-10-02T14:39:06Z</time>
      </trkpt>
      <trkpt lat="44.42816" lon="1.42813">
        <ele>147.3</ele>
        <time>2021-10-02T14:39:07Z</time>
      </trkpt>
      <trkpt lat="44.42815" lon="1.42807">
        <ele>148</ele>
        <time>2021-10-02T14:39:09Z</time>
      </trkpt>
      <trkpt lat="44.42815" lon="1.42799">
        <ele>148.6</ele>
        <time>2021-10-02T14:39:11Z</time>
      </trkpt>
      <trkpt lat="44.42815" lon="1.42791">
        <ele>149.1</ele>
        <time>2021-10-02T14:39:12Z</time>
      </trkpt>
      <trkpt lat="44.42815" lon="1.42784">
        <ele>149.6</ele>
        <time>2021-10-02T14:39:14Z</time>
      </trkpt>
      <trkpt lat="44.42814" lon="1.42779">
        <ele>149.9</ele>
        <time>2021-10-02T14:39:15Z</time>
      </trkpt>
      <trkpt lat="44.42812" lon="1.4277">
        <ele>150.4</ele>
        <time>2021-10-02T14:39:17Z</time>
      </trkpt>
      <trkpt lat="44.42809" lon="1.42766">
        <ele>150.7</ele>
        <time>2021-10-02T14:39:18Z</time>
      </trkpt>
      <trkpt lat="44.42805" lon="1.42759">
        <ele>151.3</ele>
        <time>2021-10-02T14:39:19Z</time>
      </trkpt>
      <trkpt lat="44.42802" lon="1.42756">
        <ele>151.6</ele>
        <time>2021-10-02T14:39:21Z</time>
      </trkpt>
      <trkpt lat="44.42799" lon="1.42755">
        <ele>151.9</ele>
        <time>2021-10-02T14:39:22Z</time>
      </trkpt>
      <trkpt lat="44.42796" lon="1.42752">
        <ele>152.2</ele>
        <time>2021-10-02T14:39:24Z</time>
      </trkpt>
      <trkpt lat="44.42794" lon="1.42751">
        <ele>152.4</ele>
        <time>2021-10-02T14:39:25Z</time>
      </trkpt>
      <trkpt lat="44.42792" lon="1.4275">
        <ele>152.6</ele>
        <time>2021-10-02T14:39:27Z</time>
      </trkpt>
      <trkpt lat="44.42788" lon="1.42749">
        <ele>152.9</ele>
        <time>2021-10-02T14:39:29Z</time>
      </trkpt>
      <trkpt lat="44.42787" lon="1.42749">
        <ele>153</ele>
        <time>2021-10-02T14:39:30Z</time>
      </trkpt>
      <trkpt lat="44.42784" lon="1.42749">
        <ele>153.2</ele>
        <time>2021-10-02T14:39:31Z</time>
      </trkpt>
      <trkpt lat="44.42781" lon="1.42749">
        <ele>153.5</ele>
        <time>2021-10-02T14:39:32Z</time>
      </trkpt>
      <trkpt lat="44.42776" lon="1.42747">
        <ele>153.8</ele>
        <time>2021-10-02T14:39:33Z</time>
      </trkpt>
      <trkpt lat="44.42774" lon="1.42747">
        <ele>154</ele>
        <time>2021-10-02T14:39:34Z</time>
      </trkpt>
      <trkpt lat="44.42772" lon="1.42746">
        <ele>154.2</ele>
        <time>2021-10-02T14:39:36Z</time>
      </trkpt>
      <trkpt lat="44.42767" lon="1.42742">
        <ele>154.6</ele>
        <time>2021-10-02T14:39:38Z</time>
      </trkpt>
      <trkpt lat="44.42763" lon="1.42739">
        <ele>154.9</ele>
        <time>2021-10-02T14:39:39Z</time>
      </trkpt>
      <trkpt lat="44.42762" lon="1.42737">
        <ele>155.1</ele>
        <time>2021-10-02T14:39:40Z</time>
      </trkpt>
      <trkpt lat="44.4276" lon="1.42735">
        <ele>155.3</ele>
        <time>2021-10-02T14:39:42Z</time>
      </trkpt>
      <trkpt lat="44.42757" lon="1.42731">
        <ele>155.5</ele>
        <time>2021-10-02T14:39:43Z</time>
      </trkpt>
      <trkpt lat="44.42756" lon="1.42727">
        <ele>155.7</ele>
        <time>2021-10-02T14:39:45Z</time>
      </trkpt>
      <trkpt lat="44.42755" lon="1.42726">
        <ele>155.8</ele>
        <time>2021-10-02T14:39:46Z</time>
      </trkpt>
      <trkpt lat="44.42755" lon="1.42724">
        <ele>155.9</ele>
        <time>2021-10-02T14:39:47Z</time>
      </trkpt>
      <trkpt lat="44.42754" lon="1.42722">
        <ele>156.1</ele>
        <time>2021-10-02T14:39:48Z</time>
      </trkpt>
      <trkpt lat="44.42753" lon="1.42719">
        <ele>156.2</ele>
        <time>2021-10-02T14:39:50Z</time>
      </trkpt>
      <trkpt lat="44.42751" lon="1.42715">
        <ele>156.5</ele>
        <time>2021-10-02T14:39:52Z</time>
      </trkpt>
      <trkpt lat="44.4275" lon="1.42713">
        <ele>156.6</ele>
        <time>2021-10-02T14:39:53Z</time>
      </trkpt>
      <trkpt lat="44.42749" lon="1.4271">
        <ele>156.8</ele>
        <time>2021-10-02T14:39:55Z</time>
      </trkpt>
      <trkpt lat="44.42748" lon="1.42708">
        <ele>156.9</ele>
        <time>2021-10-02T14:39:56Z</time>
      </trkpt>
      <trkpt lat="44.42747" lon="1.42706">
        <ele>157</ele>
        <time>2021-10-02T14:39:57Z</time>
      </trkpt>
      <trkpt lat="44.42745" lon="1.42702">
        <ele>157.2</ele>
        <time>2021-10-02T14:39:59Z</time>
      </trkpt>
      <trkpt lat="44.42742" lon="1.42699">
        <ele>157.4</ele>
        <time>2021-10-02T14:40:00Z</time>
      </trkpt>
      <trkpt lat="44.42741" lon="1.42699">
        <ele>157.5</ele>
        <time>2021-10-02T14:40:01Z</time>
      </trkpt>
      <trkpt lat="44.4274" lon="1.42697">
        <ele>157.6</ele>
        <time>2021-10-02T14:40:02Z</time>
      </trkpt>
      <trkpt lat="44.42738" lon="1.42695">
        <ele>157.7</ele>
        <time>2021-10-02T14:40:03Z</time>
      </trkpt>
      <trkpt lat="44.42736" lon="1.42692">
        <ele>158</ele>
        <time>2021-10-02T14:40:05Z</time>
      </trkpt>
      <trkpt lat="44.42735" lon="1.4269">
        <ele>158.1</ele>
        <time>2021-10-02T14:40:06Z</time>
      </trkpt>
      <trkpt lat="44.42734" lon="1.42688">
        <ele>158.1</ele>
        <time>2021-10-02T14:40:07Z</time>
      </trkpt>
      <trkpt lat="44.42731" lon="1.42683">
        <ele>158.4</ele>
        <time>2021-10-02T14:40:09Z</time>
      </trkpt>
      <trkpt lat="44.4273" lon="1.42681">
        <ele>158.5</ele>
        <time>2021-10-02T14:40:11Z</time>
      </trkpt>
      <trkpt lat="44.42728" lon="1.42679">
        <ele>158.6</ele>
        <time>2021-10-02T14:40:12Z</time>
      </trkpt>
      <trkpt lat="44.42727" lon="1.42677">
        <ele>158.7</ele>
        <time>2021-10-02T14:40:13Z</time>
      </trkpt>
      <trkpt lat="44.42726" lon="1.42675">
        <ele>158.8</ele>
        <time>2021-10-02T14:40:15Z</time>
      </trkpt>
      <trkpt lat="44.42725" lon="1.42674">
        <ele>158.8</ele>
        <time>2021-10-02T14:40:16Z</time>
      </trkpt>
      <trkpt lat="44.42723" lon="1.42671">
        <ele>159</ele>
        <time>2021-10-02T14:40:17Z</time>
      </trkpt>
      <trkpt lat="44.42722" lon="1.42669">
        <ele>159</ele>
        <time>2021-10-02T14:40:18Z</time>
      </trkpt>
      <trkpt lat="44.4272" lon="1.42668">
        <ele>159.1</ele>
        <time>2021-10-02T14:40:20Z</time>
      </trkpt>
      <trkpt lat="44.42718" lon="1.42665">
        <ele>159.1</ele>
        <time>2021-10-02T14:40:22Z</time>
      </trkpt>
      <trkpt lat="44.42717" lon="1.42664">
        <ele>159.2</ele>
        <time>2021-10-02T14:40:23Z</time>
      </trkpt>
      <trkpt lat="44.42714" lon="1.42661">
        <ele>159.2</ele>
        <time>2021-10-02T14:40:25Z</time>
      </trkpt>
      <trkpt lat="44.42714" lon="1.4266">
        <ele>159.2</ele>
        <time>2021-10-02T14:40:27Z</time>
      </trkpt>
      <trkpt lat="44.42713" lon="1.42661">
        <ele>159.2</ele>
        <time>2021-10-02T14:40:28Z</time>
      </trkpt>
      <trkpt lat="44.42713" lon="1.42661">
        <ele>159.2</ele>
        <time>2021-10-02T14:40:30Z</time>
      </trkpt>
      <trkpt lat="44.42713" lon="1.4266">
        <ele>159.2</ele>
        <time>2021-10-02T14:40:31Z</time>
      </trkpt>
      <trkpt lat="44.42713" lon="1.4266">
        <ele>159.2</ele>
        <time>2021-10-02T14:40:33Z</time>
      </trkpt>
      <trkpt lat="44.42713" lon="1.4266">
        <ele>159.2</ele>
        <time>2021-10-02T14:40:35Z</time>
      </trkpt>
    </trkseg>
  </trk>
</gpx>